<?xml version='1.0' encoding='UTF-8'?><gpx version="1.1" creator="JPX - https://github.com/jenetics/jpx" xmlns="http://www.topografix.com/GPX/1/1"><trk><trkseg><trkpt lat="43.06097525053098" lon="12.583265242742208"><ele>220.0</ele><time>2026-05-01T10:30:04.06Z</time></trkpt><trkpt lat="43.06094907818059" lon="12.583424586379522"><ele>220.0</ele><time>2026-05-01T10:30:05.06Z</time></trkpt><trkpt lat="43.06104979438977" lon="12.583719197971888"><ele>220.0</ele><time>2026-05-01T10:30:08.06Z</time></trkpt><trkpt lat="43.061090203326934" lon="12.583893525083933"><ele>220.33333333333331</ele><time>2026-05-01T10:30:09.06Z</time></trkpt><trkpt lat="43.06114428296003" lon="12.583998020669071"><ele>220.66666666666666</ele><time>2026-05-01T10:30:10.06Z</time></trkpt><trkpt lat="43.06118945841922" lon="12.584072136639803"><ele>221.0</ele><time>2026-05-01T10:30:11.012Z</time></trkpt><trkpt lat="43.061238837663865" lon="12.584145822048336"><ele>221.33333333333331</ele><time>2026-05-01T10:30:12.012Z</time></trkpt><trkpt lat="43.061289980773516" lon="12.584228023839803"><ele>221.66666666666666</ele><time>2026-05-01T10:30:13.011Z</time></trkpt><trkpt lat="43.06133626433983" lon="12.584302642967762"><ele>222.0</ele><time>2026-05-01T10:30:14.01Z</time></trkpt><trkpt lat="43.061398249138726" lon="12.58443655676015"><ele>222.0</ele><time>2026-05-01T10:30:17.009Z</time></trkpt><trkpt lat="43.061238822354895" lon="12.584483702265503"><ele>222.0</ele><time>2026-05-01T10:30:19.007Z</time></trkpt><trkpt lat="43.061178731933325" lon="12.58453552992703"><ele>222.0</ele><time>2026-05-01T10:30:20.007Z</time></trkpt><trkpt lat="43.0610652303613" lon="12.584593984454047"><ele>222.0</ele><time>2026-05-01T10:30:22.006Z</time></trkpt><trkpt lat="43.06106915955691" lon="12.58472076452058"><ele>222.0</ele><time>2026-05-01T10:30:31.003Z</time></trkpt><trkpt lat="43.06109673069019" lon="12.584834089785879"><ele>222.2</ele><time>2026-05-01T10:30:32.003Z</time></trkpt><trkpt lat="43.06116236524883" lon="12.584942812403394"><ele>222.39999999999998</ele><time>2026-05-01T10:30:33.003Z</time></trkpt><trkpt lat="43.06122594633029" lon="12.58505076440047"><ele>222.60000000000002</ele><time>2026-05-01T10:30:34.003Z</time></trkpt><trkpt lat="43.06128169433926" lon="12.585160505199724"><ele>222.8</ele><time>2026-05-01T10:30:35.003Z</time></trkpt><trkpt lat="43.061336933316284" lon="12.585260296235422"><ele>223.0</ele><time>2026-05-01T10:30:36.003Z</time></trkpt><trkpt lat="43.06138906097601" lon="12.58536248287945"><ele>223.16666666666666</ele><time>2026-05-01T10:30:37.002Z</time></trkpt><trkpt lat="43.06144232506941" lon="12.585461472614078"><ele>223.33333333333331</ele><time>2026-05-01T10:30:38.002Z</time></trkpt><trkpt lat="43.06149976617586" lon="12.585557434383668"><ele>223.5</ele><time>2026-05-01T10:30:39.002Z</time></trkpt><trkpt lat="43.061553341539295" lon="12.58564491795573"><ele>223.66666666666669</ele><time>2026-05-01T10:30:40.002Z</time></trkpt><trkpt lat="43.06159579298762" lon="12.585725938856621"><ele>223.83333333333334</ele><time>2026-05-01T10:30:41.002Z</time></trkpt><trkpt lat="43.06162504992279" lon="12.585802373954039"><ele>224.0</ele><time>2026-05-01T10:30:43.002Z</time></trkpt><trkpt lat="43.06168646568792" lon="12.585896844478343"><ele>224.2</ele><time>2026-05-01T10:30:45.002Z</time></trkpt><trkpt lat="43.06173293968293" lon="12.585968160862606"><ele>224.39999999999998</ele><time>2026-05-01T10:30:51.001Z</time></trkpt><trkpt lat="43.06173187948694" lon="12.586101762039954"><ele>224.6</ele><time>2026-05-01T10:30:53.001Z</time></trkpt><trkpt lat="43.06168022606219" lon="12.586155413808747"><ele>224.8</ele><time>2026-05-01T10:30:54.001Z</time></trkpt><trkpt lat="43.06162206293861" lon="12.586279661167111"><ele>225.0</ele><time>2026-05-01T10:30:56.001Z</time></trkpt><trkpt lat="43.06155112351798" lon="12.586400041008106"><ele>224.6</ele><time>2026-05-01T10:30:58.001Z</time></trkpt><trkpt lat="43.06149771645812" lon="12.586467630149167"><ele>224.2</ele><time>2026-05-01T10:30:59.001Z</time></trkpt><trkpt lat="43.061432931613055" lon="12.586545971257241"><ele>223.8</ele><time>2026-05-01T10:31:00.001Z</time></trkpt><trkpt lat="43.06135455841009" lon="12.586639861968166"><ele>223.4</ele><time>2026-05-01T10:31:01.001Z</time></trkpt><trkpt lat="43.061265775129755" lon="12.586743892150873"><ele>223.0</ele><time>2026-05-01T10:31:02.001Z</time></trkpt><trkpt lat="43.061174147703866" lon="12.586849728036524"><ele>223.0</ele><time>2026-05-01T10:31:03.001Z</time></trkpt><trkpt lat="43.06107370282365" lon="12.586961050588505"><ele>223.0</ele><time>2026-05-01T10:31:04.001Z</time></trkpt><trkpt lat="43.06097607706488" lon="12.58708458393198"><ele>223.0</ele><time>2026-05-01T10:31:05.001Z</time></trkpt><trkpt lat="43.060884029982375" lon="12.587194883222642"><ele>223.0</ele><time>2026-05-01T10:31:06.001Z</time></trkpt><trkpt lat="43.06080195816067" lon="12.587299069058934"><ele>222.4</ele><time>2026-05-01T10:31:07.001Z</time></trkpt><trkpt lat="43.06074129121951" lon="12.587370478941688"><ele>221.8</ele><time>2026-05-01T10:31:08.001Z</time></trkpt><trkpt lat="43.06069224759304" lon="12.587427913397828"><ele>221.2</ele><time>2026-05-01T10:31:09.001Z</time></trkpt><trkpt lat="43.06061577186503" lon="12.587499903384444"><ele>220.6</ele><time>2026-05-01T10:31:11Z</time></trkpt><trkpt lat="43.060533023876225" lon="12.587594493907961"><ele>220.0</ele><time>2026-05-01T10:31:13Z</time></trkpt><trkpt lat="43.060402076494455" lon="12.587549631974431"><ele>220.0</ele><time>2026-05-01T10:31:15Z</time></trkpt><trkpt lat="43.060306899413774" lon="12.587545801297432"><ele>220.0</ele><time>2026-05-01T10:31:16Z</time></trkpt><trkpt lat="43.060224887201294" lon="12.587600515989068"><ele>220.0</ele><time>2026-05-01T10:31:17Z</time></trkpt><trkpt lat="43.060144356486525" lon="12.587666430092256"><ele>220.0</ele><time>2026-05-01T10:31:18Z</time></trkpt><trkpt lat="43.060097642463674" lon="12.587820575011246"><ele>220.0</ele><time>2026-05-01T10:31:19Z</time></trkpt><trkpt lat="43.06007467986198" lon="12.587991194905298"><ele>220.0</ele><time>2026-05-01T10:31:20Z</time></trkpt><trkpt lat="43.06014102405682" lon="12.588132615979458"><ele>220.0</ele><time>2026-05-01T10:31:21Z</time></trkpt><trkpt lat="43.05999077444552" lon="12.588255145066022"><ele>220.0</ele><time>2026-05-01T10:31:22Z</time></trkpt><trkpt lat="43.05989610993959" lon="12.588384859796314"><ele>220.0</ele><time>2026-05-01T10:31:23Z</time></trkpt><trkpt lat="43.05977446891597" lon="12.588517709686009"><ele>220.0</ele><time>2026-05-01T10:31:24Z</time></trkpt><trkpt lat="43.059657934095306" lon="12.588648612682988"><ele>220.0</ele><time>2026-05-01T10:31:25Z</time></trkpt><trkpt lat="43.059541197581325" lon="12.588792999994869"><ele>220.0</ele><time>2026-05-01T10:31:26Z</time></trkpt><trkpt lat="43.05942086399446" lon="12.588943337184558"><ele>220.66666666666666</ele><time>2026-05-01T10:31:27Z</time></trkpt><trkpt lat="43.05929955190036" lon="12.589090693492686"><ele>221.33333333333331</ele><time>2026-05-01T10:31:28Z</time></trkpt><trkpt lat="43.05918036630687" lon="12.589237470465532"><ele>222.0</ele><time>2026-05-01T10:31:29Z</time></trkpt><trkpt lat="43.05895110814029" lon="12.5895281894869"><ele>222.0</ele><time>2026-05-01T10:31:31Z</time></trkpt><trkpt lat="43.05883828200575" lon="12.589663720590842"><ele>222.0</ele><time>2026-05-01T10:31:32Z</time></trkpt><trkpt lat="43.058730598545104" lon="12.589790789347735"><ele>222.0</ele><time>2026-05-01T10:31:33Z</time></trkpt><trkpt lat="43.05862513699624" lon="12.589915622408009"><ele>222.0</ele><time>2026-05-01T10:31:34Z</time></trkpt><trkpt lat="43.058509672757936" lon="12.590052198264878"><ele>222.0</ele><time>2026-05-01T10:31:35Z</time></trkpt><trkpt lat="43.058392189778765" lon="12.590196057719766"><ele>222.0</ele><time>2026-05-01T10:31:36Z</time></trkpt><trkpt lat="43.05827335356781" lon="12.590344740105316"><ele>222.0</ele><time>2026-05-01T10:31:37Z</time></trkpt><trkpt lat="43.058153370297525" lon="12.590494017342161"><ele>221.66666666666669</ele><time>2026-05-01T10:31:38Z</time></trkpt><trkpt lat="43.058036042935115" lon="12.590639294254062"><ele>221.33333333333334</ele><time>2026-05-01T10:31:39Z</time></trkpt><trkpt lat="43.05791929942477" lon="12.590779293993146"><ele>221.0</ele><time>2026-05-01T10:31:40Z</time></trkpt><trkpt lat="43.057806094188955" lon="12.590912811597953"><ele>221.0</ele><time>2026-05-01T10:31:41Z</time></trkpt><trkpt lat="43.05768511628889" lon="12.591043754310505"><ele>221.0</ele><time>2026-05-01T10:31:42Z</time></trkpt><trkpt lat="43.057543910462314" lon="12.591168901876292"><ele>221.0</ele><time>2026-05-01T10:31:43Z</time></trkpt><trkpt lat="43.057402947379906" lon="12.59128202209556"><ele>220.75</ele><time>2026-05-01T10:31:44Z</time></trkpt><trkpt lat="43.057273939962485" lon="12.591386787773926"><ele>220.5</ele><time>2026-05-01T10:31:44.999Z</time></trkpt><trkpt lat="43.057156370376156" lon="12.591480312634685"><ele>220.25</ele><time>2026-05-01T10:31:45.999Z</time></trkpt><trkpt lat="43.0570468203675" lon="12.5915484410716"><ele>220.0</ele><time>2026-05-01T10:31:46.999Z</time></trkpt><trkpt lat="43.056931653565734" lon="12.591590817411644"><ele>220.0</ele><time>2026-05-01T10:31:47.999Z</time></trkpt><trkpt lat="43.05680980324222" lon="12.591592763901613"><ele>220.0</ele><time>2026-05-01T10:31:48.999Z</time></trkpt><trkpt lat="43.056693949254694" lon="12.591554927113396"><ele>220.0</ele><time>2026-05-01T10:31:49.999Z</time></trkpt><trkpt lat="43.05658207464613" lon="12.5914634275596"><ele>220.0</ele><time>2026-05-01T10:31:50.999Z</time></trkpt><trkpt lat="43.05638933455762" lon="12.591203094877779"><ele>219.66666666666666</ele><time>2026-05-01T10:31:52.999Z</time></trkpt><trkpt lat="43.05628885787201" lon="12.591051935680163"><ele>219.33333333333331</ele><time>2026-05-01T10:31:53.999Z</time></trkpt><trkpt lat="43.05618401948657" lon="12.590899451476787"><ele>219.0</ele><time>2026-05-01T10:31:54.999Z</time></trkpt><trkpt lat="43.056083570020974" lon="12.590749761988155"><ele>219.0</ele><time>2026-05-01T10:31:55.999Z</time></trkpt><trkpt lat="43.05597551885737" lon="12.590602412826916"><ele>219.0</ele><time>2026-05-01T10:31:56.999Z</time></trkpt><trkpt lat="43.0558645597276" lon="12.590451870203532"><ele>219.0</ele><time>2026-05-01T10:31:57.999Z</time></trkpt><trkpt lat="43.05575194635163" lon="12.590291807957204"><ele>219.33333333333331</ele><time>2026-05-01T10:31:58.999Z</time></trkpt><trkpt lat="43.055638281075396" lon="12.590127637988564"><ele>219.66666666666666</ele><time>2026-05-01T10:31:59.999Z</time></trkpt><trkpt lat="43.05552662246957" lon="12.589954591291589"><ele>220.0</ele><time>2026-05-01T10:32:00.999Z</time></trkpt><trkpt lat="43.0554192885529" lon="12.589775935556002"><ele>220.0</ele><time>2026-05-01T10:32:01.999Z</time></trkpt><trkpt lat="43.055313191791164" lon="12.589593309305446"><ele>220.0</ele><time>2026-05-01T10:32:02.999Z</time></trkpt><trkpt lat="43.055203993036855" lon="12.58940866342511"><ele>220.0</ele><time>2026-05-01T10:32:03.999Z</time></trkpt><trkpt lat="43.055082131329286" lon="12.5892001773058"><ele>220.0</ele><time>2026-05-01T10:32:04.999Z</time></trkpt><trkpt lat="43.05495691273223" lon="12.58900321425566"><ele>220.0</ele><time>2026-05-01T10:32:05.999Z</time></trkpt><trkpt lat="43.05484693101619" lon="12.588826741433387"><ele>220.0</ele><time>2026-05-01T10:32:06.999Z</time></trkpt><trkpt lat="43.05473956853967" lon="12.58867949144999"><ele>219.4</ele><time>2026-05-01T10:32:07.999Z</time></trkpt><trkpt lat="43.05464501544814" lon="12.588540785970656"><ele>218.8</ele><time>2026-05-01T10:32:08.999Z</time></trkpt><trkpt lat="43.054576492296874" lon="12.588423697243243"><ele>218.2</ele><time>2026-05-01T10:32:09.999Z</time></trkpt><trkpt lat="43.05452164603374" lon="12.588315625619751"><ele>217.6</ele><time>2026-05-01T10:32:10.999Z</time></trkpt><trkpt lat="43.054485444415164" lon="12.588220098816894"><ele>217.0</ele><time>2026-05-01T10:32:11.999Z</time></trkpt><trkpt lat="43.05446022312816" lon="12.588123433565366"><ele>217.0</ele><time>2026-05-01T10:32:12.999Z</time></trkpt><trkpt lat="43.0544326104092" lon="12.588042673975167"><ele>217.0</ele><time>2026-05-01T10:32:13.999Z</time></trkpt><trkpt lat="43.054313962684105" lon="12.588013944682231"><ele>217.0</ele><time>2026-05-01T10:32:15.998Z</time></trkpt><trkpt lat="43.05424626884125" lon="12.588069475753256"><ele>217.0</ele><time>2026-05-01T10:32:16.998Z</time></trkpt><trkpt lat="43.054128021288065" lon="12.588313854385232"><ele>216.75</ele><time>2026-05-01T10:32:18.998Z</time></trkpt><trkpt lat="43.05405891606988" lon="12.58842938020901"><ele>216.5</ele><time>2026-05-01T10:32:19.998Z</time></trkpt><trkpt lat="43.05397320815061" lon="12.588559652453403"><ele>216.25</ele><time>2026-05-01T10:32:20.998Z</time></trkpt><trkpt lat="43.053881979490676" lon="12.58871036624788"><ele>216.0</ele><time>2026-05-01T10:32:21.998Z</time></trkpt><trkpt lat="43.05378432630865" lon="12.588883178862762"><ele>216.66666666666669</ele><time>2026-05-01T10:32:22.998Z</time></trkpt><trkpt lat="43.05368932388829" lon="12.589037585930646"><ele>217.33333333333334</ele><time>2026-05-01T10:32:23.998Z</time></trkpt><trkpt lat="43.053592214734905" lon="12.58919345608558"><ele>218.0</ele><time>2026-05-01T10:32:24.998Z</time></trkpt><trkpt lat="43.053488773260746" lon="12.589359768550795"><ele>218.0</ele><time>2026-05-01T10:32:25.998Z</time></trkpt><trkpt lat="43.05337972291132" lon="12.58953240717831"><ele>218.0</ele><time>2026-05-01T10:32:26.998Z</time></trkpt><trkpt lat="43.05327219729085" lon="12.589704026309525"><ele>218.0</ele><time>2026-05-01T10:32:27.998Z</time></trkpt><trkpt lat="43.05316723757935" lon="12.589879268284552"><ele>218.0</ele><time>2026-05-01T10:32:28.998Z</time></trkpt><trkpt lat="43.05305925291759" lon="12.590049093412787"><ele>218.0</ele><time>2026-05-01T10:32:29.998Z</time></trkpt><trkpt lat="43.05295248889242" lon="12.590215774120622"><ele>218.0</ele><time>2026-05-01T10:32:30.998Z</time></trkpt><trkpt lat="43.052846052842376" lon="12.590383654954028"><ele>217.66666666666669</ele><time>2026-05-01T10:32:31.998Z</time></trkpt><trkpt lat="43.052742295750946" lon="12.5905532624612"><ele>217.33333333333331</ele><time>2026-05-01T10:32:32.998Z</time></trkpt><trkpt lat="43.05263904071629" lon="12.590718567345704"><ele>217.0</ele><time>2026-05-01T10:32:33.998Z</time></trkpt><trkpt lat="43.05253385933072" lon="12.590888506188879"><ele>217.0</ele><time>2026-05-01T10:32:34.998Z</time></trkpt><trkpt lat="43.05242546776912" lon="12.59106085084364"><ele>217.0</ele><time>2026-05-01T10:32:35.999Z</time></trkpt><trkpt lat="43.05231173293733" lon="12.591226557477945"><ele>217.0</ele><time>2026-05-01T10:32:36.999Z</time></trkpt><trkpt lat="43.052206236194905" lon="12.591405017012825"><ele>217.0</ele><time>2026-05-01T10:32:37.999Z</time></trkpt><trkpt lat="43.052100276289835" lon="12.591578024422828"><ele>217.0</ele><time>2026-05-01T10:32:38.999Z</time></trkpt><trkpt lat="43.05198882841212" lon="12.591753536512785"><ele>217.0</ele><time>2026-05-01T10:32:39.999Z</time></trkpt><trkpt lat="43.051883764577006" lon="12.591931165922412"><ele>217.0</ele><time>2026-05-01T10:32:40.999Z</time></trkpt><trkpt lat="43.051771058312106" lon="12.592107201069856"><ele>217.0</ele><time>2026-05-01T10:32:41.999Z</time></trkpt><trkpt lat="43.05166066198899" lon="12.592286091460242"><ele>217.0</ele><time>2026-05-01T10:32:42.999Z</time></trkpt><trkpt lat="43.05155755936126" lon="12.592457776703466"><ele>217.33333333333331</ele><time>2026-05-01T10:32:43.999Z</time></trkpt><trkpt lat="43.05144984820374" lon="12.592629128238448"><ele>217.66666666666669</ele><time>2026-05-01T10:32:44.999Z</time></trkpt><trkpt lat="43.051342434621574" lon="12.592804428156832"><ele>218.0</ele><time>2026-05-01T10:32:45.999Z</time></trkpt><trkpt lat="43.051233415232" lon="12.592973536605742"><ele>218.0</ele><time>2026-05-01T10:32:46.999Z</time></trkpt><trkpt lat="43.05113487665629" lon="12.59313229153648"><ele>218.0</ele><time>2026-05-01T10:32:47.999Z</time></trkpt><trkpt lat="43.051042300680926" lon="12.593284450054515"><ele>218.0</ele><time>2026-05-01T10:32:48.999Z</time></trkpt><trkpt lat="43.050952870936996" lon="12.593421963429842"><ele>218.0</ele><time>2026-05-01T10:32:49.999Z</time></trkpt><trkpt lat="43.050867471182016" lon="12.593550971399798"><ele>217.5</ele><time>2026-05-01T10:32:50.999Z</time></trkpt><trkpt lat="43.050783981470154" lon="12.593683646983921"><ele>217.0</ele><time>2026-05-01T10:32:51.999Z</time></trkpt><trkpt lat="43.05070432671758" lon="12.59381546648326"><ele>216.5</ele><time>2026-05-01T10:32:52.999Z</time></trkpt><trkpt lat="43.050627195720224" lon="12.59394086062259"><ele>216.0</ele><time>2026-05-01T10:32:53.999Z</time></trkpt><trkpt lat="43.050555542411445" lon="12.594058238323573"><ele>216.0</ele><time>2026-05-01T10:32:54.999Z</time></trkpt><trkpt lat="43.05048543668782" lon="12.594169326669507"><ele>216.00000000000003</ele><time>2026-05-01T10:32:55.999Z</time></trkpt><trkpt lat="43.05041022997812" lon="12.594271335574032"><ele>216.00000000000003</ele><time>2026-05-01T10:32:56.999Z</time></trkpt><trkpt lat="43.05033033208234" lon="12.594355045300846"><ele>216.0</ele><time>2026-05-01T10:32:57.999Z</time></trkpt><trkpt lat="43.05023784763269" lon="12.594412470492127"><ele>216.0</ele><time>2026-05-01T10:32:58.999Z</time></trkpt><trkpt lat="43.05012969494757" lon="12.594441004484173"><ele>216.0</ele><time>2026-05-01T10:32:59.999Z</time></trkpt><trkpt lat="43.05002198121453" lon="12.594405166653761"><ele>216.0</ele><time>2026-05-01T10:33:00.999Z</time></trkpt><trkpt lat="43.0499105455688" lon="12.594367052616187"><ele>216.0</ele><time>2026-05-01T10:33:01.999Z</time></trkpt><trkpt lat="43.04979701527083" lon="12.594331652554443"><ele>216.0</ele><time>2026-05-01T10:33:02.999Z</time></trkpt><trkpt lat="43.049686120934915" lon="12.594264579603479"><ele>215.75</ele><time>2026-05-01T10:33:03.999Z</time></trkpt><trkpt lat="43.04958801055936" lon="12.594189520491362"><ele>215.5</ele><time>2026-05-01T10:33:04.999Z</time></trkpt><trkpt lat="43.049473668047945" lon="12.594112250181464"><ele>215.25</ele><time>2026-05-01T10:33:05.999Z</time></trkpt><trkpt lat="43.04937427868359" lon="12.59398014649395"><ele>215.0</ele><time>2026-05-01T10:33:06.999Z</time></trkpt><trkpt lat="43.04925866219008" lon="12.593862822092001"><ele>215.0</ele><time>2026-05-01T10:33:07.999Z</time></trkpt><trkpt lat="43.04912015024258" lon="12.593719907387287"><ele>215.0</ele><time>2026-05-01T10:33:08.999Z</time></trkpt><trkpt lat="43.04897407514951" lon="12.593569039511149"><ele>215.0</ele><time>2026-05-01T10:33:09.999Z</time></trkpt><trkpt lat="43.04881321998596" lon="12.593422652677198"><ele>215.0</ele><time>2026-05-01T10:33:10.999Z</time></trkpt><trkpt lat="43.04865633792171" lon="12.593251053317312"><ele>215.0</ele><time>2026-05-01T10:33:11.999Z</time></trkpt><trkpt lat="43.04849546690783" lon="12.593083369472097"><ele>215.0</ele><time>2026-05-01T10:33:12.999Z</time></trkpt><trkpt lat="43.04833795735509" lon="12.592925127203035"><ele>214.33333333333334</ele><time>2026-05-01T10:33:13.999Z</time></trkpt><trkpt lat="43.0481865665874" lon="12.59276971002508"><ele>213.66666666666669</ele><time>2026-05-01T10:33:14.999Z</time></trkpt><trkpt lat="43.048038801987346" lon="12.592614806971302"><ele>213.0</ele><time>2026-05-01T10:33:15.999Z</time></trkpt><trkpt lat="43.04789703199493" lon="12.592469975538446"><ele>213.0</ele><time>2026-05-01T10:33:16.999Z</time></trkpt><trkpt lat="43.04776399457229" lon="12.592335149960162"><ele>213.0</ele><time>2026-05-01T10:33:17.999Z</time></trkpt><trkpt lat="43.04764425663351" lon="12.592212326638489"><ele>213.0</ele><time>2026-05-01T10:33:18.999Z</time></trkpt><trkpt lat="43.04752370132429" lon="12.592088359670003"><ele>212.33333333333331</ele><time>2026-05-01T10:33:19.999Z</time></trkpt><trkpt lat="43.04740385018765" lon="12.591961069964785"><ele>211.66666666666666</ele><time>2026-05-01T10:33:20.999Z</time></trkpt><trkpt lat="43.04727331556569" lon="12.591829406857885"><ele>211.0</ele><time>2026-05-01T10:33:21.999Z</time></trkpt><trkpt lat="43.04713527351208" lon="12.591678902929035"><ele>211.0</ele><time>2026-05-01T10:33:22.999Z</time></trkpt><trkpt lat="43.04699033769666" lon="12.591532251988559"><ele>211.0</ele><time>2026-05-01T10:33:23.999Z</time></trkpt><trkpt lat="43.04683784450671" lon="12.591386255847649"><ele>211.0</ele><time>2026-05-01T10:33:24.999Z</time></trkpt><trkpt lat="43.04668609471129" lon="12.591229575964357"><ele>211.66666666666666</ele><time>2026-05-01T10:33:25.999Z</time></trkpt><trkpt lat="43.04653870304804" lon="12.591073345496389"><ele>212.33333333333331</ele><time>2026-05-01T10:33:26.999Z</time></trkpt><trkpt lat="43.0463894658442" lon="12.590918538805948"><ele>213.0</ele><time>2026-05-01T10:33:27.999Z</time></trkpt><trkpt lat="43.04624382353792" lon="12.590766508322323"><ele>213.0</ele><time>2026-05-01T10:33:28.999Z</time></trkpt><trkpt lat="43.04609499975747" lon="12.590615591730687"><ele>213.0</ele><time>2026-05-01T10:33:29.999Z</time></trkpt><trkpt lat="43.04594660822738" lon="12.590466690367165"><ele>213.0</ele><time>2026-05-01T10:33:30.999Z</time></trkpt><trkpt lat="43.045808094350285" lon="12.590300820841517"><ele>212.33333333333331</ele><time>2026-05-01T10:33:31.999Z</time></trkpt><trkpt lat="43.04566088379434" lon="12.590153785018176"><ele>211.66666666666666</ele><time>2026-05-01T10:33:32.999Z</time></trkpt><trkpt lat="43.04550848182841" lon="12.590007835467995"><ele>211.0</ele><time>2026-05-01T10:33:33.999Z</time></trkpt><trkpt lat="43.04534227739989" lon="12.589883428251486"><ele>211.0</ele><time>2026-05-01T10:33:34.999Z</time></trkpt><trkpt lat="43.04517765360341" lon="12.589757421838247"><ele>211.0</ele><time>2026-05-01T10:33:35.999Z</time></trkpt><trkpt lat="43.04500688250969" lon="12.589647569442521"><ele>211.0</ele><time>2026-05-01T10:33:36.999Z</time></trkpt><trkpt lat="43.044835468346655" lon="12.589543334712515"><ele>209.66666666666666</ele><time>2026-05-01T10:33:37.999Z</time></trkpt><trkpt lat="43.04467488231403" lon="12.58942172612279"><ele>208.33333333333331</ele><time>2026-05-01T10:33:38.999Z</time></trkpt><trkpt lat="43.044506312878205" lon="12.589312664254585"><ele>207.0</ele><time>2026-05-01T10:33:39.999Z</time></trkpt><trkpt lat="43.04433267526694" lon="12.589201627436008"><ele>207.0</ele><time>2026-05-01T10:33:40.999Z</time></trkpt><trkpt lat="43.044151782462414" lon="12.5891059893998"><ele>207.0</ele><time>2026-05-01T10:33:41.999Z</time></trkpt><trkpt lat="43.04397386793085" lon="12.588985441553541"><ele>207.0</ele><time>2026-05-01T10:33:42.999Z</time></trkpt><trkpt lat="43.0437962792929" lon="12.588872163528874"><ele>207.0</ele><time>2026-05-01T10:33:43.999Z</time></trkpt><trkpt lat="43.04361370998588" lon="12.588762167589175"><ele>207.0</ele><time>2026-05-01T10:33:44.999Z</time></trkpt><trkpt lat="43.04343693575267" lon="12.588654348828982"><ele>207.0</ele><time>2026-05-01T10:33:45.999Z</time></trkpt><trkpt lat="43.04326900723586" lon="12.588551440157124"><ele>207.0</ele><time>2026-05-01T10:33:46.999Z</time></trkpt><trkpt lat="43.04310433890939" lon="12.588454670273444"><ele>207.0</ele><time>2026-05-01T10:33:47.999Z</time></trkpt><trkpt lat="43.042944858772096" lon="12.588360963928825"><ele>207.0</ele><time>2026-05-01T10:33:48.999Z</time></trkpt><trkpt lat="43.0427868634469" lon="12.588268498676765"><ele>207.0</ele><time>2026-05-01T10:33:49.999Z</time></trkpt><trkpt lat="43.042629378468746" lon="12.58817335351763"><ele>207.0</ele><time>2026-05-01T10:33:50.999Z</time></trkpt><trkpt lat="43.042473860894624" lon="12.588080766852407"><ele>207.0</ele><time>2026-05-01T10:33:51.999Z</time></trkpt><trkpt lat="43.04232840995006" lon="12.587992029426143"><ele>207.0</ele><time>2026-05-01T10:33:52.999Z</time></trkpt><trkpt lat="43.04217796289841" lon="12.587910244884348"><ele>207.0</ele><time>2026-05-01T10:33:53.999Z</time></trkpt><trkpt lat="43.04203601509167" lon="12.587826360815546"><ele>207.0</ele><time>2026-05-01T10:33:54.999Z</time></trkpt><trkpt lat="43.04189277248958" lon="12.587733417983657"><ele>207.33333333333331</ele><time>2026-05-01T10:33:55.999Z</time></trkpt><trkpt lat="43.04174869287966" lon="12.587631875912185"><ele>207.66666666666666</ele><time>2026-05-01T10:33:56.999Z</time></trkpt><trkpt lat="43.041596366704354" lon="12.58753733380303"><ele>208.0</ele><time>2026-05-01T10:33:57.999Z</time></trkpt><trkpt lat="43.041449247289755" lon="12.587468337962306"><ele>207.5</ele><time>2026-05-01T10:33:58.999Z</time></trkpt><trkpt lat="43.041325222352974" lon="12.58739278978996"><ele>207.0</ele><time>2026-05-01T10:33:59.999Z</time></trkpt><trkpt lat="43.04119888228323" lon="12.587320862662066"><ele>206.5</ele><time>2026-05-01T10:34:00.999Z</time></trkpt><trkpt lat="43.041055360504075" lon="12.587237964380149"><ele>206.0</ele><time>2026-05-01T10:34:01.999Z</time></trkpt><trkpt lat="43.04090416383984" lon="12.587154231140115"><ele>205.66666666666669</ele><time>2026-05-01T10:34:02.999Z</time></trkpt><trkpt lat="43.04075118142145" lon="12.587075727827727"><ele>205.33333333333331</ele><time>2026-05-01T10:34:03.999Z</time></trkpt><trkpt lat="43.04060639132782" lon="12.586977943114624"><ele>205.0</ele><time>2026-05-01T10:34:04.999Z</time></trkpt><trkpt lat="43.04045089104059" lon="12.586892500579982"><ele>205.0</ele><time>2026-05-01T10:34:05.999Z</time></trkpt><trkpt lat="43.04029178211715" lon="12.586804677573085"><ele>205.0</ele><time>2026-05-01T10:34:06.999Z</time></trkpt><trkpt lat="43.040130243147374" lon="12.586715240626845"><ele>205.0</ele><time>2026-05-01T10:34:07.999Z</time></trkpt><trkpt lat="43.03995347327709" lon="12.586615260982539"><ele>204.0</ele><time>2026-05-01T10:34:08.999Z</time></trkpt><trkpt lat="43.03977275348987" lon="12.586511156469154"><ele>203.0</ele><time>2026-05-01T10:34:09.999Z</time></trkpt><trkpt lat="43.039584783286784" lon="12.58640287536296"><ele>202.0</ele><time>2026-05-01T10:34:10.999Z</time></trkpt><trkpt lat="43.03939249190358" lon="12.58631537502613"><ele>202.0</ele><time>2026-05-01T10:34:11.999Z</time></trkpt><trkpt lat="43.03920496335351" lon="12.586191064389213"><ele>202.0</ele><time>2026-05-01T10:34:12.999Z</time></trkpt><trkpt lat="43.0390101095479" lon="12.586080406599915"><ele>202.0</ele><time>2026-05-01T10:34:13.999Z</time></trkpt><trkpt lat="43.03881930149537" lon="12.58597293820598"><ele>202.0</ele><time>2026-05-01T10:34:14.999Z</time></trkpt><trkpt lat="43.03863435630648" lon="12.585867719669901"><ele>202.0</ele><time>2026-05-01T10:34:16Z</time></trkpt><trkpt lat="43.03844817953531" lon="12.58576177316762"><ele>202.0</ele><time>2026-05-01T10:34:17Z</time></trkpt><trkpt lat="43.03826421150499" lon="12.585654964878906"><ele>202.0</ele><time>2026-05-01T10:34:18Z</time></trkpt><trkpt lat="43.0380759766143" lon="12.585539460887082"><ele>202.0</ele><time>2026-05-01T10:34:19Z</time></trkpt><trkpt lat="43.03788776612822" lon="12.585423657312091"><ele>202.0</ele><time>2026-05-01T10:34:20Z</time></trkpt><trkpt lat="43.0376993644582" lon="12.585313060417121"><ele>202.0</ele><time>2026-05-01T10:34:21Z</time></trkpt><trkpt lat="43.03750091686126" lon="12.585210041601025"><ele>202.0</ele><time>2026-05-01T10:34:21.999Z</time></trkpt><trkpt lat="43.037291029925015" lon="12.585115632248282"><ele>202.0</ele><time>2026-05-01T10:34:22.999Z</time></trkpt><trkpt lat="43.037083899582285" lon="12.585021472753493"><ele>201.0</ele><time>2026-05-01T10:34:23.999Z</time></trkpt><trkpt lat="43.03687535914633" lon="12.584920037184881"><ele>200.0</ele><time>2026-05-01T10:34:24.999Z</time></trkpt><trkpt lat="43.03667189623364" lon="12.584822086976766"><ele>199.0</ele><time>2026-05-01T10:34:25.999Z</time></trkpt><trkpt lat="43.03647277104035" lon="12.584724408894381"><ele>198.0</ele><time>2026-05-01T10:34:26.999Z</time></trkpt><trkpt lat="43.03627414448511" lon="12.584623156088174"><ele>197.0</ele><time>2026-05-01T10:34:27.999Z</time></trkpt><trkpt lat="43.036076862820934" lon="12.584521429921173"><ele>196.0</ele><time>2026-05-01T10:34:28.999Z</time></trkpt><trkpt lat="43.03588052284042" lon="12.58442151432979"><ele>195.66666666666666</ele><time>2026-05-01T10:34:29.999Z</time></trkpt><trkpt lat="43.035682053890284" lon="12.58432885602339"><ele>195.33333333333331</ele><time>2026-05-01T10:34:30.999Z</time></trkpt><trkpt lat="43.0354866855222" lon="12.58424317669935"><ele>195.0</ele><time>2026-05-01T10:34:31.999Z</time></trkpt><trkpt lat="43.03528903459041" lon="12.5841592846124"><ele>195.0</ele><time>2026-05-01T10:34:32.999Z</time></trkpt><trkpt lat="43.03509658246529" lon="12.584082621541677"><ele>195.0</ele><time>2026-05-01T10:34:33.999Z</time></trkpt><trkpt lat="43.03491072167762" lon="12.584013612967079"><ele>195.0</ele><time>2026-05-01T10:34:34.999Z</time></trkpt><trkpt lat="43.03473665619666" lon="12.583942300993051"><ele>195.25</ele><time>2026-05-01T10:34:35.999Z</time></trkpt><trkpt lat="43.034581415733264" lon="12.583883773797826"><ele>195.5</ele><time>2026-05-01T10:34:36.999Z</time></trkpt><trkpt lat="43.03444769223051" lon="12.583829043822155"><ele>195.75</ele><time>2026-05-01T10:34:37.999Z</time></trkpt><trkpt lat="43.034331055314965" lon="12.583780543522437"><ele>196.0</ele><time>2026-05-01T10:34:38.999Z</time></trkpt><trkpt lat="43.03421862088016" lon="12.58373465305782"><ele>195.75</ele><time>2026-05-01T10:34:39.999Z</time></trkpt><trkpt lat="43.03410198484653" lon="12.583689800789356"><ele>195.5</ele><time>2026-05-01T10:34:40.999Z</time></trkpt><trkpt lat="43.03396885464154" lon="12.583636277198563"><ele>195.25</ele><time>2026-05-01T10:34:41.999Z</time></trkpt><trkpt lat="43.03382733183563" lon="12.583573671319199"><ele>195.0</ele><time>2026-05-01T10:34:42.999Z</time></trkpt><trkpt lat="43.03368231457401" lon="12.583523289016204"><ele>195.0</ele><time>2026-05-01T10:34:43.999Z</time></trkpt><trkpt lat="43.03353586179894" lon="12.58347272907077"><ele>195.0</ele><time>2026-05-01T10:34:44.999Z</time></trkpt><trkpt lat="43.033387492489055" lon="12.583415533333307"><ele>195.0</ele><time>2026-05-01T10:34:45.999Z</time></trkpt><trkpt lat="43.033242483614444" lon="12.583357615977947"><ele>195.0</ele><time>2026-05-01T10:34:46.999Z</time></trkpt><trkpt lat="43.03310534854957" lon="12.583308791397876"><ele>195.0</ele><time>2026-05-01T10:34:47.999Z</time></trkpt><trkpt lat="43.03297822579585" lon="12.583261740505337"><ele>195.0</ele><time>2026-05-01T10:34:48.999Z</time></trkpt><trkpt lat="43.0328594876234" lon="12.583213071875814"><ele>195.0</ele><time>2026-05-01T10:34:49.999Z</time></trkpt><trkpt lat="43.032741630076025" lon="12.583167189906161"><ele>195.0</ele><time>2026-05-01T10:34:50.999Z</time></trkpt><trkpt lat="43.03262702320195" lon="12.583123365320427"><ele>195.0</ele><time>2026-05-01T10:34:51.999Z</time></trkpt><trkpt lat="43.032510608516155" lon="12.583080343810405"><ele>195.0</ele><time>2026-05-01T10:34:52.999Z</time></trkpt><trkpt lat="43.032399702065824" lon="12.583039781919515"><ele>195.0</ele><time>2026-05-01T10:34:53.999Z</time></trkpt><trkpt lat="43.03228905762944" lon="12.58297449223228"><ele>195.0</ele><time>2026-05-01T10:34:54.999Z</time></trkpt><trkpt lat="43.03216949727082" lon="12.582928541329203"><ele>195.0</ele><time>2026-05-01T10:34:55.999Z</time></trkpt><trkpt lat="43.03204562427457" lon="12.582880932941157"><ele>195.0</ele><time>2026-05-01T10:34:56.999Z</time></trkpt><trkpt lat="43.031908163186486" lon="12.582828102197968"><ele>195.0</ele><time>2026-05-01T10:34:57.999Z</time></trkpt><trkpt lat="43.031763011665426" lon="12.582792065371086"><ele>195.0</ele><time>2026-05-01T10:34:58.999Z</time></trkpt><trkpt lat="43.031626401265726" lon="12.58271983180796"><ele>195.0</ele><time>2026-05-01T10:34:59.999Z</time></trkpt><trkpt lat="43.03147318838648" lon="12.582660961604343"><ele>195.0</ele><time>2026-05-01T10:35:00.999Z</time></trkpt><trkpt lat="43.03132208831024" lon="12.582603968897978"><ele>195.0</ele><time>2026-05-01T10:35:01.999Z</time></trkpt><trkpt lat="43.03117733344463" lon="12.582549395249034"><ele>195.0</ele><time>2026-05-01T10:35:03Z</time></trkpt><trkpt lat="43.03102600379766" lon="12.582492342712829"><ele>195.0</ele><time>2026-05-01T10:35:04Z</time></trkpt><trkpt lat="43.030860986722054" lon="12.582452842671485"><ele>194.66666666666669</ele><time>2026-05-01T10:35:05Z</time></trkpt><trkpt lat="43.03070401158373" lon="12.58237095081814"><ele>194.33333333333334</ele><time>2026-05-01T10:35:06Z</time></trkpt><trkpt lat="43.030543285281205" lon="12.582310356013053"><ele>194.0</ele><time>2026-05-01T10:35:07Z</time></trkpt><trkpt lat="43.03037658125591" lon="12.582247710597374"><ele>194.0</ele><time>2026-05-01T10:35:08Z</time></trkpt><trkpt lat="43.0302051023411" lon="12.582202252575652"><ele>194.0</ele><time>2026-05-01T10:35:09Z</time></trkpt><trkpt lat="43.030035654207246" lon="12.582137641832272"><ele>194.0</ele><time>2026-05-01T10:35:10Z</time></trkpt><trkpt lat="43.02987066916051" lon="12.58207397848441"><ele>193.0</ele><time>2026-05-01T10:35:11Z</time></trkpt><trkpt lat="43.02970948322243" lon="12.581994573176445"><ele>192.0</ele><time>2026-05-01T10:35:12Z</time></trkpt><trkpt lat="43.029554617758606" lon="12.581935029531595"><ele>191.0</ele><time>2026-05-01T10:35:13Z</time></trkpt><trkpt lat="43.02939961810195" lon="12.581898993926167"><ele>191.0</ele><time>2026-05-01T10:35:14Z</time></trkpt><trkpt lat="43.02925975296992" lon="12.581842809394066"><ele>191.0</ele><time>2026-05-01T10:35:15Z</time></trkpt><trkpt lat="43.02914023423991" lon="12.581797217737977"><ele>191.0</ele><time>2026-05-01T10:35:16Z</time></trkpt><trkpt lat="43.02902581419222" lon="12.581754615209805"><ele>191.0</ele><time>2026-05-01T10:35:17Z</time></trkpt><trkpt lat="43.028911038123" lon="12.581712727904588"><ele>191.25</ele><time>2026-05-01T10:35:18Z</time></trkpt><trkpt lat="43.02879273767906" lon="12.581670480879641"><ele>191.5</ele><time>2026-05-01T10:35:19Z</time></trkpt><trkpt lat="43.02867140080369" lon="12.581625446593124"><ele>191.75</ele><time>2026-05-01T10:35:20Z</time></trkpt><trkpt lat="43.02855161686129" lon="12.5815759972426"><ele>192.0</ele><time>2026-05-01T10:35:21Z</time></trkpt><trkpt lat="43.02841993635016" lon="12.581521523890645"><ele>192.33333333333331</ele><time>2026-05-01T10:35:22Z</time></trkpt><trkpt lat="43.02827837758126" lon="12.581461484094547"><ele>192.66666666666666</ele><time>2026-05-01T10:35:23Z</time></trkpt><trkpt lat="43.028123678081734" lon="12.581402012318955"><ele>193.0</ele><time>2026-05-01T10:35:24Z</time></trkpt><trkpt lat="43.027961038964975" lon="12.581341134343381"><ele>193.0</ele><time>2026-05-01T10:35:25Z</time></trkpt><trkpt lat="43.02779859242293" lon="12.581275989256323"><ele>193.0</ele><time>2026-05-01T10:35:26Z</time></trkpt><trkpt lat="43.02762669917316" lon="12.581209438350218"><ele>193.0</ele><time>2026-05-01T10:35:27Z</time></trkpt><trkpt lat="43.02744750226655" lon="12.581140945844549"><ele>191.66666666666666</ele><time>2026-05-01T10:35:28Z</time></trkpt><trkpt lat="43.0272659042569" lon="12.58106839935737"><ele>190.33333333333331</ele><time>2026-05-01T10:35:29Z</time></trkpt><trkpt lat="43.027087356121456" lon="12.580997815338334"><ele>189.0</ele><time>2026-05-01T10:35:30Z</time></trkpt><trkpt lat="43.02691050207182" lon="12.580928281300812"><ele>189.0</ele><time>2026-05-01T10:35:31Z</time></trkpt><trkpt lat="43.026734977604065" lon="12.580857021213335"><ele>189.0</ele><time>2026-05-01T10:35:32Z</time></trkpt><trkpt lat="43.02655761383744" lon="12.580784633249502"><ele>189.0</ele><time>2026-05-01T10:35:33Z</time></trkpt><trkpt lat="43.026381225839486" lon="12.58071685633475"><ele>190.33333333333331</ele><time>2026-05-01T10:35:34Z</time></trkpt><trkpt lat="43.02620588037412" lon="12.580648078025865"><ele>191.66666666666666</ele><time>2026-05-01T10:35:35Z</time></trkpt><trkpt lat="43.02602846973886" lon="12.580578242139689"><ele>193.0</ele><time>2026-05-01T10:35:36Z</time></trkpt><trkpt lat="43.02584130358132" lon="12.58050435481645"><ele>192.33333333333331</ele><time>2026-05-01T10:35:37Z</time></trkpt><trkpt lat="43.02565102430335" lon="12.580429394747002"><ele>191.66666666666666</ele><time>2026-05-01T10:35:38Z</time></trkpt><trkpt lat="43.02545814024107" lon="12.580353427722473"><ele>191.0</ele><time>2026-05-01T10:35:39Z</time></trkpt><trkpt lat="43.025267505212106" lon="12.58027829595205"><ele>191.0</ele><time>2026-05-01T10:35:40Z</time></trkpt><trkpt lat="43.02507023098803" lon="12.580207171423488"><ele>191.0</ele><time>2026-05-01T10:35:41Z</time></trkpt><trkpt lat="43.02487235588594" lon="12.580138126998117"><ele>191.0</ele><time>2026-05-01T10:35:42Z</time></trkpt><trkpt lat="43.02467802279191" lon="12.580068434121824"><ele>190.66666666666666</ele><time>2026-05-01T10:35:43Z</time></trkpt><trkpt lat="43.02448121215188" lon="12.579993502992874"><ele>190.33333333333334</ele><time>2026-05-01T10:35:44Z</time></trkpt><trkpt lat="43.02428712085303" lon="12.579916698663208"><ele>190.0</ele><time>2026-05-01T10:35:45Z</time></trkpt><trkpt lat="43.024090482765324" lon="12.579839447474862"><ele>189.66666666666669</ele><time>2026-05-01T10:35:46Z</time></trkpt><trkpt lat="43.02389643467609" lon="12.579767013185997"><ele>189.33333333333334</ele><time>2026-05-01T10:35:47Z</time></trkpt><trkpt lat="43.023700643661" lon="12.579698900794277"><ele>189.0</ele><time>2026-05-01T10:35:48Z</time></trkpt><trkpt lat="43.02350713606899" lon="12.579626796592908"><ele>189.0</ele><time>2026-05-01T10:35:49Z</time></trkpt><trkpt lat="43.02331441151873" lon="12.579552711624773"><ele>189.0</ele><time>2026-05-01T10:35:50Z</time></trkpt><trkpt lat="43.023117198414226" lon="12.57947562850067"><ele>189.0</ele><time>2026-05-01T10:35:51Z</time></trkpt><trkpt lat="43.022921276927" lon="12.57939786130815"><ele>189.0</ele><time>2026-05-01T10:35:52Z</time></trkpt><trkpt lat="43.02272437617108" lon="12.579319337227348"><ele>189.0</ele><time>2026-05-01T10:35:53Z</time></trkpt><trkpt lat="43.02252869370689" lon="12.579239987035923"><ele>189.0</ele><time>2026-05-01T10:35:54Z</time></trkpt><trkpt lat="43.02233319085642" lon="12.579162107110728"><ele>188.33333333333334</ele><time>2026-05-01T10:35:55Z</time></trkpt><trkpt lat="43.02214519797573" lon="12.579089564781416"><ele>187.66666666666669</ele><time>2026-05-01T10:35:56Z</time></trkpt><trkpt lat="43.021961025667174" lon="12.579018007842294"><ele>187.0</ele><time>2026-05-01T10:35:57Z</time></trkpt><trkpt lat="43.02177547088659" lon="12.578944668947216"><ele>187.33333333333334</ele><time>2026-05-01T10:35:58Z</time></trkpt><trkpt lat="43.02159029645403" lon="12.578869364241053"><ele>187.66666666666666</ele><time>2026-05-01T10:35:59Z</time></trkpt><trkpt lat="43.02140732966129" lon="12.578798115189642"><ele>188.0</ele><time>2026-05-01T10:36:00Z</time></trkpt><trkpt lat="43.02122741498457" lon="12.578709426298026"><ele>187.66666666666666</ele><time>2026-05-01T10:36:01Z</time></trkpt><trkpt lat="43.02104672923616" lon="12.578638090919073"><ele>187.33333333333334</ele><time>2026-05-01T10:36:02Z</time></trkpt><trkpt lat="43.02086502879068" lon="12.578566354998328"><ele>187.0</ele><time>2026-05-01T10:36:03Z</time></trkpt><trkpt lat="43.02068066625595" lon="12.578493615941024"><ele>188.0</ele><time>2026-05-01T10:36:04Z</time></trkpt><trkpt lat="43.02049497798085" lon="12.578420544685443"><ele>189.0</ele><time>2026-05-01T10:36:05Z</time></trkpt><trkpt lat="43.02032376871692" lon="12.578376705543384"><ele>190.0</ele><time>2026-05-01T10:36:06Z</time></trkpt><trkpt lat="43.020166198688926" lon="12.578291161628878"><ele>190.0</ele><time>2026-05-01T10:36:07Z</time></trkpt><trkpt lat="43.020005252596356" lon="12.578249933491291"><ele>190.0</ele><time>2026-05-01T10:36:08Z</time></trkpt><trkpt lat="43.01984511528538" lon="12.578184867306268"><ele>190.0</ele><time>2026-05-01T10:36:09Z</time></trkpt><trkpt lat="43.019677510838754" lon="12.57812063408343"><ele>189.33333333333334</ele><time>2026-05-01T10:36:10Z</time></trkpt><trkpt lat="43.01952011966566" lon="12.57803699008157"><ele>188.66666666666666</ele><time>2026-05-01T10:36:11Z</time></trkpt><trkpt lat="43.019360550165196" lon="12.577974254063868"><ele>188.0</ele><time>2026-05-01T10:36:12Z</time></trkpt><trkpt lat="43.01919728240949" lon="12.577933409061824"><ele>188.0</ele><time>2026-05-01T10:36:13Z</time></trkpt><trkpt lat="43.01903687486823" lon="12.57787004526553"><ele>188.0</ele><time>2026-05-01T10:36:14Z</time></trkpt><trkpt lat="43.018875543276124" lon="12.57778356976475"><ele>188.0</ele><time>2026-05-01T10:36:15Z</time></trkpt><trkpt lat="43.018710938238996" lon="12.57771885399177"><ele>187.66666666666666</ele><time>2026-05-01T10:36:16Z</time></trkpt><trkpt lat="43.018544739765694" lon="12.577653511740424"><ele>187.33333333333334</ele><time>2026-05-01T10:36:17Z</time></trkpt><trkpt lat="43.01837688059242" lon="12.577587516581133"><ele>187.0</ele><time>2026-05-01T10:36:18Z</time></trkpt><trkpt lat="43.0182137449196" lon="12.5775233784895"><ele>186.66666666666669</ele><time>2026-05-01T10:36:19Z</time></trkpt><trkpt lat="43.018052582502875" lon="12.57746091945802"><ele>186.33333333333334</ele><time>2026-05-01T10:36:20Z</time></trkpt><trkpt lat="43.017889095084584" lon="12.577417410809367"><ele>186.0</ele><time>2026-05-01T10:36:21Z</time></trkpt><trkpt lat="43.01772104107343" lon="12.577350342985572"><ele>186.0</ele><time>2026-05-01T10:36:22Z</time></trkpt><trkpt lat="43.01755698659906" lon="12.57728423961038"><ele>186.0</ele><time>2026-05-01T10:36:23Z</time></trkpt><trkpt lat="43.01739177313321" lon="12.577221538283975"><ele>186.0</ele><time>2026-05-01T10:36:24Z</time></trkpt><trkpt lat="43.017238130950076" lon="12.57716158254494"><ele>186.0</ele><time>2026-05-01T10:36:25Z</time></trkpt><trkpt lat="43.01709301397468" lon="12.577105454107459"><ele>186.0</ele><time>2026-05-01T10:36:26Z</time></trkpt><trkpt lat="43.016950583143725" lon="12.577052887040677"><ele>186.0</ele><time>2026-05-01T10:36:27Z</time></trkpt><trkpt lat="43.01680430362888" lon="12.576999678131244"><ele>186.0</ele><time>2026-05-01T10:36:28Z</time></trkpt><trkpt lat="43.016667529905284" lon="12.57692488289263"><ele>186.0</ele><time>2026-05-01T10:36:29Z</time></trkpt><trkpt lat="43.01652381598224" lon="12.576869674445282"><ele>186.0</ele><time>2026-05-01T10:36:30Z</time></trkpt><trkpt lat="43.01637563023652" lon="12.576812143394461"><ele>186.0</ele><time>2026-05-01T10:36:31Z</time></trkpt><trkpt lat="43.01622142828228" lon="12.576773915584845"><ele>186.0</ele><time>2026-05-01T10:36:32Z</time></trkpt><trkpt lat="43.01606924446004" lon="12.576707977730864"><ele>186.0</ele><time>2026-05-01T10:36:33Z</time></trkpt><trkpt lat="43.01591257198405" lon="12.5766433424135"><ele>186.0</ele><time>2026-05-01T10:36:34Z</time></trkpt><trkpt lat="43.015753684076394" lon="12.576582081337639"><ele>186.0</ele><time>2026-05-01T10:36:35Z</time></trkpt><trkpt lat="43.01559227570722" lon="12.576520570206782"><ele>186.0</ele><time>2026-05-01T10:36:36Z</time></trkpt><trkpt lat="43.015435038356884" lon="12.576459347882887"><ele>186.0</ele><time>2026-05-01T10:36:37Z</time></trkpt><trkpt lat="43.01528287316068" lon="12.576399574239229"><ele>186.0</ele><time>2026-05-01T10:36:38Z</time></trkpt><trkpt lat="43.015133167812515" lon="12.57633834697206"><ele>186.0</ele><time>2026-05-01T10:36:39Z</time></trkpt><trkpt lat="43.01499479881564" lon="12.576286699035402"><ele>186.0</ele><time>2026-05-01T10:36:40Z</time></trkpt><trkpt lat="43.01487128938559" lon="12.576217287132106"><ele>186.0</ele><time>2026-05-01T10:36:41Z</time></trkpt><trkpt lat="43.01474422716729" lon="12.576188649305392"><ele>186.0</ele><time>2026-05-01T10:36:42Z</time></trkpt><trkpt lat="43.01463073656076" lon="12.576143597497977"><ele>186.0</ele><time>2026-05-01T10:36:43Z</time></trkpt><trkpt lat="43.01452197035531" lon="12.576121488365384"><ele>186.0</ele><time>2026-05-01T10:36:44Z</time></trkpt><trkpt lat="43.01442174178068" lon="12.576151347457968"><ele>186.0</ele><time>2026-05-01T10:36:45Z</time></trkpt><trkpt lat="43.01433162819418" lon="12.576185393225733"><ele>186.0</ele><time>2026-05-01T10:36:46Z</time></trkpt><trkpt lat="43.01426831312699" lon="12.576381165745673"><ele>186.0</ele><time>2026-05-01T10:36:47Z</time></trkpt><trkpt lat="43.01420230919744" lon="12.576581837917253"><ele>185.66666666666666</ele><time>2026-05-01T10:36:48Z</time></trkpt><trkpt lat="43.01413280227993" lon="12.576789861903224"><ele>185.33333333333331</ele><time>2026-05-01T10:36:49Z</time></trkpt><trkpt lat="43.01405773553709" lon="12.577009504978559"><ele>185.0</ele><time>2026-05-01T10:36:50Z</time></trkpt><trkpt lat="43.01397232633429" lon="12.577264173187078"><ele>185.66666666666666</ele><time>2026-05-01T10:36:51Z</time></trkpt><trkpt lat="43.01388060131827" lon="12.577543388998931"><ele>186.33333333333334</ele><time>2026-05-01T10:36:52Z</time></trkpt><trkpt lat="43.0137946650648" lon="12.57781496118254"><ele>187.0</ele><time>2026-05-01T10:36:53Z</time></trkpt><trkpt lat="43.013727685125" lon="12.578079665155565"><ele>187.0</ele><time>2026-05-01T10:36:54Z</time></trkpt><trkpt lat="43.01364048642176" lon="12.578314200226533"><ele>187.0</ele><time>2026-05-01T10:36:55Z</time></trkpt><trkpt lat="43.013568105738266" lon="12.578551075629456"><ele>187.0</ele><time>2026-05-01T10:36:56Z</time></trkpt><trkpt lat="43.013511611203306" lon="12.578789434743658"><ele>187.0</ele><time>2026-05-01T10:36:57Z</time></trkpt><trkpt lat="43.013442536525915" lon="12.579012376455932"><ele>187.0</ele><time>2026-05-01T10:36:58Z</time></trkpt><trkpt lat="43.013376151128156" lon="12.57923395832756"><ele>187.0</ele><time>2026-05-01T10:36:59Z</time></trkpt><trkpt lat="43.013309968430214" lon="12.57944726683564"><ele>187.0</ele><time>2026-05-01T10:37:00Z</time></trkpt><trkpt lat="43.013244178786515" lon="12.579657129101832"><ele>187.0</ele><time>2026-05-01T10:37:01Z</time></trkpt><trkpt lat="43.0131852698829" lon="12.579857478176187"><ele>187.0</ele><time>2026-05-01T10:37:02Z</time></trkpt><trkpt lat="43.01312676926843" lon="12.580058148353821"><ele>187.0</ele><time>2026-05-01T10:37:03Z</time></trkpt><trkpt lat="43.01306343423601" lon="12.580258240986732"><ele>187.0</ele><time>2026-05-01T10:37:04Z</time></trkpt><trkpt lat="43.013000385224" lon="12.580454192543439"><ele>187.0</ele><time>2026-05-01T10:37:05Z</time></trkpt><trkpt lat="43.01293838165623" lon="12.580658799232518"><ele>187.0</ele><time>2026-05-01T10:37:06Z</time></trkpt><trkpt lat="43.01287954982894" lon="12.580859907100752"><ele>187.0</ele><time>2026-05-01T10:37:07Z</time></trkpt><trkpt lat="43.01281798766111" lon="12.58105146584437"><ele>187.0</ele><time>2026-05-01T10:37:08Z</time></trkpt><trkpt lat="43.01275858797579" lon="12.58123809620813"><ele>187.0</ele><time>2026-05-01T10:37:09Z</time></trkpt><trkpt lat="43.012708121043836" lon="12.581404526491411"><ele>187.0</ele><time>2026-05-01T10:37:10Z</time></trkpt><trkpt lat="43.012658247081895" lon="12.581562834236628"><ele>187.0</ele><time>2026-05-01T10:37:11Z</time></trkpt><trkpt lat="43.01261354056508" lon="12.581719152951301"><ele>187.0</ele><time>2026-05-01T10:37:12Z</time></trkpt><trkpt lat="43.012571844239886" lon="12.581862095011225"><ele>187.0</ele><time>2026-05-01T10:37:13Z</time></trkpt><trkpt lat="43.012527469793575" lon="12.581987913670439"><ele>187.0</ele><time>2026-05-01T10:37:14Z</time></trkpt><trkpt lat="43.01249759392134" lon="12.58209043894889"><ele>187.0</ele><time>2026-05-01T10:37:15Z</time></trkpt><trkpt lat="43.01247062568487" lon="12.582175291337581"><ele>187.0</ele><time>2026-05-01T10:37:16Z</time></trkpt><trkpt lat="43.01239655813126" lon="12.582371383237486"><ele>187.0</ele><time>2026-05-01T10:37:18Z</time></trkpt><trkpt lat="43.01234074888704" lon="12.582481676701454"><ele>187.2</ele><time>2026-05-01T10:37:19Z</time></trkpt><trkpt lat="43.01227381223096" lon="12.582592494673605"><ele>187.39999999999998</ele><time>2026-05-01T10:37:20Z</time></trkpt><trkpt lat="43.012198868483274" lon="12.58266104632439"><ele>187.60000000000002</ele><time>2026-05-01T10:37:21Z</time></trkpt><trkpt lat="43.01209604171988" lon="12.58270367160178"><ele>187.8</ele><time>2026-05-01T10:37:22Z</time></trkpt><trkpt lat="43.0119790240837" lon="12.582668707958408"><ele>188.0</ele><time>2026-05-01T10:37:23Z</time></trkpt><trkpt lat="43.011847666616326" lon="12.582645531525213"><ele>188.0</ele><time>2026-05-01T10:37:24Z</time></trkpt><trkpt lat="43.01171653491302" lon="12.582620607244202"><ele>188.0</ele><time>2026-05-01T10:37:25Z</time></trkpt><trkpt lat="43.011594124840464" lon="12.582597912908197"><ele>188.0</ele><time>2026-05-01T10:37:26Z</time></trkpt><trkpt lat="43.0114660293234" lon="12.582596174482296"><ele>188.0</ele><time>2026-05-01T10:37:27Z</time></trkpt><trkpt lat="43.01133509692505" lon="12.582566114158912"><ele>187.75</ele><time>2026-05-01T10:37:28Z</time></trkpt><trkpt lat="43.01119459980581" lon="12.582537671995496"><ele>187.5</ele><time>2026-05-01T10:37:29Z</time></trkpt><trkpt lat="43.011053203749576" lon="12.582516028988984"><ele>187.25</ele><time>2026-05-01T10:37:30Z</time></trkpt><trkpt lat="43.01090912537254" lon="12.582466457885486"><ele>187.0</ele><time>2026-05-01T10:37:31Z</time></trkpt><trkpt lat="43.01074664259184" lon="12.582439081984772"><ele>187.0</ele><time>2026-05-01T10:37:32Z</time></trkpt><trkpt lat="43.010564959573735" lon="12.582424717189351"><ele>187.0</ele><time>2026-05-01T10:37:33Z</time></trkpt><trkpt lat="43.01038711232978" lon="12.582428047939125"><ele>187.0</ele><time>2026-05-01T10:37:34Z</time></trkpt><trkpt lat="43.0101994370248" lon="12.58243698883791"><ele>187.0</ele><time>2026-05-01T10:37:35Z</time></trkpt><trkpt lat="43.009997077774806" lon="12.582446629282252"><ele>187.0</ele><time>2026-05-01T10:37:36Z</time></trkpt><trkpt lat="43.00978434389481" lon="12.582456796802509"><ele>187.0</ele><time>2026-05-01T10:37:37Z</time></trkpt><trkpt lat="43.00957665492675" lon="12.58246672382951"><ele>187.0</ele><time>2026-05-01T10:37:38Z</time></trkpt><trkpt lat="43.00936280393826" lon="12.582476945366045"><ele>187.0</ele><time>2026-05-01T10:37:39Z</time></trkpt><trkpt lat="43.0091495344411" lon="12.582508401730122"><ele>187.0</ele><time>2026-05-01T10:37:40Z</time></trkpt><trkpt lat="43.00894349395979" lon="12.5825226031354"><ele>187.0</ele><time>2026-05-01T10:37:41Z</time></trkpt><trkpt lat="43.008742540925994" lon="12.582518408672305"><ele>187.0</ele><time>2026-05-01T10:37:42Z</time></trkpt><trkpt lat="43.008550828950774" lon="12.582529930704847"><ele>187.0</ele><time>2026-05-01T10:37:43Z</time></trkpt><trkpt lat="43.00836122208366" lon="12.582537473739718"><ele>186.66666666666669</ele><time>2026-05-01T10:37:44Z</time></trkpt><trkpt lat="43.00816766941159" lon="12.582566540238522"><ele>186.33333333333334</ele><time>2026-05-01T10:37:45Z</time></trkpt><trkpt lat="43.00797679215881" lon="12.582567067285607"><ele>186.0</ele><time>2026-05-01T10:37:46Z</time></trkpt><trkpt lat="43.00779065391075" lon="12.582572308189775"><ele>186.0</ele><time>2026-05-01T10:37:47Z</time></trkpt><trkpt lat="43.007605652828296" lon="12.582576936188197"><ele>186.0</ele><time>2026-05-01T10:37:48Z</time></trkpt><trkpt lat="43.00741758787073" lon="12.582582908880628"><ele>186.0</ele><time>2026-05-01T10:37:49Z</time></trkpt><trkpt lat="43.007230596310194" lon="12.58258612189857"><ele>186.0</ele><time>2026-05-01T10:37:50Z</time></trkpt><trkpt lat="43.00703631777123" lon="12.582590842592134"><ele>186.0</ele><time>2026-05-01T10:37:51Z</time></trkpt><trkpt lat="43.006846192412134" lon="12.582596302220995"><ele>186.0</ele><time>2026-05-01T10:37:52Z</time></trkpt><trkpt lat="43.006654018949135" lon="12.582606180484504"><ele>187.33333333333334</ele><time>2026-05-01T10:37:53Z</time></trkpt><trkpt lat="43.00645905069989" lon="12.582596840098796"><ele>188.66666666666669</ele><time>2026-05-01T10:37:54Z</time></trkpt><trkpt lat="43.006265711480175" lon="12.582610178696056"><ele>190.0</ele><time>2026-05-01T10:37:55Z</time></trkpt><trkpt lat="43.00607398998285" lon="12.582626334339064"><ele>190.0</ele><time>2026-05-01T10:37:56Z</time></trkpt><trkpt lat="43.00588007706742" lon="12.58264345957564"><ele>190.0</ele><time>2026-05-01T10:37:57Z</time></trkpt><trkpt lat="43.00568571390665" lon="12.58266131465804"><ele>190.0</ele><time>2026-05-01T10:37:58Z</time></trkpt><trkpt lat="43.00549518905212" lon="12.582701151099132"><ele>189.66666666666669</ele><time>2026-05-01T10:37:59Z</time></trkpt><trkpt lat="43.005296575523104" lon="12.582700260749531"><ele>189.33333333333334</ele><time>2026-05-01T10:38:00Z</time></trkpt><trkpt lat="43.005099190297145" lon="12.582720280310802"><ele>189.0</ele><time>2026-05-01T10:38:01Z</time></trkpt><trkpt lat="43.00490169696712" lon="12.582736213790918"><ele>188.66666666666666</ele><time>2026-05-01T10:38:02Z</time></trkpt><trkpt lat="43.00470649242357" lon="12.58277070101967"><ele>188.33333333333331</ele><time>2026-05-01T10:38:03Z</time></trkpt><trkpt lat="43.00451038476941" lon="12.582757597242681"><ele>188.0</ele><time>2026-05-01T10:38:04Z</time></trkpt><trkpt lat="43.00431644263352" lon="12.582764682761164"><ele>188.33333333333331</ele><time>2026-05-01T10:38:05Z</time></trkpt><trkpt lat="43.00413453484677" lon="12.582772935098387"><ele>188.66666666666666</ele><time>2026-05-01T10:38:06Z</time></trkpt><trkpt lat="43.003959579100766" lon="12.582781955517712"><ele>189.0</ele><time>2026-05-01T10:38:07Z</time></trkpt><trkpt lat="43.00379214026816" lon="12.582793717409466"><ele>189.0</ele><time>2026-05-01T10:38:08Z</time></trkpt><trkpt lat="43.00362998112923" lon="12.582808659023645"><ele>189.0</ele><time>2026-05-01T10:38:09Z</time></trkpt><trkpt lat="43.003474589863764" lon="12.582848721408086"><ele>189.0</ele><time>2026-05-01T10:38:10Z</time></trkpt><trkpt lat="43.00332475008273" lon="12.582863409649562"><ele>188.79999999999998</ele><time>2026-05-01T10:38:11Z</time></trkpt><trkpt lat="43.003186179841876" lon="12.582875950891923"><ele>188.6</ele><time>2026-05-01T10:38:12Z</time></trkpt><trkpt lat="43.00307204444103" lon="12.582884531466645"><ele>188.4</ele><time>2026-05-01T10:38:13Z</time></trkpt><trkpt lat="43.00297274769813" lon="12.582891947236103"><ele>188.2</ele><time>2026-05-01T10:38:14Z</time></trkpt><trkpt lat="43.00289074013226" lon="12.582895134897033"><ele>188.0</ele><time>2026-05-01T10:38:15Z</time></trkpt><trkpt lat="43.00278291916141" lon="12.582867380854903"><ele>188.0</ele><time>2026-05-01T10:38:17Z</time></trkpt><trkpt lat="43.002729227224776" lon="12.583032103583728"><ele>188.0</ele><time>2026-05-01T10:38:18Z</time></trkpt><trkpt lat="43.00268367445749" lon="12.583160756995511"><ele>188.0</ele><time>2026-05-01T10:38:19Z</time></trkpt><trkpt lat="43.00259955569399" lon="12.583270888454205"><ele>188.0</ele><time>2026-05-01T10:38:20Z</time></trkpt><trkpt lat="43.00250534563196" lon="12.583379383050042"><ele>188.0</ele><time>2026-05-01T10:38:21Z</time></trkpt><trkpt lat="43.00237941224188" lon="12.583481620586204"><ele>188.0</ele><time>2026-05-01T10:38:22Z</time></trkpt><trkpt lat="43.00224771855315" lon="12.583573944458307"><ele>188.0</ele><time>2026-05-01T10:38:23Z</time></trkpt><trkpt lat="43.00212613288509" lon="12.583651987937856"><ele>188.0</ele><time>2026-05-01T10:38:24Z</time></trkpt><trkpt lat="43.002020001499886" lon="12.583721270015452"><ele>188.0</ele><time>2026-05-01T10:38:25Z</time></trkpt><trkpt lat="43.00194467078102" lon="12.583775776661282"><ele>188.0</ele><time>2026-05-01T10:38:26.001Z</time></trkpt><trkpt lat="43.001840245393154" lon="12.583845229628269"><ele>188.0</ele><time>2026-05-01T10:38:28.001Z</time></trkpt><trkpt lat="43.00175840085124" lon="12.583697394766235"><ele>188.0</ele><time>2026-05-01T10:38:29.001Z</time></trkpt><trkpt lat="43.001652924007146" lon="12.583601806377516"><ele>187.25</ele><time>2026-05-01T10:38:30.001Z</time></trkpt><trkpt lat="43.00155192864936" lon="12.583510279332447"><ele>186.5</ele><time>2026-05-01T10:38:31.001Z</time></trkpt><trkpt lat="43.00143746466272" lon="12.583402328654845"><ele>185.75</ele><time>2026-05-01T10:38:32.001Z</time></trkpt><trkpt lat="43.00131692640306" lon="12.58329613171347"><ele>185.0</ele><time>2026-05-01T10:38:33.001Z</time></trkpt><trkpt lat="43.00117616219993" lon="12.583237314586798"><ele>185.0</ele><time>2026-05-01T10:38:34.001Z</time></trkpt><trkpt lat="43.00103378387567" lon="12.583192302154547"><ele>185.0</ele><time>2026-05-01T10:38:35.001Z</time></trkpt><trkpt lat="43.00090732732893" lon="12.58319269923509"><ele>185.0</ele><time>2026-05-01T10:38:36.001Z</time></trkpt><trkpt lat="43.000781334619" lon="12.583251278546436"><ele>185.0</ele><time>2026-05-01T10:38:37.001Z</time></trkpt><trkpt lat="43.00063647908104" lon="12.58331109978451"><ele>185.5</ele><time>2026-05-01T10:38:38.001Z</time></trkpt><trkpt lat="43.00049949827574" lon="12.583375252018477"><ele>186.0</ele><time>2026-05-01T10:38:39.001Z</time></trkpt><trkpt lat="43.00038055221205" lon="12.583433395804976"><ele>186.5</ele><time>2026-05-01T10:38:40.001Z</time></trkpt><trkpt lat="43.000276771819856" lon="12.583497725630014"><ele>187.0</ele><time>2026-05-01T10:38:41.001Z</time></trkpt><trkpt lat="43.00019616495235" lon="12.583638277247767"><ele>187.25</ele><time>2026-05-01T10:38:42.001Z</time></trkpt><trkpt lat="43.00011969240163" lon="12.583798030808234"><ele>187.5</ele><time>2026-05-01T10:38:43.001Z</time></trkpt><trkpt lat="43.00002816066329" lon="12.583959303710293"><ele>187.75</ele><time>2026-05-01T10:38:44.001Z</time></trkpt><trkpt lat="42.99994797908843" lon="12.584100421075828"><ele>188.0</ele><time>2026-05-01T10:38:45.001Z</time></trkpt><trkpt lat="42.99986395766846" lon="12.584225330414784"><ele>188.0</ele><time>2026-05-01T10:38:46.001Z</time></trkpt><trkpt lat="42.99977714464707" lon="12.58432824288569"><ele>188.0</ele><time>2026-05-01T10:38:47.001Z</time></trkpt><trkpt lat="42.99968047016992" lon="12.584416628078596"><ele>188.0</ele><time>2026-05-01T10:38:48.001Z</time></trkpt><trkpt lat="42.99957383758602" lon="12.584466729787957"><ele>188.0</ele><time>2026-05-01T10:38:49Z</time></trkpt><trkpt lat="42.99945943262402" lon="12.584513735850951"><ele>188.0</ele><time>2026-05-01T10:38:50Z</time></trkpt><trkpt lat="42.999360441751676" lon="12.58455094408928"><ele>188.0</ele><time>2026-05-01T10:38:51Z</time></trkpt><trkpt lat="42.99928644876314" lon="12.584569554176664"><ele>188.0</ele><time>2026-05-01T10:38:52Z</time></trkpt><trkpt lat="42.99922234290944" lon="12.584572712422235"><ele>188.0</ele><time>2026-05-01T10:38:53Z</time></trkpt><trkpt lat="42.99915554675956" lon="12.584556392696667"><ele>188.0</ele><time>2026-05-01T10:38:54Z</time></trkpt><trkpt lat="42.99907767400593" lon="12.584512044298991"><ele>188.0</ele><time>2026-05-01T10:38:55Z</time></trkpt><trkpt lat="42.99899283533267" lon="12.584459911996849"><ele>188.4</ele><time>2026-05-01T10:38:56Z</time></trkpt><trkpt lat="42.998901321740654" lon="12.584407107909731"><ele>188.8</ele><time>2026-05-01T10:38:57Z</time></trkpt><trkpt lat="42.99881154371154" lon="12.584367155283774"><ele>189.2</ele><time>2026-05-01T10:38:58Z</time></trkpt><trkpt lat="42.99869958018565" lon="12.584348921038318"><ele>189.6</ele><time>2026-05-01T10:38:59Z</time></trkpt><trkpt lat="42.998581505805284" lon="12.584383761246468"><ele>190.0</ele><time>2026-05-01T10:39:00Z</time></trkpt><trkpt lat="42.9984649338704" lon="12.58438759555218"><ele>190.0</ele><time>2026-05-01T10:39:01Z</time></trkpt><trkpt lat="42.99837106025992" lon="12.584408869610074"><ele>190.0</ele><time>2026-05-01T10:39:02Z</time></trkpt><trkpt lat="42.998296800333165" lon="12.584424414282267"><ele>190.0</ele><time>2026-05-01T10:39:03Z</time></trkpt><trkpt lat="42.99817799395515" lon="12.58437059504853"><ele>190.0</ele><time>2026-05-01T10:39:05Z</time></trkpt><trkpt lat="42.99811218673961" lon="12.584331912979877"><ele>190.0</ele><time>2026-05-01T10:39:06Z</time></trkpt><trkpt lat="42.998084216548456" lon="12.584227698001472"><ele>190.0</ele><time>2026-05-01T10:39:07Z</time></trkpt><trkpt lat="42.99804063774062" lon="12.58413949354759"><ele>189.8</ele><time>2026-05-01T10:39:08Z</time></trkpt><trkpt lat="42.99799965323702" lon="12.58405486394505"><ele>189.6</ele><time>2026-05-01T10:39:09Z</time></trkpt><trkpt lat="42.997935371712586" lon="12.583943935951705"><ele>189.39999999999998</ele><time>2026-05-01T10:39:11Z</time></trkpt><trkpt lat="42.99786836907706" lon="12.58381140894281"><ele>189.2</ele><time>2026-05-01T10:39:13Z</time></trkpt><trkpt lat="42.99777558065605" lon="12.583700180900669"><ele>189.0</ele><time>2026-05-01T10:39:15Z</time></trkpt><trkpt lat="42.99771871391444" lon="12.583645556263068"><ele>189.0</ele><time>2026-05-01T10:39:16Z</time></trkpt><trkpt lat="42.997654940040164" lon="12.583596047694677"><ele>189.0</ele><time>2026-05-01T10:39:17Z</time></trkpt><trkpt lat="42.997583240551116" lon="12.583556749473468"><ele>189.0</ele><time>2026-05-01T10:39:18Z</time></trkpt><trkpt lat="42.99750122027991" lon="12.583540590486178"><ele>189.0</ele><time>2026-05-01T10:39:19Z</time></trkpt><trkpt lat="42.99741421632582" lon="12.583518223457625"><ele>189.0</ele><time>2026-05-01T10:39:20Z</time></trkpt><trkpt lat="42.997328719998904" lon="12.58349737245719"><ele>189.0</ele><time>2026-05-01T10:39:21Z</time></trkpt><trkpt lat="42.99724826389329" lon="12.58348119661018"><ele>189.0</ele><time>2026-05-01T10:39:22Z</time></trkpt><trkpt lat="42.99717174702018" lon="12.58346581276252"><ele>189.0</ele><time>2026-05-01T10:39:23Z</time></trkpt><trkpt lat="42.99709698445425" lon="12.583450604971157"><ele>189.0</ele><time>2026-05-01T10:39:24Z</time></trkpt><trkpt lat="42.9970322061092" lon="12.583435079584456"><ele>189.0</ele><time>2026-05-01T10:39:25Z</time></trkpt><trkpt lat="42.99690635592085" lon="12.583431159916904"><ele>189.0</ele><time>2026-05-01T10:39:27Z</time></trkpt><trkpt lat="42.996830202303634" lon="12.583495046828896"><ele>189.0</ele><time>2026-05-01T10:39:28Z</time></trkpt><trkpt lat="42.99676425111225" lon="12.583608038558339"><ele>189.2</ele><time>2026-05-01T10:39:29Z</time></trkpt><trkpt lat="42.996711996514016" lon="12.583721019005011"><ele>189.39999999999998</ele><time>2026-05-01T10:39:30Z</time></trkpt><trkpt lat="42.99666172522118" lon="12.583820313018496"><ele>189.6</ele><time>2026-05-01T10:39:31Z</time></trkpt><trkpt lat="42.996601117674" lon="12.58388612944739"><ele>189.8</ele><time>2026-05-01T10:39:32Z</time></trkpt><trkpt lat="42.99653896914603" lon="12.584012705724138"><ele>190.0</ele><time>2026-05-01T10:39:34Z</time></trkpt><trkpt lat="42.99645805433717" lon="12.584102406178642"><ele>190.0</ele><time>2026-05-01T10:39:36Z</time></trkpt><trkpt lat="42.99639295399045" lon="12.58418634507108"><ele>190.0</ele><time>2026-05-01T10:39:38Z</time></trkpt><trkpt lat="42.99631567810291" lon="12.584270315164686"><ele>190.0</ele><time>2026-05-01T10:39:40Z</time></trkpt><trkpt lat="42.99622420691277" lon="12.584373740105612"><ele>190.0</ele><time>2026-05-01T10:39:42Z</time></trkpt><trkpt lat="42.996154025372846" lon="12.5844405162448"><ele>190.0</ele><time>2026-05-01T10:39:44Z</time></trkpt><trkpt lat="42.99609423417386" lon="12.584490135964977"><ele>190.0</ele><time>2026-05-01T10:39:46Z</time></trkpt><trkpt lat="42.99602940802748" lon="12.584479073011876"><ele>190.0</ele><time>2026-05-01T10:39:48Z</time></trkpt><trkpt lat="42.99594469763744" lon="12.584428238749899"><ele>190.0</ele><time>2026-05-01T10:39:50Z</time></trkpt><trkpt lat="42.995907635350456" lon="12.584305746265983"><ele>190.0</ele><time>2026-05-01T10:39:51Z</time></trkpt><trkpt lat="42.99588459579927" lon="12.584225040640563"><ele>190.0</ele><time>2026-05-01T10:39:52Z</time></trkpt><trkpt lat="42.99577522563587" lon="12.584046501970985"><ele>190.16666666666669</ele><time>2026-05-01T10:39:55Z</time></trkpt><trkpt lat="42.995736349105805" lon="12.58397822293181"><ele>190.33333333333334</ele><time>2026-05-01T10:39:56Z</time></trkpt><trkpt lat="42.99567173649248" lon="12.583874176278876"><ele>190.5</ele><time>2026-05-01T10:39:58Z</time></trkpt><trkpt lat="42.99561590087566" lon="12.583769452617718"><ele>190.66666666666666</ele><time>2026-05-01T10:40:00Z</time></trkpt><trkpt lat="42.99555376006559" lon="12.583743466095335"><ele>190.83333333333331</ele><time>2026-05-01T10:40:01Z</time></trkpt><trkpt lat="42.99546262817851" lon="12.583761386809131"><ele>191.0</ele><time>2026-05-01T10:40:02.001Z</time></trkpt><trkpt lat="42.99537458749761" lon="12.583862473600513"><ele>191.0</ele><time>2026-05-01T10:40:03.001Z</time></trkpt><trkpt lat="42.99527337245805" lon="12.583946770383562"><ele>191.0</ele><time>2026-05-01T10:40:04.001Z</time></trkpt><trkpt lat="42.995166508564424" lon="12.58400256076693"><ele>191.0</ele><time>2026-05-01T10:40:05.001Z</time></trkpt><trkpt lat="42.99506206225712" lon="12.584102103721756"><ele>191.0</ele><time>2026-05-01T10:40:06.001Z</time></trkpt><trkpt lat="42.99494259637219" lon="12.584186468858944"><ele>192.0</ele><time>2026-05-01T10:40:07.001Z</time></trkpt><trkpt lat="42.99482496324687" lon="12.584252066480047"><ele>193.0</ele><time>2026-05-01T10:40:08.001Z</time></trkpt><trkpt lat="42.99470212743906" lon="12.584293016578403"><ele>194.0</ele><time>2026-05-01T10:40:09.001Z</time></trkpt><trkpt lat="42.99457420739921" lon="12.584326915930273"><ele>195.0</ele><time>2026-05-01T10:40:10.001Z</time></trkpt><trkpt lat="42.99443124578511" lon="12.584349344921502"><ele>195.0</ele><time>2026-05-01T10:40:11.001Z</time></trkpt><trkpt lat="42.99428769531204" lon="12.584363890488275"><ele>195.0</ele><time>2026-05-01T10:40:12.001Z</time></trkpt><trkpt lat="42.994149129086686" lon="12.584376037951273"><ele>195.0</ele><time>2026-05-01T10:40:13.001Z</time></trkpt><trkpt lat="42.99401210668893" lon="12.584383433450716"><ele>195.0</ele><time>2026-05-01T10:40:14.001Z</time></trkpt><trkpt lat="42.99389084226254" lon="12.584375448255846"><ele>194.75</ele><time>2026-05-01T10:40:15.001Z</time></trkpt><trkpt lat="42.99378009906117" lon="12.58434649445625"><ele>194.5</ele><time>2026-05-01T10:40:16.001Z</time></trkpt><trkpt lat="42.9936829156551" lon="12.584253384034437"><ele>194.25</ele><time>2026-05-01T10:40:17.001Z</time></trkpt><trkpt lat="42.99361876594453" lon="12.584102350859174"><ele>194.0</ele><time>2026-05-01T10:40:18.001Z</time></trkpt><trkpt lat="42.993562787451026" lon="12.583946685097956"><ele>194.0</ele><time>2026-05-01T10:40:19.001Z</time></trkpt><trkpt lat="42.993529938199" lon="12.58377672860417"><ele>194.0</ele><time>2026-05-01T10:40:20.001Z</time></trkpt><trkpt lat="42.9934916352389" lon="12.583624857422341"><ele>194.0</ele><time>2026-05-01T10:40:21.001Z</time></trkpt><trkpt lat="42.99346756962212" lon="12.58347825988361"><ele>194.0</ele><time>2026-05-01T10:40:22.001Z</time></trkpt><trkpt lat="42.99342063856776" lon="12.583337922697847"><ele>194.0</ele><time>2026-05-01T10:40:23.001Z</time></trkpt><trkpt lat="42.993352891227154" lon="12.583191142666001"><ele>194.0</ele><time>2026-05-01T10:40:24.001Z</time></trkpt><trkpt lat="42.9932771866033" lon="12.583073445203373"><ele>194.0</ele><time>2026-05-01T10:40:25.001Z</time></trkpt><trkpt lat="42.9932150062439" lon="12.58296842379077"><ele>194.0</ele><time>2026-05-01T10:40:26.001Z</time></trkpt><trkpt lat="42.993087887299026" lon="12.582917485599696"><ele>194.0</ele><time>2026-05-01T10:40:27.001Z</time></trkpt><trkpt lat="42.99293507550643" lon="12.582919126821004"><ele>194.0</ele><time>2026-05-01T10:40:28.001Z</time></trkpt><trkpt lat="42.99280351819346" lon="12.582852808519519"><ele>194.0</ele><time>2026-05-01T10:40:29.001Z</time></trkpt><trkpt lat="42.99267194099521" lon="12.58279974604292"><ele>194.0</ele><time>2026-05-01T10:40:30.001Z</time></trkpt><trkpt lat="42.99256897151967" lon="12.582738104409593"><ele>193.66666666666669</ele><time>2026-05-01T10:40:31.001Z</time></trkpt><trkpt lat="42.992473349518384" lon="12.582698383521961"><ele>193.33333333333334</ele><time>2026-05-01T10:40:32.001Z</time></trkpt><trkpt lat="42.99239477115612" lon="12.582660965362306"><ele>193.0</ele><time>2026-05-01T10:40:33.001Z</time></trkpt><trkpt lat="42.99231727932104" lon="12.582626005222977"><ele>192.66666666666669</ele><time>2026-05-01T10:40:34.001Z</time></trkpt><trkpt lat="42.99225445221318" lon="12.582586028732491"><ele>192.33333333333334</ele><time>2026-05-01T10:40:35.001Z</time></trkpt><trkpt lat="42.99218918967293" lon="12.582550297448643"><ele>192.0</ele><time>2026-05-01T10:40:36.001Z</time></trkpt><trkpt lat="42.99208349756739" lon="12.58250397813795"><ele>192.0</ele><time>2026-05-01T10:40:38.001Z</time></trkpt><trkpt lat="42.99195974954682" lon="12.582610285237795"><ele>192.0</ele><time>2026-05-01T10:40:41.001Z</time></trkpt><trkpt lat="42.99185767108517" lon="12.582721701664656"><ele>192.0</ele><time>2026-05-01T10:40:43.001Z</time></trkpt><trkpt lat="42.99178541285738" lon="12.58280056994708"><ele>192.0</ele><time>2026-05-01T10:40:44.001Z</time></trkpt><trkpt lat="42.99171139733671" lon="12.582881356278424"><ele>192.2</ele><time>2026-05-01T10:40:45.001Z</time></trkpt><trkpt lat="42.99164288905499" lon="12.582954182709564"><ele>192.39999999999998</ele><time>2026-05-01T10:40:46.001Z</time></trkpt><trkpt lat="42.99156712796994" lon="12.583032449991544"><ele>192.60000000000002</ele><time>2026-05-01T10:40:47.001Z</time></trkpt><trkpt lat="42.99148974737235" lon="12.583112390353227"><ele>192.8</ele><time>2026-05-01T10:40:48.001Z</time></trkpt><trkpt lat="42.991400671576095" lon="12.583201932599682"><ele>193.0</ele><time>2026-05-01T10:40:49.001Z</time></trkpt><trkpt lat="42.99130725849091" lon="12.583295902398374"><ele>193.0</ele><time>2026-05-01T10:40:50.001Z</time></trkpt><trkpt lat="42.99121125385747" lon="12.583392480685255"><ele>193.0</ele><time>2026-05-01T10:40:51.001Z</time></trkpt><trkpt lat="42.99111293309078" lon="12.583491387412739"><ele>193.0</ele><time>2026-05-01T10:40:52.001Z</time></trkpt><trkpt lat="42.99100968215412" lon="12.58359525368943"><ele>193.0</ele><time>2026-05-01T10:40:53.001Z</time></trkpt><trkpt lat="42.990911443713415" lon="12.58369622158751"><ele>193.25</ele><time>2026-05-01T10:40:54.001Z</time></trkpt><trkpt lat="42.990812281663125" lon="12.583799400423489"><ele>193.5</ele><time>2026-05-01T10:40:55.001Z</time></trkpt><trkpt lat="42.99070699610094" lon="12.583909280027886"><ele>193.75</ele><time>2026-05-01T10:40:56.001Z</time></trkpt><trkpt lat="42.990598362838405" lon="12.58402265339334"><ele>194.0</ele><time>2026-05-01T10:40:57.001Z</time></trkpt><trkpt lat="42.990500716360806" lon="12.584121148790961"><ele>194.0</ele><time>2026-05-01T10:40:58.001Z</time></trkpt><trkpt lat="42.990413510239385" lon="12.584208760089519"><ele>194.0</ele><time>2026-05-01T10:40:59.001Z</time></trkpt><trkpt lat="42.99033699759026" lon="12.584287222154718"><ele>194.0</ele><time>2026-05-01T10:41:00.001Z</time></trkpt><trkpt lat="42.990267263003595" lon="12.584378722102981"><ele>194.0</ele><time>2026-05-01T10:41:01.001Z</time></trkpt><trkpt lat="42.990175438511315" lon="12.584451343267522"><ele>194.0</ele><time>2026-05-01T10:41:02.001Z</time></trkpt><trkpt lat="42.99007043457465" lon="12.58451007210385"><ele>193.6</ele><time>2026-05-01T10:41:03.001Z</time></trkpt><trkpt lat="42.98994885136755" lon="12.584522066735362"><ele>193.2</ele><time>2026-05-01T10:41:04.001Z</time></trkpt><trkpt lat="42.98984559107515" lon="12.584568431601953"><ele>192.79999999999998</ele><time>2026-05-01T10:41:05.001Z</time></trkpt><trkpt lat="42.98976478951135" lon="12.584596097310206"><ele>192.39999999999998</ele><time>2026-05-01T10:41:06.001Z</time></trkpt><trkpt lat="42.98966530698847" lon="12.584677364799067"><ele>192.0</ele><time>2026-05-01T10:41:08.001Z</time></trkpt><trkpt lat="42.98964094773178" lon="12.584849797414305"><ele>192.0</ele><time>2026-05-01T10:41:10.001Z</time></trkpt><trkpt lat="42.98970431070208" lon="12.58494982040782"><ele>192.0</ele><time>2026-05-01T10:41:11.001Z</time></trkpt><trkpt lat="42.98976863750147" lon="12.58505253922789"><ele>192.0</ele><time>2026-05-01T10:41:12.001Z</time></trkpt><trkpt lat="42.989804899259376" lon="12.585165046795577"><ele>192.0</ele><time>2026-05-01T10:41:13.001Z</time></trkpt><trkpt lat="42.989790911499846" lon="12.585275497953768"><ele>192.0</ele><time>2026-05-01T10:41:15.001Z</time></trkpt><trkpt lat="42.98972073864185" lon="12.58529317555119"><ele>192.0</ele><time>2026-05-01T10:41:16.001Z</time></trkpt><trkpt lat="42.98964898938938" lon="12.585344996643148"><ele>192.0</ele><time>2026-05-01T10:41:17.001Z</time></trkpt><trkpt lat="42.989557338076544" lon="12.585439083910131"><ele>192.0</ele><time>2026-05-01T10:41:18.001Z</time></trkpt><trkpt lat="42.98946243947052" lon="12.585508273547264"><ele>192.0</ele><time>2026-05-01T10:41:19.001Z</time></trkpt><trkpt lat="42.989365461601324" lon="12.585572782528482"><ele>192.0</ele><time>2026-05-01T10:41:20.001Z</time></trkpt><trkpt lat="42.989263029679506" lon="12.58563810864519"><ele>192.0</ele><time>2026-05-01T10:41:21.001Z</time></trkpt><trkpt lat="42.98915658052401" lon="12.585702373531007"><ele>192.39999999999998</ele><time>2026-05-01T10:41:22.001Z</time></trkpt><trkpt lat="42.98905367127859" lon="12.585773865221183"><ele>192.79999999999998</ele><time>2026-05-01T10:41:23.001Z</time></trkpt><trkpt lat="42.988959899991755" lon="12.585834842656382"><ele>193.2</ele><time>2026-05-01T10:41:24.001Z</time></trkpt><trkpt lat="42.98886878779769" lon="12.585888148935718"><ele>193.6</ele><time>2026-05-01T10:41:25.001Z</time></trkpt><trkpt lat="42.98877662722879" lon="12.585944631518524"><ele>194.0</ele><time>2026-05-01T10:41:26.001Z</time></trkpt><trkpt lat="42.988682050906384" lon="12.58599765562984"><ele>194.0</ele><time>2026-05-01T10:41:27.001Z</time></trkpt><trkpt lat="42.988590200234576" lon="12.586056880124133"><ele>194.0</ele><time>2026-05-01T10:41:28.001Z</time></trkpt><trkpt lat="42.98849851453633" lon="12.586092388371892"><ele>194.0</ele><time>2026-05-01T10:41:29.001Z</time></trkpt><trkpt lat="42.98841024293516" lon="12.586151698498663"><ele>194.0</ele><time>2026-05-01T10:41:30.001Z</time></trkpt><trkpt lat="42.98832997665684" lon="12.586209916168183"><ele>194.0</ele><time>2026-05-01T10:41:31.001Z</time></trkpt><trkpt lat="42.98826222138768" lon="12.586260190210233"><ele>193.6</ele><time>2026-05-01T10:41:32.001Z</time></trkpt><trkpt lat="42.98820301380814" lon="12.586304121886064"><ele>193.2</ele><time>2026-05-01T10:41:33.001Z</time></trkpt><trkpt lat="42.988101299579796" lon="12.586382434627996"><ele>192.79999999999998</ele><time>2026-05-01T10:41:35.001Z</time></trkpt><trkpt lat="42.987994915751706" lon="12.586432699112702"><ele>192.39999999999998</ele><time>2026-05-01T10:41:37.001Z</time></trkpt><trkpt lat="42.987900749527675" lon="12.586320853500988"><ele>192.0</ele><time>2026-05-01T10:41:38.001Z</time></trkpt><trkpt lat="42.98779496701026" lon="12.58629193108571"><ele>192.0</ele><time>2026-05-01T10:41:39.001Z</time></trkpt><trkpt lat="42.987696666792054" lon="12.58625724146378"><ele>192.0</ele><time>2026-05-01T10:41:40.001Z</time></trkpt><trkpt lat="42.98758570065512" lon="12.586211622887898"><ele>192.0</ele><time>2026-05-01T10:41:41.001Z</time></trkpt><trkpt lat="42.98747444140798" lon="12.586148773147665"><ele>192.0</ele><time>2026-05-01T10:41:42.001Z</time></trkpt><trkpt lat="42.9873569438219" lon="12.586086219723317"><ele>191.75</ele><time>2026-05-01T10:41:43.001Z</time></trkpt><trkpt lat="42.98723891230536" lon="12.586029446366037"><ele>191.5</ele><time>2026-05-01T10:41:44.001Z</time></trkpt><trkpt lat="42.98712122859837" lon="12.585974714577436"><ele>191.25</ele><time>2026-05-01T10:41:45.001Z</time></trkpt><trkpt lat="42.987017942606826" lon="12.585927509614336"><ele>191.0</ele><time>2026-05-01T10:41:46.001Z</time></trkpt><trkpt lat="42.98692123462506" lon="12.585883312540092"><ele>191.0</ele><time>2026-05-01T10:41:47.001Z</time></trkpt><trkpt lat="42.986825850451744" lon="12.585839719041761"><ele>191.0</ele><time>2026-05-01T10:41:48.001Z</time></trkpt><trkpt lat="42.986724788642675" lon="12.585793530535108"><ele>191.0</ele><time>2026-05-01T10:41:49.001Z</time></trkpt><trkpt lat="42.9866173524054" lon="12.585744428730605"><ele>191.0</ele><time>2026-05-01T10:41:50.001Z</time></trkpt><trkpt lat="42.98650239798385" lon="12.585691890937799"><ele>191.0</ele><time>2026-05-01T10:41:51.001Z</time></trkpt><trkpt lat="42.98638589410546" lon="12.585638645002568"><ele>191.5</ele><time>2026-05-01T10:41:52.001Z</time></trkpt><trkpt lat="42.98626791916793" lon="12.585584726753087"><ele>192.0</ele><time>2026-05-01T10:41:53.001Z</time></trkpt><trkpt lat="42.986152864366055" lon="12.585530566620166"><ele>192.5</ele><time>2026-05-01T10:41:54.001Z</time></trkpt><trkpt lat="42.98604029532891" lon="12.58547726701818"><ele>193.0</ele><time>2026-05-01T10:41:55.001Z</time></trkpt><trkpt lat="42.98593535563533" lon="12.585451188486038"><ele>193.0</ele><time>2026-05-01T10:41:56.001Z</time></trkpt><trkpt lat="42.98584849054764" lon="12.58538645062369"><ele>193.0</ele><time>2026-05-01T10:41:57.001Z</time></trkpt><trkpt lat="42.98575583294473" lon="12.58534257871262"><ele>193.0</ele><time>2026-05-01T10:41:58.001Z</time></trkpt><trkpt lat="42.98564315208292" lon="12.58528924998781"><ele>193.0</ele><time>2026-05-01T10:41:59.001Z</time></trkpt><trkpt lat="42.985520956919295" lon="12.585232736231513"><ele>193.0</ele><time>2026-05-01T10:42:00.001Z</time></trkpt><trkpt lat="42.98540933932368" lon="12.585181114514654"><ele>192.75</ele><time>2026-05-01T10:42:01.001Z</time></trkpt><trkpt lat="42.98530098360168" lon="12.585131001366276"><ele>192.5</ele><time>2026-05-01T10:42:02.001Z</time></trkpt><trkpt lat="42.985187555566014" lon="12.58507854232733"><ele>192.25</ele><time>2026-05-01T10:42:03.001Z</time></trkpt><trkpt lat="42.98505907217924" lon="12.585019120400473"><ele>192.0</ele><time>2026-05-01T10:42:04.001Z</time></trkpt><trkpt lat="42.984922103843104" lon="12.584955774247021"><ele>191.66666666666666</ele><time>2026-05-01T10:42:05.001Z</time></trkpt><trkpt lat="42.98478044912889" lon="12.584890260768596"><ele>191.33333333333331</ele><time>2026-05-01T10:42:06.001Z</time></trkpt><trkpt lat="42.9846428312624" lon="12.584826540798323"><ele>191.0</ele><time>2026-05-01T10:42:07.001Z</time></trkpt><trkpt lat="42.98449352236374" lon="12.5847566723348"><ele>191.0</ele><time>2026-05-01T10:42:08.001Z</time></trkpt><trkpt lat="42.98433789949927" lon="12.584683849231407"><ele>191.0</ele><time>2026-05-01T10:42:09.001Z</time></trkpt><trkpt lat="42.98417927548875" lon="12.584609621752305"><ele>191.0</ele><time>2026-05-01T10:42:10.001Z</time></trkpt><trkpt lat="42.98403150012743" lon="12.584540470910039"><ele>191.5</ele><time>2026-05-01T10:42:11.001Z</time></trkpt><trkpt lat="42.983886070683845" lon="12.58447404536346"><ele>192.0</ele><time>2026-05-01T10:42:12.001Z</time></trkpt><trkpt lat="42.98374140068182" lon="12.584432764174542"><ele>192.5</ele><time>2026-05-01T10:42:13.001Z</time></trkpt><trkpt lat="42.98360552062741" lon="12.58437161302383"><ele>193.0</ele><time>2026-05-01T10:42:14.001Z</time></trkpt><trkpt lat="42.98347298467019" lon="12.584286696738134"><ele>193.0</ele><time>2026-05-01T10:42:15.001Z</time></trkpt><trkpt lat="42.98332530371347" lon="12.584240922559438"><ele>193.0</ele><time>2026-05-01T10:42:16.001Z</time></trkpt><trkpt lat="42.983186107835664" lon="12.584151322329806"><ele>193.0</ele><time>2026-05-01T10:42:17.001Z</time></trkpt><trkpt lat="42.98303628343142" lon="12.584104153633131"><ele>193.0</ele><time>2026-05-01T10:42:18.001Z</time></trkpt><trkpt lat="42.98289137943282" lon="12.58403569607555"><ele>193.0</ele><time>2026-05-01T10:42:19.001Z</time></trkpt><trkpt lat="42.98275482827794" lon="12.583971670293135"><ele>193.0</ele><time>2026-05-01T10:42:20.001Z</time></trkpt><trkpt lat="42.98262861377805" lon="12.583889576317624"><ele>193.0</ele><time>2026-05-01T10:42:21.001Z</time></trkpt><trkpt lat="42.98249350908703" lon="12.583826853345897"><ele>192.75</ele><time>2026-05-01T10:42:22.001Z</time></trkpt><trkpt lat="42.982358152077154" lon="12.583764013128484"><ele>192.5</ele><time>2026-05-01T10:42:23.001Z</time></trkpt><trkpt lat="42.98222469015714" lon="12.583702052585211"><ele>192.25</ele><time>2026-05-01T10:42:24.001Z</time></trkpt><trkpt lat="42.982092809792654" lon="12.583640826324464"><ele>192.0</ele><time>2026-05-01T10:42:25.001Z</time></trkpt><trkpt lat="42.98196409590787" lon="12.583581032527258"><ele>192.0</ele><time>2026-05-01T10:42:26.001Z</time></trkpt><trkpt lat="42.98181540764298" lon="12.583510396497102"><ele>192.0</ele><time>2026-05-01T10:42:27.001Z</time></trkpt><trkpt lat="42.98165227762926" lon="12.583432899760773"><ele>192.0</ele><time>2026-05-01T10:42:28.001Z</time></trkpt><trkpt lat="42.981486718903874" lon="12.583354696684786"><ele>192.0</ele><time>2026-05-01T10:42:29.001Z</time></trkpt><trkpt lat="42.98131905494338" lon="12.58327570333552"><ele>192.0</ele><time>2026-05-01T10:42:30.001Z</time></trkpt><trkpt lat="42.98114432638334" lon="12.583193381571913"><ele>192.0</ele><time>2026-05-01T10:42:31.001Z</time></trkpt><trkpt lat="42.98096383394861" lon="12.583108607772683"><ele>192.0</ele><time>2026-05-01T10:42:32.001Z</time></trkpt><trkpt lat="42.9807881328366" lon="12.583027343530285"><ele>192.0</ele><time>2026-05-01T10:42:33.001Z</time></trkpt><trkpt lat="42.98062809031999" lon="12.58295332167158"><ele>192.0</ele><time>2026-05-01T10:42:34.001Z</time></trkpt><trkpt lat="42.98047441307447" lon="12.582881774917135"><ele>192.33333333333331</ele><time>2026-05-01T10:42:35.001Z</time></trkpt><trkpt lat="42.980328839061954" lon="12.582813476389143"><ele>192.66666666666666</ele><time>2026-05-01T10:42:36.001Z</time></trkpt><trkpt lat="42.980182058483855" lon="12.582744611787666"><ele>193.0</ele><time>2026-05-01T10:42:37.001Z</time></trkpt><trkpt lat="42.980032137283835" lon="12.58267313892388"><ele>193.33333333333331</ele><time>2026-05-01T10:42:38.001Z</time></trkpt><trkpt lat="42.9798860711287" lon="12.582603029615633"><ele>193.66666666666669</ele><time>2026-05-01T10:42:39.001Z</time></trkpt><trkpt lat="42.979741858332076" lon="12.5825373284223"><ele>194.0</ele><time>2026-05-01T10:42:40.001Z</time></trkpt><trkpt lat="42.979600539019884" lon="12.582472971047311"><ele>194.0</ele><time>2026-05-01T10:42:41.001Z</time></trkpt><trkpt lat="42.97946445590154" lon="12.582408762566708"><ele>194.0</ele><time>2026-05-01T10:42:42.001Z</time></trkpt><trkpt lat="42.979326995101104" lon="12.582343903980533"><ele>194.0</ele><time>2026-05-01T10:42:43.001Z</time></trkpt><trkpt lat="42.979184765752926" lon="12.582279086075811"><ele>194.0</ele><time>2026-05-01T10:42:44.001Z</time></trkpt><trkpt lat="42.97903444264392" lon="12.582209540849503"><ele>193.75</ele><time>2026-05-01T10:42:45.001Z</time></trkpt><trkpt lat="42.978884873852245" lon="12.582138551479554"><ele>193.5</ele><time>2026-05-01T10:42:46.001Z</time></trkpt><trkpt lat="42.97874590652953" lon="12.582076437007041"><ele>193.25</ele><time>2026-05-01T10:42:47.001Z</time></trkpt><trkpt lat="42.978612856047256" lon="12.582016660864417"><ele>193.0</ele><time>2026-05-01T10:42:48.001Z</time></trkpt><trkpt lat="42.97849004819717" lon="12.581960667310765"><ele>192.60000000000002</ele><time>2026-05-01T10:42:49.001Z</time></trkpt><trkpt lat="42.978380260663315" lon="12.581914118946521"><ele>192.20000000000002</ele><time>2026-05-01T10:42:50.001Z</time></trkpt><trkpt lat="42.978280776580355" lon="12.581872401950346"><ele>191.8</ele><time>2026-05-01T10:42:51.001Z</time></trkpt><trkpt lat="42.978196736670384" lon="12.581837161453883"><ele>191.4</ele><time>2026-05-01T10:42:52.001Z</time></trkpt><trkpt lat="42.97809845758122" lon="12.581779477021435"><ele>191.0</ele><time>2026-05-01T10:42:54.001Z</time></trkpt><trkpt lat="42.97803617989565" lon="12.581738148474594"><ele>190.8</ele><time>2026-05-01T10:42:56.001Z</time></trkpt><trkpt lat="42.9779723391621" lon="12.581717783620334"><ele>190.60000000000002</ele><time>2026-05-01T10:43:01.001Z</time></trkpt><trkpt lat="42.97785103602867" lon="12.581974507090019"><ele>190.4</ele><time>2026-05-01T10:43:04.001Z</time></trkpt><trkpt lat="42.977798438299494" lon="12.582059296649662"><ele>190.2</ele><time>2026-05-01T10:43:06.001Z</time></trkpt><trkpt lat="42.97775046692912" lon="12.582135340496007"><ele>190.0</ele><time>2026-05-01T10:43:08.001Z</time></trkpt><trkpt lat="42.977683091277655" lon="12.582246799594913"><ele>190.2</ele><time>2026-05-01T10:43:10.001Z</time></trkpt><trkpt lat="42.97763161372021" lon="12.582331324947404"><ele>190.4</ele><time>2026-05-01T10:43:11.001Z</time></trkpt><trkpt lat="42.97758283650194" lon="12.582404911200273"><ele>190.60000000000002</ele><time>2026-05-01T10:43:12.001Z</time></trkpt><trkpt lat="42.97751787018417" lon="12.582501323600061"><ele>190.8</ele><time>2026-05-01T10:43:13.001Z</time></trkpt><trkpt lat="42.977445221745796" lon="12.5826084944583"><ele>191.0</ele><time>2026-05-01T10:43:14.001Z</time></trkpt><trkpt lat="42.9773823013698" lon="12.582708844198013"><ele>191.0</ele><time>2026-05-01T10:43:15.001Z</time></trkpt><trkpt lat="42.977316151269804" lon="12.58281471034811"><ele>191.0</ele><time>2026-05-01T10:43:16.001Z</time></trkpt><trkpt lat="42.97725582454205" lon="12.582906215034876"><ele>191.0</ele><time>2026-05-01T10:43:17.001Z</time></trkpt><trkpt lat="42.97720056087799" lon="12.582990394593956"><ele>191.0</ele><time>2026-05-01T10:43:18.001Z</time></trkpt><trkpt lat="42.97714541788359" lon="12.583066596542718"><ele>191.0</ele><time>2026-05-01T10:43:19.001Z</time></trkpt><trkpt lat="42.97710642298727" lon="12.583134468538539"><ele>191.0</ele><time>2026-05-01T10:43:20.001Z</time></trkpt><trkpt lat="42.97703519560484" lon="12.583209969457265"><ele>191.20000000000002</ele><time>2026-05-01T10:43:22.001Z</time></trkpt><trkpt lat="42.976930439756075" lon="12.583164059543138"><ele>191.4</ele><time>2026-05-01T10:43:24.001Z</time></trkpt><trkpt lat="42.97686183631607" lon="12.583088620943693"><ele>191.6</ele><time>2026-05-01T10:43:25.001Z</time></trkpt><trkpt lat="42.97679084742586" lon="12.582997231908516"><ele>191.8</ele><time>2026-05-01T10:43:26.001Z</time></trkpt><trkpt lat="42.97668733193156" lon="12.582874016595857"><ele>192.0</ele><time>2026-05-01T10:43:27.001Z</time></trkpt><trkpt lat="42.976576534398156" lon="12.582750229444073"><ele>192.75</ele><time>2026-05-01T10:43:28.001Z</time></trkpt><trkpt lat="42.97646004697033" lon="12.582627588932759"><ele>193.5</ele><time>2026-05-01T10:43:29.001Z</time></trkpt><trkpt lat="42.976346596650394" lon="12.5825040371102"><ele>194.25</ele><time>2026-05-01T10:43:30.001Z</time></trkpt><trkpt lat="42.97625110618329" lon="12.582399022552593"><ele>195.0</ele><time>2026-05-01T10:43:31.001Z</time></trkpt><trkpt lat="42.9761591979572" lon="12.582295641990116"><ele>195.0</ele><time>2026-05-01T10:43:32.001Z</time></trkpt><trkpt lat="42.97607704177549" lon="12.582203544952879"><ele>195.0</ele><time>2026-05-01T10:43:33.001Z</time></trkpt><trkpt lat="42.976006439423564" lon="12.582121768102901"><ele>195.0</ele><time>2026-05-01T10:43:34.001Z</time></trkpt><trkpt lat="42.975934236635155" lon="12.582039197642619"><ele>195.0</ele><time>2026-05-01T10:43:35.001Z</time></trkpt><trkpt lat="42.97585485411902" lon="12.581943217320001"><ele>195.0</ele><time>2026-05-01T10:43:36.001Z</time></trkpt><trkpt lat="42.97575142163064" lon="12.581828188650842"><ele>195.25</ele><time>2026-05-01T10:43:37.001Z</time></trkpt><trkpt lat="42.97564807733485" lon="12.581717058507113"><ele>195.5</ele><time>2026-05-01T10:43:38.001Z</time></trkpt><trkpt lat="42.97555339592606" lon="12.581606205651434"><ele>195.75</ele><time>2026-05-01T10:43:39.001Z</time></trkpt><trkpt lat="42.975461069464906" lon="12.581501883456347"><ele>196.0</ele><time>2026-05-01T10:43:40.001Z</time></trkpt><trkpt lat="42.97536994430897" lon="12.581397422343406"><ele>196.0</ele><time>2026-05-01T10:43:41.001Z</time></trkpt><trkpt lat="42.97528602195264" lon="12.581301804425873"><ele>196.0</ele><time>2026-05-01T10:43:42.001Z</time></trkpt><trkpt lat="42.97521172332285" lon="12.581217564996084"><ele>196.0</ele><time>2026-05-01T10:43:43.001Z</time></trkpt><trkpt lat="42.97514703076184" lon="12.581135164267538"><ele>196.0</ele><time>2026-05-01T10:43:44.001Z</time></trkpt><trkpt lat="42.97508017714896" lon="12.581051923684498"><ele>196.0</ele><time>2026-05-01T10:43:45.001Z</time></trkpt><trkpt lat="42.97499683953458" lon="12.580969533696988"><ele>196.20000000000002</ele><time>2026-05-01T10:43:46.001Z</time></trkpt><trkpt lat="42.974904376445814" lon="12.580897799855757"><ele>196.4</ele><time>2026-05-01T10:43:47.001Z</time></trkpt><trkpt lat="42.974814646593714" lon="12.58082044690178"><ele>196.6</ele><time>2026-05-01T10:43:48.001Z</time></trkpt><trkpt lat="42.97472869527245" lon="12.580731979194267"><ele>196.8</ele><time>2026-05-01T10:43:49.001Z</time></trkpt><trkpt lat="42.9746490697907" lon="12.5806525070077"><ele>197.0</ele><time>2026-05-01T10:43:50.001Z</time></trkpt><trkpt lat="42.97458236701782" lon="12.58058470606716"><ele>197.0</ele><time>2026-05-01T10:43:51.001Z</time></trkpt><trkpt lat="42.974512380153406" lon="12.580513707570294"><ele>197.0</ele><time>2026-05-01T10:43:52.001Z</time></trkpt><trkpt lat="42.97443725326127" lon="12.580447954349891"><ele>197.0</ele><time>2026-05-01T10:43:53.001Z</time></trkpt><trkpt lat="42.97436298491229" lon="12.580406509281627"><ele>197.0</ele><time>2026-05-01T10:43:54.001Z</time></trkpt><trkpt lat="42.974268400376" lon="12.580378950044595"><ele>197.0</ele><time>2026-05-01T10:43:55.001Z</time></trkpt><trkpt lat="42.97416437861987" lon="12.580364199745105"><ele>196.83333333333334</ele><time>2026-05-01T10:43:56.001Z</time></trkpt><trkpt lat="42.97407298866934" lon="12.58034895884519"><ele>196.66666666666669</ele><time>2026-05-01T10:43:57.001Z</time></trkpt><trkpt lat="42.97400275421573" lon="12.580325912501255"><ele>196.5</ele><time>2026-05-01T10:43:58.001Z</time></trkpt><trkpt lat="42.97392496074174" lon="12.580308615974937"><ele>196.33333333333331</ele><time>2026-05-01T10:43:59.001Z</time></trkpt><trkpt lat="42.97383437346009" lon="12.580296728000741"><ele>196.16666666666666</ele><time>2026-05-01T10:44:00.001Z</time></trkpt><trkpt lat="42.97373561713758" lon="12.580275895440362"><ele>196.0</ele><time>2026-05-01T10:44:01.001Z</time></trkpt><trkpt lat="42.97363931807418" lon="12.580271182018258"><ele>196.0</ele><time>2026-05-01T10:44:02.001Z</time></trkpt><trkpt lat="42.97353799354509" lon="12.58026066264976"><ele>196.0</ele><time>2026-05-01T10:44:03.001Z</time></trkpt><trkpt lat="42.97342997032606" lon="12.58025059482755"><ele>196.0</ele><time>2026-05-01T10:44:04.001Z</time></trkpt><trkpt lat="42.973324382266284" lon="12.580236933766306"><ele>196.0</ele><time>2026-05-01T10:44:05.001Z</time></trkpt><trkpt lat="42.97320705548327" lon="12.58022124335828"><ele>196.0</ele><time>2026-05-01T10:44:06.001Z</time></trkpt><trkpt lat="42.9730854121436" lon="12.580202996042635"><ele>196.0</ele><time>2026-05-01T10:44:07.001Z</time></trkpt><trkpt lat="42.972967013853335" lon="12.580189590062732"><ele>196.0</ele><time>2026-05-01T10:44:08.001Z</time></trkpt><trkpt lat="42.97284359034459" lon="12.580177342584337"><ele>196.0</ele><time>2026-05-01T10:44:09.001Z</time></trkpt><trkpt lat="42.97270940971232" lon="12.580156717448338"><ele>196.0</ele><time>2026-05-01T10:44:10.001Z</time></trkpt><trkpt lat="42.97258610283209" lon="12.580142198596537"><ele>196.0</ele><time>2026-05-01T10:44:11.001Z</time></trkpt><trkpt lat="42.972468530299906" lon="12.580132277679196"><ele>196.0</ele><time>2026-05-01T10:44:12.001Z</time></trkpt><trkpt lat="42.97233651875379" lon="12.580118532130244"><ele>196.0</ele><time>2026-05-01T10:44:13.001Z</time></trkpt><trkpt lat="42.972196303136364" lon="12.580104929119496"><ele>196.0</ele><time>2026-05-01T10:44:14.001Z</time></trkpt><trkpt lat="42.97207420519215" lon="12.580098800800396"><ele>196.0</ele><time>2026-05-01T10:44:15.001Z</time></trkpt><trkpt lat="42.971959529179934" lon="12.580083513362354"><ele>196.0</ele><time>2026-05-01T10:44:16.001Z</time></trkpt><trkpt lat="42.97185003249644" lon="12.58007280897444"><ele>196.0</ele><time>2026-05-01T10:44:17.001Z</time></trkpt><trkpt lat="42.971728445653156" lon="12.580065861140797"><ele>196.0</ele><time>2026-05-01T10:44:18.001Z</time></trkpt><trkpt lat="42.9716086090001" lon="12.580063713935793"><ele>196.20000000000002</ele><time>2026-05-01T10:44:19.001Z</time></trkpt><trkpt lat="42.97149499195638" lon="12.58006158157848"><ele>196.4</ele><time>2026-05-01T10:44:20.001Z</time></trkpt><trkpt lat="42.971407384753846" lon="12.580060928745931"><ele>196.6</ele><time>2026-05-01T10:44:21.001Z</time></trkpt><trkpt lat="42.97132226928054" lon="12.580052147126048"><ele>196.8</ele><time>2026-05-01T10:44:22.001Z</time></trkpt><trkpt lat="42.971214734046995" lon="12.580037554850454"><ele>197.0</ele><time>2026-05-01T10:44:23.001Z</time></trkpt><trkpt lat="42.971094856771046" lon="12.58002142768687"><ele>197.0</ele><time>2026-05-01T10:44:24.001Z</time></trkpt><trkpt lat="42.97097373485254" lon="12.580007809178863"><ele>197.0</ele><time>2026-05-01T10:44:25.001Z</time></trkpt><trkpt lat="42.97085938183494" lon="12.579984467964112"><ele>197.0</ele><time>2026-05-01T10:44:26.001Z</time></trkpt><trkpt lat="42.970763463778184" lon="12.579972480459581"><ele>197.0</ele><time>2026-05-01T10:44:27.001Z</time></trkpt><trkpt lat="42.97065341114827" lon="12.579956189111256"><ele>197.0</ele><time>2026-05-01T10:44:28.001Z</time></trkpt><trkpt lat="42.970544412728145" lon="12.579940136589954"><ele>197.25</ele><time>2026-05-01T10:44:29.001Z</time></trkpt><trkpt lat="42.97042621946756" lon="12.579928645783042"><ele>197.5</ele><time>2026-05-01T10:44:30.001Z</time></trkpt><trkpt lat="42.970314845182" lon="12.579910562545843"><ele>197.75</ele><time>2026-05-01T10:44:31.001Z</time></trkpt><trkpt lat="42.97022313722088" lon="12.579898703807899"><ele>198.0</ele><time>2026-05-01T10:44:32.001Z</time></trkpt><trkpt lat="42.97015830679935" lon="12.579738773057054"><ele>198.0</ele><time>2026-05-01T10:44:33.001Z</time></trkpt><trkpt lat="42.97003363304685" lon="12.579714132806027"><ele>198.0</ele><time>2026-05-01T10:44:35.001Z</time></trkpt><trkpt lat="42.96990284948281" lon="12.579616575924925"><ele>198.0</ele><time>2026-05-01T10:44:37.001Z</time></trkpt><trkpt lat="42.96972346300716" lon="12.579856270808474"><ele>198.0</ele><time>2026-05-01T10:44:38.001Z</time></trkpt><trkpt lat="42.96963447567739" lon="12.579846930176908"><ele>198.0</ele><time>2026-05-01T10:44:39.001Z</time></trkpt><trkpt lat="42.969526942795895" lon="12.579841185824053"><ele>198.0</ele><time>2026-05-01T10:44:40.001Z</time></trkpt><trkpt lat="42.969442347886" lon="12.57982049407788"><ele>198.0</ele><time>2026-05-01T10:44:41.001Z</time></trkpt><trkpt lat="42.969529440882106" lon="12.57922731016865"><ele>198.0</ele><time>2026-05-01T10:44:42.001Z</time></trkpt><trkpt lat="42.96930801259833" lon="12.579848453709193"><ele>198.0</ele><time>2026-05-01T10:44:43.001Z</time></trkpt><trkpt lat="42.96920475688393" lon="12.579928495123555"><ele>198.0</ele><time>2026-05-01T10:44:45.001Z</time></trkpt><trkpt lat="42.96908687040839" lon="12.580006165657755"><ele>198.0</ele><time>2026-05-01T10:44:47.001Z</time></trkpt><trkpt lat="42.96887533014353" lon="12.579731718977646"><ele>198.16666666666666</ele><time>2026-05-01T10:44:48.001Z</time></trkpt><trkpt lat="42.968793907942015" lon="12.57971407394251"><ele>198.33333333333331</ele><time>2026-05-01T10:44:49.001Z</time></trkpt><trkpt lat="42.96871677693037" lon="12.579700897939052"><ele>198.5</ele><time>2026-05-01T10:44:50.001Z</time></trkpt><trkpt lat="42.96863325487128" lon="12.579686016499242"><ele>198.66666666666666</ele><time>2026-05-01T10:44:51.001Z</time></trkpt><trkpt lat="42.96855382642107" lon="12.579668255159016"><ele>198.83333333333331</ele><time>2026-05-01T10:44:53.001Z</time></trkpt><trkpt lat="42.968473212976626" lon="12.579600662992691"><ele>199.0</ele><time>2026-05-01T10:44:58.001Z</time></trkpt><trkpt lat="42.968380318035926" lon="12.579704690622064"><ele>199.5</ele><time>2026-05-01T10:45:07Z</time></trkpt><trkpt lat="42.968321195576024" lon="12.579770316895532"><ele>200.0</ele><time>2026-05-01T10:45:08Z</time></trkpt><trkpt lat="42.96823710847799" lon="12.579863271898818"><ele>200.5</ele><time>2026-05-01T10:45:09Z</time></trkpt><trkpt lat="42.96813702477731" lon="12.57997391056794"><ele>201.0</ele><time>2026-05-01T10:45:10Z</time></trkpt><trkpt lat="42.968021288990464" lon="12.580101852188282"><ele>201.0</ele><time>2026-05-01T10:45:11Z</time></trkpt><trkpt lat="42.96789864605616" lon="12.580237429199302"><ele>201.0</ele><time>2026-05-01T10:45:12Z</time></trkpt><trkpt lat="42.96776251175301" lon="12.580385036610814"><ele>201.0</ele><time>2026-05-01T10:45:13Z</time></trkpt><trkpt lat="42.9676280423351" lon="12.58055010555393"><ele>200.33333333333331</ele><time>2026-05-01T10:45:14Z</time></trkpt><trkpt lat="42.96747607650294" lon="12.580682542284325"><ele>199.66666666666666</ele><time>2026-05-01T10:45:15Z</time></trkpt><trkpt lat="42.96730305559449" lon="12.580802026018825"><ele>199.0</ele><time>2026-05-01T10:45:16Z</time></trkpt><trkpt lat="42.967123016849186" lon="12.580894237171549"><ele>199.0</ele><time>2026-05-01T10:45:17Z</time></trkpt><trkpt lat="42.96693687557133" lon="12.580980726503588"><ele>199.0</ele><time>2026-05-01T10:45:18Z</time></trkpt><trkpt lat="42.96674568580834" lon="12.581068974471455"><ele>199.0</ele><time>2026-05-01T10:45:19Z</time></trkpt><trkpt lat="42.96655692706608" lon="12.58115044134973"><ele>200.0</ele><time>2026-05-01T10:45:20Z</time></trkpt><trkpt lat="42.96637131915052" lon="12.581233252696665"><ele>201.0</ele><time>2026-05-01T10:45:21Z</time></trkpt><trkpt lat="42.96619318291366" lon="12.581324023938581"><ele>202.0</ele><time>2026-05-01T10:45:22Z</time></trkpt><trkpt lat="42.966022650456374" lon="12.58141070006187"><ele>201.33333333333331</ele><time>2026-05-01T10:45:23Z</time></trkpt><trkpt lat="42.96584826047521" lon="12.581494991032153"><ele>200.66666666666669</ele><time>2026-05-01T10:45:24Z</time></trkpt><trkpt lat="42.96567276169922" lon="12.58155850009812"><ele>200.0</ele><time>2026-05-01T10:45:25Z</time></trkpt><trkpt lat="42.96550947304161" lon="12.581638528574109"><ele>200.0</ele><time>2026-05-01T10:45:26Z</time></trkpt><trkpt lat="42.96534856179866" lon="12.581717391784323"><ele>200.0</ele><time>2026-05-01T10:45:27Z</time></trkpt><trkpt lat="42.96519920428809" lon="12.58179059253259"><ele>200.0</ele><time>2026-05-01T10:45:28Z</time></trkpt><trkpt lat="42.965062856916205" lon="12.581857416910868"><ele>200.25</ele><time>2026-05-01T10:45:29Z</time></trkpt><trkpt lat="42.96494195365461" lon="12.58191667201241"><ele>200.5</ele><time>2026-05-01T10:45:30Z</time></trkpt><trkpt lat="42.96482196840329" lon="12.581983012710547"><ele>200.75</ele><time>2026-05-01T10:45:31Z</time></trkpt><trkpt lat="42.964704158743075" lon="12.582058417667183"><ele>201.0</ele><time>2026-05-01T10:45:32Z</time></trkpt><trkpt lat="42.9646030929897" lon="12.582141968861539"><ele>201.25</ele><time>2026-05-01T10:45:33Z</time></trkpt><trkpt lat="42.96452088681272" lon="12.582280623553016"><ele>201.5</ele><time>2026-05-01T10:45:34Z</time></trkpt><trkpt lat="42.96443540702917" lon="12.582408868666088"><ele>201.75</ele><time>2026-05-01T10:45:35Z</time></trkpt><trkpt lat="42.964359624143704" lon="12.582540223938308"><ele>202.0</ele><time>2026-05-01T10:45:36Z</time></trkpt><trkpt lat="42.96430215689275" lon="12.582661833305046"><ele>201.99999999999997</ele><time>2026-05-01T10:45:37Z</time></trkpt><trkpt lat="42.96425261924307" lon="12.58275287437523"><ele>202.0</ele><time>2026-05-01T10:45:38Z</time></trkpt><trkpt lat="42.96416555185353" lon="12.582776716364167"><ele>202.0</ele><time>2026-05-01T10:45:40Z</time></trkpt><trkpt lat="42.96412332389461" lon="12.582699282517744"><ele>202.0</ele><time>2026-05-01T10:45:41Z</time></trkpt><trkpt lat="42.96403869013092" lon="12.582654469119303"><ele>201.99999999999997</ele><time>2026-05-01T10:45:42Z</time></trkpt><trkpt lat="42.963946450548065" lon="12.5825845883068"><ele>202.0</ele><time>2026-05-01T10:45:43Z</time></trkpt><trkpt lat="42.96384760213984" lon="12.582510275108442"><ele>202.0</ele><time>2026-05-01T10:45:44Z</time></trkpt><trkpt lat="42.9637406441268" lon="12.582427890884889"><ele>202.0</ele><time>2026-05-01T10:45:45Z</time></trkpt><trkpt lat="42.963619206991424" lon="12.58234549058424"><ele>202.0</ele><time>2026-05-01T10:45:46Z</time></trkpt><trkpt lat="42.96349196161494" lon="12.58226344145262"><ele>202.0</ele><time>2026-05-01T10:45:47Z</time></trkpt><trkpt lat="42.963374989378934" lon="12.582159342459807"><ele>201.33333333333331</ele><time>2026-05-01T10:45:48Z</time></trkpt><trkpt lat="42.963237793567025" lon="12.582064552605711"><ele>200.66666666666669</ele><time>2026-05-01T10:45:49Z</time></trkpt><trkpt lat="42.96309486725629" lon="12.58198833725185"><ele>200.0</ele><time>2026-05-01T10:45:50Z</time></trkpt><trkpt lat="42.96295632135394" lon="12.581887642694703"><ele>200.0</ele><time>2026-05-01T10:45:51Z</time></trkpt><trkpt lat="42.962800208794185" lon="12.58178205418648"><ele>200.0</ele><time>2026-05-01T10:45:52Z</time></trkpt><trkpt lat="42.96262081246667" lon="12.581652359685659"><ele>200.0</ele><time>2026-05-01T10:45:53Z</time></trkpt><trkpt lat="42.96246105777793" lon="12.58153506805392"><ele>200.33333333333334</ele><time>2026-05-01T10:45:54Z</time></trkpt><trkpt lat="42.96230862263665" lon="12.581420807884822"><ele>200.66666666666669</ele><time>2026-05-01T10:45:55Z</time></trkpt><trkpt lat="42.96215544808747" lon="12.581304971138914"><ele>201.0</ele><time>2026-05-01T10:45:56Z</time></trkpt><trkpt lat="42.962000842258064" lon="12.581194087769738"><ele>201.33333333333331</ele><time>2026-05-01T10:45:57Z</time></trkpt><trkpt lat="42.96185814637098" lon="12.581096027046556"><ele>201.66666666666666</ele><time>2026-05-01T10:45:58Z</time></trkpt><trkpt lat="42.96171753662349" lon="12.581000247003088"><ele>202.0</ele><time>2026-05-01T10:45:59Z</time></trkpt><trkpt lat="42.96158404281417" lon="12.580910178835458"><ele>202.25</ele><time>2026-05-01T10:46:00Z</time></trkpt><trkpt lat="42.96144858558646" lon="12.58081809915663"><ele>202.5</ele><time>2026-05-01T10:46:01Z</time></trkpt><trkpt lat="42.96131921036284" lon="12.58072751289937"><ele>202.75</ele><time>2026-05-01T10:46:02Z</time></trkpt><trkpt lat="42.96119663636348" lon="12.580638232199554"><ele>203.0</ele><time>2026-05-01T10:46:03Z</time></trkpt><trkpt lat="42.961061713663" lon="12.58054047330683"><ele>203.0</ele><time>2026-05-01T10:46:04Z</time></trkpt><trkpt lat="42.96091731335655" lon="12.580440280969416"><ele>203.0</ele><time>2026-05-01T10:46:05Z</time></trkpt><trkpt lat="42.960761376444395" lon="12.580332057959504"><ele>203.0</ele><time>2026-05-01T10:46:06Z</time></trkpt><trkpt lat="42.96059898352258" lon="12.580219142557302"><ele>203.0</ele><time>2026-05-01T10:46:07Z</time></trkpt><trkpt lat="42.96042806108836" lon="12.580099861051933"><ele>203.0</ele><time>2026-05-01T10:46:08Z</time></trkpt><trkpt lat="42.96025724307021" lon="12.579978884683474"><ele>203.0</ele><time>2026-05-01T10:46:09Z</time></trkpt><trkpt lat="42.96008913814978" lon="12.579858134444708"><ele>203.33333333333334</ele><time>2026-05-01T10:46:10Z</time></trkpt><trkpt lat="42.959908752172716" lon="12.579732901848562"><ele>203.66666666666669</ele><time>2026-05-01T10:46:11Z</time></trkpt><trkpt lat="42.959715933352086" lon="12.579599098734358"><ele>204.0</ele><time>2026-05-01T10:46:12Z</time></trkpt><trkpt lat="42.95951163202358" lon="12.57945612291117"><ele>204.5</ele><time>2026-05-01T10:46:13Z</time></trkpt><trkpt lat="42.959316396528656" lon="12.579293407649688"><ele>205.0</ele><time>2026-05-01T10:46:14Z</time></trkpt><trkpt lat="42.95911517604739" lon="12.579149164138624"><ele>205.0</ele><time>2026-05-01T10:46:15Z</time></trkpt><trkpt lat="42.95891112706443" lon="12.57902333791116"><ele>205.0</ele><time>2026-05-01T10:46:16Z</time></trkpt><trkpt lat="42.95873304736196" lon="12.5788503366434"><ele>205.0</ele><time>2026-05-01T10:46:17Z</time></trkpt><trkpt lat="42.958556267668726" lon="12.578685689356044"><ele>205.0</ele><time>2026-05-01T10:46:18Z</time></trkpt><trkpt lat="42.95838300880202" lon="12.57852309485015"><ele>205.0</ele><time>2026-05-01T10:46:19Z</time></trkpt><trkpt lat="42.95819451800486" lon="12.578399465348648"><ele>205.0</ele><time>2026-05-01T10:46:20Z</time></trkpt><trkpt lat="42.95800543463252" lon="12.57828000719408"><ele>204.66666666666666</ele><time>2026-05-01T10:46:21Z</time></trkpt><trkpt lat="42.95781686176745" lon="12.578175045732896"><ele>204.33333333333331</ele><time>2026-05-01T10:46:22Z</time></trkpt><trkpt lat="42.9576431650426" lon="12.578078873066328"><ele>204.0</ele><time>2026-05-01T10:46:23Z</time></trkpt><trkpt lat="42.957476593014306" lon="12.578000511399805"><ele>203.66666666666669</ele><time>2026-05-01T10:46:24Z</time></trkpt><trkpt lat="42.95730563360705" lon="12.577944735755063"><ele>203.33333333333334</ele><time>2026-05-01T10:46:25Z</time></trkpt><trkpt lat="42.95711686822223" lon="12.577915724547019"><ele>203.0</ele><time>2026-05-01T10:46:26Z</time></trkpt><trkpt lat="42.95692021217819" lon="12.577893586045068"><ele>204.0</ele><time>2026-05-01T10:46:27Z</time></trkpt><trkpt lat="42.95672980109287" lon="12.577834045741543"><ele>205.0</ele><time>2026-05-01T10:46:28Z</time></trkpt><trkpt lat="42.95653957030657" lon="12.57778528612743"><ele>206.0</ele><time>2026-05-01T10:46:29Z</time></trkpt><trkpt lat="42.95634773358576" lon="12.577727514835544"><ele>206.0</ele><time>2026-05-01T10:46:30Z</time></trkpt><trkpt lat="42.956163046143885" lon="12.577663733652962"><ele>206.0</ele><time>2026-05-01T10:46:31Z</time></trkpt><trkpt lat="42.95598350743366" lon="12.577579256328047"><ele>206.0</ele><time>2026-05-01T10:46:32Z</time></trkpt><trkpt lat="42.95580417253228" lon="12.577483379116755"><ele>206.0</ele><time>2026-05-01T10:46:33Z</time></trkpt><trkpt lat="42.95563154924181" lon="12.57738376292628"><ele>206.0</ele><time>2026-05-01T10:46:34Z</time></trkpt><trkpt lat="42.955452973873236" lon="12.577297672810134"><ele>206.0</ele><time>2026-05-01T10:46:35Z</time></trkpt><trkpt lat="42.95529327568888" lon="12.577176329796982"><ele>206.0</ele><time>2026-05-01T10:46:36Z</time></trkpt><trkpt lat="42.955134123735824" lon="12.57710623525108"><ele>206.0</ele><time>2026-05-01T10:46:37Z</time></trkpt><trkpt lat="42.95499173025448" lon="12.577032247673557"><ele>206.0</ele><time>2026-05-01T10:46:38Z</time></trkpt><trkpt lat="42.95485581609561" lon="12.576985432629758"><ele>205.66666666666669</ele><time>2026-05-01T10:46:39Z</time></trkpt><trkpt lat="42.95471877521728" lon="12.576975323292807"><ele>205.33333333333331</ele><time>2026-05-01T10:46:40Z</time></trkpt><trkpt lat="42.95455957233303" lon="12.57700533627779"><ele>205.0</ele><time>2026-05-01T10:46:41Z</time></trkpt><trkpt lat="42.9543939233369" lon="12.577036824081944"><ele>205.0</ele><time>2026-05-01T10:46:42Z</time></trkpt><trkpt lat="42.954236710914415" lon="12.577066840510142"><ele>205.0</ele><time>2026-05-01T10:46:43Z</time></trkpt><trkpt lat="42.95409392796675" lon="12.577080540711288"><ele>205.0</ele><time>2026-05-01T10:46:44Z</time></trkpt><trkpt lat="42.95395872448763" lon="12.577072805937448"><ele>205.0</ele><time>2026-05-01T10:46:45Z</time></trkpt><trkpt lat="42.953822943569435" lon="12.577019280709544"><ele>205.66666666666666</ele><time>2026-05-01T10:46:46Z</time></trkpt><trkpt lat="42.953676317923936" lon="12.57691467703743"><ele>206.33333333333331</ele><time>2026-05-01T10:46:47Z</time></trkpt><trkpt lat="42.95353072481888" lon="12.576790221261298"><ele>207.0</ele><time>2026-05-01T10:46:48Z</time></trkpt><trkpt lat="42.95339798046633" lon="12.57666343262467"><ele>207.0</ele><time>2026-05-01T10:46:49Z</time></trkpt><trkpt lat="42.953242176747054" lon="12.576577872462638"><ele>207.0</ele><time>2026-05-01T10:46:50Z</time></trkpt><trkpt lat="42.95307442298135" lon="12.576501037011155"><ele>207.0</ele><time>2026-05-01T10:46:51Z</time></trkpt><trkpt lat="42.95287904726693" lon="12.576480938926164"><ele>207.0</ele><time>2026-05-01T10:46:52Z</time></trkpt><trkpt lat="42.95265971437374" lon="12.57650171152157"><ele>207.0</ele><time>2026-05-01T10:46:53Z</time></trkpt><trkpt lat="42.95243346875362" lon="12.576542799793415"><ele>207.0</ele><time>2026-05-01T10:46:54Z</time></trkpt><trkpt lat="42.95219912379659" lon="12.576573832439594"><ele>208.5</ele><time>2026-05-01T10:46:55Z</time></trkpt><trkpt lat="42.951961947796185" lon="12.576622324803152"><ele>210.0</ele><time>2026-05-01T10:46:56Z</time></trkpt><trkpt lat="42.951726929388755" lon="12.576674151529605"><ele>210.0</ele><time>2026-05-01T10:46:57Z</time></trkpt><trkpt lat="42.951495495034614" lon="12.576726434627128"><ele>210.0</ele><time>2026-05-01T10:46:58Z</time></trkpt><trkpt lat="42.95126050573796" lon="12.57678132442057"><ele>210.0</ele><time>2026-05-01T10:46:59Z</time></trkpt><trkpt lat="42.95104630132816" lon="12.576831357571832"><ele>210.0</ele><time>2026-05-01T10:47:00Z</time></trkpt><trkpt lat="42.95084705910796" lon="12.576879475336401"><ele>210.0</ele><time>2026-05-01T10:47:01Z</time></trkpt><trkpt lat="42.95065884927641" lon="12.576926201057802"><ele>209.33333333333331</ele><time>2026-05-01T10:47:02Z</time></trkpt><trkpt lat="42.95047662937861" lon="12.576982792028662"><ele>208.66666666666666</ele><time>2026-05-01T10:47:03Z</time></trkpt><trkpt lat="42.950298077167474" lon="12.577085284389621"><ele>208.0</ele><time>2026-05-01T10:47:04Z</time></trkpt><trkpt lat="42.95011942439096" lon="12.577185697715466"><ele>208.66666666666666</ele><time>2026-05-01T10:47:05Z</time></trkpt><trkpt lat="42.94994595623528" lon="12.577290852008126"><ele>209.33333333333331</ele><time>2026-05-01T10:47:06Z</time></trkpt><trkpt lat="42.94975660124522" lon="12.57737524227637"><ele>210.0</ele><time>2026-05-01T10:47:07Z</time></trkpt><trkpt lat="42.94957509627383" lon="12.577475988607663"><ele>210.0</ele><time>2026-05-01T10:47:08Z</time></trkpt><trkpt lat="42.94939319439765" lon="12.577564828355397"><ele>210.0</ele><time>2026-05-01T10:47:09Z</time></trkpt><trkpt lat="42.949208489321286" lon="12.577630732616766"><ele>210.0</ele><time>2026-05-01T10:47:10Z</time></trkpt><trkpt lat="42.949027490660946" lon="12.577654926233956"><ele>211.0</ele><time>2026-05-01T10:47:11Z</time></trkpt><trkpt lat="42.9488499559201" lon="12.577643318841558"><ele>212.0</ele><time>2026-05-01T10:47:12Z</time></trkpt><trkpt lat="42.94865811752875" lon="12.57760590740768"><ele>213.0</ele><time>2026-05-01T10:47:13Z</time></trkpt><trkpt lat="42.94846866680267" lon="12.577542587978796"><ele>213.0</ele><time>2026-05-01T10:47:14Z</time></trkpt><trkpt lat="42.94826920693411" lon="12.577461377498247"><ele>213.0</ele><time>2026-05-01T10:47:15Z</time></trkpt><trkpt lat="42.9480684693205" lon="12.577376014667324"><ele>213.0</ele><time>2026-05-01T10:47:16Z</time></trkpt><trkpt lat="42.94786712438797" lon="12.577287372025419"><ele>213.0</ele><time>2026-05-01T10:47:17Z</time></trkpt><trkpt lat="42.94767836333151" lon="12.577204269430688"><ele>213.0</ele><time>2026-05-01T10:47:18Z</time></trkpt><trkpt lat="42.94748827585328" lon="12.577120582944838"><ele>213.0</ele><time>2026-05-01T10:47:19Z</time></trkpt><trkpt lat="42.94730708559498" lon="12.577040813372392"><ele>212.5</ele><time>2026-05-01T10:47:20Z</time></trkpt><trkpt lat="42.946963911666046" lon="12.576891386182773"><ele>212.0</ele><time>2026-05-01T10:47:22Z</time></trkpt><trkpt lat="42.946796486540485" lon="12.576841346927488"><ele>212.0</ele><time>2026-05-01T10:47:23Z</time></trkpt><trkpt lat="42.94664149323406" lon="12.57675529420457"><ele>212.0</ele><time>2026-05-01T10:47:24Z</time></trkpt><trkpt lat="42.94648280047316" lon="12.576685617522493"><ele>212.0</ele><time>2026-05-01T10:47:25Z</time></trkpt><trkpt lat="42.946324140267755" lon="12.576609224660887"><ele>212.0</ele><time>2026-05-01T10:47:26Z</time></trkpt><trkpt lat="42.94617354076177" lon="12.576533842890676"><ele>212.0</ele><time>2026-05-01T10:47:27Z</time></trkpt><trkpt lat="42.946035193204004" lon="12.576464923753255"><ele>212.0</ele><time>2026-05-01T10:47:28Z</time></trkpt><trkpt lat="42.94590657886414" lon="12.576408709202875"><ele>212.0</ele><time>2026-05-01T10:47:29Z</time></trkpt><trkpt lat="42.94578065504724" lon="12.576352600046688"><ele>212.2</ele><time>2026-05-01T10:47:30Z</time></trkpt><trkpt lat="42.94566235977641" lon="12.576315722019345"><ele>212.39999999999998</ele><time>2026-05-01T10:47:31Z</time></trkpt><trkpt lat="42.94556529833262" lon="12.576241550105047"><ele>212.60000000000002</ele><time>2026-05-01T10:47:32Z</time></trkpt><trkpt lat="42.94547071499219" lon="12.576194344035578"><ele>212.8</ele><time>2026-05-01T10:47:33Z</time></trkpt><trkpt lat="42.945385123696774" lon="12.576157324778094"><ele>213.0</ele><time>2026-05-01T10:47:34Z</time></trkpt><trkpt lat="42.94531331411314" lon="12.576141332283315"><ele>213.0</ele><time>2026-05-01T10:47:35Z</time></trkpt><trkpt lat="42.9452307064358" lon="12.57610630479046"><ele>213.0</ele><time>2026-05-01T10:47:37Z</time></trkpt><trkpt lat="42.94516637968054" lon="12.576324580908095"><ele>213.0</ele><time>2026-05-01T10:47:39Z</time></trkpt><trkpt lat="42.94516839918788" lon="12.576447047054785"><ele>213.0</ele><time>2026-05-01T10:47:40Z</time></trkpt><trkpt lat="42.945140563260125" lon="12.57656643278305"><ele>213.0</ele><time>2026-05-01T10:47:41Z</time></trkpt><trkpt lat="42.94513012650045" lon="12.576653692308843"><ele>213.0</ele><time>2026-05-01T10:47:42Z</time></trkpt><trkpt lat="42.94505570030706" lon="12.576642363248528"><ele>213.0</ele><time>2026-05-01T10:47:45Z</time></trkpt><trkpt lat="42.94495983211283" lon="12.576600823689775"><ele>213.0</ele><time>2026-05-01T10:47:47Z</time></trkpt><trkpt lat="42.944887047689804" lon="12.576567727740846"><ele>213.0</ele><time>2026-05-01T10:47:49Z</time></trkpt><trkpt lat="42.94479994849269" lon="12.576740529169014"><ele>213.0</ele><time>2026-05-01T10:47:50Z</time></trkpt><trkpt lat="42.94470138007057" lon="12.576828190941205"><ele>213.60000000000002</ele><time>2026-05-01T10:47:52Z</time></trkpt><trkpt lat="42.9445984147675" lon="12.576904642397436"><ele>214.20000000000002</ele><time>2026-05-01T10:47:54Z</time></trkpt><trkpt lat="42.9445014727288" lon="12.576961621012039"><ele>214.8</ele><time>2026-05-01T10:47:56Z</time></trkpt><trkpt lat="42.944373757850414" lon="12.5770133016614"><ele>215.4</ele><time>2026-05-01T10:47:58Z</time></trkpt><trkpt lat="42.9442963120665" lon="12.577032451951807"><ele>216.0</ele><time>2026-05-01T10:47:59Z</time></trkpt><trkpt lat="42.94422066669877" lon="12.577050721592451"><ele>219.71428571428572</ele><time>2026-05-01T10:48:00Z</time></trkpt><trkpt lat="42.944140596489" lon="12.577074047394586"><ele>223.42857142857142</ele><time>2026-05-01T10:48:01Z</time></trkpt><trkpt lat="42.944078581659205" lon="12.577093522984683"><ele>227.14285714285714</ele><time>2026-05-01T10:48:02Z</time></trkpt><trkpt lat="42.94401656485772" lon="12.577157304678495"><ele>230.85714285714283</ele><time>2026-05-01T10:48:03Z</time></trkpt><trkpt lat="42.943955227138865" lon="12.577198557713299"><ele>234.57142857142856</ele><time>2026-05-01T10:48:04Z</time></trkpt><trkpt lat="42.94389482263654" lon="12.577241647085176"><ele>238.28571428571428</ele><time>2026-05-01T10:48:05Z</time></trkpt><trkpt lat="42.94383361495862" lon="12.577306604956494"><ele>242.0</ele><time>2026-05-01T10:48:06Z</time></trkpt><trkpt lat="42.9437605623553" lon="12.577359481374664"><ele>242.00000000000003</ele><time>2026-05-01T10:48:07Z</time></trkpt><trkpt lat="42.94369780483942" lon="12.577424136794345"><ele>242.0</ele><time>2026-05-01T10:48:08Z</time></trkpt><trkpt lat="42.94366030394241" lon="12.57751562570135"><ele>242.0</ele><time>2026-05-01T10:48:09Z</time></trkpt><trkpt lat="42.94360758576358" lon="12.577596304040195"><ele>242.0</ele><time>2026-05-01T10:48:10Z</time></trkpt><trkpt lat="42.94357549904183" lon="12.577702407783905"><ele>242.00000000000003</ele><time>2026-05-01T10:48:11Z</time></trkpt><trkpt lat="42.94354832530902" lon="12.577807217573266"><ele>242.0</ele><time>2026-05-01T10:48:13Z</time></trkpt><trkpt lat="42.94362264298557" lon="12.5779279125835"><ele>242.6</ele><time>2026-05-01T10:48:16Z</time></trkpt><trkpt lat="42.94369987110936" lon="12.578040713738755"><ele>243.2</ele><time>2026-05-01T10:48:18Z</time></trkpt><trkpt lat="42.94369370137636" lon="12.578142503298965"><ele>243.8</ele><time>2026-05-01T10:48:21Z</time></trkpt><trkpt lat="42.943667675934236" lon="12.578235071231742"><ele>244.4</ele><time>2026-05-01T10:48:24Z</time></trkpt><trkpt lat="42.943572512690146" lon="12.578251270960592"><ele>245.0</ele><time>2026-05-01T10:48:26Z</time></trkpt><trkpt lat="42.94347910712814" lon="12.578314045850327"><ele>246.2</ele><time>2026-05-01T10:48:28Z</time></trkpt><trkpt lat="42.94337246399054" lon="12.578360628648216"><ele>247.4</ele><time>2026-05-01T10:48:30Z</time></trkpt><trkpt lat="42.94330312804193" lon="12.578458742114767"><ele>248.60000000000002</ele><time>2026-05-01T10:48:32Z</time></trkpt><trkpt lat="42.94326135979203" lon="12.578533354551551"><ele>249.8</ele><time>2026-05-01T10:48:35Z</time></trkpt><trkpt lat="42.94322132828906" lon="12.578633811452331"><ele>251.0</ele><time>2026-05-01T10:48:38Z</time></trkpt><trkpt lat="42.94319515194566" lon="12.578746712834391"><ele>252.0</ele><time>2026-05-01T10:48:40Z</time></trkpt><trkpt lat="42.9431747081089" lon="12.578868938503573"><ele>253.00000000000003</ele><time>2026-05-01T10:48:42Z</time></trkpt><trkpt lat="42.94313543296228" lon="12.57898617931734"><ele>254.00000000000003</ele><time>2026-05-01T10:48:44Z</time></trkpt><trkpt lat="42.94312057357161" lon="12.579125978466363"><ele>255.0</ele><time>2026-05-01T10:48:46Z</time></trkpt><trkpt lat="42.94308541565534" lon="12.579273407874146"><ele>256.0</ele><time>2026-05-01T10:48:48Z</time></trkpt><trkpt lat="42.943050935365115" lon="12.57937574880424"><ele>256.0</ele><time>2026-05-01T10:48:50Z</time></trkpt><trkpt lat="42.94304581938955" lon="12.579476992078641"><ele>256.0</ele><time>2026-05-01T10:48:52Z</time></trkpt><trkpt lat="42.94299825828687" lon="12.579541091267055"><ele>256.0</ele><time>2026-05-01T10:48:54Z</time></trkpt><trkpt lat="42.94309670304091" lon="12.579355287934062"><ele>256.0</ele><time>2026-05-01T10:49:03Z</time></trkpt><trkpt lat="42.94312142911274" lon="12.579201458209733"><ele>256.0</ele><time>2026-05-01T10:49:05Z</time></trkpt><trkpt lat="42.943144899262606" lon="12.579110937938651"><ele>255.99999999999997</ele><time>2026-05-01T10:49:06Z</time></trkpt><trkpt lat="42.943167659006086" lon="12.579014194690963"><ele>256.0</ele><time>2026-05-01T10:49:07Z</time></trkpt><trkpt lat="42.94318546704721" lon="12.578919314475165"><ele>256.0</ele><time>2026-05-01T10:49:08Z</time></trkpt><trkpt lat="42.94320123451379" lon="12.578826758734186"><ele>256.0</ele><time>2026-05-01T10:49:09Z</time></trkpt><trkpt lat="42.943220301109655" lon="12.578735924694948"><ele>255.99999999999997</ele><time>2026-05-01T10:49:10Z</time></trkpt><trkpt lat="42.94325932218987" lon="12.578582810473266"><ele>256.0</ele><time>2026-05-01T10:49:12Z</time></trkpt><trkpt lat="42.94332480433191" lon="12.578461903611927"><ele>253.8</ele><time>2026-05-01T10:49:14Z</time></trkpt><trkpt lat="42.943421617073774" lon="12.578373707479638"><ele>251.60000000000002</ele><time>2026-05-01T10:49:16Z</time></trkpt><trkpt lat="42.94348014112884" lon="12.578340736311"><ele>249.4</ele><time>2026-05-01T10:49:17Z</time></trkpt><trkpt lat="42.94358929960851" lon="12.578309233204674"><ele>247.2</ele><time>2026-05-01T10:49:19Z</time></trkpt><trkpt lat="42.943651844420025" lon="12.57820457151501"><ele>245.0</ele><time>2026-05-01T10:49:21Z</time></trkpt><trkpt lat="42.94369772127415" lon="12.578119226624372"><ele>245.00000000000003</ele><time>2026-05-01T10:49:23Z</time></trkpt><trkpt lat="42.943689232164196" lon="12.578020835512081"><ele>245.0</ele><time>2026-05-01T10:49:25Z</time></trkpt><trkpt lat="42.94363226411444" lon="12.577926437217219"><ele>245.0</ele><time>2026-05-01T10:49:28Z</time></trkpt><trkpt lat="42.94357825046166" lon="12.577867166295189"><ele>245.0</ele><time>2026-05-01T10:49:32Z</time></trkpt><trkpt lat="42.94357235326991" lon="12.57775751959974"><ele>245.00000000000003</ele><time>2026-05-01T10:49:36Z</time></trkpt><trkpt lat="42.943615192693045" lon="12.577640854413037"><ele>245.0</ele><time>2026-05-01T10:49:38Z</time></trkpt><trkpt lat="42.943654176634915" lon="12.577546703443144"><ele>244.50000000000003</ele><time>2026-05-01T10:49:40Z</time></trkpt><trkpt lat="42.94370832616128" lon="12.577449789600614"><ele>244.0</ele><time>2026-05-01T10:49:42Z</time></trkpt><trkpt lat="42.94378553355185" lon="12.577368607642518"><ele>243.5</ele><time>2026-05-01T10:49:44Z</time></trkpt><trkpt lat="42.94386470321205" lon="12.577320070682774"><ele>243.0</ele><time>2026-05-01T10:49:46Z</time></trkpt><trkpt lat="42.94392166254889" lon="12.577269901440602"><ele>242.50000000000003</ele><time>2026-05-01T10:49:48Z</time></trkpt><trkpt lat="42.94399322475043" lon="12.577209923936858"><ele>242.0</ele><time>2026-05-01T10:49:50Z</time></trkpt><trkpt lat="42.944071315164535" lon="12.57715400420328"><ele>242.00000000000003</ele><time>2026-05-01T10:49:52Z</time></trkpt><trkpt lat="42.94413908779093" lon="12.57710829393941"><ele>242.0</ele><time>2026-05-01T10:49:54Z</time></trkpt><trkpt lat="42.944233394224746" lon="12.57709024774982"><ele>242.0</ele><time>2026-05-01T10:49:57Z</time></trkpt><trkpt lat="42.944313485810916" lon="12.577095507251906"><ele>242.0</ele><time>2026-05-01T10:49:59Z</time></trkpt><trkpt lat="42.94438338052852" lon="12.57704903107001"><ele>242.00000000000003</ele><time>2026-05-01T10:50:01Z</time></trkpt><trkpt lat="42.94446685181515" lon="12.577017811075036"><ele>242.0</ele><time>2026-05-01T10:50:03Z</time></trkpt><trkpt lat="42.94452722842524" lon="12.57698110857917"><ele>237.66666666666669</ele><time>2026-05-01T10:50:05Z</time></trkpt><trkpt lat="42.94458689993006" lon="12.576940075420989"><ele>233.33333333333334</ele><time>2026-05-01T10:50:07Z</time></trkpt><trkpt lat="42.94465558110514" lon="12.57690086413688"><ele>229.0</ele><time>2026-05-01T10:50:09Z</time></trkpt><trkpt lat="42.94471462230469" lon="12.576870201674563"><ele>224.66666666666669</ele><time>2026-05-01T10:50:11Z</time></trkpt><trkpt lat="42.94478402645393" lon="12.576813567117085"><ele>220.33333333333334</ele><time>2026-05-01T10:50:13Z</time></trkpt><trkpt lat="42.94484322234854" lon="12.576762506343428"><ele>216.0</ele><time>2026-05-01T10:50:15Z</time></trkpt><trkpt lat="42.94493731745908" lon="12.576660651761157"><ele>216.0</ele><time>2026-05-01T10:50:18Z</time></trkpt><trkpt lat="42.94504038885807" lon="12.576674555681505"><ele>216.00000000000003</ele><time>2026-05-01T10:50:20Z</time></trkpt><trkpt lat="42.94510427874332" lon="12.57670417799994"><ele>216.00000000000003</ele><time>2026-05-01T10:50:22Z</time></trkpt><trkpt lat="42.945187106380814" lon="12.57654381965023"><ele>216.0</ele><time>2026-05-01T10:50:26Z</time></trkpt><trkpt lat="42.9451816776296" lon="12.57644275743384"><ele>216.0</ele><time>2026-05-01T10:50:27Z</time></trkpt><trkpt lat="42.94519186894714" lon="12.57635327561793"><ele>215.66666666666666</ele><time>2026-05-01T10:50:28Z</time></trkpt><trkpt lat="42.94520607396036" lon="12.576266492366516"><ele>215.33333333333331</ele><time>2026-05-01T10:50:29Z</time></trkpt><trkpt lat="42.9452226547375" lon="12.576181216902166"><ele>215.0</ele><time>2026-05-01T10:50:31Z</time></trkpt><trkpt lat="42.945168882043774" lon="12.576059321195025"><ele>214.66666666666666</ele><time>2026-05-01T10:50:34Z</time></trkpt><trkpt lat="42.94510197397236" lon="12.575952221645414"><ele>214.33333333333331</ele><time>2026-05-01T10:50:36Z</time></trkpt><trkpt lat="42.94511912148533" lon="12.575856046123794"><ele>214.0</ele><time>2026-05-01T10:50:38Z</time></trkpt><trkpt lat="42.94514201809703" lon="12.575727977284222"><ele>214.0</ele><time>2026-05-01T10:50:40Z</time></trkpt><trkpt lat="42.94515474878068" lon="12.57562295197481"><ele>213.99999999999997</ele><time>2026-05-01T10:50:42Z</time></trkpt><trkpt lat="42.94498630166425" lon="12.575572124909183"><ele>213.99999999999997</ele><time>2026-05-01T10:50:43Z</time></trkpt><trkpt lat="42.94489454107011" lon="12.575531446171283"><ele>214.0</ele><time>2026-05-01T10:50:44Z</time></trkpt><trkpt lat="42.944809399033886" lon="12.57551276608945"><ele>214.0</ele><time>2026-05-01T10:50:45Z</time></trkpt><trkpt lat="42.944716637788865" lon="12.575492414359587"><ele>214.0</ele><time>2026-05-01T10:50:46Z</time></trkpt><trkpt lat="42.94462076731177" lon="12.575473535448054"><ele>213.99999999999997</ele><time>2026-05-01T10:50:47Z</time></trkpt><trkpt lat="42.94451892760878" lon="12.5754498656829"><ele>213.99999999999997</ele><time>2026-05-01T10:50:48Z</time></trkpt><trkpt lat="42.94442045891705" lon="12.575415601418161"><ele>214.0</ele><time>2026-05-01T10:50:49Z</time></trkpt><trkpt lat="42.94431720313547" lon="12.575367322489996"><ele>214.0</ele><time>2026-05-01T10:50:50Z</time></trkpt><trkpt lat="42.94422734113849" lon="12.57530577271192"><ele>214.0</ele><time>2026-05-01T10:50:51Z</time></trkpt><trkpt lat="42.94412852311263" lon="12.575250285569394"><ele>213.99999999999997</ele><time>2026-05-01T10:50:52Z</time></trkpt><trkpt lat="42.94405396212416" lon="12.575186336664842"><ele>213.99999999999997</ele><time>2026-05-01T10:50:53Z</time></trkpt><trkpt lat="42.94399799366298" lon="12.575107631885267"><ele>214.0</ele><time>2026-05-01T10:50:54Z</time></trkpt><trkpt lat="42.94392503137149" lon="12.5750325695088"><ele>214.0</ele><time>2026-05-01T10:50:55Z</time></trkpt><trkpt lat="42.94382250528503" lon="12.574950292352115"><ele>214.0</ele><time>2026-05-01T10:50:56Z</time></trkpt><trkpt lat="42.94371395217111" lon="12.574830464360293"><ele>214.0</ele><time>2026-05-01T10:50:57Z</time></trkpt><trkpt lat="42.943599734541685" lon="12.574698517031376"><ele>214.0</ele><time>2026-05-01T10:50:58Z</time></trkpt><trkpt lat="42.943483171576155" lon="12.57457558696838"><ele>214.0</ele><time>2026-05-01T10:50:59Z</time></trkpt><trkpt lat="42.94336221308419" lon="12.574442210719841"><ele>214.33333333333331</ele><time>2026-05-01T10:51:00Z</time></trkpt><trkpt lat="42.94324242632184" lon="12.574301300429926"><ele>214.66666666666669</ele><time>2026-05-01T10:51:01Z</time></trkpt><trkpt lat="42.943120017935485" lon="12.574132037251065"><ele>215.0</ele><time>2026-05-01T10:51:02Z</time></trkpt><trkpt lat="42.94298017142207" lon="12.573960864658016"><ele>215.0</ele><time>2026-05-01T10:51:03Z</time></trkpt><trkpt lat="42.94284853840937" lon="12.573792037882145"><ele>215.0</ele><time>2026-05-01T10:51:04Z</time></trkpt><trkpt lat="42.94272125894254" lon="12.57363025903887"><ele>215.0</ele><time>2026-05-01T10:51:05Z</time></trkpt><trkpt lat="42.94258295983456" lon="12.573486121147079"><ele>215.66666666666669</ele><time>2026-05-01T10:51:06Z</time></trkpt><trkpt lat="42.94247378129623" lon="12.573319049072428"><ele>216.33333333333331</ele><time>2026-05-01T10:51:07Z</time></trkpt><trkpt lat="42.94235540393064" lon="12.573171750844942"><ele>217.0</ele><time>2026-05-01T10:51:08Z</time></trkpt><trkpt lat="42.942232769219295" lon="12.573036268739214"><ele>217.0</ele><time>2026-05-01T10:51:09Z</time></trkpt><trkpt lat="42.94210739336702" lon="12.572918247797675"><ele>217.0</ele><time>2026-05-01T10:51:10.001Z</time></trkpt><trkpt lat="42.9419793104258" lon="12.57280761594112"><ele>217.0</ele><time>2026-05-01T10:51:11.001Z</time></trkpt><trkpt lat="42.94184781591791" lon="12.572709591550181"><ele>217.75</ele><time>2026-05-01T10:51:12.001Z</time></trkpt><trkpt lat="42.94171724940476" lon="12.57264650591781"><ele>218.5</ele><time>2026-05-01T10:51:13.001Z</time></trkpt><trkpt lat="42.941574527374456" lon="12.572621770680565"><ele>219.25</ele><time>2026-05-01T10:51:14.001Z</time></trkpt><trkpt lat="42.94141625549905" lon="12.572642187872097"><ele>220.0</ele><time>2026-05-01T10:51:15.001Z</time></trkpt><trkpt lat="42.94125899613069" lon="12.572680834352658"><ele>220.5</ele><time>2026-05-01T10:51:16.001Z</time></trkpt><trkpt lat="42.94110021121306" lon="12.572713694522498"><ele>221.0</ele><time>2026-05-01T10:51:17.001Z</time></trkpt><trkpt lat="42.94095319281819" lon="12.572737148307136"><ele>221.5</ele><time>2026-05-01T10:51:18.001Z</time></trkpt><trkpt lat="42.940821274322694" lon="12.572740550074016"><ele>222.0</ele><time>2026-05-01T10:51:19.001Z</time></trkpt><trkpt lat="42.94069395032417" lon="12.572719116580743"><ele>222.33333333333331</ele><time>2026-05-01T10:51:20.001Z</time></trkpt><trkpt lat="42.94055270680499" lon="12.572698288128251"><ele>222.66666666666666</ele><time>2026-05-01T10:51:21.001Z</time></trkpt><trkpt lat="42.940411299960175" lon="12.572646600038635"><ele>223.0</ele><time>2026-05-01T10:51:22.001Z</time></trkpt><trkpt lat="42.940282680963854" lon="12.572502248734763"><ele>223.0</ele><time>2026-05-01T10:51:23.001Z</time></trkpt><trkpt lat="42.94015913856616" lon="12.57241502744461"><ele>223.0</ele><time>2026-05-01T10:51:24.001Z</time></trkpt><trkpt lat="42.94004307286298" lon="12.572332144623841"><ele>223.0</ele><time>2026-05-01T10:51:25.001Z</time></trkpt><trkpt lat="42.93993739281469" lon="12.572252370383081"><ele>223.0</ele><time>2026-05-01T10:51:26.001Z</time></trkpt><trkpt lat="42.93983426557464" lon="12.572185196546288"><ele>223.25</ele><time>2026-05-01T10:51:27.001Z</time></trkpt><trkpt lat="42.939733057440016" lon="12.572161226097712"><ele>223.5</ele><time>2026-05-01T10:51:28.001Z</time></trkpt><trkpt lat="42.93961246754996" lon="12.572166707666472"><ele>223.75</ele><time>2026-05-01T10:51:29.001Z</time></trkpt><trkpt lat="42.939466889166916" lon="12.572224935409567"><ele>224.0</ele><time>2026-05-01T10:51:30.001Z</time></trkpt><trkpt lat="42.939312411038" lon="12.572313726459335"><ele>224.33333333333334</ele><time>2026-05-01T10:51:31Z</time></trkpt><trkpt lat="42.939153983901804" lon="12.572389641460674"><ele>224.66666666666669</ele><time>2026-05-01T10:51:32Z</time></trkpt><trkpt lat="42.93898701469457" lon="12.572476087897167"><ele>225.0</ele><time>2026-05-01T10:51:33Z</time></trkpt><trkpt lat="42.93882484365197" lon="12.572542422529223"><ele>225.0</ele><time>2026-05-01T10:51:34Z</time></trkpt><trkpt lat="42.93866242558507" lon="12.572604210451388"><ele>225.0</ele><time>2026-05-01T10:51:35Z</time></trkpt><trkpt lat="42.93851311593561" lon="12.5726632890468"><ele>225.0</ele><time>2026-05-01T10:51:36Z</time></trkpt><trkpt lat="42.93837634144538" lon="12.572716485215132"><ele>225.75</ele><time>2026-05-01T10:51:37Z</time></trkpt><trkpt lat="42.93826307160961" lon="12.572755571560936"><ele>226.5</ele><time>2026-05-01T10:51:38Z</time></trkpt><trkpt lat="42.93816434684614" lon="12.57276742275762"><ele>227.25</ele><time>2026-05-01T10:51:39Z</time></trkpt><trkpt lat="42.93795519294426" lon="12.572747600919024"><ele>228.0</ele><time>2026-05-01T10:51:41Z</time></trkpt><trkpt lat="42.937847156793296" lon="12.572655560347787"><ele>228.0</ele><time>2026-05-01T10:51:42Z</time></trkpt><trkpt lat="42.93771591599748" lon="12.572597684626691"><ele>228.0</ele><time>2026-05-01T10:51:43Z</time></trkpt><trkpt lat="42.93757319004581" lon="12.5725667061912"><ele>228.0</ele><time>2026-05-01T10:51:44Z</time></trkpt><trkpt lat="42.93743528138854" lon="12.572512734299215"><ele>228.0</ele><time>2026-05-01T10:51:45Z</time></trkpt><trkpt lat="42.93729256986484" lon="12.572516263654615"><ele>228.33333333333331</ele><time>2026-05-01T10:51:46Z</time></trkpt><trkpt lat="42.93714467026797" lon="12.572493074861216"><ele>228.66666666666666</ele><time>2026-05-01T10:51:47Z</time></trkpt><trkpt lat="42.93699498882943" lon="12.572487323903328"><ele>229.0</ele><time>2026-05-01T10:51:48Z</time></trkpt><trkpt lat="42.93682867791293" lon="12.572480769431204"><ele>229.33333333333331</ele><time>2026-05-01T10:51:49Z</time></trkpt><trkpt lat="42.93666116551553" lon="12.572475175935345"><ele>229.66666666666669</ele><time>2026-05-01T10:51:50Z</time></trkpt><trkpt lat="42.93649408952233" lon="12.572472792156129"><ele>230.0</ele><time>2026-05-01T10:51:51Z</time></trkpt><trkpt lat="42.936328304903945" lon="12.572470829047742"><ele>230.0</ele><time>2026-05-01T10:51:52Z</time></trkpt><trkpt lat="42.93616734773169" lon="12.572472946171601"><ele>230.0</ele><time>2026-05-01T10:51:53Z</time></trkpt><trkpt lat="42.936015338331416" lon="12.57247057316291"><ele>230.0</ele><time>2026-05-01T10:51:54Z</time></trkpt><trkpt lat="42.93588723809188" lon="12.572462436185798"><ele>230.0</ele><time>2026-05-01T10:51:55Z</time></trkpt><trkpt lat="42.93575752529719" lon="12.572473117027567"><ele>229.5</ele><time>2026-05-01T10:51:56Z</time></trkpt><trkpt lat="42.93563643143731" lon="12.572550933156574"><ele>229.0</ele><time>2026-05-01T10:51:57Z</time></trkpt><trkpt lat="42.935502658357656" lon="12.572633012603355"><ele>228.5</ele><time>2026-05-01T10:51:58Z</time></trkpt><trkpt lat="42.935362681909396" lon="12.572718013296843"><ele>228.0</ele><time>2026-05-01T10:51:59Z</time></trkpt><trkpt lat="42.935201325132944" lon="12.572813882709466"><ele>226.66666666666669</ele><time>2026-05-01T10:52:00Z</time></trkpt><trkpt lat="42.93506360836026" lon="12.572902638787882"><ele>225.33333333333334</ele><time>2026-05-01T10:52:01Z</time></trkpt><trkpt lat="42.93491462979697" lon="12.572999311639299"><ele>224.0</ele><time>2026-05-01T10:52:02Z</time></trkpt><trkpt lat="42.93475792755747" lon="12.573100996417752"><ele>224.0</ele><time>2026-05-01T10:52:03Z</time></trkpt><trkpt lat="42.9346002577085" lon="12.573203060556057"><ele>224.0</ele><time>2026-05-01T10:52:04Z</time></trkpt><trkpt lat="42.934458798499904" lon="12.573292663001832"><ele>224.0</ele><time>2026-05-01T10:52:05Z</time></trkpt><trkpt lat="42.934334533121564" lon="12.573369382008527"><ele>224.5</ele><time>2026-05-01T10:52:06Z</time></trkpt><trkpt lat="42.93422039792856" lon="12.573417279360651"><ele>225.0</ele><time>2026-05-01T10:52:07Z</time></trkpt><trkpt lat="42.934111419268035" lon="12.57344353949356"><ele>225.5</ele><time>2026-05-01T10:52:08Z</time></trkpt><trkpt lat="42.9339971270244" lon="12.573446936171079"><ele>226.0</ele><time>2026-05-01T10:52:09Z</time></trkpt><trkpt lat="42.93387620074763" lon="12.573435095423488"><ele>226.0</ele><time>2026-05-01T10:52:10Z</time></trkpt><trkpt lat="42.933752562587294" lon="12.573400451192406"><ele>226.0</ele><time>2026-05-01T10:52:11Z</time></trkpt><trkpt lat="42.933619970734966" lon="12.57335923081909"><ele>226.0</ele><time>2026-05-01T10:52:12Z</time></trkpt><trkpt lat="42.93348695613148" lon="12.57331774548179"><ele>226.0</ele><time>2026-05-01T10:52:13Z</time></trkpt><trkpt lat="42.933362547589915" lon="12.57329277512879"><ele>226.5</ele><time>2026-05-01T10:52:14Z</time></trkpt><trkpt lat="42.93322204144551" lon="12.573311181260033"><ele>227.0</ele><time>2026-05-01T10:52:15Z</time></trkpt><trkpt lat="42.933077640295004" lon="12.57336662059521"><ele>227.5</ele><time>2026-05-01T10:52:16Z</time></trkpt><trkpt lat="42.932940779395096" lon="12.5734316772032"><ele>228.0</ele><time>2026-05-01T10:52:17Z</time></trkpt><trkpt lat="42.932789070398115" lon="12.573505051951262"><ele>228.0</ele><time>2026-05-01T10:52:18Z</time></trkpt><trkpt lat="42.932640230838416" lon="12.573572370999445"><ele>228.0</ele><time>2026-05-01T10:52:19Z</time></trkpt><trkpt lat="42.93250717498793" lon="12.573626043103802"><ele>228.0</ele><time>2026-05-01T10:52:20Z</time></trkpt><trkpt lat="42.932361244542456" lon="12.573674976360023"><ele>228.0</ele><time>2026-05-01T10:52:21Z</time></trkpt><trkpt lat="42.932213739610646" lon="12.573719104394703"><ele>227.66666666666669</ele><time>2026-05-01T10:52:22Z</time></trkpt><trkpt lat="42.93208150552722" lon="12.573758663944565"><ele>227.33333333333334</ele><time>2026-05-01T10:52:23Z</time></trkpt><trkpt lat="42.93196192397416" lon="12.5737944383264"><ele>227.0</ele><time>2026-05-01T10:52:24Z</time></trkpt><trkpt lat="42.93186837701584" lon="12.574032376689148"><ele>227.0</ele><time>2026-05-01T10:52:25Z</time></trkpt><trkpt lat="42.93175402994078" lon="12.57419388803516"><ele>227.0</ele><time>2026-05-01T10:52:26Z</time></trkpt><trkpt lat="42.93163551255897" lon="12.57437180690175"><ele>227.0</ele><time>2026-05-01T10:52:27Z</time></trkpt><trkpt lat="42.93153230562683" lon="12.574540095242105"><ele>226.5</ele><time>2026-05-01T10:52:28Z</time></trkpt><trkpt lat="42.93143763966936" lon="12.57469261878063"><ele>226.0</ele><time>2026-05-01T10:52:29Z</time></trkpt><trkpt lat="42.931327030056416" lon="12.574811665206152"><ele>225.5</ele><time>2026-05-01T10:52:30Z</time></trkpt><trkpt lat="42.93118313140451" lon="12.574905804469836"><ele>225.0</ele><time>2026-05-01T10:52:31Z</time></trkpt><trkpt lat="42.93102216515794" lon="12.574984685508692"><ele>228.66666666666669</ele><time>2026-05-01T10:52:32Z</time></trkpt><trkpt lat="42.930853651063735" lon="12.575071821388754"><ele>232.33333333333334</ele><time>2026-05-01T10:52:33Z</time></trkpt><trkpt lat="42.9306949021752" lon="12.575156749115788"><ele>236.0</ele><time>2026-05-01T10:52:34Z</time></trkpt><trkpt lat="42.930536752440915" lon="12.575225445940289"><ele>236.0</ele><time>2026-05-01T10:52:35Z</time></trkpt><trkpt lat="42.93037762557396" lon="12.575292975447212"><ele>236.0</ele><time>2026-05-01T10:52:36Z</time></trkpt><trkpt lat="42.9302135844919" lon="12.575362503809838"><ele>236.0</ele><time>2026-05-01T10:52:37Z</time></trkpt><trkpt lat="42.93004644521444" lon="12.575430292998606"><ele>234.0</ele><time>2026-05-01T10:52:38Z</time></trkpt><trkpt lat="42.929871685963334" lon="12.575493318541543"><ele>232.0</ele><time>2026-05-01T10:52:39Z</time></trkpt><trkpt lat="42.92969669693213" lon="12.575552462851084"><ele>230.0</ele><time>2026-05-01T10:52:40Z</time></trkpt><trkpt lat="42.929513811587974" lon="12.575617565769189"><ele>230.0</ele><time>2026-05-01T10:52:41Z</time></trkpt><trkpt lat="42.92932805309735" lon="12.575705254605543"><ele>230.0</ele><time>2026-05-01T10:52:42Z</time></trkpt><trkpt lat="42.92916584269568" lon="12.575788861304211"><ele>230.0</ele><time>2026-05-01T10:52:43Z</time></trkpt><trkpt lat="42.92901647617737" lon="12.575866767890611"><ele>231.66666666666669</ele><time>2026-05-01T10:52:44Z</time></trkpt><trkpt lat="42.92886051947987" lon="12.575934027020162"><ele>233.33333333333331</ele><time>2026-05-01T10:52:45Z</time></trkpt><trkpt lat="42.92869041645979" lon="12.575981553386896"><ele>235.0</ele><time>2026-05-01T10:52:46Z</time></trkpt><trkpt lat="42.928523622774684" lon="12.576012447697844"><ele>233.33333333333331</ele><time>2026-05-01T10:52:47Z</time></trkpt><trkpt lat="42.92836084494042" lon="12.576052515652464"><ele>231.66666666666669</ele><time>2026-05-01T10:52:48Z</time></trkpt><trkpt lat="42.928209153988625" lon="12.57613760812509"><ele>230.0</ele><time>2026-05-01T10:52:49Z</time></trkpt><trkpt lat="42.928062042627374" lon="12.576246849221638"><ele>230.0</ele><time>2026-05-01T10:52:50Z</time></trkpt><trkpt lat="42.927928557307226" lon="12.576322069035044"><ele>230.0</ele><time>2026-05-01T10:52:51Z</time></trkpt><trkpt lat="42.92779271682394" lon="12.576354807183177"><ele>230.0</ele><time>2026-05-01T10:52:52Z</time></trkpt><trkpt lat="42.9276459234846" lon="12.576348558265739"><ele>230.0</ele><time>2026-05-01T10:52:53Z</time></trkpt><trkpt lat="42.92748691589372" lon="12.576328775391998"><ele>230.5</ele><time>2026-05-01T10:52:54Z</time></trkpt><trkpt lat="42.927348139059106" lon="12.576305424069972"><ele>231.0</ele><time>2026-05-01T10:52:55Z</time></trkpt><trkpt lat="42.92723474957595" lon="12.576266268974962"><ele>231.5</ele><time>2026-05-01T10:52:56Z</time></trkpt><trkpt lat="42.92712949258285" lon="12.576188277633268"><ele>232.0</ele><time>2026-05-01T10:52:57Z</time></trkpt><trkpt lat="42.92700639021318" lon="12.576085509791048"><ele>236.25</ele><time>2026-05-01T10:52:58Z</time></trkpt><trkpt lat="42.926887230162464" lon="12.576008313671721"><ele>240.5</ele><time>2026-05-01T10:52:59Z</time></trkpt><trkpt lat="42.92676229969834" lon="12.575971208653215"><ele>244.75</ele><time>2026-05-01T10:53:00Z</time></trkpt><trkpt lat="42.92662432778078" lon="12.57595243829938"><ele>249.0</ele><time>2026-05-01T10:53:01Z</time></trkpt><trkpt lat="42.926466389545574" lon="12.57595910439831"><ele>249.0</ele><time>2026-05-01T10:53:02Z</time></trkpt><trkpt lat="42.92631703147361" lon="12.575960319436366"><ele>249.0</ele><time>2026-05-01T10:53:03Z</time></trkpt><trkpt lat="42.9261788839933" lon="12.57595669232293"><ele>249.0</ele><time>2026-05-01T10:53:04Z</time></trkpt><trkpt lat="42.926048146841154" lon="12.575928231525522"><ele>249.0</ele><time>2026-05-01T10:53:05Z</time></trkpt><trkpt lat="42.925908522505225" lon="12.57586804655087"><ele>247.0</ele><time>2026-05-01T10:53:06Z</time></trkpt><trkpt lat="42.92578672992093" lon="12.575786292858217"><ele>245.0</ele><time>2026-05-01T10:53:07Z</time></trkpt><trkpt lat="42.92568084421911" lon="12.575689718337763"><ele>243.0</ele><time>2026-05-01T10:53:08Z</time></trkpt><trkpt lat="42.92555010407335" lon="12.575633253534123"><ele>241.0</ele><time>2026-05-01T10:53:09Z</time></trkpt><trkpt lat="42.92544916912803" lon="12.575578178543102"><ele>241.0</ele><time>2026-05-01T10:53:10Z</time></trkpt><trkpt lat="42.92536316534541" lon="12.575492375658163"><ele>241.0</ele><time>2026-05-01T10:53:11Z</time></trkpt><trkpt lat="42.92525639092117" lon="12.57537924970181"><ele>241.0</ele><time>2026-05-01T10:53:12Z</time></trkpt><trkpt lat="42.92513783415477" lon="12.575273207453106"><ele>241.0</ele><time>2026-05-01T10:53:13Z</time></trkpt><trkpt lat="42.92499727153411" lon="12.575200019122626"><ele>242.5</ele><time>2026-05-01T10:53:14Z</time></trkpt><trkpt lat="42.92484146653804" lon="12.575167756590995"><ele>244.0</ele><time>2026-05-01T10:53:15Z</time></trkpt><trkpt lat="42.92470927132935" lon="12.575116110978273"><ele>245.5</ele><time>2026-05-01T10:53:16.001Z</time></trkpt><trkpt lat="42.924604320256215" lon="12.575060061065154"><ele>247.0</ele><time>2026-05-01T10:53:17.001Z</time></trkpt><trkpt lat="42.924515368374855" lon="12.574947177010223"><ele>247.0</ele><time>2026-05-01T10:53:18.001Z</time></trkpt><trkpt lat="42.9244380998406" lon="12.574784317828568"><ele>247.0</ele><time>2026-05-01T10:53:19.001Z</time></trkpt><trkpt lat="42.92438240698033" lon="12.574631476770351"><ele>247.0</ele><time>2026-05-01T10:53:20.001Z</time></trkpt><trkpt lat="42.92433280361974" lon="12.574520403337836"><ele>247.0</ele><time>2026-05-01T10:53:22.001Z</time></trkpt><trkpt lat="42.924301968893076" lon="12.574441652887023"><ele>247.0</ele><time>2026-05-01T10:53:24.001Z</time></trkpt><trkpt lat="42.92422470809907" lon="12.574295129828153"><ele>247.0</ele><time>2026-05-01T10:53:26.001Z</time></trkpt><trkpt lat="42.9241832123668" lon="12.574193771572162"><ele>247.0</ele><time>2026-05-01T10:53:27.001Z</time></trkpt><trkpt lat="42.92413174323066" lon="12.5740683918217"><ele>247.0</ele><time>2026-05-01T10:53:28.001Z</time></trkpt><trkpt lat="42.924095345288514" lon="12.57393305431427"><ele>247.0</ele><time>2026-05-01T10:53:29.001Z</time></trkpt><trkpt lat="42.92402801428542" lon="12.57384419446704"><ele>247.0</ele><time>2026-05-01T10:53:30.001Z</time></trkpt><trkpt lat="42.92391175977194" lon="12.57381169439833"><ele>247.0</ele><time>2026-05-01T10:53:31.001Z</time></trkpt><trkpt lat="42.92377600936171" lon="12.573810258028168"><ele>247.0</ele><time>2026-05-01T10:53:32.001Z</time></trkpt><trkpt lat="42.92363563595785" lon="12.573807764418381"><ele>247.0</ele><time>2026-05-01T10:53:33.001Z</time></trkpt><trkpt lat="42.92351067637057" lon="12.573795400762792"><ele>247.0</ele><time>2026-05-01T10:53:34.001Z</time></trkpt><trkpt lat="42.923391532059604" lon="12.573788645500878"><ele>246.0</ele><time>2026-05-01T10:53:35.001Z</time></trkpt><trkpt lat="42.92328536587736" lon="12.573777853085259"><ele>245.0</ele><time>2026-05-01T10:53:36.001Z</time></trkpt><trkpt lat="42.923203262987975" lon="12.573782059213334"><ele>244.0</ele><time>2026-05-01T10:53:37.001Z</time></trkpt><trkpt lat="42.92313303402047" lon="12.57379119961966"><ele>243.0</ele><time>2026-05-01T10:53:38.001Z</time></trkpt><trkpt lat="42.92304194005256" lon="12.573788361671355"><ele>242.0</ele><time>2026-05-01T10:53:40.001Z</time></trkpt><trkpt lat="42.9229327267631" lon="12.573777427720433"><ele>242.0</ele><time>2026-05-01T10:53:42.001Z</time></trkpt><trkpt lat="42.92285757710616" lon="12.573756656412668"><ele>242.0</ele><time>2026-05-01T10:53:43.001Z</time></trkpt><trkpt lat="42.922776526411326" lon="12.57370749888145"><ele>242.0</ele><time>2026-05-01T10:53:44.001Z</time></trkpt><trkpt lat="42.922684810946734" lon="12.573632568707012"><ele>242.0</ele><time>2026-05-01T10:53:45.001Z</time></trkpt><trkpt lat="42.922603225250654" lon="12.573576762795785"><ele>242.0</ele><time>2026-05-01T10:53:46.001Z</time></trkpt><trkpt lat="42.92250453356814" lon="12.573549591430014"><ele>245.39999999999998</ele><time>2026-05-01T10:53:47.001Z</time></trkpt><trkpt lat="42.922376947918416" lon="12.573574576023496"><ele>248.79999999999998</ele><time>2026-05-01T10:53:48.001Z</time></trkpt><trkpt lat="42.922248600608704" lon="12.573641836496666"><ele>252.2</ele><time>2026-05-01T10:53:49.001Z</time></trkpt><trkpt lat="42.92216865118174" lon="12.57367664359251"><ele>255.6</ele><time>2026-05-01T10:53:50.001Z</time></trkpt><trkpt lat="42.92212514425238" lon="12.573594198547394"><ele>259.0</ele><time>2026-05-01T10:53:52.001Z</time></trkpt><trkpt lat="42.92217608056817" lon="12.57346205806788"><ele>259.0</ele><time>2026-05-01T10:53:54.001Z</time></trkpt><trkpt lat="42.922224497023485" lon="12.573391081035439"><ele>259.0</ele><time>2026-05-01T10:53:55.001Z</time></trkpt><trkpt lat="42.92228280569275" lon="12.573243465311583"><ele>259.0</ele><time>2026-05-01T10:53:57.001Z</time></trkpt><trkpt lat="42.922286426115086" lon="12.573138769319346"><ele>259.0</ele><time>2026-05-01T10:53:58.001Z</time></trkpt><trkpt lat="42.922250431275685" lon="12.57306670649721"><ele>259.0</ele><time>2026-05-01T10:53:59.001Z</time></trkpt><trkpt lat="42.92218468250002" lon="12.573040125406857"><ele>259.0</ele><time>2026-05-01T10:54:00.001Z</time></trkpt><trkpt lat="42.92210653103125" lon="12.573066828528615"><ele>259.0</ele><time>2026-05-01T10:54:01.001Z</time></trkpt><trkpt lat="42.92202614706468" lon="12.573110652175936"><ele>259.0</ele><time>2026-05-01T10:54:02.001Z</time></trkpt><trkpt lat="42.92193904408088" lon="12.573126168085258"><ele>259.0</ele><time>2026-05-01T10:54:03.001Z</time></trkpt><trkpt lat="42.921838906033585" lon="12.573107554790266"><ele>259.0</ele><time>2026-05-01T10:54:04.001Z</time></trkpt><trkpt lat="42.92174474892452" lon="12.573063875724117"><ele>259.0</ele><time>2026-05-01T10:54:05.001Z</time></trkpt><trkpt lat="42.921642429938316" lon="12.57301350241466"><ele>260.25</ele><time>2026-05-01T10:54:06.001Z</time></trkpt><trkpt lat="42.92151330283079" lon="12.57297220707519"><ele>261.5</ele><time>2026-05-01T10:54:07.001Z</time></trkpt><trkpt lat="42.92139092437793" lon="12.572924967028353"><ele>262.75</ele><time>2026-05-01T10:54:08.001Z</time></trkpt><trkpt lat="42.92127815328097" lon="12.57284860428597"><ele>264.0</ele><time>2026-05-01T10:54:09.001Z</time></trkpt><trkpt lat="42.92117503361157" lon="12.572750558290693"><ele>268.25</ele><time>2026-05-01T10:54:10.001Z</time></trkpt><trkpt lat="42.92107635364985" lon="12.572655019943575"><ele>272.5</ele><time>2026-05-01T10:54:11.001Z</time></trkpt><trkpt lat="42.92096878018321" lon="12.572579205379638"><ele>276.75</ele><time>2026-05-01T10:54:12.001Z</time></trkpt><trkpt lat="42.92084796344966" lon="12.572541254386604"><ele>281.0</ele><time>2026-05-01T10:54:13.001Z</time></trkpt><trkpt lat="42.920714141726364" lon="12.572552311344323"><ele>283.25</ele><time>2026-05-01T10:54:14.001Z</time></trkpt><trkpt lat="42.920599987169204" lon="12.57257213193039"><ele>285.5</ele><time>2026-05-01T10:54:15.001Z</time></trkpt><trkpt lat="42.920496365285075" lon="12.572555641742532"><ele>287.75</ele><time>2026-05-01T10:54:16.001Z</time></trkpt><trkpt lat="42.92039576005079" lon="12.572476123792198"><ele>290.0</ele><time>2026-05-01T10:54:17.001Z</time></trkpt><trkpt lat="42.920285032380896" lon="12.572373116833962"><ele>290.0</ele><time>2026-05-01T10:54:18.001Z</time></trkpt><trkpt lat="42.92016342798181" lon="12.57227704777549"><ele>290.0</ele><time>2026-05-01T10:54:19.001Z</time></trkpt><trkpt lat="42.920033813051205" lon="12.572206550293362"><ele>290.0</ele><time>2026-05-01T10:54:20.001Z</time></trkpt><trkpt lat="42.91989209791894" lon="12.572159433031917"><ele>290.0</ele><time>2026-05-01T10:54:21.001Z</time></trkpt><trkpt lat="42.919770427536044" lon="12.572144040618975"><ele>291.5</ele><time>2026-05-01T10:54:22.001Z</time></trkpt><trkpt lat="42.919647431867176" lon="12.572145425451774"><ele>293.0</ele><time>2026-05-01T10:54:23.001Z</time></trkpt><trkpt lat="42.919503835426966" lon="12.572180501621231"><ele>294.5</ele><time>2026-05-01T10:54:24.001Z</time></trkpt><trkpt lat="42.9193459150682" lon="12.572248000921679"><ele>296.0</ele><time>2026-05-01T10:54:25.001Z</time></trkpt><trkpt lat="42.91919527012261" lon="12.572311590740965"><ele>299.0</ele><time>2026-05-01T10:54:26.001Z</time></trkpt><trkpt lat="42.919066213256386" lon="12.572363001206954"><ele>302.0</ele><time>2026-05-01T10:54:27.001Z</time></trkpt><trkpt lat="42.91896191362569" lon="12.572395304728396"><ele>305.0</ele><time>2026-05-01T10:54:28.001Z</time></trkpt><trkpt lat="42.9188589131874" lon="12.572377899883659"><ele>308.0</ele><time>2026-05-01T10:54:29.001Z</time></trkpt><trkpt lat="42.91874539666302" lon="12.572323784880073"><ele>308.0</ele><time>2026-05-01T10:54:30.001Z</time></trkpt><trkpt lat="42.918635344379624" lon="12.57222829660784"><ele>308.0</ele><time>2026-05-01T10:54:31.001Z</time></trkpt><trkpt lat="42.91852956568063" lon="12.572092929354652"><ele>308.0</ele><time>2026-05-01T10:54:32.001Z</time></trkpt><trkpt lat="42.91845682054259" lon="12.57196507060346"><ele>308.0</ele><time>2026-05-01T10:54:33.001Z</time></trkpt><trkpt lat="42.91842010547794" lon="12.571865373289443"><ele>311.33333333333337</ele><time>2026-05-01T10:54:34.001Z</time></trkpt><trkpt lat="42.91843062553358" lon="12.571777325697882"><ele>314.6666666666667</ele><time>2026-05-01T10:54:35.001Z</time></trkpt><trkpt lat="42.91847429849624" lon="12.57170693908658"><ele>318.0</ele><time>2026-05-01T10:54:36.001Z</time></trkpt><trkpt lat="42.918554987723915" lon="12.571656997455072"><ele>321.3333333333333</ele><time>2026-05-01T10:54:37.001Z</time></trkpt><trkpt lat="42.91866105107954" lon="12.571620150153551"><ele>324.66666666666663</ele><time>2026-05-01T10:54:38.001Z</time></trkpt><trkpt lat="42.91876247770931" lon="12.571585037923569"><ele>328.0</ele><time>2026-05-01T10:54:39.001Z</time></trkpt><trkpt lat="42.918835991638936" lon="12.571535968890304"><ele>328.0</ele><time>2026-05-01T10:54:40.001Z</time></trkpt><trkpt lat="42.918865331693155" lon="12.571439843745953"><ele>328.0</ele><time>2026-05-01T10:54:41.001Z</time></trkpt><trkpt lat="42.91885562931994" lon="12.571314186214048"><ele>328.0</ele><time>2026-05-01T10:54:42.001Z</time></trkpt><trkpt lat="42.91878678900005" lon="12.571185053717313"><ele>328.0</ele><time>2026-05-01T10:54:43.001Z</time></trkpt><trkpt lat="42.91869903017665" lon="12.571053201507125"><ele>328.0</ele><time>2026-05-01T10:54:44.001Z</time></trkpt><trkpt lat="42.91862195245568" lon="12.570911596857192"><ele>332.25</ele><time>2026-05-01T10:54:45.001Z</time></trkpt><trkpt lat="42.91854532176344" lon="12.570768867453872"><ele>336.5</ele><time>2026-05-01T10:54:46.001Z</time></trkpt><trkpt lat="42.918457295993036" lon="12.570611417004047"><ele>340.75</ele><time>2026-05-01T10:54:47.001Z</time></trkpt><trkpt lat="42.918362056051954" lon="12.57044408743315"><ele>345.0</ele><time>2026-05-01T10:54:48.001Z</time></trkpt><trkpt lat="42.91826947248373" lon="12.570274838396987"><ele>349.0</ele><time>2026-05-01T10:54:49.001Z</time></trkpt><trkpt lat="42.91817233394773" lon="12.570110930283834"><ele>353.0</ele><time>2026-05-01T10:54:50.001Z</time></trkpt><trkpt lat="42.91807614976052" lon="12.569948751633579"><ele>357.0</ele><time>2026-05-01T10:54:51.001Z</time></trkpt><trkpt lat="42.917986435081666" lon="12.569784746880003"><ele>357.0</ele><time>2026-05-01T10:54:52.001Z</time></trkpt><trkpt lat="42.91790042308326" lon="12.569615496036025"><ele>357.0</ele><time>2026-05-01T10:54:53.001Z</time></trkpt><trkpt lat="42.91781683447116" lon="12.569449378369345"><ele>357.0</ele><time>2026-05-01T10:54:54.001Z</time></trkpt><trkpt lat="42.91772347415097" lon="12.569296005961569"><ele>357.0</ele><time>2026-05-01T10:54:55.001Z</time></trkpt><trkpt lat="42.91760620829061" lon="12.569148264435903"><ele>361.6666666666667</ele><time>2026-05-01T10:54:56.001Z</time></trkpt><trkpt lat="42.91746840787788" lon="12.56901402748566"><ele>366.33333333333337</ele><time>2026-05-01T10:54:57.001Z</time></trkpt><trkpt lat="42.917323439121574" lon="12.56889292792963"><ele>371.0</ele><time>2026-05-01T10:54:58.001Z</time></trkpt><trkpt lat="42.91718859576962" lon="12.568765264673074"><ele>375.75</ele><time>2026-05-01T10:54:59.001Z</time></trkpt><trkpt lat="42.91706368933195" lon="12.568636003980506"><ele>380.5</ele><time>2026-05-01T10:55:00.001Z</time></trkpt><trkpt lat="42.91694981941602" lon="12.568514640523137"><ele>385.25</ele><time>2026-05-01T10:55:01.001Z</time></trkpt><trkpt lat="42.91685627886892" lon="12.568401050590564"><ele>390.0</ele><time>2026-05-01T10:55:02.001Z</time></trkpt><trkpt lat="42.91678645370496" lon="12.56827818518687"><ele>390.0</ele><time>2026-05-01T10:55:03.001Z</time></trkpt><trkpt lat="42.91674636160745" lon="12.568145388924853"><ele>390.0</ele><time>2026-05-01T10:55:04.001Z</time></trkpt><trkpt lat="42.91673588586781" lon="12.56802025833235"><ele>390.0</ele><time>2026-05-01T10:55:05.001Z</time></trkpt><trkpt lat="42.91675002108747" lon="12.567885721246418"><ele>390.0</ele><time>2026-05-01T10:55:06.001Z</time></trkpt><trkpt lat="42.916748156662784" lon="12.567791442464529"><ele>390.0</ele><time>2026-05-01T10:55:07.001Z</time></trkpt><trkpt lat="42.916687068416095" lon="12.567695456364033"><ele>392.0</ele><time>2026-05-01T10:55:08.001Z</time></trkpt><trkpt lat="42.9165889024788" lon="12.567583108505586"><ele>394.0</ele><time>2026-05-01T10:55:09.001Z</time></trkpt><trkpt lat="42.91649862037668" lon="12.567453817098352"><ele>396.0</ele><time>2026-05-01T10:55:10.001Z</time></trkpt><trkpt lat="42.91643692381959" lon="12.567311590246124"><ele>398.0</ele><time>2026-05-01T10:55:11.001Z</time></trkpt><trkpt lat="42.91638237280746" lon="12.567182474716587"><ele>398.0</ele><time>2026-05-01T10:55:12.001Z</time></trkpt><trkpt lat="42.91634456940867" lon="12.567060111540926"><ele>398.0</ele><time>2026-05-01T10:55:13.001Z</time></trkpt><trkpt lat="42.91624220289261" lon="12.567048542761997"><ele>398.0</ele><time>2026-05-01T10:55:14.001Z</time></trkpt><trkpt lat="42.916138236798716" lon="12.566997713816075"><ele>398.0</ele><time>2026-05-01T10:55:15.001Z</time></trkpt><trkpt lat="42.916018275511924" lon="12.566966525372509"><ele>398.0</ele><time>2026-05-01T10:55:16.001Z</time></trkpt><trkpt lat="42.91590878141271" lon="12.566943048920933"><ele>401.0</ele><time>2026-05-01T10:55:17.001Z</time></trkpt><trkpt lat="42.91579050785672" lon="12.566918920913759"><ele>404.0</ele><time>2026-05-01T10:55:18.001Z</time></trkpt><trkpt lat="42.915673434701795" lon="12.566877494192129"><ele>407.0</ele><time>2026-05-01T10:55:19.001Z</time></trkpt><trkpt lat="42.91557463898145" lon="12.566791129857165"><ele>410.0</ele><time>2026-05-01T10:55:20.001Z</time></trkpt><trkpt lat="42.915461171559976" lon="12.566680679418177"><ele>410.0</ele><time>2026-05-01T10:55:21.001Z</time></trkpt><trkpt lat="42.91534221516874" lon="12.56661080521844"><ele>410.0</ele><time>2026-05-01T10:55:22.001Z</time></trkpt><trkpt lat="42.91521038679787" lon="12.566585139753105"><ele>410.0</ele><time>2026-05-01T10:55:23.001Z</time></trkpt><trkpt lat="42.91506039807359" lon="12.56660930238686"><ele>410.0</ele><time>2026-05-01T10:55:24.001Z</time></trkpt><trkpt lat="42.914935761427515" lon="12.566596881195222"><ele>411.25</ele><time>2026-05-01T10:55:25.001Z</time></trkpt><trkpt lat="42.914829055986374" lon="12.566564793096225"><ele>412.5</ele><time>2026-05-01T10:55:26.001Z</time></trkpt><trkpt lat="42.91470229439779" lon="12.566499425752365"><ele>413.75</ele><time>2026-05-01T10:55:27.001Z</time></trkpt><trkpt lat="42.914557952459866" lon="12.566433971676044"><ele>415.0</ele><time>2026-05-01T10:55:28.001Z</time></trkpt><trkpt lat="42.91440078786017" lon="12.566380181846045"><ele>416.0</ele><time>2026-05-01T10:55:29.001Z</time></trkpt><trkpt lat="42.91423410540891" lon="12.566327752624773"><ele>417.0</ele><time>2026-05-01T10:55:30.001Z</time></trkpt><trkpt lat="42.914065995604176" lon="12.566288702114582"><ele>418.0</ele><time>2026-05-01T10:55:31.001Z</time></trkpt><trkpt lat="42.913909477790305" lon="12.566254709073265"><ele>418.0</ele><time>2026-05-01T10:55:32.001Z</time></trkpt><trkpt lat="42.91377514338811" lon="12.566221497918006"><ele>418.0</ele><time>2026-05-01T10:55:33.001Z</time></trkpt><trkpt lat="42.91366098459261" lon="12.566176687404244"><ele>418.0</ele><time>2026-05-01T10:55:34.001Z</time></trkpt><trkpt lat="42.9135612134714" lon="12.566135132610247"><ele>418.0</ele><time>2026-05-01T10:55:35.001Z</time></trkpt><trkpt lat="42.91349665306699" lon="12.566097681564328"><ele>418.0</ele><time>2026-05-01T10:55:36.001Z</time></trkpt><trkpt lat="42.91342803312747" lon="12.566070753992351"><ele>419.00000000000006</ele><time>2026-05-01T10:55:39.001Z</time></trkpt><trkpt lat="42.91337016406133" lon="12.566009521511106"><ele>420.0</ele><time>2026-05-01T10:55:41.001Z</time></trkpt><trkpt lat="42.913299260611275" lon="12.56608054425736"><ele>421.0</ele><time>2026-05-01T10:55:42.001Z</time></trkpt><trkpt lat="42.91324269921054" lon="12.566135623428792"><ele>422.0</ele><time>2026-05-01T10:55:43.001Z</time></trkpt><trkpt lat="42.91316447146021" lon="12.566221521487474"><ele>423.00000000000006</ele><time>2026-05-01T10:55:45.001Z</time></trkpt><trkpt lat="42.913106851045484" lon="12.56627282835968"><ele>424.0</ele><time>2026-05-01T10:55:46.001Z</time></trkpt><trkpt lat="42.91303876661438" lon="12.566321761305176"><ele>424.0</ele><time>2026-05-01T10:55:47.001Z</time></trkpt><trkpt lat="42.91296087177391" lon="12.56637951807279"><ele>424.0</ele><time>2026-05-01T10:55:48.001Z</time></trkpt><trkpt lat="42.912854166516674" lon="12.566431875822865"><ele>424.0</ele><time>2026-05-01T10:55:49.001Z</time></trkpt><trkpt lat="42.91274334032661" lon="12.566511321432824"><ele>424.0</ele><time>2026-05-01T10:55:50.001Z</time></trkpt><trkpt lat="42.91264746054722" lon="12.566604635515013"><ele>424.0</ele><time>2026-05-01T10:55:51.001Z</time></trkpt><trkpt lat="42.912532856325086" lon="12.56666435136818"><ele>425.0</ele><time>2026-05-01T10:55:52.001Z</time></trkpt><trkpt lat="42.91241355253609" lon="12.566751985039566"><ele>426.0</ele><time>2026-05-01T10:55:53.001Z</time></trkpt><trkpt lat="42.91229617762322" lon="12.566840236268455"><ele>427.0</ele><time>2026-05-01T10:55:54.001Z</time></trkpt><trkpt lat="42.9121914538189" lon="12.566944864090212"><ele>428.0</ele><time>2026-05-01T10:55:55.001Z</time></trkpt><trkpt lat="42.912067374409844" lon="12.567021017722926"><ele>427.0</ele><time>2026-05-01T10:55:56.001Z</time></trkpt><trkpt lat="42.91193956123894" lon="12.567095401068473"><ele>426.0</ele><time>2026-05-01T10:55:57.001Z</time></trkpt><trkpt lat="42.9118063777174" lon="12.567124680010464"><ele>425.0</ele><time>2026-05-01T10:55:58.001Z</time></trkpt><trkpt lat="42.911695336728506" lon="12.567185480032949"><ele>424.0</ele><time>2026-05-01T10:55:59.001Z</time></trkpt><trkpt lat="42.91158935939725" lon="12.567218253660094"><ele>422.5</ele><time>2026-05-01T10:56:00.001Z</time></trkpt><trkpt lat="42.911487543652214" lon="12.567272326459209"><ele>421.0</ele><time>2026-05-01T10:56:01.001Z</time></trkpt><trkpt lat="42.91138562089596" lon="12.567349868150371"><ele>419.5</ele><time>2026-05-01T10:56:02.001Z</time></trkpt><trkpt lat="42.91128398604571" lon="12.567449818724764"><ele>418.0</ele><time>2026-05-01T10:56:03.001Z</time></trkpt><trkpt lat="42.91118591325101" lon="12.567576237650425"><ele>418.0</ele><time>2026-05-01T10:56:04.001Z</time></trkpt><trkpt lat="42.911094859179514" lon="12.567718022778713"><ele>418.0</ele><time>2026-05-01T10:56:05.001Z</time></trkpt><trkpt lat="42.91100741980687" lon="12.567863905448606"><ele>418.0</ele><time>2026-05-01T10:56:06.001Z</time></trkpt><trkpt lat="42.91091066461441" lon="12.568013997131498"><ele>418.0</ele><time>2026-05-01T10:56:07.001Z</time></trkpt><trkpt lat="42.91080669861292" lon="12.56817365890347"><ele>416.0</ele><time>2026-05-01T10:56:08.001Z</time></trkpt><trkpt lat="42.910708077306076" lon="12.568327825351327"><ele>414.0</ele><time>2026-05-01T10:56:09.001Z</time></trkpt><trkpt lat="42.91061010466068" lon="12.568476456989663"><ele>412.0</ele><time>2026-05-01T10:56:10.001Z</time></trkpt><trkpt lat="42.910512374885975" lon="12.568622581300922"><ele>410.0</ele><time>2026-05-01T10:56:11.001Z</time></trkpt><trkpt lat="42.910421423403044" lon="12.568761725385801"><ele>409.5</ele><time>2026-05-01T10:56:12.001Z</time></trkpt><trkpt lat="42.91033032426951" lon="12.568889462362602"><ele>409.0</ele><time>2026-05-01T10:56:13.001Z</time></trkpt><trkpt lat="42.91023831069858" lon="12.569005562983072"><ele>408.5</ele><time>2026-05-01T10:56:14.001Z</time></trkpt><trkpt lat="42.91015225031523" lon="12.569134372848938"><ele>408.0</ele><time>2026-05-01T10:56:15.001Z</time></trkpt><trkpt lat="42.910048892249485" lon="12.56927132192485"><ele>408.0</ele><time>2026-05-01T10:56:16.001Z</time></trkpt><trkpt lat="42.9099249811946" lon="12.569390831185153"><ele>408.0</ele><time>2026-05-01T10:56:17.001Z</time></trkpt><trkpt lat="42.909783721452406" lon="12.56948612684758"><ele>408.0</ele><time>2026-05-01T10:56:18.001Z</time></trkpt><trkpt lat="42.90963126964419" lon="12.5695532154808"><ele>408.33333333333337</ele><time>2026-05-01T10:56:19.001Z</time></trkpt><trkpt lat="42.909471641172914" lon="12.569578879275408"><ele>408.6666666666667</ele><time>2026-05-01T10:56:20.001Z</time></trkpt><trkpt lat="42.90930973036842" lon="12.569582979624672"><ele>409.0</ele><time>2026-05-01T10:56:21.001Z</time></trkpt><trkpt lat="42.909144914925996" lon="12.56957569102332"><ele>407.33333333333337</ele><time>2026-05-01T10:56:22.001Z</time></trkpt><trkpt lat="42.90897658766928" lon="12.569586655589486"><ele>405.66666666666663</ele><time>2026-05-01T10:56:23.001Z</time></trkpt><trkpt lat="42.9088139064441" lon="12.569561556716577"><ele>404.0</ele><time>2026-05-01T10:56:24.001Z</time></trkpt><trkpt lat="42.90864179835245" lon="12.569540412952954"><ele>403.3333333333333</ele><time>2026-05-01T10:56:25.001Z</time></trkpt><trkpt lat="42.90846977596745" lon="12.569477859933711"><ele>402.66666666666663</ele><time>2026-05-01T10:56:26.001Z</time></trkpt><trkpt lat="42.90829164033519" lon="12.569420294519473"><ele>402.0</ele><time>2026-05-01T10:56:27.001Z</time></trkpt><trkpt lat="42.908113268761234" lon="12.569354729211858"><ele>400.66666666666663</ele><time>2026-05-01T10:56:28.001Z</time></trkpt><trkpt lat="42.90794689292489" lon="12.569289458735662"><ele>399.3333333333333</ele><time>2026-05-01T10:56:29.001Z</time></trkpt><trkpt lat="42.90778233638929" lon="12.569244107224632"><ele>398.0</ele><time>2026-05-01T10:56:30.001Z</time></trkpt><trkpt lat="42.90763853885182" lon="12.569163541646112"><ele>396.75</ele><time>2026-05-01T10:56:31.001Z</time></trkpt><trkpt lat="42.90749754279806" lon="12.569109049889356"><ele>395.5</ele><time>2026-05-01T10:56:32.001Z</time></trkpt><trkpt lat="42.907364439389525" lon="12.569057608302689"><ele>394.25</ele><time>2026-05-01T10:56:33.001Z</time></trkpt><trkpt lat="42.90723028057502" lon="12.569002820959536"><ele>393.0</ele><time>2026-05-01T10:56:34.001Z</time></trkpt><trkpt lat="42.90708818742974" lon="12.568967415927421"><ele>393.0</ele><time>2026-05-01T10:56:35.001Z</time></trkpt><trkpt lat="42.90695781574006" lon="12.568921359826703"><ele>393.0</ele><time>2026-05-01T10:56:36.001Z</time></trkpt><trkpt lat="42.90681863853436" lon="12.56889804363517"><ele>393.0</ele><time>2026-05-01T10:56:37.001Z</time></trkpt><trkpt lat="42.90667598344851" lon="12.568911659461095"><ele>393.0</ele><time>2026-05-01T10:56:38.001Z</time></trkpt><trkpt lat="42.906536842834946" lon="12.568946632116788"><ele>392.33333333333337</ele><time>2026-05-01T10:56:39.001Z</time></trkpt><trkpt lat="42.906386570559526" lon="12.568996682582098"><ele>391.6666666666667</ele><time>2026-05-01T10:56:40.001Z</time></trkpt><trkpt lat="42.90622922908063" lon="12.569050387461452"><ele>391.0</ele><time>2026-05-01T10:56:41.001Z</time></trkpt><trkpt lat="42.90606307823173" lon="12.569085954315039"><ele>389.6666666666667</ele><time>2026-05-01T10:56:42.001Z</time></trkpt><trkpt lat="42.90589573601263" lon="12.569140143335709"><ele>388.33333333333337</ele><time>2026-05-01T10:56:43.001Z</time></trkpt><trkpt lat="42.90572712608856" lon="12.569194742890206"><ele>387.0</ele><time>2026-05-01T10:56:44.001Z</time></trkpt><trkpt lat="42.90555666630264" lon="12.569271615311969"><ele>387.0</ele><time>2026-05-01T10:56:45.001Z</time></trkpt><trkpt lat="42.90537676572571" lon="12.569308208793949"><ele>387.0</ele><time>2026-05-01T10:56:46.001Z</time></trkpt><trkpt lat="42.905195972759515" lon="12.5693638721008"><ele>387.0</ele><time>2026-05-01T10:56:47.001Z</time></trkpt><trkpt lat="42.905005290879046" lon="12.569423735179411"><ele>385.3333333333333</ele><time>2026-05-01T10:56:48.001Z</time></trkpt><trkpt lat="42.90480954217851" lon="12.569486365667894"><ele>383.66666666666663</ele><time>2026-05-01T10:56:49Z</time></trkpt><trkpt lat="42.904627662244266" lon="12.569544558787927"><ele>382.0</ele><time>2026-05-01T10:56:50.001Z</time></trkpt><trkpt lat="42.90446198593995" lon="12.569620902698217"><ele>379.3333333333333</ele><time>2026-05-01T10:56:51Z</time></trkpt><trkpt lat="42.90430173901921" lon="12.569672805261044"><ele>376.6666666666667</ele><time>2026-05-01T10:56:52Z</time></trkpt><trkpt lat="42.90414545792893" lon="12.569724082598839"><ele>374.0</ele><time>2026-05-01T10:56:53Z</time></trkpt><trkpt lat="42.903974349743955" lon="12.569782154208514"><ele>372.6666666666667</ele><time>2026-05-01T10:56:54Z</time></trkpt><trkpt lat="42.903812119488194" lon="12.569912565548675"><ele>371.3333333333333</ele><time>2026-05-01T10:56:55Z</time></trkpt><trkpt lat="42.90363905770348" lon="12.570049297792036"><ele>370.0</ele><time>2026-05-01T10:56:56Z</time></trkpt><trkpt lat="42.903470556377705" lon="12.570209739003413"><ele>369.0</ele><time>2026-05-01T10:56:57Z</time></trkpt><trkpt lat="42.90328453941058" lon="12.570347665096534"><ele>368.0</ele><time>2026-05-01T10:56:58Z</time></trkpt><trkpt lat="42.90310974184559" lon="12.570497999838576"><ele>367.0</ele><time>2026-05-01T10:56:59Z</time></trkpt><trkpt lat="42.902938549249086" lon="12.570647955557476"><ele>366.0</ele><time>2026-05-01T10:57:00Z</time></trkpt><trkpt lat="42.902769613673144" lon="12.570796125918056"><ele>365.0</ele><time>2026-05-01T10:57:01Z</time></trkpt><trkpt lat="42.902609383973804" lon="12.570936660505005"><ele>364.0</ele><time>2026-05-01T10:57:02Z</time></trkpt><trkpt lat="42.90245358296818" lon="12.57107331077082"><ele>362.3333333333333</ele><time>2026-05-01T10:57:03Z</time></trkpt><trkpt lat="42.902305736683516" lon="12.571199946967246"><ele>360.6666666666667</ele><time>2026-05-01T10:57:04Z</time></trkpt><trkpt lat="42.90215773984896" lon="12.571329196945367"><ele>359.0</ele><time>2026-05-01T10:57:05Z</time></trkpt><trkpt lat="42.90202110483149" lon="12.571450945810552"><ele>359.0</ele><time>2026-05-01T10:57:06Z</time></trkpt><trkpt lat="42.90190259101665" lon="12.571591499303532"><ele>359.0</ele><time>2026-05-01T10:57:07Z</time></trkpt><trkpt lat="42.9017738522044" lon="12.571736184700221"><ele>359.0</ele><time>2026-05-01T10:57:08Z</time></trkpt><trkpt lat="42.9016572506391" lon="12.571909250648272"><ele>360.33333333333337</ele><time>2026-05-01T10:57:09Z</time></trkpt><trkpt lat="42.901549091901764" lon="12.57209829684788"><ele>361.6666666666667</ele><time>2026-05-01T10:57:10Z</time></trkpt><trkpt lat="42.90144276136969" lon="12.57227714931965"><ele>363.0</ele><time>2026-05-01T10:57:11Z</time></trkpt><trkpt lat="42.901338089702605" lon="12.5724498785484"><ele>363.0</ele><time>2026-05-01T10:57:12Z</time></trkpt><trkpt lat="42.901233851716974" lon="12.572622496803087"><ele>363.0</ele><time>2026-05-01T10:57:13Z</time></trkpt><trkpt lat="42.90112978725487" lon="12.572785665983785"><ele>363.0</ele><time>2026-05-01T10:57:14Z</time></trkpt><trkpt lat="42.901020205263855" lon="12.57294047325954"><ele>362.6666666666667</ele><time>2026-05-01T10:57:15Z</time></trkpt><trkpt lat="42.90093935665106" lon="12.57312387400158"><ele>362.33333333333337</ele><time>2026-05-01T10:57:16Z</time></trkpt><trkpt lat="42.90085416374165" lon="12.57333426436426"><ele>362.0</ele><time>2026-05-01T10:57:17Z</time></trkpt><trkpt lat="42.900777721857985" lon="12.57356291368958"><ele>360.6666666666667</ele><time>2026-05-01T10:57:18Z</time></trkpt><trkpt lat="42.90071314753429" lon="12.573810813026189"><ele>359.3333333333333</ele><time>2026-05-01T10:57:19Z</time></trkpt><trkpt lat="42.90065697892241" lon="12.574051752602696"><ele>358.0</ele><time>2026-05-01T10:57:20Z</time></trkpt><trkpt lat="42.90060293728687" lon="12.574300934411104"><ele>356.3333333333333</ele><time>2026-05-01T10:57:21Z</time></trkpt><trkpt lat="42.900554465241" lon="12.57452983053501"><ele>354.6666666666667</ele><time>2026-05-01T10:57:22Z</time></trkpt><trkpt lat="42.900514880413326" lon="12.57476878352295"><ele>353.0</ele><time>2026-05-01T10:57:23Z</time></trkpt><trkpt lat="42.90048954829295" lon="12.57500730173661"><ele>353.0</ele><time>2026-05-01T10:57:24Z</time></trkpt><trkpt lat="42.900474262315214" lon="12.575253301033388"><ele>353.0</ele><time>2026-05-01T10:57:25Z</time></trkpt><trkpt lat="42.90046763273054" lon="12.575505098149428"><ele>353.0</ele><time>2026-05-01T10:57:26Z</time></trkpt><trkpt lat="42.900461369035014" lon="12.575758607367957"><ele>352.6666666666667</ele><time>2026-05-01T10:57:27Z</time></trkpt><trkpt lat="42.90044997445794" lon="12.576004636537865"><ele>352.3333333333333</ele><time>2026-05-01T10:57:28.001Z</time></trkpt><trkpt lat="42.90043820829109" lon="12.576249125670449"><ele>352.0</ele><time>2026-05-01T10:57:29.001Z</time></trkpt><trkpt lat="42.900424532037334" lon="12.576456803632203"><ele>353.0</ele><time>2026-05-01T10:57:30.001Z</time></trkpt><trkpt lat="42.900377127278546" lon="12.576625542648745"><ele>354.0</ele><time>2026-05-01T10:57:31.001Z</time></trkpt><trkpt lat="42.90033009158126" lon="12.576799443775439"><ele>355.0</ele><time>2026-05-01T10:57:32.001Z</time></trkpt><trkpt lat="42.90019922054476" lon="12.576944010014353"><ele>356.0</ele><time>2026-05-01T10:57:33.001Z</time></trkpt><trkpt lat="42.90007959046678" lon="12.577110608237739"><ele>357.0</ele><time>2026-05-01T10:57:34.001Z</time></trkpt><trkpt lat="42.899956272762964" lon="12.577285351189943"><ele>358.0</ele><time>2026-05-01T10:57:35.001Z</time></trkpt><trkpt lat="42.89983686285249" lon="12.577476207677039"><ele>359.0</ele><time>2026-05-01T10:57:36.001Z</time></trkpt><trkpt lat="42.899710885127725" lon="12.577652581245696"><ele>359.0</ele><time>2026-05-01T10:57:37.001Z</time></trkpt><trkpt lat="42.89959235486524" lon="12.57782755713488"><ele>359.0</ele><time>2026-05-01T10:57:38.001Z</time></trkpt><trkpt lat="42.899474982382756" lon="12.577995567923105"><ele>359.0</ele><time>2026-05-01T10:57:39.001Z</time></trkpt><trkpt lat="42.89935218834701" lon="12.578154100508373"><ele>357.33333333333337</ele><time>2026-05-01T10:57:40.001Z</time></trkpt><trkpt lat="42.89920572862248" lon="12.57827735714023"><ele>355.6666666666667</ele><time>2026-05-01T10:57:41.001Z</time></trkpt><trkpt lat="42.89905621322793" lon="12.57839185794273"><ele>354.0</ele><time>2026-05-01T10:57:42.001Z</time></trkpt><trkpt lat="42.89889497881142" lon="12.578496145781353"><ele>354.0</ele><time>2026-05-01T10:57:43.001Z</time></trkpt><trkpt lat="42.89872499589256" lon="12.578598409084586"><ele>354.0</ele><time>2026-05-01T10:57:44.001Z</time></trkpt><trkpt lat="42.898561992200015" lon="12.578718011838227"><ele>354.0</ele><time>2026-05-01T10:57:45.001Z</time></trkpt><trkpt lat="42.8983925288123" lon="12.578815793984402"><ele>353.3333333333333</ele><time>2026-05-01T10:57:46.001Z</time></trkpt><trkpt lat="42.89822187085278" lon="12.578921276351197"><ele>352.66666666666663</ele><time>2026-05-01T10:57:47.001Z</time></trkpt><trkpt lat="42.89804906954581" lon="12.579021381800999"><ele>352.0</ele><time>2026-05-01T10:57:48.001Z</time></trkpt><trkpt lat="42.89787465121789" lon="12.579145500401696"><ele>352.0</ele><time>2026-05-01T10:57:49.001Z</time></trkpt><trkpt lat="42.897698595903044" lon="12.579282106517017"><ele>352.0</ele><time>2026-05-01T10:57:50.001Z</time></trkpt><trkpt lat="42.897520382482604" lon="12.57944676580997"><ele>352.0</ele><time>2026-05-01T10:57:51.001Z</time></trkpt><trkpt lat="42.8973398698729" lon="12.579626095093555"><ele>350.66666666666663</ele><time>2026-05-01T10:57:52.001Z</time></trkpt><trkpt lat="42.89718378240849" lon="12.579798444312704"><ele>349.3333333333333</ele><time>2026-05-01T10:57:53.001Z</time></trkpt><trkpt lat="42.89704267454075" lon="12.579961858119205"><ele>348.0</ele><time>2026-05-01T10:57:54.001Z</time></trkpt><trkpt lat="42.89690303391439" lon="12.580148640440724"><ele>348.0</ele><time>2026-05-01T10:57:55.001Z</time></trkpt><trkpt lat="42.89676842407517" lon="12.580345167355166"><ele>348.0</ele><time>2026-05-01T10:57:56.001Z</time></trkpt><trkpt lat="42.896611276015186" lon="12.580531052440248"><ele>348.0</ele><time>2026-05-01T10:57:57.001Z</time></trkpt><trkpt lat="42.89646728177647" lon="12.580724235604357"><ele>347.6666666666667</ele><time>2026-05-01T10:57:58.001Z</time></trkpt><trkpt lat="42.89631857150944" lon="12.58090029946906"><ele>347.33333333333337</ele><time>2026-05-01T10:57:59.001Z</time></trkpt><trkpt lat="42.89615854721654" lon="12.58106423335997"><ele>347.0</ele><time>2026-05-01T10:58:00.001Z</time></trkpt><trkpt lat="42.895990037147165" lon="12.581216910289488"><ele>344.6666666666667</ele><time>2026-05-01T10:58:01.001Z</time></trkpt><trkpt lat="42.89581633537828" lon="12.581370231245161"><ele>342.3333333333333</ele><time>2026-05-01T10:58:02.001Z</time></trkpt><trkpt lat="42.895644026729826" lon="12.581543289677063"><ele>340.0</ele><time>2026-05-01T10:58:03.001Z</time></trkpt><trkpt lat="42.895466383013584" lon="12.581700164270078"><ele>340.0</ele><time>2026-05-01T10:58:04.001Z</time></trkpt><trkpt lat="42.895294081627675" lon="12.581854889070428"><ele>340.0</ele><time>2026-05-01T10:58:05.001Z</time></trkpt><trkpt lat="42.895120251896664" lon="12.58201071508878"><ele>340.0</ele><time>2026-05-01T10:58:06.001Z</time></trkpt><trkpt lat="42.89495266825634" lon="12.582160425678978"><ele>340.66666666666663</ele><time>2026-05-01T10:58:07.001Z</time></trkpt><trkpt lat="42.89478598328914" lon="12.582308093305809"><ele>341.3333333333333</ele><time>2026-05-01T10:58:08.001Z</time></trkpt><trkpt lat="42.894620348524995" lon="12.58245058382314"><ele>342.0</ele><time>2026-05-01T10:58:09.001Z</time></trkpt><trkpt lat="42.89445400043466" lon="12.582598399571113"><ele>342.0</ele><time>2026-05-01T10:58:10.001Z</time></trkpt><trkpt lat="42.89428363215595" lon="12.582750959962686"><ele>342.0</ele><time>2026-05-01T10:58:11.001Z</time></trkpt><trkpt lat="42.894102644393875" lon="12.582884523168978"><ele>342.0</ele><time>2026-05-01T10:58:12.001Z</time></trkpt><trkpt lat="42.893932866868035" lon="12.583033493537297"><ele>340.6666666666667</ele><time>2026-05-01T10:58:13.001Z</time></trkpt><trkpt lat="42.893758678152906" lon="12.583187567493578"><ele>339.33333333333337</ele><time>2026-05-01T10:58:14.001Z</time></trkpt><trkpt lat="42.89360039602436" lon="12.583353354084304"><ele>338.0</ele><time>2026-05-01T10:58:15.001Z</time></trkpt><trkpt lat="42.893430077874406" lon="12.583506569545795"><ele>337.33333333333337</ele><time>2026-05-01T10:58:16.001Z</time></trkpt><trkpt lat="42.89325444092588" lon="12.583663187597447"><ele>336.6666666666667</ele><time>2026-05-01T10:58:17.001Z</time></trkpt><trkpt lat="42.89306368355372" lon="12.583805864869245"><ele>336.0</ele><time>2026-05-01T10:58:18.001Z</time></trkpt><trkpt lat="42.89288671550707" lon="12.583956634491646"><ele>335.5</ele><time>2026-05-01T10:58:19.001Z</time></trkpt><trkpt lat="42.89268972998381" lon="12.58407575334946"><ele>335.0</ele><time>2026-05-01T10:58:20.001Z</time></trkpt><trkpt lat="42.892465481374764" lon="12.584170292287903"><ele>336.0</ele><time>2026-05-01T10:58:21.001Z</time></trkpt><trkpt lat="42.89222202587281" lon="12.584227151341013"><ele>337.0</ele><time>2026-05-01T10:58:22.001Z</time></trkpt><trkpt lat="42.8919588310871" lon="12.584267764893236"><ele>339.0</ele><time>2026-05-01T10:58:23.001Z</time></trkpt><trkpt lat="42.89170825427272" lon="12.584305570329045"><ele>341.0</ele><time>2026-05-01T10:58:24.001Z</time></trkpt><trkpt lat="42.891460787411845" lon="12.584362116915068"><ele>341.0</ele><time>2026-05-01T10:58:25.001Z</time></trkpt><trkpt lat="42.89123917373464" lon="12.58439620439098"><ele>341.0</ele><time>2026-05-01T10:58:26.001Z</time></trkpt><trkpt lat="42.891034816474544" lon="12.584439914242267"><ele>341.0</ele><time>2026-05-01T10:58:27.001Z</time></trkpt><trkpt lat="42.89081542883433" lon="12.58449855194198"><ele>342.6666666666667</ele><time>2026-05-01T10:58:28.001Z</time></trkpt><trkpt lat="42.89059531308792" lon="12.584572867210422"><ele>344.3333333333333</ele><time>2026-05-01T10:58:29.001Z</time></trkpt><trkpt lat="42.89039138513954" lon="12.58466091526109"><ele>346.0</ele><time>2026-05-01T10:58:30.001Z</time></trkpt><trkpt lat="42.890194532195586" lon="12.58475432273233"><ele>345.5</ele><time>2026-05-01T10:58:31.001Z</time></trkpt><trkpt lat="42.88998126654873" lon="12.584833763490318"><ele>345.0</ele><time>2026-05-01T10:58:32.001Z</time></trkpt><trkpt lat="42.88975866991737" lon="12.584937123887121"><ele>345.0</ele><time>2026-05-01T10:58:33.001Z</time></trkpt><trkpt lat="42.88954529856779" lon="12.585055568518609"><ele>345.0</ele><time>2026-05-01T10:58:34.001Z</time></trkpt><trkpt lat="42.889317054626964" lon="12.585159156139209"><ele>344.5</ele><time>2026-05-01T10:58:35.001Z</time></trkpt><trkpt lat="42.88909523142895" lon="12.585235788719245"><ele>344.0</ele><time>2026-05-01T10:58:36.001Z</time></trkpt><trkpt lat="42.888880801848174" lon="12.585333797319311"><ele>343.33333333333337</ele><time>2026-05-01T10:58:37.001Z</time></trkpt><trkpt lat="42.88867476769328" lon="12.585430264560577"><ele>342.6666666666667</ele><time>2026-05-01T10:58:38.001Z</time></trkpt><trkpt lat="42.888466381192785" lon="12.585527833266639"><ele>342.0</ele><time>2026-05-01T10:58:39.001Z</time></trkpt><trkpt lat="42.888263894409796" lon="12.585621848619208"><ele>341.0</ele><time>2026-05-01T10:58:40.001Z</time></trkpt><trkpt lat="42.8880704549546" lon="12.585711199949795"><ele>340.0</ele><time>2026-05-01T10:58:41.001Z</time></trkpt><trkpt lat="42.887877138631374" lon="12.585800494371854"><ele>339.0</ele><time>2026-05-01T10:58:42.001Z</time></trkpt><trkpt lat="42.887689214654735" lon="12.585912412584857"><ele>337.6666666666667</ele><time>2026-05-01T10:58:43.001Z</time></trkpt><trkpt lat="42.88749382719696" lon="12.585983361591508"><ele>336.33333333333337</ele><time>2026-05-01T10:58:44.001Z</time></trkpt><trkpt lat="42.88730514787893" lon="12.586074865706175"><ele>335.0</ele><time>2026-05-01T10:58:45.001Z</time></trkpt><trkpt lat="42.887117537814355" lon="12.586172976925479"><ele>333.6666666666667</ele><time>2026-05-01T10:58:46.001Z</time></trkpt><trkpt lat="42.886928747249" lon="12.586274217114894"><ele>332.3333333333333</ele><time>2026-05-01T10:58:47.001Z</time></trkpt><trkpt lat="42.88675743798162" lon="12.586387631700976"><ele>331.0</ele><time>2026-05-01T10:58:48.001Z</time></trkpt><trkpt lat="42.8865782738255" lon="12.586457503690678"><ele>330.0</ele><time>2026-05-01T10:58:49.001Z</time></trkpt><trkpt lat="42.886417712334215" lon="12.586539349208934"><ele>329.0</ele><time>2026-05-01T10:58:50.001Z</time></trkpt><trkpt lat="42.88627612452655" lon="12.586628195906972"><ele>328.0</ele><time>2026-05-01T10:58:51.001Z</time></trkpt><trkpt lat="42.886128520688914" lon="12.586659404913348"><ele>328.0</ele><time>2026-05-01T10:58:52Z</time></trkpt><trkpt lat="42.885986251180974" lon="12.586683912275635"><ele>328.0</ele><time>2026-05-01T10:58:53Z</time></trkpt><trkpt lat="42.885835638362366" lon="12.58668095422065"><ele>328.0</ele><time>2026-05-01T10:58:54Z</time></trkpt><trkpt lat="42.885671332962936" lon="12.586668763879208"><ele>327.66666666666663</ele><time>2026-05-01T10:58:55Z</time></trkpt><trkpt lat="42.88549818475333" lon="12.586656192436692"><ele>327.3333333333333</ele><time>2026-05-01T10:58:56Z</time></trkpt><trkpt lat="42.88533922286066" lon="12.586664596598203"><ele>327.0</ele><time>2026-05-01T10:58:57Z</time></trkpt><trkpt lat="42.88520317688426" lon="12.586647540277854"><ele>326.0</ele><time>2026-05-01T10:58:58Z</time></trkpt><trkpt lat="42.88507516343325" lon="12.586636464597683"><ele>325.0</ele><time>2026-05-01T10:58:59Z</time></trkpt><trkpt lat="42.884950102134965" lon="12.586641102754616"><ele>324.0</ele><time>2026-05-01T10:59:00Z</time></trkpt><trkpt lat="42.884825617072835" lon="12.586671264380044"><ele>323.0</ele><time>2026-05-01T10:59:01Z</time></trkpt><trkpt lat="42.88471773173106" lon="12.586758939434702"><ele>323.0</ele><time>2026-05-01T10:59:02Z</time></trkpt><trkpt lat="42.88459432283495" lon="12.586870976634488"><ele>323.0</ele><time>2026-05-01T10:59:02.999Z</time></trkpt><trkpt lat="42.88446729189174" lon="12.58699896991958"><ele>323.0</ele><time>2026-05-01T10:59:03.999Z</time></trkpt><trkpt lat="42.88446310957154" lon="12.587319189395522"><ele>321.0</ele><time>2026-05-01T10:59:04.999Z</time></trkpt><trkpt lat="42.884412678503104" lon="12.587522061516633"><ele>319.0</ele><time>2026-05-01T10:59:05.999Z</time></trkpt><trkpt lat="42.88434873875016" lon="12.58769622262185"><ele>317.0</ele><time>2026-05-01T10:59:06.999Z</time></trkpt><trkpt lat="42.8842605708621" lon="12.587849349631384"><ele>315.0</ele><time>2026-05-01T10:59:07.999Z</time></trkpt><trkpt lat="42.88414079756775" lon="12.588005013240041"><ele>314.0</ele><time>2026-05-01T10:59:08.999Z</time></trkpt><trkpt lat="42.88400086351937" lon="12.588150109628431"><ele>313.0</ele><time>2026-05-01T10:59:09.999Z</time></trkpt><trkpt lat="42.8838564465924" lon="12.58830007614058"><ele>312.0</ele><time>2026-05-01T10:59:10.999Z</time></trkpt><trkpt lat="42.8837143542983" lon="12.588451264271935"><ele>312.0</ele><time>2026-05-01T10:59:11.999Z</time></trkpt><trkpt lat="42.88357921002603" lon="12.588600753487635"><ele>312.0</ele><time>2026-05-01T10:59:12.999Z</time></trkpt><trkpt lat="42.88344986195988" lon="12.588750376463308"><ele>312.0</ele><time>2026-05-01T10:59:13.999Z</time></trkpt><trkpt lat="42.88332080399167" lon="12.588892337164296"><ele>309.75</ele><time>2026-05-01T10:59:14.999Z</time></trkpt><trkpt lat="42.883196955042244" lon="12.589027277917186"><ele>307.5</ele><time>2026-05-01T10:59:15.999Z</time></trkpt><trkpt lat="42.88308458630209" lon="12.589155496659307"><ele>305.25</ele><time>2026-05-01T10:59:16.999Z</time></trkpt><trkpt lat="42.882989281845674" lon="12.589264760469334"><ele>303.0</ele><time>2026-05-01T10:59:17.999Z</time></trkpt><trkpt lat="42.88291021185593" lon="12.58934522760791"><ele>303.0</ele><time>2026-05-01T10:59:18.999Z</time></trkpt><trkpt lat="42.88283927761083" lon="12.589398294421713"><ele>303.0</ele><time>2026-05-01T10:59:19.999Z</time></trkpt><trkpt lat="42.882766378958266" lon="12.589433394051929"><ele>303.0</ele><time>2026-05-01T10:59:20.999Z</time></trkpt><trkpt lat="42.882696447718445" lon="12.589456296998277"><ele>303.0</ele><time>2026-05-01T10:59:21.999Z</time></trkpt><trkpt lat="42.8826193842143" lon="12.58948876576193"><ele>303.0</ele><time>2026-05-01T10:59:23.999Z</time></trkpt><trkpt lat="42.8825463159579" lon="12.589606930114163"><ele>303.0</ele><time>2026-05-01T10:59:32.999Z</time></trkpt><trkpt lat="42.88249066823425" lon="12.589680086666418"><ele>303.4</ele><time>2026-05-01T10:59:34Z</time></trkpt><trkpt lat="42.882433166310676" lon="12.589734045214604"><ele>303.8</ele><time>2026-05-01T10:59:35Z</time></trkpt><trkpt lat="42.88237033033015" lon="12.589794978283845"><ele>304.2</ele><time>2026-05-01T10:59:36Z</time></trkpt><trkpt lat="42.8823053132885" lon="12.589842057495035"><ele>304.6</ele><time>2026-05-01T10:59:37Z</time></trkpt><trkpt lat="42.88219937125929" lon="12.589934037359761"><ele>305.0</ele><time>2026-05-01T10:59:38Z</time></trkpt><trkpt lat="42.88206158760525" lon="12.58998594305684"><ele>305.0</ele><time>2026-05-01T10:59:39Z</time></trkpt><trkpt lat="42.88189286399492" lon="12.590011484387688"><ele>305.0</ele><time>2026-05-01T10:59:40Z</time></trkpt><trkpt lat="42.88171248421948" lon="12.590059249585837"><ele>305.0</ele><time>2026-05-01T10:59:41Z</time></trkpt><trkpt lat="42.88153327813283" lon="12.59011468943469"><ele>307.0</ele><time>2026-05-01T10:59:42Z</time></trkpt><trkpt lat="42.881369050346926" lon="12.590176113130234"><ele>309.0</ele><time>2026-05-01T10:59:43Z</time></trkpt><trkpt lat="42.881221372498864" lon="12.59026433919458"><ele>311.0</ele><time>2026-05-01T10:59:44Z</time></trkpt><trkpt lat="42.881088630589105" lon="12.590393929096901"><ele>312.0</ele><time>2026-05-01T10:59:45Z</time></trkpt><trkpt lat="42.88097765957884" lon="12.59055749325198"><ele>313.0</ele><time>2026-05-01T10:59:46Z</time></trkpt><trkpt lat="42.88086076996703" lon="12.59073622893322"><ele>314.0</ele><time>2026-05-01T10:59:47Z</time></trkpt><trkpt lat="42.88074293052724" lon="12.59090467918628"><ele>316.0</ele><time>2026-05-01T10:59:48Z</time></trkpt><trkpt lat="42.88062360416023" lon="12.59106749191111"><ele>318.0</ele><time>2026-05-01T10:59:49Z</time></trkpt><trkpt lat="42.88051867374665" lon="12.591214030939303"><ele>320.0</ele><time>2026-05-01T10:59:50Z</time></trkpt><trkpt lat="42.88041927254513" lon="12.59135543909203"><ele>321.0</ele><time>2026-05-01T10:59:51Z</time></trkpt><trkpt lat="42.88030935399775" lon="12.591513826520252"><ele>322.0</ele><time>2026-05-01T10:59:52Z</time></trkpt><trkpt lat="42.88019765718482" lon="12.591680959960373"><ele>323.0</ele><time>2026-05-01T10:59:53Z</time></trkpt><trkpt lat="42.8800804195235" lon="12.591854709179998"><ele>325.0</ele><time>2026-05-01T10:59:54Z</time></trkpt><trkpt lat="42.87996743989243" lon="12.592012594997286"><ele>327.0</ele><time>2026-05-01T10:59:55Z</time></trkpt><trkpt lat="42.87985935212587" lon="12.592161131979529"><ele>329.0</ele><time>2026-05-01T10:59:56Z</time></trkpt><trkpt lat="42.87974252232301" lon="12.592335994295839"><ele>329.0</ele><time>2026-05-01T10:59:57Z</time></trkpt><trkpt lat="42.8796284611997" lon="12.592520912959518"><ele>329.0</ele><time>2026-05-01T10:59:58Z</time></trkpt><trkpt lat="42.87951468209454" lon="12.592703143371534"><ele>329.0</ele><time>2026-05-01T10:59:59Z</time></trkpt><trkpt lat="42.879394316342804" lon="12.592878326010904"><ele>329.33333333333337</ele><time>2026-05-01T11:00:00Z</time></trkpt><trkpt lat="42.87926919564017" lon="12.593037163742176"><ele>329.6666666666667</ele><time>2026-05-01T11:00:01Z</time></trkpt><trkpt lat="42.87912635852028" lon="12.593163719440296"><ele>330.0</ele><time>2026-05-01T11:00:02Z</time></trkpt><trkpt lat="42.8790006832505" lon="12.593286803994852"><ele>331.5</ele><time>2026-05-01T11:00:03Z</time></trkpt><trkpt lat="42.878893469248" lon="12.59340902521692"><ele>333.0</ele><time>2026-05-01T11:00:04Z</time></trkpt><trkpt lat="42.87877349826899" lon="12.59351299615025"><ele>334.5</ele><time>2026-05-01T11:00:05Z</time></trkpt><trkpt lat="42.8786344641633" lon="12.59360262285808"><ele>336.0</ele><time>2026-05-01T11:00:06Z</time></trkpt><trkpt lat="42.87849115476798" lon="12.593703777712637"><ele>335.6666666666667</ele><time>2026-05-01T11:00:07Z</time></trkpt><trkpt lat="42.87834177105217" lon="12.593797399075275"><ele>335.33333333333337</ele><time>2026-05-01T11:00:08Z</time></trkpt><trkpt lat="42.87818500333503" lon="12.593902900005016"><ele>335.0</ele><time>2026-05-01T11:00:09Z</time></trkpt><trkpt lat="42.87803857429552" lon="12.594038493984712"><ele>335.0</ele><time>2026-05-01T11:00:10Z</time></trkpt><trkpt lat="42.87789397404065" lon="12.594158519773794"><ele>335.0</ele><time>2026-05-01T11:00:11Z</time></trkpt><trkpt lat="42.877756939725394" lon="12.594260352093867"><ele>335.0</ele><time>2026-05-01T11:00:12Z</time></trkpt><trkpt lat="42.8776551502212" lon="12.59439343690162"><ele>334.75</ele><time>2026-05-01T11:00:13Z</time></trkpt><trkpt lat="42.87755676438836" lon="12.594525168485887"><ele>334.5</ele><time>2026-05-01T11:00:14Z</time></trkpt><trkpt lat="42.8774428444076" lon="12.59463581819102"><ele>334.25</ele><time>2026-05-01T11:00:15Z</time></trkpt><trkpt lat="42.877324352765044" lon="12.594705612580258"><ele>334.0</ele><time>2026-05-01T11:00:16Z</time></trkpt><trkpt lat="42.87718381492195" lon="12.59477590758691"><ele>334.0</ele><time>2026-05-01T11:00:17Z</time></trkpt><trkpt lat="42.877033715844526" lon="12.594870822843344"><ele>334.0</ele><time>2026-05-01T11:00:18Z</time></trkpt><trkpt lat="42.87689728413955" lon="12.59500117720268"><ele>334.0</ele><time>2026-05-01T11:00:19Z</time></trkpt><trkpt lat="42.87675835086764" lon="12.595138821231712"><ele>334.3333333333333</ele><time>2026-05-01T11:00:20Z</time></trkpt><trkpt lat="42.87661249866589" lon="12.595280870572806"><ele>334.6666666666667</ele><time>2026-05-01T11:00:21Z</time></trkpt><trkpt lat="42.87647973089406" lon="12.59538672713121"><ele>335.0</ele><time>2026-05-01T11:00:22Z</time></trkpt><trkpt lat="42.876325594549186" lon="12.595475490212987"><ele>334.6666666666667</ele><time>2026-05-01T11:00:23Z</time></trkpt><trkpt lat="42.87616382314295" lon="12.595563655189084"><ele>334.3333333333333</ele><time>2026-05-01T11:00:24Z</time></trkpt><trkpt lat="42.87600703550966" lon="12.595685547861086"><ele>334.0</ele><time>2026-05-01T11:00:25Z</time></trkpt><trkpt lat="42.87584245493035" lon="12.595799306130484"><ele>334.0</ele><time>2026-05-01T11:00:26Z</time></trkpt><trkpt lat="42.87566600661105" lon="12.595909736941264"><ele>334.0</ele><time>2026-05-01T11:00:27Z</time></trkpt><trkpt lat="42.87549987170615" lon="12.5960425754786"><ele>334.0</ele><time>2026-05-01T11:00:28Z</time></trkpt><trkpt lat="42.87533498322596" lon="12.596182924345147"><ele>334.0</ele><time>2026-05-01T11:00:29Z</time></trkpt><trkpt lat="42.875174044268334" lon="12.596335934754702"><ele>334.0</ele><time>2026-05-01T11:00:30Z</time></trkpt><trkpt lat="42.87501910388088" lon="12.596493745668917"><ele>334.0</ele><time>2026-05-01T11:00:31Z</time></trkpt><trkpt lat="42.874866527748004" lon="12.596640969347305"><ele>334.3333333333333</ele><time>2026-05-01T11:00:32Z</time></trkpt><trkpt lat="42.874718595429044" lon="12.596779044505894"><ele>334.6666666666667</ele><time>2026-05-01T11:00:33Z</time></trkpt><trkpt lat="42.87457511011663" lon="12.596904960432415"><ele>335.0</ele><time>2026-05-01T11:00:34Z</time></trkpt><trkpt lat="42.87444016194269" lon="12.59702292706693"><ele>336.0</ele><time>2026-05-01T11:00:35Z</time></trkpt><trkpt lat="42.8743187006587" lon="12.597139688587124"><ele>337.0</ele><time>2026-05-01T11:00:36Z</time></trkpt><trkpt lat="42.87421437895019" lon="12.597298469331454"><ele>338.0</ele><time>2026-05-01T11:00:37Z</time></trkpt><trkpt lat="42.87409713420046" lon="12.597476671944033"><ele>338.0</ele><time>2026-05-01T11:00:38Z</time></trkpt><trkpt lat="42.87398055203339" lon="12.597677353901185"><ele>338.0</ele><time>2026-05-01T11:00:39Z</time></trkpt><trkpt lat="42.873867235909756" lon="12.597872176260848"><ele>338.0</ele><time>2026-05-01T11:00:40Z</time></trkpt><trkpt lat="42.87375134116467" lon="12.598055736206186"><ele>337.0</ele><time>2026-05-01T11:00:41Z</time></trkpt><trkpt lat="42.87363195015227" lon="12.598256385178418"><ele>336.0</ele><time>2026-05-01T11:00:42Z</time></trkpt><trkpt lat="42.87351474063888" lon="12.598468981466667"><ele>335.0</ele><time>2026-05-01T11:00:43Z</time></trkpt><trkpt lat="42.87339632158444" lon="12.598691256655714"><ele>332.33333333333337</ele><time>2026-05-01T11:00:44Z</time></trkpt><trkpt lat="42.87326531909696" lon="12.59889679099544"><ele>329.6666666666667</ele><time>2026-05-01T11:00:45Z</time></trkpt><trkpt lat="42.87315494004517" lon="12.599117532263792"><ele>327.0</ele><time>2026-05-01T11:00:46Z</time></trkpt><trkpt lat="42.87304748605225" lon="12.599340895711396"><ele>325.3333333333333</ele><time>2026-05-01T11:00:47Z</time></trkpt><trkpt lat="42.87294196521119" lon="12.599570153087805"><ele>323.66666666666663</ele><time>2026-05-01T11:00:48Z</time></trkpt><trkpt lat="42.87284462750895" lon="12.599780194375356"><ele>322.0</ele><time>2026-05-01T11:00:49Z</time></trkpt><trkpt lat="42.87274810469565" lon="12.599980617001199"><ele>322.0</ele><time>2026-05-01T11:00:50Z</time></trkpt><trkpt lat="42.87264567588549" lon="12.600175958898088"><ele>322.0</ele><time>2026-05-01T11:00:51Z</time></trkpt><trkpt lat="42.87254308538205" lon="12.60035897346934"><ele>322.0</ele><time>2026-05-01T11:00:52Z</time></trkpt><trkpt lat="42.8724414698218" lon="12.600538987393426"><ele>321.0</ele><time>2026-05-01T11:00:53Z</time></trkpt><trkpt lat="42.87234905312394" lon="12.600702705188262"><ele>320.0</ele><time>2026-05-01T11:00:54Z</time></trkpt><trkpt lat="42.872257704141894" lon="12.600862810954002"><ele>319.0</ele><time>2026-05-01T11:00:55Z</time></trkpt><trkpt lat="42.87216638773069" lon="12.601021335760441"><ele>318.0</ele><time>2026-05-01T11:00:56Z</time></trkpt><trkpt lat="42.872073982021575" lon="12.601177610598324"><ele>318.25</ele><time>2026-05-01T11:00:57Z</time></trkpt><trkpt lat="42.871979709884634" lon="12.601335352895795"><ele>318.5</ele><time>2026-05-01T11:00:58Z</time></trkpt><trkpt lat="42.87188680128955" lon="12.601478147888823"><ele>318.75</ele><time>2026-05-01T11:00:59Z</time></trkpt><trkpt lat="42.87178909820477" lon="12.601610562469533"><ele>319.0</ele><time>2026-05-01T11:01:00Z</time></trkpt><trkpt lat="42.87166652995538" lon="12.601722648019965"><ele>319.0</ele><time>2026-05-01T11:01:01Z</time></trkpt><trkpt lat="42.87152550730802" lon="12.60182875377583"><ele>319.0</ele><time>2026-05-01T11:01:02Z</time></trkpt><trkpt lat="42.87137690700388" lon="12.601946971469884"><ele>319.0</ele><time>2026-05-01T11:01:03Z</time></trkpt><trkpt lat="42.87123517928947" lon="12.602095643998906"><ele>318.3333333333333</ele><time>2026-05-01T11:01:04Z</time></trkpt><trkpt lat="42.87108612872197" lon="12.602234049237603"><ele>317.6666666666667</ele><time>2026-05-01T11:01:05Z</time></trkpt><trkpt lat="42.87092906806765" lon="12.602356181122909"><ele>317.0</ele><time>2026-05-01T11:01:06Z</time></trkpt><trkpt lat="42.8707801752677" lon="12.602491629982074"><ele>317.0</ele><time>2026-05-01T11:01:07Z</time></trkpt><trkpt lat="42.870655505197405" lon="12.602656044358898"><ele>317.0</ele><time>2026-05-01T11:01:08Z</time></trkpt><trkpt lat="42.870521177386046" lon="12.60281722374811"><ele>317.0</ele><time>2026-05-01T11:01:09Z</time></trkpt><trkpt lat="42.87039664386465" lon="12.60298246769962"><ele>317.6666666666667</ele><time>2026-05-01T11:01:10Z</time></trkpt><trkpt lat="42.87026199650405" lon="12.603125677954015"><ele>318.3333333333333</ele><time>2026-05-01T11:01:11Z</time></trkpt><trkpt lat="42.870142558314456" lon="12.60327519384066"><ele>319.0</ele><time>2026-05-01T11:01:12Z</time></trkpt><trkpt lat="42.87002908660859" lon="12.603416068085068"><ele>319.0</ele><time>2026-05-01T11:01:13Z</time></trkpt><trkpt lat="42.86991798628547" lon="12.603556482241066"><ele>319.0</ele><time>2026-05-01T11:01:14Z</time></trkpt><trkpt lat="42.869816479159304" lon="12.603684749269283"><ele>319.0</ele><time>2026-05-01T11:01:15Z</time></trkpt><trkpt lat="42.86972239270342" lon="12.603786105181085"><ele>319.0</ele><time>2026-05-01T11:01:16Z</time></trkpt><trkpt lat="42.86962672098326" lon="12.603870166541618"><ele>318.8</ele><time>2026-05-01T11:01:17Z</time></trkpt><trkpt lat="42.86953795573432" lon="12.603935983011004"><ele>318.59999999999997</ele><time>2026-05-01T11:01:18Z</time></trkpt><trkpt lat="42.86946648512423" lon="12.603982674431842"><ele>318.4</ele><time>2026-05-01T11:01:19Z</time></trkpt><trkpt lat="42.86936278580878" lon="12.604055727879263"><ele>318.2</ele><time>2026-05-01T11:01:21Z</time></trkpt><trkpt lat="42.86929922140955" lon="12.604070531820938"><ele>318.0</ele><time>2026-05-01T11:01:23Z</time></trkpt><trkpt lat="42.86925208812032" lon="12.603883119462079"><ele>318.0</ele><time>2026-05-01T11:01:24Z</time></trkpt><trkpt lat="42.869180309310906" lon="12.603764017092606"><ele>318.0</ele><time>2026-05-01T11:01:25Z</time></trkpt><trkpt lat="42.86909266582925" lon="12.603658603349812"><ele>318.0</ele><time>2026-05-01T11:01:26Z</time></trkpt><trkpt lat="42.869019323592944" lon="12.603509502668178"><ele>318.0</ele><time>2026-05-01T11:01:27Z</time></trkpt><trkpt lat="42.86892761071476" lon="12.603360700552502"><ele>318.0</ele><time>2026-05-01T11:01:28Z</time></trkpt><trkpt lat="42.86883269410124" lon="12.603205121552286"><ele>318.0</ele><time>2026-05-01T11:01:29Z</time></trkpt><trkpt lat="42.868735111072546" lon="12.603045172670068"><ele>318.0</ele><time>2026-05-01T11:01:30Z</time></trkpt><trkpt lat="42.868632538459146" lon="12.602880431960235"><ele>316.3333333333333</ele><time>2026-05-01T11:01:31Z</time></trkpt><trkpt lat="42.868521641882154" lon="12.602704326090004"><ele>314.66666666666663</ele><time>2026-05-01T11:01:32Z</time></trkpt><trkpt lat="42.86841363050693" lon="12.602532801898953"><ele>313.0</ele><time>2026-05-01T11:01:33Z</time></trkpt><trkpt lat="42.86830380585004" lon="12.602356049173288"><ele>311.66666666666663</ele><time>2026-05-01T11:01:34Z</time></trkpt><trkpt lat="42.86819900042872" lon="12.602183631357267"><ele>310.3333333333333</ele><time>2026-05-01T11:01:35Z</time></trkpt><trkpt lat="42.868074448457484" lon="12.6020265322403"><ele>309.0</ele><time>2026-05-01T11:01:36Z</time></trkpt><trkpt lat="42.86796544193729" lon="12.601864605476123"><ele>308.5</ele><time>2026-05-01T11:01:37Z</time></trkpt><trkpt lat="42.86784625012608" lon="12.601733371064872"><ele>308.0</ele><time>2026-05-01T11:01:37.999Z</time></trkpt><trkpt lat="42.86774392023431" lon="12.601601616467816"><ele>307.5</ele><time>2026-05-01T11:01:38.999Z</time></trkpt><trkpt lat="42.86763995551194" lon="12.60150411239826"><ele>307.0</ele><time>2026-05-01T11:01:40Z</time></trkpt><trkpt lat="42.867553469237066" lon="12.601413528263846"><ele>308.0</ele><time>2026-05-01T11:01:41Z</time></trkpt><trkpt lat="42.86746751365561" lon="12.601311596318826"><ele>309.0</ele><time>2026-05-01T11:01:42Z</time></trkpt><trkpt lat="42.86741167707036" lon="12.601153247124484"><ele>310.0</ele><time>2026-05-01T11:01:43Z</time></trkpt><trkpt lat="42.867323516195945" lon="12.600997426073606"><ele>311.0</ele><time>2026-05-01T11:01:44Z</time></trkpt><trkpt lat="42.86720496210583" lon="12.600872677776982"><ele>311.33333333333337</ele><time>2026-05-01T11:01:45Z</time></trkpt><trkpt lat="42.8670810198517" lon="12.600784549136852"><ele>311.6666666666667</ele><time>2026-05-01T11:01:46Z</time></trkpt><trkpt lat="42.86693245224315" lon="12.600730805608245"><ele>312.0</ele><time>2026-05-01T11:01:47Z</time></trkpt><trkpt lat="42.866770858611304" lon="12.600672209530206"><ele>312.6666666666667</ele><time>2026-05-01T11:01:48Z</time></trkpt><trkpt lat="42.86660314505279" lon="12.600623785211852"><ele>313.33333333333337</ele><time>2026-05-01T11:01:49Z</time></trkpt><trkpt lat="42.866436894423195" lon="12.600572161863184"><ele>314.0</ele><time>2026-05-01T11:01:50Z</time></trkpt><trkpt lat="42.86626927122648" lon="12.60051786813672"><ele>314.0</ele><time>2026-05-01T11:01:51Z</time></trkpt><trkpt lat="42.86609959143002" lon="12.600469028025703"><ele>314.0</ele><time>2026-05-01T11:01:52Z</time></trkpt><trkpt lat="42.86594477878795" lon="12.600433884685488"><ele>314.0</ele><time>2026-05-01T11:01:53Z</time></trkpt><trkpt lat="42.865805334518335" lon="12.600406533453976"><ele>314.75</ele><time>2026-05-01T11:01:54Z</time></trkpt><trkpt lat="42.86566867220869" lon="12.60037852006587"><ele>315.5</ele><time>2026-05-01T11:01:55Z</time></trkpt><trkpt lat="42.86552095235285" lon="12.60034422973772"><ele>316.25</ele><time>2026-05-01T11:01:56Z</time></trkpt><trkpt lat="42.86536544527071" lon="12.600290137597607"><ele>317.0</ele><time>2026-05-01T11:01:57Z</time></trkpt><trkpt lat="42.86520813564031" lon="12.60022392393309"><ele>317.75</ele><time>2026-05-01T11:01:58Z</time></trkpt><trkpt lat="42.8650623080424" lon="12.600163780884765"><ele>318.5</ele><time>2026-05-01T11:01:59Z</time></trkpt><trkpt lat="42.8649334633715" lon="12.600109871123017"><ele>319.25</ele><time>2026-05-01T11:02:00Z</time></trkpt><trkpt lat="42.86481421745126" lon="12.600059977515585"><ele>320.0</ele><time>2026-05-01T11:02:01Z</time></trkpt><trkpt lat="42.86468987855574" lon="12.600007393060993"><ele>320.0</ele><time>2026-05-01T11:02:02Z</time></trkpt><trkpt lat="42.86456485433929" lon="12.599954227458491"><ele>320.0</ele><time>2026-05-01T11:02:03Z</time></trkpt><trkpt lat="42.86435142337362" lon="12.599848761340585"><ele>320.0</ele><time>2026-05-01T11:02:05Z</time></trkpt><trkpt lat="42.86424403390252" lon="12.599755739084468"><ele>321.33333333333337</ele><time>2026-05-01T11:02:06Z</time></trkpt><trkpt lat="42.864128478568134" lon="12.599642483599686"><ele>322.6666666666667</ele><time>2026-05-01T11:02:07Z</time></trkpt><trkpt lat="42.864002124946836" lon="12.599518061346755"><ele>324.0</ele><time>2026-05-01T11:02:08Z</time></trkpt><trkpt lat="42.86386810149718" lon="12.599396384595352"><ele>324.0</ele><time>2026-05-01T11:02:09Z</time></trkpt><trkpt lat="42.86373632861191" lon="12.599286480669015"><ele>324.0</ele><time>2026-05-01T11:02:10Z</time></trkpt><trkpt lat="42.863612079855365" lon="12.599189580035446"><ele>324.0</ele><time>2026-05-01T11:02:11Z</time></trkpt><trkpt lat="42.86351647450656" lon="12.599120386408531"><ele>324.0</ele><time>2026-05-01T11:02:12Z</time></trkpt><trkpt lat="42.86344169361803" lon="12.599069385790836"><ele>324.8333333333333</ele><time>2026-05-01T11:02:13Z</time></trkpt><trkpt lat="42.86337086559094" lon="12.599027302152766"><ele>325.6666666666667</ele><time>2026-05-01T11:02:14Z</time></trkpt><trkpt lat="42.863300555695396" lon="12.598987967185765"><ele>326.5</ele><time>2026-05-01T11:02:15Z</time></trkpt><trkpt lat="42.86322079834241" lon="12.598948645724594"><ele>327.33333333333337</ele><time>2026-05-01T11:02:16Z</time></trkpt><trkpt lat="42.863137901673525" lon="12.5989089425935"><ele>328.1666666666667</ele><time>2026-05-01T11:02:17Z</time></trkpt><trkpt lat="42.863064270401594" lon="12.598873999310161"><ele>329.0</ele><time>2026-05-01T11:02:18Z</time></trkpt><trkpt lat="42.86298681025779" lon="12.598837238862592"><ele>329.0</ele><time>2026-05-01T11:02:19Z</time></trkpt><trkpt lat="42.86289130930169" lon="12.598791916836506"><ele>329.0</ele><time>2026-05-01T11:02:20Z</time></trkpt><trkpt lat="42.862782120788076" lon="12.59874185153227"><ele>329.0</ele><time>2026-05-01T11:02:21Z</time></trkpt><trkpt lat="42.86266170807849" lon="12.598691545143073"><ele>329.0</ele><time>2026-05-01T11:02:22Z</time></trkpt><trkpt lat="42.86253788544855" lon="12.59864511175083"><ele>329.25</ele><time>2026-05-01T11:02:23Z</time></trkpt><trkpt lat="42.862414874973666" lon="12.59860473261617"><ele>329.5</ele><time>2026-05-01T11:02:24Z</time></trkpt><trkpt lat="42.86228730871914" lon="12.598565521015523"><ele>329.75</ele><time>2026-05-01T11:02:25Z</time></trkpt><trkpt lat="42.86216338808982" lon="12.598531942950961"><ele>330.0</ele><time>2026-05-01T11:02:26Z</time></trkpt><trkpt lat="42.86204411293326" lon="12.598500820989402"><ele>330.0</ele><time>2026-05-01T11:02:27Z</time></trkpt><trkpt lat="42.861935905901824" lon="12.59847657370531"><ele>330.0</ele><time>2026-05-01T11:02:28Z</time></trkpt><trkpt lat="42.861863375737755" lon="12.598461935273358"><ele>330.0</ele><time>2026-05-01T11:02:29Z</time></trkpt><trkpt lat="42.861769395314965" lon="12.598446821477319"><ele>330.0</ele><time>2026-05-01T11:02:31Z</time></trkpt><trkpt lat="42.86169977464122" lon="12.59844982882002"><ele>330.0</ele><time>2026-05-01T11:02:34Z</time></trkpt><trkpt lat="42.86159356657475" lon="12.598475382387017"><ele>330.8</ele><time>2026-05-01T11:02:36Z</time></trkpt><trkpt lat="42.86152089212335" lon="12.598459015747771"><ele>331.6</ele><time>2026-05-01T11:02:37Z</time></trkpt><trkpt lat="42.8614334193902" lon="12.598399957963432"><ele>332.4</ele><time>2026-05-01T11:02:39Z</time></trkpt><trkpt lat="42.86130862232949" lon="12.598363816298454"><ele>333.2</ele><time>2026-05-01T11:02:41Z</time></trkpt><trkpt lat="42.86119956272623" lon="12.598335380175818"><ele>334.0</ele><time>2026-05-01T11:02:42Z</time></trkpt><trkpt lat="42.86107896786908" lon="12.598304894628432"><ele>334.0</ele><time>2026-05-01T11:02:43Z</time></trkpt><trkpt lat="42.86096925924926" lon="12.59827716100385"><ele>334.0</ele><time>2026-05-01T11:02:44Z</time></trkpt><trkpt lat="42.8608479430778" lon="12.59824649310493"><ele>334.0</ele><time>2026-05-01T11:02:45Z</time></trkpt><trkpt lat="42.86071850548969" lon="12.598218444788829"><ele>334.0</ele><time>2026-05-01T11:02:46Z</time></trkpt><trkpt lat="42.86058043626147" lon="12.598194894466326"><ele>333.75</ele><time>2026-05-01T11:02:47Z</time></trkpt><trkpt lat="42.860440814005216" lon="12.598178521806012"><ele>333.5</ele><time>2026-05-01T11:02:48Z</time></trkpt><trkpt lat="42.8603013711544" lon="12.598162550203211"><ele>333.25</ele><time>2026-05-01T11:02:49Z</time></trkpt><trkpt lat="42.86016521072469" lon="12.598145189089983"><ele>333.0</ele><time>2026-05-01T11:02:50Z</time></trkpt><trkpt lat="42.86002794029209" lon="12.59812638394823"><ele>333.75</ele><time>2026-05-01T11:02:51Z</time></trkpt><trkpt lat="42.859889224065356" lon="12.598107380708486"><ele>334.5</ele><time>2026-05-01T11:02:52Z</time></trkpt><trkpt lat="42.85974879305679" lon="12.598087782450715"><ele>335.25</ele><time>2026-05-01T11:02:53Z</time></trkpt><trkpt lat="42.85960364809186" lon="12.598067434681626"><ele>336.0</ele><time>2026-05-01T11:02:54Z</time></trkpt><trkpt lat="42.85945776912831" lon="12.598046984049617"><ele>336.0</ele><time>2026-05-01T11:02:55Z</time></trkpt><trkpt lat="42.85931125186062" lon="12.598026443900858"><ele>336.0</ele><time>2026-05-01T11:02:56Z</time></trkpt><trkpt lat="42.85916303103849" lon="12.598005664948202"><ele>336.0</ele><time>2026-05-01T11:02:57Z</time></trkpt><trkpt lat="42.8590199899335" lon="12.59798561235728"><ele>336.0</ele><time>2026-05-01T11:02:58Z</time></trkpt><trkpt lat="42.85887693963434" lon="12.597967640206159"><ele>336.5</ele><time>2026-05-01T11:02:59Z</time></trkpt><trkpt lat="42.85873587582774" lon="12.597949484696324"><ele>337.0</ele><time>2026-05-01T11:03:00Z</time></trkpt><trkpt lat="42.85858807558416" lon="12.597927710311884"><ele>337.5</ele><time>2026-05-01T11:03:01Z</time></trkpt><trkpt lat="42.85844439385558" lon="12.5979060804782"><ele>338.0</ele><time>2026-05-01T11:03:02Z</time></trkpt><trkpt lat="42.85829498465589" lon="12.597883588419295"><ele>338.5</ele><time>2026-05-01T11:03:03Z</time></trkpt><trkpt lat="42.85814421565258" lon="12.597863446537476"><ele>339.0</ele><time>2026-05-01T11:03:04Z</time></trkpt><trkpt lat="42.8579972851897" lon="12.59784484008947"><ele>339.5</ele><time>2026-05-01T11:03:05Z</time></trkpt><trkpt lat="42.85785421602679" lon="12.59782672262277"><ele>340.0</ele><time>2026-05-01T11:03:06Z</time></trkpt><trkpt lat="42.85771060771441" lon="12.597807360372174"><ele>340.5</ele><time>2026-05-01T11:03:07Z</time></trkpt><trkpt lat="42.85756541325066" lon="12.597785845862942"><ele>341.0</ele><time>2026-05-01T11:03:08Z</time></trkpt><trkpt lat="42.85741676220602" lon="12.5977638029369"><ele>341.5</ele><time>2026-05-01T11:03:09Z</time></trkpt><trkpt lat="42.85728030187335" lon="12.59774356776197"><ele>342.0</ele><time>2026-05-01T11:03:10Z</time></trkpt><trkpt lat="42.85715246648096" lon="12.597724611496561"><ele>342.0</ele><time>2026-05-01T11:03:11Z</time></trkpt><trkpt lat="42.8570212630868" lon="12.597705155828589"><ele>342.0</ele><time>2026-05-01T11:03:12Z</time></trkpt><trkpt lat="42.85687687088056" lon="12.597680677500588"><ele>342.0</ele><time>2026-05-01T11:03:13Z</time></trkpt><trkpt lat="42.85673892283799" lon="12.597658439655039"><ele>342.0</ele><time>2026-05-01T11:03:14Z</time></trkpt><trkpt lat="42.85660140971135" lon="12.597637466015579"><ele>342.5</ele><time>2026-05-01T11:03:15Z</time></trkpt><trkpt lat="42.856469826284126" lon="12.597622617229186"><ele>343.0</ele><time>2026-05-01T11:03:16Z</time></trkpt><trkpt lat="42.85634769500144" lon="12.597616506307226"><ele>343.5</ele><time>2026-05-01T11:03:17Z</time></trkpt><trkpt lat="42.856224348671304" lon="12.597611307805934"><ele>344.0</ele><time>2026-05-01T11:03:18Z</time></trkpt><trkpt lat="42.85610358062206" lon="12.597602706263928"><ele>344.0</ele><time>2026-05-01T11:03:19Z</time></trkpt><trkpt lat="42.85598254971959" lon="12.597590024583619"><ele>344.0</ele><time>2026-05-01T11:03:20Z</time></trkpt><trkpt lat="42.85586287863991" lon="12.597579298203204"><ele>344.0</ele><time>2026-05-01T11:03:21Z</time></trkpt><trkpt lat="42.85575584817929" lon="12.597569640035601"><ele>344.0</ele><time>2026-05-01T11:03:22Z</time></trkpt><trkpt lat="42.85566765898098" lon="12.597572348119739"><ele>344.0</ele><time>2026-05-01T11:03:23Z</time></trkpt><trkpt lat="42.855589575697216" lon="12.597576597124077"><ele>344.83333333333337</ele><time>2026-05-01T11:03:24Z</time></trkpt><trkpt lat="42.85551029093265" lon="12.597575605136965"><ele>345.6666666666667</ele><time>2026-05-01T11:03:25Z</time></trkpt><trkpt lat="42.855422259260365" lon="12.597575562149023"><ele>346.5</ele><time>2026-05-01T11:03:26Z</time></trkpt><trkpt lat="42.855332135556495" lon="12.597570380971254"><ele>347.3333333333333</ele><time>2026-05-01T11:03:27Z</time></trkpt><trkpt lat="42.85525093625285" lon="12.597561278708389"><ele>348.16666666666663</ele><time>2026-05-01T11:03:28Z</time></trkpt><trkpt lat="42.855149948267275" lon="12.59755798453428"><ele>349.0</ele><time>2026-05-01T11:03:30Z</time></trkpt><trkpt lat="42.855095573583455" lon="12.597483472742747"><ele>349.5</ele><time>2026-05-01T11:03:32Z</time></trkpt><trkpt lat="42.8550489375676" lon="12.597402719631981"><ele>350.0</ele><time>2026-05-01T11:03:32.999Z</time></trkpt><trkpt lat="42.85495473322224" lon="12.59730931837879"><ele>350.5</ele><time>2026-05-01T11:03:34.999Z</time></trkpt><trkpt lat="42.854897519300856" lon="12.597260513074485"><ele>351.0</ele><time>2026-05-01T11:03:35.999Z</time></trkpt><trkpt lat="42.85483710081747" lon="12.597207133467608"><ele>351.5</ele><time>2026-05-01T11:03:36.999Z</time></trkpt><trkpt lat="42.85479061094177" lon="12.597144153756847"><ele>352.0</ele><time>2026-05-01T11:03:37.999Z</time></trkpt><trkpt lat="42.85470613389991" lon="12.597062259908961"><ele>352.0</ele><time>2026-05-01T11:03:39.999Z</time></trkpt><trkpt lat="42.85464187666099" lon="12.597012692837959"><ele>352.0</ele><time>2026-05-01T11:03:41.999Z</time></trkpt><trkpt lat="42.85461466888981" lon="12.596927856708524"><ele>352.0</ele><time>2026-05-01T11:03:46Z</time></trkpt><trkpt lat="42.85465925384375" lon="12.59700743013108"><ele>352.0</ele><time>2026-05-01T11:03:49Z</time></trkpt><trkpt lat="42.8546252526433" lon="12.597092565427062"><ele>352.0</ele><time>2026-05-01T11:03:52Z</time></trkpt><trkpt lat="42.854799453747745" lon="12.597191878470161"><ele>352.0</ele><time>2026-05-01T11:03:53Z</time></trkpt><trkpt lat="42.85490433444174" lon="12.597274551001222"><ele>352.0</ele><time>2026-05-01T11:03:55Z</time></trkpt><trkpt lat="42.854956547740414" lon="12.597328768435384"><ele>352.0</ele><time>2026-05-01T11:03:56Z</time></trkpt><trkpt lat="42.855016895898046" lon="12.59738037185605"><ele>352.0</ele><time>2026-05-01T11:03:57Z</time></trkpt><trkpt lat="42.85506929825454" lon="12.597448881864443"><ele>352.0</ele><time>2026-05-01T11:03:58Z</time></trkpt><trkpt lat="42.855136404873036" lon="12.597561233624326"><ele>352.0</ele><time>2026-05-01T11:04:00Z</time></trkpt><trkpt lat="42.855237636221666" lon="12.597596356514863"><ele>351.57142857142856</ele><time>2026-05-01T11:04:02Z</time></trkpt><trkpt lat="42.85530916683987" lon="12.597586650131694"><ele>351.1428571428571</ele><time>2026-05-01T11:04:03Z</time></trkpt><trkpt lat="42.85538782794752" lon="12.597598069572086"><ele>350.71428571428567</ele><time>2026-05-01T11:04:04Z</time></trkpt><trkpt lat="42.85546024334235" lon="12.597600740413684"><ele>350.2857142857143</ele><time>2026-05-01T11:04:05Z</time></trkpt><trkpt lat="42.855542384122536" lon="12.59760067808858"><ele>349.85714285714283</ele><time>2026-05-01T11:04:06Z</time></trkpt><trkpt lat="42.85560479980358" lon="12.597613836105953"><ele>349.4285714285714</ele><time>2026-05-01T11:04:07Z</time></trkpt><trkpt lat="42.85564371021597" lon="12.597703768405474"><ele>349.0</ele><time>2026-05-01T11:04:10Z</time></trkpt><trkpt lat="42.855628816882316" lon="12.597847324760144"><ele>349.0</ele><time>2026-05-01T11:04:12Z</time></trkpt><trkpt lat="42.85561106375839" lon="12.59794799627274"><ele>349.0</ele><time>2026-05-01T11:04:13Z</time></trkpt><trkpt lat="42.855587841971534" lon="12.598036137951944"><ele>349.0</ele><time>2026-05-01T11:04:14Z</time></trkpt><trkpt lat="42.85555954100106" lon="12.598135210456093"><ele>349.0</ele><time>2026-05-01T11:04:15Z</time></trkpt><trkpt lat="42.855542109288955" lon="12.598257503798765"><ele>349.0</ele><time>2026-05-01T11:04:16Z</time></trkpt><trkpt lat="42.85552393531898" lon="12.5983822102197"><ele>349.0</ele><time>2026-05-01T11:04:17Z</time></trkpt><trkpt lat="42.85550362273064" lon="12.598506556796144"><ele>349.0</ele><time>2026-05-01T11:04:18Z</time></trkpt><trkpt lat="42.855485739174604" lon="12.598628282030512"><ele>349.0</ele><time>2026-05-01T11:04:19Z</time></trkpt><trkpt lat="42.85547174974233" lon="12.598730739049719"><ele>349.0</ele><time>2026-05-01T11:04:20Z</time></trkpt><trkpt lat="42.85544847510104" lon="12.598849379069733"><ele>349.0</ele><time>2026-05-01T11:04:21Z</time></trkpt><trkpt lat="42.855421775358444" lon="12.598968274825996"><ele>349.0</ele><time>2026-05-01T11:04:22Z</time></trkpt><trkpt lat="42.85539106291811" lon="12.59908596055475"><ele>349.0</ele><time>2026-05-01T11:04:23Z</time></trkpt><trkpt lat="42.855364214887466" lon="12.599200801290877"><ele>349.0</ele><time>2026-05-01T11:04:24Z</time></trkpt><trkpt lat="42.85534539908285" lon="12.599291989330178"><ele>349.0</ele><time>2026-05-01T11:04:25Z</time></trkpt><trkpt lat="42.855308930694825" lon="12.599412792334176"><ele>349.0</ele><time>2026-05-01T11:04:27Z</time></trkpt><trkpt lat="42.85527402346103" lon="12.599489585519558"><ele>349.0</ele><time>2026-05-01T11:04:30Z</time></trkpt><trkpt lat="42.85516971181128" lon="12.599387345450932"><ele>349.0</ele><time>2026-05-01T11:04:32Z</time></trkpt><trkpt lat="42.855110694012026" lon="12.599348223442096"><ele>349.0</ele><time>2026-05-01T11:04:33Z</time></trkpt><trkpt lat="42.855051322718985" lon="12.599308867100223"><ele>349.0</ele><time>2026-05-01T11:04:34Z</time></trkpt><trkpt lat="42.85499307192756" lon="12.59927025360727"><ele>349.0</ele><time>2026-05-01T11:04:35Z</time></trkpt><trkpt lat="42.8548818884623" lon="12.59919370380975"><ele>349.0</ele><time>2026-05-01T11:04:37Z</time></trkpt><trkpt lat="42.854825270609204" lon="12.599151497797411"><ele>349.0</ele><time>2026-05-01T11:04:38Z</time></trkpt><trkpt lat="42.85476260236311" lon="12.599102102673923"><ele>349.0</ele><time>2026-05-01T11:04:39Z</time></trkpt><trkpt lat="42.85466528060847" lon="12.599019311588062"><ele>349.0</ele><time>2026-05-01T11:04:41Z</time></trkpt><trkpt lat="42.85460548791542" lon="12.598960888932359"><ele>349.0</ele><time>2026-05-01T11:04:42Z</time></trkpt><trkpt lat="42.854536641555846" lon="12.598885651783135"><ele>349.0</ele><time>2026-05-01T11:04:43Z</time></trkpt><trkpt lat="42.854467032365974" lon="12.598801562897885"><ele>349.0</ele><time>2026-05-01T11:04:44Z</time></trkpt><trkpt lat="42.85439624256536" lon="12.59871668687153"><ele>349.0</ele><time>2026-05-01T11:04:45Z</time></trkpt><trkpt lat="42.854320372726676" lon="12.598656520122802"><ele>349.0</ele><time>2026-05-01T11:04:46Z</time></trkpt><trkpt lat="42.85425734634964" lon="12.59857665407518"><ele>349.0</ele><time>2026-05-01T11:04:47Z</time></trkpt><trkpt lat="42.85417949443757" lon="12.598515865600604"><ele>350.0</ele><time>2026-05-01T11:04:48Z</time></trkpt><trkpt lat="42.85410076003288" lon="12.598433344110356"><ele>351.0</ele><time>2026-05-01T11:04:49Z</time></trkpt><trkpt lat="42.85400269897892" lon="12.598394825634719"><ele>352.0</ele><time>2026-05-01T11:04:50Z</time></trkpt><trkpt lat="42.853910091899735" lon="12.598328367409383"><ele>353.0</ele><time>2026-05-01T11:04:51Z</time></trkpt><trkpt lat="42.85379972736189" lon="12.598276424025949"><ele>354.0</ele><time>2026-05-01T11:04:52Z</time></trkpt><trkpt lat="42.853689339313924" lon="12.598221949584364"><ele>354.0</ele><time>2026-05-01T11:04:53Z</time></trkpt><trkpt lat="42.85358414959747" lon="12.598174665823375"><ele>354.0</ele><time>2026-05-01T11:04:54Z</time></trkpt><trkpt lat="42.85347799479123" lon="12.59813825494881"><ele>354.0</ele><time>2026-05-01T11:04:55Z</time></trkpt><trkpt lat="42.85337578392916" lon="12.59811319183323"><ele>354.0</ele><time>2026-05-01T11:04:56Z</time></trkpt><trkpt lat="42.853268538610315" lon="12.598096582622468"><ele>354.0</ele><time>2026-05-01T11:04:57Z</time></trkpt><trkpt lat="42.85316126868658" lon="12.5980589354101"><ele>354.6</ele><time>2026-05-01T11:04:58Z</time></trkpt><trkpt lat="42.85304912195378" lon="12.5980729196737"><ele>355.2</ele><time>2026-05-01T11:04:59Z</time></trkpt><trkpt lat="42.8529376128526" lon="12.598059281447766"><ele>355.8</ele><time>2026-05-01T11:05:00Z</time></trkpt><trkpt lat="42.85282765808646" lon="12.59806034465528"><ele>356.40000000000003</ele><time>2026-05-01T11:05:01Z</time></trkpt><trkpt lat="42.8527224226306" lon="12.598042111418309"><ele>357.0</ele><time>2026-05-01T11:05:02Z</time></trkpt><trkpt lat="42.852618355910636" lon="12.598060947224798"><ele>357.5</ele><time>2026-05-01T11:05:03Z</time></trkpt><trkpt lat="42.85251062682454" lon="12.598025585030461"><ele>358.0</ele><time>2026-05-01T11:05:04Z</time></trkpt><trkpt lat="42.852390036811286" lon="12.59798780707977"><ele>358.5</ele><time>2026-05-01T11:05:05Z</time></trkpt><trkpt lat="42.85225891927286" lon="12.597934918207706"><ele>359.0</ele><time>2026-05-01T11:05:06Z</time></trkpt><trkpt lat="42.85213023307757" lon="12.597881352136628"><ele>358.75</ele><time>2026-05-01T11:05:07Z</time></trkpt><trkpt lat="42.851992223559456" lon="12.597827058799508"><ele>358.5</ele><time>2026-05-01T11:05:08Z</time></trkpt><trkpt lat="42.85185446528925" lon="12.597772864429487"><ele>358.25</ele><time>2026-05-01T11:05:09Z</time></trkpt><trkpt lat="42.85171456726005" lon="12.597743030878961"><ele>358.0</ele><time>2026-05-01T11:05:10Z</time></trkpt><trkpt lat="42.851566966829594" lon="12.597688697905689"><ele>358.79999999999995</ele><time>2026-05-01T11:05:11Z</time></trkpt><trkpt lat="42.851433917737474" lon="12.597619838428658"><ele>359.6</ele><time>2026-05-01T11:05:12Z</time></trkpt><trkpt lat="42.85132548961797" lon="12.597585037090086"><ele>360.4</ele><time>2026-05-01T11:05:13Z</time></trkpt><trkpt lat="42.85124448192113" lon="12.59756186450477"><ele>361.20000000000005</ele><time>2026-05-01T11:05:14Z</time></trkpt><trkpt lat="42.85116968598159" lon="12.597564581500041"><ele>362.0</ele><time>2026-05-01T11:05:15Z</time></trkpt><trkpt lat="42.85110346950332" lon="12.597555939916735"><ele>362.0</ele><time>2026-05-01T11:05:16Z</time></trkpt><trkpt lat="42.85101975849087" lon="12.597556843359875"><ele>362.0</ele><time>2026-05-01T11:05:17Z</time></trkpt><trkpt lat="42.85093019828266" lon="12.597558506159364"><ele>362.0</ele><time>2026-05-01T11:05:18Z</time></trkpt><trkpt lat="42.85085146732647" lon="12.597519414723179"><ele>362.0</ele><time>2026-05-01T11:05:19Z</time></trkpt><trkpt lat="42.85077684603029" lon="12.597498459042093"><ele>362.0</ele><time>2026-05-01T11:05:20Z</time></trkpt><trkpt lat="42.85069503922184" lon="12.597464569781602"><ele>362.0</ele><time>2026-05-01T11:05:21Z</time></trkpt><trkpt lat="42.85061212681548" lon="12.59744006785604"><ele>362.40000000000003</ele><time>2026-05-01T11:05:22Z</time></trkpt><trkpt lat="42.85053923560998" lon="12.597370660930071"><ele>362.8</ele><time>2026-05-01T11:05:23Z</time></trkpt><trkpt lat="42.85046880131801" lon="12.597327881707109"><ele>363.2</ele><time>2026-05-01T11:05:24Z</time></trkpt><trkpt lat="42.850401326997336" lon="12.59731563777282"><ele>363.6</ele><time>2026-05-01T11:05:25Z</time></trkpt><trkpt lat="42.850289159911654" lon="12.597243866762717"><ele>364.0</ele><time>2026-05-01T11:05:27Z</time></trkpt><trkpt lat="42.85018003683789" lon="12.597179060700917"><ele>364.25</ele><time>2026-05-01T11:05:29Z</time></trkpt><trkpt lat="42.85011707753859" lon="12.597113494955808"><ele>364.5</ele><time>2026-05-01T11:05:30Z</time></trkpt><trkpt lat="42.84996005901424" lon="12.596932217922069"><ele>364.75</ele><time>2026-05-01T11:05:32Z</time></trkpt><trkpt lat="42.84986532663204" lon="12.596869737680123"><ele>365.0</ele><time>2026-05-01T11:05:33Z</time></trkpt><trkpt lat="42.84975321265676" lon="12.596778876711152"><ele>365.4</ele><time>2026-05-01T11:05:34Z</time></trkpt><trkpt lat="42.84964330459965" lon="12.596665745770883"><ele>365.8</ele><time>2026-05-01T11:05:35Z</time></trkpt><trkpt lat="42.849548801640196" lon="12.596589303613332"><ele>366.20000000000005</ele><time>2026-05-01T11:05:36Z</time></trkpt><trkpt lat="42.84948020051316" lon="12.596527269057209"><ele>366.6</ele><time>2026-05-01T11:05:37Z</time></trkpt><trkpt lat="42.84940488587735" lon="12.596440330197547"><ele>367.0</ele><time>2026-05-01T11:05:38Z</time></trkpt><trkpt lat="42.84932541279128" lon="12.596315192498675"><ele>367.75</ele><time>2026-05-01T11:05:39Z</time></trkpt><trkpt lat="42.849240317444966" lon="12.59618417141001"><ele>368.5</ele><time>2026-05-01T11:05:40Z</time></trkpt><trkpt lat="42.849150810309396" lon="12.59606167575047"><ele>369.25</ele><time>2026-05-01T11:05:41Z</time></trkpt><trkpt lat="42.849071348483946" lon="12.595931090419603"><ele>370.0</ele><time>2026-05-01T11:05:42Z</time></trkpt><trkpt lat="42.848965548053734" lon="12.595838316331703"><ele>370.0</ele><time>2026-05-01T11:05:43Z</time></trkpt><trkpt lat="42.848866591197016" lon="12.595725262696186"><ele>370.0</ele><time>2026-05-01T11:05:44Z</time></trkpt><trkpt lat="42.84876654897709" lon="12.595605989779576"><ele>370.0</ele><time>2026-05-01T11:05:45Z</time></trkpt><trkpt lat="42.848668400744366" lon="12.5954973817304"><ele>370.0</ele><time>2026-05-01T11:05:46Z</time></trkpt><trkpt lat="42.84856658435067" lon="12.595384305288821"><ele>369.75</ele><time>2026-05-01T11:05:47Z</time></trkpt><trkpt lat="42.84846942768007" lon="12.595281740724658"><ele>369.5</ele><time>2026-05-01T11:05:48Z</time></trkpt><trkpt lat="42.848373162687274" lon="12.595190937789841"><ele>369.25</ele><time>2026-05-01T11:05:49Z</time></trkpt><trkpt lat="42.84826424038364" lon="12.595125675439384"><ele>369.0</ele><time>2026-05-01T11:05:50Z</time></trkpt><trkpt lat="42.848165919317616" lon="12.5950465027279"><ele>369.79999999999995</ele><time>2026-05-01T11:05:51Z</time></trkpt><trkpt lat="42.84808386717214" lon="12.594965759227913"><ele>370.59999999999997</ele><time>2026-05-01T11:05:52Z</time></trkpt><trkpt lat="42.84802267717432" lon="12.594921243696538"><ele>371.4</ele><time>2026-05-01T11:05:53Z</time></trkpt><trkpt lat="42.847932236926646" lon="12.594864429184735"><ele>372.2</ele><time>2026-05-01T11:05:55Z</time></trkpt><trkpt lat="42.847819548698155" lon="12.594850968194747"><ele>373.0</ele><time>2026-05-01T11:05:57Z</time></trkpt><trkpt lat="42.84777060927302" lon="12.594956758914678"><ele>373.0</ele><time>2026-05-01T11:05:58Z</time></trkpt><trkpt lat="42.84772322621036" lon="12.595016738939089"><ele>373.0</ele><time>2026-05-01T11:05:59Z</time></trkpt><trkpt lat="42.84765327895916" lon="12.59508931776825"><ele>373.0</ele><time>2026-05-01T11:06:00Z</time></trkpt><trkpt lat="42.84758222415075" lon="12.595181060511734"><ele>373.0</ele><time>2026-05-01T11:06:01Z</time></trkpt><trkpt lat="42.84751050925892" lon="12.595261312693149"><ele>373.0</ele><time>2026-05-01T11:06:02Z</time></trkpt><trkpt lat="42.84742561422496" lon="12.595349953260444"><ele>373.25</ele><time>2026-05-01T11:06:03Z</time></trkpt><trkpt lat="42.84732198698236" lon="12.595421309123665"><ele>373.5</ele><time>2026-05-01T11:06:04Z</time></trkpt><trkpt lat="42.8472215124347" lon="12.595513285453876"><ele>373.75</ele><time>2026-05-01T11:06:05Z</time></trkpt><trkpt lat="42.84712790383435" lon="12.595607126504886"><ele>374.0</ele><time>2026-05-01T11:06:06Z</time></trkpt><trkpt lat="42.8470443819023" lon="12.595712744364874"><ele>374.0</ele><time>2026-05-01T11:06:07Z</time></trkpt><trkpt lat="42.84696998214967" lon="12.595822673871716"><ele>374.0</ele><time>2026-05-01T11:06:08Z</time></trkpt><trkpt lat="42.84691622450101" lon="12.595942618188348"><ele>374.0</ele><time>2026-05-01T11:06:09Z</time></trkpt><trkpt lat="42.84685783595583" lon="12.59603449784516"><ele>374.0</ele><time>2026-05-01T11:06:10Z</time></trkpt><trkpt lat="42.84679992029917" lon="12.596123453866328"><ele>374.0</ele><time>2026-05-01T11:06:11Z</time></trkpt><trkpt lat="42.846744751597626" lon="12.596200879951265"><ele>373.79999999999995</ele><time>2026-05-01T11:06:12Z</time></trkpt><trkpt lat="42.846678543640024" lon="12.596293189841706"><ele>373.59999999999997</ele><time>2026-05-01T11:06:13Z</time></trkpt><trkpt lat="42.84660317437053" lon="12.59638616395185"><ele>373.4</ele><time>2026-05-01T11:06:14Z</time></trkpt><trkpt lat="42.84652793615127" lon="12.596478061838049"><ele>373.2</ele><time>2026-05-01T11:06:15Z</time></trkpt><trkpt lat="42.84646159363128" lon="12.596567272143442"><ele>373.0</ele><time>2026-05-01T11:06:16Z</time></trkpt><trkpt lat="42.84639147439109" lon="12.596661044611587"><ele>373.0</ele><time>2026-05-01T11:06:17Z</time></trkpt><trkpt lat="42.84631291680649" lon="12.596771044229486"><ele>373.0</ele><time>2026-05-01T11:06:18Z</time></trkpt><trkpt lat="42.84622579435208" lon="12.59689185012597"><ele>373.0</ele><time>2026-05-01T11:06:19Z</time></trkpt><trkpt lat="42.846127028895474" lon="12.59699266525243"><ele>373.0</ele><time>2026-05-01T11:06:20Z</time></trkpt><trkpt lat="42.8460356914602" lon="12.597105579229508"><ele>374.0</ele><time>2026-05-01T11:06:21Z</time></trkpt><trkpt lat="42.8459543034225" lon="12.597232229597868"><ele>375.0</ele><time>2026-05-01T11:06:22Z</time></trkpt><trkpt lat="42.845861477870464" lon="12.59732558791586"><ele>376.0</ele><time>2026-05-01T11:06:23Z</time></trkpt><trkpt lat="42.84579600857769" lon="12.597413426579198"><ele>377.0</ele><time>2026-05-01T11:06:24Z</time></trkpt><trkpt lat="42.84574516751294" lon="12.597488954776972"><ele>378.0</ele><time>2026-05-01T11:06:25Z</time></trkpt><trkpt lat="42.845701469928386" lon="12.597557685692921"><ele>378.0</ele><time>2026-05-01T11:06:26Z</time></trkpt><trkpt lat="42.84564271921044" lon="12.597651842661326"><ele>378.0</ele><time>2026-05-01T11:06:28Z</time></trkpt><trkpt lat="42.84553667630628" lon="12.597577654882366"><ele>378.0</ele><time>2026-05-01T11:06:33Z</time></trkpt><trkpt lat="42.84548478599535" lon="12.597486380089613"><ele>378.0</ele><time>2026-05-01T11:06:34Z</time></trkpt><trkpt lat="42.84537968897001" lon="12.597363641939472"><ele>378.0</ele><time>2026-05-01T11:06:36Z</time></trkpt><trkpt lat="42.8453091414174" lon="12.597263749589644"><ele>378.0</ele><time>2026-05-01T11:06:37Z</time></trkpt><trkpt lat="42.84522777858185" lon="12.597162955543498"><ele>378.0</ele><time>2026-05-01T11:06:38Z</time></trkpt><trkpt lat="42.84514319550397" lon="12.59706756503037"><ele>378.0</ele><time>2026-05-01T11:06:39Z</time></trkpt><trkpt lat="42.84502308661688" lon="12.596965594820867"><ele>378.0</ele><time>2026-05-01T11:06:40Z</time></trkpt><trkpt lat="42.84488785476617" lon="12.596873884682827"><ele>379.6666666666667</ele><time>2026-05-01T11:06:41Z</time></trkpt><trkpt lat="42.84474085692943" lon="12.596819112050648"><ele>381.33333333333337</ele><time>2026-05-01T11:06:42Z</time></trkpt><trkpt lat="42.84459257215807" lon="12.596771733590652"><ele>383.0</ele><time>2026-05-01T11:06:43Z</time></trkpt><trkpt lat="42.8444351329455" lon="12.596691076684866"><ele>383.33333333333337</ele><time>2026-05-01T11:06:44Z</time></trkpt><trkpt lat="42.844265325923935" lon="12.596642135115825"><ele>383.6666666666667</ele><time>2026-05-01T11:06:45Z</time></trkpt><trkpt lat="42.84409057795636" lon="12.596554717036632"><ele>384.0</ele><time>2026-05-01T11:06:46Z</time></trkpt><trkpt lat="42.84392442290809" lon="12.596456744419864"><ele>384.0</ele><time>2026-05-01T11:06:47Z</time></trkpt><trkpt lat="42.8437603190775" lon="12.596351842269256"><ele>384.0</ele><time>2026-05-01T11:06:48Z</time></trkpt><trkpt lat="42.843599793495564" lon="12.596231997842148"><ele>384.0</ele><time>2026-05-01T11:06:49Z</time></trkpt><trkpt lat="42.84343100805801" lon="12.596102583220782"><ele>385.66666666666663</ele><time>2026-05-01T11:06:50Z</time></trkpt><trkpt lat="42.843280177039986" lon="12.595954616312936"><ele>387.3333333333333</ele><time>2026-05-01T11:06:51Z</time></trkpt><trkpt lat="42.84314240765714" lon="12.595830408231397"><ele>389.0</ele><time>2026-05-01T11:06:52Z</time></trkpt><trkpt lat="42.84301454671264" lon="12.595683739582054"><ele>389.0</ele><time>2026-05-01T11:06:53Z</time></trkpt><trkpt lat="42.84287597462886" lon="12.595529926410627"><ele>389.0</ele><time>2026-05-01T11:06:54Z</time></trkpt><trkpt lat="42.84278424674675" lon="12.595357266265188"><ele>389.0</ele><time>2026-05-01T11:06:55Z</time></trkpt><trkpt lat="42.84269630262075" lon="12.595251632053"><ele>389.16666666666663</ele><time>2026-05-01T11:06:56Z</time></trkpt><trkpt lat="42.8426491932522" lon="12.59518262748883"><ele>389.3333333333333</ele><time>2026-05-01T11:06:57Z</time></trkpt><trkpt lat="42.842603504453514" lon="12.59507053303558"><ele>389.5</ele><time>2026-05-01T11:07:00Z</time></trkpt><trkpt lat="42.84254716329654" lon="12.59502620765837"><ele>389.66666666666663</ele><time>2026-05-01T11:07:01Z</time></trkpt><trkpt lat="42.84248169146195" lon="12.594968482463045"><ele>389.8333333333333</ele><time>2026-05-01T11:07:02Z</time></trkpt><trkpt lat="42.84242830713824" lon="12.594868539043704"><ele>390.0</ele><time>2026-05-01T11:07:03Z</time></trkpt><trkpt lat="42.842366484972175" lon="12.594756420945378"><ele>389.6</ele><time>2026-05-01T11:07:04Z</time></trkpt><trkpt lat="42.842310893909705" lon="12.59462917199801"><ele>389.2</ele><time>2026-05-01T11:07:05Z</time></trkpt><trkpt lat="42.84225713373938" lon="12.594510964233052"><ele>388.79999999999995</ele><time>2026-05-01T11:07:06Z</time></trkpt><trkpt lat="42.84222784071828" lon="12.594380493043735"><ele>388.4</ele><time>2026-05-01T11:07:07Z</time></trkpt><trkpt lat="42.84218178554732" lon="12.594223188010735"><ele>388.0</ele><time>2026-05-01T11:07:08Z</time></trkpt><trkpt lat="42.84211781905891" lon="12.594046293325482"><ele>390.0</ele><time>2026-05-01T11:07:09Z</time></trkpt><trkpt lat="42.84206882916622" lon="12.593853367761293"><ele>392.0</ele><time>2026-05-01T11:07:10Z</time></trkpt><trkpt lat="42.84201426775406" lon="12.593654757258571"><ele>394.0</ele><time>2026-05-01T11:07:11Z</time></trkpt><trkpt lat="42.8419497253231" lon="12.593471524300314"><ele>395.0</ele><time>2026-05-01T11:07:12Z</time></trkpt><trkpt lat="42.841875496989466" lon="12.59330335702233"><ele>396.0</ele><time>2026-05-01T11:07:13Z</time></trkpt><trkpt lat="42.84178420242543" lon="12.593129113387395"><ele>397.0</ele><time>2026-05-01T11:07:14Z</time></trkpt><trkpt lat="42.84168518974602" lon="12.592972679106776"><ele>399.33333333333337</ele><time>2026-05-01T11:07:15Z</time></trkpt><trkpt lat="42.84160923624955" lon="12.592801035820008"><ele>401.66666666666663</ele><time>2026-05-01T11:07:16Z</time></trkpt><trkpt lat="42.841520608810974" lon="12.592615753426514"><ele>404.0</ele><time>2026-05-01T11:07:17Z</time></trkpt><trkpt lat="42.841422368118515" lon="12.592410372872154"><ele>404.0</ele><time>2026-05-01T11:07:18Z</time></trkpt><trkpt lat="42.84132458798302" lon="12.592205956128774"><ele>404.0</ele><time>2026-05-01T11:07:19Z</time></trkpt><trkpt lat="42.84122875809004" lon="12.592005967986866"><ele>404.0</ele><time>2026-05-01T11:07:20Z</time></trkpt><trkpt lat="42.84114653178497" lon="12.591838171849494"><ele>404.0</ele><time>2026-05-01T11:07:21Z</time></trkpt><trkpt lat="42.841069487548324" lon="12.59168292858127"><ele>404.0</ele><time>2026-05-01T11:07:22Z</time></trkpt><trkpt lat="42.8409874678304" lon="12.591520409651654"><ele>404.0</ele><time>2026-05-01T11:07:23Z</time></trkpt><trkpt lat="42.840903578105916" lon="12.591353211927608"><ele>404.0</ele><time>2026-05-01T11:07:24Z</time></trkpt><trkpt lat="42.8408246217835" lon="12.591193154876676"><ele>407.0</ele><time>2026-05-01T11:07:25Z</time></trkpt><trkpt lat="42.840745164570535" lon="12.591028790639081"><ele>410.0</ele><time>2026-05-01T11:07:26Z</time></trkpt><trkpt lat="42.84066472042117" lon="12.59083978024014"><ele>413.0</ele><time>2026-05-01T11:07:27Z</time></trkpt><trkpt lat="42.84058617463635" lon="12.59063915649432"><ele>413.0</ele><time>2026-05-01T11:07:28Z</time></trkpt><trkpt lat="42.840511801809754" lon="12.590453162523954"><ele>413.0</ele><time>2026-05-01T11:07:29Z</time></trkpt><trkpt lat="42.84044592436063" lon="12.59029235084039"><ele>413.0</ele><time>2026-05-01T11:07:30Z</time></trkpt><trkpt lat="42.84037035826022" lon="12.590161321931221"><ele>413.0</ele><time>2026-05-01T11:07:31Z</time></trkpt><trkpt lat="42.84029840759014" lon="12.590028684185242"><ele>412.66666666666663</ele><time>2026-05-01T11:07:32Z</time></trkpt><trkpt lat="42.84020232913207" lon="12.589875336932232"><ele>412.33333333333337</ele><time>2026-05-01T11:07:33Z</time></trkpt><trkpt lat="42.84010514231403" lon="12.589712671559559"><ele>412.0</ele><time>2026-05-01T11:07:34Z</time></trkpt><trkpt lat="42.839994512405774" lon="12.589563370901939"><ele>413.75</ele><time>2026-05-01T11:07:35Z</time></trkpt><trkpt lat="42.839891407858474" lon="12.58943148112116"><ele>415.5</ele><time>2026-05-01T11:07:36Z</time></trkpt><trkpt lat="42.839773974645254" lon="12.58931582204767"><ele>417.25</ele><time>2026-05-01T11:07:37Z</time></trkpt><trkpt lat="42.83966767844363" lon="12.58919452072923"><ele>419.0</ele><time>2026-05-01T11:07:38Z</time></trkpt><trkpt lat="42.83954603112339" lon="12.589083068567826"><ele>419.0</ele><time>2026-05-01T11:07:39Z</time></trkpt><trkpt lat="42.83944372099383" lon="12.588968181364542"><ele>419.0</ele><time>2026-05-01T11:07:40Z</time></trkpt><trkpt lat="42.839341068508894" lon="12.58887633293556"><ele>419.0</ele><time>2026-05-01T11:07:41Z</time></trkpt><trkpt lat="42.839217572967" lon="12.588791272038767"><ele>419.0</ele><time>2026-05-01T11:07:42Z</time></trkpt><trkpt lat="42.839094079702875" lon="12.588683864264516"><ele>420.0</ele><time>2026-05-01T11:07:43Z</time></trkpt><trkpt lat="42.8389713540573" lon="12.588577504808448"><ele>421.0</ele><time>2026-05-01T11:07:44Z</time></trkpt><trkpt lat="42.83883752326228" lon="12.588475451199288"><ele>422.0</ele><time>2026-05-01T11:07:45Z</time></trkpt><trkpt lat="42.83872159292775" lon="12.588336134625372"><ele>422.0</ele><time>2026-05-01T11:07:46Z</time></trkpt><trkpt lat="42.838587351003326" lon="12.588225221689319"><ele>422.0</ele><time>2026-05-01T11:07:47Z</time></trkpt><trkpt lat="42.838458892646244" lon="12.588105419127524"><ele>422.0</ele><time>2026-05-01T11:07:48Z</time></trkpt><trkpt lat="42.83833414257571" lon="12.588001467868683"><ele>423.0</ele><time>2026-05-01T11:07:49Z</time></trkpt><trkpt lat="42.838204314427394" lon="12.587902475430923"><ele>424.0</ele><time>2026-05-01T11:07:50Z</time></trkpt><trkpt lat="42.838080487593764" lon="12.587815385378574"><ele>425.0</ele><time>2026-05-01T11:07:51Z</time></trkpt><trkpt lat="42.83796858420242" lon="12.587698174609969"><ele>426.0</ele><time>2026-05-01T11:07:52Z</time></trkpt><trkpt lat="42.83787269436845" lon="12.58760124181996"><ele>426.0</ele><time>2026-05-01T11:07:53Z</time></trkpt><trkpt lat="42.8377870792718" lon="12.587509424498611"><ele>426.0</ele><time>2026-05-01T11:07:54Z</time></trkpt><trkpt lat="42.83769862385511" lon="12.58743445186698"><ele>426.0</ele><time>2026-05-01T11:07:55Z</time></trkpt><trkpt lat="42.837594145958526" lon="12.587363849711869"><ele>426.0</ele><time>2026-05-01T11:07:56Z</time></trkpt><trkpt lat="42.83745550765434" lon="12.587301863104926"><ele>428.33333333333337</ele><time>2026-05-01T11:07:57Z</time></trkpt><trkpt lat="42.83728878206094" lon="12.587296543292592"><ele>430.6666666666667</ele><time>2026-05-01T11:07:58Z</time></trkpt><trkpt lat="42.83712076898218" lon="12.58727454770047"><ele>433.0</ele><time>2026-05-01T11:07:59Z</time></trkpt><trkpt lat="42.836940421999465" lon="12.587279191087148"><ele>436.33333333333337</ele><time>2026-05-01T11:08:00Z</time></trkpt><trkpt lat="42.83676255238218" lon="12.587259841856614"><ele>439.66666666666663</ele><time>2026-05-01T11:08:01Z</time></trkpt><trkpt lat="42.83660603066764" lon="12.58725652733032"><ele>443.0</ele><time>2026-05-01T11:08:02Z</time></trkpt><trkpt lat="42.83648175230884" lon="12.587257239498474"><ele>443.0</ele><time>2026-05-01T11:08:03Z</time></trkpt><trkpt lat="42.836250560925954" lon="12.58730824917355"><ele>443.0</ele><time>2026-05-01T11:08:05Z</time></trkpt><trkpt lat="42.83610904687524" lon="12.58737117173748"><ele>443.0</ele><time>2026-05-01T11:08:06Z</time></trkpt><trkpt lat="42.83596698660318" lon="12.587437195155488"><ele>444.0</ele><time>2026-05-01T11:08:07Z</time></trkpt><trkpt lat="42.835821325549766" lon="12.587468290011481"><ele>445.0</ele><time>2026-05-01T11:08:08Z</time></trkpt><trkpt lat="42.83568214170104" lon="12.587541206382838"><ele>446.0</ele><time>2026-05-01T11:08:09Z</time></trkpt><trkpt lat="42.8355347600333" lon="12.587528950140191"><ele>447.0</ele><time>2026-05-01T11:08:10Z</time></trkpt><trkpt lat="42.83540881054976" lon="12.587522781058476"><ele>447.0</ele><time>2026-05-01T11:08:11Z</time></trkpt><trkpt lat="42.83530678701961" lon="12.58752087370571"><ele>447.0</ele><time>2026-05-01T11:08:12Z</time></trkpt><trkpt lat="42.83522013020343" lon="12.587543409691936"><ele>447.0</ele><time>2026-05-01T11:08:13Z</time></trkpt><trkpt lat="42.83514051514711" lon="12.587522192017582"><ele>447.0</ele><time>2026-05-01T11:08:14Z</time></trkpt><trkpt lat="42.8350703057824" lon="12.587529493342153"><ele>447.0</ele><time>2026-05-01T11:08:15Z</time></trkpt><trkpt lat="42.83500603899158" lon="12.58754348476119"><ele>447.0</ele><time>2026-05-01T11:08:16Z</time></trkpt><trkpt lat="42.83493861194365" lon="12.587576824996686"><ele>447.20000000000005</ele><time>2026-05-01T11:08:17Z</time></trkpt><trkpt lat="42.834877670131796" lon="12.587684457149166"><ele>447.40000000000003</ele><time>2026-05-01T11:08:18Z</time></trkpt><trkpt lat="42.834817472894336" lon="12.58778533486418"><ele>447.59999999999997</ele><time>2026-05-01T11:08:19Z</time></trkpt><trkpt lat="42.834742362719595" lon="12.587891489112197"><ele>447.79999999999995</ele><time>2026-05-01T11:08:20Z</time></trkpt><trkpt lat="42.83465751324289" lon="12.588010143702586"><ele>448.0</ele><time>2026-05-01T11:08:21Z</time></trkpt><trkpt lat="42.83456637885294" lon="12.588132579525931"><ele>448.0</ele><time>2026-05-01T11:08:22Z</time></trkpt><trkpt lat="42.83447853225894" lon="12.588243043190637"><ele>448.0</ele><time>2026-05-01T11:08:23Z</time></trkpt><trkpt lat="42.834390673808706" lon="12.588351062434178"><ele>448.0</ele><time>2026-05-01T11:08:24Z</time></trkpt><trkpt lat="42.834297129107036" lon="12.588461878166065"><ele>448.0</ele><time>2026-05-01T11:08:25Z</time></trkpt><trkpt lat="42.83420741035254" lon="12.588600568160079"><ele>449.0</ele><time>2026-05-01T11:08:26Z</time></trkpt><trkpt lat="42.83411631771415" lon="12.588726019782996"><ele>450.0</ele><time>2026-05-01T11:08:27Z</time></trkpt><trkpt lat="42.83403454600053" lon="12.588851970837569"><ele>451.0</ele><time>2026-05-01T11:08:28Z</time></trkpt><trkpt lat="42.83397459448621" lon="12.58898420003221"><ele>452.0</ele><time>2026-05-01T11:08:29Z</time></trkpt><trkpt lat="42.83391244291589" lon="12.589100027217729"><ele>452.0</ele><time>2026-05-01T11:08:30Z</time></trkpt><trkpt lat="42.83387164955435" lon="12.589207782612156"><ele>452.00000000000006</ele><time>2026-05-01T11:08:31Z</time></trkpt><trkpt lat="42.833844310436255" lon="12.589339068426154"><ele>452.00000000000006</ele><time>2026-05-01T11:08:33Z</time></trkpt><trkpt lat="42.83376871426336" lon="12.58929501166302"><ele>452.0</ele><time>2026-05-01T11:08:36Z</time></trkpt><trkpt lat="42.83372727149289" lon="12.589194907845984"><ele>452.0</ele><time>2026-05-01T11:08:38Z</time></trkpt><trkpt lat="42.83370704123926" lon="12.589048656108083"><ele>451.99999999999994</ele><time>2026-05-01T11:08:40Z</time></trkpt><trkpt lat="42.833611132944995" lon="12.588943339154522"><ele>452.0</ele><time>2026-05-01T11:08:42Z</time></trkpt><trkpt lat="42.83354725327027" lon="12.588905021317903"><ele>452.0</ele><time>2026-05-01T11:08:43Z</time></trkpt><trkpt lat="42.833505631783744" lon="12.588838389443632"><ele>452.0</ele><time>2026-05-01T11:08:44Z</time></trkpt><trkpt lat="42.833455563315056" lon="12.588775173686686"><ele>451.99999999999994</ele><time>2026-05-01T11:08:45Z</time></trkpt><trkpt lat="42.83337823631329" lon="12.588697095188586"><ele>452.0</ele><time>2026-05-01T11:08:47Z</time></trkpt><trkpt lat="42.83332947516607" lon="12.588642132168403"><ele>454.3333333333333</ele><time>2026-05-01T11:08:49Z</time></trkpt><trkpt lat="42.83326815441022" lon="12.588569853259349"><ele>456.66666666666663</ele><time>2026-05-01T11:08:52Z</time></trkpt><trkpt lat="42.83318381015236" lon="12.588487398679549"><ele>459.0</ele><time>2026-05-01T11:09:48Z</time></trkpt><trkpt lat="42.8331149880258" lon="12.588457486908274"><ele>461.33333333333337</ele><time>2026-05-01T11:09:49Z</time></trkpt><trkpt lat="42.83305416772906" lon="12.588417582542341"><ele>463.6666666666667</ele><time>2026-05-01T11:09:50Z</time></trkpt><trkpt lat="42.83298593438492" lon="12.588356243935587"><ele>466.0</ele><time>2026-05-01T11:09:51Z</time></trkpt><trkpt lat="42.832888414699134" lon="12.588336797512214"><ele>466.00000000000006</ele><time>2026-05-01T11:09:52Z</time></trkpt><trkpt lat="42.832778132724" lon="12.588296597405273"><ele>466.0</ele><time>2026-05-01T11:09:53Z</time></trkpt><trkpt lat="42.83268308005448" lon="12.588250554837936"><ele>466.0</ele><time>2026-05-01T11:09:54Z</time></trkpt><trkpt lat="42.8326073244266" lon="12.588244672095792"><ele>466.0</ele><time>2026-05-01T11:09:55Z</time></trkpt><trkpt lat="42.83252934623277" lon="12.588191542875949"><ele>466.00000000000006</ele><time>2026-05-01T11:09:56Z</time></trkpt><trkpt lat="42.83246594460926" lon="12.588159313050793"><ele>466.0</ele><time>2026-05-01T11:09:57Z</time></trkpt><trkpt lat="42.83239879714792" lon="12.588125023248908"><ele>465.6</ele><time>2026-05-01T11:09:58Z</time></trkpt><trkpt lat="42.83236093605449" lon="12.588028964459735"><ele>465.20000000000005</ele><time>2026-05-01T11:09:59Z</time></trkpt><trkpt lat="42.832362993117684" lon="12.587902152235502"><ele>464.79999999999995</ele><time>2026-05-01T11:10:00Z</time></trkpt><trkpt lat="42.83233911304544" lon="12.587793833314077"><ele>464.4</ele><time>2026-05-01T11:10:01Z</time></trkpt><trkpt lat="42.83230739359495" lon="12.587692857209168"><ele>464.0</ele><time>2026-05-01T11:10:02Z</time></trkpt><trkpt lat="42.83223778768276" lon="12.587558874682925"><ele>463.99999999999994</ele><time>2026-05-01T11:10:04Z</time></trkpt><trkpt lat="42.83216728944009" lon="12.587528397390999"><ele>464.0</ele><time>2026-05-01T11:10:05Z</time></trkpt><trkpt lat="42.8320973566356" lon="12.587469607551908"><ele>464.0</ele><time>2026-05-01T11:10:06Z</time></trkpt><trkpt lat="42.83200015959583" lon="12.58746810699158"><ele>464.0</ele><time>2026-05-01T11:10:07Z</time></trkpt><trkpt lat="42.83191298651351" lon="12.587426392652889"><ele>463.99999999999994</ele><time>2026-05-01T11:10:08Z</time></trkpt><trkpt lat="42.83184179415723" lon="12.587393262964062"><ele>464.0</ele><time>2026-05-01T11:10:09Z</time></trkpt><trkpt lat="42.83177338963495" lon="12.587329374070208"><ele>467.5</ele><time>2026-05-01T11:10:11Z</time></trkpt><trkpt lat="42.831716971445374" lon="12.587288820537804"><ele>471.0</ele><time>2026-05-01T11:10:15Z</time></trkpt><trkpt lat="42.83165443933734" lon="12.5872145570258"><ele>474.5</ele><time>2026-05-01T11:10:18Z</time></trkpt><trkpt lat="42.83151797876208" lon="12.587428095991534"><ele>478.0</ele><time>2026-05-01T11:10:19Z</time></trkpt><trkpt lat="42.831425937255716" lon="12.58748540121061"><ele>478.0</ele><time>2026-05-01T11:10:21Z</time></trkpt><trkpt lat="42.83134284058486" lon="12.587579408324707"><ele>477.99999999999994</ele><time>2026-05-01T11:10:23Z</time></trkpt><trkpt lat="42.831301987685535" lon="12.58772061107945"><ele>477.99999999999994</ele><time>2026-05-01T11:10:25Z</time></trkpt><trkpt lat="42.831237733619524" lon="12.587841400246054"><ele>478.0</ele><time>2026-05-01T11:10:27Z</time></trkpt><trkpt lat="42.83115664189453" lon="12.587937846464868"><ele>478.0</ele><time>2026-05-01T11:10:29Z</time></trkpt><trkpt lat="42.831104580069145" lon="12.588010653801582"><ele>480.0</ele><time>2026-05-01T11:10:30Z</time></trkpt><trkpt lat="42.831050543134076" lon="12.588074891010194"><ele>481.99999999999994</ele><time>2026-05-01T11:10:31Z</time></trkpt><trkpt lat="42.83095988011091" lon="12.588159109042682"><ele>483.99999999999994</ele><time>2026-05-01T11:10:33Z</time></trkpt><trkpt lat="42.83087876195081" lon="12.588247690955177"><ele>486.0</ele><time>2026-05-01T11:10:35Z</time></trkpt><trkpt lat="42.83086507702202" lon="12.588391946195918"><ele>488.0</ele><time>2026-05-01T11:10:38Z</time></trkpt><trkpt lat="42.830943935147744" lon="12.588488612990451"><ele>487.99999999999994</ele><time>2026-05-01T11:10:40Z</time></trkpt><trkpt lat="42.83102360439368" lon="12.588577848361485"><ele>488.0</ele><time>2026-05-01T11:10:42Z</time></trkpt><trkpt lat="42.83107757307887" lon="12.588655939751757"><ele>488.0</ele><time>2026-05-01T11:10:45Z</time></trkpt><trkpt lat="42.831058081498114" lon="12.588776241659296"><ele>488.0</ele><time>2026-05-01T11:10:49Z</time></trkpt><trkpt lat="42.83096726720613" lon="12.588809071984038"><ele>487.99999999999994</ele><time>2026-05-01T11:10:51Z</time></trkpt><trkpt lat="42.830899371586106" lon="12.588824666384275"><ele>488.0</ele><time>2026-05-01T11:10:53Z</time></trkpt><trkpt lat="42.83081688590834" lon="12.58887292961493"><ele>491.66666666666663</ele><time>2026-05-01T11:10:56Z</time></trkpt><trkpt lat="42.83075463694007" lon="12.588917610729307"><ele>495.3333333333333</ele><time>2026-05-01T11:11:21Z</time></trkpt><trkpt lat="42.830677504174595" lon="12.588912420328167"><ele>499.0</ele><time>2026-05-01T11:11:23Z</time></trkpt><trkpt lat="42.830574521969524" lon="12.588875828086836"><ele>502.66666666666663</ele><time>2026-05-01T11:11:25Z</time></trkpt><trkpt lat="42.83051481647851" lon="12.58884376601172"><ele>506.3333333333333</ele><time>2026-05-01T11:11:27Z</time></trkpt><trkpt lat="42.83043960491511" lon="12.588834976737607"><ele>510.0</ele><time>2026-05-01T11:11:29Z</time></trkpt><trkpt lat="42.83037143568373" lon="12.588915650386454"><ele>510.0</ele><time>2026-05-01T11:11:31Z</time></trkpt><trkpt lat="42.83031053296656" lon="12.589003720962591"><ele>510.0</ele><time>2026-05-01T11:11:33Z</time></trkpt><trkpt lat="42.83023925737857" lon="12.589101926554708"><ele>510.0</ele><time>2026-05-01T11:11:35Z</time></trkpt><trkpt lat="42.83015780472989" lon="12.589209365171996"><ele>510.0</ele><time>2026-05-01T11:11:37Z</time></trkpt><trkpt lat="42.830111990061674" lon="12.589329430603415"><ele>510.0</ele><time>2026-05-01T11:11:39Z</time></trkpt><trkpt lat="42.83002512128361" lon="12.589406836150308"><ele>510.8571428571429</ele><time>2026-05-01T11:11:41Z</time></trkpt><trkpt lat="42.82996285177018" lon="12.589436099705424"><ele>511.7142857142858</ele><time>2026-05-01T11:11:42Z</time></trkpt><trkpt lat="42.82989363260715" lon="12.589463400577106"><ele>512.5714285714286</ele><time>2026-05-01T11:11:43Z</time></trkpt><trkpt lat="42.82981516371694" lon="12.58950162295964"><ele>513.4285714285714</ele><time>2026-05-01T11:11:44Z</time></trkpt><trkpt lat="42.82974133341342" lon="12.589529645092917"><ele>514.2857142857142</ele><time>2026-05-01T11:11:45Z</time></trkpt><trkpt lat="42.829667426957485" lon="12.589546588902758"><ele>515.1428571428571</ele><time>2026-05-01T11:11:46Z</time></trkpt><trkpt lat="42.82959673886413" lon="12.589560238784514"><ele>516.0</ele><time>2026-05-01T11:11:47Z</time></trkpt><trkpt lat="42.82952056715306" lon="12.58957839549366"><ele>516.0</ele><time>2026-05-01T11:11:48Z</time></trkpt><trkpt lat="42.82942321382341" lon="12.589617530577947"><ele>516.0</ele><time>2026-05-01T11:11:50Z</time></trkpt><trkpt lat="42.82930406202534" lon="12.589638617506447"><ele>516.0</ele><time>2026-05-01T11:11:52Z</time></trkpt><trkpt lat="42.82923750108458" lon="12.589652564689702"><ele>516.0</ele><time>2026-05-01T11:11:53Z</time></trkpt><trkpt lat="42.82917336510333" lon="12.58968896877368"><ele>516.0</ele><time>2026-05-01T11:11:54Z</time></trkpt><trkpt lat="42.829092270983196" lon="12.589733556224022"><ele>516.0</ele><time>2026-05-01T11:11:55Z</time></trkpt><trkpt lat="42.82899961995459" lon="12.589768329124514"><ele>518.4285714285713</ele><time>2026-05-01T11:11:56Z</time></trkpt><trkpt lat="42.828933808128156" lon="12.589789601884279"><ele>520.8571428571429</ele><time>2026-05-01T11:11:57Z</time></trkpt><trkpt lat="42.828862708309806" lon="12.589810315248064"><ele>523.2857142857142</ele><time>2026-05-01T11:11:58Z</time></trkpt><trkpt lat="42.828801049951046" lon="12.589833688388435"><ele>525.7142857142857</ele><time>2026-05-01T11:11:59Z</time></trkpt><trkpt lat="42.82872684899061" lon="12.589863410538694"><ele>528.1428571428571</ele><time>2026-05-01T11:12:00Z</time></trkpt><trkpt lat="42.828660563766135" lon="12.589889033594053"><ele>530.5714285714286</ele><time>2026-05-01T11:12:01Z</time></trkpt><trkpt lat="42.82859367650143" lon="12.5899214720444"><ele>533.0</ele><time>2026-05-01T11:12:02Z</time></trkpt><trkpt lat="42.82848009969001" lon="12.589997149209772"><ele>535.2857142857142</ele><time>2026-05-01T11:12:04Z</time></trkpt><trkpt lat="42.82840813199686" lon="12.590064769761094"><ele>537.5714285714286</ele><time>2026-05-01T11:12:05Z</time></trkpt><trkpt lat="42.828344438639206" lon="12.590119412504478"><ele>539.8571428571429</ele><time>2026-05-01T11:12:06Z</time></trkpt><trkpt lat="42.82828315402107" lon="12.59015719032834"><ele>542.1428571428571</ele><time>2026-05-01T11:12:07Z</time></trkpt><trkpt lat="42.828222061086585" lon="12.590188241291306"><ele>544.4285714285714</ele><time>2026-05-01T11:12:08Z</time></trkpt><trkpt lat="42.82816206140642" lon="12.590244401305595"><ele>546.7142857142857</ele><time>2026-05-01T11:12:09Z</time></trkpt><trkpt lat="42.82810710756975" lon="12.59029778115283"><ele>549.0</ele><time>2026-05-01T11:12:10.001Z</time></trkpt><trkpt lat="42.82804791005944" lon="12.590381427190154"><ele>549.0</ele><time>2026-05-01T11:12:11.001Z</time></trkpt><trkpt lat="42.82799249607232" lon="12.590470349829207"><ele>549.0</ele><time>2026-05-01T11:12:12.001Z</time></trkpt><trkpt lat="42.827944213712335" lon="12.590556906651006"><ele>549.0</ele><time>2026-05-01T11:12:13.001Z</time></trkpt><trkpt lat="42.827914628595245" lon="12.590633241732661"><ele>549.0</ele><time>2026-05-01T11:12:14.001Z</time></trkpt><trkpt lat="42.82787207416004" lon="12.59071432740685"><ele>549.0</ele><time>2026-05-01T11:12:15.001Z</time></trkpt><trkpt lat="42.82780370325779" lon="12.590801874225171"><ele>549.0</ele><time>2026-05-01T11:12:17.001Z</time></trkpt><trkpt lat="42.827703564080814" lon="12.590841402655661"><ele>551.6666666666666</ele><time>2026-05-01T11:12:19.001Z</time></trkpt><trkpt lat="42.82759601697057" lon="12.590877124765738"><ele>554.3333333333334</ele><time>2026-05-01T11:12:21.001Z</time></trkpt><trkpt lat="42.8274792588741" lon="12.590922711322008"><ele>557.0</ele><time>2026-05-01T11:12:23.001Z</time></trkpt><trkpt lat="42.82741970556249" lon="12.590968141068867"><ele>559.6666666666667</ele><time>2026-05-01T11:12:24.001Z</time></trkpt><trkpt lat="42.82735712764195" lon="12.59101107957747"><ele>562.3333333333334</ele><time>2026-05-01T11:12:25.001Z</time></trkpt><trkpt lat="42.82730097726106" lon="12.591061600600995"><ele>565.0</ele><time>2026-05-01T11:12:26.001Z</time></trkpt><trkpt lat="42.82723811630653" lon="12.59111609256727"><ele>566.6</ele><time>2026-05-01T11:12:27.001Z</time></trkpt><trkpt lat="42.827188877804346" lon="12.591174688720237"><ele>568.2</ele><time>2026-05-01T11:12:28.001Z</time></trkpt><trkpt lat="42.82714603680571" lon="12.591245277261155"><ele>569.8</ele><time>2026-05-01T11:12:29.001Z</time></trkpt><trkpt lat="42.827070924737406" lon="12.591386016801541"><ele>571.4</ele><time>2026-05-01T11:12:31.001Z</time></trkpt><trkpt lat="42.826997413216105" lon="12.591514591273102"><ele>573.0</ele><time>2026-05-01T11:12:33.001Z</time></trkpt><trkpt lat="42.826974395742866" lon="12.591659081050482"><ele>573.0</ele><time>2026-05-01T11:12:35.001Z</time></trkpt><trkpt lat="42.826940916959536" lon="12.59182290642235"><ele>573.0</ele><time>2026-05-01T11:12:37Z</time></trkpt><trkpt lat="42.826895616986015" lon="12.591907144299103"><ele>573.0</ele><time>2026-05-01T11:12:39Z</time></trkpt><trkpt lat="42.82680311692746" lon="12.591966800541094"><ele>573.0</ele><time>2026-05-01T11:12:41Z</time></trkpt><trkpt lat="42.82669473927052" lon="12.592026169227795"><ele>573.0</ele><time>2026-05-01T11:12:43Z</time></trkpt><trkpt lat="42.8266104367751" lon="12.5920915357177"><ele>576.5</ele><time>2026-05-01T11:12:45Z</time></trkpt><trkpt lat="42.82651023087128" lon="12.592136872002257"><ele>580.0</ele><time>2026-05-01T11:12:47Z</time></trkpt><trkpt lat="42.82640509653994" lon="12.592156970081646"><ele>583.5</ele><time>2026-05-01T11:12:49Z</time></trkpt><trkpt lat="42.82629694860619" lon="12.592201205858744"><ele>587.0</ele><time>2026-05-01T11:12:51Z</time></trkpt><trkpt lat="42.82616977213538" lon="12.592255245135613"><ele>587.0</ele><time>2026-05-01T11:12:53Z</time></trkpt><trkpt lat="42.826086874052386" lon="12.592291582929853"><ele>587.0</ele><time>2026-05-01T11:12:54Z</time></trkpt><trkpt lat="42.82600583076771" lon="12.592332748047038"><ele>587.0</ele><time>2026-05-01T11:12:55Z</time></trkpt><trkpt lat="42.825920367255165" lon="12.592375670706806"><ele>587.0</ele><time>2026-05-01T11:12:56Z</time></trkpt><trkpt lat="42.82584242590191" lon="12.592428509698077"><ele>587.0</ele><time>2026-05-01T11:12:57Z</time></trkpt><trkpt lat="42.82577890781106" lon="12.592492092848074"><ele>587.0</ele><time>2026-05-01T11:12:58Z</time></trkpt><trkpt lat="42.82571332918821" lon="12.592567509107688"><ele>589.0</ele><time>2026-05-01T11:12:59Z</time></trkpt><trkpt lat="42.82564513827295" lon="12.592652879185874"><ele>591.0</ele><time>2026-05-01T11:13:00Z</time></trkpt><trkpt lat="42.825575299067125" lon="12.592723813294922"><ele>593.0</ele><time>2026-05-01T11:13:01Z</time></trkpt><trkpt lat="42.825477735012356" lon="12.592813657921603"><ele>595.0</ele><time>2026-05-01T11:13:03Z</time></trkpt><trkpt lat="42.82543444085173" lon="12.592899415686057"><ele>597.0</ele><time>2026-05-01T11:13:04Z</time></trkpt><trkpt lat="42.82540969301362" lon="12.593009602656371"><ele>597.4</ele><time>2026-05-01T11:13:05Z</time></trkpt><trkpt lat="42.82540046675121" lon="12.593096020225536"><ele>597.8000000000001</ele><time>2026-05-01T11:13:06Z</time></trkpt><trkpt lat="42.82535959966608" lon="12.593191191576555"><ele>598.2</ele><time>2026-05-01T11:13:08Z</time></trkpt><trkpt lat="42.82530615215535" lon="12.593276318239823"><ele>598.6</ele><time>2026-05-01T11:13:10Z</time></trkpt><trkpt lat="42.82519922092793" lon="12.593362022348106"><ele>599.0</ele><time>2026-05-01T11:13:12Z</time></trkpt><trkpt lat="42.82509852380078" lon="12.593454803025164"><ele>600.8</ele><time>2026-05-01T11:13:14Z</time></trkpt><trkpt lat="42.82504956975219" lon="12.593520148740073"><ele>602.5999999999999</ele><time>2026-05-01T11:13:15Z</time></trkpt><trkpt lat="42.82499609039661" lon="12.593587052134154"><ele>604.4</ele><time>2026-05-01T11:13:16Z</time></trkpt><trkpt lat="42.82491124842857" lon="12.593720445849181"><ele>606.1999999999999</ele><time>2026-05-01T11:13:18Z</time></trkpt><trkpt lat="42.82486587645434" lon="12.593795335327785"><ele>608.0</ele><time>2026-05-01T11:13:19Z</time></trkpt><trkpt lat="42.82478430025851" lon="12.593924615981315"><ele>609.6666666666666</ele><time>2026-05-01T11:13:21Z</time></trkpt><trkpt lat="42.82470052631041" lon="12.594031325403323"><ele>611.3333333333333</ele><time>2026-05-01T11:13:23Z</time></trkpt><trkpt lat="42.82463893300336" lon="12.594082475553627"><ele>613.0</ele><time>2026-05-01T11:13:24Z</time></trkpt><trkpt lat="42.82456980205981" lon="12.59413803958667"><ele>614.6666666666666</ele><time>2026-05-01T11:13:25Z</time></trkpt><trkpt lat="42.82451017852854" lon="12.594200085215773"><ele>616.3333333333334</ele><time>2026-05-01T11:13:26Z</time></trkpt><trkpt lat="42.82444928544252" lon="12.594259991526657"><ele>618.0</ele><time>2026-05-01T11:13:27Z</time></trkpt><trkpt lat="42.82435316307018" lon="12.594329023452461"><ele>618.4</ele><time>2026-05-01T11:13:29Z</time></trkpt><trkpt lat="42.824261305573714" lon="12.59437617976097"><ele>618.8</ele><time>2026-05-01T11:13:31Z</time></trkpt><trkpt lat="42.824161728017366" lon="12.594364667812721"><ele>619.2</ele><time>2026-05-01T11:13:33Z</time></trkpt><trkpt lat="42.82402956591661" lon="12.594332879004424"><ele>619.6</ele><time>2026-05-01T11:13:35Z</time></trkpt><trkpt lat="42.82396126786712" lon="12.59432271516228"><ele>620.0</ele><time>2026-05-01T11:13:36Z</time></trkpt><trkpt lat="42.82388577498518" lon="12.594309957940474"><ele>620.0</ele><time>2026-05-01T11:13:37Z</time></trkpt><trkpt lat="42.82380819282491" lon="12.594290177917163"><ele>620.0</ele><time>2026-05-01T11:13:38Z</time></trkpt><trkpt lat="42.82373680357153" lon="12.594274903404987"><ele>620.0</ele><time>2026-05-01T11:13:39Z</time></trkpt><trkpt lat="42.82366698906613" lon="12.594266947359761"><ele>620.0</ele><time>2026-05-01T11:13:40Z</time></trkpt><trkpt lat="42.82354846417828" lon="12.59427959669787"><ele>620.0</ele><time>2026-05-01T11:13:42Z</time></trkpt><trkpt lat="42.823479096583696" lon="12.594297093561464"><ele>620.0</ele><time>2026-05-01T11:13:43Z</time></trkpt><trkpt lat="42.82340726154996" lon="12.594310495234389"><ele>621.3333333333333</ele><time>2026-05-01T11:13:43.999Z</time></trkpt><trkpt lat="42.82333338730303" lon="12.594316268881995"><ele>622.6666666666666</ele><time>2026-05-01T11:13:44.999Z</time></trkpt><trkpt lat="42.82325535716077" lon="12.594306965024145"><ele>624.0</ele><time>2026-05-01T11:13:45.999Z</time></trkpt><trkpt lat="42.82318413632108" lon="12.594305195731614"><ele>625.3333333333334</ele><time>2026-05-01T11:13:46.999Z</time></trkpt><trkpt lat="42.82309032200396" lon="12.594286257142885"><ele>626.6666666666667</ele><time>2026-05-01T11:13:48.999Z</time></trkpt><trkpt lat="42.82300798860065" lon="12.594293244190823"><ele>628.0</ele><time>2026-05-01T11:13:50.999Z</time></trkpt><trkpt lat="42.82292282765369" lon="12.594327439300626"><ele>628.0</ele><time>2026-05-01T11:13:52.999Z</time></trkpt><trkpt lat="42.82284011240843" lon="12.594353937827508"><ele>628.0</ele><time>2026-05-01T11:13:55.999Z</time></trkpt><trkpt lat="42.822762444828044" lon="12.594351610632295"><ele>628.0</ele><time>2026-05-01T11:13:57.999Z</time></trkpt><trkpt lat="42.8226831062774" lon="12.594349883498143"><ele>628.0</ele><time>2026-05-01T11:13:59.999Z</time></trkpt><trkpt lat="42.822580798869616" lon="12.594344170339673"><ele>628.0</ele><time>2026-05-01T11:14:01.999Z</time></trkpt><trkpt lat="42.82246851935871" lon="12.594315840024652"><ele>630.0</ele><time>2026-05-01T11:14:03.999Z</time></trkpt><trkpt lat="42.82235588313816" lon="12.594288500894033"><ele>632.0</ele><time>2026-05-01T11:14:05.999Z</time></trkpt><trkpt lat="42.822255252608194" lon="12.59425153871669"><ele>634.0</ele><time>2026-05-01T11:14:07.999Z</time></trkpt><trkpt lat="42.82218804673224" lon="12.594236701527167"><ele>636.0</ele><time>2026-05-01T11:14:08.999Z</time></trkpt><trkpt lat="42.822061135112236" lon="12.59420598481142"><ele>638.0</ele><time>2026-05-01T11:14:10.999Z</time></trkpt><trkpt lat="42.82196322958553" lon="12.594181927479736"><ele>638.0</ele><time>2026-05-01T11:14:12.999Z</time></trkpt><trkpt lat="42.82185443489552" lon="12.594173180083073"><ele>638.0</ele><time>2026-05-01T11:14:14.999Z</time></trkpt><trkpt lat="42.82178869438166" lon="12.594173681957889"><ele>638.0</ele><time>2026-05-01T11:14:16Z</time></trkpt><trkpt lat="42.82169314457174" lon="12.594169969346952"><ele>638.0</ele><time>2026-05-01T11:14:18Z</time></trkpt><trkpt lat="42.82161687043525" lon="12.594144271743659"><ele>638.0</ele><time>2026-05-01T11:14:20Z</time></trkpt><trkpt lat="42.821541329283434" lon="12.59412613224062"><ele>638.0</ele><time>2026-05-01T11:14:22Z</time></trkpt><trkpt lat="42.821465108473284" lon="12.5941360124306"><ele>639.8333333333333</ele><time>2026-05-01T11:14:24Z</time></trkpt><trkpt lat="42.82139104350714" lon="12.594120566826057"><ele>641.6666666666666</ele><time>2026-05-01T11:14:26Z</time></trkpt><trkpt lat="42.821300994737186" lon="12.594148036416673"><ele>643.5</ele><time>2026-05-01T11:14:28Z</time></trkpt><trkpt lat="42.821247317348316" lon="12.59420398429912"><ele>645.3333333333334</ele><time>2026-05-01T11:14:29.999Z</time></trkpt><trkpt lat="42.82118900746149" lon="12.594266038658803"><ele>647.1666666666667</ele><time>2026-05-01T11:14:31.999Z</time></trkpt><trkpt lat="42.8211171569359" lon="12.594267636142378"><ele>649.0</ele><time>2026-05-01T11:14:34.999Z</time></trkpt><trkpt lat="42.82105070119175" lon="12.594199951300107"><ele>649.0</ele><time>2026-05-01T11:14:37Z</time></trkpt><trkpt lat="42.82099940486995" lon="12.594122257947866"><ele>649.0</ele><time>2026-05-01T11:14:39Z</time></trkpt><trkpt lat="42.82092304103655" lon="12.594046016787978"><ele>649.0</ele><time>2026-05-01T11:14:42Z</time></trkpt><trkpt lat="42.82086232486038" lon="12.593953850231719"><ele>649.0</ele><time>2026-05-01T11:14:44Z</time></trkpt><trkpt lat="42.82080541463652" lon="12.593862973697927"><ele>649.0</ele><time>2026-05-01T11:14:46Z</time></trkpt><trkpt lat="42.820721519749895" lon="12.593788911117882"><ele>651.8333333333334</ele><time>2026-05-01T11:14:48Z</time></trkpt><trkpt lat="42.8206560399233" lon="12.593771961579627"><ele>654.6666666666667</ele><time>2026-05-01T11:14:51Z</time></trkpt><trkpt lat="42.82056757763835" lon="12.593767245608124"><ele>657.5</ele><time>2026-05-01T11:14:53Z</time></trkpt><trkpt lat="42.82046751200493" lon="12.593757696944825"><ele>660.3333333333334</ele><time>2026-05-01T11:14:55Z</time></trkpt><trkpt lat="42.8203689563562" lon="12.593726771751788"><ele>663.1666666666666</ele><time>2026-05-01T11:14:57Z</time></trkpt><trkpt lat="42.820292467087214" lon="12.593712319780606"><ele>666.0</ele><time>2026-05-01T11:14:59Z</time></trkpt><trkpt lat="42.820199870966434" lon="12.593683086956673"><ele>667.1666666666666</ele><time>2026-05-01T11:15:01Z</time></trkpt><trkpt lat="42.82013025698285" lon="12.593675594054403"><ele>668.3333333333334</ele><time>2026-05-01T11:15:03Z</time></trkpt><trkpt lat="42.82004557057566" lon="12.593662394223639"><ele>669.5</ele><time>2026-05-01T11:15:06Z</time></trkpt><trkpt lat="42.819975185014286" lon="12.593664518254398"><ele>670.6666666666667</ele><time>2026-05-01T11:15:08Z</time></trkpt><trkpt lat="42.819887829072954" lon="12.593687577250881"><ele>671.8333333333334</ele><time>2026-05-01T11:15:10Z</time></trkpt><trkpt lat="42.81980018789598" lon="12.593708489650975"><ele>673.0</ele><time>2026-05-01T11:15:12Z</time></trkpt><trkpt lat="42.81972259969608" lon="12.593700459416365"><ele>673.0</ele><time>2026-05-01T11:15:14Z</time></trkpt><trkpt lat="42.81963704825108" lon="12.593707264003928"><ele>673.0</ele><time>2026-05-01T11:15:16Z</time></trkpt><trkpt lat="42.819512839269834" lon="12.593708995855511"><ele>673.0</ele><time>2026-05-01T11:15:18Z</time></trkpt><trkpt lat="42.819386975835776" lon="12.593701202813936"><ele>673.0</ele><time>2026-05-01T11:15:20Z</time></trkpt><trkpt lat="42.819277815971915" lon="12.593700282298512"><ele>673.0</ele><time>2026-05-01T11:15:22Z</time></trkpt><trkpt lat="42.81916107981061" lon="12.593688719087323"><ele>669.5999999999999</ele><time>2026-05-01T11:15:24Z</time></trkpt><trkpt lat="42.81903510121345" lon="12.593669256485343"><ele>666.1999999999999</ele><time>2026-05-01T11:15:26Z</time></trkpt><trkpt lat="42.818920231453504" lon="12.593657890772148"><ele>662.8</ele><time>2026-05-01T11:15:28Z</time></trkpt><trkpt lat="42.818822218197816" lon="12.593649684987975"><ele>659.4</ele><time>2026-05-01T11:15:30Z</time></trkpt><trkpt lat="42.818749711396464" lon="12.593617155129476"><ele>656.0</ele><time>2026-05-01T11:15:32Z</time></trkpt><trkpt lat="42.81865438897963" lon="12.593558575696761"><ele>655.9999999999999</ele><time>2026-05-01T11:15:34Z</time></trkpt><trkpt lat="42.81854620169358" lon="12.593535663229277"><ele>656.0</ele><time>2026-05-01T11:15:36Z</time></trkpt><trkpt lat="42.81848351020257" lon="12.593527347710834"><ele>656.0</ele><time>2026-05-01T11:15:37Z</time></trkpt><trkpt lat="42.81841330667229" lon="12.593513029267346"><ele>656.0</ele><time>2026-05-01T11:15:38Z</time></trkpt><trkpt lat="42.81834283262058" lon="12.5934987270591"><ele>656.0</ele><time>2026-05-01T11:15:39Z</time></trkpt><trkpt lat="42.818274481922415" lon="12.593487991390642"><ele>655.9999999999999</ele><time>2026-05-01T11:15:40Z</time></trkpt><trkpt lat="42.818210480900916" lon="12.593485252076784"><ele>656.0</ele><time>2026-05-01T11:15:41Z</time></trkpt><trkpt lat="42.81810857268909" lon="12.593471977904128"><ele>656.1999999999999</ele><time>2026-05-01T11:15:43Z</time></trkpt><trkpt lat="42.8180317908034" lon="12.593478883711292"><ele>656.4</ele><time>2026-05-01T11:15:45Z</time></trkpt><trkpt lat="42.81794927092102" lon="12.593508773974815"><ele>656.6</ele><time>2026-05-01T11:15:47Z</time></trkpt><trkpt lat="42.81787310015721" lon="12.593512884838008"><ele>656.8</ele><time>2026-05-01T11:15:49Z</time></trkpt><trkpt lat="42.817787238868505" lon="12.593469548988216"><ele>657.0</ele><time>2026-05-01T11:15:51Z</time></trkpt><trkpt lat="42.81767461496999" lon="12.593413238519384"><ele>657.6666666666666</ele><time>2026-05-01T11:15:53Z</time></trkpt><trkpt lat="42.817614993478166" lon="12.59337793161409"><ele>658.3333333333334</ele><time>2026-05-01T11:15:54Z</time></trkpt><trkpt lat="42.81754135924334" lon="12.593334175985587"><ele>659.0</ele><time>2026-05-01T11:15:55Z</time></trkpt><trkpt lat="42.817463232329075" lon="12.59328653891677"><ele>659.6666666666667</ele><time>2026-05-01T11:15:56Z</time></trkpt><trkpt lat="42.81738426914673" lon="12.593230459119429"><ele>660.3333333333334</ele><time>2026-05-01T11:15:57Z</time></trkpt><trkpt lat="42.817304204169645" lon="12.59317640185715"><ele>661.0</ele><time>2026-05-01T11:15:58Z</time></trkpt><trkpt lat="42.817236901239085" lon="12.59312227382994"><ele>661.0</ele><time>2026-05-01T11:15:59Z</time></trkpt><trkpt lat="42.81716389354198" lon="12.593066993014316"><ele>661.0</ele><time>2026-05-01T11:16:00Z</time></trkpt><trkpt lat="42.81709524241204" lon="12.593013312954415"><ele>661.0</ele><time>2026-05-01T11:16:01Z</time></trkpt><trkpt lat="42.81699651574957" lon="12.59293171514456"><ele>661.0</ele><time>2026-05-01T11:16:03Z</time></trkpt><trkpt lat="42.81692649052484" lon="12.592822337413503"><ele>661.0</ele><time>2026-05-01T11:16:05Z</time></trkpt><trkpt lat="42.81687549560755" lon="12.592703070702745"><ele>662.8</ele><time>2026-05-01T11:16:07Z</time></trkpt><trkpt lat="42.81686133464659" lon="12.592590123833615"><ele>664.5999999999999</ele><time>2026-05-01T11:16:09Z</time></trkpt><trkpt lat="42.816837724600724" lon="12.592459433822919"><ele>666.4</ele><time>2026-05-01T11:16:11Z</time></trkpt><trkpt lat="42.81682904994137" lon="12.592331118427992"><ele>668.2</ele><time>2026-05-01T11:16:13Z</time></trkpt><trkpt lat="42.81682081863115" lon="12.592184286700158"><ele>670.0</ele><time>2026-05-01T11:16:15Z</time></trkpt><trkpt lat="42.81680684276832" lon="12.592012725795763"><ele>673.3333333333334</ele><time>2026-05-01T11:16:17Z</time></trkpt><trkpt lat="42.81679294914241" lon="12.591927426028715"><ele>676.6666666666667</ele><time>2026-05-01T11:16:18Z</time></trkpt><trkpt lat="42.81674905558016" lon="12.591782540651145"><ele>680.0</ele><time>2026-05-01T11:16:20Z</time></trkpt><trkpt lat="42.816735385663165" lon="12.591676713148102"><ele>683.3333333333334</ele><time>2026-05-01T11:16:22Z</time></trkpt><trkpt lat="42.81672372505022" lon="12.591563350554924"><ele>686.6666666666666</ele><time>2026-05-01T11:16:24Z</time></trkpt><trkpt lat="42.81670513689233" lon="12.591473993685337"><ele>690.0</ele><time>2026-05-01T11:16:25Z</time></trkpt><trkpt lat="42.81668371650733" lon="12.591378683143157"><ele>690.0</ele><time>2026-05-01T11:16:26Z</time></trkpt><trkpt lat="42.81665065560071" lon="12.59130228437462"><ele>690.0</ele><time>2026-05-01T11:16:27Z</time></trkpt><trkpt lat="42.816623419434606" lon="12.591221012740753"><ele>690.0</ele><time>2026-05-01T11:16:28Z</time></trkpt><trkpt lat="42.81656157476625" lon="12.59110619471758"><ele>690.0</ele><time>2026-05-01T11:16:30Z</time></trkpt><trkpt lat="42.81653827814543" lon="12.591014675227573"><ele>690.0</ele><time>2026-05-01T11:16:32Z</time></trkpt><trkpt lat="42.81653277859618" lon="12.590908720428374"><ele>690.0</ele><time>2026-05-01T11:16:34Z</time></trkpt><trkpt lat="42.81655563274049" lon="12.590797915237548"><ele>692.5</ele><time>2026-05-01T11:16:36Z</time></trkpt><trkpt lat="42.81656840705938" lon="12.590683662033852"><ele>695.0</ele><time>2026-05-01T11:16:38Z</time></trkpt><trkpt lat="42.816556275114536" lon="12.590559320452321"><ele>697.5</ele><time>2026-05-01T11:16:40Z</time></trkpt><trkpt lat="42.81653175579451" lon="12.590447674124263"><ele>700.0</ele><time>2026-05-01T11:16:42Z</time></trkpt><trkpt lat="42.816517953241245" lon="12.590319205568887"><ele>702.5</ele><time>2026-05-01T11:16:44Z</time></trkpt><trkpt lat="42.81651679979517" lon="12.59020724012534"><ele>705.0</ele><time>2026-05-01T11:16:46Z</time></trkpt><trkpt lat="42.816514235147054" lon="12.590074218385405"><ele>708.0</ele><time>2026-05-01T11:16:48Z</time></trkpt><trkpt lat="42.81649147744836" lon="12.589946952055048"><ele>711.0</ele><time>2026-05-01T11:16:50Z</time></trkpt><trkpt lat="42.81645552230235" lon="12.589830799140291"><ele>714.0</ele><time>2026-05-01T11:16:52Z</time></trkpt><trkpt lat="42.81644257570104" lon="12.58969727989573"><ele>717.0</ele><time>2026-05-01T11:16:54Z</time></trkpt><trkpt lat="42.81647210285082" lon="12.589566991133065"><ele>720.0</ele><time>2026-05-01T11:16:56Z</time></trkpt><trkpt lat="42.81650252040543" lon="12.589415789419265"><ele>721.6</ele><time>2026-05-01T11:16:58Z</time></trkpt><trkpt lat="42.81649634171512" lon="12.589284364799473"><ele>723.2</ele><time>2026-05-01T11:17:00Z</time></trkpt><trkpt lat="42.816480281131675" lon="12.58914463553877"><ele>724.8</ele><time>2026-05-01T11:17:02Z</time></trkpt><trkpt lat="42.816481409998424" lon="12.589055975221369"><ele>726.4</ele><time>2026-05-01T11:17:03Z</time></trkpt><trkpt lat="42.81647273663649" lon="12.588902367702"><ele>728.0</ele><time>2026-05-01T11:17:05Z</time></trkpt><trkpt lat="42.81644028175909" lon="12.588755753202978"><ele>729.6666666666666</ele><time>2026-05-01T11:17:07Z</time></trkpt><trkpt lat="42.81642050391655" lon="12.588661727656483"><ele>731.3333333333333</ele><time>2026-05-01T11:17:08Z</time></trkpt><trkpt lat="42.816395843876315" lon="12.588565975833932"><ele>733.0</ele><time>2026-05-01T11:17:09Z</time></trkpt><trkpt lat="42.8163763183512" lon="12.58848247321896"><ele>734.6666666666666</ele><time>2026-05-01T11:17:10Z</time></trkpt><trkpt lat="42.81636046492517" lon="12.588340356621709"><ele>736.3333333333334</ele><time>2026-05-01T11:17:12Z</time></trkpt><trkpt lat="42.81634975851313" lon="12.588177172719023"><ele>738.0</ele><time>2026-05-01T11:17:14Z</time></trkpt><trkpt lat="42.81632996326466" lon="12.588010459729228"><ele>738.0</ele><time>2026-05-01T11:17:16Z</time></trkpt><trkpt lat="42.816322854076134" lon="12.587863961511449"><ele>738.0</ele><time>2026-05-01T11:17:18Z</time></trkpt><trkpt lat="42.81630689966304" lon="12.587709029069934"><ele>738.0</ele><time>2026-05-01T11:17:20Z</time></trkpt><trkpt lat="42.81628774100601" lon="12.587560428310361"><ele>738.0</ele><time>2026-05-01T11:17:22Z</time></trkpt><trkpt lat="42.81626743113513" lon="12.587440812798658"><ele>738.0</ele><time>2026-05-01T11:17:24Z</time></trkpt><trkpt lat="42.816259623785925" lon="12.587311773622641"><ele>740.2</ele><time>2026-05-01T11:17:26Z</time></trkpt><trkpt lat="42.81627223738882" lon="12.58719605187298"><ele>742.4</ele><time>2026-05-01T11:17:28Z</time></trkpt><trkpt lat="42.81629037903996" lon="12.58707578087194"><ele>744.6</ele><time>2026-05-01T11:17:30Z</time></trkpt><trkpt lat="42.81634763305778" lon="12.586956579975157"><ele>746.8000000000001</ele><time>2026-05-01T11:17:52Z</time></trkpt><trkpt lat="42.81641253973523" lon="12.586817492854554"><ele>749.0</ele><time>2026-05-01T11:17:54Z</time></trkpt><trkpt lat="42.81645283895966" lon="12.586745350014876"><ele>751.6</ele><time>2026-05-01T11:17:56Z</time></trkpt><trkpt lat="42.81649327072236" lon="12.58660978016524"><ele>754.2</ele><time>2026-05-01T11:17:58Z</time></trkpt><trkpt lat="42.81649570661905" lon="12.586456530197758"><ele>756.8000000000001</ele><time>2026-05-01T11:18:00Z</time></trkpt><trkpt lat="42.81648266638312" lon="12.586304611401625"><ele>759.4000000000001</ele><time>2026-05-01T11:18:02Z</time></trkpt><trkpt lat="42.81645910395642" lon="12.586179260870132"><ele>762.0</ele><time>2026-05-01T11:18:04Z</time></trkpt><trkpt lat="42.81643925678439" lon="12.586019138710753"><ele>763.1666666666666</ele><time>2026-05-01T11:18:06Z</time></trkpt><trkpt lat="42.81641407912485" lon="12.585934690580663"><ele>764.3333333333333</ele><time>2026-05-01T11:18:07Z</time></trkpt><trkpt lat="42.81638681585302" lon="12.585841833745508"><ele>765.5</ele><time>2026-05-01T11:18:08Z</time></trkpt><trkpt lat="42.81637313258048" lon="12.585737182676633"><ele>766.6666666666666</ele><time>2026-05-01T11:18:09Z</time></trkpt><trkpt lat="42.81635750286411" lon="12.585640956809954"><ele>767.8333333333333</ele><time>2026-05-01T11:18:10Z</time></trkpt><trkpt lat="42.8163454543585" lon="12.585536391591123"><ele>769.0</ele><time>2026-05-01T11:18:11Z</time></trkpt><trkpt lat="42.81629460848754" lon="12.585368545329503"><ele>769.6</ele><time>2026-05-01T11:18:13Z</time></trkpt><trkpt lat="42.816257748330585" lon="12.585266151788476"><ele>770.2</ele><time>2026-05-01T11:18:14Z</time></trkpt><trkpt lat="42.81623662145349" lon="12.585166733314392"><ele>770.8000000000001</ele><time>2026-05-01T11:18:15Z</time></trkpt><trkpt lat="42.81619190161394" lon="12.585055668150295"><ele>771.4000000000001</ele><time>2026-05-01T11:18:17Z</time></trkpt><trkpt lat="42.81616688037618" lon="12.584893544120034"><ele>772.0</ele><time>2026-05-01T11:18:19Z</time></trkpt><trkpt lat="42.81612526430356" lon="12.58476399680846"><ele>771.9999999999999</ele><time>2026-05-01T11:18:21Z</time></trkpt><trkpt lat="42.8160765372977" lon="12.584654919529983"><ele>772.0</ele><time>2026-05-01T11:18:23Z</time></trkpt><trkpt lat="42.81600724299227" lon="12.584580847723169"><ele>772.0</ele><time>2026-05-01T11:18:27Z</time></trkpt><trkpt lat="42.8159736700726" lon="12.58449885453132"><ele>772.0</ele><time>2026-05-01T11:18:29Z</time></trkpt><trkpt lat="42.81590730845486" lon="12.584404394988386"><ele>771.9999999999999</ele><time>2026-05-01T11:18:31Z</time></trkpt><trkpt lat="42.81587085215831" lon="12.584297441155837"><ele>772.0</ele><time>2026-05-01T11:18:34Z</time></trkpt><trkpt lat="42.81583294161999" lon="12.58418524024489"><ele>773.4999999999999</ele><time>2026-05-01T11:18:37Z</time></trkpt><trkpt lat="42.81578645076176" lon="12.584113582705353"><ele>775.0</ele><time>2026-05-01T11:18:39Z</time></trkpt><trkpt lat="42.815739561241244" lon="12.584044185251736"><ele>776.5</ele><time>2026-05-01T11:18:41Z</time></trkpt><trkpt lat="42.8156805172548" lon="12.5839514740813"><ele>778.0</ele><time>2026-05-01T11:18:44Z</time></trkpt><trkpt lat="42.81556734801704" lon="12.58390650204629"><ele>779.4999999999999</ele><time>2026-05-01T11:18:46Z</time></trkpt><trkpt lat="42.81550178092784" lon="12.583873318891232"><ele>781.0</ele><time>2026-05-01T11:18:47Z</time></trkpt><trkpt lat="42.815388202104046" lon="12.583825915645507"><ele>781.0</ele><time>2026-05-01T11:18:49Z</time></trkpt><trkpt lat="42.815294548358345" lon="12.583822768023063"><ele>781.0</ele><time>2026-05-01T11:18:51Z</time></trkpt><trkpt lat="42.81516978833399" lon="12.583857734056759"><ele>781.0</ele><time>2026-05-01T11:18:53Z</time></trkpt><trkpt lat="42.815095675066246" lon="12.583872221053818"><ele>781.0</ele><time>2026-05-01T11:18:55Z</time></trkpt><trkpt lat="42.81503435121386" lon="12.583822081885796"><ele>781.0</ele><time>2026-05-01T11:18:57Z</time></trkpt><trkpt lat="42.814947882366695" lon="12.583751743441447"><ele>781.4999999999999</ele><time>2026-05-01T11:18:59Z</time></trkpt><trkpt lat="42.81485477777688" lon="12.583758826607692"><ele>782.0</ele><time>2026-05-01T11:19:01Z</time></trkpt><trkpt lat="42.814794073206215" lon="12.583712709094591"><ele>782.5</ele><time>2026-05-01T11:19:03Z</time></trkpt><trkpt lat="42.8147420740305" lon="12.583625390596191"><ele>783.0</ele><time>2026-05-01T11:19:05Z</time></trkpt><trkpt lat="42.81468790091827" lon="12.583519080543088"><ele>783.4999999999999</ele><time>2026-05-01T11:19:07Z</time></trkpt><trkpt lat="42.81462717810009" lon="12.583447683403142"><ele>784.0</ele><time>2026-05-01T11:19:09Z</time></trkpt><trkpt lat="42.81455690367496" lon="12.583424603680939"><ele>783.9999999999999</ele><time>2026-05-01T11:19:11Z</time></trkpt><trkpt lat="42.814487764467465" lon="12.583350189051206"><ele>784.0</ele><time>2026-05-01T11:19:13Z</time></trkpt><trkpt lat="42.814447072226365" lon="12.583281287248447"><ele>784.0</ele><time>2026-05-01T11:19:15Z</time></trkpt><trkpt lat="42.814361883776925" lon="12.58321916480045"><ele>784.0</ele><time>2026-05-01T11:19:18Z</time></trkpt><trkpt lat="42.81429807453782" lon="12.583162348764692"><ele>783.9999999999999</ele><time>2026-05-01T11:19:20Z</time></trkpt><trkpt lat="42.81420941016106" lon="12.583087571263626"><ele>784.0</ele><time>2026-05-01T11:19:22Z</time></trkpt><trkpt lat="42.814142538319274" lon="12.58298926018394"><ele>784.1666666666666</ele><time>2026-05-01T11:19:24Z</time></trkpt><trkpt lat="42.81409207084946" lon="12.582920738293568"><ele>784.3333333333333</ele><time>2026-05-01T11:19:26Z</time></trkpt><trkpt lat="42.81403860739328" lon="12.582871540506405"><ele>784.5</ele><time>2026-05-01T11:19:28Z</time></trkpt><trkpt lat="42.813935455022815" lon="12.5828060496294"><ele>784.6666666666667</ele><time>2026-05-01T11:19:30Z</time></trkpt><trkpt lat="42.813853450128605" lon="12.582751032889531"><ele>784.8333333333334</ele><time>2026-05-01T11:19:32Z</time></trkpt><trkpt lat="42.8137885974313" lon="12.582673021222654"><ele>785.0</ele><time>2026-05-01T11:19:34Z</time></trkpt><trkpt lat="42.813714864577506" lon="12.582583625972708"><ele>785.0</ele><time>2026-05-01T11:19:36Z</time></trkpt><trkpt lat="42.81360878751093" lon="12.582536702902225"><ele>785.0</ele><time>2026-05-01T11:19:38Z</time></trkpt><trkpt lat="42.813550140557844" lon="12.582464086540819"><ele>785.0</ele><time>2026-05-01T11:19:40Z</time></trkpt><trkpt lat="42.81350296310609" lon="12.582359453269817"><ele>785.0</ele><time>2026-05-01T11:19:42Z</time></trkpt><trkpt lat="42.81343297555092" lon="12.582223596433664"><ele>785.0</ele><time>2026-05-01T11:19:44Z</time></trkpt><trkpt lat="42.81337182856913" lon="12.582092306544677"><ele>786.5000000000001</ele><time>2026-05-01T11:19:46Z</time></trkpt><trkpt lat="42.813288451038346" lon="12.582010061623912"><ele>788.0</ele><time>2026-05-01T11:19:48Z</time></trkpt><trkpt lat="42.81321115591197" lon="12.581961309888067"><ele>789.5</ele><time>2026-05-01T11:19:50Z</time></trkpt><trkpt lat="42.81314170870646" lon="12.581909106234109"><ele>791.0</ele><time>2026-05-01T11:19:52Z</time></trkpt><trkpt lat="42.81306789975099" lon="12.58187605222526"><ele>792.5000000000001</ele><time>2026-05-01T11:19:54Z</time></trkpt><trkpt lat="42.8129850624202" lon="12.581842804330286"><ele>794.0</ele><time>2026-05-01T11:19:56Z</time></trkpt><trkpt lat="42.812892394902825" lon="12.581822455063767"><ele>794.0</ele><time>2026-05-01T11:19:58Z</time></trkpt><trkpt lat="42.812786863805655" lon="12.581806432747046"><ele>794.0</ele><time>2026-05-01T11:20:00Z</time></trkpt><trkpt lat="42.812682036845864" lon="12.581790221108564"><ele>794.0</ele><time>2026-05-01T11:20:02Z</time></trkpt><trkpt lat="42.812593467933354" lon="12.581750492304359"><ele>794.0</ele><time>2026-05-01T11:20:04Z</time></trkpt><trkpt lat="42.812488416565195" lon="12.581731084624808"><ele>794.0</ele><time>2026-05-01T11:20:06Z</time></trkpt><trkpt lat="42.81239905620638" lon="12.581684015506115"><ele>794.0</ele><time>2026-05-01T11:20:09Z</time></trkpt><trkpt lat="42.812312416596406" lon="12.581642243460697"><ele>794.0</ele><time>2026-05-01T11:20:11Z</time></trkpt><trkpt lat="42.812233091450025" lon="12.581611051735594"><ele>794.0</ele><time>2026-05-01T11:20:14Z</time></trkpt><trkpt lat="42.81218750272342" lon="12.581548658825985"><ele>794.0</ele><time>2026-05-01T11:20:16Z</time></trkpt><trkpt lat="42.81212920785772" lon="12.581508984348412"><ele>794.0</ele><time>2026-05-01T11:20:19Z</time></trkpt><trkpt lat="42.81208067161126" lon="12.581454246194385"><ele>794.0</ele><time>2026-05-01T11:20:21Z</time></trkpt><trkpt lat="42.81204024098108" lon="12.581384831510283"><ele>794.0</ele><time>2026-05-01T11:20:23Z</time></trkpt><trkpt lat="42.81195685069891" lon="12.581332227049266"><ele>794.0000000000001</ele><time>2026-05-01T11:20:25Z</time></trkpt><trkpt lat="42.81187717007462" lon="12.581237149406507"><ele>794.0</ele><time>2026-05-01T11:20:27Z</time></trkpt><trkpt lat="42.811806764766224" lon="12.581158107134542"><ele>794.0</ele><time>2026-05-01T11:20:29Z</time></trkpt><trkpt lat="42.811741056606984" lon="12.581104488097031"><ele>794.0</ele><time>2026-05-01T11:20:32Z</time></trkpt><trkpt lat="42.811669093961434" lon="12.581036972314582"><ele>794.0000000000001</ele><time>2026-05-01T11:20:34Z</time></trkpt><trkpt lat="42.811626189036666" lon="12.580932057425567"><ele>794.0</ele><time>2026-05-01T11:20:37Z</time></trkpt><trkpt lat="42.811576791960256" lon="12.580849875837593"><ele>794.8333333333334</ele><time>2026-05-01T11:20:39Z</time></trkpt><trkpt lat="42.81153409580307" lon="12.580764196000368"><ele>795.6666666666667</ele><time>2026-05-01T11:20:41Z</time></trkpt><trkpt lat="42.81150143338643" lon="12.580688336605592"><ele>796.5</ele><time>2026-05-01T11:20:43Z</time></trkpt><trkpt lat="42.81143093218021" lon="12.580642786417357"><ele>797.3333333333333</ele><time>2026-05-01T11:20:45Z</time></trkpt><trkpt lat="42.81134847942855" lon="12.58062167871365"><ele>798.1666666666666</ele><time>2026-05-01T11:20:47Z</time></trkpt><trkpt lat="42.8112495372052" lon="12.580625101967748"><ele>799.0</ele><time>2026-05-01T11:20:49Z</time></trkpt><trkpt lat="42.811179271329436" lon="12.580601028228733"><ele>798.9999999999999</ele><time>2026-05-01T11:20:51Z</time></trkpt><trkpt lat="42.811104892722476" lon="12.580569195099018"><ele>799.0</ele><time>2026-05-01T11:20:53Z</time></trkpt><trkpt lat="42.81100978105294" lon="12.580557929784359"><ele>799.0</ele><time>2026-05-01T11:20:55Z</time></trkpt><trkpt lat="42.81093235795917" lon="12.580539402523312"><ele>799.0</ele><time>2026-05-01T11:20:57Z</time></trkpt><trkpt lat="42.81085845806345" lon="12.580482241960022"><ele>798.9999999999999</ele><time>2026-05-01T11:20:59Z</time></trkpt><trkpt lat="42.81077956317902" lon="12.58044017271547"><ele>799.0</ele><time>2026-05-01T11:21:01Z</time></trkpt><trkpt lat="42.81069942220663" lon="12.580389725690155"><ele>799.8333333333333</ele><time>2026-05-01T11:21:03Z</time></trkpt><trkpt lat="42.81061083170719" lon="12.580335917899642"><ele>800.6666666666666</ele><time>2026-05-01T11:21:05Z</time></trkpt><trkpt lat="42.81053458068154" lon="12.580305967995397"><ele>801.5</ele><time>2026-05-01T11:21:07Z</time></trkpt><trkpt lat="42.81046385001183" lon="12.580280196655117"><ele>802.3333333333333</ele><time>2026-05-01T11:21:09Z</time></trkpt><trkpt lat="42.81039694175545" lon="12.580225398863305"><ele>803.1666666666666</ele><time>2026-05-01T11:21:11Z</time></trkpt><trkpt lat="42.81031297001615" lon="12.580185294581172"><ele>804.0</ele><time>2026-05-01T11:21:13Z</time></trkpt><trkpt lat="42.81024610055889" lon="12.580163236582248"><ele>804.0</ele><time>2026-05-01T11:21:15Z</time></trkpt><trkpt lat="42.810172150631466" lon="12.580119417465257"><ele>804.0</ele><time>2026-05-01T11:21:17Z</time></trkpt><trkpt lat="42.810117293025954" lon="12.580067662395424"><ele>804.0</ele><time>2026-05-01T11:21:19Z</time></trkpt><trkpt lat="42.81003411277008" lon="12.580036511392953"><ele>804.0</ele><time>2026-05-01T11:21:21Z</time></trkpt><trkpt lat="42.809946162551135" lon="12.580009883327431"><ele>804.0</ele><time>2026-05-01T11:21:23Z</time></trkpt><trkpt lat="42.80985269501299" lon="12.58005188944713"><ele>804.0</ele><time>2026-05-01T11:21:26Z</time></trkpt><trkpt lat="42.809773772688864" lon="12.580077193878278"><ele>806.5</ele><time>2026-05-01T11:21:28Z</time></trkpt><trkpt lat="42.80970486404357" lon="12.58013134565131"><ele>809.0</ele><time>2026-05-01T11:21:30Z</time></trkpt><trkpt lat="42.80961978971414" lon="12.580173781002664"><ele>811.5</ele><time>2026-05-01T11:21:32Z</time></trkpt><trkpt lat="42.80954992636102" lon="12.580220841561104"><ele>814.0</ele><time>2026-05-01T11:21:34Z</time></trkpt><trkpt lat="42.8094794106643" lon="12.580265128982772"><ele>816.5</ele><time>2026-05-01T11:21:36Z</time></trkpt><trkpt lat="42.80940892525805" lon="12.580299083031637"><ele>819.0</ele><time>2026-05-01T11:21:38Z</time></trkpt><trkpt lat="42.80932036806547" lon="12.580323884926916"><ele>817.5</ele><time>2026-05-01T11:21:40Z</time></trkpt><trkpt lat="42.80924488184531" lon="12.58035792495145"><ele>816.0</ele><time>2026-05-01T11:21:42Z</time></trkpt><trkpt lat="42.80917243960842" lon="12.580395687705703"><ele>814.5</ele><time>2026-05-01T11:21:44Z</time></trkpt><trkpt lat="42.80909941633056" lon="12.580438631021657"><ele>813.0</ele><time>2026-05-01T11:21:46Z</time></trkpt><trkpt lat="42.80901448658134" lon="12.580456200323267"><ele>811.5</ele><time>2026-05-01T11:21:48Z</time></trkpt><trkpt lat="42.80890436741712" lon="12.580481749371446"><ele>810.0</ele><time>2026-05-01T11:21:50Z</time></trkpt><trkpt lat="42.8088407352942" lon="12.580490823538307"><ele>810.0</ele><time>2026-05-01T11:21:51Z</time></trkpt><trkpt lat="42.80873196685499" lon="12.580502957709868"><ele>810.0</ele><time>2026-05-01T11:21:53Z</time></trkpt><trkpt lat="42.80865499590613" lon="12.580521935808607"><ele>810.0</ele><time>2026-05-01T11:21:55Z</time></trkpt><trkpt lat="42.80856419316528" lon="12.580540252775057"><ele>810.0</ele><time>2026-05-01T11:21:58Z</time></trkpt><trkpt lat="42.808493373981136" lon="12.580573227740734"><ele>810.0</ele><time>2026-05-01T11:22:00Z</time></trkpt><trkpt lat="42.80842286042725" lon="12.580558653651568"><ele>810.0</ele><time>2026-05-01T11:22:02Z</time></trkpt><trkpt lat="42.80835314510073" lon="12.580558542585404"><ele>811.4285714285713</ele><time>2026-05-01T11:22:04Z</time></trkpt><trkpt lat="42.80828536011122" lon="12.580528622608309"><ele>812.8571428571429</ele><time>2026-05-01T11:22:06Z</time></trkpt><trkpt lat="42.80822251629757" lon="12.580503700034223"><ele>814.2857142857142</ele><time>2026-05-01T11:22:08Z</time></trkpt><trkpt lat="42.80815935422522" lon="12.580482732022535"><ele>815.7142857142857</ele><time>2026-05-01T11:22:10Z</time></trkpt><trkpt lat="42.80809237767944" lon="12.58047595601232"><ele>817.1428571428571</ele><time>2026-05-01T11:22:14Z</time></trkpt><trkpt lat="42.80802471630252" lon="12.58043845250153"><ele>818.5714285714286</ele><time>2026-05-01T11:22:17Z</time></trkpt><trkpt lat="42.80794990188899" lon="12.580432849101577"><ele>820.0</ele><time>2026-05-01T11:22:20Z</time></trkpt><trkpt lat="42.80789108990444" lon="12.580384383604992"><ele>820.4999999999999</ele><time>2026-05-01T11:22:34Z</time></trkpt><trkpt lat="42.80780634883912" lon="12.580344221973505"><ele>821.0</ele><time>2026-05-01T11:22:51Z</time></trkpt><trkpt lat="42.80773191137484" lon="12.580341774475405"><ele>821.5</ele><time>2026-05-01T11:22:53Z</time></trkpt><trkpt lat="42.80766536754277" lon="12.580347972643777"><ele>822.0</ele><time>2026-05-01T11:22:57Z</time></trkpt><trkpt lat="42.80760656069821" lon="12.580275732166768"><ele>822.4999999999999</ele><time>2026-05-01T11:23:00Z</time></trkpt><trkpt lat="42.807525829877754" lon="12.580248704451906"><ele>823.0</ele><time>2026-05-01T11:23:02Z</time></trkpt><trkpt lat="42.80744180671683" lon="12.580278022796856"><ele>825.0</ele><time>2026-05-01T11:23:04Z</time></trkpt><trkpt lat="42.807363283065705" lon="12.580321526071195"><ele>827.0</ele><time>2026-05-01T11:23:07Z</time></trkpt><trkpt lat="42.80730089068087" lon="12.58035398873057"><ele>829.0</ele><time>2026-05-01T11:23:10Z</time></trkpt><trkpt lat="42.807183369184095" lon="12.580414213402584"><ele>831.0</ele><time>2026-05-01T11:25:34Z</time></trkpt><trkpt lat="42.807074062208514" lon="12.580461511690377"><ele>833.0</ele><time>2026-05-01T11:25:36Z</time></trkpt><trkpt lat="42.8070115425706" lon="12.580479693143968"><ele>833.0</ele><time>2026-05-01T11:25:37Z</time></trkpt><trkpt lat="42.80695245435542" lon="12.580510886795341"><ele>833.0</ele><time>2026-05-01T11:25:38Z</time></trkpt><trkpt lat="42.80684987634488" lon="12.580568994375108"><ele>833.0</ele><time>2026-05-01T11:25:40Z</time></trkpt><trkpt lat="42.8067905602839" lon="12.580603970543523"><ele>833.0</ele><time>2026-05-01T11:25:41Z</time></trkpt><trkpt lat="42.80667570210507" lon="12.580638051489487"><ele>833.0</ele><time>2026-05-01T11:25:43Z</time></trkpt><trkpt lat="42.80656963349188" lon="12.580681323569879"><ele>834.0000000000001</ele><time>2026-05-01T11:25:45Z</time></trkpt><trkpt lat="42.80647769211061" lon="12.58071890626913"><ele>835.0</ele><time>2026-05-01T11:25:47Z</time></trkpt><trkpt lat="42.80640403591461" lon="12.580736265356919"><ele>836.0</ele><time>2026-05-01T11:25:49Z</time></trkpt><trkpt lat="42.80632839267991" lon="12.58077740247151"><ele>837.0</ele><time>2026-05-01T11:25:51Z</time></trkpt><trkpt lat="42.80623613704812" lon="12.580819708391964"><ele>838.0000000000001</ele><time>2026-05-01T11:25:53Z</time></trkpt><trkpt lat="42.806171264773134" lon="12.580858576310924"><ele>839.0</ele><time>2026-05-01T11:25:55Z</time></trkpt><trkpt lat="42.80606150192999" lon="12.580865994777433"><ele>840.0</ele><time>2026-05-01T11:25:57Z</time></trkpt><trkpt lat="42.805964454527015" lon="12.580854182019634"><ele>841.0</ele><time>2026-05-01T11:25:59Z</time></trkpt><trkpt lat="42.80586049736943" lon="12.580826385092376"><ele>842.0</ele><time>2026-05-01T11:26:00.999Z</time></trkpt><trkpt lat="42.8057496897346" lon="12.58082395592208"><ele>843.0</ele><time>2026-05-01T11:26:02.999Z</time></trkpt><trkpt lat="42.80564499112437" lon="12.580815594471513"><ele>844.0</ele><time>2026-05-01T11:26:04.999Z</time></trkpt><trkpt lat="42.80552640765503" lon="12.580828722213976"><ele>843.9999999999999</ele><time>2026-05-01T11:26:06.999Z</time></trkpt><trkpt lat="42.805401032471806" lon="12.580839321867007"><ele>844.0</ele><time>2026-05-01T11:26:08.999Z</time></trkpt><trkpt lat="42.805337368934985" lon="12.580829008557656"><ele>844.0</ele><time>2026-05-01T11:26:09.999Z</time></trkpt><trkpt lat="42.805267492980505" lon="12.580825383598695"><ele>844.0</ele><time>2026-05-01T11:26:10.999Z</time></trkpt><trkpt lat="42.805199956337" lon="12.580822997035579"><ele>843.9999999999999</ele><time>2026-05-01T11:26:11.999Z</time></trkpt><trkpt lat="42.80511753639819" lon="12.580808058558606"><ele>844.0</ele><time>2026-05-01T11:26:13.999Z</time></trkpt><trkpt lat="42.80503105204375" lon="12.580783162560351"><ele>845.4000000000001</ele><time>2026-05-01T11:26:15.999Z</time></trkpt><trkpt lat="42.80492508478415" lon="12.58077398542696"><ele>846.8</ele><time>2026-05-01T11:26:17.999Z</time></trkpt><trkpt lat="42.80482654966381" lon="12.580784872446266"><ele>848.2</ele><time>2026-05-01T11:26:19.999Z</time></trkpt><trkpt lat="42.80473488377147" lon="12.58078597683691"><ele>849.5999999999999</ele><time>2026-05-01T11:26:21.999Z</time></trkpt><trkpt lat="42.80461868522554" lon="12.580783417569643"><ele>851.0</ele><time>2026-05-01T11:26:23.999Z</time></trkpt><trkpt lat="42.804504972797766" lon="12.580783584405271"><ele>851.0</ele><time>2026-05-01T11:26:25.999Z</time></trkpt><trkpt lat="42.804437586685346" lon="12.580784452996264"><ele>851.0</ele><time>2026-05-01T11:26:27.999Z</time></trkpt><trkpt lat="42.80437200475204" lon="12.580784512176232"><ele>851.0</ele><time>2026-05-01T11:26:29.999Z</time></trkpt><trkpt lat="42.804306277196034" lon="12.580769213278924"><ele>851.0</ele><time>2026-05-01T11:26:31.999Z</time></trkpt><trkpt lat="42.80422608790071" lon="12.580738299443942"><ele>851.0</ele><time>2026-05-01T11:26:33.999Z</time></trkpt><trkpt lat="42.80415991842021" lon="12.580726550578861"><ele>851.0</ele><time>2026-05-01T11:26:35.999Z</time></trkpt><trkpt lat="42.804084443854705" lon="12.580712146159243"><ele>851.0</ele><time>2026-05-01T11:26:37.999Z</time></trkpt><trkpt lat="42.804005878331225" lon="12.580686267453325"><ele>852.0</ele><time>2026-05-01T11:26:39.999Z</time></trkpt><trkpt lat="42.80393301485095" lon="12.580662238336636"><ele>853.0</ele><time>2026-05-01T11:26:41.999Z</time></trkpt><trkpt lat="42.803868474921394" lon="12.58063715490796"><ele>854.0</ele><time>2026-05-01T11:26:43.999Z</time></trkpt><trkpt lat="42.80380609168975" lon="12.580608375776201"><ele>855.0</ele><time>2026-05-01T11:26:45.999Z</time></trkpt><trkpt lat="42.80373925711673" lon="12.580573649593152"><ele>856.0</ele><time>2026-05-01T11:26:47.999Z</time></trkpt><trkpt lat="42.803822468352756" lon="12.580586264750426"><ele>857.0</ele><time>2026-05-01T11:34:52.001Z</time></trkpt><trkpt lat="42.80388437033397" lon="12.580611347507396"><ele>858.0</ele><time>2026-05-01T11:35:03.001Z</time></trkpt><trkpt lat="42.80395178803851" lon="12.580632617151466"><ele>858.0</ele><time>2026-05-01T11:35:10.001Z</time></trkpt><trkpt lat="42.80403235211465" lon="12.580679233519717"><ele>858.0</ele><time>2026-05-01T11:35:13.001Z</time></trkpt><trkpt lat="42.804099202199566" lon="12.580695473193257"><ele>858.0</ele><time>2026-05-01T11:35:17.001Z</time></trkpt><trkpt lat="42.80417513199845" lon="12.580723454118903"><ele>858.0</ele><time>2026-05-01T11:35:24.001Z</time></trkpt><trkpt lat="42.804240268350156" lon="12.580739640142003"><ele>858.0</ele><time>2026-05-01T11:35:27.001Z</time></trkpt><trkpt lat="42.804309206824286" lon="12.5807647571705"><ele>858.0</ele><time>2026-05-01T11:35:31.001Z</time></trkpt><trkpt lat="42.804378691873325" lon="12.58077266150808"><ele>858.0</ele><time>2026-05-01T11:35:35.001Z</time></trkpt><trkpt lat="42.80444949610711" lon="12.580751894269714"><ele>856.8333333333334</ele><time>2026-05-01T11:35:42.001Z</time></trkpt><trkpt lat="42.80454556065978" lon="12.580761076006803"><ele>855.6666666666667</ele><time>2026-05-01T11:35:45.001Z</time></trkpt><trkpt lat="42.80462456909403" lon="12.580759177291629"><ele>854.5</ele><time>2026-05-01T11:35:47.001Z</time></trkpt><trkpt lat="42.804702324694894" lon="12.580760957809453"><ele>853.3333333333334</ele><time>2026-05-01T11:35:49.001Z</time></trkpt><trkpt lat="42.80477959731404" lon="12.580766601874275"><ele>852.1666666666667</ele><time>2026-05-01T11:35:51.001Z</time></trkpt><trkpt lat="42.80486513232953" lon="12.580765378659942"><ele>851.0</ele><time>2026-05-01T11:35:53.001Z</time></trkpt><trkpt lat="42.80495141827902" lon="12.580771301781088"><ele>851.0</ele><time>2026-05-01T11:35:55Z</time></trkpt><trkpt lat="42.805028374992865" lon="12.580772945109024"><ele>851.0</ele><time>2026-05-01T11:35:57Z</time></trkpt><trkpt lat="42.80509579549821" lon="12.580789571843122"><ele>851.0</ele><time>2026-05-01T11:35:59Z</time></trkpt><trkpt lat="42.80516940058568" lon="12.580799513898134"><ele>851.0</ele><time>2026-05-01T11:36:01Z</time></trkpt><trkpt lat="42.805234049316354" lon="12.580805443441488"><ele>851.0</ele><time>2026-05-01T11:36:03Z</time></trkpt><trkpt lat="42.80529978891903" lon="12.580808881055686"><ele>851.0</ele><time>2026-05-01T11:36:05Z</time></trkpt><trkpt lat="42.80536929843311" lon="12.58081362000982"><ele>851.0</ele><time>2026-05-01T11:36:07Z</time></trkpt><trkpt lat="42.80543924587216" lon="12.580812611025273"><ele>850.0</ele><time>2026-05-01T11:36:09Z</time></trkpt><trkpt lat="42.80553881839146" lon="12.58081489671608"><ele>849.0</ele><time>2026-05-01T11:36:12Z</time></trkpt><trkpt lat="42.80560470863581" lon="12.580807929418206"><ele>848.0</ele><time>2026-05-01T11:36:14Z</time></trkpt><trkpt lat="42.80567195606255" lon="12.58080832690095"><ele>847.0</ele><time>2026-05-01T11:36:16Z</time></trkpt><trkpt lat="42.805738275292256" lon="12.580808941011583"><ele>846.0</ele><time>2026-05-01T11:36:18Z</time></trkpt><trkpt lat="42.805803829184136" lon="12.580817106082955"><ele>845.0</ele><time>2026-05-01T11:36:20Z</time></trkpt><trkpt lat="42.80586957474408" lon="12.580819259131147"><ele>844.0</ele><time>2026-05-01T11:36:22Z</time></trkpt><trkpt lat="42.805936487960345" lon="12.580828341686585"><ele>843.2857142857143</ele><time>2026-05-01T11:36:24Z</time></trkpt><trkpt lat="42.80600200072082" lon="12.580838367193815"><ele>842.5714285714287</ele><time>2026-05-01T11:36:26Z</time></trkpt><trkpt lat="42.806070046106825" lon="12.58083967400005"><ele>841.8571428571429</ele><time>2026-05-01T11:36:28Z</time></trkpt><trkpt lat="42.80614014568366" lon="12.580844924306545"><ele>841.1428571428571</ele><time>2026-05-01T11:36:30Z</time></trkpt><trkpt lat="42.8062159883325" lon="12.580824396089925"><ele>840.4285714285714</ele><time>2026-05-01T11:36:32Z</time></trkpt><trkpt lat="42.80629039055852" lon="12.580777816706114"><ele>839.7142857142857</ele><time>2026-05-01T11:36:34Z</time></trkpt><trkpt lat="42.80635776261117" lon="12.580744264531717"><ele>839.0</ele><time>2026-05-01T11:36:36Z</time></trkpt><trkpt lat="42.80643723021054" lon="12.580713487665658"><ele>839.0000000000001</ele><time>2026-05-01T11:36:38Z</time></trkpt><trkpt lat="42.80651760200872" lon="12.580684229240322"><ele>839.0</ele><time>2026-05-01T11:36:40Z</time></trkpt><trkpt lat="42.80661156718156" lon="12.580650307496315"><ele>839.0</ele><time>2026-05-01T11:36:42Z</time></trkpt><trkpt lat="42.806695423841944" lon="12.580608244206733"><ele>839.0</ele><time>2026-05-01T11:36:44Z</time></trkpt><trkpt lat="42.806782098690455" lon="12.580571016087326"><ele>839.0000000000001</ele><time>2026-05-01T11:36:46Z</time></trkpt><trkpt lat="42.80686649332815" lon="12.58053771329909"><ele>839.0</ele><time>2026-05-01T11:36:48Z</time></trkpt><trkpt lat="42.80692863372045" lon="12.580508593146842"><ele>838.5000000000001</ele><time>2026-05-01T11:36:49Z</time></trkpt><trkpt lat="42.806996985923384" lon="12.58048218183806"><ele>838.0</ele><time>2026-05-01T11:36:50Z</time></trkpt><trkpt lat="42.807057509707974" lon="12.580457356232543"><ele>837.5</ele><time>2026-05-01T11:36:51Z</time></trkpt><trkpt lat="42.807119478421164" lon="12.58043065530466"><ele>837.0</ele><time>2026-05-01T11:36:52Z</time></trkpt><trkpt lat="42.80718210698018" lon="12.580403224441572"><ele>836.5000000000001</ele><time>2026-05-01T11:36:53Z</time></trkpt><trkpt lat="42.807298594121306" lon="12.580340666651377"><ele>836.0</ele><time>2026-05-01T11:36:55Z</time></trkpt><trkpt lat="42.807357174662116" lon="12.580307194239188"><ele>836.0000000000001</ele><time>2026-05-01T11:36:56Z</time></trkpt><trkpt lat="42.807429356433474" lon="12.580277532560514"><ele>836.0</ele><time>2026-05-01T11:36:58Z</time></trkpt><trkpt lat="42.80750717874814" lon="12.580267473331563"><ele>836.0</ele><time>2026-05-01T11:37:01Z</time></trkpt><trkpt lat="42.807574046253464" lon="12.580254991372705"><ele>836.0</ele><time>2026-05-01T11:37:07Z</time></trkpt><trkpt lat="42.80763804928552" lon="12.580274458012891"><ele>836.0000000000001</ele><time>2026-05-01T11:37:19Z</time></trkpt><trkpt lat="42.80770764366063" lon="12.580316989863736"><ele>836.0</ele><time>2026-05-01T11:37:38Z</time></trkpt><trkpt lat="42.8077940581653" lon="12.580325154819139"><ele>833.3333333333334</ele><time>2026-05-01T11:37:53Z</time></trkpt><trkpt lat="42.80785943655626" lon="12.580351022501256"><ele>830.6666666666667</ele><time>2026-05-01T11:38:08Z</time></trkpt><trkpt lat="42.80795899319397" lon="12.580399091020794"><ele>828.0</ele><time>2026-05-01T11:38:35Z</time></trkpt><trkpt lat="42.80803823560069" lon="12.580422846316775"><ele>825.3333333333333</ele><time>2026-05-01T11:38:51Z</time></trkpt><trkpt lat="42.80810003557268" lon="12.58044213902157"><ele>822.6666666666666</ele><time>2026-05-01T11:38:57Z</time></trkpt><trkpt lat="42.80816510640298" lon="12.58046597022881"><ele>820.0</ele><time>2026-05-01T11:39:02Z</time></trkpt><trkpt lat="42.808241857112655" lon="12.580510242419123"><ele>819.9999999999999</ele><time>2026-05-01T11:39:06Z</time></trkpt><trkpt lat="42.80831840817466" lon="12.58053351792908"><ele>820.0</ele><time>2026-05-01T11:39:09Z</time></trkpt><trkpt lat="42.80838976959822" lon="12.58053549356738"><ele>820.0</ele><time>2026-05-01T11:39:12Z</time></trkpt><trkpt lat="42.808476351495315" lon="12.580538130712613"><ele>820.0</ele><time>2026-05-01T11:39:15Z</time></trkpt><trkpt lat="42.80856643729409" lon="12.580507144622986"><ele>819.9999999999999</ele><time>2026-05-01T11:39:18Z</time></trkpt><trkpt lat="42.808653568804" lon="12.58048959466483"><ele>820.0</ele><time>2026-05-01T11:39:21Z</time></trkpt><trkpt lat="42.808719819561446" lon="12.580472560270756"><ele>818.3333333333333</ele><time>2026-05-01T11:39:23Z</time></trkpt><trkpt lat="42.80878931356968" lon="12.580469213028886"><ele>816.6666666666666</ele><time>2026-05-01T11:39:25Z</time></trkpt><trkpt lat="42.80886308837041" lon="12.580461946217145"><ele>815.0</ele><time>2026-05-01T11:39:27.001Z</time></trkpt><trkpt lat="42.80894600752585" lon="12.580449242851401"><ele>813.3333333333333</ele><time>2026-05-01T11:39:29.001Z</time></trkpt><trkpt lat="42.8090241978843" lon="12.580430320437872"><ele>811.6666666666666</ele><time>2026-05-01T11:39:31.001Z</time></trkpt><trkpt lat="42.80910531426603" lon="12.580404768036601"><ele>810.0</ele><time>2026-05-01T11:39:33.001Z</time></trkpt><trkpt lat="42.809210848867934" lon="12.580355116667127"><ele>811.8</ele><time>2026-05-01T11:39:35.001Z</time></trkpt><trkpt lat="42.809317509647045" lon="12.58029552861698"><ele>813.6</ele><time>2026-05-01T11:39:37.001Z</time></trkpt><trkpt lat="42.80942193897671" lon="12.5802701114025"><ele>815.4000000000001</ele><time>2026-05-01T11:39:39.001Z</time></trkpt><trkpt lat="42.80951096618931" lon="12.580215430234745"><ele>817.2</ele><time>2026-05-01T11:39:41.001Z</time></trkpt><trkpt lat="42.80958484305739" lon="12.580166227788824"><ele>819.0</ele><time>2026-05-01T11:39:43.001Z</time></trkpt><trkpt lat="42.80968638420084" lon="12.580107222748362"><ele>819.0</ele><time>2026-05-01T11:39:45.001Z</time></trkpt><trkpt lat="42.80978313494263" lon="12.580047357033086"><ele>819.0</ele><time>2026-05-01T11:39:47Z</time></trkpt><trkpt lat="42.80985396951262" lon="12.580013191667307"><ele>819.0</ele><time>2026-05-01T11:39:49Z</time></trkpt><trkpt lat="42.80992205826647" lon="12.579994829862297"><ele>819.0</ele><time>2026-05-01T11:39:52Z</time></trkpt><trkpt lat="42.809992940748565" lon="12.579999543042904"><ele>819.0</ele><time>2026-05-01T11:39:56Z</time></trkpt><trkpt lat="42.81006673508941" lon="12.5800329947466"><ele>819.0</ele><time>2026-05-01T11:40:06Z</time></trkpt><trkpt lat="42.8101304595703" lon="12.58007141991785"><ele>816.5</ele><time>2026-05-01T11:40:10Z</time></trkpt><trkpt lat="42.81019694134826" lon="12.580121139763325"><ele>814.0</ele><time>2026-05-01T11:40:14Z</time></trkpt><trkpt lat="42.81027148483882" lon="12.580163755360182"><ele>811.5</ele><time>2026-05-01T11:40:18Z</time></trkpt><trkpt lat="42.81035841671093" lon="12.580192494249763"><ele>809.0</ele><time>2026-05-01T11:40:22Z</time></trkpt><trkpt lat="42.81042426717101" lon="12.5802249016984"><ele>806.5</ele><time>2026-05-01T11:40:26Z</time></trkpt><trkpt lat="42.81048663465906" lon="12.580259686457628"><ele>804.0</ele><time>2026-05-01T11:40:30Z</time></trkpt><trkpt lat="42.81055764785793" lon="12.580301006457963"><ele>804.0</ele><time>2026-05-01T11:40:33Z</time></trkpt><trkpt lat="42.810623984295084" lon="12.580319490306108"><ele>804.0</ele><time>2026-05-01T11:40:36Z</time></trkpt><trkpt lat="42.81068489705829" lon="12.580354477268274"><ele>804.0</ele><time>2026-05-01T11:40:38Z</time></trkpt><trkpt lat="42.81074924114876" lon="12.580393656992584"><ele>804.0</ele><time>2026-05-01T11:40:40Z</time></trkpt><trkpt lat="42.81081375448383" lon="12.580431110731675"><ele>804.0</ele><time>2026-05-01T11:40:42Z</time></trkpt><trkpt lat="42.81089264378173" lon="12.580473207746733"><ele>804.0</ele><time>2026-05-01T11:40:45Z</time></trkpt><trkpt lat="42.810977540247364" lon="12.580518386229102"><ele>803.1666666666666</ele><time>2026-05-01T11:40:48Z</time></trkpt><trkpt lat="42.811042642664354" lon="12.580548900633174"><ele>802.3333333333333</ele><time>2026-05-01T11:40:50Z</time></trkpt><trkpt lat="42.811124004333145" lon="12.580550473457764"><ele>801.5</ele><time>2026-05-01T11:40:52Z</time></trkpt><trkpt lat="42.8112024878508" lon="12.580573121135549"><ele>800.6666666666666</ele><time>2026-05-01T11:40:54Z</time></trkpt><trkpt lat="42.81127449320401" lon="12.580607433155537"><ele>799.8333333333333</ele><time>2026-05-01T11:40:56Z</time></trkpt><trkpt lat="42.81136640537944" lon="12.580599020891892"><ele>799.0</ele><time>2026-05-01T11:40:58Z</time></trkpt><trkpt lat="42.8114454673234" lon="12.58061986451292"><ele>798.9999999999999</ele><time>2026-05-01T11:41:00Z</time></trkpt><trkpt lat="42.81151466255484" lon="12.580679415634132"><ele>799.0</ele><time>2026-05-01T11:41:02Z</time></trkpt><trkpt lat="42.811546817927784" lon="12.580757596483705"><ele>799.0</ele><time>2026-05-01T11:41:05Z</time></trkpt><trkpt lat="42.81159670988852" lon="12.580852164408968"><ele>799.0</ele><time>2026-05-01T11:41:08Z</time></trkpt><trkpt lat="42.811647566777204" lon="12.580940525309444"><ele>798.9999999999999</ele><time>2026-05-01T11:41:11Z</time></trkpt><trkpt lat="42.811682657787536" lon="12.581027674373583"><ele>799.0</ele><time>2026-05-01T11:41:14Z</time></trkpt><trkpt lat="42.81174702799168" lon="12.581070558558356"><ele>798.9999999999999</ele><time>2026-05-01T11:41:16Z</time></trkpt><trkpt lat="42.811808895030914" lon="12.581130266869666"><ele>799.0</ele><time>2026-05-01T11:41:17.999Z</time></trkpt><trkpt lat="42.811878540589476" lon="12.581208720814754"><ele>799.0</ele><time>2026-05-01T11:41:19.999Z</time></trkpt><trkpt lat="42.81194332981983" lon="12.5812903062182"><ele>799.0</ele><time>2026-05-01T11:41:21.999Z</time></trkpt><trkpt lat="42.812011913952446" lon="12.58134603743038"><ele>798.9999999999999</ele><time>2026-05-01T11:41:23.999Z</time></trkpt><trkpt lat="42.81206714364255" lon="12.58139813543432"><ele>799.0</ele><time>2026-05-01T11:41:25.999Z</time></trkpt><trkpt lat="42.812125264508914" lon="12.581476264239809"><ele>798.2857142857143</ele><time>2026-05-01T11:41:28.999Z</time></trkpt><trkpt lat="42.81219915842546" lon="12.581524438828943"><ele>797.5714285714286</ele><time>2026-05-01T11:41:33Z</time></trkpt><trkpt lat="42.812249940353496" lon="12.581595399718518"><ele>796.8571428571429</ele><time>2026-05-01T11:41:37Z</time></trkpt><trkpt lat="42.812183561463904" lon="12.581602487032034"><ele>796.1428571428571</ele><time>2026-05-01T11:46:55Z</time></trkpt><trkpt lat="42.81211644077338" lon="12.581601084745914"><ele>795.4285714285713</ele><time>2026-05-01T11:46:58Z</time></trkpt><trkpt lat="42.812032240295196" lon="12.58160332821995"><ele>794.7142857142857</ele><time>2026-05-01T11:47:01Z</time></trkpt><trkpt lat="42.81197180930003" lon="12.581632784828821"><ele>794.0</ele><time>2026-05-01T11:47:04Z</time></trkpt><trkpt lat="42.81194954588144" lon="12.581733273449917"><ele>794.0000000000001</ele><time>2026-05-01T11:47:07Z</time></trkpt><trkpt lat="42.81193903988464" lon="12.581829496082081"><ele>794.0</ele><time>2026-05-01T11:47:10Z</time></trkpt><trkpt lat="42.81186221380172" lon="12.58186698985482"><ele>794.0</ele><time>2026-05-01T11:47:13Z</time></trkpt><trkpt lat="42.811782432859005" lon="12.581856686372603"><ele>794.0</ele><time>2026-05-01T11:47:24Z</time></trkpt><trkpt lat="42.811720502646764" lon="12.58189894073078"><ele>794.0000000000001</ele><time>2026-05-01T11:47:27Z</time></trkpt><trkpt lat="42.811647256139636" lon="12.581920598566244"><ele>794.0</ele><time>2026-05-01T11:47:30Z</time></trkpt><trkpt lat="42.81156468687279" lon="12.58193876883973"><ele>793.1666666666667</ele><time>2026-05-01T11:47:34Z</time></trkpt><trkpt lat="42.81150550325291" lon="12.582000224968153"><ele>792.3333333333334</ele><time>2026-05-01T11:47:38Z</time></trkpt><trkpt lat="42.81143910057113" lon="12.58203098535814"><ele>791.5</ele><time>2026-05-01T11:47:41Z</time></trkpt><trkpt lat="42.81137839756736" lon="12.581974723750568"><ele>790.6666666666667</ele><time>2026-05-01T11:47:43Z</time></trkpt><trkpt lat="42.81133788058837" lon="12.581896554057028"><ele>789.8333333333334</ele><time>2026-05-01T11:47:45Z</time></trkpt><trkpt lat="42.811263831365665" lon="12.581809936343554"><ele>789.0</ele><time>2026-05-01T11:47:48Z</time></trkpt><trkpt lat="42.811186988192944" lon="12.581765811788234"><ele>788.9999999999999</ele><time>2026-05-01T11:47:50Z</time></trkpt><trkpt lat="42.81111804323869" lon="12.581745139665427"><ele>789.0</ele><time>2026-05-01T11:47:53Z</time></trkpt><trkpt lat="42.81105181846323" lon="12.581737993605984"><ele>789.0</ele><time>2026-05-01T11:51:12Z</time></trkpt><trkpt lat="42.81097668588494" lon="12.581739067579969"><ele>789.0</ele><time>2026-05-01T11:51:16Z</time></trkpt><trkpt lat="42.810910926955" lon="12.581768660197834"><ele>789.0</ele><time>2026-05-01T11:51:20Z</time></trkpt><trkpt lat="42.810848193530425" lon="12.581805794420777"><ele>788.9999999999999</ele><time>2026-05-01T11:51:28.001Z</time></trkpt><trkpt lat="42.8107924984137" lon="12.581847844472508"><ele>789.0</ele><time>2026-05-01T11:51:31.001Z</time></trkpt><trkpt lat="42.81073255971906" lon="12.581880672631142"><ele>787.9999999999999</ele><time>2026-05-01T11:51:34.001Z</time></trkpt><trkpt lat="42.8106628053354" lon="12.581917840788684"><ele>787.0</ele><time>2026-05-01T11:51:39.001Z</time></trkpt><trkpt lat="42.81060132019004" lon="12.581962385752123"><ele>786.0</ele><time>2026-05-01T11:51:46.001Z</time></trkpt><trkpt lat="42.81054396802187" lon="12.582009142953371"><ele>785.0</ele><time>2026-05-01T11:51:49.001Z</time></trkpt><trkpt lat="42.81048046389363" lon="12.58204028272448"><ele>784.0</ele><time>2026-05-01T11:51:52.001Z</time></trkpt><trkpt lat="42.81043697382799" lon="12.582112081187283"><ele>782.9999999999999</ele><time>2026-05-01T11:51:55.001Z</time></trkpt><trkpt lat="42.81037215625868" lon="12.58215308875155"><ele>782.0</ele><time>2026-05-01T11:51:59.001Z</time></trkpt><trkpt lat="42.810298714708395" lon="12.58219036483248"><ele>779.2857142857142</ele><time>2026-05-01T11:52:02.999Z</time></trkpt><trkpt lat="42.81023678512067" lon="12.582210739856569"><ele>776.5714285714286</ele><time>2026-05-01T11:52:07.999Z</time></trkpt><trkpt lat="42.81017593601609" lon="12.582247805902233"><ele>773.8571428571429</ele><time>2026-05-01T11:52:11.999Z</time></trkpt><trkpt lat="42.810115610111055" lon="12.582305932884267"><ele>771.1428571428571</ele><time>2026-05-01T11:52:16Z</time></trkpt><trkpt lat="42.81004174625367" lon="12.582358300739271"><ele>768.4285714285714</ele><time>2026-05-01T11:52:21Z</time></trkpt><trkpt lat="42.809988282885044" lon="12.582420088898"><ele>765.7142857142857</ele><time>2026-05-01T11:52:25Z</time></trkpt><trkpt lat="42.80992878950021" lon="12.582449839930986"><ele>763.0</ele><time>2026-05-01T11:52:29Z</time></trkpt><trkpt lat="42.80986184212572" lon="12.58249043541187"><ele>762.5714285714286</ele><time>2026-05-01T11:52:36Z</time></trkpt><trkpt lat="42.80978783859303" lon="12.582505944442936"><ele>762.1428571428571</ele><time>2026-05-01T11:52:55Z</time></trkpt><trkpt lat="42.8097351370632" lon="12.582576599873919"><ele>761.7142857142858</ele><time>2026-05-01T11:53:14.999Z</time></trkpt><trkpt lat="42.80966982605609" lon="12.582582932662493"><ele>761.2857142857142</ele><time>2026-05-01T11:53:20.999Z</time></trkpt><trkpt lat="42.80961546688535" lon="12.582627821765985"><ele>760.8571428571429</ele><time>2026-05-01T11:53:26.999Z</time></trkpt><trkpt lat="42.80954653043654" lon="12.582655010273264"><ele>760.4285714285714</ele><time>2026-05-01T11:53:32.999Z</time></trkpt><trkpt lat="42.80946817172513" lon="12.58268590194967"><ele>760.0</ele><time>2026-05-01T11:53:40.999Z</time></trkpt><trkpt lat="42.80940217978369" lon="12.582719617604717"><ele>760.0</ele><time>2026-05-01T11:53:46.999Z</time></trkpt><trkpt lat="42.809337660224145" lon="12.582750555966962"><ele>760.0</ele><time>2026-05-01T11:53:50.999Z</time></trkpt><trkpt lat="42.80928309693586" lon="12.582794224197665"><ele>760.0</ele><time>2026-05-01T11:53:54.999Z</time></trkpt><trkpt lat="42.80922392059635" lon="12.58283103909899"><ele>760.0</ele><time>2026-05-01T11:53:58.999Z</time></trkpt><trkpt lat="42.809159225901" lon="12.582876648970537"><ele>760.0</ele><time>2026-05-01T11:54:02.999Z</time></trkpt><trkpt lat="42.8091020930636" lon="12.58291843122619"><ele>760.0</ele><time>2026-05-01T11:54:05.999Z</time></trkpt><trkpt lat="42.80903381843568" lon="12.582943638328969"><ele>760.0</ele><time>2026-05-01T11:54:12.999Z</time></trkpt><trkpt lat="42.80897018860651" lon="12.582972606055584"><ele>755.5714285714286</ele><time>2026-05-01T11:54:17.999Z</time></trkpt><trkpt lat="42.80890469422826" lon="12.583027979104132"><ele>751.1428571428571</ele><time>2026-05-01T11:54:23.999Z</time></trkpt><trkpt lat="42.80884849618002" lon="12.583069834862142"><ele>746.7142857142858</ele><time>2026-05-01T11:54:28.999Z</time></trkpt><trkpt lat="42.80879555680683" lon="12.583123663466433"><ele>742.2857142857142</ele><time>2026-05-01T11:54:33.999Z</time></trkpt><trkpt lat="42.8087395920039" lon="12.583184808199801"><ele>737.8571428571428</ele><time>2026-05-01T11:54:38.999Z</time></trkpt><trkpt lat="42.80865805936156" lon="12.583177673183632"><ele>733.4285714285714</ele><time>2026-05-01T11:54:43.999Z</time></trkpt><trkpt lat="42.80858836062911" lon="12.58321541175631"><ele>729.0</ele><time>2026-05-01T11:54:54Z</time></trkpt><trkpt lat="42.808518630888386" lon="12.583255138108282"><ele>728.5714285714286</ele><time>2026-05-01T11:54:59Z</time></trkpt><trkpt lat="42.80845362393113" lon="12.583293490129348"><ele>728.1428571428571</ele><time>2026-05-01T11:55:04Z</time></trkpt><trkpt lat="42.80840473002851" lon="12.583348966575759"><ele>727.7142857142857</ele><time>2026-05-01T11:55:08Z</time></trkpt><trkpt lat="42.808332203198994" lon="12.583391476385202"><ele>727.2857142857142</ele><time>2026-05-01T11:55:15Z</time></trkpt><trkpt lat="42.80825943513122" lon="12.583402540937008"><ele>726.8571428571429</ele><time>2026-05-01T11:55:20Z</time></trkpt><trkpt lat="42.80819621165956" lon="12.583431789756816"><ele>726.4285714285713</ele><time>2026-05-01T11:55:24Z</time></trkpt><trkpt lat="42.80813229786766" lon="12.58345268972241"><ele>726.0</ele><time>2026-05-01T11:55:29Z</time></trkpt><trkpt lat="42.808068040722894" lon="12.583484585260646"><ele>725.9999999999999</ele><time>2026-05-01T11:55:33Z</time></trkpt><trkpt lat="42.8080084454232" lon="12.583529952927023"><ele>726.0</ele><time>2026-05-01T11:55:40Z</time></trkpt><trkpt lat="42.80794625779936" lon="12.583577653473915"><ele>726.0</ele><time>2026-05-01T11:55:45Z</time></trkpt><trkpt lat="42.80787890795129" lon="12.583615611633721"><ele>726.0</ele><time>2026-05-01T11:55:50Z</time></trkpt><trkpt lat="42.8078141730295" lon="12.583640022004186"><ele>726.0</ele><time>2026-05-01T11:55:54Z</time></trkpt><trkpt lat="42.80774350744175" lon="12.583664680996904"><ele>725.9999999999999</ele><time>2026-05-01T11:55:58Z</time></trkpt><trkpt lat="42.80767501785359" lon="12.58370776697127"><ele>726.0</ele><time>2026-05-01T11:56:03Z</time></trkpt><trkpt lat="42.80762290130006" lon="12.583776349502736"><ele>721.4285714285713</ele><time>2026-05-01T11:56:08Z</time></trkpt><trkpt lat="42.807565057149176" lon="12.583839103860058"><ele>716.8571428571429</ele><time>2026-05-01T11:56:12Z</time></trkpt><trkpt lat="42.80750636392861" lon="12.583873856953524"><ele>712.2857142857142</ele><time>2026-05-01T11:56:16Z</time></trkpt><trkpt lat="42.80744170153476" lon="12.583912273683517"><ele>707.7142857142857</ele><time>2026-05-01T11:56:21Z</time></trkpt><trkpt lat="42.80737484299033" lon="12.583970672703051"><ele>703.1428571428571</ele><time>2026-05-01T11:57:07Z</time></trkpt><trkpt lat="42.807297686602546" lon="12.5840161739593"><ele>698.5714285714286</ele><time>2026-05-01T11:57:11Z</time></trkpt><trkpt lat="42.80723200808198" lon="12.5840570116005"><ele>694.0</ele><time>2026-05-01T11:57:14Z</time></trkpt><trkpt lat="42.80717186217948" lon="12.584103378171585"><ele>694.0</ele><time>2026-05-01T11:57:17Z</time></trkpt><trkpt lat="42.80711339280793" lon="12.584145545353813"><ele>694.0</ele><time>2026-05-01T11:57:19Z</time></trkpt><trkpt lat="42.807041986964066" lon="12.584196208494376"><ele>694.0</ele><time>2026-05-01T11:57:22Z</time></trkpt><trkpt lat="42.80697119694138" lon="12.584249908089312"><ele>694.0</ele><time>2026-05-01T11:57:25Z</time></trkpt><trkpt lat="42.80689315969184" lon="12.584311338916327"><ele>694.0</ele><time>2026-05-01T11:57:30Z</time></trkpt><trkpt lat="42.80683053105028" lon="12.584345089836766"><ele>694.0</ele><time>2026-05-01T11:57:32Z</time></trkpt><trkpt lat="42.80677297498581" lon="12.584418339592249"><ele>695.0</ele><time>2026-05-01T11:57:41Z</time></trkpt><trkpt lat="42.80670616377101" lon="12.584484194688333"><ele>696.0</ele><time>2026-05-01T11:57:44Z</time></trkpt><trkpt lat="42.8066484074471" lon="12.584547113917546"><ele>697.0</ele><time>2026-05-01T11:57:47Z</time></trkpt><trkpt lat="42.80659154842905" lon="12.58459168205008"><ele>698.0</ele><time>2026-05-01T11:57:50Z</time></trkpt><trkpt lat="42.80652244198762" lon="12.584640994679638"><ele>699.0</ele><time>2026-05-01T11:57:53Z</time></trkpt><trkpt lat="42.806453887376826" lon="12.584698386639019"><ele>700.0</ele><time>2026-05-01T11:57:56Z</time></trkpt><trkpt lat="42.80638293557921" lon="12.584761869628732"><ele>697.4285714285714</ele><time>2026-05-01T11:58:00Z</time></trkpt><trkpt lat="42.806328712067966" lon="12.584816455808278"><ele>694.8571428571429</ele><time>2026-05-01T11:58:04Z</time></trkpt><trkpt lat="42.806273343444325" lon="12.584886142630529"><ele>692.2857142857142</ele><time>2026-05-01T11:58:07Z</time></trkpt><trkpt lat="42.80621363030211" lon="12.5849441196448"><ele>689.7142857142858</ele><time>2026-05-01T11:58:10Z</time></trkpt><trkpt lat="42.80615694435623" lon="12.585000276657583"><ele>687.1428571428571</ele><time>2026-05-01T11:58:13Z</time></trkpt><trkpt lat="42.80609633989073" lon="12.585069945458079"><ele>684.5714285714286</ele><time>2026-05-01T11:58:16Z</time></trkpt><trkpt lat="42.80603205388172" lon="12.585125007136424"><ele>682.0</ele><time>2026-05-01T11:58:18Z</time></trkpt><trkpt lat="42.80597115025222" lon="12.585160719202406"><ele>682.0</ele><time>2026-05-01T11:58:21Z</time></trkpt><trkpt lat="42.80591346022536" lon="12.585197067963039"><ele>682.0</ele><time>2026-05-01T11:58:24Z</time></trkpt><trkpt lat="42.80584998433993" lon="12.585241384938548"><ele>682.0</ele><time>2026-05-01T11:58:27Z</time></trkpt><trkpt lat="42.805784179355" lon="12.585277521021908"><ele>682.0</ele><time>2026-05-01T11:58:31Z</time></trkpt><trkpt lat="42.80572908054946" lon="12.585343687605526"><ele>682.0</ele><time>2026-05-01T11:58:34Z</time></trkpt><trkpt lat="42.80564896492593" lon="12.585380127038128"><ele>682.0</ele><time>2026-05-01T11:58:38Z</time></trkpt><trkpt lat="42.80557627685305" lon="12.58543664467195"><ele>682.0</ele><time>2026-05-01T11:58:41Z</time></trkpt><trkpt lat="42.8055091787978" lon="12.585481701303678"><ele>678.5</ele><time>2026-05-01T11:58:45Z</time></trkpt><trkpt lat="42.8054313489814" lon="12.585519162847477"><ele>675.0</ele><time>2026-05-01T11:58:48Z</time></trkpt><trkpt lat="42.80536643027444" lon="12.58557539144466"><ele>671.5</ele><time>2026-05-01T11:58:53Z</time></trkpt><trkpt lat="42.80531445081921" lon="12.585625766875761"><ele>668.0</ele><time>2026-05-01T11:58:56Z</time></trkpt><trkpt lat="42.80525634455014" lon="12.585681550465992"><ele>664.5</ele><time>2026-05-01T11:58:59Z</time></trkpt><trkpt lat="42.805188745780455" lon="12.585700352233406"><ele>661.0</ele><time>2026-05-01T11:59:02Z</time></trkpt><trkpt lat="42.805109288505335" lon="12.58574797244257"><ele>661.0</ele><time>2026-05-01T11:59:05Z</time></trkpt><trkpt lat="42.80505632140275" lon="12.585795099813197"><ele>661.0</ele><time>2026-05-01T11:59:09Z</time></trkpt><trkpt lat="42.805007129248246" lon="12.585851740354311"><ele>661.0</ele><time>2026-05-01T11:59:15Z</time></trkpt><trkpt lat="42.8049590384619" lon="12.58592240251354"><ele>661.0</ele><time>2026-05-01T11:59:19Z</time></trkpt><trkpt lat="42.80491900601642" lon="12.585995789563524"><ele>661.0</ele><time>2026-05-01T11:59:22Z</time></trkpt><trkpt lat="42.80485329136351" lon="12.586043882604073"><ele>661.0</ele><time>2026-05-01T11:59:27Z</time></trkpt><trkpt lat="42.80480644048637" lon="12.586111090592683"><ele>661.0</ele><time>2026-05-01T11:59:30Z</time></trkpt><trkpt lat="42.80473754712814" lon="12.586168113986133"><ele>658.0</ele><time>2026-05-01T11:59:34Z</time></trkpt><trkpt lat="42.80468335814542" lon="12.586224846037425"><ele>655.0</ele><time>2026-05-01T11:59:37Z</time></trkpt><trkpt lat="42.80461285106304" lon="12.586264561187841"><ele>652.0</ele><time>2026-05-01T11:59:40Z</time></trkpt><trkpt lat="42.80454851664613" lon="12.5863067187333"><ele>649.0</ele><time>2026-05-01T11:59:48Z</time></trkpt><trkpt lat="42.80448460531144" lon="12.586364828094968"><ele>646.0</ele><time>2026-05-01T11:59:51Z</time></trkpt><trkpt lat="42.80442190575998" lon="12.586392416760418"><ele>643.0</ele><time>2026-05-01T12:00:09.001Z</time></trkpt><trkpt lat="42.80437876382817" lon="12.586327551877705"><ele>640.0</ele><time>2026-05-01T12:05:23.001Z</time></trkpt><trkpt lat="42.804315548915675" lon="12.586343677632835"><ele>640.0</ele><time>2026-05-01T12:05:26.001Z</time></trkpt><trkpt lat="42.80428499278735" lon="12.58644318820821"><ele>640.0</ele><time>2026-05-01T12:05:33.001Z</time></trkpt><trkpt lat="42.804234023511974" lon="12.58651689566661"><ele>640.0</ele><time>2026-05-01T12:05:39.001Z</time></trkpt><trkpt lat="42.804154865549506" lon="12.586572676326597"><ele>640.0</ele><time>2026-05-01T12:05:43.001Z</time></trkpt><trkpt lat="42.80409666548876" lon="12.586609588612452"><ele>640.0</ele><time>2026-05-01T12:05:46.001Z</time></trkpt><trkpt lat="42.804017953932245" lon="12.586647318847813"><ele>640.0</ele><time>2026-05-01T12:05:50.001Z</time></trkpt><trkpt lat="42.80395277891775" lon="12.58667037696007"><ele>640.0</ele><time>2026-05-01T12:05:53.001Z</time></trkpt><trkpt lat="42.80386392259361" lon="12.586714643457146"><ele>640.0</ele><time>2026-05-01T12:05:58.001Z</time></trkpt><trkpt lat="42.80380113708584" lon="12.58672662763095"><ele>640.0</ele><time>2026-05-01T12:06:00.001Z</time></trkpt><trkpt lat="42.803737488169794" lon="12.586735981582807"><ele>640.0</ele><time>2026-05-01T12:06:03.001Z</time></trkpt><trkpt lat="42.803668829103515" lon="12.586772490032926"><ele>640.0</ele><time>2026-05-01T12:06:06.001Z</time></trkpt><trkpt lat="42.803576015031226" lon="12.586755760844344"><ele>640.0</ele><time>2026-05-01T12:11:21Z</time></trkpt><trkpt lat="42.80349542717047" lon="12.586764616862594"><ele>639.0</ele><time>2026-05-01T12:11:23Z</time></trkpt><trkpt lat="42.803413651314564" lon="12.586792917396094"><ele>638.0</ele><time>2026-05-01T12:11:25Z</time></trkpt><trkpt lat="42.80331554426926" lon="12.586817947498348"><ele>637.0</ele><time>2026-05-01T12:11:27Z</time></trkpt><trkpt lat="42.80320044727251" lon="12.586867707519856"><ele>636.0</ele><time>2026-05-01T12:11:29Z</time></trkpt><trkpt lat="42.803130627984864" lon="12.586905285937672"><ele>635.0</ele><time>2026-05-01T12:11:30Z</time></trkpt><trkpt lat="42.8030592059501" lon="12.586938787226321"><ele>635.0</ele><time>2026-05-01T12:11:31Z</time></trkpt><trkpt lat="42.80293768113134" lon="12.58697510221678"><ele>635.0</ele><time>2026-05-01T12:11:33Z</time></trkpt><trkpt lat="42.80287264390568" lon="12.58698965849229"><ele>635.0</ele><time>2026-05-01T12:11:34Z</time></trkpt><trkpt lat="42.80280624161302" lon="12.587014980135656"><ele>635.0</ele><time>2026-05-01T12:11:35Z</time></trkpt><trkpt lat="42.80273908938592" lon="12.587048087736076"><ele>635.0</ele><time>2026-05-01T12:11:36Z</time></trkpt><trkpt lat="42.80262632354651" lon="12.58711347553551"><ele>633.7142857142857</ele><time>2026-05-01T12:11:38Z</time></trkpt><trkpt lat="42.8025696539693" lon="12.587157728056422"><ele>632.4285714285714</ele><time>2026-05-01T12:11:39Z</time></trkpt><trkpt lat="42.8025107120544" lon="12.587200265079842"><ele>631.1428571428571</ele><time>2026-05-01T12:11:40Z</time></trkpt><trkpt lat="42.80243913996611" lon="12.587244578137817"><ele>629.8571428571429</ele><time>2026-05-01T12:11:41Z</time></trkpt><trkpt lat="42.8023746199673" lon="12.587283687603657"><ele>628.5714285714286</ele><time>2026-05-01T12:11:42Z</time></trkpt><trkpt lat="42.80230931776111" lon="12.58730332310275"><ele>627.2857142857142</ele><time>2026-05-01T12:11:43Z</time></trkpt><trkpt lat="42.802226369781714" lon="12.587327538209674"><ele>626.0</ele><time>2026-05-01T12:11:44Z</time></trkpt><trkpt lat="42.80214538355934" lon="12.58735811326176"><ele>626.0</ele><time>2026-05-01T12:11:45Z</time></trkpt><trkpt lat="42.802051996531475" lon="12.587391014295925"><ele>626.0</ele><time>2026-05-01T12:11:46Z</time></trkpt><trkpt lat="42.801952429015586" lon="12.587428587394411"><ele>626.0</ele><time>2026-05-01T12:11:47Z</time></trkpt><trkpt lat="42.8018577803106" lon="12.58746707165892"><ele>626.0</ele><time>2026-05-01T12:11:48Z</time></trkpt><trkpt lat="42.80179699008953" lon="12.587492395312747"><ele>626.0</ele><time>2026-05-01T12:11:49Z</time></trkpt><trkpt lat="42.80172070584281" lon="12.587540894742343"><ele>626.0</ele><time>2026-05-01T12:11:51Z</time></trkpt><trkpt lat="42.80165935009509" lon="12.587584010330634"><ele>627.4</ele><time>2026-05-01T12:11:52Z</time></trkpt><trkpt lat="42.80158216333478" lon="12.587654777405517"><ele>628.8</ele><time>2026-05-01T12:11:53Z</time></trkpt><trkpt lat="42.801508086089214" lon="12.58772529147399"><ele>630.1999999999999</ele><time>2026-05-01T12:11:54Z</time></trkpt><trkpt lat="42.80143129176774" lon="12.587798035084907"><ele>631.6</ele><time>2026-05-01T12:11:55Z</time></trkpt><trkpt lat="42.80134913238553" lon="12.587869756741444"><ele>633.0</ele><time>2026-05-01T12:11:56.001Z</time></trkpt><trkpt lat="42.80125429091062" lon="12.587949253016093"><ele>632.0</ele><time>2026-05-01T12:11:57.001Z</time></trkpt><trkpt lat="42.80114117576013" lon="12.588029362488735"><ele>631.0</ele><time>2026-05-01T12:11:58.001Z</time></trkpt><trkpt lat="42.801037291229704" lon="12.588103475524296"><ele>630.0</ele><time>2026-05-01T12:11:59.001Z</time></trkpt><trkpt lat="42.80094583876678" lon="12.58816354037385"><ele>629.0</ele><time>2026-05-01T12:12:00.001Z</time></trkpt><trkpt lat="42.80083993092658" lon="12.588220889285035"><ele>629.0</ele><time>2026-05-01T12:12:01.001Z</time></trkpt><trkpt lat="42.80072011467963" lon="12.588268583687023"><ele>629.0</ele><time>2026-05-01T12:12:02.001Z</time></trkpt><trkpt lat="42.80060441039513" lon="12.588318869216288"><ele>629.0</ele><time>2026-05-01T12:12:03.001Z</time></trkpt><trkpt lat="42.8005212828415" lon="12.588359341984324"><ele>629.0</ele><time>2026-05-01T12:12:04.001Z</time></trkpt><trkpt lat="42.80045245795953" lon="12.588397667796633"><ele>629.0</ele><time>2026-05-01T12:12:05.001Z</time></trkpt><trkpt lat="42.80038311898595" lon="12.58842625558213"><ele>629.0</ele><time>2026-05-01T12:12:06.001Z</time></trkpt><trkpt lat="42.80030876559902" lon="12.588437718938701"><ele>629.0</ele><time>2026-05-01T12:12:07.001Z</time></trkpt><trkpt lat="42.80023270913583" lon="12.588443415664708"><ele>629.0</ele><time>2026-05-01T12:12:08.001Z</time></trkpt><trkpt lat="42.80015629827925" lon="12.588452393495508"><ele>629.0</ele><time>2026-05-01T12:12:09.001Z</time></trkpt><trkpt lat="42.80008965476144" lon="12.588466832725329"><ele>629.0</ele><time>2026-05-01T12:12:10.001Z</time></trkpt><trkpt lat="42.8000244097485" lon="12.588480991941546"><ele>629.0</ele><time>2026-05-01T12:12:11.001Z</time></trkpt><trkpt lat="42.79986665863355" lon="12.588501671395646"><ele>629.8</ele><time>2026-05-01T12:12:14.001Z</time></trkpt><trkpt lat="42.799753828928125" lon="12.588505965163158"><ele>630.5999999999999</ele><time>2026-05-01T12:12:16.001Z</time></trkpt><trkpt lat="42.799659048167435" lon="12.588499500416285"><ele>631.4</ele><time>2026-05-01T12:12:18.001Z</time></trkpt><trkpt lat="42.799566952399246" lon="12.588466237642924"><ele>632.1999999999999</ele><time>2026-05-01T12:12:20.001Z</time></trkpt><trkpt lat="42.799496660244536" lon="12.588445718723355"><ele>633.0</ele><time>2026-05-01T12:12:21.001Z</time></trkpt><trkpt lat="42.799417065500805" lon="12.588425903528666"><ele>633.0</ele><time>2026-05-01T12:12:22.001Z</time></trkpt><trkpt lat="42.79933446747632" lon="12.588412301065778"><ele>633.0</ele><time>2026-05-01T12:12:23.001Z</time></trkpt><trkpt lat="42.799258106995296" lon="12.588398694780222"><ele>633.0</ele><time>2026-05-01T12:12:24.001Z</time></trkpt><trkpt lat="42.799188578899084" lon="12.588380021212908"><ele>633.0</ele><time>2026-05-01T12:12:25.001Z</time></trkpt><trkpt lat="42.79907387734131" lon="12.58833333047318"><ele>633.0</ele><time>2026-05-01T12:12:27.001Z</time></trkpt><trkpt lat="42.79898581096406" lon="12.588368458679117"><ele>633.0</ele><time>2026-05-01T12:12:29.001Z</time></trkpt><trkpt lat="42.79892569138489" lon="12.588444469458267"><ele>632.3333333333334</ele><time>2026-05-01T12:12:31.001Z</time></trkpt><trkpt lat="42.79882360851623" lon="12.58854267718965"><ele>631.6666666666666</ele><time>2026-05-01T12:12:33.001Z</time></trkpt><trkpt lat="42.79876873014828" lon="12.588590389218664"><ele>631.0</ele><time>2026-05-01T12:12:34.001Z</time></trkpt><trkpt lat="42.79870359974951" lon="12.588644836896572"><ele>630.3333333333333</ele><time>2026-05-01T12:12:35.001Z</time></trkpt><trkpt lat="42.79863153329543" lon="12.588703342204576"><ele>629.6666666666666</ele><time>2026-05-01T12:12:36.001Z</time></trkpt><trkpt lat="42.79856852966184" lon="12.588753420466652"><ele>629.0</ele><time>2026-05-01T12:12:37.001Z</time></trkpt><trkpt lat="42.798508291441195" lon="12.588816216275415"><ele>627.8333333333333</ele><time>2026-05-01T12:12:38.001Z</time></trkpt><trkpt lat="42.79845204666862" lon="12.58887863091441"><ele>626.6666666666666</ele><time>2026-05-01T12:12:39.001Z</time></trkpt><trkpt lat="42.79838742409996" lon="12.58893820923549"><ele>625.5</ele><time>2026-05-01T12:12:40.001Z</time></trkpt><trkpt lat="42.79831244092186" lon="12.588987507191652"><ele>624.3333333333334</ele><time>2026-05-01T12:12:41.001Z</time></trkpt><trkpt lat="42.79824028632889" lon="12.589038362517348"><ele>623.1666666666667</ele><time>2026-05-01T12:12:42.001Z</time></trkpt><trkpt lat="42.79817045872919" lon="12.589088091393878"><ele>622.0</ele><time>2026-05-01T12:12:43.001Z</time></trkpt><trkpt lat="42.798105378139915" lon="12.58913427586531"><ele>622.0</ele><time>2026-05-01T12:12:44.001Z</time></trkpt><trkpt lat="42.79804500344474" lon="12.589173253630198"><ele>622.0</ele><time>2026-05-01T12:12:45.001Z</time></trkpt><trkpt lat="42.79797826170113" lon="12.589217695566457"><ele>622.0</ele><time>2026-05-01T12:12:46.001Z</time></trkpt><trkpt lat="42.79791464952523" lon="12.589265852918643"><ele>622.0</ele><time>2026-05-01T12:12:47.001Z</time></trkpt><trkpt lat="42.79785030414496" lon="12.589328114882935"><ele>622.0</ele><time>2026-05-01T12:12:48.001Z</time></trkpt><trkpt lat="42.79778856477451" lon="12.58938859481817"><ele>622.0</ele><time>2026-05-01T12:12:49.001Z</time></trkpt><trkpt lat="42.79772738955822" lon="12.589444315426423"><ele>622.0</ele><time>2026-05-01T12:12:50.001Z</time></trkpt><trkpt lat="42.797673764078716" lon="12.589497691809566"><ele>618.8333333333334</ele><time>2026-05-01T12:12:51.001Z</time></trkpt><trkpt lat="42.797590387776005" lon="12.589576241821183"><ele>615.6666666666667</ele><time>2026-05-01T12:12:53.001Z</time></trkpt><trkpt lat="42.79751695584203" lon="12.589631402365729"><ele>612.5</ele><time>2026-05-01T12:12:55.001Z</time></trkpt><trkpt lat="42.79745277599208" lon="12.589677126556294"><ele>609.3333333333334</ele><time>2026-05-01T12:12:57.001Z</time></trkpt><trkpt lat="42.79738983271724" lon="12.589710388472758"><ele>606.1666666666666</ele><time>2026-05-01T12:12:59.001Z</time></trkpt><trkpt lat="42.7973242298351" lon="12.589732978713133"><ele>603.0</ele><time>2026-05-01T12:13:01.001Z</time></trkpt><trkpt lat="42.79723075162589" lon="12.5897538832891"><ele>603.0</ele><time>2026-05-01T12:13:03.001Z</time></trkpt><trkpt lat="42.79713250734171" lon="12.58974678113713"><ele>603.0</ele><time>2026-05-01T12:13:05.001Z</time></trkpt><trkpt lat="42.797045473819146" lon="12.589724598826734"><ele>603.0</ele><time>2026-05-01T12:13:07.001Z</time></trkpt><trkpt lat="42.79697409498669" lon="12.589713835455239"><ele>603.0</ele><time>2026-05-01T12:13:09.001Z</time></trkpt><trkpt lat="42.796908082182235" lon="12.589714674958444"><ele>603.0</ele><time>2026-05-01T12:13:11.001Z</time></trkpt><trkpt lat="42.79683637506016" lon="12.589723310908017"><ele>603.0</ele><time>2026-05-01T12:13:13.001Z</time></trkpt><trkpt lat="42.79674858164269" lon="12.589740820126732"><ele>602.0</ele><time>2026-05-01T12:13:15.001Z</time></trkpt><trkpt lat="42.79667560850298" lon="12.589732934575874"><ele>601.0</ele><time>2026-05-01T12:13:17.001Z</time></trkpt><trkpt lat="42.796595337875985" lon="12.589683275362027"><ele>600.0</ele><time>2026-05-01T12:13:19.001Z</time></trkpt><trkpt lat="42.79649989391149" lon="12.589595409640213"><ele>599.0</ele><time>2026-05-01T12:13:21.001Z</time></trkpt><trkpt lat="42.79641409625463" lon="12.589505820225485"><ele>598.0</ele><time>2026-05-01T12:13:23.001Z</time></trkpt><trkpt lat="42.79635038169579" lon="12.589451049635413"><ele>598.0</ele><time>2026-05-01T12:13:25.001Z</time></trkpt><trkpt lat="42.796270170047244" lon="12.589475401563966"><ele>598.0</ele><time>2026-05-01T12:13:27.001Z</time></trkpt><trkpt lat="42.79621707268403" lon="12.589601271260651"><ele>598.0</ele><time>2026-05-01T12:13:29.001Z</time></trkpt><trkpt lat="42.796199459071936" lon="12.589691953565843"><ele>598.0</ele><time>2026-05-01T12:13:30.001Z</time></trkpt><trkpt lat="42.79618118562475" lon="12.589782819962217"><ele>598.0</ele><time>2026-05-01T12:13:31.001Z</time></trkpt><trkpt lat="42.796145754135296" lon="12.589934787577512"><ele>598.0</ele><time>2026-05-01T12:13:33.001Z</time></trkpt><trkpt lat="42.79614658438943" lon="12.590058179009707"><ele>598.0</ele><time>2026-05-01T12:13:35.001Z</time></trkpt><trkpt lat="42.796173833595944" lon="12.590142543422713"><ele>598.0</ele><time>2026-05-01T12:13:36.001Z</time></trkpt><trkpt lat="42.79619056649305" lon="12.590245545206507"><ele>598.0</ele><time>2026-05-01T12:13:37.001Z</time></trkpt><trkpt lat="42.79618713850903" lon="12.590341078157195"><ele>598.0</ele><time>2026-05-01T12:13:38.001Z</time></trkpt><trkpt lat="42.796170549690906" lon="12.59045388112408"><ele>598.0</ele><time>2026-05-01T12:13:39.001Z</time></trkpt><trkpt lat="42.796139366167544" lon="12.590574144254226"><ele>598.0</ele><time>2026-05-01T12:13:40.001Z</time></trkpt><trkpt lat="42.79610799988175" lon="12.590690713830272"><ele>598.5714285714286</ele><time>2026-05-01T12:13:41.001Z</time></trkpt><trkpt lat="42.79607469438993" lon="12.590790633413226"><ele>599.1428571428571</ele><time>2026-05-01T12:13:42.001Z</time></trkpt><trkpt lat="42.796041656162" lon="12.59087902807786"><ele>599.7142857142858</ele><time>2026-05-01T12:13:43.001Z</time></trkpt><trkpt lat="42.79600821533303" lon="12.590952738187184"><ele>600.2857142857142</ele><time>2026-05-01T12:13:44.001Z</time></trkpt><trkpt lat="42.79595794337761" lon="12.591031488279596"><ele>600.8571428571429</ele><time>2026-05-01T12:13:45.001Z</time></trkpt><trkpt lat="42.79590233602165" lon="12.591081722409273"><ele>601.4285714285714</ele><time>2026-05-01T12:13:46.001Z</time></trkpt><trkpt lat="42.79582996481465" lon="12.591148007996768"><ele>602.0</ele><time>2026-05-01T12:13:47.001Z</time></trkpt><trkpt lat="42.79577028480963" lon="12.591239710217392"><ele>600.0</ele><time>2026-05-01T12:13:48.001Z</time></trkpt><trkpt lat="42.795724962959284" lon="12.591348103872459"><ele>598.0</ele><time>2026-05-01T12:13:49.001Z</time></trkpt><trkpt lat="42.795678140392596" lon="12.591438166906025"><ele>596.0</ele><time>2026-05-01T12:13:50.001Z</time></trkpt><trkpt lat="42.795607614992555" lon="12.591532704352618"><ele>594.0</ele><time>2026-05-01T12:13:51.001Z</time></trkpt><trkpt lat="42.795560621061774" lon="12.591629752891834"><ele>592.0</ele><time>2026-05-01T12:13:52.001Z</time></trkpt><trkpt lat="42.79552551131525" lon="12.591737137673709"><ele>590.0</ele><time>2026-05-01T12:13:53.001Z</time></trkpt><trkpt lat="42.79548258951503" lon="12.591843769456425"><ele>590.0</ele><time>2026-05-01T12:13:54.001Z</time></trkpt><trkpt lat="42.79542985616163" lon="12.591930674520755"><ele>590.0</ele><time>2026-05-01T12:13:55.001Z</time></trkpt><trkpt lat="42.795371504426825" lon="12.592004369380208"><ele>590.0</ele><time>2026-05-01T12:13:56.001Z</time></trkpt><trkpt lat="42.79533824983563" lon="12.592085724785333"><ele>590.0</ele><time>2026-05-01T12:13:57.001Z</time></trkpt><trkpt lat="42.795324263909684" lon="12.592174692986495"><ele>590.0</ele><time>2026-05-01T12:13:58.001Z</time></trkpt><trkpt lat="42.795341228105016" lon="12.59236986542865"><ele>590.0</ele><time>2026-05-01T12:14:00.001Z</time></trkpt><trkpt lat="42.795359751184556" lon="12.592475675829457"><ele>590.0</ele><time>2026-05-01T12:14:01.001Z</time></trkpt><trkpt lat="42.79535953259544" lon="12.592582204357877"><ele>590.0</ele><time>2026-05-01T12:14:02.001Z</time></trkpt><trkpt lat="42.79534187948703" lon="12.59271204462828"><ele>590.0</ele><time>2026-05-01T12:14:04.001Z</time></trkpt><trkpt lat="42.795272504346485" lon="12.592866477985128"><ele>590.0</ele><time>2026-05-01T12:14:06.001Z</time></trkpt><trkpt lat="42.795228027726104" lon="12.592932568123004"><ele>590.0</ele><time>2026-05-01T12:14:07.001Z</time></trkpt><trkpt lat="42.79517033146097" lon="12.593073322793584"><ele>590.0</ele><time>2026-05-01T12:14:09.001Z</time></trkpt><trkpt lat="42.795164967674786" lon="12.593235850604025"><ele>590.0</ele><time>2026-05-01T12:14:11.001Z</time></trkpt><trkpt lat="42.795156657296104" lon="12.59338539449619"><ele>590.0</ele><time>2026-05-01T12:14:13.001Z</time></trkpt><trkpt lat="42.795125449818386" lon="12.593516974849429"><ele>590.0</ele><time>2026-05-01T12:14:15.001Z</time></trkpt><trkpt lat="42.795061695391084" lon="12.593590054396918"><ele>590.0</ele><time>2026-05-01T12:14:17.001Z</time></trkpt><trkpt lat="42.794982253777896" lon="12.59364035742376"><ele>591.0</ele><time>2026-05-01T12:14:19.001Z</time></trkpt><trkpt lat="42.794917326488765" lon="12.59370156331089"><ele>592.0</ele><time>2026-05-01T12:14:21.001Z</time></trkpt><trkpt lat="42.794852156248446" lon="12.593777381890726"><ele>593.0</ele><time>2026-05-01T12:14:23.001Z</time></trkpt><trkpt lat="42.79477035862061" lon="12.593860063181335"><ele>594.0</ele><time>2026-05-01T12:14:25.001Z</time></trkpt><trkpt lat="42.79468549755363" lon="12.59394507843838"><ele>595.0</ele><time>2026-05-01T12:14:27.001Z</time></trkpt><trkpt lat="42.79457314682739" lon="12.593986170096679"><ele>595.0</ele><time>2026-05-01T12:14:29.001Z</time></trkpt><trkpt lat="42.79450023761304" lon="12.594087536824405"><ele>595.0</ele><time>2026-05-01T12:14:31.001Z</time></trkpt><trkpt lat="42.79442370015459" lon="12.594210435197944"><ele>595.0</ele><time>2026-05-01T12:14:33.001Z</time></trkpt><trkpt lat="42.79438584728884" lon="12.59429562036491"><ele>595.0</ele><time>2026-05-01T12:14:34.001Z</time></trkpt><trkpt lat="42.79433606489752" lon="12.594381225892608"><ele>595.0</ele><time>2026-05-01T12:14:35.001Z</time></trkpt><trkpt lat="42.7942620092678" lon="12.594496738458822"><ele>593.0</ele><time>2026-05-01T12:14:37.001Z</time></trkpt><trkpt lat="42.79418976134999" lon="12.59459021963255"><ele>591.0</ele><time>2026-05-01T12:14:39.001Z</time></trkpt><trkpt lat="42.79412361766365" lon="12.594677338444676"><ele>589.0</ele><time>2026-05-01T12:14:41.001Z</time></trkpt><trkpt lat="42.79404264699882" lon="12.594739457085309"><ele>587.0</ele><time>2026-05-01T12:14:43.001Z</time></trkpt><trkpt lat="42.793935294934485" lon="12.594791138664577"><ele>585.0</ele><time>2026-05-01T12:14:45.001Z</time></trkpt><trkpt lat="42.79380796095253" lon="12.59483761008217"><ele>585.0</ele><time>2026-05-01T12:14:47.001Z</time></trkpt><trkpt lat="42.79374544577836" lon="12.594881024882561"><ele>585.0</ele><time>2026-05-01T12:14:48.001Z</time></trkpt><trkpt lat="42.793678674436926" lon="12.594890931002894"><ele>585.0</ele><time>2026-05-01T12:14:49.001Z</time></trkpt><trkpt lat="42.79357099327652" lon="12.594927396734588"><ele>585.0</ele><time>2026-05-01T12:14:51.001Z</time></trkpt><trkpt lat="42.79348476133871" lon="12.595083666876361"><ele>585.0</ele><time>2026-05-01T12:14:53.001Z</time></trkpt><trkpt lat="42.79343552734791" lon="12.595175555719441"><ele>583.8333333333334</ele><time>2026-05-01T12:14:54.001Z</time></trkpt><trkpt lat="42.79338358392468" lon="12.595227410699136"><ele>582.6666666666666</ele><time>2026-05-01T12:14:55.001Z</time></trkpt><trkpt lat="42.79329518630942" lon="12.595343734547226"><ele>581.5</ele><time>2026-05-01T12:14:57.001Z</time></trkpt><trkpt lat="42.793235040250096" lon="12.59539036188377"><ele>580.3333333333333</ele><time>2026-05-01T12:14:58.001Z</time></trkpt><trkpt lat="42.79317508894225" lon="12.595443488868746"><ele>579.1666666666666</ele><time>2026-05-01T12:14:59.001Z</time></trkpt><trkpt lat="42.79312209996884" lon="12.595517426180095"><ele>578.0</ele><time>2026-05-01T12:15:00.001Z</time></trkpt><trkpt lat="42.7930493589413" lon="12.595553861183317"><ele>577.1428571428571</ele><time>2026-05-01T12:15:01.001Z</time></trkpt><trkpt lat="42.79300202256078" lon="12.595621004818563"><ele>576.2857142857142</ele><time>2026-05-01T12:15:02.001Z</time></trkpt><trkpt lat="42.79293522899875" lon="12.595641528825395"><ele>575.4285714285713</ele><time>2026-05-01T12:15:03.001Z</time></trkpt><trkpt lat="42.7928658782015" lon="12.595665917620764"><ele>574.5714285714286</ele><time>2026-05-01T12:15:04.001Z</time></trkpt><trkpt lat="42.79279251626792" lon="12.595695354787388"><ele>573.7142857142857</ele><time>2026-05-01T12:15:05.001Z</time></trkpt><trkpt lat="42.79271781165628" lon="12.595713799300048"><ele>572.8571428571428</ele><time>2026-05-01T12:15:06.001Z</time></trkpt><trkpt lat="42.79264276789311" lon="12.595712089022008"><ele>572.0</ele><time>2026-05-01T12:15:07.001Z</time></trkpt><trkpt lat="42.79256959838099" lon="12.595712089023015"><ele>571.1666666666666</ele><time>2026-05-01T12:15:08.001Z</time></trkpt><trkpt lat="42.79250658057336" lon="12.595712089023866"><ele>570.3333333333333</ele><time>2026-05-01T12:15:09.001Z</time></trkpt><trkpt lat="42.792386024433334" lon="12.59571434842067"><ele>569.5</ele><time>2026-05-01T12:15:11.001Z</time></trkpt><trkpt lat="42.79231318000829" lon="12.595717464765736"><ele>568.6666666666666</ele><time>2026-05-01T12:15:13.001Z</time></trkpt><trkpt lat="42.792238240886014" lon="12.595726994402577"><ele>567.8333333333334</ele><time>2026-05-01T12:15:17.001Z</time></trkpt><trkpt lat="42.79216070264132" lon="12.59573491678516"><ele>567.0</ele><time>2026-05-01T12:15:20.001Z</time></trkpt><trkpt lat="42.79207686755086" lon="12.59572365352208"><ele>567.0</ele><time>2026-05-01T12:15:23.001Z</time></trkpt><trkpt lat="42.79201099137054" lon="12.595678877101593"><ele>567.0</ele><time>2026-05-01T12:15:25.001Z</time></trkpt><trkpt lat="42.791923224887185" lon="12.595643840054578"><ele>567.0</ele><time>2026-05-01T12:15:27.001Z</time></trkpt><trkpt lat="42.791821856186644" lon="12.59566481157143"><ele>567.0</ele><time>2026-05-01T12:15:29.001Z</time></trkpt><trkpt lat="42.7917651993465" lon="12.59570573405315"><ele>567.0</ele><time>2026-05-01T12:15:30.001Z</time></trkpt><trkpt lat="42.79165957568012" lon="12.595761567344306"><ele>567.0</ele><time>2026-05-01T12:15:32.001Z</time></trkpt><trkpt lat="42.79154269364941" lon="12.595760031632244"><ele>566.8333333333334</ele><time>2026-05-01T12:15:34.001Z</time></trkpt><trkpt lat="42.791474050637476" lon="12.595733036442228"><ele>566.6666666666666</ele><time>2026-05-01T12:15:35.001Z</time></trkpt><trkpt lat="42.79140807754836" lon="12.59570476622794"><ele>566.5</ele><time>2026-05-01T12:15:36.001Z</time></trkpt><trkpt lat="42.791328886720066" lon="12.595683978944992"><ele>566.3333333333333</ele><time>2026-05-01T12:15:38.001Z</time></trkpt><trkpt lat="42.791271915963485" lon="12.595731954770308"><ele>566.1666666666666</ele><time>2026-05-01T12:15:43.001Z</time></trkpt><trkpt lat="42.79135146286822" lon="12.595807303602136"><ele>566.0</ele><time>2026-05-01T12:15:46.001Z</time></trkpt><trkpt lat="42.79140832733924" lon="12.595858398631929"><ele>566.0</ele><time>2026-05-01T12:15:48.001Z</time></trkpt><trkpt lat="42.79146307833035" lon="12.595949010687997"><ele>566.0</ele><time>2026-05-01T12:15:51.001Z</time></trkpt><trkpt lat="42.791530249440946" lon="12.596019819126296"><ele>566.0</ele><time>2026-05-01T12:15:55.001Z</time></trkpt><trkpt lat="42.79160187517251" lon="12.596069558566853"><ele>566.0</ele><time>2026-05-01T12:15:57.001Z</time></trkpt><trkpt lat="42.79165290247077" lon="12.596135649509858"><ele>566.0</ele><time>2026-05-01T12:16:00.001Z</time></trkpt><trkpt lat="42.79155977527425" lon="12.596052309790112"><ele>566.0</ele><time>2026-05-01T12:16:25.001Z</time></trkpt><trkpt lat="42.79150300715441" lon="12.595989841301964"><ele>566.0</ele><time>2026-05-01T12:16:26.001Z</time></trkpt><trkpt lat="42.791412663588595" lon="12.595890425892359"><ele>566.0</ele><time>2026-05-01T12:16:27.001Z</time></trkpt><trkpt lat="42.7913353393718" lon="12.595805337179485"><ele>566.0</ele><time>2026-05-01T12:16:28.001Z</time></trkpt><trkpt lat="42.791268444990756" lon="12.595731725606074"><ele>566.0</ele><time>2026-05-01T12:16:29.001Z</time></trkpt><trkpt lat="42.791209627589076" lon="12.595667002073174"><ele>566.0</ele><time>2026-05-01T12:16:30.001Z</time></trkpt><trkpt lat="42.791145294051105" lon="12.595596208491612"><ele>566.0</ele><time>2026-05-01T12:16:31.001Z</time></trkpt><trkpt lat="42.79109264484638" lon="12.595538272515112"><ele>566.0</ele><time>2026-05-01T12:16:32.001Z</time></trkpt><trkpt lat="42.79104364610701" lon="12.595475156840156"><ele>566.0</ele><time>2026-05-01T12:16:33.001Z</time></trkpt><trkpt lat="42.790953976997045" lon="12.59544160899391"><ele>566.0</ele><time>2026-05-01T12:16:34.001Z</time></trkpt><trkpt lat="42.790899189767295" lon="12.595354495317672"><ele>566.0</ele><time>2026-05-01T12:16:35.001Z</time></trkpt><trkpt lat="42.79077332191329" lon="12.59537866687768"><ele>566.0</ele><time>2026-05-01T12:16:36.001Z</time></trkpt><trkpt lat="42.79070101453309" lon="12.595380353326354"><ele>568.4</ele><time>2026-05-01T12:16:37.001Z</time></trkpt><trkpt lat="42.79064364538218" lon="12.595313797371338"><ele>570.8</ele><time>2026-05-01T12:16:38.001Z</time></trkpt><trkpt lat="42.790556403457785" lon="12.59527344186134"><ele>573.1999999999999</ele><time>2026-05-01T12:16:39.001Z</time></trkpt><trkpt lat="42.79046887790314" lon="12.595200446943004"><ele>575.6</ele><time>2026-05-01T12:16:40.001Z</time></trkpt><trkpt lat="42.79039258462031" lon="12.595134445670388"><ele>578.0</ele><time>2026-05-01T12:16:41.001Z</time></trkpt><trkpt lat="42.790309871237646" lon="12.595061278725414"><ele>578.0</ele><time>2026-05-01T12:16:42.001Z</time></trkpt><trkpt lat="42.790211912955264" lon="12.59498712023666"><ele>578.0</ele><time>2026-05-01T12:16:43.001Z</time></trkpt><trkpt lat="42.790117896606134" lon="12.594936196807016"><ele>578.0</ele><time>2026-05-01T12:16:44.001Z</time></trkpt><trkpt lat="42.79003529425038" lon="12.594899751633049"><ele>578.0</ele><time>2026-05-01T12:16:45.001Z</time></trkpt><trkpt lat="42.78995985290691" lon="12.594886678798238"><ele>578.0</ele><time>2026-05-01T12:16:46.001Z</time></trkpt><trkpt lat="42.78988127306276" lon="12.594912535901116"><ele>577.6</ele><time>2026-05-01T12:16:47.001Z</time></trkpt><trkpt lat="42.789797007685536" lon="12.594982975335071"><ele>577.1999999999999</ele><time>2026-05-01T12:16:48.001Z</time></trkpt><trkpt lat="42.78972637391829" lon="12.595091332539582"><ele>576.8</ele><time>2026-05-01T12:16:49.001Z</time></trkpt><trkpt lat="42.78964386021674" lon="12.59519775352959"><ele>576.4</ele><time>2026-05-01T12:16:50.001Z</time></trkpt><trkpt lat="42.78956276819633" lon="12.59533420115311"><ele>576.0</ele><time>2026-05-01T12:16:51.001Z</time></trkpt><trkpt lat="42.789519254432385" lon="12.595458613251719"><ele>575.8</ele><time>2026-05-01T12:16:52.001Z</time></trkpt><trkpt lat="42.789486170876785" lon="12.595566997960674"><ele>575.6</ele><time>2026-05-01T12:16:53.001Z</time></trkpt><trkpt lat="42.789517999478896" lon="12.595703605899157"><ele>575.4</ele><time>2026-05-01T12:16:54.001Z</time></trkpt><trkpt lat="42.78956538204927" lon="12.595834448171074"><ele>575.2</ele><time>2026-05-01T12:16:55.001Z</time></trkpt><trkpt lat="42.78965344462894" lon="12.595968761401181"><ele>575.0</ele><time>2026-05-01T12:16:56.001Z</time></trkpt><trkpt lat="42.78970688494141" lon="12.596049110064657"><ele>577.75</ele><time>2026-05-01T12:16:57.001Z</time></trkpt><trkpt lat="42.78978727866082" lon="12.59617454862645"><ele>580.5</ele><time>2026-05-01T12:16:58.001Z</time></trkpt><trkpt lat="42.7898659800406" lon="12.596303493179086"><ele>583.25</ele><time>2026-05-01T12:16:59.001Z</time></trkpt><trkpt lat="42.78993721704088" lon="12.596423381520223"><ele>586.0</ele><time>2026-05-01T12:17:00.001Z</time></trkpt><trkpt lat="42.78999704865091" lon="12.596528122577897"><ele>586.0</ele><time>2026-05-01T12:17:01.001Z</time></trkpt><trkpt lat="42.79004237268934" lon="12.596607477848918"><ele>586.0</ele><time>2026-05-01T12:17:02.001Z</time></trkpt><trkpt lat="42.790075226494444" lon="12.596686544726824"><ele>586.0</ele><time>2026-05-01T12:17:03.001Z</time></trkpt><trkpt lat="42.79014846667002" lon="12.59682978533178"><ele>586.0</ele><time>2026-05-01T12:17:05.001Z</time></trkpt><trkpt lat="42.79021234685311" lon="12.596961350583038"><ele>586.0</ele><time>2026-05-01T12:17:07.001Z</time></trkpt><trkpt lat="42.790250008763955" lon="12.597083737359986"><ele>584.8333333333334</ele><time>2026-05-01T12:17:09.001Z</time></trkpt><trkpt lat="42.79029521042109" lon="12.597158906794347"><ele>583.6666666666667</ele><time>2026-05-01T12:17:11.001Z</time></trkpt><trkpt lat="42.79018653089875" lon="12.59720583750692"><ele>582.5</ele><time>2026-05-01T12:17:13.001Z</time></trkpt><trkpt lat="42.79012450085665" lon="12.597264911904459"><ele>581.3333333333334</ele><time>2026-05-01T12:17:14.001Z</time></trkpt><trkpt lat="42.790049738394245" lon="12.597274218581283"><ele>580.1666666666666</ele><time>2026-05-01T12:17:15.001Z</time></trkpt><trkpt lat="42.78998428347821" lon="12.597283902484408"><ele>579.0</ele><time>2026-05-01T12:17:16.001Z</time></trkpt><trkpt lat="42.7898853257788" lon="12.597267707009191"><ele>579.0</ele><time>2026-05-01T12:17:18.001Z</time></trkpt><trkpt lat="42.78981024219207" lon="12.597242022158342"><ele>579.0</ele><time>2026-05-01T12:17:22Z</time></trkpt><trkpt lat="42.78972827051241" lon="12.597201241145658"><ele>579.0</ele><time>2026-05-01T12:17:24Z</time></trkpt><trkpt lat="42.78962769730153" lon="12.597174373336705"><ele>579.0</ele><time>2026-05-01T12:17:26Z</time></trkpt><trkpt lat="42.78952108076298" lon="12.597171019198532"><ele>579.0</ele><time>2026-05-01T12:17:28Z</time></trkpt><trkpt lat="42.78939237650267" lon="12.597214599007991"><ele>578.3333333333334</ele><time>2026-05-01T12:17:30Z</time></trkpt><trkpt lat="42.789320095584124" lon="12.597251996781713"><ele>577.6666666666666</ele><time>2026-05-01T12:17:31Z</time></trkpt><trkpt lat="42.78924009835777" lon="12.59728073550758"><ele>577.0</ele><time>2026-05-01T12:17:32Z</time></trkpt><trkpt lat="42.789164471555885" lon="12.597328703754348"><ele>576.3333333333333</ele><time>2026-05-01T12:17:33Z</time></trkpt><trkpt lat="42.78909958517135" lon="12.597397221434147"><ele>575.6666666666666</ele><time>2026-05-01T12:17:34Z</time></trkpt><trkpt lat="42.78903274984992" lon="12.597442125010383"><ele>575.0</ele><time>2026-05-01T12:17:35Z</time></trkpt><trkpt lat="42.788978456446785" lon="12.597487828903915"><ele>575.0</ele><time>2026-05-01T12:17:36Z</time></trkpt><trkpt lat="42.788883494152216" lon="12.597568414715735"><ele>575.0</ele><time>2026-05-01T12:17:38Z</time></trkpt><trkpt lat="42.78878848443856" lon="12.597695400475514"><ele>575.0</ele><time>2026-05-01T12:17:40Z</time></trkpt><trkpt lat="42.788684921869105" lon="12.597724271555304"><ele>575.0</ele><time>2026-05-01T12:17:42Z</time></trkpt><trkpt lat="42.78862315671596" lon="12.597754492011461"><ele>575.0</ele><time>2026-05-01T12:17:43.999Z</time></trkpt><trkpt lat="42.78850919430831" lon="12.597735579323361"><ele>575.4</ele><time>2026-05-01T12:17:45.999Z</time></trkpt><trkpt lat="42.788392877346" lon="12.597718970700864"><ele>575.8</ele><time>2026-05-01T12:17:47.999Z</time></trkpt><trkpt lat="42.78832117657557" lon="12.597704920410768"><ele>576.2</ele><time>2026-05-01T12:17:48.999Z</time></trkpt><trkpt lat="42.78823331630154" lon="12.597687916933923"><ele>576.6</ele><time>2026-05-01T12:17:49.999Z</time></trkpt><trkpt lat="42.78814110020541" lon="12.597690798511197"><ele>577.0</ele><time>2026-05-01T12:17:50.999Z</time></trkpt><trkpt lat="42.7880454834946" lon="12.597670128379228"><ele>577.0</ele><time>2026-05-01T12:17:51.999Z</time></trkpt><trkpt lat="42.78795560722333" lon="12.597657058551269"><ele>577.0</ele><time>2026-05-01T12:17:52.999Z</time></trkpt><trkpt lat="42.78786581934923" lon="12.59763860394159"><ele>577.0</ele><time>2026-05-01T12:17:53.999Z</time></trkpt><trkpt lat="42.78776048897072" lon="12.597627483694458"><ele>577.0</ele><time>2026-05-01T12:17:54.999Z</time></trkpt><trkpt lat="42.787643421156766" lon="12.59758882042323"><ele>577.0</ele><time>2026-05-01T12:17:55.999Z</time></trkpt><trkpt lat="42.787522554983916" lon="12.597564414761315"><ele>578.5</ele><time>2026-05-01T12:17:56.999Z</time></trkpt><trkpt lat="42.787392845186034" lon="12.597563791361463"><ele>580.0</ele><time>2026-05-01T12:17:57.999Z</time></trkpt><trkpt lat="42.78727084263845" lon="12.597542714928759"><ele>581.5</ele><time>2026-05-01T12:17:58.999Z</time></trkpt><trkpt lat="42.787141300571335" lon="12.597523858680301"><ele>583.0</ele><time>2026-05-01T12:17:59.999Z</time></trkpt><trkpt lat="42.78702874515395" lon="12.597501472327888"><ele>583.0</ele><time>2026-05-01T12:18:00.999Z</time></trkpt><trkpt lat="42.78692693708094" lon="12.597482238666867"><ele>583.0</ele><time>2026-05-01T12:18:01.999Z</time></trkpt><trkpt lat="42.786826924631335" lon="12.597462527324769"><ele>583.0</ele><time>2026-05-01T12:18:02.999Z</time></trkpt><trkpt lat="42.78674240961315" lon="12.597441614812707"><ele>583.0</ele><time>2026-05-01T12:18:03.999Z</time></trkpt><trkpt lat="42.78665571229486" lon="12.597407865755851"><ele>583.0</ele><time>2026-05-01T12:18:04.999Z</time></trkpt><trkpt lat="42.786568683632716" lon="12.597352203005897"><ele>583.0</ele><time>2026-05-01T12:18:05.999Z</time></trkpt><trkpt lat="42.78650316875579" lon="12.59729440636148"><ele>583.0</ele><time>2026-05-01T12:18:06.999Z</time></trkpt><trkpt lat="42.786449122819995" lon="12.597237813017548"><ele>583.0</ele><time>2026-05-01T12:18:07.999Z</time></trkpt><trkpt lat="42.78639114003574" lon="12.597158894156097"><ele>583.0</ele><time>2026-05-01T12:18:09.999Z</time></trkpt><trkpt lat="42.78646730615678" lon="12.59704575025732"><ele>583.0</ele><time>2026-05-01T12:18:13.999Z</time></trkpt><trkpt lat="42.78654313158193" lon="12.597041771955956"><ele>583.0</ele><time>2026-05-01T12:18:14.999Z</time></trkpt><trkpt lat="42.786617248531726" lon="12.597040072441175"><ele>583.0</ele><time>2026-05-01T12:18:15.999Z</time></trkpt><trkpt lat="42.78671251007664" lon="12.597036678871715"><ele>583.0</ele><time>2026-05-01T12:18:16.999Z</time></trkpt><trkpt lat="42.78680681086841" lon="12.597030431664153"><ele>583.0</ele><time>2026-05-01T12:18:17.999Z</time></trkpt><trkpt lat="42.78690561555233" lon="12.597036770922188"><ele>583.0</ele><time>2026-05-01T12:18:18.999Z</time></trkpt><trkpt lat="42.78700330978681" lon="12.597030468524233"><ele>583.0</ele><time>2026-05-01T12:18:19.999Z</time></trkpt><trkpt lat="42.78709651899599" lon="12.597027278376626"><ele>583.0</ele><time>2026-05-01T12:18:20.999Z</time></trkpt><trkpt lat="42.78718889208106" lon="12.597010938310397"><ele>583.0</ele><time>2026-05-01T12:18:21.999Z</time></trkpt><trkpt lat="42.78727723412087" lon="12.596976212795067"><ele>583.0</ele><time>2026-05-01T12:18:22.999Z</time></trkpt><trkpt lat="42.78736401423541" lon="12.59692540288666"><ele>583.0</ele><time>2026-05-01T12:18:23.999Z</time></trkpt><trkpt lat="42.78745323277763" lon="12.596859096057818"><ele>583.0</ele><time>2026-05-01T12:18:24.999Z</time></trkpt><trkpt lat="42.78755762953186" lon="12.59679415283654"><ele>584.75</ele><time>2026-05-01T12:18:25.999Z</time></trkpt><trkpt lat="42.78766559142549" lon="12.596705888173815"><ele>586.5</ele><time>2026-05-01T12:18:26.999Z</time></trkpt><trkpt lat="42.78777293336331" lon="12.596616637751815"><ele>588.25</ele><time>2026-05-01T12:18:27.999Z</time></trkpt><trkpt lat="42.78787137808433" lon="12.596532366492516"><ele>590.0</ele><time>2026-05-01T12:18:28.999Z</time></trkpt><trkpt lat="42.787962230502316" lon="12.5964501006259"><ele>590.0</ele><time>2026-05-01T12:18:29.999Z</time></trkpt><trkpt lat="42.788061536162566" lon="12.59635903921074"><ele>590.0</ele><time>2026-05-01T12:18:30.999Z</time></trkpt><trkpt lat="42.78816461858682" lon="12.59626401951394"><ele>590.0</ele><time>2026-05-01T12:18:31.999Z</time></trkpt><trkpt lat="42.788255333563" lon="12.596177370814134"><ele>590.0</ele><time>2026-05-01T12:18:32.999Z</time></trkpt><trkpt lat="42.78832728105887" lon="12.596103401952275"><ele>590.0</ele><time>2026-05-01T12:18:33.999Z</time></trkpt><trkpt lat="42.78838472098681" lon="12.596024345986782"><ele>591.8333333333333</ele><time>2026-05-01T12:18:34.999Z</time></trkpt><trkpt lat="42.78843995651955" lon="12.595944934497409"><ele>593.6666666666666</ele><time>2026-05-01T12:18:35.999Z</time></trkpt><trkpt lat="42.788447696357466" lon="12.5958104923719"><ele>595.5</ele><time>2026-05-01T12:18:36.999Z</time></trkpt><trkpt lat="42.788453630382065" lon="12.595702848273929"><ele>597.3333333333334</ele><time>2026-05-01T12:18:37.999Z</time></trkpt><trkpt lat="42.788432873524386" lon="12.595580561617039"><ele>599.1666666666667</ele><time>2026-05-01T12:18:38.999Z</time></trkpt><trkpt lat="42.788420660335596" lon="12.595461612261577"><ele>601.0</ele><time>2026-05-01T12:18:39.999Z</time></trkpt><trkpt lat="42.788418112884074" lon="12.595346358135947"><ele>602.1666666666667</ele><time>2026-05-01T12:18:40.999Z</time></trkpt><trkpt lat="42.788422395068515" lon="12.595222951706623"><ele>603.3333333333334</ele><time>2026-05-01T12:18:41.999Z</time></trkpt><trkpt lat="42.788431949651255" lon="12.59512159380082"><ele>604.5</ele><time>2026-05-01T12:18:42.999Z</time></trkpt><trkpt lat="42.78844656769472" lon="12.595025891997242"><ele>605.6666666666666</ele><time>2026-05-01T12:18:43.999Z</time></trkpt><trkpt lat="42.78847255393169" lon="12.594927817649289"><ele>606.8333333333333</ele><time>2026-05-01T12:18:44.999Z</time></trkpt><trkpt lat="42.78850369912972" lon="12.594841641668523"><ele>608.0</ele><time>2026-05-01T12:18:45.999Z</time></trkpt><trkpt lat="42.78855515316838" lon="12.594754139665303"><ele>606.8333333333333</ele><time>2026-05-01T12:18:46.999Z</time></trkpt><trkpt lat="42.78858300302416" lon="12.594645426723101"><ele>605.6666666666666</ele><time>2026-05-01T12:18:47.999Z</time></trkpt><trkpt lat="42.78858798981361" lon="12.59453255840958"><ele>604.5</ele><time>2026-05-01T12:18:48.999Z</time></trkpt><trkpt lat="42.788571389444755" lon="12.594419194564438"><ele>603.3333333333334</ele><time>2026-05-01T12:18:49.999Z</time></trkpt><trkpt lat="42.78855700529275" lon="12.594293934809654"><ele>602.1666666666667</ele><time>2026-05-01T12:18:50.999Z</time></trkpt><trkpt lat="42.788509596395386" lon="12.594171924064133"><ele>601.0</ele><time>2026-05-01T12:18:51.999Z</time></trkpt><trkpt lat="42.78846235020115" lon="12.594053915291886"><ele>604.8</ele><time>2026-05-01T12:18:52.999Z</time></trkpt><trkpt lat="42.788419409437246" lon="12.593938687673674"><ele>608.6</ele><time>2026-05-01T12:18:53.999Z</time></trkpt><trkpt lat="42.788378798892616" lon="12.59382409127877"><ele>612.4</ele><time>2026-05-01T12:18:54.999Z</time></trkpt><trkpt lat="42.78835174972229" lon="12.593737076180657"><ele>616.2</ele><time>2026-05-01T12:18:55.999Z</time></trkpt><trkpt lat="42.78834843530082" lon="12.59356866757872"><ele>620.0</ele><time>2026-05-01T12:18:57.999Z</time></trkpt><trkpt lat="42.788400978965846" lon="12.593487284202796"><ele>619.8</ele><time>2026-05-01T12:18:58.999Z</time></trkpt><trkpt lat="42.78846728233938" lon="12.593417805555328"><ele>619.6</ele><time>2026-05-01T12:18:59.999Z</time></trkpt><trkpt lat="42.78855483101866" lon="12.593426183175849"><ele>619.4</ele><time>2026-05-01T12:19:00.999Z</time></trkpt><trkpt lat="42.788646489579875" lon="12.593395271791428"><ele>619.2</ele><time>2026-05-01T12:19:01.999Z</time></trkpt><trkpt lat="42.788739284999174" lon="12.593346475997578"><ele>619.0</ele><time>2026-05-01T12:19:02.999Z</time></trkpt><trkpt lat="42.78882188471774" lon="12.593267828089958"><ele>619.0</ele><time>2026-05-01T12:19:03.999Z</time></trkpt><trkpt lat="42.78890649479831" lon="12.593190556855875"><ele>619.0</ele><time>2026-05-01T12:19:04.999Z</time></trkpt><trkpt lat="42.78900044487712" lon="12.593090344723267"><ele>619.0</ele><time>2026-05-01T12:19:05.999Z</time></trkpt><trkpt lat="42.789090097739745" lon="12.592984935979842"><ele>619.0</ele><time>2026-05-01T12:19:06.999Z</time></trkpt><trkpt lat="42.789180364429875" lon="12.592918559644874"><ele>619.0</ele><time>2026-05-01T12:19:07.999Z</time></trkpt><trkpt lat="42.78925731447703" lon="12.592866626562628"><ele>618.2</ele><time>2026-05-01T12:19:08.999Z</time></trkpt><trkpt lat="42.789350623784394" lon="12.592840210117869"><ele>617.4</ele><time>2026-05-01T12:19:09.999Z</time></trkpt><trkpt lat="42.78945328803644" lon="12.592807736660035"><ele>616.6</ele><time>2026-05-01T12:19:10.999Z</time></trkpt><trkpt lat="42.78955978396108" lon="12.592829190698813"><ele>615.8</ele><time>2026-05-01T12:19:11.999Z</time></trkpt><trkpt lat="42.789675600627355" lon="12.592859032554673"><ele>615.0</ele><time>2026-05-01T12:19:12.999Z</time></trkpt><trkpt lat="42.78978112368427" lon="12.592879062916502"><ele>615.0</ele><time>2026-05-01T12:19:13.999Z</time></trkpt><trkpt lat="42.78986545728618" lon="12.592883507370143"><ele>615.0</ele><time>2026-05-01T12:19:14.999Z</time></trkpt><trkpt lat="42.78993316271467" lon="12.592868915935595"><ele>615.0</ele><time>2026-05-01T12:19:15.999Z</time></trkpt><trkpt lat="42.78999642589277" lon="12.592871044844573"><ele>615.0</ele><time>2026-05-01T12:19:16.999Z</time></trkpt><trkpt lat="42.79010451751487" lon="12.592788782743384"><ele>615.0</ele><time>2026-05-01T12:19:18.999Z</time></trkpt><trkpt lat="42.790143489807654" lon="12.592720842654355"><ele>615.0</ele><time>2026-05-01T12:19:19.999Z</time></trkpt><trkpt lat="42.79018102437281" lon="12.592581369447458"><ele>619.3333333333334</ele><time>2026-05-01T12:19:21.999Z</time></trkpt><trkpt lat="42.79013034680162" lon="12.592513261865502"><ele>623.6666666666666</ele><time>2026-05-01T12:19:23Z</time></trkpt><trkpt lat="42.79003538339385" lon="12.592446528172832"><ele>628.0</ele><time>2026-05-01T12:19:25Z</time></trkpt><trkpt lat="42.78997291724267" lon="12.59246288301217"><ele>632.3333333333333</ele><time>2026-05-01T12:19:26Z</time></trkpt><trkpt lat="42.78990790065126" lon="12.592485377974715"><ele>636.6666666666666</ele><time>2026-05-01T12:19:27Z</time></trkpt><trkpt lat="42.78984153490247" lon="12.592516659625222"><ele>641.0</ele><time>2026-05-01T12:19:28Z</time></trkpt><trkpt lat="42.7897605173509" lon="12.592554847470712"><ele>641.0</ele><time>2026-05-01T12:19:29Z</time></trkpt><trkpt lat="42.78967471378226" lon="12.592578496664716"><ele>641.0</ele><time>2026-05-01T12:19:30Z</time></trkpt><trkpt lat="42.78957252026256" lon="12.592577841042923"><ele>641.0</ele><time>2026-05-01T12:19:31Z</time></trkpt><trkpt lat="42.78947864524282" lon="12.592539847839006"><ele>641.0</ele><time>2026-05-01T12:19:32Z</time></trkpt><trkpt lat="42.78938453862018" lon="12.592490518075175"><ele>641.0</ele><time>2026-05-01T12:19:33Z</time></trkpt><trkpt lat="42.78928257730833" lon="12.592434949376532"><ele>641.5999999999999</ele><time>2026-05-01T12:19:34Z</time></trkpt><trkpt lat="42.78916709647691" lon="12.592390646370353"><ele>642.2</ele><time>2026-05-01T12:19:35Z</time></trkpt><trkpt lat="42.78904941027163" lon="12.592355490099377"><ele>642.8</ele><time>2026-05-01T12:19:36Z</time></trkpt><trkpt lat="42.78895457614769" lon="12.592322731340383"><ele>643.4000000000001</ele><time>2026-05-01T12:19:37Z</time></trkpt><trkpt lat="42.78888261246464" lon="12.592295656215791"><ele>644.0</ele><time>2026-05-01T12:19:38Z</time></trkpt><trkpt lat="42.7887926818916" lon="12.592199947109103"><ele>644.0</ele><time>2026-05-01T12:19:40Z</time></trkpt><trkpt lat="42.788797885690585" lon="12.59204594397794"><ele>644.0</ele><time>2026-05-01T12:19:42Z</time></trkpt><trkpt lat="42.788895336237545" lon="12.591966443549445"><ele>644.0</ele><time>2026-05-01T12:19:44Z</time></trkpt><trkpt lat="42.7889627459214" lon="12.591967156614372"><ele>644.0</ele><time>2026-05-01T12:19:45Z</time></trkpt><trkpt lat="42.78904680235643" lon="12.59197999272051"><ele>644.0</ele><time>2026-05-01T12:19:46Z</time></trkpt><trkpt lat="42.789159588818315" lon="12.59199768166776"><ele>644.0</ele><time>2026-05-01T12:19:47Z</time></trkpt><trkpt lat="42.7892703237579" lon="12.592020470968997"><ele>644.0</ele><time>2026-05-01T12:19:48Z</time></trkpt><trkpt lat="42.78938172372667" lon="12.592037070132397"><ele>644.0</ele><time>2026-05-01T12:19:49Z</time></trkpt><trkpt lat="42.7894976489535" lon="12.592066839423198"><ele>644.0</ele><time>2026-05-01T12:19:49.999Z</time></trkpt><trkpt lat="42.78959853482296" lon="12.592064062003349"><ele>644.0</ele><time>2026-05-01T12:19:50.999Z</time></trkpt><trkpt lat="42.789670248368594" lon="12.592033929077296"><ele>647.2</ele><time>2026-05-01T12:19:51.999Z</time></trkpt><trkpt lat="42.78976196112031" lon="12.592005679130299"><ele>650.4000000000001</ele><time>2026-05-01T12:19:53.999Z</time></trkpt><trkpt lat="42.78979328066867" lon="12.591842059246073"><ele>653.6</ele><time>2026-05-01T12:19:55.999Z</time></trkpt><trkpt lat="42.78973802510216" lon="12.59175462175285"><ele>656.8</ele><time>2026-05-01T12:19:56.999Z</time></trkpt><trkpt lat="42.7896953899261" lon="12.591682150849092"><ele>660.0</ele><time>2026-05-01T12:19:57.999Z</time></trkpt><trkpt lat="42.78960009357045" lon="12.591678108285622"><ele>660.0</ele><time>2026-05-01T12:19:58.999Z</time></trkpt><trkpt lat="42.78951191622757" lon="12.591675025530803"><ele>660.0</ele><time>2026-05-01T12:20:00Z</time></trkpt><trkpt lat="42.789417561213995" lon="12.591675904415984"><ele>660.0</ele><time>2026-05-01T12:20:01Z</time></trkpt><trkpt lat="42.78932322012165" lon="12.59168651907618"><ele>660.0</ele><time>2026-05-01T12:20:02Z</time></trkpt><trkpt lat="42.78923154724635" lon="12.591702492155772"><ele>660.0</ele><time>2026-05-01T12:20:03Z</time></trkpt><trkpt lat="42.789139355021646" lon="12.591704687488924"><ele>661.6</ele><time>2026-05-01T12:20:04Z</time></trkpt><trkpt lat="42.78903316126989" lon="12.591674192233942"><ele>663.2</ele><time>2026-05-01T12:20:05Z</time></trkpt><trkpt lat="42.788931900826" lon="12.59161358294751"><ele>664.8</ele><time>2026-05-01T12:20:06Z</time></trkpt><trkpt lat="42.788845477794425" lon="12.591540916087078"><ele>666.4</ele><time>2026-05-01T12:20:07Z</time></trkpt><trkpt lat="42.78879020553605" lon="12.591482276636434"><ele>668.0</ele><time>2026-05-01T12:20:08Z</time></trkpt><trkpt lat="42.788738834061654" lon="12.591396464537352"><ele>668.0</ele><time>2026-05-01T12:20:10Z</time></trkpt><trkpt lat="42.788767125212495" lon="12.59128962052077"><ele>668.0</ele><time>2026-05-01T12:20:12Z</time></trkpt><trkpt lat="42.788858782919704" lon="12.591247512094169"><ele>668.0</ele><time>2026-05-01T12:20:14Z</time></trkpt><trkpt lat="42.78895188173578" lon="12.591331484501902"><ele>668.0</ele><time>2026-05-01T12:20:16Z</time></trkpt><trkpt lat="42.789018079516566" lon="12.591348683974017"><ele>668.0</ele><time>2026-05-01T12:20:17Z</time></trkpt><trkpt lat="42.789085316904284" lon="12.591388228979724"><ele>668.0</ele><time>2026-05-01T12:20:18Z</time></trkpt><trkpt lat="42.78916024718955" lon="12.591409637643395"><ele>668.0</ele><time>2026-05-01T12:20:19Z</time></trkpt><trkpt lat="42.78922495753459" lon="12.591396198191367"><ele>668.0</ele><time>2026-05-01T12:20:20Z</time></trkpt><trkpt lat="42.78929405316547" lon="12.591351107406155"><ele>668.0</ele><time>2026-05-01T12:20:21Z</time></trkpt><trkpt lat="42.78936905824098" lon="12.59127667688468"><ele>668.0</ele><time>2026-05-01T12:20:22Z</time></trkpt><trkpt lat="42.789411771460784" lon="12.591160675798587"><ele>668.0</ele><time>2026-05-01T12:20:23Z</time></trkpt><trkpt lat="42.789467987052916" lon="12.591075722689952"><ele>668.0</ele><time>2026-05-01T12:20:24Z</time></trkpt><trkpt lat="42.78951009579217" lon="12.590981504718288"><ele>670.5</ele><time>2026-05-01T12:20:25Z</time></trkpt><trkpt lat="42.78956216401663" lon="12.590854894294882"><ele>673.0</ele><time>2026-05-01T12:20:26Z</time></trkpt><trkpt lat="42.7896052560697" lon="12.590721935876719"><ele>675.5</ele><time>2026-05-01T12:20:27Z</time></trkpt><trkpt lat="42.789624794973705" lon="12.590554041502909"><ele>678.0</ele><time>2026-05-01T12:20:28Z</time></trkpt><trkpt lat="42.78964722400595" lon="12.590392504035732"><ele>681.2</ele><time>2026-05-01T12:20:29Z</time></trkpt><trkpt lat="42.789656014981816" lon="12.590249504260438"><ele>684.4</ele><time>2026-05-01T12:20:30Z</time></trkpt><trkpt lat="42.789662527832505" lon="12.590110677298075"><ele>687.6</ele><time>2026-05-01T12:20:31Z</time></trkpt><trkpt lat="42.789662622433895" lon="12.589998197433875"><ele>690.8000000000001</ele><time>2026-05-01T12:20:32Z</time></trkpt><trkpt lat="42.78965875913548" lon="12.589880218515662"><ele>694.0</ele><time>2026-05-01T12:20:33Z</time></trkpt><trkpt lat="42.78967344445849" lon="12.58977806300541"><ele>694.0</ele><time>2026-05-01T12:20:34Z</time></trkpt><trkpt lat="42.78969443692284" lon="12.589686983734776"><ele>694.0</ele><time>2026-05-01T12:20:35Z</time></trkpt><trkpt lat="42.78972356508123" lon="12.58960980368106"><ele>694.0</ele><time>2026-05-01T12:20:36Z</time></trkpt><trkpt lat="42.78977531516582" lon="12.58954894208446"><ele>694.0</ele><time>2026-05-01T12:20:37Z</time></trkpt><trkpt lat="42.78985140537185" lon="12.58952050469731"><ele>694.0</ele><time>2026-05-01T12:20:38Z</time></trkpt><trkpt lat="42.78994535767172" lon="12.589543174907014"><ele>694.0</ele><time>2026-05-01T12:20:39Z</time></trkpt><trkpt lat="42.79000861987581" lon="12.589638843914638"><ele>694.0</ele><time>2026-05-01T12:20:40Z</time></trkpt><trkpt lat="42.79009053691037" lon="12.589704593723441"><ele>694.0</ele><time>2026-05-01T12:20:41Z</time></trkpt><trkpt lat="42.790165533854484" lon="12.589758291258514"><ele>694.0</ele><time>2026-05-01T12:20:42Z</time></trkpt><trkpt lat="42.79022614712372" lon="12.589821941172112"><ele>694.0</ele><time>2026-05-01T12:20:43Z</time></trkpt><trkpt lat="42.79030278515791" lon="12.589875292312968"><ele>694.0</ele><time>2026-05-01T12:20:44Z</time></trkpt><trkpt lat="42.790384069939776" lon="12.589905738633123"><ele>694.0</ele><time>2026-05-01T12:20:45Z</time></trkpt><trkpt lat="42.790455350035856" lon="12.589915190478422"><ele>695.0</ele><time>2026-05-01T12:20:46Z</time></trkpt><trkpt lat="42.790546874395616" lon="12.58991379984677"><ele>696.0</ele><time>2026-05-01T12:20:47Z</time></trkpt><trkpt lat="42.790638994973975" lon="12.58990279491714"><ele>697.0</ele><time>2026-05-01T12:20:48Z</time></trkpt><trkpt lat="42.790728664583995" lon="12.589878943445795"><ele>698.0</ele><time>2026-05-01T12:20:49Z</time></trkpt><trkpt lat="42.79082285543803" lon="12.589840104708802"><ele>699.0</ele><time>2026-05-01T12:20:50Z</time></trkpt><trkpt lat="42.790913187861825" lon="12.589801363093757"><ele>699.0</ele><time>2026-05-01T12:20:51Z</time></trkpt><trkpt lat="42.79099999232648" lon="12.589759189282965"><ele>699.0</ele><time>2026-05-01T12:20:52Z</time></trkpt><trkpt lat="42.791086972884855" lon="12.589700496630023"><ele>699.0</ele><time>2026-05-01T12:20:53Z</time></trkpt><trkpt lat="42.791175059040846" lon="12.589635472975909"><ele>699.0</ele><time>2026-05-01T12:20:54Z</time></trkpt><trkpt lat="42.791273433225264" lon="12.589570751383652"><ele>699.0</ele><time>2026-05-01T12:20:55Z</time></trkpt><trkpt lat="42.79137252607335" lon="12.589512312937554"><ele>701.8000000000001</ele><time>2026-05-01T12:20:56Z</time></trkpt><trkpt lat="42.79147168067796" lon="12.589440446211405"><ele>704.6</ele><time>2026-05-01T12:20:57Z</time></trkpt><trkpt lat="42.79156567204378" lon="12.58937010656075"><ele>707.4</ele><time>2026-05-01T12:20:58Z</time></trkpt><trkpt lat="42.79165327624223" lon="12.589305067263046"><ele>710.2</ele><time>2026-05-01T12:20:59Z</time></trkpt><trkpt lat="42.791741506574496" lon="12.589233630364198"><ele>713.0</ele><time>2026-05-01T12:21:00Z</time></trkpt><trkpt lat="42.79182672571297" lon="12.589151946522907"><ele>710.0</ele><time>2026-05-01T12:21:01Z</time></trkpt><trkpt lat="42.791913677715165" lon="12.58907316731726"><ele>707.0</ele><time>2026-05-01T12:21:02Z</time></trkpt><trkpt lat="42.7920129633003" lon="12.588997457919575"><ele>704.0</ele><time>2026-05-01T12:21:03Z</time></trkpt><trkpt lat="42.792106102736376" lon="12.588890182131854"><ele>701.0</ele><time>2026-05-01T12:21:04Z</time></trkpt><trkpt lat="42.792188391966384" lon="12.588749564832261"><ele>705.75</ele><time>2026-05-01T12:21:05Z</time></trkpt><trkpt lat="42.79227398281377" lon="12.58863289050224"><ele>710.5</ele><time>2026-05-01T12:21:06Z</time></trkpt><trkpt lat="42.79236038870238" lon="12.588522427053345"><ele>715.25</ele><time>2026-05-01T12:21:07Z</time></trkpt><trkpt lat="42.79244246357543" lon="12.588399642725427"><ele>720.0</ele><time>2026-05-01T12:21:08Z</time></trkpt><trkpt lat="42.79251459655047" lon="12.588261062837807"><ele>720.0</ele><time>2026-05-01T12:21:09Z</time></trkpt><trkpt lat="42.792601732084115" lon="12.588142024437289"><ele>720.0</ele><time>2026-05-01T12:21:10Z</time></trkpt><trkpt lat="42.792692841975956" lon="12.588022529191042"><ele>720.0</ele><time>2026-05-01T12:21:11Z</time></trkpt><trkpt lat="42.79277831667968" lon="12.58792734226837"><ele>720.0</ele><time>2026-05-01T12:21:12Z</time></trkpt><trkpt lat="42.792864367767464" lon="12.587863127835298"><ele>724.0</ele><time>2026-05-01T12:21:13Z</time></trkpt><trkpt lat="42.792963368728635" lon="12.587818104543084"><ele>728.0</ele><time>2026-05-01T12:21:14Z</time></trkpt><trkpt lat="42.7930707619718" lon="12.587798539200607"><ele>732.0</ele><time>2026-05-01T12:21:15Z</time></trkpt><trkpt lat="42.79319869767888" lon="12.58779415108054"><ele>736.0</ele><time>2026-05-01T12:21:16Z</time></trkpt><trkpt lat="42.793327978399404" lon="12.587786349320286"><ele>736.0</ele><time>2026-05-01T12:21:17Z</time></trkpt><trkpt lat="42.79344828016258" lon="12.587756048799212"><ele>736.0</ele><time>2026-05-01T12:21:18Z</time></trkpt><trkpt lat="42.79356086618445" lon="12.5877042871519"><ele>736.0</ele><time>2026-05-01T12:21:19Z</time></trkpt><trkpt lat="42.79367202245665" lon="12.587637167211863"><ele>736.0</ele><time>2026-05-01T12:21:20Z</time></trkpt><trkpt lat="42.79377379500796" lon="12.587564553429978"><ele>733.4</ele><time>2026-05-01T12:21:21Z</time></trkpt><trkpt lat="42.79386820725471" lon="12.587491230639898"><ele>730.8</ele><time>2026-05-01T12:21:22Z</time></trkpt><trkpt lat="42.79394765371372" lon="12.58742518831325"><ele>728.1999999999999</ele><time>2026-05-01T12:21:23Z</time></trkpt><trkpt lat="42.79401803919596" lon="12.58739024619439"><ele>725.5999999999999</ele><time>2026-05-01T12:21:24Z</time></trkpt><trkpt lat="42.79409094555134" lon="12.587314009068958"><ele>723.0</ele><time>2026-05-01T12:21:26Z</time></trkpt><trkpt lat="42.79413195144648" lon="12.587160100223395"><ele>723.0</ele><time>2026-05-01T12:21:28Z</time></trkpt><trkpt lat="42.79408679146427" lon="12.587075627145962"><ele>723.0</ele><time>2026-05-01T12:21:29Z</time></trkpt><trkpt lat="42.794005035137914" lon="12.587046343480331"><ele>723.0</ele><time>2026-05-01T12:21:30Z</time></trkpt><trkpt lat="42.79392707056971" lon="12.5871101103327"><ele>723.0</ele><time>2026-05-01T12:21:31Z</time></trkpt><trkpt lat="42.793850810562645" lon="12.587153269693294"><ele>723.0</ele><time>2026-05-01T12:21:32Z</time></trkpt><trkpt lat="42.79375920386338" lon="12.587209943192095"><ele>723.0</ele><time>2026-05-01T12:21:33Z</time></trkpt><trkpt lat="42.79365969000533" lon="12.587261441433466"><ele>723.0</ele><time>2026-05-01T12:21:34Z</time></trkpt><trkpt lat="42.79355933369249" lon="12.587301400208457"><ele>723.0</ele><time>2026-05-01T12:21:35Z</time></trkpt><trkpt lat="42.79345027804946" lon="12.587332236177575"><ele>723.0</ele><time>2026-05-01T12:21:36Z</time></trkpt><trkpt lat="42.793330296044914" lon="12.587351016180977"><ele>723.0</ele><time>2026-05-01T12:21:37Z</time></trkpt><trkpt lat="42.79321528179319" lon="12.587334194204267"><ele>725.5999999999999</ele><time>2026-05-01T12:21:38Z</time></trkpt><trkpt lat="42.79311886976742" lon="12.58731908726849"><ele>728.1999999999999</ele><time>2026-05-01T12:21:39Z</time></trkpt><trkpt lat="42.793026393395806" lon="12.587257346751475"><ele>730.8</ele><time>2026-05-01T12:21:40Z</time></trkpt><trkpt lat="42.79292058188691" lon="12.587197369059892"><ele>733.4</ele><time>2026-05-01T12:21:41Z</time></trkpt><trkpt lat="42.79281963794024" lon="12.58717011779237"><ele>736.0</ele><time>2026-05-01T12:21:42Z</time></trkpt><trkpt lat="42.79274797433859" lon="12.587140823882764"><ele>737.8</ele><time>2026-05-01T12:21:43Z</time></trkpt><trkpt lat="42.792627232288325" lon="12.587183048834294"><ele>739.5999999999999</ele><time>2026-05-01T12:21:45Z</time></trkpt><trkpt lat="42.79254509007314" lon="12.58722145347465"><ele>741.4</ele><time>2026-05-01T12:21:46Z</time></trkpt><trkpt lat="42.792479056641014" lon="12.587342107166414"><ele>743.2</ele><time>2026-05-01T12:21:47Z</time></trkpt><trkpt lat="42.792406109207576" lon="12.587428095554158"><ele>745.0</ele><time>2026-05-01T12:21:48Z</time></trkpt><trkpt lat="42.792322127348854" lon="12.587485068291318"><ele>745.0</ele><time>2026-05-01T12:21:49Z</time></trkpt><trkpt lat="42.79221751826982" lon="12.587520022438358"><ele>745.0</ele><time>2026-05-01T12:21:50Z</time></trkpt><trkpt lat="42.79209775402014" lon="12.587547555265271"><ele>745.0</ele><time>2026-05-01T12:21:51Z</time></trkpt><trkpt lat="42.79195872305959" lon="12.58756889254329"><ele>745.0</ele><time>2026-05-01T12:21:52Z</time></trkpt><trkpt lat="42.79180178919146" lon="12.587581296886679"><ele>748.75</ele><time>2026-05-01T12:21:53Z</time></trkpt><trkpt lat="42.79165052293988" lon="12.587582528689293"><ele>752.5</ele><time>2026-05-01T12:21:54Z</time></trkpt><trkpt lat="42.791522273217446" lon="12.587579314959953"><ele>756.25</ele><time>2026-05-01T12:21:55Z</time></trkpt><trkpt lat="42.79139135642354" lon="12.587594925382332"><ele>760.0</ele><time>2026-05-01T12:21:56Z</time></trkpt><trkpt lat="42.791263386777345" lon="12.587641374672751"><ele>760.0</ele><time>2026-05-01T12:21:57Z</time></trkpt><trkpt lat="42.79115242933105" lon="12.58765848136037"><ele>760.0</ele><time>2026-05-01T12:21:58Z</time></trkpt><trkpt lat="42.79106113600827" lon="12.587689521092274"><ele>760.0</ele><time>2026-05-01T12:21:59Z</time></trkpt><trkpt lat="42.79096355466104" lon="12.587716651908808"><ele>760.0</ele><time>2026-05-01T12:22:00Z</time></trkpt><trkpt lat="42.7908494353749" lon="12.587749777483445"><ele>760.0</ele><time>2026-05-01T12:22:01Z</time></trkpt><trkpt lat="42.79072040361721" lon="12.587724790699943"><ele>762.25</ele><time>2026-05-01T12:22:02Z</time></trkpt><trkpt lat="42.790586809808175" lon="12.587678190365724"><ele>764.5</ele><time>2026-05-01T12:22:03Z</time></trkpt><trkpt lat="42.79046350787044" lon="12.587594864625503"><ele>766.75</ele><time>2026-05-01T12:22:04Z</time></trkpt><trkpt lat="42.790333488049846" lon="12.587541921358794"><ele>769.0</ele><time>2026-05-01T12:22:05Z</time></trkpt><trkpt lat="42.79021126933526" lon="12.58746007317748"><ele>768.0</ele><time>2026-05-01T12:22:06Z</time></trkpt><trkpt lat="42.79009427122715" lon="12.587375918971679"><ele>767.0</ele><time>2026-05-01T12:22:07Z</time></trkpt><trkpt lat="42.789968720140195" lon="12.587307771689606"><ele>766.0</ele><time>2026-05-01T12:22:08Z</time></trkpt><trkpt lat="42.78984973955486" lon="12.58726233299916"><ele>765.0</ele><time>2026-05-01T12:22:09Z</time></trkpt><trkpt lat="42.78971965615015" lon="12.587241077955156"><ele>765.0</ele><time>2026-05-01T12:22:10Z</time></trkpt><trkpt lat="42.78958809456697" lon="12.587226812157216"><ele>765.0</ele><time>2026-05-01T12:22:11Z</time></trkpt><trkpt lat="42.78946531994675" lon="12.587216853429657"><ele>765.0</ele><time>2026-05-01T12:22:12Z</time></trkpt><trkpt lat="42.789355971720205" lon="12.587218787922184"><ele>765.0</ele><time>2026-05-01T12:22:13Z</time></trkpt><trkpt lat="42.78926359769963" lon="12.587229105141258"><ele>764.6666666666666</ele><time>2026-05-01T12:22:14Z</time></trkpt><trkpt lat="42.78920387499193" lon="12.587199722697017"><ele>764.3333333333334</ele><time>2026-05-01T12:22:15Z</time></trkpt><trkpt lat="42.78914021997665" lon="12.587173489644373"><ele>764.0</ele><time>2026-05-01T12:22:17Z</time></trkpt><trkpt lat="42.78912344767147" lon="12.587042179789226"><ele>763.6666666666667</ele><time>2026-05-01T12:22:20Z</time></trkpt><trkpt lat="42.78920874343928" lon="12.587006511454806"><ele>763.3333333333334</ele><time>2026-05-01T12:22:22Z</time></trkpt><trkpt lat="42.789337783025495" lon="12.586997876276047"><ele>763.0</ele><time>2026-05-01T12:22:24Z</time></trkpt><trkpt lat="42.78941170136208" lon="12.587001199361417"><ele>768.0</ele><time>2026-05-01T12:22:25Z</time></trkpt><trkpt lat="42.78950137545387" lon="12.586992989766502"><ele>773.0</ele><time>2026-05-01T12:22:26Z</time></trkpt><trkpt lat="42.78959575073298" lon="12.586990853100692"><ele>778.0</ele><time>2026-05-01T12:22:27Z</time></trkpt><trkpt lat="42.78969839974391" lon="12.587003956012065"><ele>783.0</ele><time>2026-05-01T12:22:28Z</time></trkpt><trkpt lat="42.78979630475794" lon="12.586982237053892"><ele>788.0</ele><time>2026-05-01T12:22:29Z</time></trkpt><trkpt lat="42.78989435821299" lon="12.58698314911825"><ele>788.0</ele><time>2026-05-01T12:22:30Z</time></trkpt><trkpt lat="42.78998634875817" lon="12.586985557928706"><ele>788.0</ele><time>2026-05-01T12:22:31Z</time></trkpt><trkpt lat="42.79009319230954" lon="12.586978478464552"><ele>788.0</ele><time>2026-05-01T12:22:32Z</time></trkpt><trkpt lat="42.79020493654856" lon="12.586960885480975"><ele>788.0</ele><time>2026-05-01T12:22:33Z</time></trkpt><trkpt lat="42.79031413314031" lon="12.586931170773362"><ele>788.0</ele><time>2026-05-01T12:22:34Z</time></trkpt><trkpt lat="42.79042173619757" lon="12.58689132388433"><ele>788.8</ele><time>2026-05-01T12:22:35Z</time></trkpt><trkpt lat="42.79052117554721" lon="12.586842725839428"><ele>789.5999999999999</ele><time>2026-05-01T12:22:36Z</time></trkpt><trkpt lat="42.79062808753396" lon="12.586810356322493"><ele>790.4000000000001</ele><time>2026-05-01T12:22:37Z</time></trkpt><trkpt lat="42.79073305835771" lon="12.586746339219983"><ele>791.2</ele><time>2026-05-01T12:22:38Z</time></trkpt><trkpt lat="42.79083960295229" lon="12.586674458830634"><ele>792.0</ele><time>2026-05-01T12:22:39Z</time></trkpt><trkpt lat="42.79094360883633" lon="12.58658186822809"><ele>791.0</ele><time>2026-05-01T12:22:40Z</time></trkpt><trkpt lat="42.79105923697558" lon="12.58650857439436"><ele>790.0</ele><time>2026-05-01T12:22:41Z</time></trkpt><trkpt lat="42.79117391201066" lon="12.586432619276806"><ele>789.0</ele><time>2026-05-01T12:22:42Z</time></trkpt><trkpt lat="42.7912942556946" lon="12.586380270915111"><ele>788.0</ele><time>2026-05-01T12:22:43Z</time></trkpt><trkpt lat="42.79142283692707" lon="12.586361551408594"><ele>788.0</ele><time>2026-05-01T12:22:44Z</time></trkpt><trkpt lat="42.791546925042404" lon="12.586306764957524"><ele>788.0</ele><time>2026-05-01T12:22:45Z</time></trkpt><trkpt lat="42.79166867879079" lon="12.586271460887382"><ele>788.0</ele><time>2026-05-01T12:22:46Z</time></trkpt><trkpt lat="42.79178261303629" lon="12.58624436334944"><ele>788.0</ele><time>2026-05-01T12:22:47Z</time></trkpt><trkpt lat="42.7919014716751" lon="12.58619164217993"><ele>791.25</ele><time>2026-05-01T12:22:48Z</time></trkpt><trkpt lat="42.7920122363863" lon="12.58613552726283"><ele>794.5</ele><time>2026-05-01T12:22:49Z</time></trkpt><trkpt lat="42.792119822860926" lon="12.586065048216456"><ele>797.75</ele><time>2026-05-01T12:22:50Z</time></trkpt><trkpt lat="42.792221733918105" lon="12.586004215901214"><ele>801.0</ele><time>2026-05-01T12:22:51Z</time></trkpt><trkpt lat="42.79231005080443" lon="12.585927362571926"><ele>801.0</ele><time>2026-05-01T12:22:52Z</time></trkpt><trkpt lat="42.79238390872651" lon="12.585856211075674"><ele>801.0</ele><time>2026-05-01T12:22:53Z</time></trkpt><trkpt lat="42.792436183597715" lon="12.585796721549503"><ele>801.0</ele><time>2026-05-01T12:22:54Z</time></trkpt><trkpt lat="42.79248966650786" lon="12.585686746508344"><ele>801.0</ele><time>2026-05-01T12:22:56Z</time></trkpt><trkpt lat="42.79253319172023" lon="12.585579383132055"><ele>801.0</ele><time>2026-05-01T12:22:58Z</time></trkpt><trkpt lat="42.792506650757254" lon="12.585497790616571"><ele>801.0</ele><time>2026-05-01T12:22:59Z</time></trkpt><trkpt lat="42.79244346661513" lon="12.585455646595877"><ele>801.0</ele><time>2026-05-01T12:23:00Z</time></trkpt><trkpt lat="42.79236829263728" lon="12.585476309151726"><ele>801.0</ele><time>2026-05-01T12:23:01Z</time></trkpt><trkpt lat="42.79229469313342" lon="12.585520686849346"><ele>801.0</ele><time>2026-05-01T12:23:02Z</time></trkpt><trkpt lat="42.79221846115593" lon="12.585565267752212"><ele>801.0</ele><time>2026-05-01T12:23:03Z</time></trkpt><trkpt lat="42.79212969729158" lon="12.585617288009026"><ele>801.0</ele><time>2026-05-01T12:23:04Z</time></trkpt><trkpt lat="42.79202819427215" lon="12.585678440610621"><ele>801.0</ele><time>2026-05-01T12:23:05Z</time></trkpt><trkpt lat="42.791929382226996" lon="12.585735054783838"><ele>804.25</ele><time>2026-05-01T12:23:06Z</time></trkpt><trkpt lat="42.791830260603135" lon="12.585765605956517"><ele>807.5</ele><time>2026-05-01T12:23:07Z</time></trkpt><trkpt lat="42.791720577124465" lon="12.585758232451614"><ele>810.75</ele><time>2026-05-01T12:23:08Z</time></trkpt><trkpt lat="42.791586435634706" lon="12.585740588680704"><ele>814.0</ele><time>2026-05-01T12:23:09Z</time></trkpt><trkpt lat="42.791446020699695" lon="12.5857221791929"><ele>814.0</ele><time>2026-05-01T12:23:10Z</time></trkpt><trkpt lat="42.7913191230594" lon="12.58569648737568"><ele>814.0</ele><time>2026-05-01T12:23:11Z</time></trkpt><trkpt lat="42.7912012544614" lon="12.585662908059856"><ele>814.0</ele><time>2026-05-01T12:23:12Z</time></trkpt><trkpt lat="42.791093589620196" lon="12.585618925593211"><ele>814.0</ele><time>2026-05-01T12:23:13Z</time></trkpt><trkpt lat="42.79098153179894" lon="12.585560790479796"><ele>814.0</ele><time>2026-05-01T12:23:14Z</time></trkpt><trkpt lat="42.790861353512604" lon="12.585489429861594"><ele>814.0</ele><time>2026-05-01T12:23:15Z</time></trkpt><trkpt lat="42.790742169221346" lon="12.585411377621028"><ele>814.0</ele><time>2026-05-01T12:23:16Z</time></trkpt><trkpt lat="42.79063585380226" lon="12.585334819026466"><ele>814.0</ele><time>2026-05-01T12:23:17Z</time></trkpt><trkpt lat="42.790532070518175" lon="12.58526441164625"><ele>818.2</ele><time>2026-05-01T12:23:18Z</time></trkpt><trkpt lat="42.79044500834983" lon="12.585181270988208"><ele>822.4000000000001</ele><time>2026-05-01T12:23:19Z</time></trkpt><trkpt lat="42.79036608106708" lon="12.585107748449902"><ele>826.6</ele><time>2026-05-01T12:23:20Z</time></trkpt><trkpt lat="42.79028201962968" lon="12.585060754236382"><ele>830.8</ele><time>2026-05-01T12:23:21Z</time></trkpt><trkpt lat="42.79018789261665" lon="12.585035254567181"><ele>835.0</ele><time>2026-05-01T12:23:22Z</time></trkpt><trkpt lat="42.79009584746452" lon="12.585030571336402"><ele>835.0</ele><time>2026-05-01T12:23:23Z</time></trkpt><trkpt lat="42.78999033198167" lon="12.585035371063823"><ele>835.0</ele><time>2026-05-01T12:23:24Z</time></trkpt><trkpt lat="42.789897268837684" lon="12.585028891659782"><ele>835.0</ele><time>2026-05-01T12:23:25Z</time></trkpt><trkpt lat="42.78981738861764" lon="12.585026953175392"><ele>835.0</ele><time>2026-05-01T12:23:26Z</time></trkpt><trkpt lat="42.78972187616443" lon="12.584991053051004"><ele>835.0</ele><time>2026-05-01T12:23:28Z</time></trkpt><trkpt lat="42.78968390920074" lon="12.584890721657276"><ele>834.9999999999999</ele><time>2026-05-01T12:23:31Z</time></trkpt><trkpt lat="42.789746566383904" lon="12.584819595508808"><ele>835.0</ele><time>2026-05-01T12:23:33Z</time></trkpt><trkpt lat="42.78982223806224" lon="12.584803918435506"><ele>835.0</ele><time>2026-05-01T12:23:34Z</time></trkpt><trkpt lat="42.78990169726374" lon="12.584800704379647"><ele>835.0</ele><time>2026-05-01T12:23:35Z</time></trkpt><trkpt lat="42.78997501790977" lon="12.584801640151955"><ele>834.9999999999999</ele><time>2026-05-01T12:23:36Z</time></trkpt><trkpt lat="42.790061533545575" lon="12.584794053498195"><ele>835.0</ele><time>2026-05-01T12:23:37Z</time></trkpt><trkpt lat="42.79016694786047" lon="12.584796124882846"><ele>837.0</ele><time>2026-05-01T12:23:38Z</time></trkpt><trkpt lat="42.790271700659986" lon="12.584802034031739"><ele>839.0</ele><time>2026-05-01T12:23:39Z</time></trkpt><trkpt lat="42.790379222057524" lon="12.58482393041393"><ele>841.0</ele><time>2026-05-01T12:23:40Z</time></trkpt><trkpt lat="42.79049565681787" lon="12.58487796288372"><ele>843.0</ele><time>2026-05-01T12:23:41Z</time></trkpt><trkpt lat="42.790626107470814" lon="12.584913881454012"><ele>843.0</ele><time>2026-05-01T12:23:42Z</time></trkpt><trkpt lat="42.79076108812129" lon="12.58492946798192"><ele>843.0</ele><time>2026-05-01T12:23:43Z</time></trkpt><trkpt lat="42.79087802455993" lon="12.58494217250913"><ele>843.0</ele><time>2026-05-01T12:23:44Z</time></trkpt><trkpt lat="42.79099281229228" lon="12.584940926024299"><ele>843.0</ele><time>2026-05-01T12:23:45Z</time></trkpt><trkpt lat="42.79109258421696" lon="12.584963615177843"><ele>843.2</ele><time>2026-05-01T12:23:46Z</time></trkpt><trkpt lat="42.79119289213359" lon="12.58493600245014"><ele>843.4</ele><time>2026-05-01T12:23:47Z</time></trkpt><trkpt lat="42.79129487513108" lon="12.584923295318939"><ele>843.6</ele><time>2026-05-01T12:23:48Z</time></trkpt><trkpt lat="42.79140755019247" lon="12.584896216079603"><ele>843.8000000000001</ele><time>2026-05-01T12:23:49Z</time></trkpt><trkpt lat="42.79151932019665" lon="12.584855248687926"><ele>844.0</ele><time>2026-05-01T12:23:50Z</time></trkpt><trkpt lat="42.79161675167591" lon="12.584799932019173"><ele>844.0</ele><time>2026-05-01T12:23:51Z</time></trkpt><trkpt lat="42.79170892505083" lon="12.58477590072657"><ele>844.0</ele><time>2026-05-01T12:23:52Z</time></trkpt><trkpt lat="42.7918028094715" lon="12.58470717682224"><ele>844.0</ele><time>2026-05-01T12:23:53Z</time></trkpt><trkpt lat="42.79187924786636" lon="12.584614029082868"><ele>844.0</ele><time>2026-05-01T12:23:54Z</time></trkpt><trkpt lat="42.791936756706" lon="12.58450042366915"><ele>844.0</ele><time>2026-05-01T12:23:55Z</time></trkpt><trkpt lat="42.79198468094198" lon="12.584367453266541"><ele>841.75</ele><time>2026-05-01T12:23:56Z</time></trkpt><trkpt lat="42.792027126819484" lon="12.584171491631281"><ele>839.5</ele><time>2026-05-01T12:23:57Z</time></trkpt><trkpt lat="42.79207353807514" lon="12.58399716302007"><ele>837.25</ele><time>2026-05-01T12:23:58Z</time></trkpt><trkpt lat="42.7921174173898" lon="12.583837376332589"><ele>835.0</ele><time>2026-05-01T12:23:59Z</time></trkpt><trkpt lat="42.79216733435465" lon="12.58369949090054"><ele>842.25</ele><time>2026-05-01T12:24:00Z</time></trkpt><trkpt lat="42.79221897239031" lon="12.583558455804662"><ele>849.5</ele><time>2026-05-01T12:24:01Z</time></trkpt><trkpt lat="42.792300211361955" lon="12.58343171958619"><ele>856.75</ele><time>2026-05-01T12:24:02Z</time></trkpt><trkpt lat="42.79238091192343" lon="12.583302633897265"><ele>864.0</ele><time>2026-05-01T12:24:03Z</time></trkpt><trkpt lat="42.79244966504509" lon="12.583161311905197"><ele>864.0</ele><time>2026-05-01T12:24:04Z</time></trkpt><trkpt lat="42.79250770670087" lon="12.5830276543329"><ele>864.0000000000001</ele><time>2026-05-01T12:24:05Z</time></trkpt><trkpt lat="42.79256925906214" lon="12.582921754001356"><ele>864.0000000000001</ele><time>2026-05-01T12:24:06Z</time></trkpt><trkpt lat="42.79263145515562" lon="12.58281226942531"><ele>864.0</ele><time>2026-05-01T12:24:07Z</time></trkpt><trkpt lat="42.79271524707968" lon="12.582728003319565"><ele>864.0</ele><time>2026-05-01T12:24:08Z</time></trkpt><trkpt lat="42.792804921393355" lon="12.582647401099713"><ele>865.5</ele><time>2026-05-01T12:24:09Z</time></trkpt><trkpt lat="42.792906991199295" lon="12.582553871130314"><ele>867.0</ele><time>2026-05-01T12:24:10Z</time></trkpt><trkpt lat="42.793026041079855" lon="12.582473861876341"><ele>868.5</ele><time>2026-05-01T12:24:11Z</time></trkpt><trkpt lat="42.793134157149964" lon="12.58236721039951"><ele>870.0</ele><time>2026-05-01T12:24:12Z</time></trkpt><trkpt lat="42.79325181361526" lon="12.582286975251307"><ele>870.0</ele><time>2026-05-01T12:24:13Z</time></trkpt><trkpt lat="42.793370415812525" lon="12.582212651829026"><ele>870.0</ele><time>2026-05-01T12:24:14Z</time></trkpt><trkpt lat="42.79348776284372" lon="12.582136058332797"><ele>870.0</ele><time>2026-05-01T12:24:15Z</time></trkpt><trkpt lat="42.79360203748162" lon="12.582053233255017"><ele>870.0</ele><time>2026-05-01T12:24:16Z</time></trkpt><trkpt lat="42.79370386481954" lon="12.58198116987979"><ele>874.6</ele><time>2026-05-01T12:24:17Z</time></trkpt><trkpt lat="42.7938041007774" lon="12.581930607062533"><ele>879.2</ele><time>2026-05-01T12:24:18Z</time></trkpt><trkpt lat="42.79390783993" lon="12.581897145067217"><ele>883.8</ele><time>2026-05-01T12:24:19Z</time></trkpt><trkpt lat="42.79401362425838" lon="12.581889252584974"><ele>888.4</ele><time>2026-05-01T12:24:20Z</time></trkpt><trkpt lat="42.7941274965194" lon="12.581891871833262"><ele>893.0</ele><time>2026-05-01T12:24:21Z</time></trkpt><trkpt lat="42.7942413394168" lon="12.581895575350291"><ele>892.0</ele><time>2026-05-01T12:24:22Z</time></trkpt><trkpt lat="42.794352010928804" lon="12.581875245387975"><ele>891.0</ele><time>2026-05-01T12:24:23Z</time></trkpt><trkpt lat="42.79446462375899" lon="12.581830682863423"><ele>890.0</ele><time>2026-05-01T12:24:24Z</time></trkpt><trkpt lat="42.794575382242854" lon="12.581770337397348"><ele>889.0</ele><time>2026-05-01T12:24:25Z</time></trkpt><trkpt lat="42.794671529700494" lon="12.581708855947912"><ele>889.0</ele><time>2026-05-01T12:24:26Z</time></trkpt><trkpt lat="42.79475512629382" lon="12.58164365075521"><ele>889.0000000000001</ele><time>2026-05-01T12:24:27Z</time></trkpt><trkpt lat="42.79485375264612" lon="12.581598266623052"><ele>889.0000000000001</ele><time>2026-05-01T12:24:28Z</time></trkpt><trkpt lat="42.7949292683311" lon="12.581515687534516"><ele>889.0</ele><time>2026-05-01T12:24:29Z</time></trkpt><trkpt lat="42.79500905643767" lon="12.58146726147263"><ele>889.0</ele><time>2026-05-01T12:24:30Z</time></trkpt><trkpt lat="42.795065089282886" lon="12.58141244717433"><ele>889.0</ele><time>2026-05-01T12:24:31Z</time></trkpt><trkpt lat="42.795124639341104" lon="12.581327772167391"><ele>889.0000000000001</ele><time>2026-05-01T12:24:32Z</time></trkpt><trkpt lat="42.79520275429058" lon="12.58118346254054"><ele>889.0000000000001</ele><time>2026-05-01T12:24:34Z</time></trkpt><trkpt lat="42.795232648801566" lon="12.581057463810106"><ele>889.0</ele><time>2026-05-01T12:24:35Z</time></trkpt><trkpt lat="42.79527238087297" lon="12.580895830334528"><ele>889.0</ele><time>2026-05-01T12:24:36Z</time></trkpt><trkpt lat="42.7953195421504" lon="12.580716765364103"><ele>890.0</ele><time>2026-05-01T12:24:37Z</time></trkpt><trkpt lat="42.795368036613716" lon="12.580538470303722"><ele>891.0</ele><time>2026-05-01T12:24:38Z</time></trkpt><trkpt lat="42.79539804481775" lon="12.580394906819377"><ele>892.0</ele><time>2026-05-01T12:24:39Z</time></trkpt><trkpt lat="42.795410265096" lon="12.580248213964229"><ele>893.0</ele><time>2026-05-01T12:24:40Z</time></trkpt><trkpt lat="42.795408114523994" lon="12.580097179576262"><ele>896.75</ele><time>2026-05-01T12:24:41Z</time></trkpt><trkpt lat="42.79539843281693" lon="12.579957579388594"><ele>900.5</ele><time>2026-05-01T12:24:42Z</time></trkpt><trkpt lat="42.795378170450455" lon="12.579809325658472"><ele>904.25</ele><time>2026-05-01T12:24:43Z</time></trkpt><trkpt lat="42.7953360690041" lon="12.579659601171008"><ele>908.0</ele><time>2026-05-01T12:24:44Z</time></trkpt><trkpt lat="42.795296636111566" lon="12.57948735751486"><ele>911.25</ele><time>2026-05-01T12:24:45Z</time></trkpt><trkpt lat="42.79525458632709" lon="12.57930200001999"><ele>914.5</ele><time>2026-05-01T12:24:46Z</time></trkpt><trkpt lat="42.79521770833901" lon="12.579117699021088"><ele>917.75</ele><time>2026-05-01T12:24:47Z</time></trkpt><trkpt lat="42.79518215012326" lon="12.57893712147485"><ele>921.0</ele><time>2026-05-01T12:24:48Z</time></trkpt><trkpt lat="42.795149139310126" lon="12.578765879717833"><ele>920.5999999999999</ele><time>2026-05-01T12:24:49Z</time></trkpt><trkpt lat="42.79511956208924" lon="12.578600699124102"><ele>920.1999999999999</ele><time>2026-05-01T12:24:50Z</time></trkpt><trkpt lat="42.79509748707258" lon="12.578452692999239"><ele>919.8000000000001</ele><time>2026-05-01T12:24:51Z</time></trkpt><trkpt lat="42.79510753448983" lon="12.578339504253744"><ele>919.4000000000001</ele><time>2026-05-01T12:24:52Z</time></trkpt><trkpt lat="42.79510996878574" lon="12.57820953801258"><ele>919.0</ele><time>2026-05-01T12:24:54Z</time></trkpt><trkpt lat="42.79512228676747" lon="12.578119248790191"><ele>919.0</ele><time>2026-05-01T12:24:58Z</time></trkpt><trkpt lat="42.79499542060731" lon="12.578079028793852"><ele>919.0000000000001</ele><time>2026-05-01T12:25:03Z</time></trkpt><trkpt lat="42.79490583956345" lon="12.578043306044435"><ele>919.0000000000001</ele><time>2026-05-01T12:25:06Z</time></trkpt><trkpt lat="42.794839188692464" lon="12.577992441644215"><ele>919.0</ele><time>2026-05-01T12:25:08Z</time></trkpt><trkpt lat="42.794777260515914" lon="12.577936800990848"><ele>919.0</ele><time>2026-05-01T12:25:11Z</time></trkpt><trkpt lat="42.79483326590478" lon="12.578010122075163"><ele>918.9999999999999</ele><time>2026-05-01T12:25:35Z</time></trkpt><trkpt lat="42.79493021236493" lon="12.578082098769935"><ele>919.0</ele><time>2026-05-01T12:25:37Z</time></trkpt><trkpt lat="42.79501387700289" lon="12.578095746233487"><ele>919.0</ele><time>2026-05-01T12:25:39Z</time></trkpt><trkpt lat="42.79508410879306" lon="12.578118922093386"><ele>919.0</ele><time>2026-05-01T12:25:41Z</time></trkpt><trkpt lat="42.79514233288975" lon="12.57798257153127"><ele>918.9999999999999</ele><time>2026-05-01T12:25:42Z</time></trkpt><trkpt lat="42.7951831154687" lon="12.577913112852404"><ele>919.0</ele><time>2026-05-01T12:25:43Z</time></trkpt><trkpt lat="42.79526390164448" lon="12.57773917835448"><ele>920.9999999999999</ele><time>2026-05-01T12:25:45Z</time></trkpt><trkpt lat="42.79531956356341" lon="12.577636536208436"><ele>923.0</ele><time>2026-05-01T12:25:46Z</time></trkpt><trkpt lat="42.79537617359859" lon="12.577536922449141"><ele>925.0</ele><time>2026-05-01T12:25:47Z</time></trkpt><trkpt lat="42.7954381312921" lon="12.57743152029181"><ele>927.0</ele><time>2026-05-01T12:25:48Z</time></trkpt><trkpt lat="42.795485526362796" lon="12.5773472455717"><ele>928.9999999999999</ele><time>2026-05-01T12:25:49Z</time></trkpt><trkpt lat="42.79553006469739" lon="12.577279630361417"><ele>931.0</ele><time>2026-05-01T12:25:50Z</time></trkpt><trkpt lat="42.79562443106738" lon="12.577205492833508"><ele>931.0</ele><time>2026-05-01T12:25:52Z</time></trkpt><trkpt lat="42.79568782429341" lon="12.577205558397416"><ele>931.0</ele><time>2026-05-01T12:25:53Z</time></trkpt><trkpt lat="42.79575263605973" lon="12.577241095388112"><ele>931.0</ele><time>2026-05-01T12:25:54Z</time></trkpt><trkpt lat="42.795796778887286" lon="12.577306128293468"><ele>931.0</ele><time>2026-05-01T12:25:55Z</time></trkpt><trkpt lat="42.79582221765511" lon="12.577397587137208"><ele>931.0</ele><time>2026-05-01T12:25:56Z</time></trkpt><trkpt lat="42.79583003844544" lon="12.577498566016681"><ele>931.0</ele><time>2026-05-01T12:25:57Z</time></trkpt><trkpt lat="42.79582921785677" lon="12.577602998082128"><ele>931.0</ele><time>2026-05-01T12:25:58Z</time></trkpt><trkpt lat="42.795832081598505" lon="12.577723824765146"><ele>930.1666666666666</ele><time>2026-05-01T12:25:59Z</time></trkpt><trkpt lat="42.79583724912102" lon="12.577852487583804"><ele>929.3333333333333</ele><time>2026-05-01T12:26:00Z</time></trkpt><trkpt lat="42.795837948811354" lon="12.577979460288098"><ele>928.5</ele><time>2026-05-01T12:26:01Z</time></trkpt><trkpt lat="42.795833568598106" lon="12.578093112849494"><ele>927.6666666666667</ele><time>2026-05-01T12:26:02Z</time></trkpt><trkpt lat="42.79585313977389" lon="12.57820526419551"><ele>926.8333333333334</ele><time>2026-05-01T12:26:03Z</time></trkpt><trkpt lat="42.79586550152301" lon="12.57832413434659"><ele>926.0</ele><time>2026-05-01T12:26:04Z</time></trkpt><trkpt lat="42.79588723329689" lon="12.578437116261314"><ele>926.0</ele><time>2026-05-01T12:26:05Z</time></trkpt><trkpt lat="42.79592320424748" lon="12.578537882930219"><ele>925.9999999999999</ele><time>2026-05-01T12:26:06Z</time></trkpt><trkpt lat="42.795972784775934" lon="12.578645792286805"><ele>925.9999999999999</ele><time>2026-05-01T12:26:07Z</time></trkpt><trkpt lat="42.796030712202004" lon="12.578761708594767"><ele>926.0</ele><time>2026-05-01T12:26:08Z</time></trkpt><trkpt lat="42.79609287644547" lon="12.578877912669537"><ele>926.0</ele><time>2026-05-01T12:26:09Z</time></trkpt><trkpt lat="42.79616248803227" lon="12.57899018963247"><ele>929.4</ele><time>2026-05-01T12:26:10Z</time></trkpt><trkpt lat="42.7962316842443" lon="12.579109124735151"><ele>932.8</ele><time>2026-05-01T12:26:11Z</time></trkpt><trkpt lat="42.79629347931583" lon="12.579232000408176"><ele>936.1999999999999</ele><time>2026-05-01T12:26:12Z</time></trkpt><trkpt lat="42.79635458936056" lon="12.579345798496536"><ele>939.5999999999999</ele><time>2026-05-01T12:26:13Z</time></trkpt><trkpt lat="42.79640156132837" lon="12.57942982996952"><ele>943.0</ele><time>2026-05-01T12:26:14Z</time></trkpt><trkpt lat="42.7964233205552" lon="12.579510835118032"><ele>939.8</ele><time>2026-05-01T12:26:15Z</time></trkpt><trkpt lat="42.79652457840713" lon="12.579622263405428"><ele>936.5999999999999</ele><time>2026-05-01T12:26:17Z</time></trkpt><trkpt lat="42.79657770603503" lon="12.579698674826851"><ele>933.4000000000001</ele><time>2026-05-01T12:26:18Z</time></trkpt><trkpt lat="42.796651824791034" lon="12.57973504890244"><ele>930.2</ele><time>2026-05-01T12:26:19Z</time></trkpt><trkpt lat="42.79673598343057" lon="12.57970046516655"><ele>927.0</ele><time>2026-05-01T12:26:20Z</time></trkpt><trkpt lat="42.796810054991155" lon="12.57966791037624"><ele>927.8</ele><time>2026-05-01T12:26:21Z</time></trkpt><trkpt lat="42.79691032208486" lon="12.579632872277555"><ele>928.6</ele><time>2026-05-01T12:26:22Z</time></trkpt><trkpt lat="42.79700587080796" lon="12.579565629158639"><ele>929.3999999999999</ele><time>2026-05-01T12:26:23Z</time></trkpt><trkpt lat="42.79708258935442" lon="12.579490986312482"><ele>930.1999999999999</ele><time>2026-05-01T12:26:24Z</time></trkpt><trkpt lat="42.79715225643538" lon="12.579423214854813"><ele>931.0</ele><time>2026-05-01T12:26:25Z</time></trkpt><trkpt lat="42.79723269257778" lon="12.579390781319546"><ele>935.5999999999999</ele><time>2026-05-01T12:26:26Z</time></trkpt><trkpt lat="42.797323240766445" lon="12.579361567035013"><ele>940.1999999999999</ele><time>2026-05-01T12:26:27Z</time></trkpt><trkpt lat="42.7974188723692" lon="12.579357360037026"><ele>944.8000000000001</ele><time>2026-05-01T12:26:28Z</time></trkpt><trkpt lat="42.797526338412545" lon="12.579358980230436"><ele>949.4000000000001</ele><time>2026-05-01T12:26:29Z</time></trkpt><trkpt lat="42.79762742987689" lon="12.579366670546708"><ele>954.0</ele><time>2026-05-01T12:26:30Z</time></trkpt><trkpt lat="42.79772489749404" lon="12.579386844960847"><ele>951.6</ele><time>2026-05-01T12:26:31Z</time></trkpt><trkpt lat="42.79781346343295" lon="12.579417646062174"><ele>949.2</ele><time>2026-05-01T12:26:32Z</time></trkpt><trkpt lat="42.797903720273354" lon="12.57945267589199"><ele>946.8000000000001</ele><time>2026-05-01T12:26:33Z</time></trkpt><trkpt lat="42.79799285406095" lon="12.579494584645092"><ele>944.4000000000001</ele><time>2026-05-01T12:26:34Z</time></trkpt><trkpt lat="42.79808588859033" lon="12.579538810232396"><ele>942.0</ele><time>2026-05-01T12:26:35Z</time></trkpt><trkpt lat="42.798175416544666" lon="12.579587404375243"><ele>942.0</ele><time>2026-05-01T12:26:36Z</time></trkpt><trkpt lat="42.798273932136574" lon="12.57961300748921"><ele>942.0</ele><time>2026-05-01T12:26:37Z</time></trkpt><trkpt lat="42.79835805808303" lon="12.579644093098334"><ele>942.0</ele><time>2026-05-01T12:26:38Z</time></trkpt><trkpt lat="42.798435191558525" lon="12.579650610287029"><ele>942.0</ele><time>2026-05-01T12:26:39Z</time></trkpt><trkpt lat="42.798514012733285" lon="12.579654749785844"><ele>942.0</ele><time>2026-05-01T12:26:40Z</time></trkpt><trkpt lat="42.798581502397326" lon="12.579652763623082"><ele>942.0</ele><time>2026-05-01T12:26:41Z</time></trkpt><trkpt lat="42.798698196350884" lon="12.579634439718298"><ele>942.1666666666666</ele><time>2026-05-01T12:26:43Z</time></trkpt><trkpt lat="42.79876798993276" lon="12.579614217311013"><ele>942.3333333333333</ele><time>2026-05-01T12:26:44Z</time></trkpt><trkpt lat="42.79883810908274" lon="12.579589177375068"><ele>942.5</ele><time>2026-05-01T12:26:45Z</time></trkpt><trkpt lat="42.79891214677237" lon="12.579545967188919"><ele>942.6666666666666</ele><time>2026-05-01T12:26:46Z</time></trkpt><trkpt lat="42.79899243637396" lon="12.579509463575869"><ele>942.8333333333333</ele><time>2026-05-01T12:26:47Z</time></trkpt><trkpt lat="42.79906198488264" lon="12.57944192554103"><ele>943.0</ele><time>2026-05-01T12:26:48Z</time></trkpt><trkpt lat="42.79912389577666" lon="12.579367913016299"><ele>942.9999999999999</ele><time>2026-05-01T12:26:49Z</time></trkpt><trkpt lat="42.79916789770653" lon="12.579269092233332"><ele>943.0</ele><time>2026-05-01T12:26:50Z</time></trkpt><trkpt lat="42.79922068567925" lon="12.579185791479345"><ele>943.0</ele><time>2026-05-01T12:26:51Z</time></trkpt><trkpt lat="42.7992564755029" lon="12.579070521137997"><ele>943.0</ele><time>2026-05-01T12:26:52Z</time></trkpt><trkpt lat="42.799290443949374" lon="12.578953037294324"><ele>942.9999999999999</ele><time>2026-05-01T12:26:53Z</time></trkpt><trkpt lat="42.79931852303843" lon="12.5788336751685"><ele>943.0</ele><time>2026-05-01T12:26:54Z</time></trkpt><trkpt lat="42.799343359541375" lon="12.578726143649485"><ele>946.8</ele><time>2026-05-01T12:26:55Z</time></trkpt><trkpt lat="42.79938020071164" lon="12.578607448123698"><ele>950.5999999999999</ele><time>2026-05-01T12:26:56Z</time></trkpt><trkpt lat="42.799422228242214" lon="12.578490815943875"><ele>954.4000000000001</ele><time>2026-05-01T12:26:57Z</time></trkpt><trkpt lat="42.79946623267677" lon="12.578379268503648"><ele>958.2</ele><time>2026-05-01T12:26:58Z</time></trkpt><trkpt lat="42.79951946682609" lon="12.578248718859488"><ele>962.0</ele><time>2026-05-01T12:26:59Z</time></trkpt><trkpt lat="42.799572156066084" lon="12.578130264076409"><ele>962.0</ele><time>2026-05-01T12:27:00Z</time></trkpt><trkpt lat="42.799628854385794" lon="12.578015795892703"><ele>962.0</ele><time>2026-05-01T12:27:01Z</time></trkpt><trkpt lat="42.799669166952405" lon="12.577912650697469"><ele>962.0</ele><time>2026-05-01T12:27:02Z</time></trkpt><trkpt lat="42.799742815572195" lon="12.57782093350433"><ele>962.0</ele><time>2026-05-01T12:27:03Z</time></trkpt><trkpt lat="42.79982846923643" lon="12.577741916907907"><ele>962.0</ele><time>2026-05-01T12:27:04Z</time></trkpt><trkpt lat="42.799914773802705" lon="12.577685331242373"><ele>964.5000000000001</ele><time>2026-05-01T12:27:05Z</time></trkpt><trkpt lat="42.80000316716212" lon="12.577677195572178"><ele>967.0</ele><time>2026-05-01T12:27:06Z</time></trkpt><trkpt lat="42.80009520217191" lon="12.577666161360268"><ele>969.5</ele><time>2026-05-01T12:27:07Z</time></trkpt><trkpt lat="42.80018331685861" lon="12.57764949822644"><ele>972.0</ele><time>2026-05-01T12:27:08Z</time></trkpt><trkpt lat="42.80026314972237" lon="12.577657884338258"><ele>974.5000000000001</ele><time>2026-05-01T12:27:09Z</time></trkpt><trkpt lat="42.80035645834724" lon="12.577658707586004"><ele>977.0</ele><time>2026-05-01T12:27:10Z</time></trkpt><trkpt lat="42.800446171504085" lon="12.577653092213037"><ele>977.0000000000001</ele><time>2026-05-01T12:27:11Z</time></trkpt><trkpt lat="42.800527443942165" lon="12.577633735312412"><ele>977.0</ele><time>2026-05-01T12:27:12Z</time></trkpt><trkpt lat="42.80061375938398" lon="12.577636031613002"><ele>977.0</ele><time>2026-05-01T12:27:13Z</time></trkpt><trkpt lat="42.80068465099945" lon="12.577606716932427"><ele>977.0</ele><time>2026-05-01T12:27:14Z</time></trkpt><trkpt lat="42.80074297979795" lon="12.577560140409027"><ele>977.0000000000001</ele><time>2026-05-01T12:27:15Z</time></trkpt><trkpt lat="42.8007847483726" lon="12.577487974741707"><ele>977.0</ele><time>2026-05-01T12:27:16Z</time></trkpt><trkpt lat="42.80082091534454" lon="12.57734868386498"><ele>977.0</ele><time>2026-05-01T12:27:18Z</time></trkpt><trkpt lat="42.800824233643795" lon="12.577178577840991"><ele>977.0</ele><time>2026-05-01T12:27:20Z</time></trkpt><trkpt lat="42.80079856785993" lon="12.57707905455493"><ele>977.0</ele><time>2026-05-01T12:27:21Z</time></trkpt><trkpt lat="42.80075379021217" lon="12.576982514255779"><ele>977.0</ele><time>2026-05-01T12:27:22Z</time></trkpt><trkpt lat="42.800698966495716" lon="12.576875642846202"><ele>977.0</ele><time>2026-05-01T12:27:23Z</time></trkpt><trkpt lat="42.80063825515116" lon="12.576773528188289"><ele>978.0</ele><time>2026-05-01T12:27:24Z</time></trkpt><trkpt lat="42.800574116197645" lon="12.576656899170805"><ele>979.0</ele><time>2026-05-01T12:27:25Z</time></trkpt><trkpt lat="42.800503815177876" lon="12.576525211272"><ele>980.0</ele><time>2026-05-01T12:27:26Z</time></trkpt><trkpt lat="42.80043532847745" lon="12.576391001123444"><ele>981.0</ele><time>2026-05-01T12:27:27Z</time></trkpt><trkpt lat="42.80037369008023" lon="12.576267180223995"><ele>982.1999999999999</ele><time>2026-05-01T12:27:28Z</time></trkpt><trkpt lat="42.80032182067735" lon="12.576159730669792"><ele>983.3999999999999</ele><time>2026-05-01T12:27:29Z</time></trkpt><trkpt lat="42.8002966400353" lon="12.576068596538216"><ele>984.6</ele><time>2026-05-01T12:27:30Z</time></trkpt><trkpt lat="42.80023570845291" lon="12.575925721831847"><ele>985.8</ele><time>2026-05-01T12:27:32Z</time></trkpt><trkpt lat="42.80022484090749" lon="12.575774576031739"><ele>987.0</ele><time>2026-05-01T12:27:34Z</time></trkpt><trkpt lat="42.80023446440001" lon="12.575685723046153"><ele>987.0</ele><time>2026-05-01T12:27:35Z</time></trkpt><trkpt lat="42.80026959541889" lon="12.57560803397516"><ele>987.0</ele><time>2026-05-01T12:27:36Z</time></trkpt><trkpt lat="42.80035287878527" lon="12.575553672909423"><ele>987.0</ele><time>2026-05-01T12:27:38Z</time></trkpt><trkpt lat="42.80047066180219" lon="12.575562337762507"><ele>987.0</ele><time>2026-05-01T12:27:40Z</time></trkpt><trkpt lat="42.8005485863582" lon="12.5755766808759"><ele>987.0</ele><time>2026-05-01T12:27:41Z</time></trkpt><trkpt lat="42.80063946703704" lon="12.575595679954445"><ele>987.0</ele><time>2026-05-01T12:27:42Z</time></trkpt><trkpt lat="42.800742119621916" lon="12.575612038705735"><ele>987.0</ele><time>2026-05-01T12:27:43Z</time></trkpt><trkpt lat="42.80084253800913" lon="12.575637131176213"><ele>987.0</ele><time>2026-05-01T12:27:44Z</time></trkpt><trkpt lat="42.800937892055096" lon="12.575636339443985"><ele>987.0</ele><time>2026-05-01T12:27:45Z</time></trkpt><trkpt lat="42.80102324752183" lon="12.575631034222022"><ele>987.0</ele><time>2026-05-01T12:27:46Z</time></trkpt><trkpt lat="42.80110044655248" lon="12.575621953280132"><ele>987.0</ele><time>2026-05-01T12:27:47Z</time></trkpt><trkpt lat="42.80118360274069" lon="12.57559063629114"><ele>987.0</ele><time>2026-05-01T12:27:48Z</time></trkpt><trkpt lat="42.80126155401374" lon="12.575533359304458"><ele>988.0</ele><time>2026-05-01T12:27:49Z</time></trkpt><trkpt lat="42.801335200557396" lon="12.575459770524274"><ele>989.0</ele><time>2026-05-01T12:27:50Z</time></trkpt><trkpt lat="42.80139754126285" lon="12.575383612777069"><ele>990.0</ele><time>2026-05-01T12:27:51Z</time></trkpt><trkpt lat="42.801469666058885" lon="12.57532742062212"><ele>991.0</ele><time>2026-05-01T12:27:52Z</time></trkpt><trkpt lat="42.801535848678846" lon="12.57526595914037"><ele>992.0</ele><time>2026-05-01T12:27:53Z</time></trkpt><trkpt lat="42.80160089017857" lon="12.575205985810573"><ele>993.0</ele><time>2026-05-01T12:27:54Z</time></trkpt><trkpt lat="42.801665572437095" lon="12.57516686481394"><ele>993.0</ele><time>2026-05-01T12:27:55Z</time></trkpt><trkpt lat="42.80173716688536" lon="12.575160679850924"><ele>993.0</ele><time>2026-05-01T12:27:56Z</time></trkpt><trkpt lat="42.80181623161406" lon="12.575154958643633"><ele>993.0</ele><time>2026-05-01T12:27:57Z</time></trkpt><trkpt lat="42.80191343804714" lon="12.57519245587165"><ele>993.0</ele><time>2026-05-01T12:27:58Z</time></trkpt><trkpt lat="42.80202382305504" lon="12.575237166454881"><ele>993.0</ele><time>2026-05-01T12:27:59Z</time></trkpt><trkpt lat="42.80213188280539" lon="12.575279798609916"><ele>993.0</ele><time>2026-05-01T12:28:00Z</time></trkpt><trkpt lat="42.80223311769308" lon="12.575346865008466"><ele>993.0</ele><time>2026-05-01T12:28:01Z</time></trkpt><trkpt lat="42.80233473669374" lon="12.575389099688083"><ele>993.0</ele><time>2026-05-01T12:28:02Z</time></trkpt><trkpt lat="42.80242603292925" lon="12.575422315979305"><ele>993.0</ele><time>2026-05-01T12:28:03Z</time></trkpt><trkpt lat="42.80250660109134" lon="12.575450577692592"><ele>993.0</ele><time>2026-05-01T12:28:04Z</time></trkpt><trkpt lat="42.80259591177574" lon="12.575470361604472"><ele>990.3333333333334</ele><time>2026-05-01T12:28:05Z</time></trkpt><trkpt lat="42.802685578286976" lon="12.575474075073716"><ele>987.6666666666667</ele><time>2026-05-01T12:28:06Z</time></trkpt><trkpt lat="42.80277590694996" lon="12.575458514003612"><ele>985.0</ele><time>2026-05-01T12:28:07Z</time></trkpt><trkpt lat="42.80285677370987" lon="12.575418470166687"><ele>982.3333333333334</ele><time>2026-05-01T12:28:08Z</time></trkpt><trkpt lat="42.80293554540851" lon="12.575384910797204"><ele>979.6666666666667</ele><time>2026-05-01T12:28:09Z</time></trkpt><trkpt lat="42.80300045179789" lon="12.57533654510792"><ele>977.0</ele><time>2026-05-01T12:28:10Z</time></trkpt><trkpt lat="42.8030680959771" lon="12.575221205637176"><ele>977.0000000000001</ele><time>2026-05-01T12:28:12Z</time></trkpt><trkpt lat="42.80309241900837" lon="12.575131173337127"><ele>977.0</ele><time>2026-05-01T12:28:13Z</time></trkpt><trkpt lat="42.80310837683286" lon="12.57502930326697"><ele>977.0</ele><time>2026-05-01T12:28:14Z</time></trkpt><trkpt lat="42.80310356337797" lon="12.57492942341184"><ele>977.0</ele><time>2026-05-01T12:28:15Z</time></trkpt><trkpt lat="42.803081691663635" lon="12.57482172602062"><ele>977.0000000000001</ele><time>2026-05-01T12:28:16Z</time></trkpt><trkpt lat="42.803048915014536" lon="12.5747223651764"><ele>977.0</ele><time>2026-05-01T12:28:17Z</time></trkpt><trkpt lat="42.80301512676093" lon="12.574618279645271"><ele>975.4000000000001</ele><time>2026-05-01T12:28:18Z</time></trkpt><trkpt lat="42.80297533785806" lon="12.574500456146408"><ele>973.8000000000001</ele><time>2026-05-01T12:28:19Z</time></trkpt><trkpt lat="42.80293603084357" lon="12.574378740769012"><ele>972.2</ele><time>2026-05-01T12:28:20Z</time></trkpt><trkpt lat="42.80289818951401" lon="12.574259843498695"><ele>970.6</ele><time>2026-05-01T12:28:21Z</time></trkpt><trkpt lat="42.802849381847736" lon="12.574149241329543"><ele>969.0</ele><time>2026-05-01T12:28:22Z</time></trkpt><trkpt lat="42.80280275637845" lon="12.574046689815049"><ele>969.0</ele><time>2026-05-01T12:28:23Z</time></trkpt><trkpt lat="42.80276831729364" lon="12.573918639895426"><ele>969.0</ele><time>2026-05-01T12:28:24Z</time></trkpt><trkpt lat="42.80272589230215" lon="12.573805734681923"><ele>969.0</ele><time>2026-05-01T12:28:25Z</time></trkpt><trkpt lat="42.802687429691815" lon="12.573695631116793"><ele>969.0</ele><time>2026-05-01T12:28:26Z</time></trkpt><trkpt lat="42.80265463380496" lon="12.573596376917122"><ele>969.0</ele><time>2026-05-01T12:28:27Z</time></trkpt><trkpt lat="42.802623065798585" lon="12.573495183846777"><ele>969.0</ele><time>2026-05-01T12:28:28Z</time></trkpt><trkpt lat="42.80259491967751" lon="12.573392320752244"><ele>975.0</ele><time>2026-05-01T12:28:29Z</time></trkpt><trkpt lat="42.80256211666725" lon="12.573281239686413"><ele>981.0000000000001</ele><time>2026-05-01T12:28:30Z</time></trkpt><trkpt lat="42.802549976417964" lon="12.573154399198886"><ele>987.0000000000001</ele><time>2026-05-01T12:28:31Z</time></trkpt><trkpt lat="42.80254170100834" lon="12.573025826235375"><ele>993.0</ele><time>2026-05-01T12:28:32Z</time></trkpt><trkpt lat="42.80252748791458" lon="12.572885139462707"><ele>999.0</ele><time>2026-05-01T12:28:33Z</time></trkpt><trkpt lat="42.80250216986801" lon="12.57274950961823"><ele>999.0</ele><time>2026-05-01T12:28:34Z</time></trkpt><trkpt lat="42.80248045096206" lon="12.572636429009032"><ele>999.0</ele><time>2026-05-01T12:28:35Z</time></trkpt><trkpt lat="42.80246233706383" lon="12.572526438296398"><ele>999.0</ele><time>2026-05-01T12:28:36Z</time></trkpt><trkpt lat="42.80245819422349" lon="12.572432974359835"><ele>999.0</ele><time>2026-05-01T12:28:37Z</time></trkpt><trkpt lat="42.802464598140155" lon="12.572277737825713"><ele>999.0</ele><time>2026-05-01T12:28:39Z</time></trkpt><trkpt lat="42.80251016750646" lon="12.572197648050137"><ele>999.0</ele><time>2026-05-01T12:28:40Z</time></trkpt><trkpt lat="42.80257061465142" lon="12.572132922718318"><ele>999.0</ele><time>2026-05-01T12:28:41Z</time></trkpt><trkpt lat="42.80264002008287" lon="12.57210123622837"><ele>999.0000000000001</ele><time>2026-05-01T12:28:42Z</time></trkpt><trkpt lat="42.80272390687829" lon="12.572100016053712"><ele>999.0000000000001</ele><time>2026-05-01T12:28:43Z</time></trkpt><trkpt lat="42.80280074434087" lon="12.572118267015167"><ele>999.0</ele><time>2026-05-01T12:28:44Z</time></trkpt><trkpt lat="42.80289891898893" lon="12.572146607746255"><ele>999.0</ele><time>2026-05-01T12:28:45Z</time></trkpt><trkpt lat="42.80302227599801" lon="12.572176107621889"><ele>997.25</ele><time>2026-05-01T12:28:46Z</time></trkpt><trkpt lat="42.80315071629963" lon="12.572210148443403"><ele>995.5</ele><time>2026-05-01T12:28:47Z</time></trkpt><trkpt lat="42.80326499525188" lon="12.572265443410142"><ele>993.75</ele><time>2026-05-01T12:28:48Z</time></trkpt><trkpt lat="42.80337283931737" lon="12.572286211146547"><ele>992.0</ele><time>2026-05-01T12:28:49Z</time></trkpt><trkpt lat="42.80347728572871" lon="12.572296712269848"><ele>993.2</ele><time>2026-05-01T12:28:50Z</time></trkpt><trkpt lat="42.8035823471392" lon="12.572283256699313"><ele>994.4000000000001</ele><time>2026-05-01T12:28:51Z</time></trkpt><trkpt lat="42.80368078605285" lon="12.572279221234746"><ele>995.5999999999999</ele><time>2026-05-01T12:28:52Z</time></trkpt><trkpt lat="42.80377405507051" lon="12.572299481779861"><ele>996.8</ele><time>2026-05-01T12:28:53Z</time></trkpt><trkpt lat="42.803864597801194" lon="12.572295205694227"><ele>998.0</ele><time>2026-05-01T12:28:54Z</time></trkpt><trkpt lat="42.80394637021081" lon="12.572285939402464"><ele>998.0000000000001</ele><time>2026-05-01T12:28:55Z</time></trkpt><trkpt lat="42.80402876112885" lon="12.572268572556315"><ele>998.0</ele><time>2026-05-01T12:28:56Z</time></trkpt><trkpt lat="42.804108090581536" lon="12.572241142684312"><ele>998.0</ele><time>2026-05-01T12:28:57Z</time></trkpt><trkpt lat="42.804190533554234" lon="12.57220042116927"><ele>998.0</ele><time>2026-05-01T12:28:58Z</time></trkpt><trkpt lat="42.80427567840534" lon="12.572147271441342"><ele>998.0000000000001</ele><time>2026-05-01T12:28:59Z</time></trkpt><trkpt lat="42.80435818218887" lon="12.572090479445738"><ele>998.0</ele><time>2026-05-01T12:29:00Z</time></trkpt><trkpt lat="42.80442512598394" lon="12.572008842939542"><ele>998.1666666666667</ele><time>2026-05-01T12:29:01Z</time></trkpt><trkpt lat="42.80449935545575" lon="12.571967690020701"><ele>998.3333333333334</ele><time>2026-05-01T12:29:02Z</time></trkpt><trkpt lat="42.80456980126186" lon="12.571881848985043"><ele>998.5</ele><time>2026-05-01T12:29:03Z</time></trkpt><trkpt lat="42.80462805081249" lon="12.571783297394818"><ele>998.6666666666667</ele><time>2026-05-01T12:29:04Z</time></trkpt><trkpt lat="42.804660003386466" lon="12.571668786707143"><ele>998.8333333333334</ele><time>2026-05-01T12:29:05Z</time></trkpt><trkpt lat="42.804668185899146" lon="12.571559612323295"><ele>999.0</ele><time>2026-05-01T12:29:06Z</time></trkpt><trkpt lat="42.80469106584392" lon="12.571478203701185"><ele>999.0</ele><time>2026-05-01T12:29:07Z</time></trkpt><trkpt lat="42.80469465071317" lon="12.571377054369252"><ele>999.0</ele><time>2026-05-01T12:29:08Z</time></trkpt><trkpt lat="42.8046888546609" lon="12.571272078811681"><ele>999.0</ele><time>2026-05-01T12:29:09Z</time></trkpt><trkpt lat="42.80467519661237" lon="12.571162897906655"><ele>999.0</ele><time>2026-05-01T12:29:10Z</time></trkpt><trkpt lat="42.80465943746497" lon="12.571061179787206"><ele>999.0</ele><time>2026-05-01T12:29:11Z</time></trkpt><trkpt lat="42.804640038971385" lon="12.570931486998825"><ele>999.0</ele><time>2026-05-01T12:29:12Z</time></trkpt><trkpt lat="42.804626091151" lon="12.570798290056716"><ele>999.0</ele><time>2026-05-01T12:29:13Z</time></trkpt><trkpt lat="42.80461652767722" lon="12.570663181592282"><ele>999.0</ele><time>2026-05-01T12:29:14Z</time></trkpt><trkpt lat="42.80460503649767" lon="12.570536307897616"><ele>999.0</ele><time>2026-05-01T12:29:15Z</time></trkpt><trkpt lat="42.80461395021385" lon="12.57041273065595"><ele>999.0</ele><time>2026-05-01T12:29:16Z</time></trkpt><trkpt lat="42.8046211144519" lon="12.570325242565957"><ele>999.0</ele><time>2026-05-01T12:29:17Z</time></trkpt><trkpt lat="42.80459732229876" lon="12.570218281385962"><ele>999.0</ele><time>2026-05-01T12:29:18Z</time></trkpt><trkpt lat="42.80456955477927" lon="12.57008970562846"><ele>999.3333333333334</ele><time>2026-05-01T12:29:19Z</time></trkpt><trkpt lat="42.80454050584797" lon="12.569976351780861"><ele>999.6666666666667</ele><time>2026-05-01T12:29:20Z</time></trkpt><trkpt lat="42.80450731884907" lon="12.569873871851101"><ele>1000.0</ele><time>2026-05-01T12:29:21Z</time></trkpt><trkpt lat="42.80446016070884" lon="12.56978467995882"><ele>1000.3333333333334</ele><time>2026-05-01T12:29:22Z</time></trkpt><trkpt lat="42.80439190620177" lon="12.569734430826099"><ele>1000.6666666666667</ele><time>2026-05-01T12:29:23Z</time></trkpt><trkpt lat="42.80433710327665" lon="12.569667996257571"><ele>1001.0</ele><time>2026-05-01T12:29:24Z</time></trkpt><trkpt lat="42.80429174998896" lon="12.569589171209927"><ele>1005.0000000000001</ele><time>2026-05-01T12:29:25Z</time></trkpt><trkpt lat="42.80426731934396" lon="12.569428165494738"><ele>1009.0</ele><time>2026-05-01T12:29:27Z</time></trkpt><trkpt lat="42.80427625974124" lon="12.56933412069192"><ele>1013.0</ele><time>2026-05-01T12:29:28Z</time></trkpt><trkpt lat="42.80429445755374" lon="12.569231419100522"><ele>1017.0</ele><time>2026-05-01T12:29:29Z</time></trkpt><trkpt lat="42.80429493501051" lon="12.569111512775553"><ele>1021.0000000000001</ele><time>2026-05-01T12:29:30Z</time></trkpt><trkpt lat="42.8042884473281" lon="12.568987624714833"><ele>1025.0</ele><time>2026-05-01T12:29:31Z</time></trkpt><trkpt lat="42.804262419513904" lon="12.568887806920284"><ele>1025.0</ele><time>2026-05-01T12:29:32Z</time></trkpt><trkpt lat="42.804247527237635" lon="12.568784635875991"><ele>1025.0</ele><time>2026-05-01T12:29:33Z</time></trkpt><trkpt lat="42.804239486888356" lon="12.568685602115545"><ele>1025.0</ele><time>2026-05-01T12:29:34Z</time></trkpt><trkpt lat="42.80423862000435" lon="12.568520639698978"><ele>1025.0</ele><time>2026-05-01T12:29:36Z</time></trkpt><trkpt lat="42.804330390361386" lon="12.568406849146061"><ele>1025.0</ele><time>2026-05-01T12:29:38Z</time></trkpt><trkpt lat="42.80440038377171" lon="12.56837876099171"><ele>1024.2</ele><time>2026-05-01T12:29:39Z</time></trkpt><trkpt lat="42.80447651932782" lon="12.56835961251968"><ele>1023.4</ele><time>2026-05-01T12:29:40Z</time></trkpt><trkpt lat="42.80455802455946" lon="12.568360411892469"><ele>1022.5999999999999</ele><time>2026-05-01T12:29:41Z</time></trkpt><trkpt lat="42.80465868011823" lon="12.56834065069042"><ele>1021.8</ele><time>2026-05-01T12:29:42Z</time></trkpt><trkpt lat="42.80475236699752" lon="12.568327064456572"><ele>1021.0</ele><time>2026-05-01T12:29:43Z</time></trkpt><trkpt lat="42.804853163030174" lon="12.568305442805498"><ele>1021.0</ele><time>2026-05-01T12:29:44Z</time></trkpt><trkpt lat="42.80496045670782" lon="12.568295260283648"><ele>1020.9999999999999</ele><time>2026-05-01T12:29:45Z</time></trkpt><trkpt lat="42.80506983963806" lon="12.56830557862135"><ele>1020.9999999999999</ele><time>2026-05-01T12:29:46Z</time></trkpt><trkpt lat="42.80517465468885" lon="12.56829513521691"><ele>1021.0</ele><time>2026-05-01T12:29:47.001Z</time></trkpt><trkpt lat="42.80526432581906" lon="12.568286200697717"><ele>1021.0</ele><time>2026-05-01T12:29:48.001Z</time></trkpt><trkpt lat="42.80533609682909" lon="12.568279049689487"><ele>1020.8333333333333</ele><time>2026-05-01T12:29:49.001Z</time></trkpt><trkpt lat="42.80543466829307" lon="12.568259838765902"><ele>1020.6666666666666</ele><time>2026-05-01T12:29:51.001Z</time></trkpt><trkpt lat="42.80550189251904" lon="12.568273948730711"><ele>1020.5</ele><time>2026-05-01T12:29:53.001Z</time></trkpt><trkpt lat="42.80556077191929" lon="12.568236368954524"><ele>1020.3333333333333</ele><time>2026-05-01T12:29:56.001Z</time></trkpt><trkpt lat="42.80548269255416" lon="12.568108802621788"><ele>1020.1666666666666</ele><time>2026-05-01T12:30:00.001Z</time></trkpt><trkpt lat="42.80539952488951" lon="12.568102201890463"><ele>1020.0</ele><time>2026-05-01T12:30:01.001Z</time></trkpt><trkpt lat="42.80533551063048" lon="12.568091199820087"><ele>1020.0</ele><time>2026-05-01T12:30:02.001Z</time></trkpt><trkpt lat="42.805242668059115" lon="12.56807236819868"><ele>1020.0</ele><time>2026-05-01T12:30:03.001Z</time></trkpt><trkpt lat="42.80513955098101" lon="12.56805608406532"><ele>1020.0</ele><time>2026-05-01T12:30:04.001Z</time></trkpt><trkpt lat="42.80504129431984" lon="12.568041784341414"><ele>1020.0</ele><time>2026-05-01T12:30:05.001Z</time></trkpt><trkpt lat="42.80494205282286" lon="12.568009386575195"><ele>1020.0</ele><time>2026-05-01T12:30:06.001Z</time></trkpt><trkpt lat="42.80482864637548" lon="12.568012311729282"><ele>1020.25</ele><time>2026-05-01T12:30:07.001Z</time></trkpt><trkpt lat="42.80470310819541" lon="12.568004209650185"><ele>1020.5</ele><time>2026-05-01T12:30:08.001Z</time></trkpt><trkpt lat="42.804577724687626" lon="12.567994795599507"><ele>1020.75</ele><time>2026-05-01T12:30:09.001Z</time></trkpt><trkpt lat="42.8044330889882" lon="12.56798218497343"><ele>1021.0</ele><time>2026-05-01T12:30:10.001Z</time></trkpt><trkpt lat="42.804290271390315" lon="12.567942065643084"><ele>1022.25</ele><time>2026-05-01T12:30:11Z</time></trkpt><trkpt lat="42.804158356397785" lon="12.567947983552733"><ele>1023.5</ele><time>2026-05-01T12:30:12Z</time></trkpt><trkpt lat="42.80402686381958" lon="12.567909782041719"><ele>1024.75</ele><time>2026-05-01T12:30:13Z</time></trkpt><trkpt lat="42.803899628899515" lon="12.567894518768533"><ele>1026.0</ele><time>2026-05-01T12:30:14Z</time></trkpt><trkpt lat="42.803786063700905" lon="12.567902102644897"><ele>1026.0</ele><time>2026-05-01T12:30:15Z</time></trkpt><trkpt lat="42.80368911744659" lon="12.567871760254711"><ele>1026.0</ele><time>2026-05-01T12:30:16Z</time></trkpt><trkpt lat="42.80360507703242" lon="12.567864222281676"><ele>1026.0</ele><time>2026-05-01T12:30:17Z</time></trkpt><trkpt lat="42.80352063885955" lon="12.567866031249276"><ele>1026.0</ele><time>2026-05-01T12:30:19Z</time></trkpt><trkpt lat="42.80350503115669" lon="12.567738188509969"><ele>1026.0</ele><time>2026-05-01T12:30:22Z</time></trkpt><trkpt lat="42.80360171088504" lon="12.567714658012672"><ele>1029.0</ele><time>2026-05-01T12:30:24Z</time></trkpt><trkpt lat="42.80371781759044" lon="12.567740006682016"><ele>1032.0</ele><time>2026-05-01T12:30:26Z</time></trkpt><trkpt lat="42.803835917236405" lon="12.567718317872052"><ele>1035.0</ele><time>2026-05-01T12:30:28Z</time></trkpt><trkpt lat="42.80390278699948" lon="12.567678242072333"><ele>1038.0</ele><time>2026-05-01T12:30:29Z</time></trkpt><trkpt lat="42.80396818327012" lon="12.567630667847414"><ele>1041.0</ele><time>2026-05-01T12:30:30Z</time></trkpt><trkpt lat="42.80401660588814" lon="12.567567135415498"><ele>1041.0</ele><time>2026-05-01T12:30:31Z</time></trkpt><trkpt lat="42.80412260899024" lon="12.567488346956994"><ele>1041.0</ele><time>2026-05-01T12:30:33Z</time></trkpt><trkpt lat="42.80422595621699" lon="12.567438418130031"><ele>1041.0</ele><time>2026-05-01T12:30:35Z</time></trkpt><trkpt lat="42.80428858570174" lon="12.567392725007824"><ele>1041.0</ele><time>2026-05-01T12:30:36Z</time></trkpt><trkpt lat="42.80437865072882" lon="12.567311066955416"><ele>1041.0</ele><time>2026-05-01T12:30:38Z</time></trkpt><trkpt lat="42.80446603822568" lon="12.567228857817424"><ele>1040.3999999999999</ele><time>2026-05-01T12:30:40Z</time></trkpt><trkpt lat="42.804539331743875" lon="12.567127217286686"><ele>1039.8</ele><time>2026-05-01T12:30:42Z</time></trkpt><trkpt lat="42.804608123899236" lon="12.567046016956388"><ele>1039.1999999999998</ele><time>2026-05-01T12:30:44Z</time></trkpt><trkpt lat="42.80470338912805" lon="12.566981322269159"><ele>1038.6</ele><time>2026-05-01T12:30:46Z</time></trkpt><trkpt lat="42.80479570978288" lon="12.566903466340571"><ele>1038.0</ele><time>2026-05-01T12:30:48Z</time></trkpt><trkpt lat="42.80488246209088" lon="12.566810876922721"><ele>1039.1666666666667</ele><time>2026-05-01T12:30:50Z</time></trkpt><trkpt lat="42.80496218604128" lon="12.566693330408917"><ele>1040.3333333333333</ele><time>2026-05-01T12:30:52Z</time></trkpt><trkpt lat="42.80500681133651" lon="12.566621302433397"><ele>1041.5</ele><time>2026-05-01T12:30:53Z</time></trkpt><trkpt lat="42.80504392112063" lon="12.56652635347106"><ele>1042.6666666666665</ele><time>2026-05-01T12:30:54Z</time></trkpt><trkpt lat="42.805096685447815" lon="12.566434743610339"><ele>1043.8333333333333</ele><time>2026-05-01T12:30:55Z</time></trkpt><trkpt lat="42.805143169820035" lon="12.566332803095598"><ele>1045.0</ele><time>2026-05-01T12:30:56Z</time></trkpt><trkpt lat="42.80519056152642" lon="12.566272447473429"><ele>1046.2</ele><time>2026-05-01T12:30:57Z</time></trkpt><trkpt lat="42.80523868813812" lon="12.566146538214584"><ele>1047.4</ele><time>2026-05-01T12:30:59Z</time></trkpt><trkpt lat="42.80529987428195" lon="12.566049717520894"><ele>1048.6</ele><time>2026-05-01T12:31:01Z</time></trkpt><trkpt lat="42.80532602349283" lon="12.565929588468526"><ele>1049.8</ele><time>2026-05-01T12:31:03Z</time></trkpt><trkpt lat="42.805288905562" lon="12.565825214922054"><ele>1051.0</ele><time>2026-05-01T12:31:06Z</time></trkpt><trkpt lat="42.80526382940072" lon="12.565937988915207"><ele>1051.0</ele><time>2026-05-01T12:31:14Z</time></trkpt><trkpt lat="42.805234403570765" lon="12.566045161800778"><ele>1051.0</ele><time>2026-05-01T12:31:16Z</time></trkpt><trkpt lat="42.80518303102191" lon="12.566141485841388"><ele>1051.0</ele><time>2026-05-01T12:31:19Z</time></trkpt><trkpt lat="42.80509715011811" lon="12.566206074625585"><ele>1051.0</ele><time>2026-05-01T12:31:21Z</time></trkpt><trkpt lat="42.80500664108754" lon="12.566264243609243"><ele>1051.0</ele><time>2026-05-01T12:31:23Z</time></trkpt><trkpt lat="42.80490403847418" lon="12.566311952894216"><ele>1050.3333333333333</ele><time>2026-05-01T12:31:25Z</time></trkpt><trkpt lat="42.80478064260959" lon="12.566351231789865"><ele>1049.6666666666665</ele><time>2026-05-01T12:31:27Z</time></trkpt><trkpt lat="42.804705953522415" lon="12.5663716586025"><ele>1049.0</ele><time>2026-05-01T12:31:28Z</time></trkpt><trkpt lat="42.804631171832725" lon="12.566387841279402"><ele>1048.3333333333333</ele><time>2026-05-01T12:31:29Z</time></trkpt><trkpt lat="42.804556133008944" lon="12.566403566631207"><ele>1047.6666666666667</ele><time>2026-05-01T12:31:30Z</time></trkpt><trkpt lat="42.80448014584446" lon="12.566417884168251"><ele>1047.0</ele><time>2026-05-01T12:31:31Z</time></trkpt><trkpt lat="42.80440824369743" lon="12.566429253036482"><ele>1047.0</ele><time>2026-05-01T12:31:32Z</time></trkpt><trkpt lat="42.80434022012796" lon="12.566440369732842"><ele>1047.0</ele><time>2026-05-01T12:31:33Z</time></trkpt><trkpt lat="42.80427562143373" lon="12.566462178079778"><ele>1047.0</ele><time>2026-05-01T12:31:34Z</time></trkpt><trkpt lat="42.80419295088333" lon="12.566539215534975"><ele>1047.0</ele><time>2026-05-01T12:31:36Z</time></trkpt><trkpt lat="42.804113707535095" lon="12.566581305523618"><ele>1047.0</ele><time>2026-05-01T12:31:38Z</time></trkpt><trkpt lat="42.804007653140104" lon="12.56651316982864"><ele>1047.0</ele><time>2026-05-01T12:31:40Z</time></trkpt><trkpt lat="42.803886541960566" lon="12.566470856482646"><ele>1047.6</ele><time>2026-05-01T12:31:42Z</time></trkpt><trkpt lat="42.80377194795791" lon="12.56643082020211"><ele>1048.2</ele><time>2026-05-01T12:31:44Z</time></trkpt><trkpt lat="42.80368892601058" lon="12.566515192295597"><ele>1048.8</ele><time>2026-05-01T12:31:45Z</time></trkpt><trkpt lat="42.803573615115006" lon="12.566542964552191"><ele>1049.4</ele><time>2026-05-01T12:31:47Z</time></trkpt><trkpt lat="42.80350535340001" lon="12.56654316706259"><ele>1050.0</ele><time>2026-05-01T12:31:48Z</time></trkpt><trkpt lat="42.80342928594996" lon="12.566539182156045"><ele>1050.5</ele><time>2026-05-01T12:31:49Z</time></trkpt><trkpt lat="42.80334547915229" lon="12.566533801221462"><ele>1051.0</ele><time>2026-05-01T12:31:50Z</time></trkpt><trkpt lat="42.80325015048492" lon="12.566575612162449"><ele>1051.5</ele><time>2026-05-01T12:31:51Z</time></trkpt><trkpt lat="42.803177871378075" lon="12.566631495635873"><ele>1052.0</ele><time>2026-05-01T12:31:52Z</time></trkpt><trkpt lat="42.803103536032836" lon="12.566680639249352"><ele>1052.5</ele><time>2026-05-01T12:31:53.001Z</time></trkpt><trkpt lat="42.80303315788212" lon="12.56673800005767"><ele>1053.0</ele><time>2026-05-01T12:31:54.001Z</time></trkpt><trkpt lat="42.80295543032647" lon="12.566762811725333"><ele>1053.0</ele><time>2026-05-01T12:31:55.001Z</time></trkpt><trkpt lat="42.80287710031814" lon="12.566783625639038"><ele>1053.0</ele><time>2026-05-01T12:31:56.001Z</time></trkpt><trkpt lat="42.80280623168302" lon="12.56680248814947"><ele>1053.0</ele><time>2026-05-01T12:31:57.001Z</time></trkpt><trkpt lat="42.80273923436932" lon="12.56682496356364"><ele>1053.0</ele><time>2026-05-01T12:31:58.001Z</time></trkpt><trkpt lat="42.802646247190225" lon="12.566891991752072"><ele>1053.0</ele><time>2026-05-01T12:32:00.001Z</time></trkpt><trkpt lat="42.80253922937909" lon="12.566969242491188"><ele>1053.0</ele><time>2026-05-01T12:32:02.001Z</time></trkpt><trkpt lat="42.80250950042915" lon="12.567052149235371"><ele>1055.2</ele><time>2026-05-01T12:32:03.001Z</time></trkpt><trkpt lat="42.802444907777335" lon="12.567162561828994"><ele>1057.4</ele><time>2026-05-01T12:32:05.001Z</time></trkpt><trkpt lat="42.80241044715281" lon="12.567278523737928"><ele>1059.6000000000001</ele><time>2026-05-01T12:32:07.001Z</time></trkpt><trkpt lat="42.80238604406562" lon="12.567386331645183"><ele>1061.8</ele><time>2026-05-01T12:32:09.001Z</time></trkpt><trkpt lat="42.802301558819856" lon="12.567453464265046"><ele>1064.0</ele><time>2026-05-01T12:32:11.001Z</time></trkpt><trkpt lat="42.802227458764044" lon="12.567565474069232"><ele>1064.0</ele><time>2026-05-01T12:32:13.001Z</time></trkpt><trkpt lat="42.80216239620846" lon="12.567664242107101"><ele>1064.0</ele><time>2026-05-01T12:32:15.001Z</time></trkpt><trkpt lat="42.8021152513406" lon="12.567792179585245"><ele>1064.0</ele><time>2026-05-01T12:32:17.001Z</time></trkpt><trkpt lat="42.802092872557125" lon="12.56789223504111"><ele>1064.0</ele><time>2026-05-01T12:32:19.001Z</time></trkpt><trkpt lat="42.802156479306454" lon="12.568012042625009"><ele>1064.0</ele><time>2026-05-01T12:32:20.001Z</time></trkpt><trkpt lat="42.80220430933962" lon="12.568089436553613"><ele>1066.0</ele><time>2026-05-01T12:32:22.001Z</time></trkpt><trkpt lat="42.802224742933014" lon="12.568185162220866"><ele>1068.0</ele><time>2026-05-01T12:32:25.001Z</time></trkpt><trkpt lat="42.80210745294577" lon="12.56834575034497"><ele>1070.0</ele><time>2026-05-01T12:32:27.001Z</time></trkpt><trkpt lat="42.8020505640343" lon="12.568477462793064"><ele>1072.0</ele><time>2026-05-01T12:32:29.001Z</time></trkpt><trkpt lat="42.80198739066906" lon="12.568621563117444"><ele>1072.8</ele><time>2026-05-01T12:32:31.001Z</time></trkpt><trkpt lat="42.801909141513924" lon="12.56874248231332"><ele>1073.6</ele><time>2026-05-01T12:32:33.001Z</time></trkpt><trkpt lat="42.801848181587154" lon="12.568838686437473"><ele>1074.3999999999999</ele><time>2026-05-01T12:32:35.001Z</time></trkpt><trkpt lat="42.801782731881936" lon="12.568905815288387"><ele>1075.2</ele><time>2026-05-01T12:32:37.001Z</time></trkpt><trkpt lat="42.80170666008499" lon="12.568976358511103"><ele>1076.0</ele><time>2026-05-01T12:32:39.001Z</time></trkpt><trkpt lat="42.80160776082627" lon="12.56902846853937"><ele>1077.3333333333335</ele><time>2026-05-01T12:32:41.001Z</time></trkpt><trkpt lat="42.8015201065522" lon="12.569080172469441"><ele>1078.6666666666667</ele><time>2026-05-01T12:32:43.001Z</time></trkpt><trkpt lat="42.80143748749009" lon="12.569109147165051"><ele>1080.0</ele><time>2026-05-01T12:32:45.001Z</time></trkpt><trkpt lat="42.80135723397806" lon="12.569077640200224"><ele>1081.3333333333333</ele><time>2026-05-01T12:32:47.001Z</time></trkpt><trkpt lat="42.80129605522161" lon="12.56902552050663"><ele>1082.6666666666665</ele><time>2026-05-01T12:32:49.001Z</time></trkpt><trkpt lat="42.80123217078277" lon="12.568976547554694"><ele>1084.0</ele><time>2026-05-01T12:32:51.001Z</time></trkpt><trkpt lat="42.80121021813457" lon="12.568895717798366"><ele>1084.0</ele><time>2026-05-01T12:33:04.001Z</time></trkpt><trkpt lat="42.8012581104911" lon="12.56897430805375"><ele>1084.0</ele><time>2026-05-01T12:33:11Z</time></trkpt><trkpt lat="42.80130896600311" lon="12.569031248985914"><ele>1084.0</ele><time>2026-05-01T12:33:15Z</time></trkpt><trkpt lat="42.80139079434863" lon="12.569111754481199"><ele>1084.0</ele><time>2026-05-01T12:34:25Z</time></trkpt><trkpt lat="42.80151298685546" lon="12.569023082778564"><ele>1084.0</ele><time>2026-05-01T12:34:28Z</time></trkpt><trkpt lat="42.801572946190205" lon="12.568978849119235"><ele>1084.0</ele><time>2026-05-01T12:34:30Z</time></trkpt><trkpt lat="42.801638350653995" lon="12.568930983217811"><ele>1084.0</ele><time>2026-05-01T12:34:32Z</time></trkpt><trkpt lat="42.801696826882846" lon="12.56888575633988"><ele>1084.0</ele><time>2026-05-01T12:34:34Z</time></trkpt><trkpt lat="42.80176010516168" lon="12.5688364335459"><ele>1084.0</ele><time>2026-05-01T12:34:36Z</time></trkpt><trkpt lat="42.801823433875064" lon="12.568791480868162"><ele>1084.0</ele><time>2026-05-01T12:34:38Z</time></trkpt><trkpt lat="42.801887964869024" lon="12.56875693465559"><ele>1084.0</ele><time>2026-05-01T12:34:40Z</time></trkpt><trkpt lat="42.80197383112059" lon="12.568701784556012"><ele>1084.0</ele><time>2026-05-01T12:34:43Z</time></trkpt><trkpt lat="42.802030881235495" lon="12.568655174167471"><ele>1084.0</ele><time>2026-05-01T12:34:45Z</time></trkpt><trkpt lat="42.802054977910366" lon="12.56852809920147"><ele>1082.2857142857142</ele><time>2026-05-01T12:34:48Z</time></trkpt><trkpt lat="42.80203290209256" lon="12.56843596982043"><ele>1080.5714285714287</ele><time>2026-05-01T12:34:50Z</time></trkpt><trkpt lat="42.80202525659944" lon="12.568344312772176"><ele>1078.857142857143</ele><time>2026-05-01T12:34:52Z</time></trkpt><trkpt lat="42.80205412415326" lon="12.568253271710836"><ele>1077.142857142857</ele><time>2026-05-01T12:34:54Z</time></trkpt><trkpt lat="42.802074862784394" lon="12.568170861986456"><ele>1075.4285714285713</ele><time>2026-05-01T12:34:56Z</time></trkpt><trkpt lat="42.80208138393254" lon="12.568056657511825"><ele>1073.7142857142858</ele><time>2026-05-01T12:34:59Z</time></trkpt><trkpt lat="42.80209052525371" lon="12.567967351204175"><ele>1072.0</ele><time>2026-05-01T12:35:02Z</time></trkpt><trkpt lat="42.80212477139047" lon="12.567877748726673"><ele>1070.6666666666665</ele><time>2026-05-01T12:35:06Z</time></trkpt><trkpt lat="42.802164661470236" lon="12.56777712000706"><ele>1069.3333333333333</ele><time>2026-05-01T12:35:09Z</time></trkpt><trkpt lat="42.80220196356744" lon="12.567698969900249"><ele>1068.0</ele><time>2026-05-01T12:35:10.999Z</time></trkpt><trkpt lat="42.80226648160962" lon="12.567596983551576"><ele>1066.6666666666667</ele><time>2026-05-01T12:35:13.999Z</time></trkpt><trkpt lat="42.80230559937552" lon="12.567515026993226"><ele>1065.3333333333335</ele><time>2026-05-01T12:35:15.999Z</time></trkpt><trkpt lat="42.80235424516341" lon="12.567448977041469"><ele>1064.0</ele><time>2026-05-01T12:35:17.999Z</time></trkpt><trkpt lat="42.802394860575596" lon="12.56736509054885"><ele>1064.0</ele><time>2026-05-01T12:35:19.999Z</time></trkpt><trkpt lat="42.80244732082071" lon="12.56726431788054"><ele>1064.0</ele><time>2026-05-01T12:35:21.999Z</time></trkpt><trkpt lat="42.80247961271151" lon="12.567148265757327"><ele>1064.0</ele><time>2026-05-01T12:35:23.999Z</time></trkpt><trkpt lat="42.80252841458993" lon="12.567055450790267"><ele>1064.0</ele><time>2026-05-01T12:35:25.999Z</time></trkpt><trkpt lat="42.80257497188874" lon="12.566965776294666"><ele>1064.0</ele><time>2026-05-01T12:35:27.999Z</time></trkpt><trkpt lat="42.8026575382369" lon="12.566893038993099"><ele>1064.0</ele><time>2026-05-01T12:35:29.999Z</time></trkpt><trkpt lat="42.80273823306286" lon="12.566845617533906"><ele>1062.4285714285713</ele><time>2026-05-01T12:35:31.999Z</time></trkpt><trkpt lat="42.8028094652746" lon="12.566817502719953"><ele>1060.857142857143</ele><time>2026-05-01T12:35:33.999Z</time></trkpt><trkpt lat="42.802878817917176" lon="12.566813887135122"><ele>1059.2857142857142</ele><time>2026-05-01T12:35:35.999Z</time></trkpt><trkpt lat="42.8029467231024" lon="12.566804797193123"><ele>1057.7142857142858</ele><time>2026-05-01T12:35:37.999Z</time></trkpt><trkpt lat="42.80302096081273" lon="12.566781389079692"><ele>1056.142857142857</ele><time>2026-05-01T12:35:39.999Z</time></trkpt><trkpt lat="42.80307814633613" lon="12.566733866494149"><ele>1054.5714285714284</ele><time>2026-05-01T12:35:41.999Z</time></trkpt><trkpt lat="42.80315165774498" lon="12.566693179456127"><ele>1053.0</ele><time>2026-05-01T12:35:43.999Z</time></trkpt><trkpt lat="42.80324423202824" lon="12.566631544730878"><ele>1053.0</ele><time>2026-05-01T12:35:45.999Z</time></trkpt><trkpt lat="42.8033330660539" lon="12.566577690536764"><ele>1053.0</ele><time>2026-05-01T12:35:47.999Z</time></trkpt><trkpt lat="42.80343823591214" lon="12.56657494884191"><ele>1053.0</ele><time>2026-05-01T12:35:49.999Z</time></trkpt><trkpt lat="42.80353527233613" lon="12.56657358416596"><ele>1053.0</ele><time>2026-05-01T12:35:51.999Z</time></trkpt><trkpt lat="42.80360586298315" lon="12.566580504597766"><ele>1053.0</ele><time>2026-05-01T12:35:52.999Z</time></trkpt><trkpt lat="42.80370351365166" lon="12.566558262940616"><ele>1052.4</ele><time>2026-05-01T12:35:54.999Z</time></trkpt><trkpt lat="42.8037784259924" lon="12.566535884354309"><ele>1051.8</ele><time>2026-05-01T12:35:56.999Z</time></trkpt><trkpt lat="42.803834310834894" lon="12.566473258824685"><ele>1051.2</ele><time>2026-05-01T12:35:58.999Z</time></trkpt><trkpt lat="42.80390062207323" lon="12.56651682303081"><ele>1050.6</ele><time>2026-05-01T12:35:59.999Z</time></trkpt><trkpt lat="42.80401058710116" lon="12.56657206731903"><ele>1050.0</ele><time>2026-05-01T12:36:01.999Z</time></trkpt><trkpt lat="42.804129522396124" lon="12.566615896454335"><ele>1050.0</ele><time>2026-05-01T12:36:04Z</time></trkpt><trkpt lat="42.80420307268525" lon="12.566640618941973"><ele>1050.0</ele><time>2026-05-01T12:36:05Z</time></trkpt><trkpt lat="42.804277523237" lon="12.566666101980026"><ele>1050.0</ele><time>2026-05-01T12:36:06Z</time></trkpt><trkpt lat="42.804350563883574" lon="12.56669168946735"><ele>1050.0</ele><time>2026-05-01T12:36:07Z</time></trkpt><trkpt lat="42.80442046032619" lon="12.566711414220725"><ele>1050.0</ele><time>2026-05-01T12:36:08Z</time></trkpt><trkpt lat="42.80453004235694" lon="12.566768092493325"><ele>1050.0</ele><time>2026-05-01T12:36:10Z</time></trkpt><trkpt lat="42.80459176365844" lon="12.566856351275762"><ele>1049.5714285714287</ele><time>2026-05-01T12:36:12Z</time></trkpt><trkpt lat="42.804611557727476" lon="12.566964617836048"><ele>1049.142857142857</ele><time>2026-05-01T12:36:15Z</time></trkpt><trkpt lat="42.8046001894901" lon="12.567063692101266"><ele>1048.7142857142858</ele><time>2026-05-01T12:36:18Z</time></trkpt><trkpt lat="42.80453803700894" lon="12.567094625571515"><ele>1048.2857142857142</ele><time>2026-05-01T12:36:21Z</time></trkpt><trkpt lat="42.80448199383779" lon="12.567156864801092"><ele>1047.857142857143</ele><time>2026-05-01T12:36:23Z</time></trkpt><trkpt lat="42.804430032650735" lon="12.567208218899891"><ele>1047.4285714285716</ele><time>2026-05-01T12:36:25Z</time></trkpt><trkpt lat="42.80437128257385" lon="12.567263348877459"><ele>1047.0</ele><time>2026-05-01T12:36:27Z</time></trkpt><trkpt lat="42.80431774867733" lon="12.567311047230653"><ele>1046.0</ele><time>2026-05-01T12:36:29Z</time></trkpt><trkpt lat="42.8042588593278" lon="12.56736091961949"><ele>1045.0</ele><time>2026-05-01T12:36:31Z</time></trkpt><trkpt lat="42.80419846774652" lon="12.567407134288965"><ele>1044.0</ele><time>2026-05-01T12:36:33Z</time></trkpt><trkpt lat="42.80414351687898" lon="12.567454634701498"><ele>1043.0</ele><time>2026-05-01T12:36:35Z</time></trkpt><trkpt lat="42.804085069278564" lon="12.567487932162939"><ele>1042.0</ele><time>2026-05-01T12:36:37Z</time></trkpt><trkpt lat="42.80401110144212" lon="12.567542331944214"><ele>1041.0</ele><time>2026-05-01T12:36:39Z</time></trkpt><trkpt lat="42.80392486107187" lon="12.567607507328427"><ele>1041.0</ele><time>2026-05-01T12:36:41Z</time></trkpt><trkpt lat="42.80384486193561" lon="12.56765927306269"><ele>1041.0</ele><time>2026-05-01T12:36:43Z</time></trkpt><trkpt lat="42.80376625585319" lon="12.56769602288617"><ele>1041.0</ele><time>2026-05-01T12:36:45Z</time></trkpt><trkpt lat="42.80368928679461" lon="12.56769232417517"><ele>1041.0</ele><time>2026-05-01T12:36:47Z</time></trkpt><trkpt lat="42.80360615498283" lon="12.567677656486929"><ele>1041.0</ele><time>2026-05-01T12:36:49Z</time></trkpt><trkpt lat="42.803524241353415" lon="12.567685966443682"><ele>1041.0</ele><time>2026-05-01T12:36:51Z</time></trkpt><trkpt lat="42.80344117917004" lon="12.56775153869772"><ele>1042.3333333333333</ele><time>2026-05-01T12:36:53Z</time></trkpt><trkpt lat="42.80343158391315" lon="12.56784443147932"><ele>1043.6666666666667</ele><time>2026-05-01T12:36:54Z</time></trkpt><trkpt lat="42.80349045923435" lon="12.567925075933628"><ele>1045.0</ele><time>2026-05-01T12:36:55Z</time></trkpt><trkpt lat="42.8034886887343" lon="12.568036071837067"><ele>1046.3333333333335</ele><time>2026-05-01T12:36:57Z</time></trkpt><trkpt lat="42.80353958327699" lon="12.568129202016912"><ele>1047.6666666666667</ele><time>2026-05-01T12:36:59Z</time></trkpt><trkpt lat="42.803586459916666" lon="12.568211540358355"><ele>1049.0</ele><time>2026-05-01T12:37:01Z</time></trkpt><trkpt lat="42.803622458597246" lon="12.5683166620259"><ele>1045.1666666666667</ele><time>2026-05-01T12:37:04Z</time></trkpt><trkpt lat="42.80367390524746" lon="12.568405272740902"><ele>1041.3333333333335</ele><time>2026-05-01T12:37:07Z</time></trkpt><trkpt lat="42.803693837905776" lon="12.568513463348324"><ele>1037.5</ele><time>2026-05-01T12:37:10Z</time></trkpt><trkpt lat="42.80372129058005" lon="12.56860375249751"><ele>1033.6666666666667</ele><time>2026-05-01T12:37:12Z</time></trkpt><trkpt lat="42.80376165062847" lon="12.56870243772554"><ele>1029.8333333333333</ele><time>2026-05-01T12:37:14Z</time></trkpt><trkpt lat="42.80376777027407" lon="12.568816365295255"><ele>1026.0</ele><time>2026-05-01T12:37:16Z</time></trkpt><trkpt lat="42.803774328305074" lon="12.568908225462764"><ele>1026.0</ele><time>2026-05-01T12:37:19Z</time></trkpt><trkpt lat="42.803825406832004" lon="12.568857497838177"><ele>1026.0</ele><time>2026-05-01T12:37:38Z</time></trkpt><trkpt lat="42.80375443184399" lon="12.568732220507844"><ele>1026.0</ele><time>2026-05-01T12:37:41Z</time></trkpt><trkpt lat="42.803717376200446" lon="12.568586709852521"><ele>1026.0</ele><time>2026-05-01T12:37:43Z</time></trkpt><trkpt lat="42.803687523121525" lon="12.568466139730225"><ele>1026.0</ele><time>2026-05-01T12:37:44.999Z</time></trkpt><trkpt lat="42.80365131931549" lon="12.568350635077127"><ele>1026.0</ele><time>2026-05-01T12:37:46.999Z</time></trkpt><trkpt lat="42.803600477077" lon="12.568233348801225"><ele>1026.0</ele><time>2026-05-01T12:37:48.999Z</time></trkpt><trkpt lat="42.8035345566467" lon="12.568147863732966"><ele>1026.0</ele><time>2026-05-01T12:37:50.999Z</time></trkpt><trkpt lat="42.80349674516309" lon="12.568063888461879"><ele>1026.0</ele><time>2026-05-01T12:37:51.999Z</time></trkpt><trkpt lat="42.80346865825133" lon="12.567936890887689"><ele>1026.0</ele><time>2026-05-01T12:37:53.999Z</time></trkpt><trkpt lat="42.80358544679284" lon="12.56789902786359"><ele>1026.0</ele><time>2026-05-01T12:37:55.999Z</time></trkpt><trkpt lat="42.80366794548886" lon="12.567916448384498"><ele>1026.0</ele><time>2026-05-01T12:37:56.999Z</time></trkpt><trkpt lat="42.803768744250235" lon="12.56793183800012"><ele>1026.0</ele><time>2026-05-01T12:37:57.999Z</time></trkpt><trkpt lat="42.80387747191122" lon="12.567941099082121"><ele>1026.0</ele><time>2026-05-01T12:37:58.999Z</time></trkpt><trkpt lat="42.80398094031805" lon="12.567948834576748"><ele>1026.0</ele><time>2026-05-01T12:37:59.999Z</time></trkpt><trkpt lat="42.80408570392988" lon="12.567967076061814"><ele>1026.0</ele><time>2026-05-01T12:38:00.999Z</time></trkpt><trkpt lat="42.804209172223196" lon="12.567991597033963"><ele>1026.0</ele><time>2026-05-01T12:38:01.999Z</time></trkpt><trkpt lat="42.80433920428095" lon="12.56800176049591"><ele>1026.0</ele><time>2026-05-01T12:38:02.999Z</time></trkpt><trkpt lat="42.804464673467756" lon="12.568008684225878"><ele>1026.0</ele><time>2026-05-01T12:38:03.999Z</time></trkpt><trkpt lat="42.80458284278836" lon="12.568022514682333"><ele>1025.0</ele><time>2026-05-01T12:38:04.999Z</time></trkpt><trkpt lat="42.804696653190156" lon="12.568028435536311"><ele>1023.9999999999999</ele><time>2026-05-01T12:38:05.999Z</time></trkpt><trkpt lat="42.80480768540485" lon="12.568040747504911"><ele>1022.9999999999999</ele><time>2026-05-01T12:38:06.999Z</time></trkpt><trkpt lat="42.8049175653195" lon="12.568054828841557"><ele>1022.0</ele><time>2026-05-01T12:38:07.999Z</time></trkpt><trkpt lat="42.80502488856418" lon="12.568071394901054"><ele>1021.0</ele><time>2026-05-01T12:38:09Z</time></trkpt><trkpt lat="42.80512455771513" lon="12.568078001714985"><ele>1020.8333333333333</ele><time>2026-05-01T12:38:10Z</time></trkpt><trkpt lat="42.805224025280666" lon="12.568090558321332"><ele>1020.6666666666666</ele><time>2026-05-01T12:38:11Z</time></trkpt><trkpt lat="42.805297031158084" lon="12.568096619289095"><ele>1020.5</ele><time>2026-05-01T12:38:12Z</time></trkpt><trkpt lat="42.80536556941409" lon="12.568107419712144"><ele>1020.3333333333333</ele><time>2026-05-01T12:38:13Z</time></trkpt><trkpt lat="42.805481173822656" lon="12.568117656346285"><ele>1020.1666666666666</ele><time>2026-05-01T12:38:15Z</time></trkpt><trkpt lat="42.8055438522671" lon="12.568176503133024"><ele>1020.0</ele><time>2026-05-01T12:38:17Z</time></trkpt><trkpt lat="42.80550042208786" lon="12.568257418733626"><ele>1020.0</ele><time>2026-05-01T12:38:20Z</time></trkpt><trkpt lat="42.80539283006442" lon="12.568235446366675"><ele>1020.0</ele><time>2026-05-01T12:38:22Z</time></trkpt><trkpt lat="42.8053213528948" lon="12.568228418139075"><ele>1020.0</ele><time>2026-05-01T12:38:23Z</time></trkpt><trkpt lat="42.80519342629947" lon="12.568239045202526"><ele>1020.0</ele><time>2026-05-01T12:38:25Z</time></trkpt><trkpt lat="42.805120005796056" lon="12.56824906422126"><ele>1020.0</ele><time>2026-05-01T12:38:26Z</time></trkpt><trkpt lat="42.8050502061475" lon="12.568266485896302"><ele>1020.1666666666666</ele><time>2026-05-01T12:38:27Z</time></trkpt><trkpt lat="42.80498084859044" lon="12.56828652909647"><ele>1020.3333333333333</ele><time>2026-05-01T12:38:28Z</time></trkpt><trkpt lat="42.80491242030475" lon="12.568298866746668"><ele>1020.5</ele><time>2026-05-01T12:38:29Z</time></trkpt><trkpt lat="42.80483224327615" lon="12.568304154137381"><ele>1020.6666666666666</ele><time>2026-05-01T12:38:30Z</time></trkpt><trkpt lat="42.804744698129525" lon="12.56831322221097"><ele>1020.8333333333333</ele><time>2026-05-01T12:38:31Z</time></trkpt><trkpt lat="42.804658191515266" lon="12.568328596679232"><ele>1021.0</ele><time>2026-05-01T12:38:32Z</time></trkpt><trkpt lat="42.80457661749121" lon="12.568342306475833"><ele>1021.0</ele><time>2026-05-01T12:38:33Z</time></trkpt><trkpt lat="42.80449459524306" lon="12.568355324726332"><ele>1020.9999999999999</ele><time>2026-05-01T12:38:34Z</time></trkpt><trkpt lat="42.80442178263238" lon="12.568366687026085"><ele>1020.9999999999999</ele><time>2026-05-01T12:38:35Z</time></trkpt><trkpt lat="42.804313325288646" lon="12.568411431922227"><ele>1021.0</ele><time>2026-05-01T12:38:37Z</time></trkpt><trkpt lat="42.804231519440236" lon="12.568516674917236"><ele>1021.0</ele><time>2026-05-01T12:38:39Z</time></trkpt><trkpt lat="42.80420771805319" lon="12.568675922879246"><ele>1021.8</ele><time>2026-05-01T12:38:41Z</time></trkpt><trkpt lat="42.80424324310889" lon="12.568836376883718"><ele>1022.5999999999999</ele><time>2026-05-01T12:38:43Z</time></trkpt><trkpt lat="42.804301126769616" lon="12.568972974747288"><ele>1023.4</ele><time>2026-05-01T12:38:45Z</time></trkpt><trkpt lat="42.80431881447766" lon="12.5691065541942"><ele>1024.2</ele><time>2026-05-01T12:38:47Z</time></trkpt><trkpt lat="42.80429768184436" lon="12.569239913836414"><ele>1025.0</ele><time>2026-05-01T12:38:49Z</time></trkpt><trkpt lat="42.80426659060564" lon="12.569379455505564"><ele>1025.5</ele><time>2026-05-01T12:38:51Z</time></trkpt><trkpt lat="42.80427723170377" lon="12.569526420573636"><ele>1026.0</ele><time>2026-05-01T12:38:53Z</time></trkpt><trkpt lat="42.804323278597025" lon="12.569623664712093"><ele>1026.5</ele><time>2026-05-01T12:38:54Z</time></trkpt><trkpt lat="42.80438301612299" lon="12.569701519603358"><ele>1027.0</ele><time>2026-05-01T12:38:55Z</time></trkpt><trkpt lat="42.804440222212335" lon="12.569769763896954"><ele>1027.5</ele><time>2026-05-01T12:38:56Z</time></trkpt><trkpt lat="42.804496249815486" lon="12.5698479476936"><ele>1028.0</ele><time>2026-05-01T12:38:57Z</time></trkpt><trkpt lat="42.804536149126534" lon="12.569916867782775"><ele>1022.5999999999999</ele><time>2026-05-01T12:38:58Z</time></trkpt><trkpt lat="42.804572686518874" lon="12.570003531046453"><ele>1017.1999999999999</ele><time>2026-05-01T12:38:59Z</time></trkpt><trkpt lat="42.8046127973681" lon="12.570157762582731"><ele>1011.8</ele><time>2026-05-01T12:39:01Z</time></trkpt><trkpt lat="42.804620220351254" lon="12.570327771651963"><ele>1006.4</ele><time>2026-05-01T12:39:03Z</time></trkpt><trkpt lat="42.804601845930044" lon="12.570430662438037"><ele>1001.0</ele><time>2026-05-01T12:39:04Z</time></trkpt><trkpt lat="42.80459532769833" lon="12.570547900345588"><ele>1000.6666666666667</ele><time>2026-05-01T12:39:05Z</time></trkpt><trkpt lat="42.80461250308781" lon="12.570664276631394"><ele>1000.3333333333334</ele><time>2026-05-01T12:39:06Z</time></trkpt><trkpt lat="42.8046358084563" lon="12.57076489162756"><ele>1000.0</ele><time>2026-05-01T12:39:07Z</time></trkpt><trkpt lat="42.80460933407026" lon="12.570892758825382"><ele>999.6666666666667</ele><time>2026-05-01T12:39:08Z</time></trkpt><trkpt lat="42.804625274923055" lon="12.571000985753162"><ele>999.3333333333334</ele><time>2026-05-01T12:39:09Z</time></trkpt><trkpt lat="42.804639378532194" lon="12.571093983450437"><ele>999.0</ele><time>2026-05-01T12:39:10Z</time></trkpt><trkpt lat="42.80465780153419" lon="12.571188264523338"><ele>999.0</ele><time>2026-05-01T12:39:11Z</time></trkpt><trkpt lat="42.80468492140611" lon="12.571288783272983"><ele>999.0000000000001</ele><time>2026-05-01T12:39:12Z</time></trkpt><trkpt lat="42.804702233630046" lon="12.571382837276682"><ele>999.0</ele><time>2026-05-01T12:39:13Z</time></trkpt><trkpt lat="42.80469581704942" lon="12.571476594471518"><ele>999.0</ele><time>2026-05-01T12:39:14Z</time></trkpt><trkpt lat="42.804682264617234" lon="12.571567784761756"><ele>999.0000000000001</ele><time>2026-05-01T12:39:15Z</time></trkpt><trkpt lat="42.80466299998676" lon="12.571649853501086"><ele>999.0</ele><time>2026-05-01T12:39:16Z</time></trkpt><trkpt lat="42.80462725226481" lon="12.571756597439604"><ele>999.0</ele><time>2026-05-01T12:39:17Z</time></trkpt><trkpt lat="42.8045861545337" lon="12.57183254822705"><ele>999.0</ele><time>2026-05-01T12:39:18Z</time></trkpt><trkpt lat="42.804527148552836" lon="12.571897185856356"><ele>999.0</ele><time>2026-05-01T12:39:19Z</time></trkpt><trkpt lat="42.80443647067079" lon="12.571959150314239"><ele>999.0</ele><time>2026-05-01T12:39:20Z</time></trkpt><trkpt lat="42.80436032905828" lon="12.572026632029644"><ele>999.0</ele><time>2026-05-01T12:39:21Z</time></trkpt><trkpt lat="42.80430005512221" lon="12.572081719090022"><ele>999.0</ele><time>2026-05-01T12:39:22Z</time></trkpt><trkpt lat="42.804223008170744" lon="12.572127982146625"><ele>999.0</ele><time>2026-05-01T12:39:23Z</time></trkpt><trkpt lat="42.804133791829734" lon="12.572174926852773"><ele>998.8333333333334</ele><time>2026-05-01T12:39:24Z</time></trkpt><trkpt lat="42.80404840715514" lon="12.572208936148101"><ele>998.6666666666667</ele><time>2026-05-01T12:39:25Z</time></trkpt><trkpt lat="42.803981200452185" lon="12.5722209205243"><ele>998.5</ele><time>2026-05-01T12:39:26Z</time></trkpt><trkpt lat="42.8038894100009" lon="12.572248171867756"><ele>998.3333333333334</ele><time>2026-05-01T12:39:27Z</time></trkpt><trkpt lat="42.80379596538476" lon="12.572268739082737"><ele>998.1666666666667</ele><time>2026-05-01T12:39:28Z</time></trkpt><trkpt lat="42.80369962505775" lon="12.572277876239465"><ele>998.0</ele><time>2026-05-01T12:39:29Z</time></trkpt><trkpt lat="42.80359742684509" lon="12.572281047299546"><ele>996.8</ele><time>2026-05-01T12:39:30Z</time></trkpt><trkpt lat="42.80349243836526" lon="12.572276342622729"><ele>995.5999999999999</ele><time>2026-05-01T12:39:31Z</time></trkpt><trkpt lat="42.80339262810582" lon="12.572261490459551"><ele>994.4000000000001</ele><time>2026-05-01T12:39:32Z</time></trkpt><trkpt lat="42.803268944070304" lon="12.572263385942533"><ele>993.2</ele><time>2026-05-01T12:39:33Z</time></trkpt><trkpt lat="42.803171402844576" lon="12.572231738808224"><ele>992.0</ele><time>2026-05-01T12:39:34Z</time></trkpt><trkpt lat="42.80305917743136" lon="12.572196244097574"><ele>992.0000000000001</ele><time>2026-05-01T12:39:35Z</time></trkpt><trkpt lat="42.802949899273294" lon="12.572173303017363"><ele>992.0</ele><time>2026-05-01T12:39:36Z</time></trkpt><trkpt lat="42.80285331240255" lon="12.572137180844265"><ele>992.0</ele><time>2026-05-01T12:39:37Z</time></trkpt><trkpt lat="42.80276920773875" lon="12.57210641606321"><ele>992.0</ele><time>2026-05-01T12:39:38Z</time></trkpt><trkpt lat="42.80269363014376" lon="12.572100169936956"><ele>992.0000000000001</ele><time>2026-05-01T12:39:39Z</time></trkpt><trkpt lat="42.80262563330099" lon="12.57209848469042"><ele>992.0</ele><time>2026-05-01T12:39:40Z</time></trkpt><trkpt lat="42.80251707583113" lon="12.572159229109184"><ele>993.4000000000001</ele><time>2026-05-01T12:39:42Z</time></trkpt><trkpt lat="42.8024445456675" lon="12.572287983593043"><ele>994.8000000000001</ele><time>2026-05-01T12:39:44Z</time></trkpt><trkpt lat="42.80242608187969" lon="12.572447360488948"><ele>996.2</ele><time>2026-05-01T12:39:46Z</time></trkpt><trkpt lat="42.80244324438242" lon="12.572544060632454"><ele>997.6</ele><time>2026-05-01T12:39:47Z</time></trkpt><trkpt lat="42.802476679174276" lon="12.572664536186798"><ele>999.0</ele><time>2026-05-01T12:39:48Z</time></trkpt><trkpt lat="42.80250333467997" lon="12.572778963765227"><ele>999.2</ele><time>2026-05-01T12:39:49Z</time></trkpt><trkpt lat="42.802530519674235" lon="12.57290845344969"><ele>999.4000000000001</ele><time>2026-05-01T12:39:50Z</time></trkpt><trkpt lat="42.80254830105196" lon="12.573039514747787"><ele>999.6</ele><time>2026-05-01T12:39:51Z</time></trkpt><trkpt lat="42.80256229015216" lon="12.573176931481989"><ele>999.8</ele><time>2026-05-01T12:39:52Z</time></trkpt><trkpt lat="42.80257357744628" lon="12.573302832050151"><ele>1000.0</ele><time>2026-05-01T12:39:53Z</time></trkpt><trkpt lat="42.80258111044187" lon="12.573423664191132"><ele>1000.0</ele><time>2026-05-01T12:39:54Z</time></trkpt><trkpt lat="42.8026020653444" lon="12.573538517637136"><ele>1000.0</ele><time>2026-05-01T12:39:55Z</time></trkpt><trkpt lat="42.80263507027039" lon="12.573661979231353"><ele>1000.0</ele><time>2026-05-01T12:39:56Z</time></trkpt><trkpt lat="42.80268109960681" lon="12.573771416366741"><ele>1000.0</ele><time>2026-05-01T12:39:57Z</time></trkpt><trkpt lat="42.80273998333876" lon="12.573880731221312"><ele>1000.0</ele><time>2026-05-01T12:39:58Z</time></trkpt><trkpt lat="42.80278979236632" lon="12.574006380991253"><ele>994.25</ele><time>2026-05-01T12:39:59Z</time></trkpt><trkpt lat="42.80283951856603" lon="12.574137657066595"><ele>988.5</ele><time>2026-05-01T12:40:00Z</time></trkpt><trkpt lat="42.8028877717739" lon="12.57428345410777"><ele>982.75</ele><time>2026-05-01T12:40:01Z</time></trkpt><trkpt lat="42.80294734566642" lon="12.574430096347555"><ele>977.0</ele><time>2026-05-01T12:40:02Z</time></trkpt><trkpt lat="42.80299509250057" lon="12.574569970150119"><ele>977.0000000000001</ele><time>2026-05-01T12:40:03Z</time></trkpt><trkpt lat="42.80303284690789" lon="12.574692475208481"><ele>977.0</ele><time>2026-05-01T12:40:04Z</time></trkpt><trkpt lat="42.80306662802648" lon="12.574808134268109"><ele>977.0</ele><time>2026-05-01T12:40:05Z</time></trkpt><trkpt lat="42.8030909123726" lon="12.574893219815277"><ele>977.0</ele><time>2026-05-01T12:40:06Z</time></trkpt><trkpt lat="42.80310589821167" lon="12.57506236311412"><ele>977.0000000000001</ele><time>2026-05-01T12:40:08Z</time></trkpt><trkpt lat="42.80309793651902" lon="12.575149380816292"><ele>977.0</ele><time>2026-05-01T12:40:09Z</time></trkpt><trkpt lat="42.80306262598253" lon="12.575235100708197"><ele>977.0000000000001</ele><time>2026-05-01T12:40:10Z</time></trkpt><trkpt lat="42.80301169418388" lon="12.575307930172828"><ele>977.0</ele><time>2026-05-01T12:40:11Z</time></trkpt><trkpt lat="42.802947491514296" lon="12.575362496538462"><ele>977.0</ele><time>2026-05-01T12:40:12Z</time></trkpt><trkpt lat="42.80287595090463" lon="12.575401426140385"><ele>977.0</ele><time>2026-05-01T12:40:13Z</time></trkpt><trkpt lat="42.802798870637496" lon="12.57542267059158"><ele>977.0000000000001</ele><time>2026-05-01T12:40:14Z</time></trkpt><trkpt lat="42.80270908742231" lon="12.575430057931879"><ele>977.0</ele><time>2026-05-01T12:40:15Z</time></trkpt><trkpt lat="42.8026180888134" lon="12.575427402757745"><ele>976.2</ele><time>2026-05-01T12:40:16Z</time></trkpt><trkpt lat="42.80252629649228" lon="12.57540717216362"><ele>975.4000000000001</ele><time>2026-05-01T12:40:17Z</time></trkpt><trkpt lat="42.8024208825042" lon="12.575379352230259"><ele>974.5999999999999</ele><time>2026-05-01T12:40:18Z</time></trkpt><trkpt lat="42.802317324033275" lon="12.575346835621831"><ele>973.8</ele><time>2026-05-01T12:40:19Z</time></trkpt><trkpt lat="42.802224099034454" lon="12.575308637439818"><ele>973.0</ele><time>2026-05-01T12:40:20Z</time></trkpt><trkpt lat="42.802124428632766" lon="12.575266407688849"><ele>977.0</ele><time>2026-05-01T12:40:21Z</time></trkpt><trkpt lat="42.80202725539158" lon="12.575228810390973"><ele>981.0</ele><time>2026-05-01T12:40:22Z</time></trkpt><trkpt lat="42.80192954781127" lon="12.575189037439111"><ele>985.0</ele><time>2026-05-01T12:40:23Z</time></trkpt><trkpt lat="42.80183947507106" lon="12.575156019786652"><ele>989.0</ele><time>2026-05-01T12:40:24Z</time></trkpt><trkpt lat="42.8017491244185" lon="12.575137343412997"><ele>993.0</ele><time>2026-05-01T12:40:25Z</time></trkpt><trkpt lat="42.80165992777298" lon="12.5751424664722"><ele>993.0</ele><time>2026-05-01T12:40:26Z</time></trkpt><trkpt lat="42.801572998199894" lon="12.575179274220174"><ele>993.0</ele><time>2026-05-01T12:40:27Z</time></trkpt><trkpt lat="42.80148997869047" lon="12.575249719617446"><ele>993.0</ele><time>2026-05-01T12:40:28Z</time></trkpt><trkpt lat="42.80140722629651" lon="12.57535533139279"><ele>993.0</ele><time>2026-05-01T12:40:29Z</time></trkpt><trkpt lat="42.80132251647472" lon="12.575473381119883"><ele>993.0</ele><time>2026-05-01T12:40:30Z</time></trkpt><trkpt lat="42.801242223512176" lon="12.575544504869052"><ele>991.8</ele><time>2026-05-01T12:40:31Z</time></trkpt><trkpt lat="42.80115205011893" lon="12.575600286186306"><ele>990.5999999999999</ele><time>2026-05-01T12:40:32Z</time></trkpt><trkpt lat="42.801066431657205" lon="12.575638240965636"><ele>989.4000000000001</ele><time>2026-05-01T12:40:33Z</time></trkpt><trkpt lat="42.80095972745979" lon="12.575644431206664"><ele>988.2</ele><time>2026-05-01T12:40:34Z</time></trkpt><trkpt lat="42.80084505472589" lon="12.575630498743754"><ele>987.0</ele><time>2026-05-01T12:40:35Z</time></trkpt><trkpt lat="42.80072960284571" lon="12.575601754237661"><ele>987.0</ele><time>2026-05-01T12:40:36Z</time></trkpt><trkpt lat="42.80061061063988" lon="12.575580359406235"><ele>987.0</ele><time>2026-05-01T12:40:37Z</time></trkpt><trkpt lat="42.8005071994158" lon="12.57556121255221"><ele>987.0</ele><time>2026-05-01T12:40:38Z</time></trkpt><trkpt lat="42.80042407776466" lon="12.575548722665536"><ele>987.0</ele><time>2026-05-01T12:40:39Z</time></trkpt><trkpt lat="42.80030543652584" lon="12.57556120519945"><ele>987.0</ele><time>2026-05-01T12:40:41Z</time></trkpt><trkpt lat="42.80024754608858" lon="12.57562244832813"><ele>987.0</ele><time>2026-05-01T12:40:42Z</time></trkpt><trkpt lat="42.80020762942361" lon="12.575714544619192"><ele>987.0</ele><time>2026-05-01T12:40:43Z</time></trkpt><trkpt lat="42.800197077486914" lon="12.575809729514459"><ele>987.0</ele><time>2026-05-01T12:40:44Z</time></trkpt><trkpt lat="42.80020962757034" lon="12.575909019589531"><ele>987.0</ele><time>2026-05-01T12:40:45Z</time></trkpt><trkpt lat="42.8002456900413" lon="12.576024226106117"><ele>987.0</ele><time>2026-05-01T12:40:46Z</time></trkpt><trkpt lat="42.80030175545501" lon="12.576150118349725"><ele>987.0</ele><time>2026-05-01T12:40:47Z</time></trkpt><trkpt lat="42.800361307407705" lon="12.57625854326816"><ele>985.8</ele><time>2026-05-01T12:40:48Z</time></trkpt><trkpt lat="42.80043121320065" lon="12.576371093039876"><ele>984.6</ele><time>2026-05-01T12:40:49Z</time></trkpt><trkpt lat="42.80049681615892" lon="12.576500674604656"><ele>983.3999999999999</ele><time>2026-05-01T12:40:50Z</time></trkpt><trkpt lat="42.800547910702186" lon="12.576614792319338"><ele>982.1999999999999</ele><time>2026-05-01T12:40:51Z</time></trkpt><trkpt lat="42.80060629360243" lon="12.576732167867771"><ele>981.0</ele><time>2026-05-01T12:40:52Z</time></trkpt><trkpt lat="42.800663929401054" lon="12.576837660281852"><ele>981.0</ele><time>2026-05-01T12:40:53Z</time></trkpt><trkpt lat="42.800720802234295" lon="12.576937637899743"><ele>981.0</ele><time>2026-05-01T12:40:54Z</time></trkpt><trkpt lat="42.80076642469197" lon="12.577027134409285"><ele>981.0</ele><time>2026-05-01T12:40:55Z</time></trkpt><trkpt lat="42.80080206576947" lon="12.57711758892933"><ele>981.0</ele><time>2026-05-01T12:40:56Z</time></trkpt><trkpt lat="42.80082602833127" lon="12.577204977001573"><ele>981.0</ele><time>2026-05-01T12:40:57Z</time></trkpt><trkpt lat="42.800832065185354" lon="12.577291944604163"><ele>981.0</ele><time>2026-05-01T12:40:58Z</time></trkpt><trkpt lat="42.80081945845359" lon="12.577377063388218"><ele>981.0</ele><time>2026-05-01T12:40:59Z</time></trkpt><trkpt lat="42.800781323882156" lon="12.577458322539595"><ele>980.4285714285714</ele><time>2026-05-01T12:41:00Z</time></trkpt><trkpt lat="42.80072551560744" lon="12.577528307028121"><ele>979.8571428571429</ele><time>2026-05-01T12:41:01Z</time></trkpt><trkpt lat="42.800664928691525" lon="12.57758544153966"><ele>979.2857142857143</ele><time>2026-05-01T12:41:02Z</time></trkpt><trkpt lat="42.80059840391333" lon="12.577625944507842"><ele>978.7142857142858</ele><time>2026-05-01T12:41:03Z</time></trkpt><trkpt lat="42.80052857311181" lon="12.577649271872566"><ele>978.1428571428571</ele><time>2026-05-01T12:41:04Z</time></trkpt><trkpt lat="42.80045734210939" lon="12.577656779439959"><ele>977.5714285714287</ele><time>2026-05-01T12:41:05Z</time></trkpt><trkpt lat="42.80037860349573" lon="12.577655236507841"><ele>977.0000000000001</ele><time>2026-05-01T12:41:06Z</time></trkpt><trkpt lat="42.80030841580149" lon="12.577653051702889"><ele>977.0000000000001</ele><time>2026-05-01T12:41:07Z</time></trkpt><trkpt lat="42.80023547757022" lon="12.57765331181333"><ele>977.0</ele><time>2026-05-01T12:41:08Z</time></trkpt><trkpt lat="42.80016031137188" lon="12.577652150322805"><ele>977.0000000000001</ele><time>2026-05-01T12:41:09Z</time></trkpt><trkpt lat="42.80009017425033" lon="12.577646737320283"><ele>977.0000000000001</ele><time>2026-05-01T12:41:10Z</time></trkpt><trkpt lat="42.80001219903228" lon="12.577656956966775"><ele>977.0</ele><time>2026-05-01T12:41:11Z</time></trkpt><trkpt lat="42.79993930729515" lon="12.577673706753123"><ele>977.0000000000001</ele><time>2026-05-01T12:41:12Z</time></trkpt><trkpt lat="42.799868191493886" lon="12.57770555100319"><ele>977.0000000000001</ele><time>2026-05-01T12:41:13Z</time></trkpt><trkpt lat="42.79979317168554" lon="12.577755492848445"><ele>978.0000000000001</ele><time>2026-05-01T12:41:14Z</time></trkpt><trkpt lat="42.799732840892226" lon="12.577816884554352"><ele>979.0</ele><time>2026-05-01T12:41:15Z</time></trkpt><trkpt lat="42.799674742543125" lon="12.577897050967879"><ele>980.0</ele><time>2026-05-01T12:41:16Z</time></trkpt><trkpt lat="42.79961887809993" lon="12.577991910020575"><ele>981.0</ele><time>2026-05-01T12:41:17Z</time></trkpt><trkpt lat="42.79957326007488" lon="12.578088667263822"><ele>982.0000000000001</ele><time>2026-05-01T12:41:18Z</time></trkpt><trkpt lat="42.79953197146653" lon="12.578178820236817"><ele>983.0</ele><time>2026-05-01T12:41:19Z</time></trkpt><trkpt lat="42.79948937673468" lon="12.578272437801191"><ele>979.4</ele><time>2026-05-01T12:41:20Z</time></trkpt><trkpt lat="42.79944223200381" lon="12.578366342922903"><ele>975.8</ele><time>2026-05-01T12:41:21Z</time></trkpt><trkpt lat="42.79939706710073" lon="12.57846477438528"><ele>972.2</ele><time>2026-05-01T12:41:22Z</time></trkpt><trkpt lat="42.79935549344844" lon="12.578605216444812"><ele>968.6</ele><time>2026-05-01T12:41:23Z</time></trkpt><trkpt lat="42.79931151985021" lon="12.578745263456584"><ele>965.0</ele><time>2026-05-01T12:41:25Z</time></trkpt><trkpt lat="42.79929209497564" lon="12.578840216632154"><ele>965.0000000000001</ele><time>2026-05-01T12:41:26Z</time></trkpt><trkpt lat="42.79927521118049" lon="12.57894257801719"><ele>965.0</ele><time>2026-05-01T12:41:27Z</time></trkpt><trkpt lat="42.79925086405158" lon="12.579041742565964"><ele>965.0</ele><time>2026-05-01T12:41:28Z</time></trkpt><trkpt lat="42.79922530515728" lon="12.579136793506914"><ele>965.0</ele><time>2026-05-01T12:41:29Z</time></trkpt><trkpt lat="42.799185256228675" lon="12.579228663472236"><ele>965.0000000000001</ele><time>2026-05-01T12:41:30Z</time></trkpt><trkpt lat="42.799144785693166" lon="12.57930971041014"><ele>965.0</ele><time>2026-05-01T12:41:31Z</time></trkpt><trkpt lat="42.799090955082505" lon="12.579384243981654"><ele>965.0</ele><time>2026-05-01T12:41:32Z</time></trkpt><trkpt lat="42.79903040483968" lon="12.5794522249143"><ele>965.0</ele><time>2026-05-01T12:41:33Z</time></trkpt><trkpt lat="42.79896182343016" lon="12.579518327407213"><ele>965.0</ele><time>2026-05-01T12:41:34Z</time></trkpt><trkpt lat="42.79889794853273" lon="12.579562499122325"><ele>965.0</ele><time>2026-05-01T12:41:35Z</time></trkpt><trkpt lat="42.798793195927644" lon="12.579629730876134"><ele>965.0</ele><time>2026-05-01T12:41:37Z</time></trkpt><trkpt lat="42.79866723283098" lon="12.579648410813876"><ele>961.8571428571429</ele><time>2026-05-01T12:41:39Z</time></trkpt><trkpt lat="42.79859602212655" lon="12.579655327930736"><ele>958.7142857142858</ele><time>2026-05-01T12:41:40Z</time></trkpt><trkpt lat="42.79852425597791" lon="12.579659423319864"><ele>955.5714285714287</ele><time>2026-05-01T12:41:41Z</time></trkpt><trkpt lat="42.79845357144851" lon="12.579647660303216"><ele>952.4285714285714</ele><time>2026-05-01T12:41:42Z</time></trkpt><trkpt lat="42.79838296057195" lon="12.579634234330161"><ele>949.2857142857144</ele><time>2026-05-01T12:41:43Z</time></trkpt><trkpt lat="42.79831243140121" lon="12.579616212919214"><ele>946.1428571428572</ele><time>2026-05-01T12:41:44Z</time></trkpt><trkpt lat="42.79824159330255" lon="12.579589262383005"><ele>943.0</ele><time>2026-05-01T12:41:45Z</time></trkpt><trkpt lat="42.79816773334315" lon="12.579564265499243"><ele>942.8333333333333</ele><time>2026-05-01T12:41:46Z</time></trkpt><trkpt lat="42.79809527144291" lon="12.579540074503347"><ele>942.6666666666666</ele><time>2026-05-01T12:41:47Z</time></trkpt><trkpt lat="42.79802246422289" lon="12.579507319075985"><ele>942.5</ele><time>2026-05-01T12:41:48Z</time></trkpt><trkpt lat="42.79795199420492" lon="12.579475677401492"><ele>942.3333333333333</ele><time>2026-05-01T12:41:49Z</time></trkpt><trkpt lat="42.79787826344188" lon="12.57944557910694"><ele>942.1666666666666</ele><time>2026-05-01T12:41:50Z</time></trkpt><trkpt lat="42.79780679580976" lon="12.579412564247802"><ele>942.0</ele><time>2026-05-01T12:41:51Z</time></trkpt><trkpt lat="42.79773499050477" lon="12.579383260948227"><ele>943.7142857142858</ele><time>2026-05-01T12:41:52Z</time></trkpt><trkpt lat="42.79766888696059" lon="12.579367747728366"><ele>945.4285714285714</ele><time>2026-05-01T12:41:53Z</time></trkpt><trkpt lat="42.79760009013631" lon="12.57935744011748"><ele>947.1428571428571</ele><time>2026-05-01T12:41:54Z</time></trkpt><trkpt lat="42.79752628619847" lon="12.579347813349788"><ele>948.8571428571429</ele><time>2026-05-01T12:41:55Z</time></trkpt><trkpt lat="42.797446564890215" lon="12.579347639676193"><ele>950.5714285714284</ele><time>2026-05-01T12:41:56Z</time></trkpt><trkpt lat="42.797367725536795" lon="12.579356383309673"><ele>952.2857142857142</ele><time>2026-05-01T12:41:57Z</time></trkpt><trkpt lat="42.79729103823857" lon="12.579366337768153"><ele>954.0</ele><time>2026-05-01T12:41:58Z</time></trkpt><trkpt lat="42.79721564934802" lon="12.579384975878053"><ele>954.0</ele><time>2026-05-01T12:41:59Z</time></trkpt><trkpt lat="42.79715541562877" lon="12.579418700427468"><ele>953.9999999999999</ele><time>2026-05-01T12:42:00Z</time></trkpt><trkpt lat="42.797093881899045" lon="12.5794522650887"><ele>954.0</ele><time>2026-05-01T12:42:01Z</time></trkpt><trkpt lat="42.797032826452906" lon="12.57949992764704"><ele>954.0</ele><time>2026-05-01T12:42:02Z</time></trkpt><trkpt lat="42.796971626349375" lon="12.579553416716784"><ele>953.9999999999999</ele><time>2026-05-01T12:42:03Z</time></trkpt><trkpt lat="42.79691290166498" lon="12.57960236209344"><ele>954.0</ele><time>2026-05-01T12:42:04Z</time></trkpt><trkpt lat="42.79684671280733" lon="12.579646633884447"><ele>954.0</ele><time>2026-05-01T12:42:05Z</time></trkpt><trkpt lat="42.79678310383244" lon="12.579683378928333"><ele>952.4285714285713</ele><time>2026-05-01T12:42:06Z</time></trkpt><trkpt lat="42.79671798450816" lon="12.579703201483186"><ele>950.8571428571428</ele><time>2026-05-01T12:42:07Z</time></trkpt><trkpt lat="42.79665496332773" lon="12.579702517977223"><ele>949.2857142857142</ele><time>2026-05-01T12:42:08Z</time></trkpt><trkpt lat="42.79659254111343" lon="12.579675398051865"><ele>947.7142857142858</ele><time>2026-05-01T12:42:09Z</time></trkpt><trkpt lat="42.796535540183115" lon="12.579627020706921"><ele>946.1428571428572</ele><time>2026-05-01T12:42:10Z</time></trkpt><trkpt lat="42.79647946248854" lon="12.579562551463816"><ele>944.5714285714287</ele><time>2026-05-01T12:42:11Z</time></trkpt><trkpt lat="42.796428376417886" lon="12.579487959820542"><ele>943.0</ele><time>2026-05-01T12:42:12Z</time></trkpt><trkpt lat="42.79637652665437" lon="12.579404136133881"><ele>942.9999999999999</ele><time>2026-05-01T12:42:13Z</time></trkpt><trkpt lat="42.796331531642984" lon="12.57931297305958"><ele>943.0</ele><time>2026-05-01T12:42:14Z</time></trkpt><trkpt lat="42.79629173742498" lon="12.57922043698404"><ele>943.0</ele><time>2026-05-01T12:42:15Z</time></trkpt><trkpt lat="42.79624787798083" lon="12.579129118587556"><ele>943.0</ele><time>2026-05-01T12:42:16Z</time></trkpt><trkpt lat="42.79619797555624" lon="12.579030701496373"><ele>942.9999999999999</ele><time>2026-05-01T12:42:17Z</time></trkpt><trkpt lat="42.796150864532706" lon="12.578957421669566"><ele>943.0</ele><time>2026-05-01T12:42:18Z</time></trkpt><trkpt lat="42.796100608460655" lon="12.578878564916165"><ele>943.0</ele><time>2026-05-01T12:42:19Z</time></trkpt><trkpt lat="42.79604490489344" lon="12.578778591626854"><ele>943.0</ele><time>2026-05-01T12:42:20Z</time></trkpt><trkpt lat="42.79599879342187" lon="12.578694110904273"><ele>943.0</ele><time>2026-05-01T12:42:21Z</time></trkpt><trkpt lat="42.79595319473523" lon="12.578589401150408"><ele>943.0</ele><time>2026-05-01T12:42:22Z</time></trkpt><trkpt lat="42.79590401196237" lon="12.578461537421813"><ele>943.0</ele><time>2026-05-01T12:42:23Z</time></trkpt><trkpt lat="42.79585981190529" lon="12.578305476856059"><ele>940.9999999999999</ele><time>2026-05-01T12:42:25Z</time></trkpt><trkpt lat="42.79585079424351" lon="12.578202831128912"><ele>939.0</ele><time>2026-05-01T12:42:26Z</time></trkpt><trkpt lat="42.79584704493944" lon="12.578098956149008"><ele>937.0</ele><time>2026-05-01T12:42:27Z</time></trkpt><trkpt lat="42.79584647629082" lon="12.577988716787404"><ele>935.0</ele><time>2026-05-01T12:42:28Z</time></trkpt><trkpt lat="42.79584160851185" lon="12.577877694572102"><ele>932.9999999999999</ele><time>2026-05-01T12:42:29Z</time></trkpt><trkpt lat="42.79583439088599" lon="12.577766738235312"><ele>931.0</ele><time>2026-05-01T12:42:30Z</time></trkpt><trkpt lat="42.795832066183415" lon="12.577653570654341"><ele>931.0</ele><time>2026-05-01T12:42:31Z</time></trkpt><trkpt lat="42.79583155534664" lon="12.577547253112263"><ele>930.9999999999999</ele><time>2026-05-01T12:42:32Z</time></trkpt><trkpt lat="42.79583409422517" lon="12.577447946162604"><ele>930.9999999999999</ele><time>2026-05-01T12:42:33Z</time></trkpt><trkpt lat="42.7958052553125" lon="12.577320139091425"><ele>931.0</ele><time>2026-05-01T12:42:35Z</time></trkpt><trkpt lat="42.795722424719045" lon="12.57723869440104"><ele>931.0</ele><time>2026-05-01T12:42:37Z</time></trkpt><trkpt lat="42.79560486067285" lon="12.577224120694368"><ele>931.0</ele><time>2026-05-01T12:42:39Z</time></trkpt><trkpt lat="42.795538793529005" lon="12.577264025255108"><ele>931.0</ele><time>2026-05-01T12:42:40Z</time></trkpt><trkpt lat="42.79548125962156" lon="12.57732958712677"><ele>931.0</ele><time>2026-05-01T12:42:41Z</time></trkpt><trkpt lat="42.79544619241031" lon="12.5774149953388"><ele>931.0</ele><time>2026-05-01T12:42:42Z</time></trkpt><trkpt lat="42.7954033104184" lon="12.577502820663122"><ele>931.0</ele><time>2026-05-01T12:42:43Z</time></trkpt><trkpt lat="42.795361290527325" lon="12.577588825007428"><ele>931.0</ele><time>2026-05-01T12:42:44Z</time></trkpt><trkpt lat="42.79532146293095" lon="12.577664104939068"><ele>931.0</ele><time>2026-05-01T12:42:45Z</time></trkpt><trkpt lat="42.795275751911944" lon="12.577732448446143"><ele>930.9999999999999</ele><time>2026-05-01T12:42:46Z</time></trkpt><trkpt lat="42.795241425400036" lon="12.577808430290684"><ele>931.0</ele><time>2026-05-01T12:42:47Z</time></trkpt><trkpt lat="42.795179709071185" lon="12.577908712196727"><ele>931.0</ele><time>2026-05-01T12:42:49Z</time></trkpt><trkpt lat="42.795137591258545" lon="12.578003937533122"><ele>931.0</ele><time>2026-05-01T12:42:52Z</time></trkpt><trkpt lat="42.79507508219707" lon="12.578070087395426"><ele>930.9999999999999</ele><time>2026-05-01T12:42:54Z</time></trkpt><trkpt lat="42.79499157828073" lon="12.578105336571994"><ele>931.0</ele><time>2026-05-01T12:42:56Z</time></trkpt><trkpt lat="42.794911429446536" lon="12.578078748981405"><ele>928.5999999999999</ele><time>2026-05-01T12:42:58Z</time></trkpt><trkpt lat="42.79483968213853" lon="12.57801568316646"><ele>926.1999999999999</ele><time>2026-05-01T12:43:00Z</time></trkpt><trkpt lat="42.794762375280975" lon="12.577942396421257"><ele>923.8000000000001</ele><time>2026-05-01T12:43:02Z</time></trkpt><trkpt lat="42.79469183408776" lon="12.5778351612123"><ele>921.4000000000001</ele><time>2026-05-01T12:43:04Z</time></trkpt><trkpt lat="42.79461586832227" lon="12.577726123654077"><ele>919.0</ele><time>2026-05-01T12:43:06Z</time></trkpt><trkpt lat="42.79454139239721" lon="12.577608621177877"><ele>918.8000000000001</ele><time>2026-05-01T12:43:08Z</time></trkpt><trkpt lat="42.79446837674882" lon="12.577481333762629"><ele>918.6000000000001</ele><time>2026-05-01T12:43:10Z</time></trkpt><trkpt lat="42.79439306806333" lon="12.577354530429442"><ele>918.4</ele><time>2026-05-01T12:43:12Z</time></trkpt><trkpt lat="42.79432254448355" lon="12.577230251335086"><ele>918.2</ele><time>2026-05-01T12:43:14Z</time></trkpt><trkpt lat="42.79426565863706" lon="12.577139641973043"><ele>918.0</ele><time>2026-05-01T12:43:16Z</time></trkpt><trkpt lat="42.79420501770049" lon="12.577040751921222"><ele>915.4</ele><time>2026-05-01T12:43:18Z</time></trkpt><trkpt lat="42.794147487305125" lon="12.576931194049086"><ele>912.8</ele><time>2026-05-01T12:43:20Z</time></trkpt><trkpt lat="42.794089630656295" lon="12.57681196354149"><ele>910.2</ele><time>2026-05-01T12:43:22Z</time></trkpt><trkpt lat="42.79403738245369" lon="12.576694291421889"><ele>907.6</ele><time>2026-05-01T12:43:24Z</time></trkpt><trkpt lat="42.79396751778156" lon="12.576578435351337"><ele>905.0</ele><time>2026-05-01T12:43:26Z</time></trkpt><trkpt lat="42.79389143377626" lon="12.576482948977805"><ele>905.0</ele><time>2026-05-01T12:43:28Z</time></trkpt><trkpt lat="42.7938037800446" lon="12.576404532761375"><ele>905.0</ele><time>2026-05-01T12:43:30Z</time></trkpt><trkpt lat="42.79372289321393" lon="12.576339168326014"><ele>905.0</ele><time>2026-05-01T12:43:32Z</time></trkpt><trkpt lat="42.793661367965505" lon="12.576280693445176"><ele>905.0</ele><time>2026-05-01T12:43:34Z</time></trkpt><trkpt lat="42.79360286010075" lon="12.576100117440852"><ele>905.0</ele><time>2026-05-01T12:43:37Z</time></trkpt><trkpt lat="42.79354813899399" lon="12.575983347056527"><ele>903.4</ele><time>2026-05-01T12:43:39Z</time></trkpt><trkpt lat="42.793456118288944" lon="12.575909230848879"><ele>901.8</ele><time>2026-05-01T12:43:41Z</time></trkpt><trkpt lat="42.793355897206204" lon="12.575862771534847"><ele>900.2</ele><time>2026-05-01T12:43:43Z</time></trkpt><trkpt lat="42.793257740595365" lon="12.57585095540591"><ele>898.6</ele><time>2026-05-01T12:43:45Z</time></trkpt><trkpt lat="42.79316861827745" lon="12.575849315839898"><ele>897.0</ele><time>2026-05-01T12:43:47Z</time></trkpt><trkpt lat="42.79308188729931" lon="12.575835971251681"><ele>897.0</ele><time>2026-05-01T12:43:48Z</time></trkpt><trkpt lat="42.793006180663944" lon="12.575803317192298"><ele>897.0</ele><time>2026-05-01T12:43:49Z</time></trkpt><trkpt lat="42.7929410200216" lon="12.575755863253285"><ele>897.0</ele><time>2026-05-01T12:43:50Z</time></trkpt><trkpt lat="42.792874233084866" lon="12.57570638319078"><ele>897.0</ele><time>2026-05-01T12:43:51Z</time></trkpt><trkpt lat="42.7928106308621" lon="12.575667233784777"><ele>897.0</ele><time>2026-05-01T12:43:52Z</time></trkpt><trkpt lat="42.79274712152285" lon="12.57563455045645"><ele>897.0</ele><time>2026-05-01T12:43:53Z</time></trkpt><trkpt lat="42.79268720463071" lon="12.575602389532472"><ele>897.0</ele><time>2026-05-01T12:43:54Z</time></trkpt><trkpt lat="42.79262516433072" lon="12.575568850498849"><ele>898.3333333333334</ele><time>2026-05-01T12:43:55Z</time></trkpt><trkpt lat="42.79251992900108" lon="12.575519741482777"><ele>899.6666666666667</ele><time>2026-05-01T12:43:57Z</time></trkpt><trkpt lat="42.79244597717932" lon="12.575481793808445"><ele>901.0</ele><time>2026-05-01T12:43:59Z</time></trkpt><trkpt lat="42.79239867121911" lon="12.57541806146727"><ele>902.3333333333334</ele><time>2026-05-01T12:44:02Z</time></trkpt><trkpt lat="42.792394801815945" lon="12.575304480314658"><ele>903.6666666666667</ele><time>2026-05-01T12:44:34Z</time></trkpt><trkpt lat="42.792472784047185" lon="12.575231945772275"><ele>905.0</ele><time>2026-05-01T12:44:37Z</time></trkpt><trkpt lat="42.792586773911" lon="12.575191713226214"><ele>902.1666666666667</ele><time>2026-05-01T12:44:39Z</time></trkpt><trkpt lat="42.79268026316515" lon="12.575146856325047"><ele>899.3333333333334</ele><time>2026-05-01T12:44:41Z</time></trkpt><trkpt lat="42.792788258010766" lon="12.575109733340193"><ele>896.5</ele><time>2026-05-01T12:44:43Z</time></trkpt><trkpt lat="42.792867670716696" lon="12.575088690049137"><ele>893.6666666666667</ele><time>2026-05-01T12:44:45Z</time></trkpt><trkpt lat="42.792943598957955" lon="12.575069853332256"><ele>890.8333333333334</ele><time>2026-05-01T12:44:47Z</time></trkpt><trkpt lat="42.79301669656021" lon="12.575057347107723"><ele>888.0</ele><time>2026-05-01T12:44:49Z</time></trkpt><trkpt lat="42.79310741896501" lon="12.575035392859181"><ele>888.0</ele><time>2026-05-01T12:44:52Z</time></trkpt><trkpt lat="42.79316676611033" lon="12.575003030544238"><ele>888.0</ele><time>2026-05-01T12:44:54Z</time></trkpt><trkpt lat="42.793247489004855" lon="12.574974511186"><ele>888.0</ele><time>2026-05-01T12:44:56Z</time></trkpt><trkpt lat="42.79331099481119" lon="12.57494763403845"><ele>888.0</ele><time>2026-05-01T12:44:58Z</time></trkpt><trkpt lat="42.79337926308233" lon="12.574920108655132"><ele>888.0</ele><time>2026-05-01T12:45:00Z</time></trkpt><trkpt lat="42.79344610900307" lon="12.574887846188219"><ele>888.0</ele><time>2026-05-01T12:45:02Z</time></trkpt><trkpt lat="42.79353305998913" lon="12.574861544761227"><ele>888.0</ele><time>2026-05-01T12:45:04Z</time></trkpt><trkpt lat="42.79359757053865" lon="12.574825141902666"><ele>886.1428571428571</ele><time>2026-05-01T12:45:06Z</time></trkpt><trkpt lat="42.793659559107255" lon="12.574796506586647"><ele>884.2857142857143</ele><time>2026-05-01T12:45:08Z</time></trkpt><trkpt lat="42.793730839803445" lon="12.574761807434538"><ele>882.4285714285714</ele><time>2026-05-01T12:45:10Z</time></trkpt><trkpt lat="42.79378981961848" lon="12.574700993788188"><ele>880.5714285714286</ele><time>2026-05-01T12:45:12Z</time></trkpt><trkpt lat="42.793832550540664" lon="12.574636267550906"><ele>878.7142857142858</ele><time>2026-05-01T12:45:14Z</time></trkpt><trkpt lat="42.793851116818956" lon="12.57454796537296"><ele>876.8571428571429</ele><time>2026-05-01T12:45:16Z</time></trkpt><trkpt lat="42.79386413516756" lon="12.574430072910355"><ele>875.0</ele><time>2026-05-01T12:45:19Z</time></trkpt><trkpt lat="42.79388380679532" lon="12.574341250136111"><ele>875.0000000000001</ele><time>2026-05-01T12:45:22Z</time></trkpt><trkpt lat="42.79387420374719" lon="12.574254430457707"><ele>875.0</ele><time>2026-05-01T12:45:26Z</time></trkpt><trkpt lat="42.7939102960003" lon="12.574179941213139"><ele>875.0</ele><time>2026-05-01T12:45:31Z</time></trkpt><trkpt lat="42.79391150114424" lon="12.574294594436275"><ele>875.0</ele><time>2026-05-01T12:45:36Z</time></trkpt><trkpt lat="42.793875867675816" lon="12.574403254605977"><ele>875.0000000000001</ele><time>2026-05-01T12:45:39Z</time></trkpt><trkpt lat="42.79387787213772" lon="12.574521269512799"><ele>875.0</ele><time>2026-05-01T12:45:41Z</time></trkpt><trkpt lat="42.79384125116902" lon="12.574652949803491"><ele>875.0</ele><time>2026-05-01T12:45:43Z</time></trkpt><trkpt lat="42.793775907357336" lon="12.574769832533233"><ele>875.0</ele><time>2026-05-01T12:45:45Z</time></trkpt><trkpt lat="42.79371941236799" lon="12.57481214782436"><ele>875.0</ele><time>2026-05-01T12:45:46Z</time></trkpt><trkpt lat="42.79358473086011" lon="12.574855299628872"><ele>875.0</ele><time>2026-05-01T12:45:48Z</time></trkpt><trkpt lat="42.79350751503598" lon="12.574892348182612"><ele>875.0</ele><time>2026-05-01T12:45:49Z</time></trkpt><trkpt lat="42.79341845980679" lon="12.574920949443376"><ele>877.1666666666667</ele><time>2026-05-01T12:45:50Z</time></trkpt><trkpt lat="42.79333236014893" lon="12.574951803181419"><ele>879.3333333333334</ele><time>2026-05-01T12:45:51Z</time></trkpt><trkpt lat="42.7932391791134" lon="12.574982659092617"><ele>881.5</ele><time>2026-05-01T12:45:52Z</time></trkpt><trkpt lat="42.793152706061086" lon="12.57500477613007"><ele>883.6666666666667</ele><time>2026-05-01T12:45:53Z</time></trkpt><trkpt lat="42.79307329116566" lon="12.575026997079231"><ele>885.8333333333334</ele><time>2026-05-01T12:45:54Z</time></trkpt><trkpt lat="42.79298977582303" lon="12.575047797383746"><ele>888.0</ele><time>2026-05-01T12:45:55Z</time></trkpt><trkpt lat="42.79291661434445" lon="12.575066186684559"><ele>888.0</ele><time>2026-05-01T12:45:56Z</time></trkpt><trkpt lat="42.792838489458084" lon="12.575082019868518"><ele>888.0</ele><time>2026-05-01T12:45:57Z</time></trkpt><trkpt lat="42.79275969832242" lon="12.575107624546488"><ele>888.0</ele><time>2026-05-01T12:45:58Z</time></trkpt><trkpt lat="42.792685719115546" lon="12.575132733066141"><ele>888.0</ele><time>2026-05-01T12:45:59Z</time></trkpt><trkpt lat="42.79260677029467" lon="12.57516851434621"><ele>888.0</ele><time>2026-05-01T12:46:00Z</time></trkpt><trkpt lat="42.792539229822424" lon="12.575202980298771"><ele>888.0</ele><time>2026-05-01T12:46:01Z</time></trkpt><trkpt lat="42.79244049144762" lon="12.575270374814181"><ele>889.5</ele><time>2026-05-01T12:46:03Z</time></trkpt><trkpt lat="42.792418015741184" lon="12.575352281796494"><ele>891.0</ele><time>2026-05-01T12:46:05Z</time></trkpt><trkpt lat="42.79243748882027" lon="12.57543955115604"><ele>892.5</ele><time>2026-05-01T12:46:07Z</time></trkpt><trkpt lat="42.7924969007638" lon="12.575499646569638"><ele>894.0</ele><time>2026-05-01T12:46:09Z</time></trkpt><trkpt lat="42.79259860643539" lon="12.575544197282985"><ele>895.5</ele><time>2026-05-01T12:46:11Z</time></trkpt><trkpt lat="42.792707410656" lon="12.575592158464818"><ele>897.0</ele><time>2026-05-01T12:46:13Z</time></trkpt><trkpt lat="42.79277008471582" lon="12.575629769876375"><ele>897.0</ele><time>2026-05-01T12:46:14Z</time></trkpt><trkpt lat="42.79284564737141" lon="12.575677024588739"><ele>897.0</ele><time>2026-05-01T12:46:15Z</time></trkpt><trkpt lat="42.79292846884742" lon="12.575720669593382"><ele>897.0</ele><time>2026-05-01T12:46:16Z</time></trkpt><trkpt lat="42.79300230402168" lon="12.575765636215797"><ele>897.0</ele><time>2026-05-01T12:46:17Z</time></trkpt><trkpt lat="42.79307130316716" lon="12.575803148826708"><ele>897.0</ele><time>2026-05-01T12:46:18Z</time></trkpt><trkpt lat="42.793135017644154" lon="12.575830362934669"><ele>897.0</ele><time>2026-05-01T12:46:19Z</time></trkpt><trkpt lat="42.79320481112851" lon="12.575837654873668"><ele>897.0</ele><time>2026-05-01T12:46:20Z</time></trkpt><trkpt lat="42.793331255470626" lon="12.575835721852865"><ele>897.0</ele><time>2026-05-01T12:46:22Z</time></trkpt><trkpt lat="42.79345176371292" lon="12.575874960519547"><ele>897.0</ele><time>2026-05-01T12:46:23.999Z</time></trkpt><trkpt lat="42.793507416540294" lon="12.575923210144735"><ele>897.0</ele><time>2026-05-01T12:46:24.999Z</time></trkpt><trkpt lat="42.79359499604514" lon="12.576055911071988"><ele>897.0</ele><time>2026-05-01T12:46:26.999Z</time></trkpt><trkpt lat="42.793627669199395" lon="12.576147572280243"><ele>898.3333333333334</ele><time>2026-05-01T12:46:27.999Z</time></trkpt><trkpt lat="42.79366825789003" lon="12.576241122054157"><ele>899.6666666666667</ele><time>2026-05-01T12:46:28.999Z</time></trkpt><trkpt lat="42.79370955135354" lon="12.576311677274559"><ele>901.0</ele><time>2026-05-01T12:46:29.999Z</time></trkpt><trkpt lat="42.793815582401336" lon="12.576379089066505"><ele>902.3333333333334</ele><time>2026-05-01T12:46:31.999Z</time></trkpt><trkpt lat="42.79387699167472" lon="12.576434309570715"><ele>903.6666666666667</ele><time>2026-05-01T12:46:33Z</time></trkpt><trkpt lat="42.79394593266675" lon="12.576507940379908"><ele>905.0</ele><time>2026-05-01T12:46:34Z</time></trkpt><trkpt lat="42.79400959765141" lon="12.576587053273744"><ele>905.0</ele><time>2026-05-01T12:46:35Z</time></trkpt><trkpt lat="42.79405133686497" lon="12.576655179439879"><ele>905.0</ele><time>2026-05-01T12:46:36Z</time></trkpt><trkpt lat="42.794112391218704" lon="12.576814140198778"><ele>905.0</ele><time>2026-05-01T12:46:38Z</time></trkpt><trkpt lat="42.794168087871725" lon="12.576929998527243"><ele>905.0</ele><time>2026-05-01T12:46:39Z</time></trkpt><trkpt lat="42.794220232696595" lon="12.577032071756495"><ele>905.0</ele><time>2026-05-01T12:46:40Z</time></trkpt><trkpt lat="42.79426977959016" lon="12.577122438147562"><ele>907.1666666666667</ele><time>2026-05-01T12:46:41Z</time></trkpt><trkpt lat="42.79432467857937" lon="12.577199714602164"><ele>909.3333333333334</ele><time>2026-05-01T12:46:42Z</time></trkpt><trkpt lat="42.79437967433929" lon="12.577287562512927"><ele>911.5</ele><time>2026-05-01T12:46:43Z</time></trkpt><trkpt lat="42.79443233925248" lon="12.57737864772654"><ele>913.6666666666667</ele><time>2026-05-01T12:46:44Z</time></trkpt><trkpt lat="42.794488728923724" lon="12.577483964941274"><ele>915.8333333333334</ele><time>2026-05-01T12:46:45Z</time></trkpt><trkpt lat="42.794545867352646" lon="12.57758558609861"><ele>918.0</ele><time>2026-05-01T12:46:46Z</time></trkpt><trkpt lat="42.794608098096916" lon="12.57768460295969"><ele>918.0</ele><time>2026-05-01T12:46:47Z</time></trkpt><trkpt lat="42.794656293827444" lon="12.577762710276273"><ele>918.0</ele><time>2026-05-01T12:46:48Z</time></trkpt><trkpt lat="42.79472105354635" lon="12.577849791485377"><ele>918.0</ele><time>2026-05-01T12:46:49Z</time></trkpt><trkpt lat="42.794788501285886" lon="12.577932865886572"><ele>918.0</ele><time>2026-05-01T12:46:50Z</time></trkpt><trkpt lat="42.79485078238538" lon="12.57800225647217"><ele>918.0</ele><time>2026-05-01T12:46:51Z</time></trkpt><trkpt lat="42.79490766285775" lon="12.578047530332325"><ele>918.0</ele><time>2026-05-01T12:46:52Z</time></trkpt><trkpt lat="42.79499529021839" lon="12.578088330310031"><ele>918.1666666666666</ele><time>2026-05-01T12:46:54Z</time></trkpt><trkpt lat="42.795041458646686" lon="12.57816395843377"><ele>918.3333333333333</ele><time>2026-05-01T12:46:58Z</time></trkpt><trkpt lat="42.79498242976818" lon="12.57820057606054"><ele>918.5</ele><time>2026-05-01T12:47:01Z</time></trkpt><trkpt lat="42.794892293812275" lon="12.578171079630703"><ele>918.6666666666666</ele><time>2026-05-01T12:47:03Z</time></trkpt><trkpt lat="42.794793434212856" lon="12.578147974726404"><ele>918.8333333333333</ele><time>2026-05-01T12:47:05Z</time></trkpt><trkpt lat="42.79472513177843" lon="12.578142176840936"><ele>919.0</ele><time>2026-05-01T12:47:07Z</time></trkpt><trkpt lat="42.794642868679276" lon="12.57820302593973"><ele>919.0</ele><time>2026-05-01T12:47:10Z</time></trkpt><trkpt lat="42.79464457451165" lon="12.578311238238047"><ele>919.0000000000001</ele><time>2026-05-01T12:47:12Z</time></trkpt><trkpt lat="42.794688116895" lon="12.578428530701546"><ele>919.0000000000001</ele><time>2026-05-01T12:47:14Z</time></trkpt><trkpt lat="42.794718607450186" lon="12.578577031783805"><ele>919.0</ele><time>2026-05-01T12:47:16Z</time></trkpt><trkpt lat="42.79473119503408" lon="12.578743386658964"><ele>919.0</ele><time>2026-05-01T12:47:18Z</time></trkpt><trkpt lat="42.79472793198127" lon="12.578850705906886"><ele>919.4999999999999</ele><time>2026-05-01T12:47:19Z</time></trkpt><trkpt lat="42.794728169975336" lon="12.578953277284633"><ele>920.0</ele><time>2026-05-01T12:47:20Z</time></trkpt><trkpt lat="42.79471253357571" lon="12.579062912096457"><ele>920.5</ele><time>2026-05-01T12:47:21Z</time></trkpt><trkpt lat="42.79470536040824" lon="12.57917644046478"><ele>921.0</ele><time>2026-05-01T12:47:22Z</time></trkpt><trkpt lat="42.7946974536254" lon="12.579287890513262"><ele>921.4999999999999</ele><time>2026-05-01T12:47:23Z</time></trkpt><trkpt lat="42.794702147021894" lon="12.579429112962444"><ele>922.0</ele><time>2026-05-01T12:47:24Z</time></trkpt><trkpt lat="42.794627265967975" lon="12.579561538014296"><ele>922.0</ele><time>2026-05-01T12:47:26Z</time></trkpt><trkpt lat="42.794582300466026" lon="12.57967662837402"><ele>922.0</ele><time>2026-05-01T12:47:28Z</time></trkpt><trkpt lat="42.79452710978724" lon="12.579812081668354"><ele>922.0</ele><time>2026-05-01T12:47:30Z</time></trkpt><trkpt lat="42.79444401911873" lon="12.579914640705452"><ele>922.0</ele><time>2026-05-01T12:47:32Z</time></trkpt><trkpt lat="42.79435005286561" lon="12.580006956700311"><ele>922.0</ele><time>2026-05-01T12:47:34Z</time></trkpt><trkpt lat="42.794245398609654" lon="12.580070801702867"><ele>926.4000000000001</ele><time>2026-05-01T12:47:36Z</time></trkpt><trkpt lat="42.794129183378004" lon="12.580085196973966"><ele>930.8000000000001</ele><time>2026-05-01T12:47:38Z</time></trkpt><trkpt lat="42.79400353925046" lon="12.580106288238584"><ele>935.2</ele><time>2026-05-01T12:47:40Z</time></trkpt><trkpt lat="42.79392657543024" lon="12.580120191093927"><ele>939.6</ele><time>2026-05-01T12:47:41Z</time></trkpt><trkpt lat="42.79385384634059" lon="12.580123129529907"><ele>944.0</ele><time>2026-05-01T12:47:42Z</time></trkpt><trkpt lat="42.793785039555196" lon="12.580124648589363"><ele>944.0000000000001</ele><time>2026-05-01T12:47:43Z</time></trkpt><trkpt lat="42.79370806157786" lon="12.580118179768286"><ele>944.0</ele><time>2026-05-01T12:47:44Z</time></trkpt><trkpt lat="42.79363432277757" lon="12.580103123900194"><ele>944.0</ele><time>2026-05-01T12:47:45Z</time></trkpt><trkpt lat="42.79356044644882" lon="12.580093477554865"><ele>944.0</ele><time>2026-05-01T12:47:46Z</time></trkpt><trkpt lat="42.79345107805517" lon="12.580062706852306"><ele>944.0000000000001</ele><time>2026-05-01T12:47:48Z</time></trkpt><trkpt lat="42.79335620955603" lon="12.580024491521138"><ele>944.0</ele><time>2026-05-01T12:47:50Z</time></trkpt><trkpt lat="42.79329309988592" lon="12.580004435505847"><ele>946.3333333333334</ele><time>2026-05-01T12:47:51Z</time></trkpt><trkpt lat="42.79321727559654" lon="12.579981719923635"><ele>948.6666666666667</ele><time>2026-05-01T12:47:52Z</time></trkpt><trkpt lat="42.79314158976027" lon="12.579957123391388"><ele>951.0</ele><time>2026-05-01T12:47:53Z</time></trkpt><trkpt lat="42.79306596003471" lon="12.579928003665838"><ele>953.3333333333333</ele><time>2026-05-01T12:47:54Z</time></trkpt><trkpt lat="42.79298113087967" lon="12.57990282951346"><ele>955.6666666666666</ele><time>2026-05-01T12:47:55Z</time></trkpt><trkpt lat="42.79289071630531" lon="12.579884348809435"><ele>958.0</ele><time>2026-05-01T12:47:56Z</time></trkpt><trkpt lat="42.79279125302096" lon="12.57987336449102"><ele>958.0</ele><time>2026-05-01T12:47:57Z</time></trkpt><trkpt lat="42.79269096423" lon="12.579875969382893"><ele>958.0</ele><time>2026-05-01T12:47:58Z</time></trkpt><trkpt lat="42.79259366593659" lon="12.579882406075523"><ele>958.0</ele><time>2026-05-01T12:47:59Z</time></trkpt><trkpt lat="42.792479365313156" lon="12.579893473099997"><ele>958.0</ele><time>2026-05-01T12:48:00Z</time></trkpt><trkpt lat="42.792360632282794" lon="12.579915017754674"><ele>958.0</ele><time>2026-05-01T12:48:00.999Z</time></trkpt><trkpt lat="42.792243676488404" lon="12.57993365728184"><ele>959.5999999999999</ele><time>2026-05-01T12:48:01.999Z</time></trkpt><trkpt lat="42.79214475556264" lon="12.579939064749812"><ele>961.1999999999999</ele><time>2026-05-01T12:48:02.999Z</time></trkpt><trkpt lat="42.79203353315181" lon="12.579959378366475"><ele>962.8</ele><time>2026-05-01T12:48:03.999Z</time></trkpt><trkpt lat="42.79193434084189" lon="12.579969730217414"><ele>964.4</ele><time>2026-05-01T12:48:04.999Z</time></trkpt><trkpt lat="42.79183581983125" lon="12.579977244364285"><ele>966.0</ele><time>2026-05-01T12:48:05.999Z</time></trkpt><trkpt lat="42.79172920715791" lon="12.579982107990855"><ele>968.8</ele><time>2026-05-01T12:48:06.999Z</time></trkpt><trkpt lat="42.791624585322786" lon="12.580004968883728"><ele>971.5999999999999</ele><time>2026-05-01T12:48:07.999Z</time></trkpt><trkpt lat="42.79150768279099" lon="12.580022941030567"><ele>974.4</ele><time>2026-05-01T12:48:08.999Z</time></trkpt><trkpt lat="42.791402331873435" lon="12.580042826016353"><ele>977.2</ele><time>2026-05-01T12:48:09.999Z</time></trkpt><trkpt lat="42.79129836428658" lon="12.580053417530047"><ele>980.0</ele><time>2026-05-01T12:48:10.999Z</time></trkpt><trkpt lat="42.791190397678385" lon="12.580074388289585"><ele>980.0000000000001</ele><time>2026-05-01T12:48:11.999Z</time></trkpt><trkpt lat="42.791089056568026" lon="12.580093692306615"><ele>980.0</ele><time>2026-05-01T12:48:12.999Z</time></trkpt><trkpt lat="42.79101692399777" lon="12.580106374865236"><ele>980.0</ele><time>2026-05-01T12:48:13.999Z</time></trkpt><trkpt lat="42.790924286364195" lon="12.580148238624496"><ele>980.0</ele><time>2026-05-01T12:48:15.999Z</time></trkpt><trkpt lat="42.7908682896528" lon="12.580193510661564"><ele>980.0000000000001</ele><time>2026-05-01T12:48:17.999Z</time></trkpt><trkpt lat="42.79081468216008" lon="12.580238587413158"><ele>980.0</ele><time>2026-05-01T12:48:19.999Z</time></trkpt><trkpt lat="42.79071597490953" lon="12.580308650530856"><ele>981.3333333333334</ele><time>2026-05-01T12:48:21.999Z</time></trkpt><trkpt lat="42.790655032261476" lon="12.580355290854888"><ele>982.6666666666667</ele><time>2026-05-01T12:48:22.999Z</time></trkpt><trkpt lat="42.790547531256834" lon="12.580435924833852"><ele>984.0</ele><time>2026-05-01T12:48:24.999Z</time></trkpt><trkpt lat="42.7904878210707" lon="12.580484336841849"><ele>985.3333333333333</ele><time>2026-05-01T12:48:25.999Z</time></trkpt><trkpt lat="42.79041592956735" lon="12.580543173702283"><ele>986.6666666666666</ele><time>2026-05-01T12:48:26.999Z</time></trkpt><trkpt lat="42.79033942650371" lon="12.58059871368346"><ele>988.0</ele><time>2026-05-01T12:48:27.999Z</time></trkpt><trkpt lat="42.79025806213524" lon="12.58066143377289"><ele>987.9999999999999</ele><time>2026-05-01T12:48:28.999Z</time></trkpt><trkpt lat="42.790182285268806" lon="12.580724867975805"><ele>988.0</ele><time>2026-05-01T12:48:29.999Z</time></trkpt><trkpt lat="42.79011431936463" lon="12.580782977451861"><ele>988.0</ele><time>2026-05-01T12:48:30.999Z</time></trkpt><trkpt lat="42.79005757357123" lon="12.580837892041755"><ele>988.0</ele><time>2026-05-01T12:48:31.999Z</time></trkpt><trkpt lat="42.78997045852771" lon="12.580932765701345"><ele>987.9999999999999</ele><time>2026-05-01T12:48:33.999Z</time></trkpt><trkpt lat="42.7898933814621" lon="12.58095639136673"><ele>988.0</ele><time>2026-05-01T12:48:35.999Z</time></trkpt><trkpt lat="42.78980683484367" lon="12.580927917391291"><ele>989.5999999999999</ele><time>2026-05-01T12:48:39Z</time></trkpt><trkpt lat="42.78975459276309" lon="12.580834298463683"><ele>991.1999999999999</ele><time>2026-05-01T12:48:41Z</time></trkpt><trkpt lat="42.7897174631592" lon="12.58072027729051"><ele>992.8</ele><time>2026-05-01T12:48:43Z</time></trkpt><trkpt lat="42.78968060440599" lon="12.580576794353428"><ele>994.4</ele><time>2026-05-01T12:48:45Z</time></trkpt><trkpt lat="42.78964886226988" lon="12.580431481767526"><ele>996.0</ele><time>2026-05-01T12:48:47Z</time></trkpt><trkpt lat="42.7896086735555" lon="12.580294002254723"><ele>997.0</ele><time>2026-05-01T12:48:48.999Z</time></trkpt><trkpt lat="42.78953340621713" lon="12.58017277897348"><ele>997.9999999999999</ele><time>2026-05-01T12:48:50.999Z</time></trkpt><trkpt lat="42.789480297360456" lon="12.580123905419839"><ele>998.9999999999999</ele><time>2026-05-01T12:48:51.999Z</time></trkpt><trkpt lat="42.78938853321452" lon="12.580066843423364"><ele>1000.0</ele><time>2026-05-01T12:48:53.999Z</time></trkpt><trkpt lat="42.78929150690024" lon="12.579981937726602"><ele>1001.0</ele><time>2026-05-01T12:48:55.999Z</time></trkpt><trkpt lat="42.78923666198787" lon="12.579938824433457"><ele>1003.5000000000001</ele><time>2026-05-01T12:48:56.999Z</time></trkpt><trkpt lat="42.789176347649686" lon="12.579892893154957"><ele>1006.0</ele><time>2026-05-01T12:48:57.999Z</time></trkpt><trkpt lat="42.789106837229106" lon="12.579846748060344"><ele>1008.5</ele><time>2026-05-01T12:48:58.999Z</time></trkpt><trkpt lat="42.7890277970034" lon="12.579799442476347"><ele>1011.0</ele><time>2026-05-01T12:48:59.999Z</time></trkpt><trkpt lat="42.78894364779674" lon="12.579753711530008"><ele>1013.5000000000001</ele><time>2026-05-01T12:49:00.999Z</time></trkpt><trkpt lat="42.78886759662094" lon="12.57971458869213"><ele>1016.0</ele><time>2026-05-01T12:49:01.999Z</time></trkpt><trkpt lat="42.78880126088343" lon="12.579678246644281"><ele>1016.0000000000001</ele><time>2026-05-01T12:49:02.999Z</time></trkpt><trkpt lat="42.7887364910834" lon="12.57965341945025"><ele>1016.0</ele><time>2026-05-01T12:49:03.999Z</time></trkpt><trkpt lat="42.78863399061856" lon="12.579641780022593"><ele>1016.0</ele><time>2026-05-01T12:49:05.999Z</time></trkpt><trkpt lat="42.78857545859741" lon="12.57954463726878"><ele>1016.0</ele><time>2026-05-01T12:49:08.999Z</time></trkpt><trkpt lat="42.788557112205304" lon="12.579409859752085"><ele>1016.0000000000001</ele><time>2026-05-01T12:49:10.999Z</time></trkpt><trkpt lat="42.78853770900226" lon="12.579326092017327"><ele>1016.0</ele><time>2026-05-01T12:49:11.999Z</time></trkpt><trkpt lat="42.78852106819327" lon="12.579227008772428"><ele>1019.1428571428571</ele><time>2026-05-01T12:49:12.999Z</time></trkpt><trkpt lat="42.788505448297435" lon="12.579143473942931"><ele>1022.2857142857142</ele><time>2026-05-01T12:49:13.999Z</time></trkpt><trkpt lat="42.78848606688241" lon="12.579021537553237"><ele>1025.4285714285713</ele><time>2026-05-01T12:49:15.999Z</time></trkpt><trkpt lat="42.78848116079303" lon="12.578935059981067"><ele>1028.5714285714284</ele><time>2026-05-01T12:49:16.999Z</time></trkpt><trkpt lat="42.78847712691626" lon="12.578840729290693"><ele>1031.7142857142856</ele><time>2026-05-01T12:49:17.999Z</time></trkpt><trkpt lat="42.78846710815522" lon="12.578747966595486"><ele>1034.857142857143</ele><time>2026-05-01T12:49:18.999Z</time></trkpt><trkpt lat="42.788451182689265" lon="12.57864668186554"><ele>1038.0</ele><time>2026-05-01T12:49:19.999Z</time></trkpt><trkpt lat="42.78843617475693" lon="12.578550641938827"><ele>1038.5</ele><time>2026-05-01T12:49:20.999Z</time></trkpt><trkpt lat="42.788415263794775" lon="12.578448235410397"><ele>1039.0</ele><time>2026-05-01T12:49:21.999Z</time></trkpt><trkpt lat="42.78839763132792" lon="12.578338579830948"><ele>1039.5</ele><time>2026-05-01T12:49:22.999Z</time></trkpt><trkpt lat="42.78837477595204" lon="12.578227291703088"><ele>1040.0</ele><time>2026-05-01T12:49:23.999Z</time></trkpt><trkpt lat="42.78834469249522" lon="12.578115673352576"><ele>1040.5</ele><time>2026-05-01T12:49:24.999Z</time></trkpt><trkpt lat="42.788316390039775" lon="12.578015853991502"><ele>1041.0</ele><time>2026-05-01T12:49:25.999Z</time></trkpt><trkpt lat="42.78829308122785" lon="12.577912502004297"><ele>1041.5</ele><time>2026-05-01T12:49:26.999Z</time></trkpt><trkpt lat="42.78826553203779" lon="12.577794343633872"><ele>1042.0</ele><time>2026-05-01T12:49:27.999Z</time></trkpt><trkpt lat="42.78823468518311" lon="12.577679243605974"><ele>1042.5</ele><time>2026-05-01T12:49:28.999Z</time></trkpt><trkpt lat="42.78820189763792" lon="12.577567408483322"><ele>1043.0</ele><time>2026-05-01T12:49:29.999Z</time></trkpt><trkpt lat="42.78817373103908" lon="12.577472484307863"><ele>1043.5</ele><time>2026-05-01T12:49:30.999Z</time></trkpt><trkpt lat="42.7881322078188" lon="12.577364879576987"><ele>1044.0</ele><time>2026-05-01T12:49:31.999Z</time></trkpt><trkpt lat="42.788086524952696" lon="12.577249723365673"><ele>1044.0</ele><time>2026-05-01T12:49:32.999Z</time></trkpt><trkpt lat="42.78803404355893" lon="12.577135811236754"><ele>1044.0</ele><time>2026-05-01T12:49:33.999Z</time></trkpt><trkpt lat="42.78798021490823" lon="12.577033338546315"><ele>1044.0</ele><time>2026-05-01T12:49:34.999Z</time></trkpt><trkpt lat="42.787935612677046" lon="12.57696098917093"><ele>1044.0</ele><time>2026-05-01T12:49:35.999Z</time></trkpt><trkpt lat="42.78786211660899" lon="12.576869035544762"><ele>1044.0</ele><time>2026-05-01T12:49:37.999Z</time></trkpt><trkpt lat="42.78779294353069" lon="12.576844142558405"><ele>1044.0</ele><time>2026-05-01T12:49:39.999Z</time></trkpt><trkpt lat="42.78770764196028" lon="12.576820881042707"><ele>1046.0</ele><time>2026-05-01T12:49:41.999Z</time></trkpt><trkpt lat="42.78763465337027" lon="12.576835422795487"><ele>1048.0</ele><time>2026-05-01T12:49:43.999Z</time></trkpt><trkpt lat="42.78755247121638" lon="12.57687590388436"><ele>1050.0</ele><time>2026-05-01T12:49:45.999Z</time></trkpt><trkpt lat="42.787454444661506" lon="12.576960731177458"><ele>1052.0</ele><time>2026-05-01T12:49:47.999Z</time></trkpt><trkpt lat="42.787379023362654" lon="12.577049307593718"><ele>1054.0</ele><time>2026-05-01T12:49:49.999Z</time></trkpt><trkpt lat="42.78730205987918" lon="12.577132538818196"><ele>1055.0</ele><time>2026-05-01T12:49:52.999Z</time></trkpt><trkpt lat="42.7872158118177" lon="12.577217333202068"><ele>1056.0</ele><time>2026-05-01T12:49:54.999Z</time></trkpt><trkpt lat="42.78711616174617" lon="12.577302170189213"><ele>1057.0</ele><time>2026-05-01T12:49:56.999Z</time></trkpt><trkpt lat="42.78706287085554" lon="12.577349753984192"><ele>1058.0</ele><time>2026-05-01T12:49:57.999Z</time></trkpt><trkpt lat="42.78700050457496" lon="12.577407218679992"><ele>1059.0</ele><time>2026-05-01T12:49:58.999Z</time></trkpt><trkpt lat="42.78693092954983" lon="12.577469219369387"><ele>1060.0</ele><time>2026-05-01T12:49:59.999Z</time></trkpt><trkpt lat="42.786862686164966" lon="12.577527984176424"><ele>1061.8333333333333</ele><time>2026-05-01T12:50:00.999Z</time></trkpt><trkpt lat="42.78680610668631" lon="12.577575373307225"><ele>1063.6666666666665</ele><time>2026-05-01T12:50:01.999Z</time></trkpt><trkpt lat="42.78671760486666" lon="12.57767546712316"><ele>1065.5</ele><time>2026-05-01T12:50:03.999Z</time></trkpt><trkpt lat="42.78667675012036" lon="12.5777594266609"><ele>1067.3333333333333</ele><time>2026-05-01T12:50:04.999Z</time></trkpt><trkpt lat="42.78663667454993" lon="12.577830737588187"><ele>1069.1666666666667</ele><time>2026-05-01T12:50:05.999Z</time></trkpt><trkpt lat="42.7865721777713" lon="12.577847587419768"><ele>1071.0</ele><time>2026-05-01T12:50:07.999Z</time></trkpt><trkpt lat="42.78646055721705" lon="12.57782440873241"><ele>1071.0</ele><time>2026-05-01T12:50:09.999Z</time></trkpt><trkpt lat="42.78636930202752" lon="12.577833085838305"><ele>1071.0</ele><time>2026-05-01T12:50:11.999Z</time></trkpt><trkpt lat="42.78626802002218" lon="12.577880930597559"><ele>1071.0</ele><time>2026-05-01T12:50:13.999Z</time></trkpt><trkpt lat="42.78615641252342" lon="12.577954653473666"><ele>1071.0</ele><time>2026-05-01T12:50:15.999Z</time></trkpt><trkpt lat="42.78605046086387" lon="12.578041305450734"><ele>1071.0</ele><time>2026-05-01T12:50:17.999Z</time></trkpt><trkpt lat="42.78594649585417" lon="12.578090528370701"><ele>1073.2</ele><time>2026-05-01T12:50:19.999Z</time></trkpt><trkpt lat="42.7858398668967" lon="12.578122027353963"><ele>1075.3999999999999</ele><time>2026-05-01T12:50:21.999Z</time></trkpt><trkpt lat="42.78572566597875" lon="12.578181714518422"><ele>1077.6</ele><time>2026-05-01T12:50:23.999Z</time></trkpt><trkpt lat="42.78561779762378" lon="12.578247666062081"><ele>1079.8</ele><time>2026-05-01T12:50:25.999Z</time></trkpt><trkpt lat="42.7855563245827" lon="12.578279888373908"><ele>1082.0</ele><time>2026-05-01T12:50:26.999Z</time></trkpt><trkpt lat="42.785490761310434" lon="12.578305225342165"><ele>1082.0</ele><time>2026-05-01T12:50:27.999Z</time></trkpt><trkpt lat="42.785374805809205" lon="12.578344762009431"><ele>1082.0</ele><time>2026-05-01T12:50:29.999Z</time></trkpt><trkpt lat="42.785249361784686" lon="12.57837826365071"><ele>1082.0</ele><time>2026-05-01T12:50:31.999Z</time></trkpt><trkpt lat="42.78517675589797" lon="12.578383575337526"><ele>1082.0</ele><time>2026-05-01T12:50:32.999Z</time></trkpt><trkpt lat="42.78511135727406" lon="12.578380292925415"><ele>1082.0</ele><time>2026-05-01T12:50:33.999Z</time></trkpt><trkpt lat="42.785048438596704" lon="12.578372210590391"><ele>1082.0</ele><time>2026-05-01T12:50:34.999Z</time></trkpt><trkpt lat="42.78492294879005" lon="12.578361546500709"><ele>1082.0</ele><time>2026-05-01T12:50:36.999Z</time></trkpt><trkpt lat="42.78482619415066" lon="12.578362325779278"><ele>1082.0</ele><time>2026-05-01T12:50:38.999Z</time></trkpt><trkpt lat="42.784750079347454" lon="12.578404059875393"><ele>1082.0</ele><time>2026-05-01T12:50:40.999Z</time></trkpt><trkpt lat="42.78467807144885" lon="12.578475208178038"><ele>1082.0</ele><time>2026-05-01T12:50:42.999Z</time></trkpt><trkpt lat="42.78462215145519" lon="12.578565900364787"><ele>1082.0</ele><time>2026-05-01T12:50:45Z</time></trkpt><trkpt lat="42.7845759827028" lon="12.57867445360432"><ele>1082.0</ele><time>2026-05-01T12:50:47Z</time></trkpt><trkpt lat="42.78453452872162" lon="12.57878713670553"><ele>1082.0</ele><time>2026-05-01T12:50:49Z</time></trkpt><trkpt lat="42.78450073119718" lon="12.578893621554432"><ele>1082.0</ele><time>2026-05-01T12:50:51Z</time></trkpt><trkpt lat="42.78447346156452" lon="12.57900014864708"><ele>1082.0</ele><time>2026-05-01T12:50:54Z</time></trkpt><trkpt lat="42.78445926310332" lon="12.579097960143615"><ele>1082.0</ele><time>2026-05-01T12:50:58Z</time></trkpt><trkpt lat="42.78442771273769" lon="12.579179140767462"><ele>1082.0</ele><time>2026-05-01T12:51:02Z</time></trkpt><trkpt lat="42.78434597996447" lon="12.579206651006167"><ele>1082.0</ele><time>2026-05-01T12:51:05Z</time></trkpt><trkpt lat="42.78427745283051" lon="12.579190021888772"><ele>1082.0</ele><time>2026-05-01T12:51:08Z</time></trkpt><trkpt lat="42.78422111083515" lon="12.57914692282243"><ele>1082.0</ele><time>2026-05-01T12:51:11Z</time></trkpt><trkpt lat="42.78416039350981" lon="12.579057763001385"><ele>1082.0</ele><time>2026-05-01T12:51:14Z</time></trkpt><trkpt lat="42.78409665746419" lon="12.578940266191193"><ele>1082.0</ele><time>2026-05-01T12:51:16Z</time></trkpt><trkpt lat="42.78402922967983" lon="12.578809239685494"><ele>1082.0</ele><time>2026-05-01T12:51:18Z</time></trkpt><trkpt lat="42.78396158753042" lon="12.578676507997073"><ele>1082.0</ele><time>2026-05-01T12:51:20Z</time></trkpt><trkpt lat="42.78389986802286" lon="12.578566056095646"><ele>1082.0</ele><time>2026-05-01T12:51:22Z</time></trkpt><trkpt lat="42.78384607863519" lon="12.578497766804004"><ele>1082.0</ele><time>2026-05-01T12:51:24Z</time></trkpt><trkpt lat="42.78374289832779" lon="12.57852055688656"><ele>1082.0</ele><time>2026-05-01T12:51:26.999Z</time></trkpt><trkpt lat="42.783704733068156" lon="12.57863878222553"><ele>1082.0</ele><time>2026-05-01T12:51:28.999Z</time></trkpt><trkpt lat="42.78370517479747" lon="12.578802484870248"><ele>1082.0</ele><time>2026-05-01T12:51:30.999Z</time></trkpt><trkpt lat="42.78370151564811" lon="12.578942880031727"><ele>1082.0</ele><time>2026-05-01T12:51:32.999Z</time></trkpt><trkpt lat="42.783690446676374" lon="12.579044140113302"><ele>1082.0</ele><time>2026-05-01T12:51:34.999Z</time></trkpt><trkpt lat="42.783659752263375" lon="12.579142818935276"><ele>1082.0</ele><time>2026-05-01T12:51:37.999Z</time></trkpt><trkpt lat="42.783594850110994" lon="12.579213890952694"><ele>1082.0</ele><time>2026-05-01T12:51:39.999Z</time></trkpt><trkpt lat="42.783517023566255" lon="12.57926259489557"><ele>1082.0</ele><time>2026-05-01T12:51:41.999Z</time></trkpt><trkpt lat="42.78341831988673" lon="12.579294732279713"><ele>1080.8</ele><time>2026-05-01T12:51:43.999Z</time></trkpt><trkpt lat="42.783306541409985" lon="12.579321125659112"><ele>1079.6</ele><time>2026-05-01T12:51:45.999Z</time></trkpt><trkpt lat="42.783193893136655" lon="12.579349179921733"><ele>1078.3999999999999</ele><time>2026-05-01T12:51:47.999Z</time></trkpt><trkpt lat="42.78307958557452" lon="12.57937857615728"><ele>1077.2</ele><time>2026-05-01T12:51:49.999Z</time></trkpt><trkpt lat="42.78298005187719" lon="12.579406504531535"><ele>1076.0</ele><time>2026-05-01T12:51:51.999Z</time></trkpt><trkpt lat="42.78289433661306" lon="12.579421624668115"><ele>1076.0</ele><time>2026-05-01T12:51:53.999Z</time></trkpt><trkpt lat="42.782804239427364" lon="12.57944863933201"><ele>1076.0</ele><time>2026-05-01T12:51:55.999Z</time></trkpt><trkpt lat="42.782709066992716" lon="12.579478120992674"><ele>1076.0</ele><time>2026-05-01T12:51:57.999Z</time></trkpt><trkpt lat="42.78259148739899" lon="12.579519345091756"><ele>1076.0</ele><time>2026-05-01T12:51:59.999Z</time></trkpt><trkpt lat="42.78247314484142" lon="12.579552903863789"><ele>1076.0</ele><time>2026-05-01T12:52:01.999Z</time></trkpt><trkpt lat="42.782409314763356" lon="12.579567822530798"><ele>1073.6666666666667</ele><time>2026-05-01T12:52:02.999Z</time></trkpt><trkpt lat="42.78234401876917" lon="12.579579424972527"><ele>1071.3333333333335</ele><time>2026-05-01T12:52:03.999Z</time></trkpt><trkpt lat="42.78228011836729" lon="12.579596499653151"><ele>1069.0</ele><time>2026-05-01T12:52:04.999Z</time></trkpt><trkpt lat="42.782153032456876" lon="12.579626469421402"><ele>1066.6666666666667</ele><time>2026-05-01T12:52:06.999Z</time></trkpt><trkpt lat="42.782090485025876" lon="12.57963971384033"><ele>1064.3333333333333</ele><time>2026-05-01T12:52:07.999Z</time></trkpt><trkpt lat="42.78202051783737" lon="12.579656707988306"><ele>1062.0</ele><time>2026-05-01T12:52:08.999Z</time></trkpt><trkpt lat="42.78194327806894" lon="12.579675589871458"><ele>1062.0</ele><time>2026-05-01T12:52:09.999Z</time></trkpt><trkpt lat="42.78186766946376" lon="12.579694262988793"><ele>1062.0</ele><time>2026-05-01T12:52:10.999Z</time></trkpt><trkpt lat="42.781791912972906" lon="12.579714048511523"><ele>1062.0</ele><time>2026-05-01T12:52:11.999Z</time></trkpt><trkpt lat="42.78171028299865" lon="12.57973680084216"><ele>1062.0</ele><time>2026-05-01T12:52:12.999Z</time></trkpt><trkpt lat="42.78162146099779" lon="12.57976740479979"><ele>1062.0</ele><time>2026-05-01T12:52:13.999Z</time></trkpt><trkpt lat="42.781524016265834" lon="12.579799893213082"><ele>1062.0</ele><time>2026-05-01T12:52:14.999Z</time></trkpt><trkpt lat="42.781441174175704" lon="12.579830923619184"><ele>1060.7142857142858</ele><time>2026-05-01T12:52:15.999Z</time></trkpt><trkpt lat="42.78137254326595" lon="12.579858518561224"><ele>1059.4285714285716</ele><time>2026-05-01T12:52:16.999Z</time></trkpt><trkpt lat="42.78131114740005" lon="12.579880429573715"><ele>1058.142857142857</ele><time>2026-05-01T12:52:17.999Z</time></trkpt><trkpt lat="42.781250316788594" lon="12.579904301836375"><ele>1056.857142857143</ele><time>2026-05-01T12:52:18.999Z</time></trkpt><trkpt lat="42.78118604830088" lon="12.579928050193857"><ele>1055.5714285714284</ele><time>2026-05-01T12:52:19.999Z</time></trkpt><trkpt lat="42.781120081761834" lon="12.579956788523367"><ele>1054.2857142857142</ele><time>2026-05-01T12:52:20.999Z</time></trkpt><trkpt lat="42.78105396420358" lon="12.579985197313736"><ele>1053.0</ele><time>2026-05-01T12:52:21.999Z</time></trkpt><trkpt lat="42.7809902036842" lon="12.580015938210138"><ele>1051.8333333333333</ele><time>2026-05-01T12:52:22.999Z</time></trkpt><trkpt lat="42.780929755215375" lon="12.58004427189218"><ele>1050.6666666666667</ele><time>2026-05-01T12:52:23.999Z</time></trkpt><trkpt lat="42.7808675215259" lon="12.580064012777854"><ele>1049.5</ele><time>2026-05-01T12:52:24.999Z</time></trkpt><trkpt lat="42.78076996635638" lon="12.580090926232876"><ele>1048.3333333333335</ele><time>2026-05-01T12:52:26.999Z</time></trkpt><trkpt lat="42.78069196781568" lon="12.580061025270298"><ele>1047.1666666666667</ele><time>2026-05-01T12:52:28.999Z</time></trkpt><trkpt lat="42.780634896872144" lon="12.580010091455712"><ele>1046.0</ele><time>2026-05-01T12:52:30.999Z</time></trkpt><trkpt lat="42.78056352388744" lon="12.579944629826636"><ele>1046.0</ele><time>2026-05-01T12:52:32.999Z</time></trkpt><trkpt lat="42.780488359837754" lon="12.579878475732334"><ele>1046.0</ele><time>2026-05-01T12:52:34.999Z</time></trkpt><trkpt lat="42.780407586892395" lon="12.579837189073647"><ele>1046.0</ele><time>2026-05-01T12:52:36.999Z</time></trkpt><trkpt lat="42.7803340975188" lon="12.579894445877608"><ele>1046.0</ele><time>2026-05-01T12:52:39.999Z</time></trkpt><trkpt lat="42.78029862927347" lon="12.579969174941276"><ele>1046.0</ele><time>2026-05-01T12:52:41.999Z</time></trkpt><trkpt lat="42.78028583676371" lon="12.580075250435463"><ele>1046.0</ele><time>2026-05-01T12:52:43.999Z</time></trkpt><trkpt lat="42.78026092612748" lon="12.580175726394758"><ele>1046.0</ele><time>2026-05-01T12:52:45.999Z</time></trkpt><trkpt lat="42.78022461533196" lon="12.580274971257397"><ele>1046.0</ele><time>2026-05-01T12:52:47.999Z</time></trkpt><trkpt lat="42.78019168893666" lon="12.580368539262743"><ele>1046.0</ele><time>2026-05-01T12:52:50Z</time></trkpt><trkpt lat="42.780157049143945" lon="12.580458720067183"><ele>1046.0</ele><time>2026-05-01T12:52:52Z</time></trkpt><trkpt lat="42.78011368552204" lon="12.580546773817762"><ele>1046.0</ele><time>2026-05-01T12:52:54Z</time></trkpt><trkpt lat="42.780050894844116" lon="12.580649444698086"><ele>1046.0</ele><time>2026-05-01T12:52:56Z</time></trkpt><trkpt lat="42.77998012625788" lon="12.580737585013477"><ele>1043.3333333333335</ele><time>2026-05-01T12:52:58Z</time></trkpt><trkpt lat="42.77991300157232" lon="12.580803449264979"><ele>1040.6666666666667</ele><time>2026-05-01T12:53:00Z</time></trkpt><trkpt lat="42.77984021523382" lon="12.58085561392837"><ele>1038.0</ele><time>2026-05-01T12:53:02Z</time></trkpt><trkpt lat="42.77976961750239" lon="12.580891834374228"><ele>1035.3333333333333</ele><time>2026-05-01T12:53:04Z</time></trkpt><trkpt lat="42.77968879155907" lon="12.580946630462718"><ele>1032.6666666666665</ele><time>2026-05-01T12:53:06Z</time></trkpt><trkpt lat="42.779615982935226" lon="12.58103875320679"><ele>1030.0</ele><time>2026-05-01T12:53:08Z</time></trkpt><trkpt lat="42.77954524962106" lon="12.581124669750928"><ele>1029.5</ele><time>2026-05-01T12:53:10Z</time></trkpt><trkpt lat="42.77947014423509" lon="12.58122833263293"><ele>1029.0</ele><time>2026-05-01T12:53:12Z</time></trkpt><trkpt lat="42.77940741283606" lon="12.581305114388302"><ele>1028.5</ele><time>2026-05-01T12:53:14Z</time></trkpt><trkpt lat="42.77933922962451" lon="12.58136320873072"><ele>1028.0</ele><time>2026-05-01T12:53:16Z</time></trkpt><trkpt lat="42.779259291378516" lon="12.58142151327201"><ele>1027.5</ele><time>2026-05-01T12:53:18Z</time></trkpt><trkpt lat="42.779180956064515" lon="12.581466575354716"><ele>1027.0</ele><time>2026-05-01T12:53:20Z</time></trkpt><trkpt lat="42.779085196343516" lon="12.581518288834435"><ele>1024.2</ele><time>2026-05-01T12:53:22Z</time></trkpt><trkpt lat="42.77899023851552" lon="12.58157846011222"><ele>1021.4000000000001</ele><time>2026-05-01T12:53:24Z</time></trkpt><trkpt lat="42.77891277321532" lon="12.5816310889323"><ele>1018.5999999999999</ele><time>2026-05-01T12:53:26Z</time></trkpt><trkpt lat="42.77881699817262" lon="12.581669937452418"><ele>1015.8</ele><time>2026-05-01T12:53:28Z</time></trkpt><trkpt lat="42.77871333907251" lon="12.581712256290048"><ele>1013.0</ele><time>2026-05-01T12:53:30Z</time></trkpt><trkpt lat="42.778598918374264" lon="12.581765108863852"><ele>1012.4</ele><time>2026-05-01T12:53:32Z</time></trkpt><trkpt lat="42.778485970883565" lon="12.581805450249767"><ele>1011.8</ele><time>2026-05-01T12:53:34Z</time></trkpt><trkpt lat="42.77837852324423" lon="12.581844975621388"><ele>1011.2</ele><time>2026-05-01T12:53:36Z</time></trkpt><trkpt lat="42.778275716313345" lon="12.581880472044858"><ele>1010.6</ele><time>2026-05-01T12:53:38Z</time></trkpt><trkpt lat="42.778162786015436" lon="12.581904029194936"><ele>1010.0</ele><time>2026-05-01T12:53:40Z</time></trkpt><trkpt lat="42.7780506058848" lon="12.58193413161634"><ele>1010.0</ele><time>2026-05-01T12:53:42Z</time></trkpt><trkpt lat="42.77793448020664" lon="12.581959641133368"><ele>1010.0</ele><time>2026-05-01T12:53:44Z</time></trkpt><trkpt lat="42.77782165208896" lon="12.581993908047636"><ele>1010.0</ele><time>2026-05-01T12:53:46Z</time></trkpt><trkpt lat="42.77771145039407" lon="12.582022922061395"><ele>1010.0</ele><time>2026-05-01T12:53:48Z</time></trkpt><trkpt lat="42.77760528281176" lon="12.582046595976518"><ele>1006.8</ele><time>2026-05-01T12:53:50Z</time></trkpt><trkpt lat="42.77749764964707" lon="12.5820705993804"><ele>1003.6</ele><time>2026-05-01T12:53:52Z</time></trkpt><trkpt lat="42.77739602349799" lon="12.582094916501905"><ele>1000.4000000000001</ele><time>2026-05-01T12:53:53.999Z</time></trkpt><trkpt lat="42.777292092979145" lon="12.582106861046041"><ele>997.2</ele><time>2026-05-01T12:53:55.999Z</time></trkpt><trkpt lat="42.77717594911963" lon="12.582129354362138"><ele>994.0</ele><time>2026-05-01T12:53:57.999Z</time></trkpt><trkpt lat="42.777064333885185" lon="12.582155474595337"><ele>994.0</ele><time>2026-05-01T12:53:59.999Z</time></trkpt><trkpt lat="42.777001376223765" lon="12.58217204202437"><ele>994.0</ele><time>2026-05-01T12:54:00.999Z</time></trkpt><trkpt lat="42.776931981148834" lon="12.58218988456031"><ele>994.0</ele><time>2026-05-01T12:54:01.999Z</time></trkpt><trkpt lat="42.776865589809965" lon="12.582205285531604"><ele>994.0</ele><time>2026-05-01T12:54:02.999Z</time></trkpt><trkpt lat="42.77679354319775" lon="12.582220483123333"><ele>994.0</ele><time>2026-05-01T12:54:03.999Z</time></trkpt><trkpt lat="42.77671783842178" lon="12.582238664196636"><ele>994.0</ele><time>2026-05-01T12:54:04.999Z</time></trkpt><trkpt lat="42.77664642501633" lon="12.582253357624552"><ele>994.0</ele><time>2026-05-01T12:54:05.999Z</time></trkpt><trkpt lat="42.776575654131186" lon="12.582266899312918"><ele>992.5714285714286</ele><time>2026-05-01T12:54:06.999Z</time></trkpt><trkpt lat="42.77650428391041" lon="12.582274715774428"><ele>991.1428571428571</ele><time>2026-05-01T12:54:07.999Z</time></trkpt><trkpt lat="42.776434424333026" lon="12.582278566692526"><ele>989.7142857142858</ele><time>2026-05-01T12:54:08.999Z</time></trkpt><trkpt lat="42.776361725462344" lon="12.582276216003464"><ele>988.2857142857143</ele><time>2026-05-01T12:54:09.999Z</time></trkpt><trkpt lat="42.77628983788278" lon="12.582272069072198"><ele>986.8571428571429</ele><time>2026-05-01T12:54:10.999Z</time></trkpt><trkpt lat="42.77622027219786" lon="12.58226519419175"><ele>985.4285714285716</ele><time>2026-05-01T12:54:11.999Z</time></trkpt><trkpt lat="42.77615369762099" lon="12.582259211366381"><ele>984.0000000000001</ele><time>2026-05-01T12:54:12.999Z</time></trkpt><trkpt lat="42.77608779862992" lon="12.58225330380472"><ele>982.1428571428573</ele><time>2026-05-01T12:54:13.999Z</time></trkpt><trkpt lat="42.77601010130898" lon="12.582245964819668"><ele>980.2857142857143</ele><time>2026-05-01T12:54:14.999Z</time></trkpt><trkpt lat="42.77594314574918" lon="12.582237896576078"><ele>978.4285714285716</ele><time>2026-05-01T12:54:16Z</time></trkpt><trkpt lat="42.77587548419829" lon="12.58222568692878"><ele>976.5714285714287</ele><time>2026-05-01T12:54:16.999Z</time></trkpt><trkpt lat="42.775811534516166" lon="12.582210029025045"><ele>974.7142857142858</ele><time>2026-05-01T12:54:17.999Z</time></trkpt><trkpt lat="42.775747510565644" lon="12.58219140302129"><ele>972.8571428571429</ele><time>2026-05-01T12:54:18.999Z</time></trkpt><trkpt lat="42.77568166659488" lon="12.582177634981473"><ele>971.0</ele><time>2026-05-01T12:54:19.999Z</time></trkpt><trkpt lat="42.77557790409838" lon="12.582150053500039"><ele>971.0000000000001</ele><time>2026-05-01T12:54:21.999Z</time></trkpt><trkpt lat="42.775480237744" lon="12.582118843708642"><ele>971.0</ele><time>2026-05-01T12:54:23.999Z</time></trkpt><trkpt lat="42.77540788059375" lon="12.582096964989768"><ele>971.0</ele><time>2026-05-01T12:54:25.999Z</time></trkpt><trkpt lat="42.775322931534404" lon="12.582083834008522"><ele>971.0</ele><time>2026-05-01T12:54:28.999Z</time></trkpt><trkpt lat="42.77525241623286" lon="12.58206050812159"><ele>971.0000000000001</ele><time>2026-05-01T12:54:32.999Z</time></trkpt><trkpt lat="42.7751599342453" lon="12.58202330082281"><ele>971.0</ele><time>2026-05-01T12:55:18Z</time></trkpt><trkpt lat="42.775091850555356" lon="12.581990051967137"><ele>971.0000000000001</ele><time>2026-05-01T12:55:20Z</time></trkpt><trkpt lat="42.77500873561192" lon="12.581949350810694"><ele>971.0</ele><time>2026-05-01T12:55:23Z</time></trkpt><trkpt lat="42.77493286121907" lon="12.58190427170707"><ele>971.0</ele><time>2026-05-01T12:55:26Z</time></trkpt><trkpt lat="42.77486186497885" lon="12.581863738268114"><ele>971.0</ele><time>2026-05-01T12:55:30Z</time></trkpt><trkpt lat="42.77479796324639" lon="12.581817250312385"><ele>971.0000000000001</ele><time>2026-05-01T12:55:51Z</time></trkpt><trkpt lat="42.77473541001914" lon="12.581773617811207"><ele>971.0</ele><time>2026-05-01T12:55:53Z</time></trkpt><trkpt lat="42.77466325142278" lon="12.581707872998917"><ele>971.0000000000001</ele><time>2026-05-01T12:55:55Z</time></trkpt><trkpt lat="42.77459336093623" lon="12.58162898648447"><ele>971.0</ele><time>2026-05-01T12:55:57Z</time></trkpt><trkpt lat="42.774531224301036" lon="12.5815502584551"><ele>971.0</ele><time>2026-05-01T12:55:59Z</time></trkpt><trkpt lat="42.77448007151406" lon="12.581491100979926"><ele>971.0</ele><time>2026-05-01T12:56:05Z</time></trkpt><trkpt lat="42.774427619758384" lon="12.581420034151149"><ele>971.0000000000001</ele><time>2026-05-01T12:56:07Z</time></trkpt><trkpt lat="42.7743730165059" lon="12.581345804740883"><ele>971.0</ele><time>2026-05-01T12:56:10Z</time></trkpt><trkpt lat="42.774325353647946" lon="12.581271936318982"><ele>968.5714285714287</ele><time>2026-05-01T12:56:13Z</time></trkpt><trkpt lat="42.77430115756003" lon="12.581180679491201"><ele>966.1428571428572</ele><time>2026-05-01T12:56:16Z</time></trkpt><trkpt lat="42.77430192562239" lon="12.58128224085136"><ele>963.7142857142858</ele><time>2026-05-01T12:59:58Z</time></trkpt><trkpt lat="42.77425308518384" lon="12.581340670344613"><ele>961.2857142857142</ele><time>2026-05-01T13:00:03Z</time></trkpt><trkpt lat="42.774211518523266" lon="12.581411733781753"><ele>958.8571428571428</ele><time>2026-05-01T13:00:09Z</time></trkpt><trkpt lat="42.77418809375571" lon="12.581503769644453"><ele>956.4285714285713</ele><time>2026-05-01T13:00:15Z</time></trkpt><trkpt lat="42.77422193266808" lon="12.581424686194874"><ele>954.0</ele><time>2026-05-01T13:00:54Z</time></trkpt><trkpt lat="42.774300273542174" lon="12.581343137141333"><ele>957.4000000000001</ele><time>2026-05-01T13:01:07Z</time></trkpt><trkpt lat="42.77437396902509" lon="12.581342345879868"><ele>960.8000000000001</ele><time>2026-05-01T13:02:16.999Z</time></trkpt><trkpt lat="42.774452733378325" lon="12.581456808539414"><ele>964.1999999999999</ele><time>2026-05-01T13:02:18.999Z</time></trkpt><trkpt lat="42.77450439262566" lon="12.581520790910083"><ele>967.5999999999999</ele><time>2026-05-01T13:02:19.999Z</time></trkpt><trkpt lat="42.774585341185976" lon="12.58160687938675"><ele>971.0</ele><time>2026-05-01T13:02:21.999Z</time></trkpt><trkpt lat="42.77466396072017" lon="12.581683084596726"><ele>971.0</ele><time>2026-05-01T13:02:23.999Z</time></trkpt><trkpt lat="42.7747436866538" lon="12.581760779723897"><ele>970.9999999999999</ele><time>2026-05-01T13:02:25.999Z</time></trkpt><trkpt lat="42.77482353489244" lon="12.581837023354074"><ele>970.9999999999999</ele><time>2026-05-01T13:02:27.999Z</time></trkpt><trkpt lat="42.774914643228456" lon="12.581892597348677"><ele>971.0</ele><time>2026-05-01T13:02:29.999Z</time></trkpt><trkpt lat="42.77500763729256" lon="12.581941659981052"><ele>971.0</ele><time>2026-05-01T13:02:31.999Z</time></trkpt><trkpt lat="42.77509657181225" lon="12.581984655524817"><ele>971.0000000000001</ele><time>2026-05-01T13:02:33.999Z</time></trkpt><trkpt lat="42.775163718863254" lon="12.582009646822009"><ele>971.0</ele><time>2026-05-01T13:02:35.999Z</time></trkpt><trkpt lat="42.77524051424968" lon="12.582042195158495"><ele>971.0</ele><time>2026-05-01T13:02:37.999Z</time></trkpt><trkpt lat="42.77530945680853" lon="12.582063449461147"><ele>971.0</ele><time>2026-05-01T13:02:39.999Z</time></trkpt><trkpt lat="42.7752559998037" lon="12.582138046091877"><ele>971.0000000000001</ele><time>2026-05-01T13:03:07.999Z</time></trkpt><trkpt lat="42.77519060453614" lon="12.582187040993688"><ele>971.0</ele><time>2026-05-01T13:03:10.999Z</time></trkpt><trkpt lat="42.7751204260057" lon="12.58224398526352"><ele>969.1428571428572</ele><time>2026-05-01T13:03:13.999Z</time></trkpt><trkpt lat="42.77507437315777" lon="12.582311402783402"><ele>967.2857142857144</ele><time>2026-05-01T13:03:17.999Z</time></trkpt><trkpt lat="42.77507573587806" lon="12.58239830662588"><ele>965.4285714285714</ele><time>2026-05-01T13:03:21Z</time></trkpt><trkpt lat="42.77506021659767" lon="12.58248600231433"><ele>963.5714285714287</ele><time>2026-05-01T13:03:24Z</time></trkpt><trkpt lat="42.77506614096634" lon="12.582572784144787"><ele>961.7142857142858</ele><time>2026-05-01T13:03:27Z</time></trkpt><trkpt lat="42.775008478581455" lon="12.582639442778165"><ele>959.8571428571429</ele><time>2026-05-01T13:03:31Z</time></trkpt><trkpt lat="42.77492846269774" lon="12.58266169740368"><ele>958.0</ele><time>2026-05-01T13:03:35Z</time></trkpt><trkpt lat="42.7748586848225" lon="12.58264956279359"><ele>957.9999999999999</ele><time>2026-05-01T13:03:37.999Z</time></trkpt><trkpt lat="42.7747887797133" lon="12.58260646740217"><ele>958.0</ele><time>2026-05-01T13:03:41.999Z</time></trkpt><trkpt lat="42.774733551131746" lon="12.582551676628082"><ele>958.0</ele><time>2026-05-01T13:03:46.998Z</time></trkpt><trkpt lat="42.77472430209948" lon="12.582430104181816"><ele>958.0</ele><time>2026-05-01T13:05:25.996Z</time></trkpt><trkpt lat="42.77477241212194" lon="12.582353351474318"><ele>957.9999999999999</ele><time>2026-05-01T13:05:27.996Z</time></trkpt><trkpt lat="42.774863732411134" lon="12.582304724972202"><ele>958.0</ele><time>2026-05-01T13:05:29.997Z</time></trkpt><trkpt lat="42.77496479806127" lon="12.582267618604902"><ele>958.0</ele><time>2026-05-01T13:05:31.997Z</time></trkpt><trkpt lat="42.77506228134916" lon="12.582213739526752"><ele>958.0</ele><time>2026-05-01T13:05:33.997Z</time></trkpt><trkpt lat="42.77516573267293" lon="12.582158330214735"><ele>958.0</ele><time>2026-05-01T13:05:35.998Z</time></trkpt><trkpt lat="42.775263078448276" lon="12.58212926856411"><ele>958.0</ele><time>2026-05-01T13:05:37.998Z</time></trkpt><trkpt lat="42.77532958104074" lon="12.582082436442358"><ele>958.0</ele><time>2026-05-01T13:05:39.998Z</time></trkpt><trkpt lat="42.77542254337264" lon="12.582086488730837"><ele>960.1666666666666</ele><time>2026-05-01T13:05:41.998Z</time></trkpt><trkpt lat="42.77554888126971" lon="12.58212747468186"><ele>962.3333333333333</ele><time>2026-05-01T13:05:43.998Z</time></trkpt><trkpt lat="42.77561593739835" lon="12.582151039437026"><ele>964.5</ele><time>2026-05-01T13:05:44.998Z</time></trkpt><trkpt lat="42.775679149952396" lon="12.582163286135533"><ele>966.6666666666667</ele><time>2026-05-01T13:05:45.999Z</time></trkpt><trkpt lat="42.77574494797635" lon="12.582179075864776"><ele>968.8333333333334</ele><time>2026-05-01T13:05:46.999Z</time></trkpt><trkpt lat="42.77581537202531" lon="12.58219385245039"><ele>971.0</ele><time>2026-05-01T13:05:47.999Z</time></trkpt><trkpt lat="42.77589459552595" lon="12.582207002716201"><ele>971.0000000000001</ele><time>2026-05-01T13:05:48.999Z</time></trkpt><trkpt lat="42.77596436910785" lon="12.582220579264717"><ele>971.0</ele><time>2026-05-01T13:05:49.999Z</time></trkpt><trkpt lat="42.77604755813668" lon="12.582232268443576"><ele>971.0</ele><time>2026-05-01T13:05:50.999Z</time></trkpt><trkpt lat="42.776130435368785" lon="12.582237894165688"><ele>971.0</ele><time>2026-05-01T13:05:51.999Z</time></trkpt><trkpt lat="42.77621788989539" lon="12.582240445092797"><ele>971.0000000000001</ele><time>2026-05-01T13:05:52.999Z</time></trkpt><trkpt lat="42.77629781516357" lon="12.582243010189123"><ele>971.0</ele><time>2026-05-01T13:05:53.999Z</time></trkpt><trkpt lat="42.77637911738594" lon="12.582249048042572"><ele>973.1666666666667</ele><time>2026-05-01T13:05:54.999Z</time></trkpt><trkpt lat="42.77646882501819" lon="12.582247687023903"><ele>975.3333333333334</ele><time>2026-05-01T13:05:55.999Z</time></trkpt><trkpt lat="42.77655411842279" lon="12.582240020275304"><ele>977.5</ele><time>2026-05-01T13:05:56.999Z</time></trkpt><trkpt lat="42.77663408404978" lon="12.582229110803073"><ele>979.6666666666667</ele><time>2026-05-01T13:05:57.999Z</time></trkpt><trkpt lat="42.77672178467526" lon="12.582206660040093"><ele>981.8333333333334</ele><time>2026-05-01T13:05:58.999Z</time></trkpt><trkpt lat="42.7768089526486" lon="12.58218583993646"><ele>984.0</ele><time>2026-05-01T13:05:59.999Z</time></trkpt><trkpt lat="42.77690571554878" lon="12.58216498638847"><ele>986.0</ele><time>2026-05-01T13:06:00.999Z</time></trkpt><trkpt lat="42.777014053691076" lon="12.582142313875886"><ele>988.0000000000001</ele><time>2026-05-01T13:06:01.999Z</time></trkpt><trkpt lat="42.77711932106546" lon="12.582115260861768"><ele>990.0000000000001</ele><time>2026-05-01T13:06:02.999Z</time></trkpt><trkpt lat="42.77721056966476" lon="12.582091181271217"><ele>992.0</ele><time>2026-05-01T13:06:03.999Z</time></trkpt><trkpt lat="42.7772887007352" lon="12.58207640016405"><ele>994.0</ele><time>2026-05-01T13:06:04.999Z</time></trkpt><trkpt lat="42.77737466794541" lon="12.582060619276623"><ele>993.9999999999999</ele><time>2026-05-01T13:06:05.999Z</time></trkpt><trkpt lat="42.77746430481184" lon="12.582047903092425"><ele>994.0</ele><time>2026-05-01T13:06:06.999Z</time></trkpt><trkpt lat="42.77755343325818" lon="12.582031751833355"><ele>994.0</ele><time>2026-05-01T13:06:07.999Z</time></trkpt><trkpt lat="42.7776307524232" lon="12.582016694397714"><ele>994.0</ele><time>2026-05-01T13:06:08.999Z</time></trkpt><trkpt lat="42.77771775037216" lon="12.581996266807563"><ele>993.9999999999999</ele><time>2026-05-01T13:06:09.999Z</time></trkpt><trkpt lat="42.7778081977687" lon="12.581974957940172"><ele>994.0</ele><time>2026-05-01T13:06:10.999Z</time></trkpt><trkpt lat="42.77789645395905" lon="12.581952662490862"><ele>996.6666666666666</ele><time>2026-05-01T13:06:11.999Z</time></trkpt><trkpt lat="42.77797137057481" lon="12.581934427947651"><ele>999.3333333333333</ele><time>2026-05-01T13:06:12.999Z</time></trkpt><trkpt lat="42.77805100531731" lon="12.581913760355862"><ele>1002.0</ele><time>2026-05-01T13:06:13.999Z</time></trkpt><trkpt lat="42.77813781267323" lon="12.581895757494904"><ele>1004.6666666666667</ele><time>2026-05-01T13:06:14.999Z</time></trkpt><trkpt lat="42.77821788897804" lon="12.581874119908306"><ele>1007.3333333333334</ele><time>2026-05-01T13:06:15.999Z</time></trkpt><trkpt lat="42.778298711422515" lon="12.58184727457275"><ele>1010.0</ele><time>2026-05-01T13:06:16.999Z</time></trkpt><trkpt lat="42.77838212190668" lon="12.581827938598988"><ele>1010.0000000000001</ele><time>2026-05-01T13:06:17.999Z</time></trkpt><trkpt lat="42.77845196037544" lon="12.581806901437151"><ele>1010.0</ele><time>2026-05-01T13:06:18.999Z</time></trkpt><trkpt lat="42.77851861738253" lon="12.581772629250597"><ele>1010.0</ele><time>2026-05-01T13:06:19.999Z</time></trkpt><trkpt lat="42.778593617960475" lon="12.58174009270099"><ele>1010.0</ele><time>2026-05-01T13:06:20.999Z</time></trkpt><trkpt lat="42.77867203637545" lon="12.581706460511423"><ele>1010.0000000000001</ele><time>2026-05-01T13:06:21.999Z</time></trkpt><trkpt lat="42.778753904596634" lon="12.581670283870356"><ele>1010.0</ele><time>2026-05-01T13:06:22.999Z</time></trkpt><trkpt lat="42.77882230136426" lon="12.581641953540467"><ele>1010.6</ele><time>2026-05-01T13:06:23.999Z</time></trkpt><trkpt lat="42.77890224857628" lon="12.581612416892627"><ele>1011.2</ele><time>2026-05-01T13:06:24.999Z</time></trkpt><trkpt lat="42.77898057638369" lon="12.581570446865113"><ele>1011.8</ele><time>2026-05-01T13:06:25.999Z</time></trkpt><trkpt lat="42.77906743247395" lon="12.581515644482083"><ele>1012.4</ele><time>2026-05-01T13:06:26.999Z</time></trkpt><trkpt lat="42.779160388063765" lon="12.581451625910002"><ele>1013.0</ele><time>2026-05-01T13:06:27.999Z</time></trkpt><trkpt lat="42.77924851573806" lon="12.581402524425512"><ele>1013.0000000000001</ele><time>2026-05-01T13:06:28.999Z</time></trkpt><trkpt lat="42.77932291981106" lon="12.58135659881003"><ele>1013.0</ele><time>2026-05-01T13:06:29.999Z</time></trkpt><trkpt lat="42.77939028603846" lon="12.581307177884153"><ele>1013.0</ele><time>2026-05-01T13:06:30.999Z</time></trkpt><trkpt lat="42.77945774070993" lon="12.581230367437295"><ele>1013.0</ele><time>2026-05-01T13:06:31.999Z</time></trkpt><trkpt lat="42.77951889779412" lon="12.581149185136127"><ele>1013.0000000000001</ele><time>2026-05-01T13:06:32.999Z</time></trkpt><trkpt lat="42.7795792462542" lon="12.581061749148386"><ele>1013.0</ele><time>2026-05-01T13:06:33.999Z</time></trkpt><trkpt lat="42.77964399172013" lon="12.58098585591503"><ele>1016.4</ele><time>2026-05-01T13:06:34.999Z</time></trkpt><trkpt lat="42.77973657804241" lon="12.580890326582395"><ele>1019.8</ele><time>2026-05-01T13:06:36.999Z</time></trkpt><trkpt lat="42.77983657458145" lon="12.580835541520788"><ele>1023.2</ele><time>2026-05-01T13:06:38.999Z</time></trkpt><trkpt lat="42.77993011540398" lon="12.58077378766529"><ele>1026.6</ele><time>2026-05-01T13:06:40.999Z</time></trkpt><trkpt lat="42.780009631708445" lon="12.580674942653177"><ele>1030.0</ele><time>2026-05-01T13:06:42.999Z</time></trkpt><trkpt lat="42.78009352366504" lon="12.58053961167644"><ele>1030.0</ele><time>2026-05-01T13:06:44.999Z</time></trkpt><trkpt lat="42.78015579063177" lon="12.580410704855273"><ele>1030.0</ele><time>2026-05-01T13:06:46.999Z</time></trkpt><trkpt lat="42.78021074211199" lon="12.580263075070986"><ele>1030.0</ele><time>2026-05-01T13:06:48.999Z</time></trkpt><trkpt lat="42.780237263026414" lon="12.580178247949553"><ele>1030.0</ele><time>2026-05-01T13:06:49.999Z</time></trkpt><trkpt lat="42.78026560718876" lon="12.580089703863605"><ele>1030.0</ele><time>2026-05-01T13:06:50.999Z</time></trkpt><trkpt lat="42.78028991212264" lon="12.579993107453808"><ele>1030.0</ele><time>2026-05-01T13:06:51.999Z</time></trkpt><trkpt lat="42.780303113417126" lon="12.57989394106636"><ele>1033.2</ele><time>2026-05-01T13:06:53.999Z</time></trkpt><trkpt lat="42.78039311742824" lon="12.579833891634884"><ele>1036.4</ele><time>2026-05-01T13:06:56.999Z</time></trkpt><trkpt lat="42.780497744473415" lon="12.579880372875499"><ele>1039.6</ele><time>2026-05-01T13:06:58.999Z</time></trkpt><trkpt lat="42.78055820616379" lon="12.57993433944081"><ele>1042.8</ele><time>2026-05-01T13:06:59.999Z</time></trkpt><trkpt lat="42.78061254905538" lon="12.57998371061514"><ele>1046.0</ele><time>2026-05-01T13:07:00.999Z</time></trkpt><trkpt lat="42.7807174227496" lon="12.580057514471381"><ele>1046.0</ele><time>2026-05-01T13:07:02.999Z</time></trkpt><trkpt lat="42.78083153034592" lon="12.580069244272275"><ele>1046.0</ele><time>2026-05-01T13:07:04.999Z</time></trkpt><trkpt lat="42.780951485017226" lon="12.580019915054008"><ele>1046.0</ele><time>2026-05-01T13:07:06.999Z</time></trkpt><trkpt lat="42.78101971745495" lon="12.57998998308702"><ele>1046.0</ele><time>2026-05-01T13:07:07.999Z</time></trkpt><trkpt lat="42.781092344979086" lon="12.579955276115223"><ele>1046.0</ele><time>2026-05-01T13:07:08.999Z</time></trkpt><trkpt lat="42.78116970810113" lon="12.579918736504032"><ele>1047.1666666666667</ele><time>2026-05-01T13:07:09.999Z</time></trkpt><trkpt lat="42.78124112042053" lon="12.579893021703898"><ele>1048.3333333333335</ele><time>2026-05-01T13:07:10.999Z</time></trkpt><trkpt lat="42.78131708951698" lon="12.579868256627403"><ele>1049.5</ele><time>2026-05-01T13:07:11.999Z</time></trkpt><trkpt lat="42.78138300017328" lon="12.579841105310622"><ele>1050.6666666666667</ele><time>2026-05-01T13:07:12.999Z</time></trkpt><trkpt lat="42.78146152072135" lon="12.579813362507016"><ele>1051.8333333333333</ele><time>2026-05-01T13:07:13.999Z</time></trkpt><trkpt lat="42.78153654431672" lon="12.579786044735018"><ele>1053.0</ele><time>2026-05-01T13:07:14.999Z</time></trkpt><trkpt lat="42.781619185038046" lon="12.579757683442"><ele>1053.0</ele><time>2026-05-01T13:07:15.999Z</time></trkpt><trkpt lat="42.78170130794177" lon="12.579729707380448"><ele>1053.0</ele><time>2026-05-01T13:07:16.999Z</time></trkpt><trkpt lat="42.78179184781748" lon="12.57970235694463"><ele>1053.0</ele><time>2026-05-01T13:07:17.999Z</time></trkpt><trkpt lat="42.78189188679643" lon="12.579677140130135"><ele>1053.0</ele><time>2026-05-01T13:07:18.999Z</time></trkpt><trkpt lat="42.7820118875032" lon="12.5796474473201"><ele>1053.0</ele><time>2026-05-01T13:07:19.999Z</time></trkpt><trkpt lat="42.78212904199839" lon="12.579619825919478"><ele>1054.8</ele><time>2026-05-01T13:07:20.999Z</time></trkpt><trkpt lat="42.78224252186267" lon="12.579594491926388"><ele>1056.6</ele><time>2026-05-01T13:07:21.999Z</time></trkpt><trkpt lat="42.782338934487406" lon="12.57957592997598"><ele>1058.4</ele><time>2026-05-01T13:07:22.999Z</time></trkpt><trkpt lat="42.78242626902887" lon="12.57954984959023"><ele>1060.2</ele><time>2026-05-01T13:07:23.999Z</time></trkpt><trkpt lat="42.78252070434911" lon="12.579522424965754"><ele>1062.0</ele><time>2026-05-01T13:07:24.999Z</time></trkpt><trkpt lat="42.78261575780618" lon="12.57949416614646"><ele>1064.8</ele><time>2026-05-01T13:07:25.999Z</time></trkpt><trkpt lat="42.782705514124224" lon="12.579464356244495"><ele>1067.6</ele><time>2026-05-01T13:07:26.999Z</time></trkpt><trkpt lat="42.782792596533405" lon="12.57942281492227"><ele>1070.3999999999999</ele><time>2026-05-01T13:07:27.999Z</time></trkpt><trkpt lat="42.78290072587365" lon="12.579392102113378"><ele>1073.2</ele><time>2026-05-01T13:07:28.999Z</time></trkpt><trkpt lat="42.78300795595315" lon="12.579371737867644"><ele>1076.0</ele><time>2026-05-01T13:07:29.999Z</time></trkpt><trkpt lat="42.78311134045088" lon="12.579345704418579"><ele>1076.0</ele><time>2026-05-01T13:07:30.999Z</time></trkpt><trkpt lat="42.78320835012989" lon="12.579321800121505"><ele>1076.0</ele><time>2026-05-01T13:07:31.999Z</time></trkpt><trkpt lat="42.78329419770279" lon="12.579300289155702"><ele>1076.0</ele><time>2026-05-01T13:07:32.999Z</time></trkpt><trkpt lat="42.78337391106281" lon="12.579280308825195"><ele>1076.0</ele><time>2026-05-01T13:07:33.999Z</time></trkpt><trkpt lat="42.78344720527078" lon="12.579263693014862"><ele>1076.0</ele><time>2026-05-01T13:07:34.999Z</time></trkpt><trkpt lat="42.78352250657676" lon="12.579238460969938"><ele>1076.0</ele><time>2026-05-01T13:07:35.999Z</time></trkpt><trkpt lat="42.78358086539814" lon="12.579204745449035"><ele>1077.2</ele><time>2026-05-01T13:07:36.999Z</time></trkpt><trkpt lat="42.78366365581234" lon="12.579101227745479"><ele>1078.3999999999999</ele><time>2026-05-01T13:07:38.999Z</time></trkpt><trkpt lat="42.783686576424294" lon="12.578975114043805"><ele>1079.6</ele><time>2026-05-01T13:07:40.999Z</time></trkpt><trkpt lat="42.78369164129394" lon="12.57877677172512"><ele>1080.8</ele><time>2026-05-01T13:07:43Z</time></trkpt><trkpt lat="42.78369468645187" lon="12.578663189332067"><ele>1082.0</ele><time>2026-05-01T13:07:44Z</time></trkpt><trkpt lat="42.783704391535615" lon="12.57853597176275"><ele>1082.0</ele><time>2026-05-01T13:07:46Z</time></trkpt><trkpt lat="42.78376098755076" lon="12.578482086935756"><ele>1082.0</ele><time>2026-05-01T13:07:48Z</time></trkpt><trkpt lat="42.783860430791265" lon="12.57852493350098"><ele>1082.0</ele><time>2026-05-01T13:07:50Z</time></trkpt><trkpt lat="42.78393141541919" lon="12.578646947284444"><ele>1082.0</ele><time>2026-05-01T13:07:52Z</time></trkpt><trkpt lat="42.783991717321335" lon="12.578761411534284"><ele>1082.0</ele><time>2026-05-01T13:07:54Z</time></trkpt><trkpt lat="42.78405199064623" lon="12.578890778856776"><ele>1082.0</ele><time>2026-05-01T13:07:56Z</time></trkpt><trkpt lat="42.78411839325902" lon="12.57900942942678"><ele>1082.0</ele><time>2026-05-01T13:07:58Z</time></trkpt><trkpt lat="42.78418705051211" lon="12.579122744044549"><ele>1082.0</ele><time>2026-05-01T13:08:00Z</time></trkpt><trkpt lat="42.784260545885815" lon="12.579192586906753"><ele>1082.0</ele><time>2026-05-01T13:08:02Z</time></trkpt><trkpt lat="42.784338460829275" lon="12.579205967395744"><ele>1082.0</ele><time>2026-05-01T13:08:04Z</time></trkpt><trkpt lat="42.784393012660104" lon="12.57925050485535"><ele>1082.0</ele><time>2026-05-01T13:08:06Z</time></trkpt><trkpt lat="42.78438405158129" lon="12.579364394657267"><ele>1082.0</ele><time>2026-05-01T13:08:09Z</time></trkpt><trkpt lat="42.78433389364295" lon="12.57942255135777"><ele>1082.0</ele><time>2026-05-01T13:08:12Z</time></trkpt><trkpt lat="42.784283726490656" lon="12.57951888161277"><ele>1082.0</ele><time>2026-05-01T13:08:15Z</time></trkpt><trkpt lat="42.78422026239892" lon="12.57962663460958"><ele>1082.0</ele><time>2026-05-01T13:08:17Z</time></trkpt><trkpt lat="42.78416410689301" lon="12.579717542031368"><ele>1082.0</ele><time>2026-05-01T13:08:19Z</time></trkpt><trkpt lat="42.784119816652904" lon="12.579814845049462"><ele>1082.0</ele><time>2026-05-01T13:08:21Z</time></trkpt><trkpt lat="42.78406384174288" lon="12.579932870153542"><ele>1081.0</ele><time>2026-05-01T13:08:23Z</time></trkpt><trkpt lat="42.78400147265785" lon="12.580046525898195"><ele>1080.0</ele><time>2026-05-01T13:08:25Z</time></trkpt><trkpt lat="42.78394058264166" lon="12.58015781839088"><ele>1079.0</ele><time>2026-05-01T13:08:27Z</time></trkpt><trkpt lat="42.78386937088594" lon="12.5802755154367"><ele>1078.0</ele><time>2026-05-01T13:08:29Z</time></trkpt><trkpt lat="42.78379253718108" lon="12.58039398734729"><ele>1077.0</ele><time>2026-05-01T13:08:31Z</time></trkpt><trkpt lat="42.783748792810506" lon="12.580456435047273"><ele>1077.0</ele><time>2026-05-01T13:08:32Z</time></trkpt><trkpt lat="42.783652973970604" lon="12.580558452907216"><ele>1077.0</ele><time>2026-05-01T13:08:34Z</time></trkpt><trkpt lat="42.783564648427394" lon="12.58064105476191"><ele>1077.0</ele><time>2026-05-01T13:08:36Z</time></trkpt><trkpt lat="42.78348174926404" lon="12.580723646836304"><ele>1077.0</ele><time>2026-05-01T13:08:38Z</time></trkpt><trkpt lat="42.783407985043574" lon="12.5808018609911"><ele>1077.0</ele><time>2026-05-01T13:08:40Z</time></trkpt><trkpt lat="42.783312302012924" lon="12.580894613242803"><ele>1077.0</ele><time>2026-05-01T13:08:42Z</time></trkpt><trkpt lat="42.78323558186514" lon="12.580954373350467"><ele>1077.0</ele><time>2026-05-01T13:08:44Z</time></trkpt><trkpt lat="42.78316306016269" lon="12.581012834185415"><ele>1077.0</ele><time>2026-05-01T13:08:46Z</time></trkpt><trkpt lat="42.78309626119455" lon="12.58107225091422"><ele>1077.0</ele><time>2026-05-01T13:08:49Z</time></trkpt><trkpt lat="42.78301556833595" lon="12.581150255649742"><ele>1077.0</ele><time>2026-05-01T13:08:51Z</time></trkpt><trkpt lat="42.782927635382784" lon="12.581238475685744"><ele>1077.5</ele><time>2026-05-01T13:08:53Z</time></trkpt><trkpt lat="42.782837455646195" lon="12.581332886007182"><ele>1078.0</ele><time>2026-05-01T13:08:55Z</time></trkpt><trkpt lat="42.782786116804765" lon="12.581383420250898"><ele>1078.5</ele><time>2026-05-01T13:08:56Z</time></trkpt><trkpt lat="42.78273207756635" lon="12.581439313001582"><ele>1079.0</ele><time>2026-05-01T13:08:57Z</time></trkpt><trkpt lat="42.78267810501294" lon="12.581493080625782"><ele>1079.5</ele><time>2026-05-01T13:08:58Z</time></trkpt><trkpt lat="42.78261938241588" lon="12.581549626087229"><ele>1080.0</ele><time>2026-05-01T13:08:59Z</time></trkpt><trkpt lat="42.782554159833964" lon="12.581617774188578"><ele>1080.8333333333333</ele><time>2026-05-01T13:09:00Z</time></trkpt><trkpt lat="42.78246331268865" lon="12.581710071930424"><ele>1081.6666666666667</ele><time>2026-05-01T13:09:02Z</time></trkpt><trkpt lat="42.78238978031375" lon="12.58178040305553"><ele>1082.5</ele><time>2026-05-01T13:09:04Z</time></trkpt><trkpt lat="42.782323796777874" lon="12.581817774926861"><ele>1083.3333333333335</ele><time>2026-05-01T13:09:06Z</time></trkpt><trkpt lat="42.78223598094952" lon="12.5818563762815"><ele>1084.1666666666667</ele><time>2026-05-01T13:09:09Z</time></trkpt><trkpt lat="42.78216075442676" lon="12.581884758439852"><ele>1085.0</ele><time>2026-05-01T13:09:12Z</time></trkpt><trkpt lat="42.78208930672192" lon="12.58192934626354"><ele>1085.0</ele><time>2026-05-01T13:09:16Z</time></trkpt><trkpt lat="42.782020123765896" lon="12.581958724187023"><ele>1085.0</ele><time>2026-05-01T13:09:20Z</time></trkpt><trkpt lat="42.78194349933105" lon="12.581955522757172"><ele>1085.0</ele><time>2026-05-01T13:09:27Z</time></trkpt><trkpt lat="42.78188906420644" lon="12.582003551338065"><ele>1085.0</ele><time>2026-05-01T13:09:32Z</time></trkpt><trkpt lat="42.781830295015546" lon="12.582048959466993"><ele>1085.0</ele><time>2026-05-01T13:09:36Z</time></trkpt><trkpt lat="42.78176986221906" lon="12.582075658922266"><ele>1085.0</ele><time>2026-05-01T13:09:40Z</time></trkpt><trkpt lat="42.78170115993362" lon="12.582099321064511"><ele>1085.0</ele><time>2026-05-01T13:09:44Z</time></trkpt><trkpt lat="42.781630783209934" lon="12.582135632893443"><ele>1082.7142857142858</ele><time>2026-05-01T13:09:48Z</time></trkpt><trkpt lat="42.78156854197196" lon="12.582167816424512"><ele>1080.4285714285716</ele><time>2026-05-01T13:09:53Z</time></trkpt><trkpt lat="42.78149131847743" lon="12.58218684309376"><ele>1078.142857142857</ele><time>2026-05-01T13:09:58Z</time></trkpt><trkpt lat="42.781410510028316" lon="12.58219817860318"><ele>1075.857142857143</ele><time>2026-05-01T13:10:02Z</time></trkpt><trkpt lat="42.78132951512989" lon="12.582232364181879"><ele>1073.5714285714287</ele><time>2026-05-01T13:10:06Z</time></trkpt><trkpt lat="42.78126390632473" lon="12.582254244987842"><ele>1071.2857142857142</ele><time>2026-05-01T13:10:09Z</time></trkpt><trkpt lat="42.78119861179096" lon="12.582277140008115"><ele>1069.0</ele><time>2026-05-01T13:10:12Z</time></trkpt><trkpt lat="42.78112671443427" lon="12.582303578432915"><ele>1069.0</ele><time>2026-05-01T13:10:16Z</time></trkpt><trkpt lat="42.78106500708909" lon="12.582334966036473"><ele>1069.0</ele><time>2026-05-01T13:10:19Z</time></trkpt><trkpt lat="42.78099923245419" lon="12.582367089416959"><ele>1069.0</ele><time>2026-05-01T13:10:24Z</time></trkpt><trkpt lat="42.78092327781578" lon="12.582400899587443"><ele>1069.0</ele><time>2026-05-01T13:10:29Z</time></trkpt><trkpt lat="42.78086972187069" lon="12.582451691397408"><ele>1069.0</ele><time>2026-05-01T13:10:33Z</time></trkpt><trkpt lat="42.780807931011246" lon="12.582495381825877"><ele>1069.0</ele><time>2026-05-01T13:10:37Z</time></trkpt><trkpt lat="42.78075460782734" lon="12.582545400208563"><ele>1069.0</ele><time>2026-05-01T13:10:40Z</time></trkpt><trkpt lat="42.78069019993853" lon="12.58260263239254"><ele>1066.1666666666665</ele><time>2026-05-01T13:10:43Z</time></trkpt><trkpt lat="42.78063422972004" lon="12.582657180174898"><ele>1063.3333333333333</ele><time>2026-05-01T13:10:46Z</time></trkpt><trkpt lat="42.78056847851707" lon="12.582717356919948"><ele>1060.5</ele><time>2026-05-01T13:10:49Z</time></trkpt><trkpt lat="42.780508101123516" lon="12.582802544168397"><ele>1057.6666666666667</ele><time>2026-05-01T13:10:52Z</time></trkpt><trkpt lat="42.780461311334456" lon="12.58288806879087"><ele>1054.8333333333335</ele><time>2026-05-01T13:10:55Z</time></trkpt><trkpt lat="42.78041981640996" lon="12.582964893444958"><ele>1052.0</ele><time>2026-05-01T13:10:59Z</time></trkpt><trkpt lat="42.7803751808809" lon="12.583046663953047"><ele>1049.8</ele><time>2026-05-01T13:11:04Z</time></trkpt><trkpt lat="42.78030725640435" lon="12.583143258725784"><ele>1047.6</ele><time>2026-05-01T13:11:18Z</time></trkpt><trkpt lat="42.78025097651937" lon="12.583261933831725"><ele>1045.3999999999999</ele><time>2026-05-01T13:11:20Z</time></trkpt><trkpt lat="42.780202375118336" lon="12.583421774728007"><ele>1043.2</ele><time>2026-05-01T13:11:22Z</time></trkpt><trkpt lat="42.780131599160725" lon="12.583554877773256"><ele>1041.0</ele><time>2026-05-01T13:11:24Z</time></trkpt><trkpt lat="42.78008862370325" lon="12.583622802204648"><ele>1041.3333333333333</ele><time>2026-05-01T13:11:25Z</time></trkpt><trkpt lat="42.78003599165435" lon="12.583691628223853"><ele>1041.6666666666667</ele><time>2026-05-01T13:11:26Z</time></trkpt><trkpt lat="42.77997637954927" lon="12.58374035620205"><ele>1042.0</ele><time>2026-05-01T13:11:27Z</time></trkpt><trkpt lat="42.779919911988564" lon="12.583789278992098"><ele>1042.3333333333335</ele><time>2026-05-01T13:11:28Z</time></trkpt><trkpt lat="42.77985131784966" lon="12.58385912194894"><ele>1042.6666666666667</ele><time>2026-05-01T13:11:29Z</time></trkpt><trkpt lat="42.779788745118026" lon="12.583931641224956"><ele>1043.0</ele><time>2026-05-01T13:11:30Z</time></trkpt><trkpt lat="42.77973283453641" lon="12.583995392675538"><ele>1043.0</ele><time>2026-05-01T13:11:31Z</time></trkpt><trkpt lat="42.77967205798642" lon="12.584062654192614"><ele>1043.0</ele><time>2026-05-01T13:11:32Z</time></trkpt><trkpt lat="42.77956178020196" lon="12.584158878763843"><ele>1043.0</ele><time>2026-05-01T13:11:34Z</time></trkpt><trkpt lat="42.779498491738444" lon="12.584207649174873"><ele>1043.0</ele><time>2026-05-01T13:11:35Z</time></trkpt><trkpt lat="42.779435438179775" lon="12.584250797289098"><ele>1043.0</ele><time>2026-05-01T13:11:36Z</time></trkpt><trkpt lat="42.779352015513204" lon="12.58427059041546"><ele>1043.0</ele><time>2026-05-01T13:11:38Z</time></trkpt><trkpt lat="42.779283796611644" lon="12.584312449841574"><ele>1043.8</ele><time>2026-05-01T13:11:40Z</time></trkpt><trkpt lat="42.77920802251936" lon="12.58437688716368"><ele>1044.6</ele><time>2026-05-01T13:11:42Z</time></trkpt><trkpt lat="42.77914211601192" lon="12.584430494739903"><ele>1045.4</ele><time>2026-05-01T13:11:44Z</time></trkpt><trkpt lat="42.77906448228672" lon="12.584507798930968"><ele>1046.2</ele><time>2026-05-01T13:11:46.001Z</time></trkpt><trkpt lat="42.778990435399926" lon="12.58457432587793"><ele>1047.0</ele><time>2026-05-01T13:11:48.001Z</time></trkpt><trkpt lat="42.778896885771644" lon="12.58464343701996"><ele>1047.0</ele><time>2026-05-01T13:11:50.001Z</time></trkpt><trkpt lat="42.77881595291126" lon="12.584711066991952"><ele>1047.0</ele><time>2026-05-01T13:11:52.001Z</time></trkpt><trkpt lat="42.778742013426225" lon="12.584797827731448"><ele>1047.0</ele><time>2026-05-01T13:11:54.001Z</time></trkpt><trkpt lat="42.77866711138324" lon="12.58487588640031"><ele>1047.0</ele><time>2026-05-01T13:11:56.001Z</time></trkpt><trkpt lat="42.77859180392448" lon="12.58496065313555"><ele>1047.0</ele><time>2026-05-01T13:11:58.001Z</time></trkpt><trkpt lat="42.77851388908548" lon="12.585042789225549"><ele>1047.3333333333333</ele><time>2026-05-01T13:12:00.001Z</time></trkpt><trkpt lat="42.77844421244477" lon="12.585101055007145"><ele>1047.6666666666667</ele><time>2026-05-01T13:12:02Z</time></trkpt><trkpt lat="42.7783801528413" lon="12.585147724800787"><ele>1048.0</ele><time>2026-05-01T13:12:04Z</time></trkpt><trkpt lat="42.7783260343033" lon="12.585207357939444"><ele>1048.3333333333335</ele><time>2026-05-01T13:12:06Z</time></trkpt><trkpt lat="42.77826442662547" lon="12.585256146433679"><ele>1048.6666666666667</ele><time>2026-05-01T13:12:08Z</time></trkpt><trkpt lat="42.77818802190463" lon="12.585322993075819"><ele>1049.0</ele><time>2026-05-01T13:12:11Z</time></trkpt><trkpt lat="42.7781049661534" lon="12.585348973480937"><ele>1047.5</ele><time>2026-05-01T13:12:14Z</time></trkpt><trkpt lat="42.77801542625916" lon="12.585354468576652"><ele>1046.0</ele><time>2026-05-01T13:12:17Z</time></trkpt><trkpt lat="42.777929376220264" lon="12.585385100766695"><ele>1044.5</ele><time>2026-05-01T13:12:20Z</time></trkpt><trkpt lat="42.77786884788833" lon="12.585433063713253"><ele>1043.0</ele><time>2026-05-01T13:12:22Z</time></trkpt><trkpt lat="42.77781209886405" lon="12.585479281588283"><ele>1041.5</ele><time>2026-05-01T13:12:24Z</time></trkpt><trkpt lat="42.77774758555521" lon="12.585527135042694"><ele>1040.0</ele><time>2026-05-01T13:12:26Z</time></trkpt><trkpt lat="42.77768740429849" lon="12.585574929215678"><ele>1038.3333333333335</ele><time>2026-05-01T13:12:28Z</time></trkpt><trkpt lat="42.777611569671535" lon="12.585648373752273"><ele>1036.6666666666667</ele><time>2026-05-01T13:12:31Z</time></trkpt><trkpt lat="42.77755222716494" lon="12.585682399214422"><ele>1035.0</ele><time>2026-05-01T13:12:33Z</time></trkpt><trkpt lat="42.77746437099807" lon="12.585707060569069"><ele>1033.3333333333333</ele><time>2026-05-01T13:12:36Z</time></trkpt><trkpt lat="42.77737428239085" lon="12.585715127964866"><ele>1031.6666666666665</ele><time>2026-05-01T13:12:39Z</time></trkpt><trkpt lat="42.777310041475005" lon="12.585700534697702"><ele>1030.0</ele><time>2026-05-01T13:12:42Z</time></trkpt><trkpt lat="42.77722847185538" lon="12.5856740453093"><ele>1030.0</ele><time>2026-05-01T13:12:46Z</time></trkpt><trkpt lat="42.77716550485162" lon="12.585641790085853"><ele>1030.0</ele><time>2026-05-01T13:12:49Z</time></trkpt><trkpt lat="42.77708552343488" lon="12.585626527095252"><ele>1030.0</ele><time>2026-05-01T13:12:52Z</time></trkpt><trkpt lat="42.777022559842166" lon="12.585615009041613"><ele>1030.0</ele><time>2026-05-01T13:12:55Z</time></trkpt><trkpt lat="42.77695067810624" lon="12.585607332081992"><ele>1030.0</ele><time>2026-05-01T13:12:59Z</time></trkpt><trkpt lat="42.77687345103723" lon="12.585603414862424"><ele>1030.0</ele><time>2026-05-01T13:13:03Z</time></trkpt><trkpt lat="42.77680730116671" lon="12.585609656639528"><ele>1030.0</ele><time>2026-05-01T13:13:08Z</time></trkpt><trkpt lat="42.776726848037214" lon="12.585636202200872"><ele>1027.6666666666665</ele><time>2026-05-01T13:15:53Z</time></trkpt><trkpt lat="42.77666820482449" lon="12.585707525408132"><ele>1025.3333333333333</ele><time>2026-05-01T13:15:56Z</time></trkpt><trkpt lat="42.776623138694006" lon="12.58579206212495"><ele>1023.0</ele><time>2026-05-01T13:15:58.999Z</time></trkpt><trkpt lat="42.77657881064597" lon="12.58589820980357"><ele>1020.6666666666667</ele><time>2026-05-01T13:16:01.999Z</time></trkpt><trkpt lat="42.77656984228995" lon="12.586024322703944"><ele>1018.3333333333334</ele><time>2026-05-01T13:16:04.999Z</time></trkpt><trkpt lat="42.776567753727896" lon="12.586118705854874"><ele>1016.0</ele><time>2026-05-01T13:16:06.999Z</time></trkpt><trkpt lat="42.77654701839006" lon="12.58621102648718"><ele>1014.3333333333334</ele><time>2026-05-01T13:16:08.999Z</time></trkpt><trkpt lat="42.77651410719811" lon="12.586316951033211"><ele>1012.6666666666667</ele><time>2026-05-01T13:16:10.999Z</time></trkpt><trkpt lat="42.776472141641875" lon="12.586424695968692"><ele>1011.0</ele><time>2026-05-01T13:16:12.999Z</time></trkpt><trkpt lat="42.776430307293005" lon="12.586521422655675"><ele>1009.3333333333333</ele><time>2026-05-01T13:16:14.999Z</time></trkpt><trkpt lat="42.776398897233925" lon="12.586613612895455"><ele>1007.6666666666666</ele><time>2026-05-01T13:16:16.999Z</time></trkpt><trkpt lat="42.776334640537" lon="12.5867397772997"><ele>1006.0</ele><time>2026-05-01T13:16:18.999Z</time></trkpt><trkpt lat="42.77625381659825" lon="12.586857795291161"><ele>1006.0</ele><time>2026-05-01T13:16:20.999Z</time></trkpt><trkpt lat="42.77620555178847" lon="12.586922305255685"><ele>1005.9999999999999</ele><time>2026-05-01T13:16:21.999Z</time></trkpt><trkpt lat="42.776120199771654" lon="12.587008421877714"><ele>1005.9999999999999</ele><time>2026-05-01T13:16:23.999Z</time></trkpt><trkpt lat="42.77603201769556" lon="12.587140897620449"><ele>1006.0</ele><time>2026-05-01T13:16:25.999Z</time></trkpt><trkpt lat="42.7759745400026" lon="12.5872132317672"><ele>1006.0</ele><time>2026-05-01T13:16:26.999Z</time></trkpt><trkpt lat="42.775926836806704" lon="12.587282624053723"><ele>1009.5999999999999</ele><time>2026-05-01T13:16:27.999Z</time></trkpt><trkpt lat="42.77587262996534" lon="12.58734593237058"><ele>1013.1999999999999</ele><time>2026-05-01T13:16:28.999Z</time></trkpt><trkpt lat="42.77579539227778" lon="12.587448777437201"><ele>1016.8000000000001</ele><time>2026-05-01T13:16:30.999Z</time></trkpt><trkpt lat="42.77573850791459" lon="12.587522072528369"><ele>1020.4000000000001</ele><time>2026-05-01T13:16:32.999Z</time></trkpt><trkpt lat="42.775670914841776" lon="12.587612713126598"><ele>1024.0</ele><time>2026-05-01T13:16:34.999Z</time></trkpt><trkpt lat="42.775598158161124" lon="12.587707549053109"><ele>1024.0</ele><time>2026-05-01T13:16:36.999Z</time></trkpt><trkpt lat="42.775514702900004" lon="12.587794303571847"><ele>1024.0</ele><time>2026-05-01T13:16:38.999Z</time></trkpt><trkpt lat="42.775454805794304" lon="12.587900286109146"><ele>1024.0</ele><time>2026-05-01T13:16:40.999Z</time></trkpt><trkpt lat="42.77542120818824" lon="12.588020428208353"><ele>1024.0</ele><time>2026-05-01T13:16:42.999Z</time></trkpt><trkpt lat="42.7753977780401" lon="12.58813748716787"><ele>1024.0</ele><time>2026-05-01T13:16:44.999Z</time></trkpt><trkpt lat="42.775394341073785" lon="12.588226347459521"><ele>1025.0</ele><time>2026-05-01T13:16:46.999Z</time></trkpt><trkpt lat="42.77535800106352" lon="12.588298508713153"><ele>1026.0</ele><time>2026-05-01T13:16:48.999Z</time></trkpt><trkpt lat="42.77527307309464" lon="12.588358007365175"><ele>1027.0</ele><time>2026-05-01T13:16:50.999Z</time></trkpt><trkpt lat="42.77519374766992" lon="12.588358160167003"><ele>1028.0</ele><time>2026-05-01T13:16:52.999Z</time></trkpt><trkpt lat="42.77510646683312" lon="12.588356793373912"><ele>1029.0</ele><time>2026-05-01T13:16:54.999Z</time></trkpt><trkpt lat="42.775000772389" lon="12.588344921683388"><ele>1030.0</ele><time>2026-05-01T13:16:56.999Z</time></trkpt><trkpt lat="42.77489490340817" lon="12.58827068912554"><ele>1034.4</ele><time>2026-05-01T13:16:58.999Z</time></trkpt><trkpt lat="42.77479376907572" lon="12.588213506258889"><ele>1038.8</ele><time>2026-05-01T13:17:00.999Z</time></trkpt><trkpt lat="42.77469766636746" lon="12.588182400022855"><ele>1043.2</ele><time>2026-05-01T13:17:02.999Z</time></trkpt><trkpt lat="42.77461809189623" lon="12.588160307879072"><ele>1047.6</ele><time>2026-05-01T13:17:04.999Z</time></trkpt><trkpt lat="42.77451980533706" lon="12.58811736643298"><ele>1052.0</ele><time>2026-05-01T13:17:06.999Z</time></trkpt><trkpt lat="42.77443147641348" lon="12.588106571513547"><ele>1055.8</ele><time>2026-05-01T13:17:08.999Z</time></trkpt><trkpt lat="42.774331405417094" lon="12.588100069646021"><ele>1059.6</ele><time>2026-05-01T13:17:10.999Z</time></trkpt><trkpt lat="42.77424245873222" lon="12.588087240434632"><ele>1063.3999999999999</ele><time>2026-05-01T13:17:12.999Z</time></trkpt><trkpt lat="42.7741560506672" lon="12.588093059338625"><ele>1067.2</ele><time>2026-05-01T13:17:14.999Z</time></trkpt><trkpt lat="42.774062909745204" lon="12.588096960009283"><ele>1071.0</ele><time>2026-05-01T13:17:16.999Z</time></trkpt><trkpt lat="42.77396129842043" lon="12.588097329460789"><ele>1071.0</ele><time>2026-05-01T13:17:18.999Z</time></trkpt><trkpt lat="42.77385959379664" lon="12.588098282466305"><ele>1071.0</ele><time>2026-05-01T13:17:20.999Z</time></trkpt><trkpt lat="42.77375872879483" lon="12.588110467137412"><ele>1071.0</ele><time>2026-05-01T13:17:22.999Z</time></trkpt><trkpt lat="42.773657774154486" lon="12.588110344373646"><ele>1071.0</ele><time>2026-05-01T13:17:24.999Z</time></trkpt><trkpt lat="42.7735591932286" lon="12.588125153927486"><ele>1071.0</ele><time>2026-05-01T13:17:26.999Z</time></trkpt><trkpt lat="42.77347167138152" lon="12.588113558996975"><ele>1071.8333333333333</ele><time>2026-05-01T13:17:28.999Z</time></trkpt><trkpt lat="42.77337864950001" lon="12.588127097733967"><ele>1072.6666666666667</ele><time>2026-05-01T13:17:30.999Z</time></trkpt><trkpt lat="42.77329577666776" lon="12.588143297116993"><ele>1073.5</ele><time>2026-05-01T13:17:33.999Z</time></trkpt><trkpt lat="42.77323172118091" lon="12.58814703412404"><ele>1074.3333333333335</ele><time>2026-05-01T13:17:35.999Z</time></trkpt><trkpt lat="42.77316137392747" lon="12.58815004253283"><ele>1075.1666666666667</ele><time>2026-05-01T13:17:38.999Z</time></trkpt><trkpt lat="42.77308145136438" lon="12.588193623395938"><ele>1076.0</ele><time>2026-05-01T13:17:42.999Z</time></trkpt><trkpt lat="42.773018086037766" lon="12.588228290184647"><ele>1076.0</ele><time>2026-05-01T13:17:44.999Z</time></trkpt><trkpt lat="42.772946436987816" lon="12.588276437243517"><ele>1076.0</ele><time>2026-05-01T13:17:46.999Z</time></trkpt><trkpt lat="42.77287086018129" lon="12.588345865879997"><ele>1076.0</ele><time>2026-05-01T13:17:48.999Z</time></trkpt><trkpt lat="42.77281094690243" lon="12.588404875241231"><ele>1076.0</ele><time>2026-05-01T13:17:50.999Z</time></trkpt><trkpt lat="42.77274957475236" lon="12.588448207220633"><ele>1076.0</ele><time>2026-05-01T13:17:52.999Z</time></trkpt><trkpt lat="42.77267718861551" lon="12.588515593456625"><ele>1076.0</ele><time>2026-05-01T13:17:54.999Z</time></trkpt><trkpt lat="42.77259608507066" lon="12.588587830189857"><ele>1076.0</ele><time>2026-05-01T13:17:56.999Z</time></trkpt><trkpt lat="42.772521104232794" lon="12.588662993182938"><ele>1076.0</ele><time>2026-05-01T13:17:58.999Z</time></trkpt><trkpt lat="42.772454637116965" lon="12.588725654998056"><ele>1076.0</ele><time>2026-05-01T13:18:00.999Z</time></trkpt><trkpt lat="42.77239949276208" lon="12.588787388880467"><ele>1076.0</ele><time>2026-05-01T13:18:02.999Z</time></trkpt><trkpt lat="42.77234027862691" lon="12.588844091872975"><ele>1076.0</ele><time>2026-05-01T13:18:04.999Z</time></trkpt><trkpt lat="42.77226947596686" lon="12.588910841687307"><ele>1076.0</ele><time>2026-05-01T13:18:07.999Z</time></trkpt><trkpt lat="42.77221096620398" lon="12.588945587651406"><ele>1076.0</ele><time>2026-05-01T13:18:10Z</time></trkpt><trkpt lat="42.7721381720097" lon="12.58901062094307"><ele>1076.0</ele><time>2026-05-01T13:18:13Z</time></trkpt><trkpt lat="42.77207174967274" lon="12.58908732355111"><ele>1076.0</ele><time>2026-05-01T13:18:16Z</time></trkpt><trkpt lat="42.77201176961067" lon="12.58914159252661"><ele>1076.0</ele><time>2026-05-01T13:18:19Z</time></trkpt><trkpt lat="42.77195860547838" lon="12.58919813142212"><ele>1076.0</ele><time>2026-05-01T13:18:22Z</time></trkpt><trkpt lat="42.77187231915422" lon="12.589238537015282"><ele>1076.0</ele><time>2026-05-01T13:18:25Z</time></trkpt><trkpt lat="42.7717874353615" lon="12.58926706588807"><ele>1073.3333333333335</ele><time>2026-05-01T13:18:28Z</time></trkpt><trkpt lat="42.771716639746806" lon="12.58932483581242"><ele>1070.6666666666667</ele><time>2026-05-01T13:18:31Z</time></trkpt><trkpt lat="42.77162735914731" lon="12.589342060492953"><ele>1068.0</ele><time>2026-05-01T13:18:34Z</time></trkpt><trkpt lat="42.771551003444344" lon="12.589380951132494"><ele>1065.3333333333333</ele><time>2026-05-01T13:18:37Z</time></trkpt><trkpt lat="42.771460937251796" lon="12.589417830556222"><ele>1062.6666666666665</ele><time>2026-05-01T13:18:40Z</time></trkpt><trkpt lat="42.77137490576841" lon="12.589464793612017"><ele>1060.0</ele><time>2026-05-01T13:18:43Z</time></trkpt><trkpt lat="42.771286380777916" lon="12.58950233826974"><ele>1059.1666666666665</ele><time>2026-05-01T13:18:46Z</time></trkpt><trkpt lat="42.77121891823908" lon="12.589531682138297"><ele>1058.3333333333333</ele><time>2026-05-01T13:18:48Z</time></trkpt><trkpt lat="42.77115091951773" lon="12.589557263043186"><ele>1057.5</ele><time>2026-05-01T13:18:50Z</time></trkpt><trkpt lat="42.77105903662565" lon="12.589581299263935"><ele>1056.6666666666667</ele><time>2026-05-01T13:18:52Z</time></trkpt><trkpt lat="42.77097117773345" lon="12.589602342416132"><ele>1055.8333333333335</ele><time>2026-05-01T13:18:54Z</time></trkpt><trkpt lat="42.770886611174696" lon="12.589603877258197"><ele>1055.0</ele><time>2026-05-01T13:18:56Z</time></trkpt><trkpt lat="42.770791115661225" lon="12.589589799919201"><ele>1054.2</ele><time>2026-05-01T13:18:58Z</time></trkpt><trkpt lat="42.77069180037898" lon="12.589567587209357"><ele>1053.4</ele><time>2026-05-01T13:19:00Z</time></trkpt><trkpt lat="42.77060298729092" lon="12.589529494256118"><ele>1052.6</ele><time>2026-05-01T13:19:02Z</time></trkpt><trkpt lat="42.77049725860671" lon="12.589491993686432"><ele>1051.8</ele><time>2026-05-01T13:19:04Z</time></trkpt><trkpt lat="42.77039320590797" lon="12.589468946747795"><ele>1051.0</ele><time>2026-05-01T13:19:06Z</time></trkpt><trkpt lat="42.77028993787689" lon="12.58944118364732"><ele>1049.3999999999999</ele><time>2026-05-01T13:19:08Z</time></trkpt><trkpt lat="42.77019114355762" lon="12.58942548234528"><ele>1047.8</ele><time>2026-05-01T13:19:10Z</time></trkpt><trkpt lat="42.77008610170987" lon="12.589413485744862"><ele>1046.1999999999998</ele><time>2026-05-01T13:19:12Z</time></trkpt><trkpt lat="42.769990962467446" lon="12.589407201156043"><ele>1044.6</ele><time>2026-05-01T13:19:14Z</time></trkpt><trkpt lat="42.76988659142909" lon="12.589393342556992"><ele>1043.0</ele><time>2026-05-01T13:19:16Z</time></trkpt><trkpt lat="42.7697924813139" lon="12.589373111469051"><ele>1043.0</ele><time>2026-05-01T13:19:18Z</time></trkpt><trkpt lat="42.769727579531825" lon="12.58935812338381"><ele>1043.0</ele><time>2026-05-01T13:19:20Z</time></trkpt><trkpt lat="42.769671863798486" lon="12.58931190325069"><ele>1043.0</ele><time>2026-05-01T13:19:23.999Z</time></trkpt><trkpt lat="42.76961766460874" lon="12.589254040903665"><ele>1043.0</ele><time>2026-05-01T13:19:27.999Z</time></trkpt><trkpt lat="42.76955096540676" lon="12.589218881789781"><ele>1043.0</ele><time>2026-05-01T13:19:30.999Z</time></trkpt><trkpt lat="42.76948496989085" lon="12.58914771090103"><ele>1043.0</ele><time>2026-05-01T13:19:34.999Z</time></trkpt><trkpt lat="42.76943162512781" lon="12.589061670708947"><ele>1043.0</ele><time>2026-05-01T13:19:37.999Z</time></trkpt><trkpt lat="42.76942750304024" lon="12.588975203455917"><ele>1043.0</ele><time>2026-05-01T13:19:40.999Z</time></trkpt><trkpt lat="42.76940359359551" lon="12.58888413263087"><ele>1043.0</ele><time>2026-05-01T13:19:43.999Z</time></trkpt><trkpt lat="42.76937700693509" lon="12.58877350868826"><ele>1043.0</ele><time>2026-05-01T13:19:46.999Z</time></trkpt><trkpt lat="42.769349347971726" lon="12.588679383225005"><ele>1043.0</ele><time>2026-05-01T13:19:48.999Z</time></trkpt><trkpt lat="42.76929955600849" lon="12.588562127203849"><ele>1043.0</ele><time>2026-05-01T13:19:50.999Z</time></trkpt><trkpt lat="42.76927692921994" lon="12.588469229664373"><ele>1043.0</ele><time>2026-05-01T13:19:52.999Z</time></trkpt><trkpt lat="42.76922899873238" lon="12.58837252499434"><ele>1041.0</ele><time>2026-05-01T13:19:54.999Z</time></trkpt><trkpt lat="42.769186970714536" lon="12.588267439063598"><ele>1039.0</ele><time>2026-05-01T13:19:56.999Z</time></trkpt><trkpt lat="42.76915007743031" lon="12.588153121222163"><ele>1037.0</ele><time>2026-05-01T13:19:58.999Z</time></trkpt><trkpt lat="42.76909940866843" lon="12.588072408708863"><ele>1035.0</ele><time>2026-05-01T13:20:00.999Z</time></trkpt><trkpt lat="42.76906288763624" lon="12.587981790124683"><ele>1033.0</ele><time>2026-05-01T13:20:02.999Z</time></trkpt><trkpt lat="42.76903242505799" lon="12.587887225760177"><ele>1031.0</ele><time>2026-05-01T13:20:04.999Z</time></trkpt><trkpt lat="42.768993653953075" lon="12.58781544328761"><ele>1030.8333333333335</ele><time>2026-05-01T13:20:07Z</time></trkpt><trkpt lat="42.76894183132228" lon="12.587718996578928"><ele>1030.6666666666667</ele><time>2026-05-01T13:20:10Z</time></trkpt><trkpt lat="42.76888851919717" lon="12.587621125730305"><ele>1030.5</ele><time>2026-05-01T13:20:14Z</time></trkpt><trkpt lat="42.7688395194084" lon="12.587560737996279"><ele>1030.3333333333333</ele><time>2026-05-01T13:20:17Z</time></trkpt><trkpt lat="42.768792707199886" lon="12.587441103056006"><ele>1030.1666666666665</ele><time>2026-05-01T13:20:20Z</time></trkpt><trkpt lat="42.76876739966327" lon="12.58734925940632"><ele>1030.0</ele><time>2026-05-01T13:20:22Z</time></trkpt><trkpt lat="42.76872634368441" lon="12.587257500218572"><ele>1030.0</ele><time>2026-05-01T13:20:25Z</time></trkpt><trkpt lat="42.76863885670078" lon="12.587276279422868"><ele>1030.0</ele><time>2026-05-01T13:20:28Z</time></trkpt><trkpt lat="42.768582323804345" lon="12.587330238064588"><ele>1030.0</ele><time>2026-05-01T13:20:30Z</time></trkpt><trkpt lat="42.76851577123527" lon="12.587388793505612"><ele>1030.0</ele><time>2026-05-01T13:20:32Z</time></trkpt><trkpt lat="42.768449229982856" lon="12.587434910572188"><ele>1030.0</ele><time>2026-05-01T13:20:34Z</time></trkpt><trkpt lat="42.76837610019846" lon="12.587488610834214"><ele>1030.0</ele><time>2026-05-01T13:20:36Z</time></trkpt><trkpt lat="42.768301137008905" lon="12.587542649790016"><ele>1028.6666666666665</ele><time>2026-05-01T13:20:38Z</time></trkpt><trkpt lat="42.76823863915694" lon="12.587584948683306"><ele>1027.3333333333333</ele><time>2026-05-01T13:20:40Z</time></trkpt><trkpt lat="42.76815784846838" lon="12.587538794422725"><ele>1026.0</ele><time>2026-05-01T13:20:43Z</time></trkpt><trkpt lat="42.76813463068324" lon="12.587449765411389"><ele>1024.6666666666667</ele><time>2026-05-01T13:20:45Z</time></trkpt><trkpt lat="42.7681172940638" lon="12.587366017899964"><ele>1023.3333333333334</ele><time>2026-05-01T13:20:48Z</time></trkpt><trkpt lat="42.76808576344824" lon="12.587279664241768"><ele>1022.0</ele><time>2026-05-01T13:20:50Z</time></trkpt><trkpt lat="42.76806023559023" lon="12.587161309115745"><ele>1022.0000000000001</ele><time>2026-05-01T13:20:52Z</time></trkpt><trkpt lat="42.768040087607325" lon="12.587043788824074"><ele>1022.0</ele><time>2026-05-01T13:20:54Z</time></trkpt><trkpt lat="42.768031434345474" lon="12.586904619864617"><ele>1022.0</ele><time>2026-05-01T13:20:56Z</time></trkpt><trkpt lat="42.76804117842913" lon="12.58679051829628"><ele>1022.0</ele><time>2026-05-01T13:20:58Z</time></trkpt><trkpt lat="42.76803495330641" lon="12.586680674444418"><ele>1022.0000000000001</ele><time>2026-05-01T13:21:00Z</time></trkpt><trkpt lat="42.7680279425635" lon="12.586588617250639"><ele>1022.0</ele><time>2026-05-01T13:21:02Z</time></trkpt><trkpt lat="42.76804709821015" lon="12.586488567062323"><ele>1022.0000000000001</ele><time>2026-05-01T13:21:04Z</time></trkpt><trkpt lat="42.76808618476766" lon="12.58641782976643"><ele>1022.0</ele><time>2026-05-01T13:21:06Z</time></trkpt><trkpt lat="42.768138857524924" lon="12.586350346763496"><ele>1022.0</ele><time>2026-05-01T13:21:08Z</time></trkpt><trkpt lat="42.76820821877192" lon="12.586299308450613"><ele>1022.0</ele><time>2026-05-01T13:21:10Z</time></trkpt><trkpt lat="42.76826615595057" lon="12.586390300596026"><ele>1022.0000000000001</ele><time>2026-05-01T13:21:13Z</time></trkpt><trkpt lat="42.768203971080844" lon="12.586452660068911"><ele>1022.0</ele><time>2026-05-01T13:21:15Z</time></trkpt><trkpt lat="42.76812543279426" lon="12.586429175232686"><ele>1022.0</ele><time>2026-05-01T13:21:18Z</time></trkpt><trkpt lat="42.768060546379196" lon="12.586458033535715"><ele>1022.0</ele><time>2026-05-01T13:21:22Z</time></trkpt><trkpt lat="42.76800262008902" lon="12.586500892771415"><ele>1022.0</ele><time>2026-05-01T13:21:50Z</time></trkpt><trkpt lat="42.767997084364346" lon="12.586640189723143"><ele>1022.0</ele><time>2026-05-01T13:21:53Z</time></trkpt><trkpt lat="42.768038722295685" lon="12.586785335954284"><ele>1022.0</ele><time>2026-05-01T13:21:55Z</time></trkpt><trkpt lat="42.768086579235344" lon="12.586929542515941"><ele>1022.0</ele><time>2026-05-01T13:21:57Z</time></trkpt><trkpt lat="42.76814039560714" lon="12.587055225035183"><ele>1022.0</ele><time>2026-05-01T13:21:59Z</time></trkpt><trkpt lat="42.76817521669343" lon="12.587167435076214"><ele>1022.0</ele><time>2026-05-01T13:22:01Z</time></trkpt><trkpt lat="42.768193497153746" lon="12.587279474032352"><ele>1022.0</ele><time>2026-05-01T13:22:03Z</time></trkpt><trkpt lat="42.76822070448733" lon="12.587402063173894"><ele>1022.0</ele><time>2026-05-01T13:22:05Z</time></trkpt><trkpt lat="42.76823548991793" lon="12.5875087158826"><ele>1022.0</ele><time>2026-05-01T13:22:07Z</time></trkpt><trkpt lat="42.76824265208823" lon="12.587614574354472"><ele>1022.0</ele><time>2026-05-01T13:22:09Z</time></trkpt><trkpt lat="42.76821485700019" lon="12.587692184902776"><ele>1022.0</ele><time>2026-05-01T13:22:11Z</time></trkpt><trkpt lat="42.76812556758796" lon="12.58776134616608"><ele>1022.0</ele><time>2026-05-01T13:22:13Z</time></trkpt><trkpt lat="42.76804118081543" lon="12.587852779259398"><ele>1022.0</ele><time>2026-05-01T13:22:15Z</time></trkpt><trkpt lat="42.767968668098604" lon="12.58798278150512"><ele>1020.5</ele><time>2026-05-01T13:22:17Z</time></trkpt><trkpt lat="42.767915751806505" lon="12.588141589449734"><ele>1019.0</ele><time>2026-05-01T13:22:19Z</time></trkpt><trkpt lat="42.76784886187538" lon="12.588298158858118"><ele>1017.5</ele><time>2026-05-01T13:22:21Z</time></trkpt><trkpt lat="42.76779221816784" lon="12.588433771408353"><ele>1016.0</ele><time>2026-05-01T13:22:23Z</time></trkpt><trkpt lat="42.76772321022868" lon="12.588531655551636"><ele>1015.1666666666667</ele><time>2026-05-01T13:22:25Z</time></trkpt><trkpt lat="42.767659826053695" lon="12.588621844334037"><ele>1014.3333333333334</ele><time>2026-05-01T13:22:27Z</time></trkpt><trkpt lat="42.76761545608712" lon="12.588728713552603"><ele>1013.5</ele><time>2026-05-01T13:22:29Z</time></trkpt><trkpt lat="42.767565228087115" lon="12.588837507981989"><ele>1012.6666666666667</ele><time>2026-05-01T13:22:31Z</time></trkpt><trkpt lat="42.767516623420235" lon="12.588913186293656"><ele>1011.8333333333334</ele><time>2026-05-01T13:22:33Z</time></trkpt><trkpt lat="42.76744551301244" lon="12.589006765902"><ele>1011.0</ele><time>2026-05-01T13:22:35Z</time></trkpt><trkpt lat="42.76736594102877" lon="12.589105178770353"><ele>1011.0</ele><time>2026-05-01T13:22:37Z</time></trkpt><trkpt lat="42.76727717531066" lon="12.589205027874138"><ele>1011.0</ele><time>2026-05-01T13:22:39Z</time></trkpt><trkpt lat="42.767216487356386" lon="12.589261235189296"><ele>1011.0</ele><time>2026-05-01T13:22:41Z</time></trkpt><trkpt lat="42.76715018218053" lon="12.589324898241092"><ele>1011.0</ele><time>2026-05-01T13:22:44Z</time></trkpt><trkpt lat="42.76707500178103" lon="12.589381071015126"><ele>1011.0</ele><time>2026-05-01T13:22:47Z</time></trkpt><trkpt lat="42.76700914742129" lon="12.589435034422117"><ele>1011.0</ele><time>2026-05-01T13:22:50Z</time></trkpt><trkpt lat="42.766963284965335" lon="12.589504427725766"><ele>1009.7142857142856</ele><time>2026-05-01T13:22:54Z</time></trkpt><trkpt lat="42.76693430524783" lon="12.589599405885291"><ele>1008.4285714285713</ele><time>2026-05-01T13:22:58Z</time></trkpt><trkpt lat="42.76689497726601" lon="12.589681396798476"><ele>1007.1428571428571</ele><time>2026-05-01T13:23:03Z</time></trkpt><trkpt lat="42.766839352321405" lon="12.58973156706517"><ele>1005.8571428571428</ele><time>2026-05-01T13:23:07Z</time></trkpt><trkpt lat="42.76677804176937" lon="12.589756799243077"><ele>1004.5714285714284</ele><time>2026-05-01T13:23:11Z</time></trkpt><trkpt lat="42.76670516034724" lon="12.589803530692803"><ele>1003.2857142857143</ele><time>2026-05-01T13:23:17Z</time></trkpt><trkpt lat="42.766639759374016" lon="12.58982512646848"><ele>1002.0</ele><time>2026-05-01T13:23:22Z</time></trkpt><trkpt lat="42.76658043593065" lon="12.589896597045243"><ele>1002.0</ele><time>2026-05-01T13:23:26Z</time></trkpt><trkpt lat="42.76653653429019" lon="12.589964419149684"><ele>1002.0</ele><time>2026-05-01T13:23:29Z</time></trkpt><trkpt lat="42.766478865194536" lon="12.590026593677916"><ele>1002.0</ele><time>2026-05-01T13:23:32Z</time></trkpt><trkpt lat="42.76643306379853" lon="12.59010939221506"><ele>1002.0</ele><time>2026-05-01T13:23:35Z</time></trkpt><trkpt lat="42.76638503813221" lon="12.590183317302992"><ele>1002.0</ele><time>2026-05-01T13:23:38Z</time></trkpt><trkpt lat="42.76634795401978" lon="12.590262718475062"><ele>1002.0</ele><time>2026-05-01T13:23:41Z</time></trkpt><trkpt lat="42.766311157368136" lon="12.590359407254986"><ele>1002.0</ele><time>2026-05-01T13:23:45Z</time></trkpt><trkpt lat="42.76628684118555" lon="12.590443094756454"><ele>999.7142857142858</ele><time>2026-05-01T13:23:49Z</time></trkpt><trkpt lat="42.766254766273484" lon="12.590522368796579"><ele>997.4285714285713</ele><time>2026-05-01T13:23:53Z</time></trkpt><trkpt lat="42.76620924468803" lon="12.590592972947777"><ele>995.1428571428571</ele><time>2026-05-01T13:23:58Z</time></trkpt><trkpt lat="42.76616318502853" lon="12.590653979802669"><ele>992.8571428571429</ele><time>2026-05-01T13:24:03Z</time></trkpt><trkpt lat="42.76609247397193" lon="12.590648730892863"><ele>990.5714285714287</ele><time>2026-05-01T13:24:09Z</time></trkpt><trkpt lat="42.766044100441185" lon="12.590585676414415"><ele>988.2857142857142</ele><time>2026-05-01T13:24:19.001Z</time></trkpt><trkpt lat="42.765994350653315" lon="12.590509324058953"><ele>986.0</ele><time>2026-05-01T13:24:22.001Z</time></trkpt><trkpt lat="42.76597449507037" lon="12.590355667552275"><ele>986.1666666666667</ele><time>2026-05-01T13:24:25.001Z</time></trkpt><trkpt lat="42.76594728316556" lon="12.590271976864535"><ele>986.3333333333334</ele><time>2026-05-01T13:24:26.001Z</time></trkpt><trkpt lat="42.76587528264187" lon="12.590233904298302"><ele>986.5</ele><time>2026-05-01T13:24:29.001Z</time></trkpt><trkpt lat="42.76578822753328" lon="12.590199021961176"><ele>986.6666666666667</ele><time>2026-05-01T13:24:32.001Z</time></trkpt><trkpt lat="42.76571793441645" lon="12.590226095460245"><ele>986.8333333333334</ele><time>2026-05-01T13:24:34.001Z</time></trkpt><trkpt lat="42.76563456020071" lon="12.590218272392212"><ele>987.0</ele><time>2026-05-01T13:24:36.001Z</time></trkpt><trkpt lat="42.7655516741201" lon="12.59020284567315"><ele>987.0</ele><time>2026-05-01T13:24:38.001Z</time></trkpt><trkpt lat="42.76546476697785" lon="12.59018363344005"><ele>987.0</ele><time>2026-05-01T13:24:40Z</time></trkpt><trkpt lat="42.76538609630617" lon="12.590174352294854"><ele>987.0</ele><time>2026-05-01T13:24:42Z</time></trkpt><trkpt lat="42.76529968791951" lon="12.590172629869297"><ele>987.0</ele><time>2026-05-01T13:24:45Z</time></trkpt><trkpt lat="42.765218702230435" lon="12.590152041440337"><ele>987.0</ele><time>2026-05-01T13:24:48Z</time></trkpt><trkpt lat="42.765139628866194" lon="12.590129969999571"><ele>987.0</ele><time>2026-05-01T13:24:51Z</time></trkpt><trkpt lat="42.76507367775979" lon="12.590123828370492"><ele>984.0</ele><time>2026-05-01T13:24:54Z</time></trkpt><trkpt lat="42.764978977959906" lon="12.590123663439654"><ele>981.0</ele><time>2026-05-01T13:25:17Z</time></trkpt><trkpt lat="42.76488080721098" lon="12.59013456228033"><ele>978.0</ele><time>2026-05-01T13:25:19Z</time></trkpt><trkpt lat="42.764774726487836" lon="12.590141451119761"><ele>975.0</ele><time>2026-05-01T13:25:21Z</time></trkpt><trkpt lat="42.764694506960225" lon="12.59009263864326"><ele>972.0</ele><time>2026-05-01T13:25:23Z</time></trkpt><trkpt lat="42.76462696451738" lon="12.59003201626139"><ele>972.0</ele><time>2026-05-01T13:25:25Z</time></trkpt><trkpt lat="42.76463211154745" lon="12.589927367318253"><ele>972.0</ele><time>2026-05-01T13:25:29Z</time></trkpt><trkpt lat="42.764672856217295" lon="12.589842880835514"><ele>972.0</ele><time>2026-05-01T13:25:33Z</time></trkpt><trkpt lat="42.76471440213196" lon="12.589762348404275"><ele>972.0</ele><time>2026-05-01T13:25:36Z</time></trkpt><trkpt lat="42.764744952174254" lon="12.589662116465226"><ele>972.0</ele><time>2026-05-01T13:25:40Z</time></trkpt><trkpt lat="42.76479901358881" lon="12.589601279796181"><ele>972.0</ele><time>2026-05-01T13:25:43Z</time></trkpt><trkpt lat="42.76481120052251" lon="12.58950926940157"><ele>972.0</ele><time>2026-05-01T13:25:55Z</time></trkpt><trkpt lat="42.76482015399768" lon="12.589410249582613"><ele>971.4285714285713</ele><time>2026-05-01T13:25:59Z</time></trkpt><trkpt lat="42.76482702395281" lon="12.589316584794544"><ele>970.8571428571429</ele><time>2026-05-01T13:26:03Z</time></trkpt><trkpt lat="42.76482516233207" lon="12.589216426943318"><ele>970.2857142857142</ele><time>2026-05-01T13:26:06Z</time></trkpt><trkpt lat="42.76480539645251" lon="12.589128193000837"><ele>969.7142857142857</ele><time>2026-05-01T13:26:09Z</time></trkpt><trkpt lat="42.764770851108615" lon="12.589048316245242"><ele>969.1428571428571</ele><time>2026-05-01T13:26:12Z</time></trkpt><trkpt lat="42.7647430016713" lon="12.588941544682346"><ele>968.5714285714286</ele><time>2026-05-01T13:26:15Z</time></trkpt><trkpt lat="42.76472102963844" lon="12.588838719942618"><ele>968.0</ele><time>2026-05-01T13:26:18Z</time></trkpt><trkpt lat="42.76469737998646" lon="12.588741934788263"><ele>967.1666666666667</ele><time>2026-05-01T13:26:21Z</time></trkpt><trkpt lat="42.76468625034129" lon="12.58862993634615"><ele>966.3333333333334</ele><time>2026-05-01T13:26:24Z</time></trkpt><trkpt lat="42.764683362501756" lon="12.588543601092056"><ele>965.5</ele><time>2026-05-01T13:26:26.001Z</time></trkpt><trkpt lat="42.76469107012126" lon="12.588422993319599"><ele>964.6666666666667</ele><time>2026-05-01T13:26:29.001Z</time></trkpt><trkpt lat="42.76469252040289" lon="12.588300541774235"><ele>963.8333333333334</ele><time>2026-05-01T13:26:32.001Z</time></trkpt><trkpt lat="42.76467903282962" lon="12.588181990734066"><ele>963.0</ele><time>2026-05-01T13:26:35.001Z</time></trkpt><trkpt lat="42.76467708728813" lon="12.58809223109574"><ele>963.0</ele><time>2026-05-01T13:26:37.001Z</time></trkpt><trkpt lat="42.76468233450954" lon="12.587971135410296"><ele>963.0</ele><time>2026-05-01T13:26:40Z</time></trkpt><trkpt lat="42.76470877370267" lon="12.587869762152666"><ele>963.0</ele><time>2026-05-01T13:26:43Z</time></trkpt><trkpt lat="42.764744336135536" lon="12.587775491082722"><ele>963.0</ele><time>2026-05-01T13:26:46Z</time></trkpt><trkpt lat="42.76477274463816" lon="12.587661883428744"><ele>963.0</ele><time>2026-05-01T13:26:49Z</time></trkpt><trkpt lat="42.76478054812215" lon="12.587561052599314"><ele>963.0</ele><time>2026-05-01T13:27:02Z</time></trkpt><trkpt lat="42.76480747813947" lon="12.587433638414398"><ele>962.7142857142858</ele><time>2026-05-01T13:27:05Z</time></trkpt><trkpt lat="42.764820086035755" lon="12.587339040042684"><ele>962.4285714285714</ele><time>2026-05-01T13:27:07Z</time></trkpt><trkpt lat="42.764820016310594" lon="12.58723607012645"><ele>962.1428571428571</ele><time>2026-05-01T13:27:09Z</time></trkpt><trkpt lat="42.76481550055947" lon="12.587114974839597"><ele>961.8571428571429</ele><time>2026-05-01T13:27:12Z</time></trkpt><trkpt lat="42.76479915860192" lon="12.587024023766022"><ele>961.5714285714284</ele><time>2026-05-01T13:27:14Z</time></trkpt><trkpt lat="42.76477499491122" lon="12.586940147657355"><ele>961.2857142857142</ele><time>2026-05-01T13:27:16Z</time></trkpt><trkpt lat="42.76477118513047" lon="12.586848001777621"><ele>961.0</ele><time>2026-05-01T13:27:18Z</time></trkpt><trkpt lat="42.76475608992805" lon="12.586764518546357"><ele>960.1666666666666</ele><time>2026-05-01T13:27:20Z</time></trkpt><trkpt lat="42.76471920448949" lon="12.586680668968896"><ele>959.3333333333333</ele><time>2026-05-01T13:27:22Z</time></trkpt><trkpt lat="42.76469523188592" lon="12.586579439827457"><ele>958.5</ele><time>2026-05-01T13:27:24Z</time></trkpt><trkpt lat="42.764680395708204" lon="12.586476607373152"><ele>957.6666666666667</ele><time>2026-05-01T13:27:26Z</time></trkpt><trkpt lat="42.764654939701394" lon="12.586364354197652"><ele>956.8333333333334</ele><time>2026-05-01T13:27:28Z</time></trkpt><trkpt lat="42.76462354671438" lon="12.58623213535021"><ele>956.0</ele><time>2026-05-01T13:27:30Z</time></trkpt><trkpt lat="42.76460023976615" lon="12.586135988628778"><ele>956.0000000000001</ele><time>2026-05-01T13:27:32Z</time></trkpt><trkpt lat="42.764587438761495" lon="12.58601892044883"><ele>956.0</ele><time>2026-05-01T13:27:35Z</time></trkpt><trkpt lat="42.76454865486622" lon="12.585904992527844"><ele>956.0</ele><time>2026-05-01T13:27:38Z</time></trkpt><trkpt lat="42.76451955739358" lon="12.585783025648569"><ele>956.0</ele><time>2026-05-01T13:27:41Z</time></trkpt><trkpt lat="42.764508784596536" lon="12.58564960887968"><ele>956.0000000000001</ele><time>2026-05-01T13:27:44Z</time></trkpt><trkpt lat="42.76450058819986" lon="12.585564557627889"><ele>956.0</ele><time>2026-05-01T13:27:46Z</time></trkpt><trkpt lat="42.76444147329203" lon="12.585479724836802"><ele>956.0</ele><time>2026-05-01T13:27:49Z</time></trkpt><trkpt lat="42.76438585644686" lon="12.58537902258317"><ele>955.9999999999999</ele><time>2026-05-01T13:27:52Z</time></trkpt><trkpt lat="42.764344508434405" lon="12.58528283664534"><ele>955.9999999999999</ele><time>2026-05-01T13:27:54Z</time></trkpt><trkpt lat="42.76428127163342" lon="12.58522219619223"><ele>956.0</ele><time>2026-05-01T13:27:56Z</time></trkpt><trkpt lat="42.764191859469875" lon="12.58517858609659"><ele>956.0</ele><time>2026-05-01T13:27:58Z</time></trkpt><trkpt lat="42.76407961498378" lon="12.585179019115548"><ele>952.5000000000001</ele><time>2026-05-01T13:28:00Z</time></trkpt><trkpt lat="42.764011630625866" lon="12.585178280259502"><ele>949.0</ele><time>2026-05-01T13:28:01Z</time></trkpt><trkpt lat="42.76392618979362" lon="12.58518198257643"><ele>945.5</ele><time>2026-05-01T13:28:02Z</time></trkpt><trkpt lat="42.763842263136915" lon="12.58517643502843"><ele>942.0</ele><time>2026-05-01T13:28:03Z</time></trkpt><trkpt lat="42.76377838776949" lon="12.585146580832784"><ele>938.5000000000001</ele><time>2026-05-01T13:28:04Z</time></trkpt><trkpt lat="42.76368709142885" lon="12.585101115885774"><ele>935.0</ele><time>2026-05-01T13:28:06Z</time></trkpt><trkpt lat="42.76362067755617" lon="12.585068452218643"><ele>935.0000000000001</ele><time>2026-05-01T13:28:08Z</time></trkpt><trkpt lat="42.76353116112643" lon="12.585049211840422"><ele>935.0</ele><time>2026-05-01T13:28:11Z</time></trkpt><trkpt lat="42.763466726504994" lon="12.585063535635614"><ele>935.0</ele><time>2026-05-01T13:28:13Z</time></trkpt><trkpt lat="42.76338501722816" lon="12.585094449766684"><ele>935.0</ele><time>2026-05-01T13:28:15Z</time></trkpt><trkpt lat="42.76330505977105" lon="12.58514260158087"><ele>935.0000000000001</ele><time>2026-05-01T13:28:17Z</time></trkpt><trkpt lat="42.7632256262066" lon="12.585180018141251"><ele>935.0</ele><time>2026-05-01T13:28:19Z</time></trkpt><trkpt lat="42.76314608576238" lon="12.585204684419576"><ele>934.1666666666667</ele><time>2026-05-01T13:28:21Z</time></trkpt><trkpt lat="42.76306487214225" lon="12.585225632955064"><ele>933.3333333333334</ele><time>2026-05-01T13:28:23Z</time></trkpt><trkpt lat="42.76297760019038" lon="12.585258586769346"><ele>932.5</ele><time>2026-05-01T13:28:25Z</time></trkpt><trkpt lat="42.762901579011796" lon="12.58529812437425"><ele>931.6666666666667</ele><time>2026-05-01T13:28:27Z</time></trkpt><trkpt lat="42.76282331185599" lon="12.585347139577076"><ele>930.8333333333334</ele><time>2026-05-01T13:28:29Z</time></trkpt><trkpt lat="42.76274578361822" lon="12.585405549280399"><ele>930.0</ele><time>2026-05-01T13:28:31.001Z</time></trkpt><trkpt lat="42.762655986523974" lon="12.58546607399072"><ele>929.3333333333334</ele><time>2026-05-01T13:28:33.001Z</time></trkpt><trkpt lat="42.76257242678608" lon="12.585525675189533"><ele>928.6666666666667</ele><time>2026-05-01T13:28:35.001Z</time></trkpt><trkpt lat="42.76248441159604" lon="12.585584677145217"><ele>928.0</ele><time>2026-05-01T13:28:37.001Z</time></trkpt><trkpt lat="42.7623840576624" lon="12.585670512858997"><ele>927.3333333333334</ele><time>2026-05-01T13:28:39.001Z</time></trkpt><trkpt lat="42.76233288216012" lon="12.585735839727358"><ele>926.6666666666667</ele><time>2026-05-01T13:28:40.001Z</time></trkpt><trkpt lat="42.76227983628234" lon="12.585785405128005"><ele>926.0</ele><time>2026-05-01T13:28:41.001Z</time></trkpt><trkpt lat="42.76222540027882" lon="12.585831989123278"><ele>926.0</ele><time>2026-05-01T13:28:42.001Z</time></trkpt><trkpt lat="42.762129649661226" lon="12.585936045278709"><ele>925.9999999999999</ele><time>2026-05-01T13:28:44.001Z</time></trkpt><trkpt lat="42.7620340868515" lon="12.58602555126368"><ele>925.9999999999999</ele><time>2026-05-01T13:28:46.001Z</time></trkpt><trkpt lat="42.76195246869556" lon="12.586105607917256"><ele>926.0</ele><time>2026-05-01T13:28:48.001Z</time></trkpt><trkpt lat="42.76189693033047" lon="12.586177777637511"><ele>926.0</ele><time>2026-05-01T13:28:50.001Z</time></trkpt><trkpt lat="42.761814236909494" lon="12.586261037223021"><ele>925.4</ele><time>2026-05-01T13:28:52.001Z</time></trkpt><trkpt lat="42.761725906769" lon="12.586327773234837"><ele>924.8</ele><time>2026-05-01T13:28:54.001Z</time></trkpt><trkpt lat="42.761618790722004" lon="12.586393527942768"><ele>924.1999999999999</ele><time>2026-05-01T13:28:56.001Z</time></trkpt><trkpt lat="42.761513001512206" lon="12.586439845174429"><ele>923.5999999999999</ele><time>2026-05-01T13:28:58.001Z</time></trkpt><trkpt lat="42.76143027713501" lon="12.586461499584118"><ele>923.0</ele><time>2026-05-01T13:29:00.001Z</time></trkpt><trkpt lat="42.7613655995261" lon="12.586455418649214"><ele>923.0</ele><time>2026-05-01T13:29:02.001Z</time></trkpt><trkpt lat="42.76126676931506" lon="12.586464755077895"><ele>923.0</ele><time>2026-05-01T13:29:05.001Z</time></trkpt><trkpt lat="42.76119519083422" lon="12.5864684194281"><ele>923.0</ele><time>2026-05-01T13:29:07.001Z</time></trkpt><trkpt lat="42.76111602982265" lon="12.586473597813237"><ele>923.0</ele><time>2026-05-01T13:29:09.001Z</time></trkpt><trkpt lat="42.761002270154535" lon="12.586479638447107"><ele>923.0</ele><time>2026-05-01T13:29:11.001Z</time></trkpt><trkpt lat="42.7609007719211" lon="12.586487970787823"><ele>919.5999999999999</ele><time>2026-05-01T13:29:13Z</time></trkpt><trkpt lat="42.760794582852796" lon="12.586495400765992"><ele>916.1999999999999</ele><time>2026-05-01T13:29:15Z</time></trkpt><trkpt lat="42.760731408238826" lon="12.586494554716293"><ele>912.8</ele><time>2026-05-01T13:29:16Z</time></trkpt><trkpt lat="42.76062606881821" lon="12.586494227371936"><ele>909.4</ele><time>2026-05-01T13:29:18Z</time></trkpt><trkpt lat="42.76052657481602" lon="12.586505727364825"><ele>906.0</ele><time>2026-05-01T13:29:20Z</time></trkpt><trkpt lat="42.76043402697541" lon="12.586520103583865"><ele>906.0</ele><time>2026-05-01T13:29:22Z</time></trkpt><trkpt lat="42.76034363731424" lon="12.586516479429614"><ele>905.9999999999999</ele><time>2026-05-01T13:29:25Z</time></trkpt><trkpt lat="42.760255259399194" lon="12.586510483748313"><ele>905.9999999999999</ele><time>2026-05-01T13:29:27Z</time></trkpt><trkpt lat="42.760152795784926" lon="12.586531316263576"><ele>906.0</ele><time>2026-05-01T13:29:29Z</time></trkpt><trkpt lat="42.76009055579558" lon="12.586548992067891"><ele>906.0</ele><time>2026-05-01T13:29:30Z</time></trkpt><trkpt lat="42.75996852174721" lon="12.586558298526219"><ele>904.5999999999999</ele><time>2026-05-01T13:29:32Z</time></trkpt><trkpt lat="42.75985363803064" lon="12.586551559008397"><ele>903.1999999999999</ele><time>2026-05-01T13:29:34Z</time></trkpt><trkpt lat="42.759747448618086" lon="12.586575897619296"><ele>901.8000000000001</ele><time>2026-05-01T13:29:36Z</time></trkpt><trkpt lat="42.75964449916654" lon="12.586616686737594"><ele>900.4000000000001</ele><time>2026-05-01T13:29:38Z</time></trkpt><trkpt lat="42.75958231319446" lon="12.586632147473418"><ele>899.0</ele><time>2026-05-01T13:29:39Z</time></trkpt><trkpt lat="42.7594586441739" lon="12.586661345439149"><ele>896.6666666666667</ele><time>2026-05-01T13:29:41Z</time></trkpt><trkpt lat="42.75936301935184" lon="12.58669273906536"><ele>894.3333333333334</ele><time>2026-05-01T13:29:43Z</time></trkpt><trkpt lat="42.75930683042394" lon="12.586739210363623"><ele>892.0</ele><time>2026-05-01T13:29:45Z</time></trkpt><trkpt lat="42.759224922745084" lon="12.58676576882772"><ele>889.6666666666667</ele><time>2026-05-01T13:29:48Z</time></trkpt><trkpt lat="42.75915275016235" lon="12.586760027777867"><ele>887.3333333333334</ele><time>2026-05-01T13:29:50Z</time></trkpt><trkpt lat="42.75907512398531" lon="12.586739143054338"><ele>885.0</ele><time>2026-05-01T13:29:52Z</time></trkpt><trkpt lat="42.75898708571285" lon="12.586686773908015"><ele>885.0</ele><time>2026-05-01T13:29:54Z</time></trkpt><trkpt lat="42.758883043350764" lon="12.586635723862923"><ele>885.0</ele><time>2026-05-01T13:29:56Z</time></trkpt><trkpt lat="42.758791332628235" lon="12.586575518558927"><ele>885.0</ele><time>2026-05-01T13:29:58Z</time></trkpt><trkpt lat="42.75869569686626" lon="12.586485017714683"><ele>885.0</ele><time>2026-05-01T13:30:00Z</time></trkpt><trkpt lat="42.758583830466215" lon="12.586400808713545"><ele>883.2</ele><time>2026-05-01T13:30:01.999Z</time></trkpt><trkpt lat="42.758517976962565" lon="12.586368277008726"><ele>881.4</ele><time>2026-05-01T13:30:02.999Z</time></trkpt><trkpt lat="42.75839614203069" lon="12.586334086818729"><ele>879.5999999999999</ele><time>2026-05-01T13:30:04.999Z</time></trkpt><trkpt lat="42.75827127966193" lon="12.586306017052973"><ele>877.8</ele><time>2026-05-01T13:30:06.999Z</time></trkpt><trkpt lat="42.758160068100686" lon="12.5862796862132"><ele>876.0</ele><time>2026-05-01T13:30:08.999Z</time></trkpt><trkpt lat="42.75806035838823" lon="12.586246430319905"><ele>876.0</ele><time>2026-05-01T13:30:10.999Z</time></trkpt><trkpt lat="42.757929670632876" lon="12.586186727633958"><ele>875.9999999999999</ele><time>2026-05-01T13:30:12.999Z</time></trkpt><trkpt lat="42.75786371526704" lon="12.586141169932178"><ele>875.9999999999999</ele><time>2026-05-01T13:30:13.999Z</time></trkpt><trkpt lat="42.7577955173006" lon="12.586097595004452"><ele>876.0</ele><time>2026-05-01T13:30:14.999Z</time></trkpt><trkpt lat="42.75773299964416" lon="12.586060184378548"><ele>876.0</ele><time>2026-05-01T13:30:15.999Z</time></trkpt><trkpt lat="42.757623547306004" lon="12.585986468646663"><ele>874.8333333333334</ele><time>2026-05-01T13:30:17.999Z</time></trkpt><trkpt lat="42.75756571037764" lon="12.58594669346595"><ele>873.6666666666667</ele><time>2026-05-01T13:30:18.999Z</time></trkpt><trkpt lat="42.75746560115126" lon="12.585878892239599"><ele>872.5</ele><time>2026-05-01T13:30:20.999Z</time></trkpt><trkpt lat="42.75738133262729" lon="12.585817167123425"><ele>871.3333333333334</ele><time>2026-05-01T13:30:22.999Z</time></trkpt><trkpt lat="42.75732427063635" lon="12.585718438866405"><ele>870.1666666666667</ele><time>2026-05-01T13:30:24.999Z</time></trkpt><trkpt lat="42.757304386657644" lon="12.585609113175552"><ele>869.0</ele><time>2026-05-01T13:30:26.999Z</time></trkpt><trkpt lat="42.75732461190421" lon="12.585504993678777"><ele>869.0000000000001</ele><time>2026-05-01T13:30:28.999Z</time></trkpt><trkpt lat="42.75734776446439" lon="12.585409796873359"><ele>869.0</ele><time>2026-05-01T13:30:30.999Z</time></trkpt><trkpt lat="42.757339174230665" lon="12.585323748833957"><ele>869.0</ele><time>2026-05-01T13:30:32.999Z</time></trkpt><trkpt lat="42.757289609461736" lon="12.58521836342955"><ele>869.0</ele><time>2026-05-01T13:30:35.999Z</time></trkpt><trkpt lat="42.75722214233962" lon="12.58517801359695"><ele>869.0000000000001</ele><time>2026-05-01T13:30:40Z</time></trkpt><trkpt lat="42.7572159515886" lon="12.585314564479592"><ele>869.0</ele><time>2026-05-01T13:31:08Z</time></trkpt><trkpt lat="42.75721089525144" lon="12.585401638811563"><ele>869.0000000000001</ele><time>2026-05-01T13:31:09Z</time></trkpt><trkpt lat="42.75719432900923" lon="12.585492214882978"><ele>869.0</ele><time>2026-05-01T13:31:10Z</time></trkpt><trkpt lat="42.75716846035537" lon="12.585579981800183"><ele>869.0</ele><time>2026-05-01T13:31:11Z</time></trkpt><trkpt lat="42.75709307689611" lon="12.585727878082995"><ele>869.0</ele><time>2026-05-01T13:31:13Z</time></trkpt><trkpt lat="42.75703959142004" lon="12.585794263210733"><ele>869.0000000000001</ele><time>2026-05-01T13:31:14Z</time></trkpt><trkpt lat="42.7569799180082" lon="12.585863973231039"><ele>869.0</ele><time>2026-05-01T13:31:15Z</time></trkpt><trkpt lat="42.75690624829205" lon="12.585941832821021"><ele>868.4000000000001</ele><time>2026-05-01T13:31:16Z</time></trkpt><trkpt lat="42.7568281883738" lon="12.586035689672775"><ele>867.8000000000001</ele><time>2026-05-01T13:31:17Z</time></trkpt><trkpt lat="42.756746200241246" lon="12.58614619991968"><ele>867.1999999999999</ele><time>2026-05-01T13:31:18Z</time></trkpt><trkpt lat="42.75665974257496" lon="12.586252848188481"><ele>866.5999999999999</ele><time>2026-05-01T13:31:19Z</time></trkpt><trkpt lat="42.75657420041619" lon="12.58634489274853"><ele>866.0</ele><time>2026-05-01T13:31:20Z</time></trkpt><trkpt lat="42.756479580881674" lon="12.586444491361242"><ele>867.8</ele><time>2026-05-01T13:31:21Z</time></trkpt><trkpt lat="42.75637632522067" lon="12.586546680630633"><ele>869.5999999999999</ele><time>2026-05-01T13:31:22Z</time></trkpt><trkpt lat="42.75628246052528" lon="12.586644520691351"><ele>871.4</ele><time>2026-05-01T13:31:23Z</time></trkpt><trkpt lat="42.75621489200311" lon="12.586710559082622"><ele>873.2</ele><time>2026-05-01T13:31:24Z</time></trkpt><trkpt lat="42.75615925258299" lon="12.58677620543846"><ele>875.0</ele><time>2026-05-01T13:31:25Z</time></trkpt><trkpt lat="42.7561002552117" lon="12.586848507587396"><ele>875.0</ele><time>2026-05-01T13:31:26Z</time></trkpt><trkpt lat="42.75604781557863" lon="12.58694024950265"><ele>875.0</ele><time>2026-05-01T13:31:27Z</time></trkpt><trkpt lat="42.756013276833336" lon="12.587062141960015"><ele>875.0</ele><time>2026-05-01T13:31:28Z</time></trkpt><trkpt lat="42.75599634910952" lon="12.587203974778209"><ele>875.0</ele><time>2026-05-01T13:31:29Z</time></trkpt><trkpt lat="42.756004252879556" lon="12.587368812559925"><ele>875.0</ele><time>2026-05-01T13:31:30Z</time></trkpt><trkpt lat="42.756022027623104" lon="12.587520683925264"><ele>875.2</ele><time>2026-05-01T13:31:31Z</time></trkpt><trkpt lat="42.75604516900079" lon="12.58768223687602"><ele>875.4</ele><time>2026-05-01T13:31:32Z</time></trkpt><trkpt lat="42.75606318990165" lon="12.587833816879149"><ele>875.5999999999999</ele><time>2026-05-01T13:31:33Z</time></trkpt><trkpt lat="42.75606661211057" lon="12.587972262435793"><ele>875.8</ele><time>2026-05-01T13:31:34Z</time></trkpt><trkpt lat="42.75605045668608" lon="12.588114356166946"><ele>876.0</ele><time>2026-05-01T13:31:35Z</time></trkpt><trkpt lat="42.75601563640394" lon="12.588253443731347"><ele>876.0</ele><time>2026-05-01T13:31:35.999Z</time></trkpt><trkpt lat="42.75596544829755" lon="12.588384754452331"><ele>876.0</ele><time>2026-05-01T13:31:36.999Z</time></trkpt><trkpt lat="42.75590313366456" lon="12.588519234511399"><ele>876.0</ele><time>2026-05-01T13:31:37.999Z</time></trkpt><trkpt lat="42.755835542543515" lon="12.588658508197"><ele>876.0</ele><time>2026-05-01T13:31:38.999Z</time></trkpt><trkpt lat="42.75576801389731" lon="12.588811569567026"><ele>877.4</ele><time>2026-05-01T13:31:39.999Z</time></trkpt><trkpt lat="42.755705250368244" lon="12.588953064425517"><ele>878.8</ele><time>2026-05-01T13:31:40.999Z</time></trkpt><trkpt lat="42.755649618513374" lon="12.589070897364591"><ele>880.1999999999999</ele><time>2026-05-01T13:31:41.999Z</time></trkpt><trkpt lat="42.75559097975788" lon="12.589196227096673"><ele>881.5999999999999</ele><time>2026-05-01T13:31:42.999Z</time></trkpt><trkpt lat="42.75553440189444" lon="12.58931741932864"><ele>883.0</ele><time>2026-05-01T13:31:43.999Z</time></trkpt><trkpt lat="42.75548046842155" lon="12.589420708312634"><ele>883.0</ele><time>2026-05-01T13:31:44.999Z</time></trkpt><trkpt lat="42.75542082700019" lon="12.589538406359992"><ele>883.0</ele><time>2026-05-01T13:31:45.999Z</time></trkpt><trkpt lat="42.75535178964508" lon="12.589642310984784"><ele>883.0</ele><time>2026-05-01T13:31:46.999Z</time></trkpt><trkpt lat="42.75526796228116" lon="12.589744646029375"><ele>883.0</ele><time>2026-05-01T13:31:47.999Z</time></trkpt><trkpt lat="42.75517116716209" lon="12.589842489541132"><ele>883.0</ele><time>2026-05-01T13:31:48.999Z</time></trkpt><trkpt lat="42.755067645758665" lon="12.58993402697994"><ele>883.0</ele><time>2026-05-01T13:31:49.999Z</time></trkpt><trkpt lat="42.75496999156002" lon="12.590006250240357"><ele>883.0</ele><time>2026-05-01T13:31:50.999Z</time></trkpt><trkpt lat="42.75488479042985" lon="12.590076725214345"><ele>883.0</ele><time>2026-05-01T13:31:51.999Z</time></trkpt><trkpt lat="42.75480166309607" lon="12.590146771765614"><ele>883.0</ele><time>2026-05-01T13:31:52.999Z</time></trkpt><trkpt lat="42.75471449372467" lon="12.590212019884065"><ele>883.0</ele><time>2026-05-01T13:31:53.999Z</time></trkpt><trkpt lat="42.754647955350904" lon="12.590263302534462"><ele>883.0</ele><time>2026-05-01T13:31:54.999Z</time></trkpt><trkpt lat="42.754573215326886" lon="12.590331745754336"><ele>883.0</ele><time>2026-05-01T13:31:55.999Z</time></trkpt><trkpt lat="42.75451430594738" lon="12.59041393411234"><ele>883.0</ele><time>2026-05-01T13:31:56.999Z</time></trkpt><trkpt lat="42.7544531856909" lon="12.590513182875254"><ele>883.0</ele><time>2026-05-01T13:31:57.999Z</time></trkpt><trkpt lat="42.754398174457926" lon="12.590617638728107"><ele>883.0</ele><time>2026-05-01T13:31:58.999Z</time></trkpt><trkpt lat="42.75434887705712" lon="12.590732918979247"><ele>883.0</ele><time>2026-05-01T13:31:59.999Z</time></trkpt><trkpt lat="42.75429771087611" lon="12.590861320224278"><ele>883.0</ele><time>2026-05-01T13:32:00.999Z</time></trkpt><trkpt lat="42.75424469376105" lon="12.590988472791068"><ele>883.0</ele><time>2026-05-01T13:32:01.999Z</time></trkpt><trkpt lat="42.75419430563325" lon="12.591108492504897"><ele>883.0</ele><time>2026-05-01T13:32:02.999Z</time></trkpt><trkpt lat="42.754141894373326" lon="12.591226238869456"><ele>883.0</ele><time>2026-05-01T13:32:03.999Z</time></trkpt><trkpt lat="42.75409391401638" lon="12.59134179890592"><ele>883.0</ele><time>2026-05-01T13:32:04.999Z</time></trkpt><trkpt lat="42.7540431014751" lon="12.591462054769991"><ele>883.0</ele><time>2026-05-01T13:32:05.999Z</time></trkpt><trkpt lat="42.753992018704984" lon="12.591579607006048"><ele>883.0</ele><time>2026-05-01T13:32:06.999Z</time></trkpt><trkpt lat="42.75394310768595" lon="12.591691499330938"><ele>883.0</ele><time>2026-05-01T13:32:07.999Z</time></trkpt><trkpt lat="42.753888513571994" lon="12.591809313779706"><ele>883.0</ele><time>2026-05-01T13:32:08.999Z</time></trkpt><trkpt lat="42.753835747500965" lon="12.591917428130454"><ele>881.8</ele><time>2026-05-01T13:32:09.999Z</time></trkpt><trkpt lat="42.75378373708455" lon="12.592031806066517"><ele>880.5999999999999</ele><time>2026-05-01T13:32:10.999Z</time></trkpt><trkpt lat="42.75372990037783" lon="12.592148306029962"><ele>879.4000000000001</ele><time>2026-05-01T13:32:11.999Z</time></trkpt><trkpt lat="42.753683595520556" lon="12.592264760638246"><ele>878.2</ele><time>2026-05-01T13:32:12.999Z</time></trkpt><trkpt lat="42.753629115793146" lon="12.592390125609672"><ele>877.0</ele><time>2026-05-01T13:32:13.999Z</time></trkpt><trkpt lat="42.75357754468961" lon="12.592507353793152"><ele>877.6</ele><time>2026-05-01T13:32:14.999Z</time></trkpt><trkpt lat="42.75352623877917" lon="12.592623223503148"><ele>878.2</ele><time>2026-05-01T13:32:15.999Z</time></trkpt><trkpt lat="42.75347868455983" lon="12.592742472385288"><ele>878.8</ele><time>2026-05-01T13:32:16.999Z</time></trkpt><trkpt lat="42.75342237172469" lon="12.592866276813687"><ele>879.4</ele><time>2026-05-01T13:32:17.999Z</time></trkpt><trkpt lat="42.753372259896985" lon="12.59298988685723"><ele>880.0</ele><time>2026-05-01T13:32:18.999Z</time></trkpt><trkpt lat="42.753319094474534" lon="12.593104360729486"><ele>880.0</ele><time>2026-05-01T13:32:19.999Z</time></trkpt><trkpt lat="42.75326695268267" lon="12.593224275317933"><ele>880.0</ele><time>2026-05-01T13:32:20.999Z</time></trkpt><trkpt lat="42.7532158904566" lon="12.593334474276848"><ele>880.0</ele><time>2026-05-01T13:32:21.999Z</time></trkpt><trkpt lat="42.75315932774672" lon="12.593448973819873"><ele>880.0</ele><time>2026-05-01T13:32:22.999Z</time></trkpt><trkpt lat="42.753103849938476" lon="12.593550316472154"><ele>880.0</ele><time>2026-05-01T13:32:23.999Z</time></trkpt><trkpt lat="42.75305194423097" lon="12.593662491077176"><ele>879.2</ele><time>2026-05-01T13:32:24.999Z</time></trkpt><trkpt lat="42.75300504333466" lon="12.593779080829393"><ele>878.4</ele><time>2026-05-01T13:32:25.999Z</time></trkpt><trkpt lat="42.752957368178954" lon="12.593899422983872"><ele>877.5999999999999</ele><time>2026-05-01T13:32:26.999Z</time></trkpt><trkpt lat="42.75290656324166" lon="12.594019058938963"><ele>876.8</ele><time>2026-05-01T13:32:27.999Z</time></trkpt><trkpt lat="42.75285576199727" lon="12.594140593438155"><ele>876.0</ele><time>2026-05-01T13:32:28.999Z</time></trkpt><trkpt lat="42.75280874259493" lon="12.594264388567362"><ele>876.0</ele><time>2026-05-01T13:32:29.999Z</time></trkpt><trkpt lat="42.75277820387821" lon="12.594383279198375"><ele>875.9999999999999</ele><time>2026-05-01T13:32:30.999Z</time></trkpt><trkpt lat="42.75275906577783" lon="12.59451272020852"><ele>875.9999999999999</ele><time>2026-05-01T13:32:31.999Z</time></trkpt><trkpt lat="42.752751067365175" lon="12.594643493661321"><ele>876.0</ele><time>2026-05-01T13:32:32.999Z</time></trkpt><trkpt lat="42.75274182231795" lon="12.594768311837164"><ele>876.0</ele><time>2026-05-01T13:32:33.999Z</time></trkpt><trkpt lat="42.75273126928447" lon="12.594877223167531"><ele>876.0</ele><time>2026-05-01T13:32:34.999Z</time></trkpt><trkpt lat="42.75271948566979" lon="12.594968936637851"><ele>876.0</ele><time>2026-05-01T13:32:35.999Z</time></trkpt><trkpt lat="42.75271172054417" lon="12.595065362690455"><ele>876.0</ele><time>2026-05-01T13:32:36.999Z</time></trkpt><trkpt lat="42.75271981935267" lon="12.595155261755735"><ele>876.0</ele><time>2026-05-01T13:32:37.999Z</time></trkpt><trkpt lat="42.75272419478481" lon="12.595256228640473"><ele>876.0</ele><time>2026-05-01T13:32:38.999Z</time></trkpt><trkpt lat="42.75274683781398" lon="12.595452859366912"><ele>876.0</ele><time>2026-05-01T13:32:40.999Z</time></trkpt><trkpt lat="42.75276670716952" lon="12.59554625714197"><ele>876.1666666666666</ele><time>2026-05-01T13:32:41.999Z</time></trkpt><trkpt lat="42.752789241544406" lon="12.59564058625385"><ele>876.3333333333333</ele><time>2026-05-01T13:32:43Z</time></trkpt><trkpt lat="42.752845826325974" lon="12.595784927179906"><ele>876.5</ele><time>2026-05-01T13:32:45Z</time></trkpt><trkpt lat="42.752887755001396" lon="12.595866987587485"><ele>876.6666666666666</ele><time>2026-05-01T13:32:46Z</time></trkpt><trkpt lat="42.75292429575666" lon="12.59595277121487"><ele>876.8333333333333</ele><time>2026-05-01T13:32:47Z</time></trkpt><trkpt lat="42.752968354326754" lon="12.596036698820482"><ele>877.0</ele><time>2026-05-01T13:32:48Z</time></trkpt><trkpt lat="42.75300560754362" lon="12.596114438949291"><ele>877.0</ele><time>2026-05-01T13:32:49Z</time></trkpt><trkpt lat="42.75304024674264" lon="12.596192600962521"><ele>879.0</ele><time>2026-05-01T13:32:50Z</time></trkpt><trkpt lat="42.75307847725458" lon="12.596269708894614"><ele>879.0</ele><time>2026-05-01T13:32:51Z</time></trkpt><trkpt lat="42.75311524908186" lon="12.596347191681062"><ele>879.0</ele><time>2026-05-01T13:32:52Z</time></trkpt><trkpt lat="42.75315933270811" lon="12.596429579949513"><ele>879.0</ele><time>2026-05-01T13:32:53Z</time></trkpt><trkpt lat="42.75322550461068" lon="12.596512768505086"><ele>879.0</ele><time>2026-05-01T13:32:55Z</time></trkpt><trkpt lat="42.753281625805464" lon="12.596557623567657"><ele>879.0</ele><time>2026-05-01T13:32:57Z</time></trkpt></trkseg><trkseg><trkpt lat="42.75326591133896" lon="12.596691357309457"><ele>879.0</ele><time>2026-05-01T14:50:11.001Z</time></trkpt><trkpt lat="42.75318858461124" lon="12.596779416070731"><ele>879.0</ele><time>2026-05-01T14:50:13.001Z</time></trkpt><trkpt lat="42.75313479246145" lon="12.596832239843733"><ele>879.0</ele><time>2026-05-01T14:50:14.001Z</time></trkpt><trkpt lat="42.753072596129726" lon="12.596931885375124"><ele>879.0</ele><time>2026-05-01T14:50:16.001Z</time></trkpt><trkpt lat="42.7530570354725" lon="12.597033697308035"><ele>879.0</ele><time>2026-05-01T14:50:18.001Z</time></trkpt><trkpt lat="42.753029061700886" lon="12.597113197048639"><ele>879.0</ele><time>2026-05-01T14:50:20.001Z</time></trkpt><trkpt lat="42.75296547394306" lon="12.59714269581045"><ele>879.0</ele><time>2026-05-01T14:50:23.001Z</time></trkpt><trkpt lat="42.7529089350712" lon="12.597058143227592"><ele>879.0000000000001</ele><time>2026-05-01T14:50:25.001Z</time></trkpt><trkpt lat="42.75289880419785" lon="12.596912018086426"><ele>879.0000000000001</ele><time>2026-05-01T14:50:27.001Z</time></trkpt><trkpt lat="42.75288438485024" lon="12.596766334560362"><ele>879.0</ele><time>2026-05-01T14:50:29.001Z</time></trkpt><trkpt lat="42.75291613993945" lon="12.596641049748984"><ele>879.0</ele><time>2026-05-01T14:50:31.001Z</time></trkpt><trkpt lat="42.752990394625414" lon="12.596594380591581"><ele>879.0</ele><time>2026-05-01T14:50:33.001Z</time></trkpt><trkpt lat="42.75305451454188" lon="12.5965928047894"><ele>879.0</ele><time>2026-05-01T14:50:35.001Z</time></trkpt><trkpt lat="42.753119057528934" lon="12.596572325100215"><ele>879.0</ele><time>2026-05-01T14:50:37.001Z</time></trkpt><trkpt lat="42.75320469266493" lon="12.59653408201488"><ele>879.0</ele><time>2026-05-01T14:50:40.001Z</time></trkpt><trkpt lat="42.75327391413904" lon="12.596603486236345"><ele>879.0</ele><time>2026-05-01T14:50:42.001Z</time></trkpt><trkpt lat="42.753317290531946" lon="12.596671840620395"><ele>879.0</ele><time>2026-05-01T14:50:43.001Z</time></trkpt><trkpt lat="42.75335228089934" lon="12.59674787634175"><ele>879.0</ele><time>2026-05-01T14:50:44.001Z</time></trkpt><trkpt lat="42.753373652957315" lon="12.596863103656602"><ele>879.0</ele><time>2026-05-01T14:50:45.001Z</time></trkpt><trkpt lat="42.7534181333432" lon="12.596957845456666"><ele>879.0000000000001</ele><time>2026-05-01T14:50:46.001Z</time></trkpt><trkpt lat="42.75346481272599" lon="12.597066743171856"><ele>879.0000000000001</ele><time>2026-05-01T14:50:47.001Z</time></trkpt><trkpt lat="42.75351166984389" lon="12.597186656711694"><ele>879.0</ele><time>2026-05-01T14:50:48.001Z</time></trkpt><trkpt lat="42.75355812411567" lon="12.597311588804091"><ele>879.0</ele><time>2026-05-01T14:50:49.001Z</time></trkpt><trkpt lat="42.75360644222698" lon="12.597446694123503"><ele>879.4000000000001</ele><time>2026-05-01T14:50:50.001Z</time></trkpt><trkpt lat="42.753657087712234" lon="12.59759826625118"><ele>879.8000000000001</ele><time>2026-05-01T14:50:51.001Z</time></trkpt><trkpt lat="42.75371501336325" lon="12.597729039821752"><ele>880.1999999999999</ele><time>2026-05-01T14:50:52.001Z</time></trkpt><trkpt lat="42.75375973821772" lon="12.597859346989122"><ele>880.5999999999999</ele><time>2026-05-01T14:50:53.001Z</time></trkpt><trkpt lat="42.75380296919367" lon="12.59799373412505"><ele>881.0</ele><time>2026-05-01T14:50:54.001Z</time></trkpt><trkpt lat="42.75383091510732" lon="12.59812049687855"><ele>881.0</ele><time>2026-05-01T14:50:55.001Z</time></trkpt><trkpt lat="42.753884658243535" lon="12.598225944768371"><ele>880.9999999999999</ele><time>2026-05-01T14:50:56.001Z</time></trkpt><trkpt lat="42.75392262995844" lon="12.598345361371146"><ele>880.9999999999999</ele><time>2026-05-01T14:50:57.001Z</time></trkpt><trkpt lat="42.75396202544809" lon="12.598482373627299"><ele>881.0</ele><time>2026-05-01T14:50:58.001Z</time></trkpt><trkpt lat="42.754027804554006" lon="12.598635720489781"><ele>881.0</ele><time>2026-05-01T14:50:59.001Z</time></trkpt><trkpt lat="42.75410232577185" lon="12.598772966450175"><ele>879.0</ele><time>2026-05-01T14:51:00.001Z</time></trkpt><trkpt lat="42.75417806198499" lon="12.598889810675058"><ele>876.9999999999999</ele><time>2026-05-01T14:51:01.001Z</time></trkpt><trkpt lat="42.754248898336456" lon="12.598991918168517"><ele>874.9999999999999</ele><time>2026-05-01T14:51:02.001Z</time></trkpt><trkpt lat="42.75432033093942" lon="12.59908954564415"><ele>873.0</ele><time>2026-05-01T14:51:03.001Z</time></trkpt><trkpt lat="42.75439071345404" lon="12.59917780688517"><ele>871.0</ele><time>2026-05-01T14:51:04.001Z</time></trkpt><trkpt lat="42.7544610555494" lon="12.599255449409831"><ele>870.9999999999999</ele><time>2026-05-01T14:51:05.001Z</time></trkpt><trkpt lat="42.7545316583538" lon="12.599309613137308"><ele>871.0</ele><time>2026-05-01T14:51:06.001Z</time></trkpt><trkpt lat="42.75460031090566" lon="12.59935120368858"><ele>871.0</ele><time>2026-05-01T14:51:07.001Z</time></trkpt><trkpt lat="42.75466515706044" lon="12.599380442613471"><ele>871.0</ele><time>2026-05-01T14:51:08.001Z</time></trkpt><trkpt lat="42.7547333621534" lon="12.59938973468848"><ele>870.9999999999999</ele><time>2026-05-01T14:51:09.001Z</time></trkpt><trkpt lat="42.75480321062852" lon="12.599380281983661"><ele>871.0</ele><time>2026-05-01T14:51:10.001Z</time></trkpt><trkpt lat="42.75488743753659" lon="12.599319799925224"><ele>871.0</ele><time>2026-05-01T14:51:11.001Z</time></trkpt><trkpt lat="42.75497889293439" lon="12.599225736408522"><ele>870.9999999999999</ele><time>2026-05-01T14:51:12.001Z</time></trkpt><trkpt lat="42.755047233146456" lon="12.599121610745364"><ele>870.9999999999999</ele><time>2026-05-01T14:51:13.001Z</time></trkpt><trkpt lat="42.75511973218808" lon="12.599041842979892"><ele>871.0</ele><time>2026-05-01T14:51:14.001Z</time></trkpt><trkpt lat="42.75519310587183" lon="12.598993440520212"><ele>871.0</ele><time>2026-05-01T14:51:15.001Z</time></trkpt><trkpt lat="42.75525582195438" lon="12.598983507871637"><ele>871.8</ele><time>2026-05-01T14:51:16.001Z</time></trkpt><trkpt lat="42.75533870633708" lon="12.598998008961738"><ele>872.5999999999999</ele><time>2026-05-01T14:51:17.001Z</time></trkpt><trkpt lat="42.75542748263207" lon="12.59904643239022"><ele>873.4</ele><time>2026-05-01T14:51:18.001Z</time></trkpt><trkpt lat="42.75551226771742" lon="12.599126080025973"><ele>874.2</ele><time>2026-05-01T14:51:19.001Z</time></trkpt><trkpt lat="42.75558088722109" lon="12.599220776766316"><ele>875.0</ele><time>2026-05-01T14:51:20.001Z</time></trkpt><trkpt lat="42.75567427763769" lon="12.599322347425614"><ele>875.0</ele><time>2026-05-01T14:51:21.001Z</time></trkpt><trkpt lat="42.75578543460835" lon="12.599437606495743"><ele>875.0</ele><time>2026-05-01T14:51:22.001Z</time></trkpt><trkpt lat="42.75587482301816" lon="12.599520864661393"><ele>875.0</ele><time>2026-05-01T14:51:23.001Z</time></trkpt><trkpt lat="42.75594430688984" lon="12.599580844288534"><ele>875.0</ele><time>2026-05-01T14:51:24.001Z</time></trkpt><trkpt lat="42.75600942325815" lon="12.599629179334713"><ele>875.0</ele><time>2026-05-01T14:51:25.001Z</time></trkpt><trkpt lat="42.75609307447476" lon="12.599648886283697"><ele>873.6</ele><time>2026-05-01T14:51:26.001Z</time></trkpt><trkpt lat="42.75620150927051" lon="12.599636036820602"><ele>872.2</ele><time>2026-05-01T14:51:27.002Z</time></trkpt><trkpt lat="42.756300196840066" lon="12.599596835154223"><ele>870.8</ele><time>2026-05-01T14:51:28.002Z</time></trkpt><trkpt lat="42.75639698455126" lon="12.599550050086803"><ele>869.4</ele><time>2026-05-01T14:51:29.002Z</time></trkpt><trkpt lat="42.75649241487056" lon="12.599522818687719"><ele>868.0</ele><time>2026-05-01T14:51:30.002Z</time></trkpt><trkpt lat="42.75657148213892" lon="12.599514058192032"><ele>868.0</ele><time>2026-05-01T14:51:31.002Z</time></trkpt><trkpt lat="42.756685317099155" lon="12.599613221498961"><ele>868.0</ele><time>2026-05-01T14:51:33.002Z</time></trkpt><trkpt lat="42.756719581942" lon="12.599712404097735"><ele>868.0</ele><time>2026-05-01T14:51:34.002Z</time></trkpt><trkpt lat="42.75673059330434" lon="12.599820446685884"><ele>868.0</ele><time>2026-05-01T14:51:35.002Z</time></trkpt><trkpt lat="42.7567151110208" lon="12.59991824812635"><ele>868.0</ele><time>2026-05-01T14:51:36.002Z</time></trkpt><trkpt lat="42.75664063855529" lon="12.599989240178703"><ele>867.9999999999999</ele><time>2026-05-01T14:51:37.002Z</time></trkpt><trkpt lat="42.7565857411042" lon="12.600076711228382"><ele>868.0</ele><time>2026-05-01T14:51:38.002Z</time></trkpt><trkpt lat="42.756526032515275" lon="12.600157389838504"><ele>868.0</ele><time>2026-05-01T14:51:39.002Z</time></trkpt><trkpt lat="42.75647939403582" lon="12.600222088127216"><ele>868.0</ele><time>2026-05-01T14:51:40.002Z</time></trkpt><trkpt lat="42.756427174046664" lon="12.60029255883984"><ele>867.9999999999999</ele><time>2026-05-01T14:51:41.002Z</time></trkpt><trkpt lat="42.7563757953278" lon="12.600361894244351"><ele>868.0</ele><time>2026-05-01T14:51:42.002Z</time></trkpt><trkpt lat="42.756322394534344" lon="12.600431986590062"><ele>867.8333333333333</ele><time>2026-05-01T14:51:43.002Z</time></trkpt><trkpt lat="42.7562612698129" lon="12.600512214809974"><ele>867.6666666666666</ele><time>2026-05-01T14:51:44.002Z</time></trkpt><trkpt lat="42.756201163598604" lon="12.600591106193958"><ele>867.5</ele><time>2026-05-01T14:51:45.002Z</time></trkpt><trkpt lat="42.756143737666974" lon="12.600668576807573"><ele>867.3333333333333</ele><time>2026-05-01T14:51:46.002Z</time></trkpt><trkpt lat="42.75609509352051" lon="12.600738414287928"><ele>867.1666666666666</ele><time>2026-05-01T14:51:47.002Z</time></trkpt><trkpt lat="42.75605568328592" lon="12.60082640339257"><ele>867.0</ele><time>2026-05-01T14:51:48.002Z</time></trkpt><trkpt lat="42.75601412881988" lon="12.600893956467523"><ele>862.5</ele><time>2026-05-01T14:51:49.002Z</time></trkpt><trkpt lat="42.75595642719618" lon="12.600981168893886"><ele>858.0</ele><time>2026-05-01T14:51:51.002Z</time></trkpt><trkpt lat="42.755906726117765" lon="12.60111880767717"><ele>853.5</ele><time>2026-05-01T14:51:53.002Z</time></trkpt><trkpt lat="42.75589287528804" lon="12.60121680237363"><ele>849.0</ele><time>2026-05-01T14:51:54.002Z</time></trkpt><trkpt lat="42.75588867730821" lon="12.6013212317218"><ele>844.5</ele><time>2026-05-01T14:51:55.002Z</time></trkpt><trkpt lat="42.75590518380559" lon="12.601429484528268"><ele>840.0</ele><time>2026-05-01T14:51:56.002Z</time></trkpt><trkpt lat="42.755925608313234" lon="12.601529628665103"><ele>839.0</ele><time>2026-05-01T14:51:57.002Z</time></trkpt><trkpt lat="42.755968290067244" lon="12.6016283042748"><ele>838.0</ele><time>2026-05-01T14:51:58.002Z</time></trkpt><trkpt lat="42.75601095651011" lon="12.601708837277727"><ele>837.0</ele><time>2026-05-01T14:51:59.002Z</time></trkpt><trkpt lat="42.75606172757701" lon="12.601782154463645"><ele>836.0</ele><time>2026-05-01T14:52:00.002Z</time></trkpt><trkpt lat="42.75612056641998" lon="12.601837475885258"><ele>835.0</ele><time>2026-05-01T14:52:01.002Z</time></trkpt><trkpt lat="42.75619060332193" lon="12.601883959306619"><ele>834.0</ele><time>2026-05-01T14:52:02.002Z</time></trkpt><trkpt lat="42.75627908387671" lon="12.601915111060714"><ele>833.5</ele><time>2026-05-01T14:52:03.002Z</time></trkpt><trkpt lat="42.7563765759676" lon="12.601910888791524"><ele>833.0</ele><time>2026-05-01T14:52:04.002Z</time></trkpt><trkpt lat="42.756454414836355" lon="12.601891408509708"><ele>832.5</ele><time>2026-05-01T14:52:05.002Z</time></trkpt><trkpt lat="42.756546196532675" lon="12.601904102139283"><ele>832.0</ele><time>2026-05-01T14:52:06.002Z</time></trkpt><trkpt lat="42.75663176029394" lon="12.601921784181632"><ele>831.5</ele><time>2026-05-01T14:52:07.002Z</time></trkpt><trkpt lat="42.75670780640354" lon="12.601961414982208"><ele>831.0</ele><time>2026-05-01T14:52:08.002Z</time></trkpt><trkpt lat="42.75676952895583" lon="12.60204010519466"><ele>831.0</ele><time>2026-05-01T14:52:09.002Z</time></trkpt><trkpt lat="42.75684026357336" lon="12.60210602674054"><ele>831.0</ele><time>2026-05-01T14:52:10.002Z</time></trkpt><trkpt lat="42.75691343761762" lon="12.602189085205065"><ele>831.0</ele><time>2026-05-01T14:52:11.002Z</time></trkpt><trkpt lat="42.75698817717427" lon="12.602275672177301"><ele>831.0</ele><time>2026-05-01T14:52:12.002Z</time></trkpt><trkpt lat="42.757057917324076" lon="12.602362106630023"><ele>831.0</ele><time>2026-05-01T14:52:13.002Z</time></trkpt><trkpt lat="42.7571219840854" lon="12.602446074853184"><ele>831.1999999999999</ele><time>2026-05-01T14:52:14.002Z</time></trkpt><trkpt lat="42.75718102237418" lon="12.602529114095594"><ele>831.4</ele><time>2026-05-01T14:52:15.002Z</time></trkpt><trkpt lat="42.75724113907383" lon="12.602624359387915"><ele>831.6</ele><time>2026-05-01T14:52:16.002Z</time></trkpt><trkpt lat="42.75729531384521" lon="12.602736724178682"><ele>831.8</ele><time>2026-05-01T14:52:17.001Z</time></trkpt><trkpt lat="42.75735327877502" lon="12.60287613223348"><ele>832.0</ele><time>2026-05-01T14:52:18.001Z</time></trkpt><trkpt lat="42.75741478373098" lon="12.603028691457746"><ele>832.0</ele><time>2026-05-01T14:52:19.001Z</time></trkpt><trkpt lat="42.757475845453044" lon="12.6031897291282"><ele>832.0</ele><time>2026-05-01T14:52:20.001Z</time></trkpt><trkpt lat="42.75753767851032" lon="12.603353909976454"><ele>832.0</ele><time>2026-05-01T14:52:21.001Z</time></trkpt><trkpt lat="42.75760104046646" lon="12.603510915389595"><ele>832.0</ele><time>2026-05-01T14:52:22.001Z</time></trkpt><trkpt lat="42.757662310197006" lon="12.603654716746862"><ele>835.6</ele><time>2026-05-01T14:52:23.001Z</time></trkpt><trkpt lat="42.75772213858125" lon="12.603797881106823"><ele>839.2</ele><time>2026-05-01T14:52:24.001Z</time></trkpt><trkpt lat="42.757781831087335" lon="12.603907805915778"><ele>842.8</ele><time>2026-05-01T14:52:25.001Z</time></trkpt><trkpt lat="42.75779724653419" lon="12.604018393483944"><ele>846.4</ele><time>2026-05-01T14:52:26.001Z</time></trkpt><trkpt lat="42.757832624288056" lon="12.604116445187499"><ele>850.0</ele><time>2026-05-01T14:52:27.001Z</time></trkpt><trkpt lat="42.75782344564422" lon="12.604250142005323"><ele>849.9999999999999</ele><time>2026-05-01T14:52:28.001Z</time></trkpt><trkpt lat="42.75777219636367" lon="12.60435360935506"><ele>850.0</ele><time>2026-05-01T14:52:29.001Z</time></trkpt><trkpt lat="42.75772376645173" lon="12.604447758614583"><ele>850.0</ele><time>2026-05-01T14:52:30.001Z</time></trkpt><trkpt lat="42.75766117456906" lon="12.604508729277486"><ele>850.0</ele><time>2026-05-01T14:52:31.001Z</time></trkpt><trkpt lat="42.757604088346454" lon="12.604577101100283"><ele>849.9999999999999</ele><time>2026-05-01T14:52:32.001Z</time></trkpt><trkpt lat="42.757519743612995" lon="12.604591353009171"><ele>850.0</ele><time>2026-05-01T14:52:33.001Z</time></trkpt><trkpt lat="42.757433000503376" lon="12.604592693750073"><ele>846.2</ele><time>2026-05-01T14:52:34.001Z</time></trkpt><trkpt lat="42.75732871797119" lon="12.604588677983356"><ele>842.4</ele><time>2026-05-01T14:52:35.001Z</time></trkpt><trkpt lat="42.75722868672087" lon="12.604593745930824"><ele>838.5999999999999</ele><time>2026-05-01T14:52:36.001Z</time></trkpt><trkpt lat="42.75714642778394" lon="12.604610937862947"><ele>834.8</ele><time>2026-05-01T14:52:37.001Z</time></trkpt><trkpt lat="42.7570695092589" lon="12.604661721681424"><ele>831.0</ele><time>2026-05-01T14:52:38.001Z</time></trkpt><trkpt lat="42.756992666889516" lon="12.604741679063105"><ele>831.0</ele><time>2026-05-01T14:52:39.001Z</time></trkpt><trkpt lat="42.756922811343756" lon="12.604846187774479"><ele>831.0</ele><time>2026-05-01T14:52:40.001Z</time></trkpt><trkpt lat="42.75684339497245" lon="12.604956844933227"><ele>831.0</ele><time>2026-05-01T14:52:41.001Z</time></trkpt><trkpt lat="42.756788930701475" lon="12.605116753864893"><ele>831.0</ele><time>2026-05-01T14:52:42.001Z</time></trkpt><trkpt lat="42.75673222401621" lon="12.605276142669931"><ele>827.4</ele><time>2026-05-01T14:52:43.001Z</time></trkpt><trkpt lat="42.75669392102884" lon="12.605411259280668"><ele>823.8</ele><time>2026-05-01T14:52:44.001Z</time></trkpt><trkpt lat="42.756666387331826" lon="12.605528266759915"><ele>820.1999999999999</ele><time>2026-05-01T14:52:45.001Z</time></trkpt><trkpt lat="42.75663939102373" lon="12.605624839108112"><ele>816.5999999999999</ele><time>2026-05-01T14:52:46.001Z</time></trkpt><trkpt lat="42.756644969928665" lon="12.605756163932357"><ele>813.0</ele><time>2026-05-01T14:52:47.001Z</time></trkpt><trkpt lat="42.75667627987696" lon="12.605878729711973"><ele>813.0</ele><time>2026-05-01T14:52:48.001Z</time></trkpt><trkpt lat="42.75674424837122" lon="12.60600506900862"><ele>813.0</ele><time>2026-05-01T14:52:49.001Z</time></trkpt><trkpt lat="42.75685360276851" lon="12.606089959379378"><ele>813.0</ele><time>2026-05-01T14:52:50.001Z</time></trkpt><trkpt lat="42.756956094697514" lon="12.606185272664488"><ele>813.0</ele><time>2026-05-01T14:52:51.001Z</time></trkpt><trkpt lat="42.75703212168182" lon="12.606309938826064"><ele>815.0</ele><time>2026-05-01T14:52:52.001Z</time></trkpt><trkpt lat="42.757103195220246" lon="12.6064248866766"><ele>817.0</ele><time>2026-05-01T14:52:53.001Z</time></trkpt><trkpt lat="42.757172702574806" lon="12.60655375119227"><ele>819.0</ele><time>2026-05-01T14:52:54.001Z</time></trkpt><trkpt lat="42.757243140132466" lon="12.606692119251873"><ele>821.0</ele><time>2026-05-01T14:52:55.001Z</time></trkpt><trkpt lat="42.75732522020994" lon="12.606823843701036"><ele>821.0000000000001</ele><time>2026-05-01T14:52:56.001Z</time></trkpt><trkpt lat="42.75736226545955" lon="12.606966841947111"><ele>821.0</ele><time>2026-05-01T14:52:57.001Z</time></trkpt><trkpt lat="42.757392441572904" lon="12.607069832245037"><ele>821.0</ele><time>2026-05-01T14:52:58.001Z</time></trkpt><trkpt lat="42.75741164078195" lon="12.607161491566329"><ele>821.0</ele><time>2026-05-01T14:52:59.002Z</time></trkpt><trkpt lat="42.757427447649924" lon="12.60727196532734"><ele>821.0000000000001</ele><time>2026-05-01T14:53:00.002Z</time></trkpt><trkpt lat="42.75744251077814" lon="12.607392623997312"><ele>821.0</ele><time>2026-05-01T14:53:01.002Z</time></trkpt><trkpt lat="42.757455784455026" lon="12.607518665229861"><ele>815.75</ele><time>2026-05-01T14:53:02.002Z</time></trkpt><trkpt lat="42.757466938259576" lon="12.607652843757613"><ele>810.5</ele><time>2026-05-01T14:53:03.002Z</time></trkpt><trkpt lat="42.757477030934744" lon="12.60780702408749"><ele>805.25</ele><time>2026-05-01T14:53:04.002Z</time></trkpt><trkpt lat="42.75748641584526" lon="12.607975997343951"><ele>800.0</ele><time>2026-05-01T14:53:05.002Z</time></trkpt><trkpt lat="42.757498213945155" lon="12.608173967076942"><ele>796.0</ele><time>2026-05-01T14:53:06.002Z</time></trkpt><trkpt lat="42.75751188646517" lon="12.608374568571111"><ele>792.0</ele><time>2026-05-01T14:53:08.002Z</time></trkpt><trkpt lat="42.75752138364964" lon="12.608513910175068"><ele>788.0</ele><time>2026-05-01T14:53:09.002Z</time></trkpt><trkpt lat="42.757532049041586" lon="12.60865203056145"><ele>784.0</ele><time>2026-05-01T14:53:10.002Z</time></trkpt><trkpt lat="42.75754334380378" lon="12.608791877127402"><ele>782.8333333333333</ele><time>2026-05-01T14:53:11.002Z</time></trkpt><trkpt lat="42.75755223316897" lon="12.608901941177747"><ele>781.6666666666666</ele><time>2026-05-01T14:53:12.002Z</time></trkpt><trkpt lat="42.7575607570459" lon="12.608996307003375"><ele>780.5</ele><time>2026-05-01T14:53:13.002Z</time></trkpt><trkpt lat="42.757588498161155" lon="12.609074347715861"><ele>779.3333333333333</ele><time>2026-05-01T14:53:14.002Z</time></trkpt><trkpt lat="42.75760132142395" lon="12.609163664818466"><ele>778.1666666666666</ele><time>2026-05-01T14:53:15.002Z</time></trkpt><trkpt lat="42.7576673636826" lon="12.609301117549139"><ele>777.0</ele><time>2026-05-01T14:53:17.002Z</time></trkpt><trkpt lat="42.757733187170786" lon="12.609346047910385"><ele>777.0</ele><time>2026-05-01T14:53:18.002Z</time></trkpt><trkpt lat="42.75780320278734" lon="12.609367104237192"><ele>777.0</ele><time>2026-05-01T14:53:19.002Z</time></trkpt><trkpt lat="42.75787678511742" lon="12.6093687536083"><ele>777.0</ele><time>2026-05-01T14:53:20.002Z</time></trkpt><trkpt lat="42.75796459759896" lon="12.609363558855"><ele>777.0</ele><time>2026-05-01T14:53:21.002Z</time></trkpt><trkpt lat="42.758060789159515" lon="12.609342084766567"><ele>777.0</ele><time>2026-05-01T14:53:22.002Z</time></trkpt><trkpt lat="42.75815278596326" lon="12.60931244976709"><ele>777.0</ele><time>2026-05-01T14:53:23.002Z</time></trkpt><trkpt lat="42.75826361665751" lon="12.60930141896163"><ele>777.0</ele><time>2026-05-01T14:53:24.002Z</time></trkpt><trkpt lat="42.75836711377553" lon="12.609266086954138"><ele>777.0</ele><time>2026-05-01T14:53:25.002Z</time></trkpt><trkpt lat="42.75846486378019" lon="12.609256758889549"><ele>777.0</ele><time>2026-05-01T14:53:26.002Z</time></trkpt><trkpt lat="42.75855947336119" lon="12.609238618084081"><ele>777.0</ele><time>2026-05-01T14:53:27.002Z</time></trkpt><trkpt lat="42.75865200650292" lon="12.609223692909175"><ele>777.0</ele><time>2026-05-01T14:53:28.002Z</time></trkpt><trkpt lat="42.758739465155145" lon="12.609180825458784"><ele>774.1666666666666</ele><time>2026-05-01T14:53:29.002Z</time></trkpt><trkpt lat="42.7588192875298" lon="12.609141870602597"><ele>771.3333333333334</ele><time>2026-05-01T14:53:30.002Z</time></trkpt><trkpt lat="42.75888523165235" lon="12.609096436188027"><ele>768.5</ele><time>2026-05-01T14:53:31.002Z</time></trkpt><trkpt lat="42.758938288353" lon="12.609047529836106"><ele>765.6666666666667</ele><time>2026-05-01T14:53:32.002Z</time></trkpt><trkpt lat="42.75900007650064" lon="12.609007202761902"><ele>762.8333333333334</ele><time>2026-05-01T14:53:33.002Z</time></trkpt><trkpt lat="42.75905530302164" lon="12.608961410115901"><ele>760.0</ele><time>2026-05-01T14:53:34.002Z</time></trkpt><trkpt lat="42.75915118399432" lon="12.608894172801136"><ele>760.0</ele><time>2026-05-01T14:53:36.002Z</time></trkpt><trkpt lat="42.75923274544504" lon="12.608903044593006"><ele>760.0</ele><time>2026-05-01T14:53:38.002Z</time></trkpt><trkpt lat="42.75926402395355" lon="12.609001086255322"><ele>760.0</ele><time>2026-05-01T14:53:40.002Z</time></trkpt><trkpt lat="42.759238684961815" lon="12.609083793926496"><ele>760.0</ele><time>2026-05-01T14:53:41.002Z</time></trkpt><trkpt lat="42.75916792412159" lon="12.609113945602678"><ele>760.0</ele><time>2026-05-01T14:53:42.002Z</time></trkpt><trkpt lat="42.75910258899935" lon="12.609162177530532"><ele>760.0</ele><time>2026-05-01T14:53:43.002Z</time></trkpt><trkpt lat="42.75902358704694" lon="12.609244477470744"><ele>760.0</ele><time>2026-05-01T14:53:44.002Z</time></trkpt><trkpt lat="42.758916926609366" lon="12.609311552242813"><ele>760.0</ele><time>2026-05-01T14:53:45.002Z</time></trkpt><trkpt lat="42.758806706442655" lon="12.609387890440539"><ele>760.0</ele><time>2026-05-01T14:53:46.002Z</time></trkpt><trkpt lat="42.75866673778639" lon="12.609485981898189"><ele>760.0</ele><time>2026-05-01T14:53:47.002Z</time></trkpt><trkpt lat="42.75852645996113" lon="12.6095809549894"><ele>755.25</ele><time>2026-05-01T14:53:48.002Z</time></trkpt><trkpt lat="42.75839599255719" lon="12.60967135514684"><ele>750.5</ele><time>2026-05-01T14:53:49.002Z</time></trkpt><trkpt lat="42.758267776168005" lon="12.609757104591441"><ele>745.75</ele><time>2026-05-01T14:53:50.002Z</time></trkpt><trkpt lat="42.7581423955541" lon="12.609836779332738"><ele>741.0</ele><time>2026-05-01T14:53:51.002Z</time></trkpt><trkpt lat="42.758018217462784" lon="12.609899085205026"><ele>741.0</ele><time>2026-05-01T14:53:52.002Z</time></trkpt><trkpt lat="42.75790919835212" lon="12.60997050264697"><ele>741.0</ele><time>2026-05-01T14:53:53.002Z</time></trkpt><trkpt lat="42.75780414849584" lon="12.610037363368807"><ele>741.0</ele><time>2026-05-01T14:53:54.002Z</time></trkpt><trkpt lat="42.757706236688364" lon="12.610099438193048"><ele>741.0</ele><time>2026-05-01T14:53:55.002Z</time></trkpt><trkpt lat="42.75762573286124" lon="12.610148826719676"><ele>741.0</ele><time>2026-05-01T14:53:56.002Z</time></trkpt><trkpt lat="42.75755228536786" lon="12.610185016132665"><ele>742.5</ele><time>2026-05-01T14:53:57.002Z</time></trkpt><trkpt lat="42.75746927048746" lon="12.61022327832515"><ele>744.0</ele><time>2026-05-01T14:53:58.002Z</time></trkpt><trkpt lat="42.757404481041085" lon="12.610245384556492"><ele>745.5</ele><time>2026-05-01T14:53:59.002Z</time></trkpt><trkpt lat="42.757336772769214" lon="12.610259255524644"><ele>747.0</ele><time>2026-05-01T14:54:00.002Z</time></trkpt><trkpt lat="42.75726621000154" lon="12.610230459813593"><ele>748.5</ele><time>2026-05-01T14:54:01.002Z</time></trkpt><trkpt lat="42.75719422538138" lon="12.61023905965239"><ele>750.0</ele><time>2026-05-01T14:54:02.003Z</time></trkpt><trkpt lat="42.75708960591026" lon="12.610278222053811"><ele>744.0</ele><time>2026-05-01T14:54:04.003Z</time></trkpt><trkpt lat="42.75704767979374" lon="12.610447801980747"><ele>738.0</ele><time>2026-05-01T14:54:06.003Z</time></trkpt><trkpt lat="42.757092327137556" lon="12.610527516650677"><ele>732.0</ele><time>2026-05-01T14:54:07.003Z</time></trkpt><trkpt lat="42.757174537355226" lon="12.610610926657944"><ele>726.0</ele><time>2026-05-01T14:54:09.003Z</time></trkpt><trkpt lat="42.75729373431313" lon="12.610600556908242"><ele>720.0</ele><time>2026-05-01T14:54:11.003Z</time></trkpt><trkpt lat="42.75736342737812" lon="12.610571126661704"><ele>720.0</ele><time>2026-05-01T14:54:12.003Z</time></trkpt><trkpt lat="42.757450291441906" lon="12.610541803317421"><ele>720.0</ele><time>2026-05-01T14:54:13.002Z</time></trkpt><trkpt lat="42.75754258018582" lon="12.610542580144623"><ele>720.0</ele><time>2026-05-01T14:54:14.002Z</time></trkpt><trkpt lat="42.75763051603319" lon="12.610505335326296"><ele>720.0</ele><time>2026-05-01T14:54:15.002Z</time></trkpt><trkpt lat="42.757737201722044" lon="12.610483968183171"><ele>720.0</ele><time>2026-05-01T14:54:16.002Z</time></trkpt><trkpt lat="42.75785291415629" lon="12.610459283561314"><ele>717.0</ele><time>2026-05-01T14:54:17.002Z</time></trkpt><trkpt lat="42.75795782234791" lon="12.610437712999461"><ele>714.0</ele><time>2026-05-01T14:54:18.002Z</time></trkpt><trkpt lat="42.75806139738902" lon="12.61042632480352"><ele>711.0</ele><time>2026-05-01T14:54:19.002Z</time></trkpt><trkpt lat="42.75816742896761" lon="12.61039877996677"><ele>708.0</ele><time>2026-05-01T14:54:20.002Z</time></trkpt><trkpt lat="42.75827227774732" lon="12.61037470325483"><ele>705.0</ele><time>2026-05-01T14:54:21.002Z</time></trkpt><trkpt lat="42.75837857679016" lon="12.610353634233403"><ele>705.0</ele><time>2026-05-01T14:54:22.002Z</time></trkpt><trkpt lat="42.75848162046492" lon="12.61032616476238"><ele>705.0</ele><time>2026-05-01T14:54:23.002Z</time></trkpt><trkpt lat="42.758572592497025" lon="12.610309186273254"><ele>705.0</ele><time>2026-05-01T14:54:24.002Z</time></trkpt><trkpt lat="42.758650541792" lon="12.610306232904717"><ele>705.0</ele><time>2026-05-01T14:54:25.002Z</time></trkpt><trkpt lat="42.75876760428799" lon="12.610278563875172"><ele>705.0</ele><time>2026-05-01T14:54:26.002Z</time></trkpt><trkpt lat="42.758866274839804" lon="12.610240895400002"><ele>707.8</ele><time>2026-05-01T14:54:27.002Z</time></trkpt><trkpt lat="42.758966059693044" lon="12.610211244320142"><ele>710.6</ele><time>2026-05-01T14:54:28.002Z</time></trkpt><trkpt lat="42.75905891251117" lon="12.610192015663433"><ele>713.4000000000001</ele><time>2026-05-01T14:54:29.002Z</time></trkpt><trkpt lat="42.759153006029365" lon="12.610149710425175"><ele>716.2</ele><time>2026-05-01T14:54:30.002Z</time></trkpt><trkpt lat="42.75924161452575" lon="12.610109290132543"><ele>719.0</ele><time>2026-05-01T14:54:31.002Z</time></trkpt><trkpt lat="42.75932951562761" lon="12.610066040012553"><ele>712.2</ele><time>2026-05-01T14:54:32.002Z</time></trkpt><trkpt lat="42.759421577596136" lon="12.610021385349743"><ele>705.4000000000001</ele><time>2026-05-01T14:54:33.002Z</time></trkpt><trkpt lat="42.759508509728825" lon="12.609988581054978"><ele>698.6</ele><time>2026-05-01T14:54:34.002Z</time></trkpt><trkpt lat="42.75959078079416" lon="12.60992750658724"><ele>691.8</ele><time>2026-05-01T14:54:35.002Z</time></trkpt><trkpt lat="42.75967053353478" lon="12.609857850279946"><ele>685.0</ele><time>2026-05-01T14:54:36.002Z</time></trkpt><trkpt lat="42.75974749111881" lon="12.609783561216986"><ele>685.0</ele><time>2026-05-01T14:54:37.002Z</time></trkpt><trkpt lat="42.7598166373412" lon="12.609684056032867"><ele>685.0</ele><time>2026-05-01T14:54:38.002Z</time></trkpt><trkpt lat="42.75989547748188" lon="12.609600437421092"><ele>685.0</ele><time>2026-05-01T14:54:39.002Z</time></trkpt><trkpt lat="42.759966735486294" lon="12.6095205168142"><ele>685.0</ele><time>2026-05-01T14:54:40.002Z</time></trkpt><trkpt lat="42.76004696100735" lon="12.609452775915909"><ele>685.0</ele><time>2026-05-01T14:54:41.002Z</time></trkpt><trkpt lat="42.7601152838778" lon="12.609365541143697"><ele>683.6666666666667</ele><time>2026-05-01T14:54:42.002Z</time></trkpt><trkpt lat="42.76017984886453" lon="12.609278698010423"><ele>682.3333333333334</ele><time>2026-05-01T14:54:43.002Z</time></trkpt><trkpt lat="42.76024395279186" lon="12.609184894338709"><ele>681.0</ele><time>2026-05-01T14:54:44.002Z</time></trkpt><trkpt lat="42.76030313554416" lon="12.609093822517774"><ele>679.6666666666666</ele><time>2026-05-01T14:54:45.002Z</time></trkpt><trkpt lat="42.760358429024" lon="12.608996675979778"><ele>678.3333333333333</ele><time>2026-05-01T14:54:46.002Z</time></trkpt><trkpt lat="42.7604026130592" lon="12.60890673003879"><ele>677.0</ele><time>2026-05-01T14:54:47.002Z</time></trkpt><trkpt lat="42.760444066251424" lon="12.608836845558203"><ele>677.0</ele><time>2026-05-01T14:54:48.002Z</time></trkpt><trkpt lat="42.76052639273382" lon="12.608781842165067"><ele>677.0</ele><time>2026-05-01T14:54:50.002Z</time></trkpt><trkpt lat="42.760612409848605" lon="12.608813004469393"><ele>677.0</ele><time>2026-05-01T14:54:52.002Z</time></trkpt><trkpt lat="42.760630534222564" lon="12.608943350583642"><ele>677.0</ele><time>2026-05-01T14:54:55.002Z</time></trkpt><trkpt lat="42.7605659341065" lon="12.609002374414816"><ele>677.0</ele><time>2026-05-01T14:54:56.002Z</time></trkpt><trkpt lat="42.76050352675518" lon="12.609063108461088"><ele>677.0</ele><time>2026-05-01T14:54:57.002Z</time></trkpt><trkpt lat="42.76043164806224" lon="12.60917384101493"><ele>677.0</ele><time>2026-05-01T14:54:58.002Z</time></trkpt><trkpt lat="42.760354112133015" lon="12.609278634358713"><ele>677.0</ele><time>2026-05-01T14:54:59.002Z</time></trkpt><trkpt lat="42.760276181774444" lon="12.60943352329823"><ele>677.0</ele><time>2026-05-01T14:55:00.002Z</time></trkpt><trkpt lat="42.76018402854405" lon="12.609624151931914"><ele>677.0</ele><time>2026-05-01T14:55:01.002Z</time></trkpt><trkpt lat="42.7600960661532" lon="12.609792191850527"><ele>679.0</ele><time>2026-05-01T14:55:02.002Z</time></trkpt><trkpt lat="42.760018222648284" lon="12.609929778590363"><ele>681.0</ele><time>2026-05-01T14:55:03.002Z</time></trkpt><trkpt lat="42.75993194855791" lon="12.610065949057228"><ele>683.0</ele><time>2026-05-01T14:55:04.002Z</time></trkpt><trkpt lat="42.759839912019864" lon="12.610209074405256"><ele>685.0</ele><time>2026-05-01T14:55:05.002Z</time></trkpt><trkpt lat="42.759750197419194" lon="12.61034149704664"><ele>679.6</ele><time>2026-05-01T14:55:06.002Z</time></trkpt><trkpt lat="42.7596711651078" lon="12.610450996151858"><ele>674.2</ele><time>2026-05-01T14:55:07.002Z</time></trkpt><trkpt lat="42.75959748150501" lon="12.610545632259662"><ele>668.8</ele><time>2026-05-01T14:55:08.002Z</time></trkpt><trkpt lat="42.75952148139337" lon="12.61062902236762"><ele>663.4</ele><time>2026-05-01T14:55:09.002Z</time></trkpt><trkpt lat="42.759442538145706" lon="12.610694984467603"><ele>658.0</ele><time>2026-05-01T14:55:10.002Z</time></trkpt><trkpt lat="42.75937561076192" lon="12.610723497885415"><ele>661.5</ele><time>2026-05-01T14:55:11.002Z</time></trkpt><trkpt lat="42.759310769528014" lon="12.610748096594216"><ele>665.0</ele><time>2026-05-01T14:55:12.002Z</time></trkpt><trkpt lat="42.759244067702575" lon="12.610757401120347"><ele>668.5</ele><time>2026-05-01T14:55:13.002Z</time></trkpt><trkpt lat="42.759145987359126" lon="12.610799615598262"><ele>672.0</ele><time>2026-05-01T14:55:15.002Z</time></trkpt><trkpt lat="42.759096746933274" lon="12.610895742926232"><ele>675.5</ele><time>2026-05-01T14:55:17.002Z</time></trkpt><trkpt lat="42.75912288592072" lon="12.61105840696407"><ele>679.0</ele><time>2026-05-01T14:55:19.002Z</time></trkpt><trkpt lat="42.75919216580133" lon="12.611108096025884"><ele>679.0</ele><time>2026-05-01T14:55:20.002Z</time></trkpt><trkpt lat="42.7592749663462" lon="12.611087891870659"><ele>679.0</ele><time>2026-05-01T14:55:21.002Z</time></trkpt><trkpt lat="42.759354030118004" lon="12.611044988273797"><ele>679.0</ele><time>2026-05-01T14:55:22.002Z</time></trkpt><trkpt lat="42.75945680436925" lon="12.610973967543735"><ele>679.0</ele><time>2026-05-01T14:55:23.002Z</time></trkpt><trkpt lat="42.75958906651019" lon="12.610914359517892"><ele>679.0</ele><time>2026-05-01T14:55:24.002Z</time></trkpt><trkpt lat="42.75970803228636" lon="12.61085620875732"><ele>673.75</ele><time>2026-05-01T14:55:25.002Z</time></trkpt><trkpt lat="42.75980283015739" lon="12.610777550459911"><ele>668.5</ele><time>2026-05-01T14:55:26.002Z</time></trkpt><trkpt lat="42.759895710232584" lon="12.610704839170653"><ele>663.25</ele><time>2026-05-01T14:55:27.002Z</time></trkpt><trkpt lat="42.759998655694034" lon="12.610596587963766"><ele>658.0</ele><time>2026-05-01T14:55:28.002Z</time></trkpt><trkpt lat="42.76014654347839" lon="12.61046846933211"><ele>655.25</ele><time>2026-05-01T14:55:29.002Z</time></trkpt><trkpt lat="42.76026949634637" lon="12.610338349213636"><ele>652.5</ele><time>2026-05-01T14:55:30.002Z</time></trkpt><trkpt lat="42.76037340191263" lon="12.610229434411721"><ele>649.75</ele><time>2026-05-01T14:55:31.002Z</time></trkpt><trkpt lat="42.76047357580545" lon="12.610125249547318"><ele>647.0</ele><time>2026-05-01T14:55:32.002Z</time></trkpt><trkpt lat="42.76056989367873" lon="12.610024993288025"><ele>647.0</ele><time>2026-05-01T14:55:33.002Z</time></trkpt><trkpt lat="42.76066369891629" lon="12.609922836073245"><ele>647.0</ele><time>2026-05-01T14:55:34.002Z</time></trkpt><trkpt lat="42.76075876889787" lon="12.609814948297585"><ele>647.0</ele><time>2026-05-01T14:55:35.002Z</time></trkpt><trkpt lat="42.76085161513522" lon="12.609706858308579"><ele>647.0</ele><time>2026-05-01T14:55:36.002Z</time></trkpt><trkpt lat="42.76093480448953" lon="12.609607353552263"><ele>647.0</ele><time>2026-05-01T14:55:37.002Z</time></trkpt><trkpt lat="42.76101392889473" lon="12.609507358855481"><ele>647.0</ele><time>2026-05-01T14:55:38.002Z</time></trkpt><trkpt lat="42.76108104768832" lon="12.609412814911044"><ele>647.0</ele><time>2026-05-01T14:55:39.002Z</time></trkpt><trkpt lat="42.76114927737558" lon="12.609314421901058"><ele>647.0</ele><time>2026-05-01T14:55:40.002Z</time></trkpt><trkpt lat="42.76121257579638" lon="12.609222298826255"><ele>647.0</ele><time>2026-05-01T14:55:41.002Z</time></trkpt><trkpt lat="42.76127165304344" lon="12.609131502631378"><ele>645.8333333333333</ele><time>2026-05-01T14:55:42.002Z</time></trkpt><trkpt lat="42.761322056368414" lon="12.609053543136717"><ele>644.6666666666666</ele><time>2026-05-01T14:55:43.002Z</time></trkpt><trkpt lat="42.76140231944169" lon="12.608981057148727"><ele>643.5</ele><time>2026-05-01T14:55:45.002Z</time></trkpt><trkpt lat="42.761462637849085" lon="12.609010920184158"><ele>642.3333333333334</ele><time>2026-05-01T14:55:47.002Z</time></trkpt><trkpt lat="42.76149913918294" lon="12.609101071486753"><ele>641.1666666666667</ele><time>2026-05-01T14:55:49.002Z</time></trkpt><trkpt lat="42.761423441316126" lon="12.609201959359977"><ele>640.0</ele><time>2026-05-01T14:55:51.002Z</time></trkpt><trkpt lat="42.76133337104848" lon="12.609309240829575"><ele>640.0</ele><time>2026-05-01T14:55:53.002Z</time></trkpt><trkpt lat="42.76129490708118" lon="12.609394735565544"><ele>640.0</ele><time>2026-05-01T14:55:54.002Z</time></trkpt><trkpt lat="42.76124728101685" lon="12.609483415283876"><ele>640.0</ele><time>2026-05-01T14:55:55.002Z</time></trkpt><trkpt lat="42.76119675586" lon="12.609569728666461"><ele>640.0</ele><time>2026-05-01T14:55:56.002Z</time></trkpt><trkpt lat="42.76115639105151" lon="12.609667890009748"><ele>640.0</ele><time>2026-05-01T14:55:57.002Z</time></trkpt><trkpt lat="42.7611133545669" lon="12.609776593902422"><ele>640.0</ele><time>2026-05-01T14:55:58.002Z</time></trkpt><trkpt lat="42.76107194469338" lon="12.6098911840239"><ele>641.4</ele><time>2026-05-01T14:55:59.002Z</time></trkpt><trkpt lat="42.76102878612825" lon="12.610001178882687"><ele>642.8</ele><time>2026-05-01T14:56:00.002Z</time></trkpt><trkpt lat="42.76097152760803" lon="12.610099939082549"><ele>644.2</ele><time>2026-05-01T14:56:01.002Z</time></trkpt><trkpt lat="42.76094330923233" lon="12.610220375520628"><ele>645.6</ele><time>2026-05-01T14:56:02.002Z</time></trkpt><trkpt lat="42.76089618066422" lon="12.610331792343285"><ele>647.0</ele><time>2026-05-01T14:56:03.002Z</time></trkpt><trkpt lat="42.76085725017363" lon="12.61045822084475"><ele>643.2</ele><time>2026-05-01T14:56:04.002Z</time></trkpt><trkpt lat="42.76081941145837" lon="12.610586263420386"><ele>639.4000000000001</ele><time>2026-05-01T14:56:05.002Z</time></trkpt><trkpt lat="42.76078705815508" lon="12.610712492265943"><ele>635.5999999999999</ele><time>2026-05-01T14:56:06.002Z</time></trkpt><trkpt lat="42.76076378372588" lon="12.610829416040055"><ele>631.8</ele><time>2026-05-01T14:56:07.002Z</time></trkpt><trkpt lat="42.760725816148295" lon="12.6109507859285"><ele>628.0</ele><time>2026-05-01T14:56:08.003Z</time></trkpt><trkpt lat="42.76069541364111" lon="12.611086721920971"><ele>624.8</ele><time>2026-05-01T14:56:09.003Z</time></trkpt><trkpt lat="42.760661328265066" lon="12.611239124660903"><ele>621.5999999999999</ele><time>2026-05-01T14:56:10.003Z</time></trkpt><trkpt lat="42.76062725385067" lon="12.611381701833679"><ele>618.4000000000001</ele><time>2026-05-01T14:56:11.003Z</time></trkpt><trkpt lat="42.76059257461786" lon="12.611525812355751"><ele>615.2</ele><time>2026-05-01T14:56:12.003Z</time></trkpt><trkpt lat="42.760561132377184" lon="12.611654893071634"><ele>612.0</ele><time>2026-05-01T14:56:13.003Z</time></trkpt><trkpt lat="42.76053264290734" lon="12.611771851641342"><ele>612.0</ele><time>2026-05-01T14:56:14.003Z</time></trkpt><trkpt lat="42.76050296258487" lon="12.611889642771793"><ele>612.0</ele><time>2026-05-01T14:56:15.003Z</time></trkpt><trkpt lat="42.760473675923514" lon="12.612005383859232"><ele>612.0</ele><time>2026-05-01T14:56:16.003Z</time></trkpt><trkpt lat="42.760444408759284" lon="12.612121048007948"><ele>612.0</ele><time>2026-05-01T14:56:17.003Z</time></trkpt><trkpt lat="42.76041461151317" lon="12.61223556424363"><ele>612.0</ele><time>2026-05-01T14:56:18.003Z</time></trkpt><trkpt lat="42.76038336359107" lon="12.612352086011898"><ele>609.8333333333334</ele><time>2026-05-01T14:56:19.003Z</time></trkpt><trkpt lat="42.760352225405306" lon="12.612465080483954"><ele>607.6666666666666</ele><time>2026-05-01T14:56:20.003Z</time></trkpt><trkpt lat="42.760323909795694" lon="12.612567832389256"><ele>605.5</ele><time>2026-05-01T14:56:21.003Z</time></trkpt><trkpt lat="42.76031109288388" lon="12.612677047160371"><ele>603.3333333333333</ele><time>2026-05-01T14:56:22.002Z</time></trkpt><trkpt lat="42.76027779057826" lon="12.612765154450571"><ele>601.1666666666666</ele><time>2026-05-01T14:56:23.002Z</time></trkpt><trkpt lat="42.76025248656443" lon="12.612849759031642"><ele>599.0</ele><time>2026-05-01T14:56:24.002Z</time></trkpt><trkpt lat="42.7602165845483" lon="12.612929391942279"><ele>599.6666666666666</ele><time>2026-05-01T14:56:25.002Z</time></trkpt><trkpt lat="42.76014249732103" lon="12.6130616337241"><ele>600.3333333333333</ele><time>2026-05-01T14:56:27.002Z</time></trkpt><trkpt lat="42.76010055012938" lon="12.613131072359609"><ele>601.0</ele><time>2026-05-01T14:56:28.002Z</time></trkpt><trkpt lat="42.76005938421134" lon="12.613198768582803"><ele>601.6666666666666</ele><time>2026-05-01T14:56:29.002Z</time></trkpt><trkpt lat="42.76001225163076" lon="12.613270313820403"><ele>602.3333333333334</ele><time>2026-05-01T14:56:30.002Z</time></trkpt><trkpt lat="42.759958716910056" lon="12.613356954938231"><ele>603.0</ele><time>2026-05-01T14:56:31.002Z</time></trkpt><trkpt lat="42.759880668458" lon="12.61344340652774"><ele>603.0</ele><time>2026-05-01T14:56:32.002Z</time></trkpt><trkpt lat="42.759807345270666" lon="12.613550835728415"><ele>603.0</ele><time>2026-05-01T14:56:33.002Z</time></trkpt><trkpt lat="42.75973770068492" lon="12.613646652933742"><ele>603.0</ele><time>2026-05-01T14:56:34.002Z</time></trkpt><trkpt lat="42.75966707765933" lon="12.61374055285559"><ele>603.0</ele><time>2026-05-01T14:56:35.002Z</time></trkpt><trkpt lat="42.759597752049274" lon="12.6138272407986"><ele>603.0</ele><time>2026-05-01T14:56:36.002Z</time></trkpt><trkpt lat="42.759525915132386" lon="12.613912263890475"><ele>601.6666666666666</ele><time>2026-05-01T14:56:37.002Z</time></trkpt><trkpt lat="42.75946148814414" lon="12.61399377329909"><ele>600.3333333333334</ele><time>2026-05-01T14:56:38.002Z</time></trkpt><trkpt lat="42.75939998190612" lon="12.614067365091786"><ele>599.0</ele><time>2026-05-01T14:56:39.002Z</time></trkpt><trkpt lat="42.75933559798354" lon="12.614108642612537"><ele>597.6666666666667</ele><time>2026-05-01T14:56:40.002Z</time></trkpt><trkpt lat="42.75928639554466" lon="12.61417498037146"><ele>596.3333333333334</ele><time>2026-05-01T14:56:41.002Z</time></trkpt><trkpt lat="42.75924025383445" lon="12.614262103323375"><ele>595.0</ele><time>2026-05-01T14:56:42.002Z</time></trkpt><trkpt lat="42.75922649083802" lon="12.614360308502524"><ele>595.0</ele><time>2026-05-01T14:56:43.002Z</time></trkpt><trkpt lat="42.75920482463227" lon="12.614460896667522"><ele>595.0</ele><time>2026-05-01T14:56:44.002Z</time></trkpt><trkpt lat="42.75916630568853" lon="12.61458475647326"><ele>595.0</ele><time>2026-05-01T14:56:45.002Z</time></trkpt><trkpt lat="42.759146912440045" lon="12.614735979698201"><ele>595.0</ele><time>2026-05-01T14:56:46.002Z</time></trkpt><trkpt lat="42.75913182026453" lon="12.614871081493023"><ele>595.0</ele><time>2026-05-01T14:56:47.002Z</time></trkpt><trkpt lat="42.759136256538376" lon="12.614958969740174"><ele>594.0</ele><time>2026-05-01T14:56:48.002Z</time></trkpt><trkpt lat="42.75909942316961" lon="12.615157031383424"><ele>593.0</ele><time>2026-05-01T14:56:49.002Z</time></trkpt><trkpt lat="42.75908347204064" lon="12.61529059308147"><ele>592.0</ele><time>2026-05-01T14:56:50.002Z</time></trkpt><trkpt lat="42.75906508866428" lon="12.615407377023663"><ele>591.0</ele><time>2026-05-01T14:56:51.002Z</time></trkpt><trkpt lat="42.75904088879861" lon="12.615510075889217"><ele>590.0</ele><time>2026-05-01T14:56:52.002Z</time></trkpt><trkpt lat="42.75900015292026" lon="12.615592583062801"><ele>589.8</ele><time>2026-05-01T14:56:53.002Z</time></trkpt><trkpt lat="42.7589734083952" lon="12.615691010492094"><ele>589.6</ele><time>2026-05-01T14:56:54.002Z</time></trkpt><trkpt lat="42.758921810159066" lon="12.61577036034862"><ele>589.4</ele><time>2026-05-01T14:56:55.002Z</time></trkpt><trkpt lat="42.7588602952037" lon="12.615894046451475"><ele>589.2</ele><time>2026-05-01T14:56:57.002Z</time></trkpt><trkpt lat="42.758856517183574" lon="12.616041243321188"><ele>589.0</ele><time>2026-05-01T14:57:00.002Z</time></trkpt><trkpt lat="42.75889055772065" lon="12.616139970691535"><ele>587.1666666666667</ele><time>2026-05-01T14:57:01.002Z</time></trkpt><trkpt lat="42.75893635476223" lon="12.616235953382986"><ele>585.3333333333334</ele><time>2026-05-01T14:57:02.002Z</time></trkpt><trkpt lat="42.758993479756555" lon="12.616329063607298"><ele>583.5</ele><time>2026-05-01T14:57:03.002Z</time></trkpt><trkpt lat="42.75907398723351" lon="12.616348032209723"><ele>581.6666666666666</ele><time>2026-05-01T14:57:04.002Z</time></trkpt><trkpt lat="42.7591460897617" lon="12.616331134047126"><ele>579.8333333333333</ele><time>2026-05-01T14:57:05.002Z</time></trkpt><trkpt lat="42.759233440719136" lon="12.616273222696954"><ele>578.0</ele><time>2026-05-01T14:57:06.002Z</time></trkpt><trkpt lat="42.759325373404934" lon="12.61617963602946"><ele>576.1999999999999</ele><time>2026-05-01T14:57:07.002Z</time></trkpt><trkpt lat="42.75943796093032" lon="12.616100587777717"><ele>574.4</ele><time>2026-05-01T14:57:08.002Z</time></trkpt><trkpt lat="42.75953193379516" lon="12.61600035965472"><ele>572.5999999999999</ele><time>2026-05-01T14:57:09.002Z</time></trkpt><trkpt lat="42.75958919650811" lon="12.61590134510028"><ele>570.8</ele><time>2026-05-01T14:57:10.002Z</time></trkpt><trkpt lat="42.75964073220003" lon="12.615812064787947"><ele>569.0</ele><time>2026-05-01T14:57:11.002Z</time></trkpt><trkpt lat="42.75969721637429" lon="12.615704367048412"><ele>569.0</ele><time>2026-05-01T14:57:12.002Z</time></trkpt><trkpt lat="42.7597538279728" lon="12.615619966003289"><ele>569.0</ele><time>2026-05-01T14:57:13.002Z</time></trkpt><trkpt lat="42.75977774378262" lon="12.61553422631698"><ele>569.0</ele><time>2026-05-01T14:57:14.002Z</time></trkpt><trkpt lat="42.75987278278391" lon="12.615285171610262"><ele>569.0</ele><time>2026-05-01T14:57:15.002Z</time></trkpt><trkpt lat="42.759937862005096" lon="12.615159096813017"><ele>571.0</ele><time>2026-05-01T14:57:16.002Z</time></trkpt><trkpt lat="42.75999758348769" lon="12.615040769274637"><ele>573.0</ele><time>2026-05-01T14:57:17.002Z</time></trkpt><trkpt lat="42.76004013637697" lon="12.614912669038477"><ele>575.0</ele><time>2026-05-01T14:57:18.002Z</time></trkpt><trkpt lat="42.76010124270664" lon="12.614790893492772"><ele>577.0</ele><time>2026-05-01T14:57:19.002Z</time></trkpt><trkpt lat="42.76016298531981" lon="12.614675741484659"><ele>579.0</ele><time>2026-05-01T14:57:20.002Z</time></trkpt><trkpt lat="42.76024028454025" lon="12.614570322866511"><ele>576.4</ele><time>2026-05-01T14:57:21.002Z</time></trkpt><trkpt lat="42.76030955861196" lon="12.614456933004144"><ele>573.8</ele><time>2026-05-01T14:57:22.002Z</time></trkpt><trkpt lat="42.760375819921705" lon="12.614354308837092"><ele>571.2</ele><time>2026-05-01T14:57:23.002Z</time></trkpt><trkpt lat="42.7604390325434" lon="12.614257874322517"><ele>568.6</ele><time>2026-05-01T14:57:24.002Z</time></trkpt><trkpt lat="42.760488569078724" lon="12.614159361721963"><ele>566.0</ele><time>2026-05-01T14:57:25.002Z</time></trkpt><trkpt lat="42.76056635741512" lon="12.614076973344789"><ele>566.0</ele><time>2026-05-01T14:57:26.002Z</time></trkpt><trkpt lat="42.760628273180004" lon="12.61400530982346"><ele>566.0</ele><time>2026-05-01T14:57:27.002Z</time></trkpt><trkpt lat="42.76070151223635" lon="12.613946750523803"><ele>566.0</ele><time>2026-05-01T14:57:29.002Z</time></trkpt><trkpt lat="42.76076965386508" lon="12.613998510052458"><ele>566.0</ele><time>2026-05-01T14:57:31.002Z</time></trkpt><trkpt lat="42.76077162327775" lon="12.614121205205475"><ele>566.0</ele><time>2026-05-01T14:57:32.002Z</time></trkpt><trkpt lat="42.760747544072764" lon="12.614229873943787"><ele>566.0</ele><time>2026-05-01T14:57:33.002Z</time></trkpt><trkpt lat="42.760718105820736" lon="12.614333540190131"><ele>566.0</ele><time>2026-05-01T14:57:34.002Z</time></trkpt><trkpt lat="42.76064048085582" lon="12.614381557921579"><ele>566.0</ele><time>2026-05-01T14:57:35.002Z</time></trkpt><trkpt lat="42.76058338166503" lon="12.614469457403084"><ele>566.0</ele><time>2026-05-01T14:57:36.002Z</time></trkpt><trkpt lat="42.760483292099345" lon="12.614518360000124"><ele>566.0</ele><time>2026-05-01T14:57:37.002Z</time></trkpt><trkpt lat="42.76041612103251" lon="12.614600683154034"><ele>566.0</ele><time>2026-05-01T14:57:38.002Z</time></trkpt><trkpt lat="42.7603488008456" lon="12.614681225922286"><ele>563.0</ele><time>2026-05-01T14:57:39.002Z</time></trkpt><trkpt lat="42.76033256081916" lon="12.614891651402601"><ele>560.0</ele><time>2026-05-01T14:57:40.002Z</time></trkpt><trkpt lat="42.76029300387519" lon="12.615046961819488"><ele>557.0</ele><time>2026-05-01T14:57:41.002Z</time></trkpt><trkpt lat="42.760263857171" lon="12.615202665676886"><ele>554.0</ele><time>2026-05-01T14:57:42.002Z</time></trkpt><trkpt lat="42.760234731217636" lon="12.615354540426493"><ele>557.75</ele><time>2026-05-01T14:57:43.002Z</time></trkpt><trkpt lat="42.76021234973665" lon="12.615513165285588"><ele>561.5</ele><time>2026-05-01T14:57:44.002Z</time></trkpt><trkpt lat="42.76019921115721" lon="12.615673904170087"><ele>565.25</ele><time>2026-05-01T14:57:45.002Z</time></trkpt><trkpt lat="42.760186143962045" lon="12.615832170986094"><ele>569.0</ele><time>2026-05-01T14:57:46.002Z</time></trkpt><trkpt lat="42.76017732058977" lon="12.615979510045387"><ele>569.0</ele><time>2026-05-01T14:57:47.002Z</time></trkpt><trkpt lat="42.7601661944175" lon="12.616120073317534"><ele>569.0</ele><time>2026-05-01T14:57:48.002Z</time></trkpt><trkpt lat="42.76015094849125" lon="12.616259679977356"><ele>569.0</ele><time>2026-05-01T14:57:49.002Z</time></trkpt><trkpt lat="42.76013104649092" lon="12.616381964983463"><ele>569.0</ele><time>2026-05-01T14:57:50.002Z</time></trkpt><trkpt lat="42.760102287269966" lon="12.616493463562124"><ele>569.0</ele><time>2026-05-01T14:57:51.002Z</time></trkpt><trkpt lat="42.760047200717686" lon="12.616589649751198"><ele>564.75</ele><time>2026-05-01T14:57:52.002Z</time></trkpt><trkpt lat="42.759975334829136" lon="12.616666201044296"><ele>560.5</ele><time>2026-05-01T14:57:53.002Z</time></trkpt><trkpt lat="42.75988761356453" lon="12.616775240062049"><ele>556.25</ele><time>2026-05-01T14:57:54.002Z</time></trkpt><trkpt lat="42.75978349774906" lon="12.61688490218119"><ele>552.0</ele><time>2026-05-01T14:57:55.002Z</time></trkpt><trkpt lat="42.75969707188025" lon="12.617004868806047"><ele>547.25</ele><time>2026-05-01T14:57:56.002Z</time></trkpt><trkpt lat="42.75962282882506" lon="12.617148578637394"><ele>542.5</ele><time>2026-05-01T14:57:57.002Z</time></trkpt><trkpt lat="42.75954228188137" lon="12.61729455854131"><ele>537.75</ele><time>2026-05-01T14:57:58.002Z</time></trkpt><trkpt lat="42.75947340895546" lon="12.617427213059749"><ele>533.0</ele><time>2026-05-01T14:57:59.002Z</time></trkpt><trkpt lat="42.75938617581626" lon="12.617509031524627"><ele>538.0</ele><time>2026-05-01T14:58:00.002Z</time></trkpt><trkpt lat="42.75929295687132" lon="12.617559431669083"><ele>543.0</ele><time>2026-05-01T14:58:01.002Z</time></trkpt><trkpt lat="42.75916182763467" lon="12.617644756596823"><ele>548.0</ele><time>2026-05-01T14:58:02.002Z</time></trkpt><trkpt lat="42.75901919985571" lon="12.617729795301459"><ele>553.0</ele><time>2026-05-01T14:58:03.002Z</time></trkpt><trkpt lat="42.75889268042057" lon="12.617807582788418"><ele>549.6</ele><time>2026-05-01T14:58:04.002Z</time></trkpt><trkpt lat="42.75877911461301" lon="12.617891889601234"><ele>546.1999999999999</ele><time>2026-05-01T14:58:05.002Z</time></trkpt><trkpt lat="42.7586782277989" lon="12.617975017941419"><ele>542.8</ele><time>2026-05-01T14:58:06.002Z</time></trkpt><trkpt lat="42.758592576877135" lon="12.618040855597581"><ele>539.4</ele><time>2026-05-01T14:58:07.002Z</time></trkpt><trkpt lat="42.75850771238" lon="12.618112002031653"><ele>536.0</ele><time>2026-05-01T14:58:08.002Z</time></trkpt><trkpt lat="42.75844195141362" lon="12.618186671942425"><ele>536.0</ele><time>2026-05-01T14:58:09.002Z</time></trkpt><trkpt lat="42.75840247075896" lon="12.618278998340761"><ele>536.0</ele><time>2026-05-01T14:58:10.002Z</time></trkpt><trkpt lat="42.758367023808034" lon="12.618377891343627"><ele>536.0</ele><time>2026-05-01T14:58:11.002Z</time></trkpt><trkpt lat="42.75838227308246" lon="12.61849630601105"><ele>536.0</ele><time>2026-05-01T14:58:12.002Z</time></trkpt><trkpt lat="42.75845465621487" lon="12.618614736708809"><ele>536.0</ele><time>2026-05-01T14:58:13.002Z</time></trkpt><trkpt lat="42.75849028862139" lon="12.61869492053813"><ele>536.0</ele><time>2026-05-01T14:58:14.003Z</time></trkpt><trkpt lat="42.758500644677355" lon="12.618783104430998"><ele>534.4</ele><time>2026-05-01T14:58:15.003Z</time></trkpt><trkpt lat="42.75851717541601" lon="12.618938287015387"><ele>532.8</ele><time>2026-05-01T14:58:17.003Z</time></trkpt><trkpt lat="42.75845879088087" lon="12.619019543318316"><ele>531.1999999999999</ele><time>2026-05-01T14:58:18.003Z</time></trkpt><trkpt lat="42.758406680911904" lon="12.619122952430294"><ele>529.6</ele><time>2026-05-01T14:58:19.003Z</time></trkpt><trkpt lat="42.75835659645826" lon="12.619211700613029"><ele>528.0</ele><time>2026-05-01T14:58:20.002Z</time></trkpt><trkpt lat="42.758306988041156" lon="12.619311671942256"><ele>528.0</ele><time>2026-05-01T14:58:22.002Z</time></trkpt><trkpt lat="42.75822957089236" lon="12.619366025886542"><ele>528.0</ele><time>2026-05-01T14:58:24.002Z</time></trkpt><trkpt lat="42.75815285029307" lon="12.619305118517829"><ele>528.0</ele><time>2026-05-01T14:58:25.002Z</time></trkpt><trkpt lat="42.75809938898728" lon="12.619255675570075"><ele>528.0</ele><time>2026-05-01T14:58:26.002Z</time></trkpt><trkpt lat="42.75802693424964" lon="12.619181681145813"><ele>528.0</ele><time>2026-05-01T14:58:27.002Z</time></trkpt><trkpt lat="42.757943666930345" lon="12.619082430299535"><ele>528.0</ele><time>2026-05-01T14:58:28.002Z</time></trkpt><trkpt lat="42.757858589263925" lon="12.618989664500205"><ele>528.0</ele><time>2026-05-01T14:58:29.002Z</time></trkpt><trkpt lat="42.75775946726943" lon="12.618919275567395"><ele>528.0</ele><time>2026-05-01T14:58:30.002Z</time></trkpt><trkpt lat="42.757640578597034" lon="12.618861845528338"><ele>528.0</ele><time>2026-05-01T14:58:31.002Z</time></trkpt><trkpt lat="42.757526959864336" lon="12.61882644898451"><ele>528.0</ele><time>2026-05-01T14:58:32.002Z</time></trkpt><trkpt lat="42.7574079099931" lon="12.618837409160612"><ele>525.3333333333334</ele><time>2026-05-01T14:58:33.002Z</time></trkpt><trkpt lat="42.75727745169375" lon="12.618918371609352"><ele>522.6666666666667</ele><time>2026-05-01T14:58:34.002Z</time></trkpt><trkpt lat="42.75715319813428" lon="12.619047205178774"><ele>520.0</ele><time>2026-05-01T14:58:35.002Z</time></trkpt><trkpt lat="42.75703765865424" lon="12.619186344923216"><ele>520.0</ele><time>2026-05-01T14:58:36.002Z</time></trkpt><trkpt lat="42.75690900603732" lon="12.619299831930729"><ele>520.0</ele><time>2026-05-01T14:58:37.002Z</time></trkpt><trkpt lat="42.756800557733534" lon="12.619390986477926"><ele>520.0</ele><time>2026-05-01T14:58:38.002Z</time></trkpt><trkpt lat="42.7566864347242" lon="12.619440512472975"><ele>520.0</ele><time>2026-05-01T14:58:39.002Z</time></trkpt><trkpt lat="42.75653071811165" lon="12.619451202948346"><ele>519.75</ele><time>2026-05-01T14:58:40.002Z</time></trkpt><trkpt lat="42.75635916678161" lon="12.619446203141374"><ele>519.5</ele><time>2026-05-01T14:58:41.002Z</time></trkpt><trkpt lat="42.75628079716791" lon="12.619441630528343"><ele>519.25</ele><time>2026-05-01T14:58:42.002Z</time></trkpt><trkpt lat="42.75616252927626" lon="12.619443484663378"><ele>519.0</ele><time>2026-05-01T14:58:43.002Z</time></trkpt><trkpt lat="42.75607872955395" lon="12.61946798096117"><ele>516.4</ele><time>2026-05-01T14:58:44.002Z</time></trkpt><trkpt lat="42.75597799519287" lon="12.619551808540127"><ele>513.8</ele><time>2026-05-01T14:58:46.002Z</time></trkpt><trkpt lat="42.755987189880244" lon="12.619678761887991"><ele>511.20000000000005</ele><time>2026-05-01T14:58:47.002Z</time></trkpt><trkpt lat="42.75603916673583" lon="12.619786086531656"><ele>508.6</ele><time>2026-05-01T14:58:48.002Z</time></trkpt><trkpt lat="42.75614733502962" lon="12.619835253799456"><ele>506.0</ele><time>2026-05-01T14:58:49.002Z</time></trkpt><trkpt lat="42.75627836146436" lon="12.619847435241397"><ele>506.0</ele><time>2026-05-01T14:58:50.002Z</time></trkpt><trkpt lat="42.756429788065425" lon="12.619855270909834"><ele>506.0</ele><time>2026-05-01T14:58:51.002Z</time></trkpt><trkpt lat="42.75659089548716" lon="12.619882109678407"><ele>506.0</ele><time>2026-05-01T14:58:52.002Z</time></trkpt><trkpt lat="42.75673863950362" lon="12.61992070018427"><ele>506.0</ele><time>2026-05-01T14:58:53.002Z</time></trkpt><trkpt lat="42.75683806799611" lon="12.61997907843103"><ele>506.0</ele><time>2026-05-01T14:58:54.001Z</time></trkpt><trkpt lat="42.75692340724593" lon="12.620035938725032"><ele>506.0</ele><time>2026-05-01T14:58:55.001Z</time></trkpt><trkpt lat="42.7569852045191" lon="12.620156876383547"><ele>506.0</ele><time>2026-05-01T14:58:56.001Z</time></trkpt><trkpt lat="42.75707315625709" lon="12.620282533651812"><ele>506.0</ele><time>2026-05-01T14:58:57.001Z</time></trkpt><trkpt lat="42.757106601511396" lon="12.620483679662795"><ele>504.3333333333333</ele><time>2026-05-01T14:58:58.001Z</time></trkpt><trkpt lat="42.7571054528845" lon="12.620697783922111"><ele>502.66666666666663</ele><time>2026-05-01T14:58:59.001Z</time></trkpt><trkpt lat="42.757103042692506" lon="12.62091906299261"><ele>501.0</ele><time>2026-05-01T14:59:00.001Z</time></trkpt><trkpt lat="42.75708774961937" lon="12.621167123141907"><ele>499.0</ele><time>2026-05-01T14:59:01.001Z</time></trkpt><trkpt lat="42.757109057884314" lon="12.62142147798449"><ele>497.0</ele><time>2026-05-01T14:59:02.001Z</time></trkpt><trkpt lat="42.75713902249064" lon="12.621645304921605"><ele>495.0</ele><time>2026-05-01T14:59:03.001Z</time></trkpt><trkpt lat="42.75719302663408" lon="12.62184945058399"><ele>493.75</ele><time>2026-05-01T14:59:04.001Z</time></trkpt><trkpt lat="42.757249901680424" lon="12.622048998208045"><ele>492.5</ele><time>2026-05-01T14:59:05.001Z</time></trkpt><trkpt lat="42.75731628194617" lon="12.622231611702139"><ele>491.25</ele><time>2026-05-01T14:59:06.001Z</time></trkpt><trkpt lat="42.75735456107403" lon="12.622417319683302"><ele>490.0</ele><time>2026-05-01T14:59:07.001Z</time></trkpt><trkpt lat="42.757386857202356" lon="12.62256930251528"><ele>490.0</ele><time>2026-05-01T14:59:08.001Z</time></trkpt><trkpt lat="42.757400929550855" lon="12.622699830842222"><ele>490.0</ele><time>2026-05-01T14:59:09.001Z</time></trkpt><trkpt lat="42.75737785280965" lon="12.62283325267656"><ele>490.0</ele><time>2026-05-01T14:59:10.001Z</time></trkpt><trkpt lat="42.7573101630033" lon="12.622973839768683"><ele>490.0</ele><time>2026-05-01T14:59:11.001Z</time></trkpt><trkpt lat="42.75721109208857" lon="12.623150239981152"><ele>488.6666666666667</ele><time>2026-05-01T14:59:12.001Z</time></trkpt><trkpt lat="42.75710440214538" lon="12.623336397695974"><ele>487.33333333333337</ele><time>2026-05-01T14:59:13.001Z</time></trkpt><trkpt lat="42.7569991253082" lon="12.623522318813526"><ele>486.0</ele><time>2026-05-01T14:59:14.001Z</time></trkpt><trkpt lat="42.75692516869728" lon="12.623680144764135"><ele>483.75</ele><time>2026-05-01T14:59:15.001Z</time></trkpt><trkpt lat="42.756884207368365" lon="12.623838306795939"><ele>481.5</ele><time>2026-05-01T14:59:16.001Z</time></trkpt><trkpt lat="42.756834851287124" lon="12.624015100489997"><ele>479.25</ele><time>2026-05-01T14:59:17.001Z</time></trkpt><trkpt lat="42.756798232226444" lon="12.624217096098377"><ele>477.0</ele><time>2026-05-01T14:59:18.001Z</time></trkpt><trkpt lat="42.75677510149994" lon="12.624432202946656"><ele>476.25</ele><time>2026-05-01T14:59:19.001Z</time></trkpt><trkpt lat="42.75674416573422" lon="12.624626463511918"><ele>475.5</ele><time>2026-05-01T14:59:20.001Z</time></trkpt><trkpt lat="42.7567116174756" lon="12.624834315310805"><ele>474.75</ele><time>2026-05-01T14:59:21.001Z</time></trkpt><trkpt lat="42.756680490819555" lon="12.62501437096909"><ele>474.0</ele><time>2026-05-01T14:59:22.001Z</time></trkpt><trkpt lat="42.75667270539752" lon="12.625196265509263"><ele>474.33333333333337</ele><time>2026-05-01T14:59:23.001Z</time></trkpt><trkpt lat="42.75666181586616" lon="12.62539523380635"><ele>474.6666666666667</ele><time>2026-05-01T14:59:24.001Z</time></trkpt><trkpt lat="42.75667799995246" lon="12.625633147001958"><ele>475.0</ele><time>2026-05-01T14:59:25.001Z</time></trkpt><trkpt lat="42.75671427151501" lon="12.625895517553422"><ele>474.33333333333337</ele><time>2026-05-01T14:59:26.001Z</time></trkpt><trkpt lat="42.75676237832805" lon="12.626148432618985"><ele>473.66666666666663</ele><time>2026-05-01T14:59:27.001Z</time></trkpt><trkpt lat="42.756809440423645" lon="12.626375432089208"><ele>473.0</ele><time>2026-05-01T14:59:28.001Z</time></trkpt><trkpt lat="42.756851336709914" lon="12.626591938283218"><ele>467.66666666666663</ele><time>2026-05-01T14:59:29.001Z</time></trkpt><trkpt lat="42.75688911034915" lon="12.626797784296212"><ele>462.33333333333337</ele><time>2026-05-01T14:59:30.001Z</time></trkpt><trkpt lat="42.75692992766477" lon="12.626995416204725"><ele>457.0</ele><time>2026-05-01T14:59:31.001Z</time></trkpt><trkpt lat="42.75698147748156" lon="12.6271840407677"><ele>456.75</ele><time>2026-05-01T14:59:32.001Z</time></trkpt><trkpt lat="42.75705185638519" lon="12.627367033141066"><ele>456.5</ele><time>2026-05-01T14:59:33.001Z</time></trkpt><trkpt lat="42.757091528978854" lon="12.627521011861354"><ele>456.25</ele><time>2026-05-01T14:59:34.001Z</time></trkpt><trkpt lat="42.75713348723131" lon="12.627640668496882"><ele>456.0</ele><time>2026-05-01T14:59:35.001Z</time></trkpt><trkpt lat="42.75715591092689" lon="12.62775097095771"><ele>456.20000000000005</ele><time>2026-05-01T14:59:36.001Z</time></trkpt><trkpt lat="42.75714774773938" lon="12.627861865219424"><ele>456.40000000000003</ele><time>2026-05-01T14:59:37.001Z</time></trkpt><trkpt lat="42.757121518424164" lon="12.627950513614053"><ele>456.6</ele><time>2026-05-01T14:59:38.001Z</time></trkpt><trkpt lat="42.75703050646992" lon="12.627996703610515"><ele>456.8</ele><time>2026-05-01T14:59:39.001Z</time></trkpt><trkpt lat="42.75693088994952" lon="12.62806488088265"><ele>457.0</ele><time>2026-05-01T14:59:40.001Z</time></trkpt><trkpt lat="42.756819481526456" lon="12.62815193829439"><ele>456.5</ele><time>2026-05-01T14:59:41.001Z</time></trkpt><trkpt lat="42.75668885594258" lon="12.628229782165583"><ele>456.0</ele><time>2026-05-01T14:59:42.001Z</time></trkpt><trkpt lat="42.75656111388449" lon="12.628309910398476"><ele>455.5</ele><time>2026-05-01T14:59:43.001Z</time></trkpt><trkpt lat="42.75643985966062" lon="12.628397040570082"><ele>455.0</ele><time>2026-05-01T14:59:44.001Z</time></trkpt><trkpt lat="42.75631567883685" lon="12.628490170213551"><ele>455.0</ele><time>2026-05-01T14:59:45.001Z</time></trkpt><trkpt lat="42.756190288706996" lon="12.628576924445037"><ele>455.0</ele><time>2026-05-01T14:59:46.001Z</time></trkpt><trkpt lat="42.75606520053658" lon="12.628654041523083"><ele>455.0</ele><time>2026-05-01T14:59:47.001Z</time></trkpt><trkpt lat="42.75593841586103" lon="12.628740750779262"><ele>455.0</ele><time>2026-05-01T14:59:48.001Z</time></trkpt><trkpt lat="42.75581244875482" lon="12.628832400743493"><ele>453.0</ele><time>2026-05-01T14:59:49.001Z</time></trkpt><trkpt lat="42.75569637945967" lon="12.628941777119435"><ele>451.0</ele><time>2026-05-01T14:59:50.001Z</time></trkpt><trkpt lat="42.755600243331905" lon="12.629078863140073"><ele>449.0</ele><time>2026-05-01T14:59:51.001Z</time></trkpt><trkpt lat="42.75551530143594" lon="12.629238216138152"><ele>447.0</ele><time>2026-05-01T14:59:52.001Z</time></trkpt><trkpt lat="42.755440829535274" lon="12.629407814708602"><ele>445.0</ele><time>2026-05-01T14:59:53.001Z</time></trkpt><trkpt lat="42.75537761038611" lon="12.629582626283597"><ele>443.0</ele><time>2026-05-01T14:59:54.001Z</time></trkpt><trkpt lat="42.755314715875606" lon="12.62976273244154"><ele>441.0</ele><time>2026-05-01T14:59:55.001Z</time></trkpt><trkpt lat="42.75524314886289" lon="12.62993470976527"><ele>439.0</ele><time>2026-05-01T14:59:56.001Z</time></trkpt><trkpt lat="42.75517734891661" lon="12.63011486549411"><ele>439.0</ele><time>2026-05-01T14:59:57.001Z</time></trkpt><trkpt lat="42.75510817385798" lon="12.63029876926559"><ele>439.0</ele><time>2026-05-01T14:59:58.001Z</time></trkpt><trkpt lat="42.75503475175905" lon="12.63048615446658"><ele>439.0</ele><time>2026-05-01T14:59:59.001Z</time></trkpt><trkpt lat="42.75497094524511" lon="12.630681207833698"><ele>438.5</ele><time>2026-05-01T15:00:00.001Z</time></trkpt><trkpt lat="42.7549295493241" lon="12.630875585861824"><ele>438.0</ele><time>2026-05-01T15:00:01.001Z</time></trkpt><trkpt lat="42.754899588323944" lon="12.631073142575366"><ele>437.5</ele><time>2026-05-01T15:00:02.001Z</time></trkpt><trkpt lat="42.75487203913936" lon="12.631264059675459"><ele>437.0</ele><time>2026-05-01T15:00:03.001Z</time></trkpt><trkpt lat="42.754826864598954" lon="12.631447477851037"><ele>435.75</ele><time>2026-05-01T15:00:04.001Z</time></trkpt><trkpt lat="42.7548146018431" lon="12.631622208953825"><ele>434.5</ele><time>2026-05-01T15:00:05.001Z</time></trkpt><trkpt lat="42.75478448831712" lon="12.631768016143246"><ele>433.25</ele><time>2026-05-01T15:00:06.001Z</time></trkpt><trkpt lat="42.75471551843536" lon="12.631895475638714"><ele>432.0</ele><time>2026-05-01T15:00:07.001Z</time></trkpt><trkpt lat="42.75463502194449" lon="12.632062334180286"><ele>432.25</ele><time>2026-05-01T15:00:08.001Z</time></trkpt><trkpt lat="42.75454585135768" lon="12.632238366837525"><ele>432.5</ele><time>2026-05-01T15:00:09.001Z</time></trkpt><trkpt lat="42.75446310075078" lon="12.632401880100035"><ele>432.75</ele><time>2026-05-01T15:00:10.001Z</time></trkpt><trkpt lat="42.75439063965841" lon="12.632546364718443"><ele>433.0</ele><time>2026-05-01T15:00:11.001Z</time></trkpt><trkpt lat="42.75433153722295" lon="12.632686938748714"><ele>433.0</ele><time>2026-05-01T15:00:12.001Z</time></trkpt><trkpt lat="42.75426246346332" lon="12.632792346294792"><ele>432.99999999999994</ele><time>2026-05-01T15:00:13.001Z</time></trkpt><trkpt lat="42.75417986332718" lon="12.632859118750154"><ele>432.99999999999994</ele><time>2026-05-01T15:00:14.001Z</time></trkpt><trkpt lat="42.75407711224305" lon="12.632852365933063"><ele>433.0</ele><time>2026-05-01T15:00:15.001Z</time></trkpt><trkpt lat="42.75396039520207" lon="12.632822414608617"><ele>433.0</ele><time>2026-05-01T15:00:16.001Z</time></trkpt><trkpt lat="42.753835528612356" lon="12.632806581774611"><ele>433.0</ele><time>2026-05-01T15:00:17.001Z</time></trkpt><trkpt lat="42.75371582587656" lon="12.63276369107421"><ele>433.0</ele><time>2026-05-01T15:00:18.001Z</time></trkpt><trkpt lat="42.75359292021923" lon="12.632711543423364"><ele>433.0</ele><time>2026-05-01T15:00:19.001Z</time></trkpt><trkpt lat="42.753483772402326" lon="12.632647742910631"><ele>433.0</ele><time>2026-05-01T15:00:20.002Z</time></trkpt><trkpt lat="42.75340631547865" lon="12.632585701266466"><ele>431.79999999999995</ele><time>2026-05-01T15:00:21.002Z</time></trkpt><trkpt lat="42.75335854769698" lon="12.632498860012406"><ele>430.59999999999997</ele><time>2026-05-01T15:00:22.002Z</time></trkpt><trkpt lat="42.753341791889724" lon="12.63238091293811"><ele>429.40000000000003</ele><time>2026-05-01T15:00:23.002Z</time></trkpt><trkpt lat="42.75335316738172" lon="12.63225257377754"><ele>428.20000000000005</ele><time>2026-05-01T15:00:24.002Z</time></trkpt><trkpt lat="42.753383348850825" lon="12.632099872567306"><ele>427.0</ele><time>2026-05-01T15:00:25.002Z</time></trkpt><trkpt lat="42.75339828995814" lon="12.63197997348383"><ele>427.00000000000006</ele><time>2026-05-01T15:00:26.002Z</time></trkpt><trkpt lat="42.75337188423952" lon="12.6319002917182"><ele>427.0</ele><time>2026-05-01T15:00:27.002Z</time></trkpt><trkpt lat="42.75332407653086" lon="12.631834554482092"><ele>427.0</ele><time>2026-05-01T15:00:28.002Z</time></trkpt><trkpt lat="42.7532221908622" lon="12.63182434821245"><ele>427.0</ele><time>2026-05-01T15:00:29.002Z</time></trkpt><trkpt lat="42.75312706954035" lon="12.63190845315637"><ele>427.00000000000006</ele><time>2026-05-01T15:00:30.002Z</time></trkpt><trkpt lat="42.753060074099416" lon="12.632005939515699"><ele>427.0</ele><time>2026-05-01T15:00:31.002Z</time></trkpt><trkpt lat="42.752990600217935" lon="12.632109537262012"><ele>427.0</ele><time>2026-05-01T15:00:32.002Z</time></trkpt><trkpt lat="42.75292911476642" lon="12.632204902532763"><ele>427.00000000000006</ele><time>2026-05-01T15:00:33.002Z</time></trkpt><trkpt lat="42.752881792038686" lon="12.63228664897391"><ele>427.00000000000006</ele><time>2026-05-01T15:00:34.002Z</time></trkpt><trkpt lat="42.75283056365424" lon="12.632428267795058"><ele>427.0</ele><time>2026-05-01T15:00:35.002Z</time></trkpt><trkpt lat="42.75277767092684" lon="12.63253001222054"><ele>427.0</ele><time>2026-05-01T15:00:36.002Z</time></trkpt><trkpt lat="42.752787847628824" lon="12.632672489529943"><ele>424.5</ele><time>2026-05-01T15:00:37.002Z</time></trkpt><trkpt lat="42.75282508762131" lon="12.632833265531538"><ele>422.0</ele><time>2026-05-01T15:00:38.002Z</time></trkpt><trkpt lat="42.75285432984352" lon="12.63299694433028"><ele>419.5</ele><time>2026-05-01T15:00:39.002Z</time></trkpt><trkpt lat="42.752851346467466" lon="12.633186088320135"><ele>417.0</ele><time>2026-05-01T15:00:40.001Z</time></trkpt><trkpt lat="42.752785396438675" lon="12.63335199904728"><ele>417.0</ele><time>2026-05-01T15:00:42.001Z</time></trkpt><trkpt lat="42.75272881918102" lon="12.63346281504818"><ele>417.0</ele><time>2026-05-01T15:00:43.001Z</time></trkpt><trkpt lat="42.75267755464745" lon="12.633550817684688"><ele>417.0</ele><time>2026-05-01T15:00:44.001Z</time></trkpt><trkpt lat="42.75261424366986" lon="12.633575947853112"><ele>417.0</ele><time>2026-05-01T15:00:45.001Z</time></trkpt><trkpt lat="42.752548238371446" lon="12.633573834002878"><ele>417.0</ele><time>2026-05-01T15:00:46.001Z</time></trkpt><trkpt lat="42.75248720657507" lon="12.633504512885535"><ele>417.0</ele><time>2026-05-01T15:00:47.001Z</time></trkpt><trkpt lat="42.75240648250068" lon="12.633427853608467"><ele>416.20000000000005</ele><time>2026-05-01T15:00:48.001Z</time></trkpt><trkpt lat="42.752309106410735" lon="12.633351292347148"><ele>415.4</ele><time>2026-05-01T15:00:49.001Z</time></trkpt><trkpt lat="42.752225159297524" lon="12.633266574463764"><ele>414.6</ele><time>2026-05-01T15:00:50.001Z</time></trkpt><trkpt lat="42.75214954376343" lon="12.633190153404973"><ele>413.79999999999995</ele><time>2026-05-01T15:00:51.001Z</time></trkpt><trkpt lat="42.7520755911812" lon="12.633137820799083"><ele>413.0</ele><time>2026-05-01T15:00:52.001Z</time></trkpt><trkpt lat="42.75199559495296" lon="12.633116225901516"><ele>413.0</ele><time>2026-05-01T15:00:53.001Z</time></trkpt><trkpt lat="42.751895933288516" lon="12.633130785223562"><ele>413.0</ele><time>2026-05-01T15:00:54.001Z</time></trkpt><trkpt lat="42.75178446221101" lon="12.633166485680494"><ele>413.0</ele><time>2026-05-01T15:00:55.001Z</time></trkpt><trkpt lat="42.75167160178296" lon="12.633227018237402"><ele>413.0</ele><time>2026-05-01T15:00:56.001Z</time></trkpt><trkpt lat="42.75155372253711" lon="12.633297810240173"><ele>412.25</ele><time>2026-05-01T15:00:57.001Z</time></trkpt><trkpt lat="42.75143715772045" lon="12.633364139647892"><ele>411.5</ele><time>2026-05-01T15:00:58.001Z</time></trkpt><trkpt lat="42.751316981742306" lon="12.633426432419629"><ele>410.75</ele><time>2026-05-01T15:00:59.001Z</time></trkpt><trkpt lat="42.751197974608694" lon="12.633466567114114"><ele>410.0</ele><time>2026-05-01T15:01:00.001Z</time></trkpt><trkpt lat="42.75108443198493" lon="12.633544735504561"><ele>409.0</ele><time>2026-05-01T15:01:01.001Z</time></trkpt><trkpt lat="42.750964509826574" lon="12.633606019256725"><ele>408.0</ele><time>2026-05-01T15:01:02.001Z</time></trkpt><trkpt lat="42.750840178637354" lon="12.63364718177245"><ele>407.0</ele><time>2026-05-01T15:01:03.001Z</time></trkpt><trkpt lat="42.75074700727444" lon="12.633694072633531"><ele>406.0</ele><time>2026-05-01T15:01:04.001Z</time></trkpt><trkpt lat="42.750659989836386" lon="12.633738445064157"><ele>405.0</ele><time>2026-05-01T15:01:05.001Z</time></trkpt><trkpt lat="42.750475189272336" lon="12.633850874398789"><ele>405.0</ele><time>2026-05-01T15:01:06.001Z</time></trkpt><trkpt lat="42.750358878891326" lon="12.633914276938427"><ele>405.0</ele><time>2026-05-01T15:01:07.001Z</time></trkpt><trkpt lat="42.75024463054366" lon="12.633980248941427"><ele>405.0</ele><time>2026-05-01T15:01:08.001Z</time></trkpt><trkpt lat="42.75012070785452" lon="12.634018734756474"><ele>405.0</ele><time>2026-05-01T15:01:09.001Z</time></trkpt><trkpt lat="42.750006454837646" lon="12.634096147706813"><ele>403.25</ele><time>2026-05-01T15:01:10.001Z</time></trkpt><trkpt lat="42.749895213590186" lon="12.634158104674555"><ele>401.5</ele><time>2026-05-01T15:01:11.001Z</time></trkpt><trkpt lat="42.7497819336847" lon="12.634235851581087"><ele>399.75</ele><time>2026-05-01T15:01:12.001Z</time></trkpt><trkpt lat="42.749673120745314" lon="12.634331275254464"><ele>398.0</ele><time>2026-05-01T15:01:13.001Z</time></trkpt><trkpt lat="42.74956549092422" lon="12.634432362072822"><ele>398.75</ele><time>2026-05-01T15:01:14.001Z</time></trkpt><trkpt lat="42.74946412870265" lon="12.634542914642543"><ele>399.5</ele><time>2026-05-01T15:01:15.001Z</time></trkpt><trkpt lat="42.74936824958325" lon="12.634656660282895"><ele>400.25</ele><time>2026-05-01T15:01:16.001Z</time></trkpt><trkpt lat="42.74927422769312" lon="12.634766859915302"><ele>401.0</ele><time>2026-05-01T15:01:17.001Z</time></trkpt><trkpt lat="42.74917689779908" lon="12.634866666272412"><ele>399.25</ele><time>2026-05-01T15:01:18.001Z</time></trkpt><trkpt lat="42.74908602298432" lon="12.634967454267494"><ele>397.5</ele><time>2026-05-01T15:01:19.001Z</time></trkpt><trkpt lat="42.748995510253486" lon="12.635077097184155"><ele>395.75</ele><time>2026-05-01T15:01:20.001Z</time></trkpt><trkpt lat="42.748902147987316" lon="12.635198703962736"><ele>394.0</ele><time>2026-05-01T15:01:21.001Z</time></trkpt><trkpt lat="42.74882332541078" lon="12.635370917826947"><ele>394.0</ele><time>2026-05-01T15:01:22.001Z</time></trkpt><trkpt lat="42.748755610632244" lon="12.635570103030352"><ele>394.0</ele><time>2026-05-01T15:01:23.001Z</time></trkpt><trkpt lat="42.748701727339345" lon="12.635781195002744"><ele>394.0</ele><time>2026-05-01T15:01:24.001Z</time></trkpt><trkpt lat="42.748655054637645" lon="12.635973631748632"><ele>394.25</ele><time>2026-05-01T15:01:25.001Z</time></trkpt><trkpt lat="42.748613941972906" lon="12.636163693721093"><ele>394.5</ele><time>2026-05-01T15:01:26.001Z</time></trkpt><trkpt lat="42.748575410513595" lon="12.63635223939194"><ele>394.75</ele><time>2026-05-01T15:01:27.001Z</time></trkpt><trkpt lat="42.74851570959179" lon="12.636514505772842"><ele>395.0</ele><time>2026-05-01T15:01:28.001Z</time></trkpt><trkpt lat="42.74846458810898" lon="12.636678588120892"><ele>393.25</ele><time>2026-05-01T15:01:29.001Z</time></trkpt><trkpt lat="42.74839543137815" lon="12.636849552840403"><ele>391.5</ele><time>2026-05-01T15:01:30.001Z</time></trkpt><trkpt lat="42.748309769376824" lon="12.63701641802221"><ele>389.75</ele><time>2026-05-01T15:01:31.001Z</time></trkpt><trkpt lat="42.74822689639839" lon="12.637187036062835"><ele>388.0</ele><time>2026-05-01T15:01:32.001Z</time></trkpt><trkpt lat="42.74813242549563" lon="12.637322960604061"><ele>388.0</ele><time>2026-05-01T15:01:33.001Z</time></trkpt><trkpt lat="42.74803236498261" lon="12.637450162119098"><ele>388.0</ele><time>2026-05-01T15:01:34.001Z</time></trkpt><trkpt lat="42.74795460431838" lon="12.637624783997172"><ele>388.0</ele><time>2026-05-01T15:01:35.001Z</time></trkpt><trkpt lat="42.747879464851174" lon="12.637787531673869"><ele>388.0</ele><time>2026-05-01T15:01:36.001Z</time></trkpt><trkpt lat="42.74780789219149" lon="12.637952986335424"><ele>389.0</ele><time>2026-05-01T15:01:37.001Z</time></trkpt><trkpt lat="42.747734860956164" lon="12.638119342820696"><ele>390.0</ele><time>2026-05-01T15:01:38.001Z</time></trkpt><trkpt lat="42.74767223467238" lon="12.638296744937884"><ele>391.0</ele><time>2026-05-01T15:01:39.001Z</time></trkpt><trkpt lat="42.74761119962136" lon="12.63847106408664"><ele>392.0</ele><time>2026-05-01T15:01:40.001Z</time></trkpt><trkpt lat="42.747557314093626" lon="12.638648359148432"><ele>389.5</ele><time>2026-05-01T15:01:41.001Z</time></trkpt><trkpt lat="42.74750916380799" lon="12.638818777186655"><ele>387.0</ele><time>2026-05-01T15:01:42.001Z</time></trkpt><trkpt lat="42.747462054596994" lon="12.638990724714454"><ele>384.5</ele><time>2026-05-01T15:01:43.001Z</time></trkpt><trkpt lat="42.74741813349854" lon="12.639165004821336"><ele>382.0</ele><time>2026-05-01T15:01:44.001Z</time></trkpt><trkpt lat="42.747376136047734" lon="12.639339143412649"><ele>382.0</ele><time>2026-05-01T15:01:45.001Z</time></trkpt><trkpt lat="42.74732208481684" lon="12.63952863306423"><ele>382.0</ele><time>2026-05-01T15:01:46.001Z</time></trkpt><trkpt lat="42.74729048016222" lon="12.639731375275183"><ele>382.0</ele><time>2026-05-01T15:01:47.001Z</time></trkpt><trkpt lat="42.74723670648924" lon="12.639895111666757"><ele>382.0</ele><time>2026-05-01T15:01:48Z</time></trkpt><trkpt lat="42.747198970564135" lon="12.640055992895768"><ele>382.0</ele><time>2026-05-01T15:01:49Z</time></trkpt><trkpt lat="42.74715433006413" lon="12.640246310383622"><ele>382.0</ele><time>2026-05-01T15:01:50Z</time></trkpt><trkpt lat="42.747107274114185" lon="12.640448017420436"><ele>382.0</ele><time>2026-05-01T15:01:51Z</time></trkpt><trkpt lat="42.747071475569776" lon="12.640606912401962"><ele>382.0</ele><time>2026-05-01T15:01:53Z</time></trkpt><trkpt lat="42.747043397714556" lon="12.640731537769847"><ele>382.0</ele><time>2026-05-01T15:01:54Z</time></trkpt><trkpt lat="42.74700954120706" lon="12.640881813825937"><ele>382.0</ele><time>2026-05-01T15:01:55Z</time></trkpt><trkpt lat="42.74698514304243" lon="12.641061501304877"><ele>382.0</ele><time>2026-05-01T15:01:56Z</time></trkpt><trkpt lat="42.746943430558545" lon="12.64126017147535"><ele>382.0</ele><time>2026-05-01T15:01:57Z</time></trkpt><trkpt lat="42.74691047286235" lon="12.641486504032171"><ele>382.66666666666663</ele><time>2026-05-01T15:01:58Z</time></trkpt><trkpt lat="42.746879247885545" lon="12.641705105668622"><ele>383.3333333333333</ele><time>2026-05-01T15:01:59Z</time></trkpt><trkpt lat="42.74685849371335" lon="12.641920494862283"><ele>384.0</ele><time>2026-05-01T15:02:00Z</time></trkpt><trkpt lat="42.746845192257204" lon="12.642132872706226"><ele>381.0</ele><time>2026-05-01T15:02:01Z</time></trkpt><trkpt lat="42.746829959815365" lon="12.642350718111407"><ele>378.0</ele><time>2026-05-01T15:02:02Z</time></trkpt><trkpt lat="42.74681265102512" lon="12.642574669688146"><ele>375.0</ele><time>2026-05-01T15:02:03Z</time></trkpt><trkpt lat="42.74679731445855" lon="12.64278948243911"><ele>374.3333333333333</ele><time>2026-05-01T15:02:04Z</time></trkpt><trkpt lat="42.74679275904254" lon="12.643004266537375"><ele>373.66666666666663</ele><time>2026-05-01T15:02:05Z</time></trkpt><trkpt lat="42.746790634474095" lon="12.64321007053296"><ele>373.0</ele><time>2026-05-01T15:02:06Z</time></trkpt><trkpt lat="42.74676856279073" lon="12.643407583308866"><ele>373.0</ele><time>2026-05-01T15:02:07Z</time></trkpt><trkpt lat="42.746762843089975" lon="12.643602596928664"><ele>373.0</ele><time>2026-05-01T15:02:08Z</time></trkpt><trkpt lat="42.746776092067165" lon="12.64379495485508"><ele>373.0</ele><time>2026-05-01T15:02:09Z</time></trkpt><trkpt lat="42.74675828171609" lon="12.643992468784615"><ele>373.0</ele><time>2026-05-01T15:02:10Z</time></trkpt><trkpt lat="42.7467591183621" lon="12.644194435377031"><ele>372.25</ele><time>2026-05-01T15:02:11Z</time></trkpt><trkpt lat="42.746764423514925" lon="12.644397295282678"><ele>371.5</ele><time>2026-05-01T15:02:12Z</time></trkpt><trkpt lat="42.746771769803495" lon="12.644590515372274"><ele>370.75</ele><time>2026-05-01T15:02:13Z</time></trkpt><trkpt lat="42.746780989018" lon="12.644761221093376"><ele>370.0</ele><time>2026-05-01T15:02:14Z</time></trkpt><trkpt lat="42.74679065732428" lon="12.644938749742698"><ele>369.5</ele><time>2026-05-01T15:02:15Z</time></trkpt><trkpt lat="42.746800890402184" lon="12.645117144511717"><ele>369.0</ele><time>2026-05-01T15:02:16Z</time></trkpt><trkpt lat="42.74681116796421" lon="12.645295330214836"><ele>368.5</ele><time>2026-05-01T15:02:17Z</time></trkpt><trkpt lat="42.74682109903876" lon="12.645469181286096"><ele>368.0</ele><time>2026-05-01T15:02:18Z</time></trkpt><trkpt lat="42.74682953472957" lon="12.645630347445959"><ele>367.25</ele><time>2026-05-01T15:02:19Z</time></trkpt><trkpt lat="42.746838242874304" lon="12.64579671884973"><ele>366.5</ele><time>2026-05-01T15:02:20Z</time></trkpt><trkpt lat="42.74684692814048" lon="12.645962783423846"><ele>365.75</ele><time>2026-05-01T15:02:21Z</time></trkpt><trkpt lat="42.74685535875137" lon="12.64613165571521"><ele>365.0</ele><time>2026-05-01T15:02:22Z</time></trkpt><trkpt lat="42.74686385199117" lon="12.646301782431498"><ele>365.25</ele><time>2026-05-01T15:02:23Z</time></trkpt><trkpt lat="42.74688935010756" lon="12.64649351688024"><ele>365.5</ele><time>2026-05-01T15:02:24Z</time></trkpt><trkpt lat="42.746896317008805" lon="12.646677470539906"><ele>365.75</ele><time>2026-05-01T15:02:25Z</time></trkpt><trkpt lat="42.746889445886914" lon="12.64686920536363"><ele>366.0</ele><time>2026-05-01T15:02:26Z</time></trkpt><trkpt lat="42.7469114416783" lon="12.647052347920434"><ele>366.0</ele><time>2026-05-01T15:02:27Z</time></trkpt><trkpt lat="42.74691833690519" lon="12.64722569032427"><ele>366.0</ele><time>2026-05-01T15:02:28Z</time></trkpt><trkpt lat="42.746926029695146" lon="12.647399048267522"><ele>366.0</ele><time>2026-05-01T15:02:29Z</time></trkpt><trkpt lat="42.74693397476107" lon="12.647567623533625"><ele>366.0</ele><time>2026-05-01T15:02:30Z</time></trkpt><trkpt lat="42.746926171961455" lon="12.64774502997328"><ele>364.75</ele><time>2026-05-01T15:02:31Z</time></trkpt><trkpt lat="42.74693243182702" lon="12.647922800519432"><ele>363.5</ele><time>2026-05-01T15:02:32Z</time></trkpt><trkpt lat="42.74694425386813" lon="12.648107445035803"><ele>362.25</ele><time>2026-05-01T15:02:33Z</time></trkpt><trkpt lat="42.746953981045564" lon="12.648287926586141"><ele>361.0</ele><time>2026-05-01T15:02:34Z</time></trkpt><trkpt lat="42.746961484778836" lon="12.648467837740055"><ele>360.25</ele><time>2026-05-01T15:02:35Z</time></trkpt><trkpt lat="42.74696707287296" lon="12.64865273604639"><ele>359.5</ele><time>2026-05-01T15:02:36Z</time></trkpt><trkpt lat="42.74697373152702" lon="12.648832886983449"><ele>358.75</ele><time>2026-05-01T15:02:37Z</time></trkpt><trkpt lat="42.74698185905018" lon="12.649010064034163"><ele>358.0</ele><time>2026-05-01T15:02:38Z</time></trkpt><trkpt lat="42.74698998386652" lon="12.649186713583495"><ele>358.0</ele><time>2026-05-01T15:02:39Z</time></trkpt><trkpt lat="42.74699931523594" lon="12.649364057925618"><ele>358.0</ele><time>2026-05-01T15:02:40Z</time></trkpt><trkpt lat="42.7470047545075" lon="12.649525230760313"><ele>358.0</ele><time>2026-05-01T15:02:41Z</time></trkpt><trkpt lat="42.74702067078202" lon="12.649684556188467"><ele>358.0</ele><time>2026-05-01T15:02:42Z</time></trkpt><trkpt lat="42.747026694067266" lon="12.649848712409334"><ele>357.79999999999995</ele><time>2026-05-01T15:02:43Z</time></trkpt><trkpt lat="42.747040567827845" lon="12.649996155853497"><ele>357.6</ele><time>2026-05-01T15:02:44Z</time></trkpt><trkpt lat="42.7470500379956" lon="12.65014333821136"><ele>357.4</ele><time>2026-05-01T15:02:45Z</time></trkpt><trkpt lat="42.74705605651225" lon="12.650298342889037"><ele>357.20000000000005</ele><time>2026-05-01T15:02:46Z</time></trkpt><trkpt lat="42.747082423390395" lon="12.650443490203573"><ele>357.0</ele><time>2026-05-01T15:02:47Z</time></trkpt><trkpt lat="42.74710283585922" lon="12.650588022627268"><ele>356.5</ele><time>2026-05-01T15:02:48Z</time></trkpt><trkpt lat="42.74711860302233" lon="12.650717533363753"><ele>356.0</ele><time>2026-05-01T15:02:49Z</time></trkpt><trkpt lat="42.7471307517376" lon="12.65083364515571"><ele>355.5</ele><time>2026-05-01T15:02:50Z</time></trkpt><trkpt lat="42.74714279387934" lon="12.650935341416174"><ele>355.0</ele><time>2026-05-01T15:02:51Z</time></trkpt><trkpt lat="42.747131654243425" lon="12.651052520113563"><ele>354.5</ele><time>2026-05-01T15:02:52Z</time></trkpt><trkpt lat="42.74712703555005" lon="12.651183409574795"><ele>354.0</ele><time>2026-05-01T15:02:53Z</time></trkpt><trkpt lat="42.7471292258493" lon="12.65131429359155"><ele>353.6666666666667</ele><time>2026-05-01T15:02:54Z</time></trkpt><trkpt lat="42.7471082263672" lon="12.651439918844927"><ele>353.3333333333333</ele><time>2026-05-01T15:02:55Z</time></trkpt><trkpt lat="42.74708833204827" lon="12.65155356471805"><ele>353.0</ele><time>2026-05-01T15:02:56Z</time></trkpt><trkpt lat="42.747066076329" lon="12.651663229572973"><ele>352.66666666666663</ele><time>2026-05-01T15:02:57Z</time></trkpt><trkpt lat="42.74703962204685" lon="12.651764656938822"><ele>352.3333333333333</ele><time>2026-05-01T15:02:58Z</time></trkpt><trkpt lat="42.74700974189777" lon="12.651868983439197"><ele>352.0</ele><time>2026-05-01T15:02:59Z</time></trkpt><trkpt lat="42.74697479463189" lon="12.651961513570933"><ele>351.3333333333333</ele><time>2026-05-01T15:03:00Z</time></trkpt><trkpt lat="42.74694757992457" lon="12.652062720453197"><ele>350.66666666666663</ele><time>2026-05-01T15:03:01Z</time></trkpt><trkpt lat="42.74692578477163" lon="12.652162745304533"><ele>350.0</ele><time>2026-05-01T15:03:02Z</time></trkpt><trkpt lat="42.74691876633972" lon="12.652260081702696"><ele>349.3333333333333</ele><time>2026-05-01T15:03:03Z</time></trkpt><trkpt lat="42.74693236532683" lon="12.6523782950961"><ele>348.6666666666667</ele><time>2026-05-01T15:03:04Z</time></trkpt><trkpt lat="42.74697633590664" lon="12.652519171221352"><ele>348.0</ele><time>2026-05-01T15:03:05Z</time></trkpt><trkpt lat="42.747040466049256" lon="12.65265535346193"><ele>348.0</ele><time>2026-05-01T15:03:06Z</time></trkpt><trkpt lat="42.74710599895831" lon="12.652764820987116"><ele>348.0</ele><time>2026-05-01T15:03:07Z</time></trkpt><trkpt lat="42.74716824944318" lon="12.652872194084303"><ele>348.0</ele><time>2026-05-01T15:03:08Z</time></trkpt><trkpt lat="42.74723250902336" lon="12.652985199615225"><ele>348.0</ele><time>2026-05-01T15:03:09Z</time></trkpt><trkpt lat="42.74728679136546" lon="12.653099354188285"><ele>348.0</ele><time>2026-05-01T15:03:10Z</time></trkpt><trkpt lat="42.74732864684541" lon="12.65321531694158"><ele>347.4</ele><time>2026-05-01T15:03:11Z</time></trkpt><trkpt lat="42.74735351323822" lon="12.653339088287051"><ele>346.79999999999995</ele><time>2026-05-01T15:03:12Z</time></trkpt><trkpt lat="42.747356957314956" lon="12.653465614710484"><ele>346.2</ele><time>2026-05-01T15:03:13Z</time></trkpt><trkpt lat="42.74733480088812" lon="12.653554875047739"><ele>345.6</ele><time>2026-05-01T15:03:14Z</time></trkpt><trkpt lat="42.74731633767636" lon="12.65378061521793"><ele>345.0</ele><time>2026-05-01T15:03:15Z</time></trkpt><trkpt lat="42.74730353782425" lon="12.65391402493822"><ele>344.6</ele><time>2026-05-01T15:03:16Z</time></trkpt><trkpt lat="42.747289312576115" lon="12.654049666623404"><ele>344.2</ele><time>2026-05-01T15:03:17Z</time></trkpt><trkpt lat="42.74728577639135" lon="12.654195623262778"><ele>343.79999999999995</ele><time>2026-05-01T15:03:18Z</time></trkpt><trkpt lat="42.74724765075689" lon="12.654340218685888"><ele>343.4</ele><time>2026-05-01T15:03:19Z</time></trkpt><trkpt lat="42.74721244098906" lon="12.654472460336322"><ele>343.0</ele><time>2026-05-01T15:03:20Z</time></trkpt><trkpt lat="42.74717409297412" lon="12.65460102410084"><ele>343.0</ele><time>2026-05-01T15:03:21Z</time></trkpt><trkpt lat="42.74713261936886" lon="12.654718715704044"><ele>343.0</ele><time>2026-05-01T15:03:22Z</time></trkpt><trkpt lat="42.74707674364503" lon="12.654828187061788"><ele>343.0</ele><time>2026-05-01T15:03:23Z</time></trkpt><trkpt lat="42.747019881685176" lon="12.654936558215159"><ele>343.0</ele><time>2026-05-01T15:03:24Z</time></trkpt><trkpt lat="42.74694896759131" lon="12.655026890432094"><ele>343.0</ele><time>2026-05-01T15:03:25Z</time></trkpt><trkpt lat="42.74687562985677" lon="12.655123431601359"><ele>343.2</ele><time>2026-05-01T15:03:26Z</time></trkpt><trkpt lat="42.74680087198667" lon="12.655216716087715"><ele>343.4</ele><time>2026-05-01T15:03:27Z</time></trkpt><trkpt lat="42.74673726575886" lon="12.655305645647529"><ele>343.59999999999997</ele><time>2026-05-01T15:03:28Z</time></trkpt><trkpt lat="42.746676305638815" lon="12.655406138621727"><ele>343.79999999999995</ele><time>2026-05-01T15:03:29Z</time></trkpt><trkpt lat="42.7466328363926" lon="12.655526951760674"><ele>344.0</ele><time>2026-05-01T15:03:30Z</time></trkpt><trkpt lat="42.74661380625099" lon="12.655647847625294"><ele>344.0</ele><time>2026-05-01T15:03:31Z</time></trkpt><trkpt lat="42.74661903596632" lon="12.65576709038222"><ele>344.0</ele><time>2026-05-01T15:03:32Z</time></trkpt><trkpt lat="42.74665256798127" lon="12.655885736026676"><ele>344.0</ele><time>2026-05-01T15:03:33Z</time></trkpt><trkpt lat="42.746694002440485" lon="12.656003699059182"><ele>344.0</ele><time>2026-05-01T15:03:34Z</time></trkpt><trkpt lat="42.74673202929415" lon="12.656123034746273"><ele>344.0</ele><time>2026-05-01T15:03:35Z</time></trkpt><trkpt lat="42.74676997785265" lon="12.65624506276708"><ele>343.4</ele><time>2026-05-01T15:03:36Z</time></trkpt><trkpt lat="42.746810088485354" lon="12.656366922594048"><ele>342.79999999999995</ele><time>2026-05-01T15:03:37Z</time></trkpt><trkpt lat="42.74684620106123" lon="12.656490822418922"><ele>342.20000000000005</ele><time>2026-05-01T15:03:38Z</time></trkpt><trkpt lat="42.746865972040936" lon="12.656617319733035"><ele>341.6</ele><time>2026-05-01T15:03:39Z</time></trkpt><trkpt lat="42.74691548293757" lon="12.656731408279"><ele>341.0</ele><time>2026-05-01T15:03:40Z</time></trkpt><trkpt lat="42.74695163772835" lon="12.656852149374986"><ele>340.20000000000005</ele><time>2026-05-01T15:03:41Z</time></trkpt><trkpt lat="42.7469901397268" lon="12.656975236867284"><ele>339.40000000000003</ele><time>2026-05-01T15:03:42Z</time></trkpt><trkpt lat="42.747024268436334" lon="12.657105801156279"><ele>338.6</ele><time>2026-05-01T15:03:43Z</time></trkpt><trkpt lat="42.747062268605134" lon="12.657243923087965"><ele>337.8</ele><time>2026-05-01T15:03:44Z</time></trkpt><trkpt lat="42.74708572541363" lon="12.65737935916781"><ele>337.0</ele><time>2026-05-01T15:03:45Z</time></trkpt><trkpt lat="42.74708215118216" lon="12.657515173049541"><ele>337.0</ele><time>2026-05-01T15:03:46Z</time></trkpt><trkpt lat="42.74709794147623" lon="12.65764712214382"><ele>337.0</ele><time>2026-05-01T15:03:47Z</time></trkpt><trkpt lat="42.74709210135407" lon="12.657793930349827"><ele>337.0</ele><time>2026-05-01T15:03:48Z</time></trkpt><trkpt lat="42.74708336081898" lon="12.657933141469833"><ele>337.0</ele><time>2026-05-01T15:03:49Z</time></trkpt><trkpt lat="42.747065070535605" lon="12.658076509197542"><ele>337.0</ele><time>2026-05-01T15:03:50Z</time></trkpt><trkpt lat="42.74705178801365" lon="12.658224432513114"><ele>336.5</ele><time>2026-05-01T15:03:51Z</time></trkpt><trkpt lat="42.747040664422634" lon="12.658377696287486"><ele>336.0</ele><time>2026-05-01T15:03:52Z</time></trkpt><trkpt lat="42.74702918946786" lon="12.6585380858812"><ele>335.5</ele><time>2026-05-01T15:03:53Z</time></trkpt><trkpt lat="42.74701399144997" lon="12.658704697497388"><ele>335.0</ele><time>2026-05-01T15:03:54Z</time></trkpt><trkpt lat="42.74700048933533" lon="12.658869060760956"><ele>334.75</ele><time>2026-05-01T15:03:55Z</time></trkpt><trkpt lat="42.746984174847015" lon="12.659032448399795"><ele>334.5</ele><time>2026-05-01T15:03:56Z</time></trkpt><trkpt lat="42.746969594902616" lon="12.659186971681132"><ele>334.25</ele><time>2026-05-01T15:03:57Z</time></trkpt><trkpt lat="42.74695454202591" lon="12.659347307268664"><ele>334.0</ele><time>2026-05-01T15:03:58Z</time></trkpt><trkpt lat="42.74694267910013" lon="12.65950812900387"><ele>334.0</ele><time>2026-05-01T15:03:59Z</time></trkpt><trkpt lat="42.74692507143551" lon="12.659661492642506"><ele>334.0</ele><time>2026-05-01T15:04:00Z</time></trkpt><trkpt lat="42.746882110144995" lon="12.659809578636578"><ele>334.0</ele><time>2026-05-01T15:04:01Z</time></trkpt><trkpt lat="42.746800813503434" lon="12.659945410511513"><ele>334.0</ele><time>2026-05-01T15:04:02Z</time></trkpt><trkpt lat="42.74673164952273" lon="12.660104306243024"><ele>334.0</ele><time>2026-05-01T15:04:02.999Z</time></trkpt><trkpt lat="42.746640901585295" lon="12.660246289759552"><ele>334.0</ele><time>2026-05-01T15:04:03.999Z</time></trkpt><trkpt lat="42.74654879407374" lon="12.660379785051143"><ele>334.0</ele><time>2026-05-01T15:04:04.999Z</time></trkpt><trkpt lat="42.746450111154005" lon="12.660517178405708"><ele>334.0</ele><time>2026-05-01T15:04:05.999Z</time></trkpt><trkpt lat="42.74634367406012" lon="12.660652629233189"><ele>333.5</ele><time>2026-05-01T15:04:06.999Z</time></trkpt><trkpt lat="42.74624709743802" lon="12.660779042906976"><ele>333.0</ele><time>2026-05-01T15:04:07.999Z</time></trkpt><trkpt lat="42.74615624296988" lon="12.660896288586313"><ele>332.5</ele><time>2026-05-01T15:04:08.999Z</time></trkpt><trkpt lat="42.74606990209184" lon="12.66100408454673"><ele>332.0</ele><time>2026-05-01T15:04:09.999Z</time></trkpt><trkpt lat="42.74597425092762" lon="12.66109538603342"><ele>331.5</ele><time>2026-05-01T15:04:10.999Z</time></trkpt><trkpt lat="42.745896426338675" lon="12.661211303543922"><ele>331.0</ele><time>2026-05-01T15:04:11.999Z</time></trkpt><trkpt lat="42.745800168360475" lon="12.661287344495939"><ele>330.5</ele><time>2026-05-01T15:04:12.999Z</time></trkpt><trkpt lat="42.7457207687778" lon="12.661398517601341"><ele>330.0</ele><time>2026-05-01T15:04:13.999Z</time></trkpt><trkpt lat="42.74561836465904" lon="12.661499991679179"><ele>330.0</ele><time>2026-05-01T15:04:14.999Z</time></trkpt><trkpt lat="42.74550473605703" lon="12.66161653255437"><ele>330.0</ele><time>2026-05-01T15:04:15.999Z</time></trkpt><trkpt lat="42.745402476604156" lon="12.661743180905717"><ele>330.0</ele><time>2026-05-01T15:04:16.999Z</time></trkpt><trkpt lat="42.74530448144683" lon="12.661890372110523"><ele>330.0</ele><time>2026-05-01T15:04:17.999Z</time></trkpt><trkpt lat="42.74522454454789" lon="12.662045889819307"><ele>329.25</ele><time>2026-05-01T15:04:18.999Z</time></trkpt><trkpt lat="42.7451588617843" lon="12.662202733621358"><ele>328.5</ele><time>2026-05-01T15:04:19.999Z</time></trkpt><trkpt lat="42.74509581800024" lon="12.662363086093746"><ele>327.75</ele><time>2026-05-01T15:04:20.999Z</time></trkpt><trkpt lat="42.74503766199268" lon="12.662510243782277"><ele>327.0</ele><time>2026-05-01T15:04:21.999Z</time></trkpt><trkpt lat="42.74496461950303" lon="12.662675767202119"><ele>326.75</ele><time>2026-05-01T15:04:22.999Z</time></trkpt><trkpt lat="42.744847387260315" lon="12.662848313259518"><ele>326.5</ele><time>2026-05-01T15:04:23.999Z</time></trkpt><trkpt lat="42.744791720213854" lon="12.662922034104975"><ele>326.25</ele><time>2026-05-01T15:04:24.999Z</time></trkpt><trkpt lat="42.74470228227101" lon="12.663035675442478"><ele>326.0</ele><time>2026-05-01T15:04:25.999Z</time></trkpt><trkpt lat="42.74461630184139" lon="12.663145451686157"><ele>326.0</ele><time>2026-05-01T15:04:26.999Z</time></trkpt><trkpt lat="42.74454438702288" lon="12.663235882400167"><ele>326.0</ele><time>2026-05-01T15:04:27.999Z</time></trkpt><trkpt lat="42.74447552844927" lon="12.663328239651527"><ele>326.0</ele><time>2026-05-01T15:04:28.999Z</time></trkpt><trkpt lat="42.74441808431613" lon="12.66343696607243"><ele>326.0</ele><time>2026-05-01T15:04:29.999Z</time></trkpt><trkpt lat="42.74435521300691" lon="12.663530785576137"><ele>326.0</ele><time>2026-05-01T15:04:31Z</time></trkpt><trkpt lat="42.744297629476534" lon="12.66361846634621"><ele>325.8</ele><time>2026-05-01T15:04:32Z</time></trkpt><trkpt lat="42.744247027527756" lon="12.663723147381374"><ele>325.6</ele><time>2026-05-01T15:04:33Z</time></trkpt><trkpt lat="42.74417195456325" lon="12.663816030646052"><ele>325.4</ele><time>2026-05-01T15:04:34Z</time></trkpt><trkpt lat="42.744098957369616" lon="12.663936180456343"><ele>325.2</ele><time>2026-05-01T15:04:35Z</time></trkpt><trkpt lat="42.744038273762435" lon="12.664052207843532"><ele>325.0</ele><time>2026-05-01T15:04:36Z</time></trkpt><trkpt lat="42.74399624848955" lon="12.664165460805956"><ele>325.0</ele><time>2026-05-01T15:04:37Z</time></trkpt><trkpt lat="42.74393912110153" lon="12.664285141321857"><ele>325.0</ele><time>2026-05-01T15:04:38Z</time></trkpt><trkpt lat="42.7438676730462" lon="12.66438266185778"><ele>325.0</ele><time>2026-05-01T15:04:39Z</time></trkpt><trkpt lat="42.74380734100868" lon="12.664486991257254"><ele>325.0</ele><time>2026-05-01T15:04:40Z</time></trkpt><trkpt lat="42.74374478544156" lon="12.664586683697834"><ele>325.0</ele><time>2026-05-01T15:04:41Z</time></trkpt><trkpt lat="42.74367018769738" lon="12.664698474562588"><ele>325.0</ele><time>2026-05-01T15:04:42Z</time></trkpt><trkpt lat="42.743596684626056" lon="12.664809237143807"><ele>325.0</ele><time>2026-05-01T15:04:43Z</time></trkpt><trkpt lat="42.74354134336441" lon="12.664924770784925"><ele>325.0</ele><time>2026-05-01T15:04:44Z</time></trkpt><trkpt lat="42.743467276231286" lon="12.665029101071802"><ele>325.0</ele><time>2026-05-01T15:04:45Z</time></trkpt><trkpt lat="42.74339390016443" lon="12.665140977997597"><ele>325.0</ele><time>2026-05-01T15:04:46Z</time></trkpt><trkpt lat="42.743321343016646" lon="12.665258288969873"><ele>324.4</ele><time>2026-05-01T15:04:47Z</time></trkpt><trkpt lat="42.74325351007752" lon="12.665372723855253"><ele>323.8</ele><time>2026-05-01T15:04:48Z</time></trkpt><trkpt lat="42.743181625869255" lon="12.665481014676816"><ele>323.20000000000005</ele><time>2026-05-01T15:04:49Z</time></trkpt><trkpt lat="42.74310923782646" lon="12.665586934447587"><ele>322.6</ele><time>2026-05-01T15:04:50Z</time></trkpt><trkpt lat="42.743036497403885" lon="12.66569591588573"><ele>322.0</ele><time>2026-05-01T15:04:51Z</time></trkpt><trkpt lat="42.742960561989726" lon="12.665808303480562"><ele>322.0</ele><time>2026-05-01T15:04:52Z</time></trkpt><trkpt lat="42.74286969788821" lon="12.665908456064107"><ele>322.0</ele><time>2026-05-01T15:04:53Z</time></trkpt><trkpt lat="42.7427869745809" lon="12.666026204785933"><ele>322.0</ele><time>2026-05-01T15:04:54Z</time></trkpt><trkpt lat="42.74271248830767" lon="12.666154749919837"><ele>322.0</ele><time>2026-05-01T15:04:55Z</time></trkpt><trkpt lat="42.74263391671803" lon="12.66626634234693"><ele>321.8</ele><time>2026-05-01T15:04:56Z</time></trkpt><trkpt lat="42.74255854546398" lon="12.666377826507876"><ele>321.6</ele><time>2026-05-01T15:04:57Z</time></trkpt><trkpt lat="42.74247712861762" lon="12.666483405048712"><ele>321.40000000000003</ele><time>2026-05-01T15:04:58Z</time></trkpt><trkpt lat="42.742402025323365" lon="12.666598369828757"><ele>321.20000000000005</ele><time>2026-05-01T15:04:59Z</time></trkpt><trkpt lat="42.74232641804677" lon="12.666707487745754"><ele>321.0</ele><time>2026-05-01T15:05:00Z</time></trkpt><trkpt lat="42.742250646703056" lon="12.666815783661388"><ele>321.0</ele><time>2026-05-01T15:05:01Z</time></trkpt><trkpt lat="42.74217457818308" lon="12.666924545653078"><ele>321.0</ele><time>2026-05-01T15:05:02Z</time></trkpt><trkpt lat="42.74209709538037" lon="12.667033614585053"><ele>321.0</ele><time>2026-05-01T15:05:03Z</time></trkpt><trkpt lat="42.74201349769395" lon="12.667138493188148"><ele>321.0</ele><time>2026-05-01T15:05:04Z</time></trkpt><trkpt lat="42.74193723296683" lon="12.667258616863638"><ele>320.25</ele><time>2026-05-01T15:05:05Z</time></trkpt><trkpt lat="42.741849951625674" lon="12.667362027909821"><ele>319.5</ele><time>2026-05-01T15:05:06Z</time></trkpt><trkpt lat="42.741777810845385" lon="12.667476424652364"><ele>318.75</ele><time>2026-05-01T15:05:07Z</time></trkpt><trkpt lat="42.74170981254508" lon="12.667616762113044"><ele>318.0</ele><time>2026-05-01T15:05:08Z</time></trkpt><trkpt lat="42.74162823184863" lon="12.667743788829"><ele>317.8</ele><time>2026-05-01T15:05:09Z</time></trkpt><trkpt lat="42.74154955370438" lon="12.667869667192628"><ele>317.6</ele><time>2026-05-01T15:05:10Z</time></trkpt><trkpt lat="42.74147949985745" lon="12.667979910491438"><ele>317.4</ele><time>2026-05-01T15:05:11Z</time></trkpt><trkpt lat="42.741411360145385" lon="12.668089787697976"><ele>317.2</ele><time>2026-05-01T15:05:12Z</time></trkpt><trkpt lat="42.74134254716744" lon="12.668200275266896"><ele>317.0</ele><time>2026-05-01T15:05:13Z</time></trkpt><trkpt lat="42.74126817874517" lon="12.668317027526255"><ele>317.0</ele><time>2026-05-01T15:05:14Z</time></trkpt><trkpt lat="42.74119635139227" lon="12.668432704028515"><ele>317.0</ele><time>2026-05-01T15:05:15Z</time></trkpt><trkpt lat="42.74111684286058" lon="12.668557744700676"><ele>317.0</ele><time>2026-05-01T15:05:16Z</time></trkpt><trkpt lat="42.74103750973375" lon="12.668696350222538"><ele>317.0</ele><time>2026-05-01T15:05:17Z</time></trkpt><trkpt lat="42.74096105526019" lon="12.668824980691381"><ele>316.6</ele><time>2026-05-01T15:05:18Z</time></trkpt><trkpt lat="42.74087545934102" lon="12.668916735885404"><ele>316.2</ele><time>2026-05-01T15:05:19Z</time></trkpt><trkpt lat="42.7408061532838" lon="12.669025704302513"><ele>315.8</ele><time>2026-05-01T15:05:20Z</time></trkpt><trkpt lat="42.74071747905015" lon="12.669115481774297"><ele>315.4</ele><time>2026-05-01T15:05:21Z</time></trkpt><trkpt lat="42.740627366246834" lon="12.669204703544919"><ele>315.0</ele><time>2026-05-01T15:05:22Z</time></trkpt><trkpt lat="42.7405392752023" lon="12.669290089425182"><ele>315.0</ele><time>2026-05-01T15:05:23Z</time></trkpt><trkpt lat="42.740453190507836" lon="12.669369332953018"><ele>315.0</ele><time>2026-05-01T15:05:24Z</time></trkpt><trkpt lat="42.74036511938733" lon="12.669449159424724"><ele>315.0</ele><time>2026-05-01T15:05:25Z</time></trkpt><trkpt lat="42.740273507886215" lon="12.669531773492329"><ele>315.0</ele><time>2026-05-01T15:05:26Z</time></trkpt><trkpt lat="42.740189042000836" lon="12.669621122618063"><ele>315.0</ele><time>2026-05-01T15:05:27Z</time></trkpt><trkpt lat="42.74010364094464" lon="12.669702922817827"><ele>314.8</ele><time>2026-05-01T15:05:28Z</time></trkpt><trkpt lat="42.74002248741246" lon="12.669786222243166"><ele>314.6</ele><time>2026-05-01T15:05:29Z</time></trkpt><trkpt lat="42.73994154908123" lon="12.669872285194053"><ele>314.4</ele><time>2026-05-01T15:05:30Z</time></trkpt><trkpt lat="42.73985994764759" lon="12.669958134176493"><ele>314.2</ele><time>2026-05-01T15:05:31Z</time></trkpt><trkpt lat="42.73977479391264" lon="12.670048496625451"><ele>314.0</ele><time>2026-05-01T15:05:32Z</time></trkpt><trkpt lat="42.73969619949645" lon="12.670142963297664"><ele>314.0</ele><time>2026-05-01T15:05:33Z</time></trkpt><trkpt lat="42.739606815581794" lon="12.670211929445243"><ele>314.0</ele><time>2026-05-01T15:05:34Z</time></trkpt><trkpt lat="42.739534345211126" lon="12.670310585203852"><ele>314.0</ele><time>2026-05-01T15:05:35Z</time></trkpt><trkpt lat="42.739453233824065" lon="12.670390429641035"><ele>314.0</ele><time>2026-05-01T15:05:36Z</time></trkpt><trkpt lat="42.73936942903128" lon="12.670466652635236"><ele>314.0</ele><time>2026-05-01T15:05:37Z</time></trkpt><trkpt lat="42.7392919723239" lon="12.670553005859"><ele>313.59999999999997</ele><time>2026-05-01T15:05:37.999Z</time></trkpt><trkpt lat="42.73920816167073" lon="12.670633157099175"><ele>313.2</ele><time>2026-05-01T15:05:38.999Z</time></trkpt><trkpt lat="42.73912604139357" lon="12.670718023503733"><ele>312.79999999999995</ele><time>2026-05-01T15:05:39.999Z</time></trkpt><trkpt lat="42.73904879673775" lon="12.670808535785703"><ele>312.4</ele><time>2026-05-01T15:05:40.999Z</time></trkpt><trkpt lat="42.73897707732874" lon="12.67089642189871"><ele>312.0</ele><time>2026-05-01T15:05:41.999Z</time></trkpt><trkpt lat="42.738907594412275" lon="12.670996450050113"><ele>311.8</ele><time>2026-05-01T15:05:42.999Z</time></trkpt><trkpt lat="42.73883522416494" lon="12.671111637192569"><ele>311.6</ele><time>2026-05-01T15:05:43.999Z</time></trkpt><trkpt lat="42.73878928738463" lon="12.671227014355166"><ele>311.40000000000003</ele><time>2026-05-01T15:05:44.999Z</time></trkpt><trkpt lat="42.73874921867629" lon="12.671334115855156"><ele>311.2</ele><time>2026-05-01T15:05:45.999Z</time></trkpt><trkpt lat="42.73870967310224" lon="12.671445708816218"><ele>311.0</ele><time>2026-05-01T15:05:46.999Z</time></trkpt><trkpt lat="42.738668846601215" lon="12.671567507797654"><ele>311.0</ele><time>2026-05-01T15:05:47.999Z</time></trkpt><trkpt lat="42.73861432051694" lon="12.671673978834768"><ele>311.0</ele><time>2026-05-01T15:05:48.999Z</time></trkpt><trkpt lat="42.738576312304154" lon="12.671783174951047"><ele>311.0</ele><time>2026-05-01T15:05:49.999Z</time></trkpt><trkpt lat="42.73852995850306" lon="12.671912164101357"><ele>311.0</ele><time>2026-05-01T15:05:50.999Z</time></trkpt><trkpt lat="42.738477293984374" lon="12.672043330325314"><ele>311.0</ele><time>2026-05-01T15:05:51.999Z</time></trkpt><trkpt lat="42.738423687122335" lon="12.672162988417217"><ele>311.0</ele><time>2026-05-01T15:05:52.999Z</time></trkpt><trkpt lat="42.73837183575226" lon="12.672291958513755"><ele>311.0</ele><time>2026-05-01T15:05:53.999Z</time></trkpt><trkpt lat="42.738312165494726" lon="12.672413723662872"><ele>311.0</ele><time>2026-05-01T15:05:54.999Z</time></trkpt><trkpt lat="42.73824317552973" lon="12.672498451428345"><ele>311.0</ele><time>2026-05-01T15:05:55.999Z</time></trkpt><trkpt lat="42.7381835570109" lon="12.672596325342266"><ele>311.0</ele><time>2026-05-01T15:05:56.999Z</time></trkpt><trkpt lat="42.73811752431143" lon="12.672704542165278"><ele>311.2</ele><time>2026-05-01T15:05:57.999Z</time></trkpt><trkpt lat="42.73804110038595" lon="12.672834113330422"><ele>311.40000000000003</ele><time>2026-05-01T15:05:58.999Z</time></trkpt><trkpt lat="42.73798712156242" lon="12.672935901193775"><ele>311.6</ele><time>2026-05-01T15:05:59.999Z</time></trkpt><trkpt lat="42.737923885697626" lon="12.673056871505656"><ele>311.8</ele><time>2026-05-01T15:06:00.999Z</time></trkpt><trkpt lat="42.73785137239227" lon="12.67317837573612"><ele>312.0</ele><time>2026-05-01T15:06:01.999Z</time></trkpt><trkpt lat="42.73778501460523" lon="12.67331819586379"><ele>311.75</ele><time>2026-05-01T15:06:02.999Z</time></trkpt><trkpt lat="42.73769891985055" lon="12.673447121704605"><ele>311.5</ele><time>2026-05-01T15:06:03.999Z</time></trkpt><trkpt lat="42.73760177219796" lon="12.67355437742369"><ele>311.25</ele><time>2026-05-01T15:06:04.999Z</time></trkpt><trkpt lat="42.7375269183728" lon="12.673682093983114"><ele>311.0</ele><time>2026-05-01T15:06:05.999Z</time></trkpt><trkpt lat="42.73743147107647" lon="12.673792757366602"><ele>310.75</ele><time>2026-05-01T15:06:06.999Z</time></trkpt><trkpt lat="42.737334342715684" lon="12.673913060832726"><ele>310.5</ele><time>2026-05-01T15:06:07.999Z</time></trkpt><trkpt lat="42.73723729873505" lon="12.674025888758864"><ele>310.25</ele><time>2026-05-01T15:06:08.999Z</time></trkpt><trkpt lat="42.737143354280775" lon="12.674135472948327"><ele>310.0</ele><time>2026-05-01T15:06:09.999Z</time></trkpt><trkpt lat="42.737051030105285" lon="12.674243028237239"><ele>310.0</ele><time>2026-05-01T15:06:10.999Z</time></trkpt><trkpt lat="42.73693910828651" lon="12.674343230132136"><ele>310.0</ele><time>2026-05-01T15:06:11.999Z</time></trkpt><trkpt lat="42.73682764114088" lon="12.67447205875189"><ele>310.0</ele><time>2026-05-01T15:06:12.999Z</time></trkpt><trkpt lat="42.73669960909946" lon="12.674615193579102"><ele>310.0</ele><time>2026-05-01T15:06:13.999Z</time></trkpt><trkpt lat="42.73656598614073" lon="12.674758883968016"><ele>309.66666666666663</ele><time>2026-05-01T15:06:14.999Z</time></trkpt><trkpt lat="42.7364263927162" lon="12.674915551795586"><ele>309.3333333333333</ele><time>2026-05-01T15:06:15.999Z</time></trkpt><trkpt lat="42.736279511031015" lon="12.675043650275303"><ele>309.0</ele><time>2026-05-01T15:06:16.999Z</time></trkpt><trkpt lat="42.73614639315597" lon="12.675157877148864"><ele>308.6666666666667</ele><time>2026-05-01T15:06:17.999Z</time></trkpt><trkpt lat="42.73601164812935" lon="12.675275238679117"><ele>308.33333333333337</ele><time>2026-05-01T15:06:18.999Z</time></trkpt><trkpt lat="42.73587894634733" lon="12.675392068255023"><ele>308.0</ele><time>2026-05-01T15:06:19.999Z</time></trkpt><trkpt lat="42.73574840536541" lon="12.675502145133908"><ele>308.0</ele><time>2026-05-01T15:06:20.999Z</time></trkpt><trkpt lat="42.735623050635205" lon="12.675620012467139"><ele>308.0</ele><time>2026-05-01T15:06:21.999Z</time></trkpt><trkpt lat="42.735492154821266" lon="12.67573690913706"><ele>308.0</ele><time>2026-05-01T15:06:22.999Z</time></trkpt><trkpt lat="42.73536078858983" lon="12.675839787462976"><ele>308.0</ele><time>2026-05-01T15:06:23.999Z</time></trkpt><trkpt lat="42.735229967352716" lon="12.67593589255406"><ele>308.0</ele><time>2026-05-01T15:06:24.999Z</time></trkpt><trkpt lat="42.73510038316055" lon="12.676022244738869"><ele>308.0</ele><time>2026-05-01T15:06:25.999Z</time></trkpt><trkpt lat="42.73496683233186" lon="12.67610236982155"><ele>308.0</ele><time>2026-05-01T15:06:26.999Z</time></trkpt><trkpt lat="42.73484002005198" lon="12.676178715029605"><ele>308.25</ele><time>2026-05-01T15:06:27.999Z</time></trkpt><trkpt lat="42.73471813026218" lon="12.6762541020756"><ele>308.5</ele><time>2026-05-01T15:06:28.999Z</time></trkpt><trkpt lat="42.73459174814424" lon="12.676309530657855"><ele>308.75</ele><time>2026-05-01T15:06:29.999Z</time></trkpt><trkpt lat="42.73448828824877" lon="12.676396913066576"><ele>309.0</ele><time>2026-05-01T15:06:30.999Z</time></trkpt><trkpt lat="42.734365042730325" lon="12.676470506853581"><ele>308.5</ele><time>2026-05-01T15:06:31.999Z</time></trkpt><trkpt lat="42.73421245220468" lon="12.676554866695724"><ele>308.0</ele><time>2026-05-01T15:06:32.999Z</time></trkpt><trkpt lat="42.73407728670911" lon="12.676641786985922"><ele>307.5</ele><time>2026-05-01T15:06:33.999Z</time></trkpt><trkpt lat="42.733985921996684" lon="12.67669049737925"><ele>307.0</ele><time>2026-05-01T15:06:34.999Z</time></trkpt><trkpt lat="42.73388083755984" lon="12.676737170463172"><ele>307.0</ele><time>2026-05-01T15:06:36Z</time></trkpt><trkpt lat="42.73378454232775" lon="12.67680737535123"><ele>307.0</ele><time>2026-05-01T15:06:37Z</time></trkpt><trkpt lat="42.733662807165345" lon="12.676882156339907"><ele>307.0</ele><time>2026-05-01T15:06:38Z</time></trkpt><trkpt lat="42.73356107087209" lon="12.676945310959812"><ele>307.0</ele><time>2026-05-01T15:06:39Z</time></trkpt><trkpt lat="42.73345913458195" lon="12.677007924829569"><ele>307.25</ele><time>2026-05-01T15:06:40Z</time></trkpt><trkpt lat="42.73335506586802" lon="12.677074669651459"><ele>307.5</ele><time>2026-05-01T15:06:41Z</time></trkpt><trkpt lat="42.73324876242759" lon="12.677145617483006"><ele>307.75</ele><time>2026-05-01T15:06:42Z</time></trkpt><trkpt lat="42.733137821683194" lon="12.677214750802412"><ele>308.0</ele><time>2026-05-01T15:06:43Z</time></trkpt><trkpt lat="42.733033337168834" lon="12.677277943703142"><ele>308.0</ele><time>2026-05-01T15:06:44Z</time></trkpt><trkpt lat="42.732938074906635" lon="12.677338957848276"><ele>308.0</ele><time>2026-05-01T15:06:45Z</time></trkpt><trkpt lat="42.73284671478757" lon="12.677400497734157"><ele>308.0</ele><time>2026-05-01T15:06:46Z</time></trkpt><trkpt lat="42.73274769558485" lon="12.677461684611663"><ele>308.0</ele><time>2026-05-01T15:06:47Z</time></trkpt><trkpt lat="42.73264397596157" lon="12.677517627294174"><ele>308.0</ele><time>2026-05-01T15:06:48Z</time></trkpt><trkpt lat="42.73254833410759" lon="12.677573189568466"><ele>307.8</ele><time>2026-05-01T15:06:49Z</time></trkpt><trkpt lat="42.732456571511996" lon="12.677628863066925"><ele>307.6</ele><time>2026-05-01T15:06:50Z</time></trkpt><trkpt lat="42.73236964600611" lon="12.677683960814836"><ele>307.4</ele><time>2026-05-01T15:06:51Z</time></trkpt><trkpt lat="42.73227563756865" lon="12.677750438052861"><ele>307.2</ele><time>2026-05-01T15:06:52Z</time></trkpt><trkpt lat="42.73217817026295" lon="12.677809063893351"><ele>307.0</ele><time>2026-05-01T15:06:53Z</time></trkpt><trkpt lat="42.73208350063175" lon="12.67786281715602"><ele>306.8</ele><time>2026-05-01T15:06:54Z</time></trkpt><trkpt lat="42.73199145775198" lon="12.677920781991896"><ele>306.6</ele><time>2026-05-01T15:06:55Z</time></trkpt><trkpt lat="42.73190528503981" lon="12.677977529852926"><ele>306.40000000000003</ele><time>2026-05-01T15:06:56Z</time></trkpt><trkpt lat="42.731817627349216" lon="12.678033660500223"><ele>306.2</ele><time>2026-05-01T15:06:57Z</time></trkpt><trkpt lat="42.7317255662141" lon="12.678088899986811"><ele>306.0</ele><time>2026-05-01T15:06:58Z</time></trkpt><trkpt lat="42.73163447798441" lon="12.678144292003694"><ele>306.0</ele><time>2026-05-01T15:06:59Z</time></trkpt><trkpt lat="42.73153657565549" lon="12.678199721825811"><ele>306.0</ele><time>2026-05-01T15:07:00Z</time></trkpt><trkpt lat="42.731438213604655" lon="12.678260558588194"><ele>306.0</ele><time>2026-05-01T15:07:01Z</time></trkpt><trkpt lat="42.73134143338987" lon="12.67832423012633"><ele>306.0</ele><time>2026-05-01T15:07:02Z</time></trkpt><trkpt lat="42.73125180917508" lon="12.678383648557995"><ele>306.0</ele><time>2026-05-01T15:07:03Z</time></trkpt><trkpt lat="42.731168369120255" lon="12.678434201849084"><ele>306.0</ele><time>2026-05-01T15:07:04Z</time></trkpt><trkpt lat="42.731091572497284" lon="12.678484393568988"><ele>306.0</ele><time>2026-05-01T15:07:05Z</time></trkpt><trkpt lat="42.731010927733145" lon="12.678533217981963"><ele>306.0</ele><time>2026-05-01T15:07:06Z</time></trkpt><trkpt lat="42.73092579248384" lon="12.678578698686655"><ele>306.0</ele><time>2026-05-01T15:07:07Z</time></trkpt><trkpt lat="42.73084615598935" lon="12.678627012018934"><ele>306.0</ele><time>2026-05-01T15:07:08Z</time></trkpt><trkpt lat="42.73076665713816" lon="12.678681203521865"><ele>306.0</ele><time>2026-05-01T15:07:09Z</time></trkpt><trkpt lat="42.73067398031914" lon="12.678721282631017"><ele>306.25</ele><time>2026-05-01T15:07:10Z</time></trkpt><trkpt lat="42.730571527114925" lon="12.678810116275628"><ele>306.5</ele><time>2026-05-01T15:07:11Z</time></trkpt><trkpt lat="42.730469143759805" lon="12.678872216407795"><ele>306.75</ele><time>2026-05-01T15:07:12Z</time></trkpt><trkpt lat="42.73035648913712" lon="12.678942757654736"><ele>307.0</ele><time>2026-05-01T15:07:13Z</time></trkpt><trkpt lat="42.73022861225726" lon="12.678994380519613"><ele>307.8</ele><time>2026-05-01T15:07:14Z</time></trkpt><trkpt lat="42.73015396593873" lon="12.679050794018131"><ele>308.6</ele><time>2026-05-01T15:07:17Z</time></trkpt><trkpt lat="42.73009102859828" lon="12.679027043682424"><ele>309.40000000000003</ele><time>2026-05-01T15:07:19Z</time></trkpt><trkpt lat="42.73000606493027" lon="12.678866816682174"><ele>310.2</ele><time>2026-05-01T15:07:22Z</time></trkpt><trkpt lat="42.729987619918326" lon="12.678759992738753"><ele>311.0</ele><time>2026-05-01T15:07:23Z</time></trkpt><trkpt lat="42.72997514835077" lon="12.678647634647524"><ele>310.75</ele><time>2026-05-01T15:07:23.999Z</time></trkpt><trkpt lat="42.72993533472159" lon="12.678509355981179"><ele>310.5</ele><time>2026-05-01T15:07:24.999Z</time></trkpt><trkpt lat="42.72989701900742" lon="12.678360009081263"><ele>310.25</ele><time>2026-05-01T15:07:25.999Z</time></trkpt><trkpt lat="42.72987176073793" lon="12.678214990728325"><ele>310.0</ele><time>2026-05-01T15:07:26.999Z</time></trkpt><trkpt lat="42.72984191637843" lon="12.67804849765873"><ele>310.0</ele><time>2026-05-01T15:07:27.999Z</time></trkpt><trkpt lat="42.72982158255337" lon="12.677865967730968"><ele>310.0</ele><time>2026-05-01T15:07:28.999Z</time></trkpt><trkpt lat="42.72980963242541" lon="12.677674085959808"><ele>310.0</ele><time>2026-05-01T15:07:29.999Z</time></trkpt><trkpt lat="42.72980520465128" lon="12.677487192557448"><ele>310.0</ele><time>2026-05-01T15:07:30.999Z</time></trkpt><trkpt lat="42.72980433349456" lon="12.677312100816577"><ele>310.0</ele><time>2026-05-01T15:07:31.999Z</time></trkpt><trkpt lat="42.7298122120306" lon="12.67711282564906"><ele>310.0</ele><time>2026-05-01T15:07:32.999Z</time></trkpt><trkpt lat="42.729827555855906" lon="12.67689146152053"><ele>310.0</ele><time>2026-05-01T15:07:33.999Z</time></trkpt><trkpt lat="42.72984180567547" lon="12.67667151276388"><ele>310.66666666666663</ele><time>2026-05-01T15:07:34.999Z</time></trkpt><trkpt lat="42.729857373069855" lon="12.676451214806491"><ele>311.3333333333333</ele><time>2026-05-01T15:07:35.999Z</time></trkpt><trkpt lat="42.72987833676479" lon="12.676224944691322"><ele>312.0</ele><time>2026-05-01T15:07:36.999Z</time></trkpt><trkpt lat="42.72989053796275" lon="12.675996857741143"><ele>312.6666666666667</ele><time>2026-05-01T15:07:37.999Z</time></trkpt><trkpt lat="42.729904745483175" lon="12.675770226854313"><ele>313.33333333333337</ele><time>2026-05-01T15:07:38.999Z</time></trkpt><trkpt lat="42.729923498296934" lon="12.675555065942767"><ele>314.0</ele><time>2026-05-01T15:07:39.999Z</time></trkpt><trkpt lat="42.72994294814618" lon="12.675333755317531"><ele>314.6666666666667</ele><time>2026-05-01T15:07:40.999Z</time></trkpt><trkpt lat="42.72996129541239" lon="12.675107599500134"><ele>315.3333333333333</ele><time>2026-05-01T15:07:41.999Z</time></trkpt><trkpt lat="42.729975101253686" lon="12.67488314588028"><ele>316.0</ele><time>2026-05-01T15:07:42.999Z</time></trkpt><trkpt lat="42.729989981564614" lon="12.674663977448475"><ele>316.0</ele><time>2026-05-01T15:07:43.999Z</time></trkpt><trkpt lat="42.730004903422895" lon="12.674440952736848"><ele>316.0</ele><time>2026-05-01T15:07:44.999Z</time></trkpt><trkpt lat="42.730019907161456" lon="12.674214770548302"><ele>316.0</ele><time>2026-05-01T15:07:45.999Z</time></trkpt><trkpt lat="42.73003554699023" lon="12.673993651685779"><ele>316.66666666666663</ele><time>2026-05-01T15:07:46.999Z</time></trkpt><trkpt lat="42.73004808359866" lon="12.6737680381404"><ele>317.3333333333333</ele><time>2026-05-01T15:07:47.999Z</time></trkpt><trkpt lat="42.73006273653939" lon="12.673555132458398"><ele>318.0</ele><time>2026-05-01T15:07:48.999Z</time></trkpt><trkpt lat="42.73008014891054" lon="12.673337981053338"><ele>318.0</ele><time>2026-05-01T15:07:49.999Z</time></trkpt><trkpt lat="42.730094104383404" lon="12.673114436857794"><ele>318.0</ele><time>2026-05-01T15:07:50.999Z</time></trkpt><trkpt lat="42.73011036378328" lon="12.672890088850947"><ele>318.0</ele><time>2026-05-01T15:07:51.999Z</time></trkpt><trkpt lat="42.73012648611034" lon="12.672656740617002"><ele>318.3333333333333</ele><time>2026-05-01T15:07:52.999Z</time></trkpt><trkpt lat="42.730141452379556" lon="12.672433833457609"><ele>318.66666666666663</ele><time>2026-05-01T15:07:53.999Z</time></trkpt><trkpt lat="42.73015740768389" lon="12.672210610533757"><ele>319.0</ele><time>2026-05-01T15:07:54.999Z</time></trkpt><trkpt lat="42.7301720915942" lon="12.671995068911347"><ele>319.0</ele><time>2026-05-01T15:07:55.999Z</time></trkpt><trkpt lat="42.730185603877345" lon="12.67177543692953"><ele>319.0</ele><time>2026-05-01T15:07:56.999Z</time></trkpt><trkpt lat="42.73020276810904" lon="12.671553439231607"><ele>319.0</ele><time>2026-05-01T15:07:57.999Z</time></trkpt><trkpt lat="42.73021845743916" lon="12.671336763949467"><ele>318.66666666666663</ele><time>2026-05-01T15:07:58.999Z</time></trkpt><trkpt lat="42.73023228385566" lon="12.671117616701443"><ele>318.3333333333333</ele><time>2026-05-01T15:07:59.999Z</time></trkpt><trkpt lat="42.73024658733839" lon="12.67089672542834"><ele>318.0</ele><time>2026-05-01T15:08:00.999Z</time></trkpt><trkpt lat="42.73026096974859" lon="12.670684041502502"><ele>317.6666666666667</ele><time>2026-05-01T15:08:01.999Z</time></trkpt><trkpt lat="42.73027279981722" lon="12.67047011511049"><ele>317.33333333333337</ele><time>2026-05-01T15:08:02.999Z</time></trkpt><trkpt lat="42.73027799130446" lon="12.670253786500737"><ele>317.0</ele><time>2026-05-01T15:08:03.999Z</time></trkpt><trkpt lat="42.73027536075097" lon="12.670033469237024"><ele>316.6666666666667</ele><time>2026-05-01T15:08:04.999Z</time></trkpt><trkpt lat="42.7302648093332" lon="12.669806493419511"><ele>316.3333333333333</ele><time>2026-05-01T15:08:05.999Z</time></trkpt><trkpt lat="42.73025041476005" lon="12.669581302181744"><ele>316.0</ele><time>2026-05-01T15:08:06.999Z</time></trkpt><trkpt lat="42.73022881197992" lon="12.669357333631188"><ele>317.3333333333333</ele><time>2026-05-01T15:08:07.999Z</time></trkpt><trkpt lat="42.730201352221414" lon="12.669132351352376"><ele>318.6666666666667</ele><time>2026-05-01T15:08:08.999Z</time></trkpt><trkpt lat="42.73016748359511" lon="12.668900299266227"><ele>320.0</ele><time>2026-05-01T15:08:09.999Z</time></trkpt><trkpt lat="42.73013693827432" lon="12.66867795380267"><ele>319.6666666666667</ele><time>2026-05-01T15:08:10.999Z</time></trkpt><trkpt lat="42.73009530116404" lon="12.668444499231127"><ele>319.3333333333333</ele><time>2026-05-01T15:08:11.999Z</time></trkpt><trkpt lat="42.730046930087205" lon="12.668214481137223"><ele>319.0</ele><time>2026-05-01T15:08:12.999Z</time></trkpt><trkpt lat="42.72998785846122" lon="12.667976697007724"><ele>319.3333333333333</ele><time>2026-05-01T15:08:13.999Z</time></trkpt><trkpt lat="42.72991481630263" lon="12.667722138510156"><ele>319.6666666666667</ele><time>2026-05-01T15:08:14.999Z</time></trkpt><trkpt lat="42.729830434574865" lon="12.667453682549272"><ele>320.0</ele><time>2026-05-01T15:08:15.999Z</time></trkpt><trkpt lat="42.72973647958867" lon="12.667191768501299"><ele>320.33333333333337</ele><time>2026-05-01T15:08:16.999Z</time></trkpt><trkpt lat="42.72962706183308" lon="12.666929073653012"><ele>320.6666666666667</ele><time>2026-05-01T15:08:17.999Z</time></trkpt><trkpt lat="42.729517257345115" lon="12.666679095066948"><ele>321.0</ele><time>2026-05-01T15:08:18.999Z</time></trkpt><trkpt lat="42.729407974810364" lon="12.666446289598786"><ele>321.6666666666667</ele><time>2026-05-01T15:08:19.999Z</time></trkpt><trkpt lat="42.72930116328355" lon="12.666229284992458"><ele>322.33333333333337</ele><time>2026-05-01T15:08:20.999Z</time></trkpt><trkpt lat="42.729185977499874" lon="12.666014511730639"><ele>323.0</ele><time>2026-05-01T15:08:21.999Z</time></trkpt><trkpt lat="42.72906334186388" lon="12.665808552878282"><ele>323.0</ele><time>2026-05-01T15:08:22.999Z</time></trkpt><trkpt lat="42.72892953951523" lon="12.66560125388674"><ele>323.0</ele><time>2026-05-01T15:08:23.999Z</time></trkpt><trkpt lat="42.72878557834016" lon="12.66539913195386"><ele>323.0</ele><time>2026-05-01T15:08:24.999Z</time></trkpt><trkpt lat="42.728635439575655" lon="12.665205929222685"><ele>323.33333333333337</ele><time>2026-05-01T15:08:25.999Z</time></trkpt><trkpt lat="42.72849017255985" lon="12.665000791361887"><ele>323.6666666666667</ele><time>2026-05-01T15:08:26.999Z</time></trkpt><trkpt lat="42.728319311352145" lon="12.664842425226098"><ele>324.0</ele><time>2026-05-01T15:08:27.999Z</time></trkpt><trkpt lat="42.72816620342943" lon="12.664675828210386"><ele>324.0</ele><time>2026-05-01T15:08:28.999Z</time></trkpt><trkpt lat="42.728004543215725" lon="12.664519109995076"><ele>324.0</ele><time>2026-05-01T15:08:29.999Z</time></trkpt><trkpt lat="42.72783393692617" lon="12.664374007045835"><ele>324.0</ele><time>2026-05-01T15:08:30.999Z</time></trkpt><trkpt lat="42.72765402205589" lon="12.664239157927561"><ele>323.6666666666667</ele><time>2026-05-01T15:08:31.999Z</time></trkpt><trkpt lat="42.72747259447806" lon="12.664110907589544"><ele>323.33333333333337</ele><time>2026-05-01T15:08:32.999Z</time></trkpt><trkpt lat="42.72728998835024" lon="12.663988473218238"><ele>323.0</ele><time>2026-05-01T15:08:33.999Z</time></trkpt><trkpt lat="42.72710793494033" lon="12.663859690434174"><ele>323.0</ele><time>2026-05-01T15:08:34.999Z</time></trkpt><trkpt lat="42.726926451934766" lon="12.663730909398735"><ele>323.0</ele><time>2026-05-01T15:08:35.999Z</time></trkpt><trkpt lat="42.726744714781624" lon="12.663599916610103"><ele>323.0</ele><time>2026-05-01T15:08:36.999Z</time></trkpt><trkpt lat="42.72656937685558" lon="12.663474441783942"><ele>323.33333333333337</ele><time>2026-05-01T15:08:37.999Z</time></trkpt><trkpt lat="42.72640035356578" lon="12.663353541349384"><ele>323.6666666666667</ele><time>2026-05-01T15:08:38.999Z</time></trkpt><trkpt lat="42.726230966350144" lon="12.663218121427155"><ele>324.0</ele><time>2026-05-01T15:08:39.999Z</time></trkpt><trkpt lat="42.7260647659722" lon="12.663062071030012"><ele>324.3333333333333</ele><time>2026-05-01T15:08:41Z</time></trkpt><trkpt lat="42.72589700247337" lon="12.66287963047816"><ele>324.66666666666663</ele><time>2026-05-01T15:08:42Z</time></trkpt><trkpt lat="42.72573725950349" lon="12.662681265844654"><ele>325.0</ele><time>2026-05-01T15:08:43Z</time></trkpt><trkpt lat="42.72560027919671" lon="12.662483299627995"><ele>325.0</ele><time>2026-05-01T15:08:44Z</time></trkpt><trkpt lat="42.72550035196782" lon="12.662281331529952"><ele>325.0</ele><time>2026-05-01T15:08:45Z</time></trkpt><trkpt lat="42.72539717064209" lon="12.662084639162554"><ele>325.0</ele><time>2026-05-01T15:08:46Z</time></trkpt><trkpt lat="42.72529779869403" lon="12.661873769824803"><ele>325.3333333333333</ele><time>2026-05-01T15:08:47Z</time></trkpt><trkpt lat="42.72518703158313" lon="12.661667316153386"><ele>325.6666666666667</ele><time>2026-05-01T15:08:48Z</time></trkpt><trkpt lat="42.72509269869058" lon="12.661442291438181"><ele>326.0</ele><time>2026-05-01T15:08:49Z</time></trkpt><trkpt lat="42.72500164709401" lon="12.661220577553207"><ele>326.0</ele><time>2026-05-01T15:08:50Z</time></trkpt><trkpt lat="42.72491200817563" lon="12.660996416865968"><ele>326.0</ele><time>2026-05-01T15:08:51Z</time></trkpt><trkpt lat="42.72481499405844" lon="12.660778763026096"><ele>326.0</ele><time>2026-05-01T15:08:52Z</time></trkpt><trkpt lat="42.7247214204985" lon="12.660559739809825"><ele>326.0</ele><time>2026-05-01T15:08:53Z</time></trkpt><trkpt lat="42.72462551265759" lon="12.660334624921017"><ele>326.0</ele><time>2026-05-01T15:08:54Z</time></trkpt><trkpt lat="42.724524607337" lon="12.660108897074597"><ele>326.0</ele><time>2026-05-01T15:08:55Z</time></trkpt><trkpt lat="42.72442388041039" lon="12.659869934080048"><ele>326.33333333333337</ele><time>2026-05-01T15:08:56Z</time></trkpt><trkpt lat="42.72433339339876" lon="12.659648440925999"><ele>326.6666666666667</ele><time>2026-05-01T15:08:57Z</time></trkpt><trkpt lat="42.72425330996403" lon="12.659424740040958"><ele>327.0</ele><time>2026-05-01T15:08:58Z</time></trkpt><trkpt lat="42.72417729542252" lon="12.659184448374127"><ele>327.0</ele><time>2026-05-01T15:08:59Z</time></trkpt><trkpt lat="42.72410076424372" lon="12.65894142253076"><ele>327.0</ele><time>2026-05-01T15:09:00Z</time></trkpt><trkpt lat="42.724017143503836" lon="12.658685416571268"><ele>327.0</ele><time>2026-05-01T15:09:01Z</time></trkpt><trkpt lat="42.72393288313232" lon="12.658433356087516"><ele>327.0</ele><time>2026-05-01T15:09:02Z</time></trkpt><trkpt lat="42.72384727394075" lon="12.658184686147292"><ele>327.0</ele><time>2026-05-01T15:09:03Z</time></trkpt><trkpt lat="42.723765461152006" lon="12.657931895879148"><ele>327.0</ele><time>2026-05-01T15:09:04Z</time></trkpt><trkpt lat="42.723688390196635" lon="12.657677003726736"><ele>326.6666666666667</ele><time>2026-05-01T15:09:05Z</time></trkpt><trkpt lat="42.7236039316531" lon="12.657415115393501"><ele>326.33333333333337</ele><time>2026-05-01T15:09:06Z</time></trkpt><trkpt lat="42.72351729642006" lon="12.657148408817273"><ele>326.0</ele><time>2026-05-01T15:09:07Z</time></trkpt><trkpt lat="42.72342672984737" lon="12.656879595813649"><ele>327.0</ele><time>2026-05-01T15:09:08Z</time></trkpt><trkpt lat="42.723335061888854" lon="12.656606965280362"><ele>328.0</ele><time>2026-05-01T15:09:09Z</time></trkpt><trkpt lat="42.72324431685954" lon="12.65633989892568"><ele>329.0</ele><time>2026-05-01T15:09:10Z</time></trkpt><trkpt lat="42.72315872691461" lon="12.656075217811324"><ele>329.0</ele><time>2026-05-01T15:09:11Z</time></trkpt><trkpt lat="42.72307609321964" lon="12.655814626732491"><ele>329.0</ele><time>2026-05-01T15:09:12Z</time></trkpt><trkpt lat="42.722990242133996" lon="12.655542459299612"><ele>329.0</ele><time>2026-05-01T15:09:13Z</time></trkpt><trkpt lat="42.722898774849675" lon="12.655264890302913"><ele>328.6666666666667</ele><time>2026-05-01T15:09:14Z</time></trkpt><trkpt lat="42.7228077303183" lon="12.65498786980756"><ele>328.3333333333333</ele><time>2026-05-01T15:09:15Z</time></trkpt><trkpt lat="42.7227212042942" lon="12.654709942544299"><ele>328.0</ele><time>2026-05-01T15:09:16Z</time></trkpt><trkpt lat="42.72264019341397" lon="12.654415723529972"><ele>330.0</ele><time>2026-05-01T15:09:17Z</time></trkpt><trkpt lat="42.72256778989808" lon="12.65409903478779"><ele>332.0</ele><time>2026-05-01T15:09:18Z</time></trkpt><trkpt lat="42.722500789088514" lon="12.6537686623182"><ele>331.5</ele><time>2026-05-01T15:09:19Z</time></trkpt><trkpt lat="42.72242270845235" lon="12.653439712729554"><ele>331.0</ele><time>2026-05-01T15:09:20Z</time></trkpt><trkpt lat="42.72232699837739" lon="12.653104391588112"><ele>331.0</ele><time>2026-05-01T15:09:21Z</time></trkpt><trkpt lat="42.72222173416978" lon="12.65278031607505"><ele>331.0</ele><time>2026-05-01T15:09:22Z</time></trkpt><trkpt lat="42.7221100278643" lon="12.652467909395785"><ele>331.0</ele><time>2026-05-01T15:09:23Z</time></trkpt><trkpt lat="42.7219966356401" lon="12.652162268139838"><ele>331.0</ele><time>2026-05-01T15:09:24Z</time></trkpt><trkpt lat="42.721888136895885" lon="12.651860594328028"><ele>335.0</ele><time>2026-05-01T15:09:25Z</time></trkpt><trkpt lat="42.72178513102765" lon="12.651561376159217"><ele>339.0</ele><time>2026-05-01T15:09:26Z</time></trkpt><trkpt lat="42.7216904775769" lon="12.651265133748355"><ele>336.5</ele><time>2026-05-01T15:09:27Z</time></trkpt><trkpt lat="42.7216025181036" lon="12.650963660830328"><ele>334.0</ele><time>2026-05-01T15:09:28Z</time></trkpt><trkpt lat="42.72152097808377" lon="12.650652528660462"><ele>334.0</ele><time>2026-05-01T15:09:29Z</time></trkpt><trkpt lat="42.721444401120856" lon="12.650349073477088"><ele>334.0</ele><time>2026-05-01T15:09:30Z</time></trkpt><trkpt lat="42.721372634083544" lon="12.650065692999377"><ele>333.3333333333333</ele><time>2026-05-01T15:09:31Z</time></trkpt><trkpt lat="42.721300176161336" lon="12.649786511916798"><ele>332.6666666666667</ele><time>2026-05-01T15:09:32Z</time></trkpt><trkpt lat="42.72121520127017" lon="12.649512586589296"><ele>332.0</ele><time>2026-05-01T15:09:33Z</time></trkpt><trkpt lat="42.721116742273644" lon="12.649238772179412"><ele>332.6666666666667</ele><time>2026-05-01T15:09:34Z</time></trkpt><trkpt lat="42.72102089945976" lon="12.64897911383557"><ele>333.3333333333333</ele><time>2026-05-01T15:09:35Z</time></trkpt><trkpt lat="42.72093273740046" lon="12.648746651784293"><ele>334.0</ele><time>2026-05-01T15:09:36Z</time></trkpt><trkpt lat="42.72084829672528" lon="12.648526849995575"><ele>334.0</ele><time>2026-05-01T15:09:37Z</time></trkpt><trkpt lat="42.72077507458393" lon="12.648344134258654"><ele>334.0</ele><time>2026-05-01T15:09:38Z</time></trkpt><trkpt lat="42.72071298538943" lon="12.648187483965039"><ele>334.0</ele><time>2026-05-01T15:09:39Z</time></trkpt><trkpt lat="42.72065856887295" lon="12.648053435695173"><ele>334.0</ele><time>2026-05-01T15:09:40Z</time></trkpt><trkpt lat="42.72061534847609" lon="12.647939838459532"><ele>334.0</ele><time>2026-05-01T15:09:41Z</time></trkpt><trkpt lat="42.720564299352084" lon="12.647835030095775"><ele>334.0</ele><time>2026-05-01T15:09:42Z</time></trkpt><trkpt lat="42.72048478475522" lon="12.647730453089272"><ele>334.0</ele><time>2026-05-01T15:09:43Z</time></trkpt><trkpt lat="42.720399661752225" lon="12.647615864465063"><ele>334.0</ele><time>2026-05-01T15:09:44Z</time></trkpt><trkpt lat="42.72032492307032" lon="12.6474794132406"><ele>334.0</ele><time>2026-05-01T15:09:45Z</time></trkpt><trkpt lat="42.72024465563307" lon="12.647340534192375"><ele>336.3333333333333</ele><time>2026-05-01T15:09:46Z</time></trkpt><trkpt lat="42.720150453495215" lon="12.647193444188408"><ele>338.6666666666667</ele><time>2026-05-01T15:09:47Z</time></trkpt><trkpt lat="42.72005074012767" lon="12.647035180861177"><ele>341.0</ele><time>2026-05-01T15:09:48Z</time></trkpt><trkpt lat="42.71995979472165" lon="12.64685477648281"><ele>341.0</ele><time>2026-05-01T15:09:49Z</time></trkpt><trkpt lat="42.71988821622015" lon="12.646656620656557"><ele>341.0</ele><time>2026-05-01T15:09:50Z</time></trkpt><trkpt lat="42.71982571918056" lon="12.646460271337096"><ele>341.0</ele><time>2026-05-01T15:09:51Z</time></trkpt><trkpt lat="42.719765073668356" lon="12.646290285196349"><ele>341.0</ele><time>2026-05-01T15:09:52Z</time></trkpt><trkpt lat="42.71968747229037" lon="12.646135539351478"><ele>341.0</ele><time>2026-05-01T15:09:53Z</time></trkpt><trkpt lat="42.71959422465767" lon="12.646006918614274"><ele>341.0</ele><time>2026-05-01T15:09:54Z</time></trkpt><trkpt lat="42.71948928848966" lon="12.645907471256677"><ele>341.0</ele><time>2026-05-01T15:09:55Z</time></trkpt><trkpt lat="42.719358048256325" lon="12.645834453579585"><ele>341.6666666666667</ele><time>2026-05-01T15:09:56Z</time></trkpt><trkpt lat="42.71920915298679" lon="12.645792696259278"><ele>342.3333333333333</ele><time>2026-05-01T15:09:57Z</time></trkpt><trkpt lat="42.719057108871475" lon="12.645725180430205"><ele>343.0</ele><time>2026-05-01T15:09:58Z</time></trkpt><trkpt lat="42.71890502138901" lon="12.645674698657315"><ele>343.0</ele><time>2026-05-01T15:09:59Z</time></trkpt><trkpt lat="42.71875816469094" lon="12.645623298198368"><ele>343.0</ele><time>2026-05-01T15:10:00Z</time></trkpt><trkpt lat="42.71862365873893" lon="12.645565849840573"><ele>343.0</ele><time>2026-05-01T15:10:01Z</time></trkpt><trkpt lat="42.71850198413544" lon="12.64548919370374"><ele>343.0</ele><time>2026-05-01T15:10:01.999Z</time></trkpt><trkpt lat="42.718382280418176" lon="12.645383568044279"><ele>344.0</ele><time>2026-05-01T15:10:02.999Z</time></trkpt><trkpt lat="42.71823932284748" lon="12.645295756669736"><ele>345.0</ele><time>2026-05-01T15:10:03.999Z</time></trkpt><trkpt lat="42.71809695991183" lon="12.645183730626545"><ele>346.0</ele><time>2026-05-01T15:10:04.999Z</time></trkpt><trkpt lat="42.71794778862441" lon="12.64508575220235"><ele>345.66666666666663</ele><time>2026-05-01T15:10:05.999Z</time></trkpt><trkpt lat="42.71779963147157" lon="12.645001623899299"><ele>345.3333333333333</ele><time>2026-05-01T15:10:06.999Z</time></trkpt><trkpt lat="42.71765501717389" lon="12.644928009013647"><ele>345.0</ele><time>2026-05-01T15:10:07.999Z</time></trkpt><trkpt lat="42.717504078907076" lon="12.644864235060213"><ele>345.0</ele><time>2026-05-01T15:10:08.999Z</time></trkpt><trkpt lat="42.71735149614122" lon="12.644803694221142"><ele>345.0</ele><time>2026-05-01T15:10:09.999Z</time></trkpt><trkpt lat="42.71719197156094" lon="12.644755611383163"><ele>345.0</ele><time>2026-05-01T15:10:10.999Z</time></trkpt><trkpt lat="42.717040296944056" lon="12.644711301094718"><ele>345.25</ele><time>2026-05-01T15:10:11.999Z</time></trkpt><trkpt lat="42.71689331773768" lon="12.644684324990791"><ele>345.5</ele><time>2026-05-01T15:10:12.999Z</time></trkpt><trkpt lat="42.71675843462132" lon="12.644663928336257"><ele>345.75</ele><time>2026-05-01T15:10:13.999Z</time></trkpt><trkpt lat="42.71664883227696" lon="12.644653242980535"><ele>346.0</ele><time>2026-05-01T15:10:14.999Z</time></trkpt><trkpt lat="42.716549755616114" lon="12.644637991577484"><ele>346.0</ele><time>2026-05-01T15:10:15.999Z</time></trkpt><trkpt lat="42.71641918975574" lon="12.644654663069494"><ele>346.0</ele><time>2026-05-01T15:10:16.999Z</time></trkpt><trkpt lat="42.716305840709666" lon="12.644632088129853"><ele>346.0</ele><time>2026-05-01T15:10:17.999Z</time></trkpt><trkpt lat="42.716209244074264" lon="12.644635136201295"><ele>346.0</ele><time>2026-05-01T15:10:18.999Z</time></trkpt><trkpt lat="42.716131696781325" lon="12.644597490229508"><ele>346.0</ele><time>2026-05-01T15:10:19.999Z</time></trkpt><trkpt lat="42.7160636500542" lon="12.644606931213216"><ele>345.0</ele><time>2026-05-01T15:10:20.999Z</time></trkpt><trkpt lat="42.71597763312591" lon="12.644608180362045"><ele>344.0</ele><time>2026-05-01T15:10:22.999Z</time></trkpt><trkpt lat="42.71595655114432" lon="12.644288699596851"><ele>343.0</ele><time>2026-05-01T15:10:24.999Z</time></trkpt><trkpt lat="42.71596803784268" lon="12.644181954401837"><ele>342.0</ele><time>2026-05-01T15:10:25.999Z</time></trkpt><trkpt lat="42.715980998712496" lon="12.644051950450587"><ele>342.0</ele><time>2026-05-01T15:10:26.999Z</time></trkpt><trkpt lat="42.71599633035934" lon="12.643919926924443"><ele>342.0</ele><time>2026-05-01T15:10:27.999Z</time></trkpt><trkpt lat="42.71600230210888" lon="12.643795298091138"><ele>342.0</ele><time>2026-05-01T15:10:28.999Z</time></trkpt><trkpt lat="42.716025271406494" lon="12.643664422538075"><ele>342.0</ele><time>2026-05-01T15:10:29.999Z</time></trkpt><trkpt lat="42.71606622915117" lon="12.643532959597767"><ele>342.0</ele><time>2026-05-01T15:10:30.999Z</time></trkpt><trkpt lat="42.7161172883283" lon="12.643432146393467"><ele>341.8</ele><time>2026-05-01T15:10:31.999Z</time></trkpt><trkpt lat="42.71617334982676" lon="12.64333740256074"><ele>341.6</ele><time>2026-05-01T15:10:32.999Z</time></trkpt><trkpt lat="42.71621997679727" lon="12.643225807547761"><ele>341.40000000000003</ele><time>2026-05-01T15:10:33.999Z</time></trkpt><trkpt lat="42.716238168452165" lon="12.643097387192437"><ele>341.20000000000005</ele><time>2026-05-01T15:10:34.999Z</time></trkpt><trkpt lat="42.716240010750305" lon="12.642966984128952"><ele>341.0</ele><time>2026-05-01T15:10:35.999Z</time></trkpt><trkpt lat="42.716222572681446" lon="12.642841368751819"><ele>341.4</ele><time>2026-05-01T15:10:36.999Z</time></trkpt><trkpt lat="42.71618058457172" lon="12.642725427878272"><ele>341.8</ele><time>2026-05-01T15:10:37.999Z</time></trkpt><trkpt lat="42.71610865322767" lon="12.642629674905095"><ele>342.2</ele><time>2026-05-01T15:10:38.999Z</time></trkpt><trkpt lat="42.71602313500733" lon="12.642535805994255"><ele>342.59999999999997</ele><time>2026-05-01T15:10:39.999Z</time></trkpt><trkpt lat="42.71593358395186" lon="12.642433414021564"><ele>343.0</ele><time>2026-05-01T15:10:40.999Z</time></trkpt><trkpt lat="42.715855040637734" lon="12.642318990347944"><ele>343.0</ele><time>2026-05-01T15:10:41.999Z</time></trkpt><trkpt lat="42.71577648641542" lon="12.642194596036846"><ele>343.0</ele><time>2026-05-01T15:10:42.999Z</time></trkpt><trkpt lat="42.715698272096425" lon="12.642066278704043"><ele>343.0</ele><time>2026-05-01T15:10:43.999Z</time></trkpt><trkpt lat="42.71562054654986" lon="12.641935677608231"><ele>343.0</ele><time>2026-05-01T15:10:44.999Z</time></trkpt><trkpt lat="42.715557555131596" lon="12.641797426681542"><ele>343.0</ele><time>2026-05-01T15:10:45.999Z</time></trkpt><trkpt lat="42.71548638165546" lon="12.64168841544285"><ele>343.0</ele><time>2026-05-01T15:10:47Z</time></trkpt><trkpt lat="42.715404824750955" lon="12.641618349419725"><ele>343.0</ele><time>2026-05-01T15:10:48Z</time></trkpt><trkpt lat="42.71532971222889" lon="12.641555891051967"><ele>343.0</ele><time>2026-05-01T15:10:49Z</time></trkpt><trkpt lat="42.71524348962333" lon="12.641486116840436"><ele>343.0</ele><time>2026-05-01T15:10:50Z</time></trkpt><trkpt lat="42.715130990020775" lon="12.641482421143463"><ele>343.0</ele><time>2026-05-01T15:10:51Z</time></trkpt><trkpt lat="42.715030017322725" lon="12.641491497161157"><ele>343.0</ele><time>2026-05-01T15:10:52Z</time></trkpt><trkpt lat="42.714936288854894" lon="12.641511132071313"><ele>343.0</ele><time>2026-05-01T15:10:53Z</time></trkpt><trkpt lat="42.71486155408995" lon="12.641620582136271"><ele>343.0</ele><time>2026-05-01T15:10:54Z</time></trkpt><trkpt lat="42.714793835311276" lon="12.641751047724105"><ele>343.0</ele><time>2026-05-01T15:10:55Z</time></trkpt><trkpt lat="42.71472339918697" lon="12.641867021072075"><ele>342.79999999999995</ele><time>2026-05-01T15:10:56Z</time></trkpt><trkpt lat="42.7146447884815" lon="12.641978408603725"><ele>342.6</ele><time>2026-05-01T15:10:57Z</time></trkpt><trkpt lat="42.71453158560175" lon="12.642042258923741"><ele>342.4</ele><time>2026-05-01T15:10:58Z</time></trkpt><trkpt lat="42.714448760953495" lon="12.641987524186796"><ele>342.20000000000005</ele><time>2026-05-01T15:11:00Z</time></trkpt><trkpt lat="42.71435476105157" lon="12.641931554155441"><ele>342.0</ele><time>2026-05-01T15:11:01Z</time></trkpt><trkpt lat="42.714249697935486" lon="12.641854820921965"><ele>342.5</ele><time>2026-05-01T15:11:02Z</time></trkpt><trkpt lat="42.71413291989677" lon="12.641759140890683"><ele>343.0</ele><time>2026-05-01T15:11:03Z</time></trkpt><trkpt lat="42.714009451110314" lon="12.641651078587072"><ele>343.5</ele><time>2026-05-01T15:11:04Z</time></trkpt><trkpt lat="42.71389843280522" lon="12.641550868748407"><ele>344.0</ele><time>2026-05-01T15:11:05Z</time></trkpt><trkpt lat="42.71376844820666" lon="12.641449140726126"><ele>344.0</ele><time>2026-05-01T15:11:06Z</time></trkpt><trkpt lat="42.713646737427226" lon="12.641306524432135"><ele>344.0</ele><time>2026-05-01T15:11:07Z</time></trkpt><trkpt lat="42.71351531968891" lon="12.641194184832566"><ele>344.0</ele><time>2026-05-01T15:11:08Z</time></trkpt><trkpt lat="42.713392532909666" lon="12.641070621693142"><ele>344.33333333333337</ele><time>2026-05-01T15:11:09Z</time></trkpt><trkpt lat="42.7132658812492" lon="12.640947971652032"><ele>344.6666666666667</ele><time>2026-05-01T15:11:10Z</time></trkpt><trkpt lat="42.71312778663376" lon="12.6408516669474"><ele>345.0</ele><time>2026-05-01T15:11:11Z</time></trkpt><trkpt lat="42.712984389754006" lon="12.640757949985138"><ele>345.0</ele><time>2026-05-01T15:11:12Z</time></trkpt><trkpt lat="42.712844201419124" lon="12.640647549004328"><ele>345.0</ele><time>2026-05-01T15:11:13Z</time></trkpt><trkpt lat="42.712692881157935" lon="12.640522547114449"><ele>345.0</ele><time>2026-05-01T15:11:14Z</time></trkpt><trkpt lat="42.71254118671564" lon="12.640400761043551"><ele>346.0</ele><time>2026-05-01T15:11:15Z</time></trkpt><trkpt lat="42.71239045391771" lon="12.640274147641133"><ele>347.0</ele><time>2026-05-01T15:11:16Z</time></trkpt><trkpt lat="42.712243096121036" lon="12.640159474771583"><ele>348.0</ele><time>2026-05-01T15:11:17Z</time></trkpt><trkpt lat="42.7120975912558" lon="12.640030904509254"><ele>348.0</ele><time>2026-05-01T15:11:18Z</time></trkpt><trkpt lat="42.71194554065264" lon="12.639897570736922"><ele>348.0</ele><time>2026-05-01T15:11:19Z</time></trkpt><trkpt lat="42.71179490631702" lon="12.639763914057934"><ele>348.0</ele><time>2026-05-01T15:11:20Z</time></trkpt><trkpt lat="42.711639085891186" lon="12.639636146767838"><ele>348.3333333333333</ele><time>2026-05-01T15:11:21Z</time></trkpt><trkpt lat="42.71147388599234" lon="12.63952081764913"><ele>348.66666666666663</ele><time>2026-05-01T15:11:22Z</time></trkpt><trkpt lat="42.711301905786506" lon="12.639423924361397"><ele>349.0</ele><time>2026-05-01T15:11:23Z</time></trkpt><trkpt lat="42.71113012650593" lon="12.639357312195829"><ele>351.0</ele><time>2026-05-01T15:11:24Z</time></trkpt><trkpt lat="42.710973526513875" lon="12.639282560212095"><ele>353.0</ele><time>2026-05-01T15:11:25Z</time></trkpt><trkpt lat="42.71084555423252" lon="12.639203092831224"><ele>355.0</ele><time>2026-05-01T15:11:26Z</time></trkpt><trkpt lat="42.71073132304144" lon="12.639104643697875"><ele>357.0</ele><time>2026-05-01T15:11:27Z</time></trkpt><trkpt lat="42.71062200700432" lon="12.639001808326203"><ele>357.0</ele><time>2026-05-01T15:11:28Z</time></trkpt><trkpt lat="42.71051706167065" lon="12.638908479552653"><ele>357.0</ele><time>2026-05-01T15:11:29Z</time></trkpt><trkpt lat="42.71042704854357" lon="12.638797991847767"><ele>357.0</ele><time>2026-05-01T15:11:30Z</time></trkpt><trkpt lat="42.710312719845156" lon="12.638689798941698"><ele>357.0</ele><time>2026-05-01T15:11:31Z</time></trkpt><trkpt lat="42.710183043961635" lon="12.638595811062144"><ele>363.3333333333333</ele><time>2026-05-01T15:11:32Z</time></trkpt><trkpt lat="42.71003906599684" lon="12.638498111949183"><ele>369.66666666666663</ele><time>2026-05-01T15:11:33Z</time></trkpt><trkpt lat="42.709901820562386" lon="12.638400341952293"><ele>376.0</ele><time>2026-05-01T15:11:34Z</time></trkpt><trkpt lat="42.70975959745403" lon="12.638299632459672"><ele>376.0</ele><time>2026-05-01T15:11:35Z</time></trkpt><trkpt lat="42.70961708366401" lon="12.638203370724113"><ele>376.0</ele><time>2026-05-01T15:11:36Z</time></trkpt><trkpt lat="42.70947646528174" lon="12.638131098869906"><ele>376.0</ele><time>2026-05-01T15:11:37Z</time></trkpt><trkpt lat="42.70934699811225" lon="12.638046667905925"><ele>374.4</ele><time>2026-05-01T15:11:38Z</time></trkpt><trkpt lat="42.70922675683958" lon="12.637969813870292"><ele>372.8</ele><time>2026-05-01T15:11:39Z</time></trkpt><trkpt lat="42.70913771642952" lon="12.637882426242566"><ele>371.2</ele><time>2026-05-01T15:11:40Z</time></trkpt><trkpt lat="42.709074673691546" lon="12.637816962358512"><ele>369.59999999999997</ele><time>2026-05-01T15:11:41Z</time></trkpt><trkpt lat="42.70899650700613" lon="12.637711197905332"><ele>368.0</ele><time>2026-05-01T15:11:43Z</time></trkpt><trkpt lat="42.708981646529864" lon="12.63761267286239"><ele>368.0</ele><time>2026-05-01T15:11:44Z</time></trkpt><trkpt lat="42.70898651441353" lon="12.637499852815488"><ele>368.0</ele><time>2026-05-01T15:11:45Z</time></trkpt><trkpt lat="42.70900830102085" lon="12.637371781166852"><ele>368.0</ele><time>2026-05-01T15:11:46Z</time></trkpt><trkpt lat="42.70903994184067" lon="12.637227452750404"><ele>368.0</ele><time>2026-05-01T15:11:47Z</time></trkpt><trkpt lat="42.70910125391404" lon="12.637082152109954"><ele>368.0</ele><time>2026-05-01T15:11:48Z</time></trkpt><trkpt lat="42.70918296813775" lon="12.636961123786113"><ele>367.25</ele><time>2026-05-01T15:11:49Z</time></trkpt><trkpt lat="42.70927467725861" lon="12.63684837596637"><ele>366.5</ele><time>2026-05-01T15:11:50Z</time></trkpt><trkpt lat="42.70936661497532" lon="12.636735648404434"><ele>365.75</ele><time>2026-05-01T15:11:51Z</time></trkpt><trkpt lat="42.7094411558662" lon="12.636611155476352"><ele>365.0</ele><time>2026-05-01T15:11:52Z</time></trkpt><trkpt lat="42.70948646834944" lon="12.63647941274624"><ele>367.75</ele><time>2026-05-01T15:11:53Z</time></trkpt><trkpt lat="42.709518279046875" lon="12.636336442346526"><ele>370.5</ele><time>2026-05-01T15:11:54Z</time></trkpt><trkpt lat="42.709552001254266" lon="12.636175115432781"><ele>373.25</ele><time>2026-05-01T15:11:55Z</time></trkpt><trkpt lat="42.7095817829398" lon="12.636010980654495"><ele>376.0</ele><time>2026-05-01T15:11:56Z</time></trkpt><trkpt lat="42.709608707078914" lon="12.63584224091694"><ele>376.0</ele><time>2026-05-01T15:11:57Z</time></trkpt><trkpt lat="42.70964028743768" lon="12.63567776446804"><ele>376.0</ele><time>2026-05-01T15:11:58Z</time></trkpt><trkpt lat="42.709678962927285" lon="12.635531026833364"><ele>376.0</ele><time>2026-05-01T15:11:59Z</time></trkpt><trkpt lat="42.70972334105411" lon="12.63534947509247"><ele>376.0</ele><time>2026-05-01T15:12:00Z</time></trkpt><trkpt lat="42.70976051066383" lon="12.635186780267059"><ele>374.25</ele><time>2026-05-01T15:12:01Z</time></trkpt><trkpt lat="42.7097964268657" lon="12.635015243404371"><ele>372.5</ele><time>2026-05-01T15:12:02Z</time></trkpt><trkpt lat="42.709833179703246" lon="12.634843589014405"><ele>370.75</ele><time>2026-05-01T15:12:03Z</time></trkpt><trkpt lat="42.70986872674661" lon="12.634682733028185"><ele>369.0</ele><time>2026-05-01T15:12:04Z</time></trkpt><trkpt lat="42.709902054005106" lon="12.634527051020598"><ele>368.75</ele><time>2026-05-01T15:12:05Z</time></trkpt><trkpt lat="42.709944826250755" lon="12.634403596033552"><ele>368.5</ele><time>2026-05-01T15:12:06Z</time></trkpt><trkpt lat="42.70997034312818" lon="12.63420560693173"><ele>368.25</ele><time>2026-05-01T15:12:07Z</time></trkpt><trkpt lat="42.71001564176658" lon="12.634012670149431"><ele>368.0</ele><time>2026-05-01T15:12:08Z</time></trkpt><trkpt lat="42.71005653084673" lon="12.633830654819185"><ele>368.0</ele><time>2026-05-01T15:12:09Z</time></trkpt><trkpt lat="42.71009669641555" lon="12.633660655723533"><ele>368.0</ele><time>2026-05-01T15:12:10Z</time></trkpt><trkpt lat="42.710138590240945" lon="12.633493681102374"><ele>368.0</ele><time>2026-05-01T15:12:11Z</time></trkpt><trkpt lat="42.710180203604274" lon="12.633352348326557"><ele>368.0</ele><time>2026-05-01T15:12:12Z</time></trkpt><trkpt lat="42.7102291231262" lon="12.633221395561394"><ele>371.25</ele><time>2026-05-01T15:12:13Z</time></trkpt><trkpt lat="42.7102695113934" lon="12.633055787333804"><ele>374.5</ele><time>2026-05-01T15:12:14Z</time></trkpt><trkpt lat="42.71031163316754" lon="12.632891878548955"><ele>377.75</ele><time>2026-05-01T15:12:15Z</time></trkpt><trkpt lat="42.71034340569627" lon="12.63274640919121"><ele>381.0</ele><time>2026-05-01T15:12:16Z</time></trkpt><trkpt lat="42.710371793375934" lon="12.632590459922458"><ele>381.0</ele><time>2026-05-01T15:12:17Z</time></trkpt><trkpt lat="42.710392662890236" lon="12.632422083535738"><ele>381.0</ele><time>2026-05-01T15:12:18Z</time></trkpt><trkpt lat="42.71040501236408" lon="12.632244264451577"><ele>381.0</ele><time>2026-05-01T15:12:19Z</time></trkpt><trkpt lat="42.710414989227466" lon="12.632069891728932"><ele>381.0</ele><time>2026-05-01T15:12:20Z</time></trkpt><trkpt lat="42.71040862868836" lon="12.631895870239783"><ele>381.25</ele><time>2026-05-01T15:12:21Z</time></trkpt><trkpt lat="42.71040166935755" lon="12.631718185797155"><ele>381.5</ele><time>2026-05-01T15:12:22Z</time></trkpt><trkpt lat="42.71038994601712" lon="12.63154785551166"><ele>381.75</ele><time>2026-05-01T15:12:23Z</time></trkpt><trkpt lat="42.71037250457738" lon="12.631394156979876"><ele>382.0</ele><time>2026-05-01T15:12:24Z</time></trkpt><trkpt lat="42.71034869066463" lon="12.631243217527791"><ele>380.6</ele><time>2026-05-01T15:12:25Z</time></trkpt><trkpt lat="42.710317368032904" lon="12.63109611115036"><ele>379.20000000000005</ele><time>2026-05-01T15:12:26Z</time></trkpt><trkpt lat="42.71028066612409" lon="12.630970065992805"><ele>377.8</ele><time>2026-05-01T15:12:27Z</time></trkpt><trkpt lat="42.71024653488245" lon="12.63085305467005"><ele>376.4</ele><time>2026-05-01T15:12:28Z</time></trkpt><trkpt lat="42.71022722584556" lon="12.63076932970255"><ele>375.0</ele><time>2026-05-01T15:12:29Z</time></trkpt><trkpt lat="42.71018751734828" lon="12.63062849961282"><ele>375.0</ele><time>2026-05-01T15:12:31Z</time></trkpt><trkpt lat="42.71013256489181" lon="12.630450989686633"><ele>375.0</ele><time>2026-05-01T15:12:33Z</time></trkpt><trkpt lat="42.71010298131555" lon="12.63034292743966"><ele>375.0</ele><time>2026-05-01T15:12:34Z</time></trkpt><trkpt lat="42.710085239198925" lon="12.630218693669113"><ele>375.0</ele><time>2026-05-01T15:12:35Z</time></trkpt><trkpt lat="42.71006229400846" lon="12.630083560710585"><ele>375.0</ele><time>2026-05-01T15:12:36Z</time></trkpt><trkpt lat="42.71003843285664" lon="12.62994596028742"><ele>375.2</ele><time>2026-05-01T15:12:36.999Z</time></trkpt><trkpt lat="42.7100200571615" lon="12.629800399905612"><ele>375.4</ele><time>2026-05-01T15:12:37.999Z</time></trkpt><trkpt lat="42.71002546983124" lon="12.629655227926172"><ele>375.6</ele><time>2026-05-01T15:12:38.999Z</time></trkpt><trkpt lat="42.710020183539214" lon="12.629507527580591"><ele>375.8</ele><time>2026-05-01T15:12:39.999Z</time></trkpt><trkpt lat="42.710007619375816" lon="12.62936458165548"><ele>376.0</ele><time>2026-05-01T15:12:40.999Z</time></trkpt><trkpt lat="42.7100253008858" lon="12.629223318462156"><ele>376.0</ele><time>2026-05-01T15:12:41.999Z</time></trkpt><trkpt lat="42.71003918863482" lon="12.629075592862218"><ele>376.0</ele><time>2026-05-01T15:12:42.999Z</time></trkpt><trkpt lat="42.71005549687034" lon="12.628946505925146"><ele>376.0</ele><time>2026-05-01T15:12:43.999Z</time></trkpt><trkpt lat="42.71007264247879" lon="12.628838798115524"><ele>376.0</ele><time>2026-05-01T15:12:44.999Z</time></trkpt><trkpt lat="42.71008749573546" lon="12.628732303743316"><ele>376.0</ele><time>2026-05-01T15:12:45.999Z</time></trkpt><trkpt lat="42.71010396715591" lon="12.628615745870075"><ele>376.4</ele><time>2026-05-01T15:12:46.999Z</time></trkpt><trkpt lat="42.710128993507745" lon="12.628489311895105"><ele>376.8</ele><time>2026-05-01T15:12:47.999Z</time></trkpt><trkpt lat="42.710150966649415" lon="12.628359399373231"><ele>377.2</ele><time>2026-05-01T15:12:48.999Z</time></trkpt><trkpt lat="42.71018252299518" lon="12.628244808705753"><ele>377.59999999999997</ele><time>2026-05-01T15:12:49.999Z</time></trkpt><trkpt lat="42.710205083988484" lon="12.628114161983428"><ele>378.0</ele><time>2026-05-01T15:12:50.999Z</time></trkpt><trkpt lat="42.71022565532091" lon="12.627983993912574"><ele>378.0</ele><time>2026-05-01T15:12:52Z</time></trkpt><trkpt lat="42.71023246364816" lon="12.627844911725846"><ele>378.0</ele><time>2026-05-01T15:12:53Z</time></trkpt><trkpt lat="42.710255013916665" lon="12.627705142134324"><ele>378.0</ele><time>2026-05-01T15:12:54Z</time></trkpt><trkpt lat="42.710277926614054" lon="12.627570203451475"><ele>378.0</ele><time>2026-05-01T15:12:55Z</time></trkpt><trkpt lat="42.710301918706904" lon="12.627441188541413"><ele>378.0</ele><time>2026-05-01T15:12:56Z</time></trkpt><trkpt lat="42.710328088862425" lon="12.627325696640124"><ele>378.0</ele><time>2026-05-01T15:12:57Z</time></trkpt><trkpt lat="42.71035578814316" lon="12.627188313139289"><ele>378.0</ele><time>2026-05-01T15:12:58Z</time></trkpt><trkpt lat="42.71037948496404" lon="12.627047833314803"><ele>378.0</ele><time>2026-05-01T15:12:59Z</time></trkpt><trkpt lat="42.71039675144437" lon="12.626901350098873"><ele>378.0</ele><time>2026-05-01T15:13:00Z</time></trkpt><trkpt lat="42.71042004595623" lon="12.62678454865685"><ele>378.0</ele><time>2026-05-01T15:13:01Z</time></trkpt><trkpt lat="42.71047688803642" lon="12.626666340462773"><ele>379.0</ele><time>2026-05-01T15:13:03Z</time></trkpt><trkpt lat="42.71048497633481" lon="12.62638663227686"><ele>380.0</ele><time>2026-05-01T15:13:04Z</time></trkpt><trkpt lat="42.7105062866666" lon="12.626266632864628"><ele>381.0</ele><time>2026-05-01T15:13:05Z</time></trkpt><trkpt lat="42.710528110797874" lon="12.62613711298519"><ele>382.0</ele><time>2026-05-01T15:13:06Z</time></trkpt><trkpt lat="42.710550949043224" lon="12.625994127248507"><ele>382.40000000000003</ele><time>2026-05-01T15:13:07Z</time></trkpt><trkpt lat="42.710573377771325" lon="12.625854463307814"><ele>382.8</ele><time>2026-05-01T15:13:08Z</time></trkpt><trkpt lat="42.710592887343005" lon="12.62572125788682"><ele>383.2</ele><time>2026-05-01T15:13:09Z</time></trkpt><trkpt lat="42.71060956688223" lon="12.625588430831458"><ele>383.6</ele><time>2026-05-01T15:13:10Z</time></trkpt><trkpt lat="42.71062483912226" lon="12.625453810578978"><ele>384.0</ele><time>2026-05-01T15:13:11Z</time></trkpt><trkpt lat="42.71063937530102" lon="12.625317428921502"><ele>384.3333333333333</ele><time>2026-05-01T15:13:12Z</time></trkpt><trkpt lat="42.71064492882361" lon="12.625196311153111"><ele>384.66666666666663</ele><time>2026-05-01T15:13:13Z</time></trkpt><trkpt lat="42.71064533890461" lon="12.625083086043162"><ele>385.0</ele><time>2026-05-01T15:13:14Z</time></trkpt><trkpt lat="42.71063619098969" lon="12.62496969782492"><ele>385.3333333333333</ele><time>2026-05-01T15:13:15Z</time></trkpt><trkpt lat="42.71063254331282" lon="12.624842557479582"><ele>385.66666666666663</ele><time>2026-05-01T15:13:16Z</time></trkpt><trkpt lat="42.710628607212655" lon="12.624725042599005"><ele>386.0</ele><time>2026-05-01T15:13:17Z</time></trkpt><trkpt lat="42.710625381391885" lon="12.62461204695932"><ele>385.99999999999994</ele><time>2026-05-01T15:13:18Z</time></trkpt><trkpt lat="42.71061691249839" lon="12.624511596073045"><ele>386.0</ele><time>2026-05-01T15:13:19Z</time></trkpt><trkpt lat="42.71060697683001" lon="12.62436820951921"><ele>386.0</ele><time>2026-05-01T15:13:21Z</time></trkpt><trkpt lat="42.71060844141014" lon="12.62426348250549"><ele>386.0</ele><time>2026-05-01T15:13:23Z</time></trkpt><trkpt lat="42.71060572398562" lon="12.62413297879761"><ele>385.99999999999994</ele><time>2026-05-01T15:13:25Z</time></trkpt><trkpt lat="42.71060188134365" lon="12.624011365735523"><ele>386.0</ele><time>2026-05-01T15:13:27Z</time></trkpt><trkpt lat="42.71059928165106" lon="12.623895439682256"><ele>386.8571428571429</ele><time>2026-05-01T15:13:29Z</time></trkpt><trkpt lat="42.710590615028515" lon="12.623777522324195"><ele>387.7142857142857</ele><time>2026-05-01T15:13:31Z</time></trkpt><trkpt lat="42.71058223826417" lon="12.623677341094684"><ele>388.57142857142856</ele><time>2026-05-01T15:13:33Z</time></trkpt><trkpt lat="42.71058080172793" lon="12.623588155853549"><ele>389.42857142857144</ele><time>2026-05-01T15:13:36Z</time></trkpt><trkpt lat="42.71058153749388" lon="12.623682314223958"><ele>390.2857142857143</ele><time>2026-05-01T15:14:50Z</time></trkpt><trkpt lat="42.71060062001931" lon="12.623784615243782"><ele>391.14285714285717</ele><time>2026-05-01T15:17:07Z</time></trkpt><trkpt lat="42.710606285418415" lon="12.623871261944855"><ele>392.0</ele><time>2026-05-01T15:17:09Z</time></trkpt><trkpt lat="42.71061020212312" lon="12.624043285518669"><ele>391.99999999999994</ele><time>2026-05-01T15:17:10Z</time></trkpt><trkpt lat="42.71061973431609" lon="12.624132697055568"><ele>392.0</ele><time>2026-05-01T15:17:11Z</time></trkpt><trkpt lat="42.71061586916914" lon="12.624226379125929"><ele>392.0</ele><time>2026-05-01T15:17:12Z</time></trkpt><trkpt lat="42.71061784442857" lon="12.62432332346761"><ele>392.0</ele><time>2026-05-01T15:17:13Z</time></trkpt><trkpt lat="42.71060920646588" lon="12.624431081388167"><ele>391.99999999999994</ele><time>2026-05-01T15:17:14Z</time></trkpt><trkpt lat="42.71062538203297" lon="12.624546616935403"><ele>392.0</ele><time>2026-05-01T15:17:15Z</time></trkpt><trkpt lat="42.71063470064113" lon="12.624663093790836"><ele>390.8</ele><time>2026-05-01T15:17:16Z</time></trkpt><trkpt lat="42.710641143186734" lon="12.624793250168036"><ele>389.6</ele><time>2026-05-01T15:17:17Z</time></trkpt><trkpt lat="42.71065074728347" lon="12.624936719932379"><ele>388.40000000000003</ele><time>2026-05-01T15:17:18Z</time></trkpt><trkpt lat="42.71064520680191" lon="12.625058712395374"><ele>387.20000000000005</ele><time>2026-05-01T15:17:19Z</time></trkpt><trkpt lat="42.710651654195026" lon="12.62517394592526"><ele>386.0</ele><time>2026-05-01T15:17:20Z</time></trkpt><trkpt lat="42.710649346075336" lon="12.625276594112714"><ele>385.6</ele><time>2026-05-01T15:17:21Z</time></trkpt><trkpt lat="42.71063989601338" lon="12.625394503637956"><ele>385.20000000000005</ele><time>2026-05-01T15:17:22Z</time></trkpt><trkpt lat="42.71062448076553" lon="12.625530279101971"><ele>384.79999999999995</ele><time>2026-05-01T15:17:23Z</time></trkpt><trkpt lat="42.71060591649561" lon="12.625688771382812"><ele>384.4</ele><time>2026-05-01T15:17:24Z</time></trkpt><trkpt lat="42.710581101405765" lon="12.625839521429514"><ele>384.0</ele><time>2026-05-01T15:17:25Z</time></trkpt><trkpt lat="42.71055714874049" lon="12.625977926769014"><ele>384.0</ele><time>2026-05-01T15:17:26Z</time></trkpt><trkpt lat="42.71053263472696" lon="12.626106136305127"><ele>384.0</ele><time>2026-05-01T15:17:27Z</time></trkpt><trkpt lat="42.71051323255197" lon="12.62622134679496"><ele>384.0</ele><time>2026-05-01T15:17:28Z</time></trkpt><trkpt lat="42.710496476191956" lon="12.626335168676675"><ele>384.0</ele><time>2026-05-01T15:17:29Z</time></trkpt><trkpt lat="42.71048337772663" lon="12.626442740211408"><ele>384.0</ele><time>2026-05-01T15:17:30Z</time></trkpt><trkpt lat="42.71046368789578" lon="12.626572321655921"><ele>384.0</ele><time>2026-05-01T15:17:31Z</time></trkpt><trkpt lat="42.71043236154555" lon="12.626722698278982"><ele>383.6666666666667</ele><time>2026-05-01T15:17:32Z</time></trkpt><trkpt lat="42.71041326257388" lon="12.626847522939379"><ele>383.3333333333333</ele><time>2026-05-01T15:17:33Z</time></trkpt><trkpt lat="42.710397511269456" lon="12.626955584693278"><ele>383.0</ele><time>2026-05-01T15:17:33.999Z</time></trkpt><trkpt lat="42.71037840798521" lon="12.627060144146288"><ele>382.66666666666663</ele><time>2026-05-01T15:17:34.999Z</time></trkpt><trkpt lat="42.710358431551676" lon="12.627172050267562"><ele>382.3333333333333</ele><time>2026-05-01T15:17:35.999Z</time></trkpt><trkpt lat="42.71034221271432" lon="12.627271180679173"><ele>382.0</ele><time>2026-05-01T15:17:36.999Z</time></trkpt><trkpt lat="42.7103267994946" lon="12.627371654682387"><ele>381.3333333333333</ele><time>2026-05-01T15:17:37.999Z</time></trkpt><trkpt lat="42.710308730112835" lon="12.627463527172836"><ele>380.66666666666663</ele><time>2026-05-01T15:17:38.999Z</time></trkpt><trkpt lat="42.71029117047055" lon="12.627560074896554"><ele>380.0</ele><time>2026-05-01T15:17:39.999Z</time></trkpt><trkpt lat="42.71027002658867" lon="12.627666706287396"><ele>379.3333333333333</ele><time>2026-05-01T15:17:40.999Z</time></trkpt><trkpt lat="42.71024538803319" lon="12.627780941224552"><ele>378.6666666666667</ele><time>2026-05-01T15:17:41.999Z</time></trkpt><trkpt lat="42.71023221308626" lon="12.627867212417023"><ele>378.0</ele><time>2026-05-01T15:17:42.999Z</time></trkpt><trkpt lat="42.71019498658483" lon="12.627962827148579"><ele>378.0</ele><time>2026-05-01T15:17:43.999Z</time></trkpt><trkpt lat="42.71019537868611" lon="12.628058018977233"><ele>378.0</ele><time>2026-05-01T15:17:44.999Z</time></trkpt><trkpt lat="42.71016512119865" lon="12.628248521358463"><ele>378.0</ele><time>2026-05-01T15:17:46.999Z</time></trkpt><trkpt lat="42.71012887381994" lon="12.628357398339926"><ele>378.0</ele><time>2026-05-01T15:17:47.999Z</time></trkpt><trkpt lat="42.71011319781577" lon="12.62844611118857"><ele>378.0</ele><time>2026-05-01T15:17:48.999Z</time></trkpt><trkpt lat="42.71006758453774" lon="12.628692553002125"><ele>377.59999999999997</ele><time>2026-05-01T15:17:51.999Z</time></trkpt><trkpt lat="42.71004783340185" lon="12.628820549669767"><ele>377.2</ele><time>2026-05-01T15:17:54.999Z</time></trkpt><trkpt lat="42.71002693089298" lon="12.628982751998965"><ele>376.8</ele><time>2026-05-01T15:17:56.999Z</time></trkpt><trkpt lat="42.71001589363484" lon="12.629072658700826"><ele>376.4</ele><time>2026-05-01T15:17:57.999Z</time></trkpt><trkpt lat="42.71000622622008" lon="12.629184211316192"><ele>376.0</ele><time>2026-05-01T15:17:58.999Z</time></trkpt><trkpt lat="42.70999448653199" lon="12.629316568502913"><ele>376.0</ele><time>2026-05-01T15:17:59.999Z</time></trkpt><trkpt lat="42.709986798916525" lon="12.629451956583566"><ele>376.0</ele><time>2026-05-01T15:18:00.999Z</time></trkpt><trkpt lat="42.70998968985201" lon="12.629594532439905"><ele>376.0</ele><time>2026-05-01T15:18:01.999Z</time></trkpt><trkpt lat="42.70999587812332" lon="12.62972856315918"><ele>376.0</ele><time>2026-05-01T15:18:02.999Z</time></trkpt><trkpt lat="42.71000662418624" lon="12.629874061888223"><ele>376.0</ele><time>2026-05-01T15:18:03.999Z</time></trkpt><trkpt lat="42.71002379322802" lon="12.630022189474788"><ele>375.8</ele><time>2026-05-01T15:18:04.999Z</time></trkpt><trkpt lat="42.7100478881705" lon="12.630172677910263"><ele>375.6</ele><time>2026-05-01T15:18:05.999Z</time></trkpt><trkpt lat="42.710077202225925" lon="12.630316649309254"><ele>375.4</ele><time>2026-05-01T15:18:06.999Z</time></trkpt><trkpt lat="42.71012831190283" lon="12.630456522991386"><ele>375.2</ele><time>2026-05-01T15:18:07.999Z</time></trkpt><trkpt lat="42.7101678023582" lon="12.630597458245045"><ele>375.0</ele><time>2026-05-01T15:18:08.999Z</time></trkpt><trkpt lat="42.71020676544675" lon="12.630738789926927"><ele>375.0</ele><time>2026-05-01T15:18:09.999Z</time></trkpt><trkpt lat="42.710231061040766" lon="12.630878750519992"><ele>375.0</ele><time>2026-05-01T15:18:10.999Z</time></trkpt><trkpt lat="42.71027736522437" lon="12.631002955781867"><ele>375.0</ele><time>2026-05-01T15:18:11.999Z</time></trkpt><trkpt lat="42.71030011836896" lon="12.63111862935853"><ele>375.0</ele><time>2026-05-01T15:18:12.999Z</time></trkpt><trkpt lat="42.71031276848733" lon="12.631225612705535"><ele>375.0</ele><time>2026-05-01T15:18:13.999Z</time></trkpt><trkpt lat="42.71034073071715" lon="12.63135724203797"><ele>376.2</ele><time>2026-05-01T15:18:14.999Z</time></trkpt><trkpt lat="42.71035965261266" lon="12.631490153615117"><ele>377.4</ele><time>2026-05-01T15:18:15.999Z</time></trkpt><trkpt lat="42.71036989673109" lon="12.631631963584592"><ele>378.6</ele><time>2026-05-01T15:18:16.999Z</time></trkpt><trkpt lat="42.71037593007587" lon="12.631803196447294"><ele>379.8</ele><time>2026-05-01T15:18:17.999Z</time></trkpt><trkpt lat="42.710379707520424" lon="12.631918871684672"><ele>381.0</ele><time>2026-05-01T15:18:18.999Z</time></trkpt><trkpt lat="42.71038124738049" lon="12.63206355402488"><ele>381.0</ele><time>2026-05-01T15:18:19.999Z</time></trkpt><trkpt lat="42.7103777249101" lon="12.632207172952292"><ele>381.0</ele><time>2026-05-01T15:18:20.999Z</time></trkpt><trkpt lat="42.710368994569734" lon="12.632336423729157"><ele>381.0</ele><time>2026-05-01T15:18:21.999Z</time></trkpt><trkpt lat="42.710356379707584" lon="12.632464828333315"><ele>381.0</ele><time>2026-05-01T15:18:22.999Z</time></trkpt><trkpt lat="42.71033849216527" lon="12.63260209364856"><ele>381.0</ele><time>2026-05-01T15:18:23.999Z</time></trkpt><trkpt lat="42.71031329831668" lon="12.632733766258758"><ele>381.20000000000005</ele><time>2026-05-01T15:18:24.999Z</time></trkpt><trkpt lat="42.71028182247751" lon="12.63287023964721"><ele>381.40000000000003</ele><time>2026-05-01T15:18:25.999Z</time></trkpt><trkpt lat="42.710251621463854" lon="12.632996159508314"><ele>381.6</ele><time>2026-05-01T15:18:26.999Z</time></trkpt><trkpt lat="42.71023240962243" lon="12.633146123349643"><ele>381.8</ele><time>2026-05-01T15:18:27.999Z</time></trkpt><trkpt lat="42.71018306058936" lon="12.633270365513024"><ele>382.0</ele><time>2026-05-01T15:18:28.999Z</time></trkpt><trkpt lat="42.71014398293432" lon="12.63340373386749"><ele>378.75</ele><time>2026-05-01T15:18:29.999Z</time></trkpt><trkpt lat="42.71010044528551" lon="12.633539124583807"><ele>375.5</ele><time>2026-05-01T15:18:30.999Z</time></trkpt><trkpt lat="42.710056252001706" lon="12.6336925236432"><ele>372.25</ele><time>2026-05-01T15:18:31.999Z</time></trkpt><trkpt lat="42.7100343230159" lon="12.633853669135505"><ele>369.0</ele><time>2026-05-01T15:18:32.999Z</time></trkpt><trkpt lat="42.71000254376326" lon="12.634003508337326"><ele>369.0</ele><time>2026-05-01T15:18:33.999Z</time></trkpt><trkpt lat="42.70995341889985" lon="12.634150057976257"><ele>369.0</ele><time>2026-05-01T15:18:34.999Z</time></trkpt><trkpt lat="42.709921073061274" lon="12.6343013596576"><ele>369.0</ele><time>2026-05-01T15:18:35.999Z</time></trkpt><trkpt lat="42.70989091972365" lon="12.634443609387338"><ele>369.0</ele><time>2026-05-01T15:18:36.999Z</time></trkpt><trkpt lat="42.709861038600515" lon="12.634584574939476"><ele>369.0</ele><time>2026-05-01T15:18:37.999Z</time></trkpt><trkpt lat="42.7098334116661" lon="12.63471490625761"><ele>369.0</ele><time>2026-05-01T15:18:38.999Z</time></trkpt><trkpt lat="42.709798163634936" lon="12.634878065771805"><ele>369.0</ele><time>2026-05-01T15:18:39.999Z</time></trkpt><trkpt lat="42.70977864634996" lon="12.634970657233769"><ele>369.0</ele><time>2026-05-01T15:18:40.999Z</time></trkpt><trkpt lat="42.709756554582306" lon="12.635072230121295"><ele>369.0</ele><time>2026-05-01T15:18:41.999Z</time></trkpt><trkpt lat="42.70972884778603" lon="12.635265635176918"><ele>371.3333333333333</ele><time>2026-05-01T15:18:42.999Z</time></trkpt><trkpt lat="42.70964893755838" lon="12.635477009078878"><ele>373.66666666666663</ele><time>2026-05-01T15:18:43.999Z</time></trkpt><trkpt lat="42.709613859422845" lon="12.635705374632568"><ele>376.0</ele><time>2026-05-01T15:18:45.999Z</time></trkpt><trkpt lat="42.709580600135155" lon="12.63585742740432"><ele>376.0</ele><time>2026-05-01T15:18:46.999Z</time></trkpt><trkpt lat="42.70954805080126" lon="12.636014178132799"><ele>376.0</ele><time>2026-05-01T15:18:47.999Z</time></trkpt><trkpt lat="42.70951753853228" lon="12.636165329734293"><ele>376.0</ele><time>2026-05-01T15:18:48.999Z</time></trkpt><trkpt lat="42.70948733262804" lon="12.63630739350851"><ele>376.0</ele><time>2026-05-01T15:18:49.999Z</time></trkpt><trkpt lat="42.709458084740156" lon="12.636433561249666"><ele>376.0</ele><time>2026-05-01T15:18:50.999Z</time></trkpt><trkpt lat="42.70942609266118" lon="12.636541925536113"><ele>374.4</ele><time>2026-05-01T15:18:51.999Z</time></trkpt><trkpt lat="42.7093849856192" lon="12.636634098892358"><ele>372.8</ele><time>2026-05-01T15:18:52.999Z</time></trkpt><trkpt lat="42.70933426759058" lon="12.636718915212827"><ele>371.2</ele><time>2026-05-01T15:18:53.999Z</time></trkpt><trkpt lat="42.70926908545098" lon="12.63681234309131"><ele>369.59999999999997</ele><time>2026-05-01T15:18:54.999Z</time></trkpt><trkpt lat="42.709191483481995" lon="12.636906074888357"><ele>368.0</ele><time>2026-05-01T15:18:55.999Z</time></trkpt><trkpt lat="42.70911375842384" lon="12.637008707224005"><ele>368.0</ele><time>2026-05-01T15:18:56.999Z</time></trkpt><trkpt lat="42.70904788094572" lon="12.63713322678672"><ele>368.0</ele><time>2026-05-01T15:18:57.999Z</time></trkpt><trkpt lat="42.70901276421218" lon="12.637280125798839"><ele>368.0</ele><time>2026-05-01T15:18:58.999Z</time></trkpt><trkpt lat="42.70898265650397" lon="12.63741309288383"><ele>368.0</ele><time>2026-05-01T15:18:59.999Z</time></trkpt><trkpt lat="42.70894932711382" lon="12.637544932061786"><ele>368.0</ele><time>2026-05-01T15:19:00.999Z</time></trkpt><trkpt lat="42.708945878426675" lon="12.637674524941845"><ele>368.0</ele><time>2026-05-01T15:19:01.999Z</time></trkpt><trkpt lat="42.70897089177279" lon="12.63778014246611"><ele>368.0</ele><time>2026-05-01T15:19:02.999Z</time></trkpt><trkpt lat="42.70904133372942" lon="12.637864524644637"><ele>368.0</ele><time>2026-05-01T15:19:03.999Z</time></trkpt><trkpt lat="42.70910769602472" lon="12.63793645780978"><ele>368.0</ele><time>2026-05-01T15:19:04.999Z</time></trkpt><trkpt lat="42.70919054573721" lon="12.637991702685067"><ele>368.0</ele><time>2026-05-01T15:19:05.999Z</time></trkpt><trkpt lat="42.70930736052479" lon="12.63804429321196"><ele>370.0</ele><time>2026-05-01T15:19:06.999Z</time></trkpt><trkpt lat="42.709413486587785" lon="12.638112445525742"><ele>372.0</ele><time>2026-05-01T15:19:07.999Z</time></trkpt><trkpt lat="42.709520872801" lon="12.638172643445133"><ele>374.0</ele><time>2026-05-01T15:19:08.999Z</time></trkpt><trkpt lat="42.709630603755066" lon="12.638246565611295"><ele>376.0</ele><time>2026-05-01T15:19:10Z</time></trkpt><trkpt lat="42.70974315368468" lon="12.638309261202833"><ele>376.0</ele><time>2026-05-01T15:19:11Z</time></trkpt><trkpt lat="42.70984761824991" lon="12.638377586064147"><ele>376.0</ele><time>2026-05-01T15:19:12Z</time></trkpt><trkpt lat="42.70995469265356" lon="12.638447667454662"><ele>376.0</ele><time>2026-05-01T15:19:13Z</time></trkpt><trkpt lat="42.71007058184535" lon="12.638527639918445"><ele>376.0</ele><time>2026-05-01T15:19:14Z</time></trkpt><trkpt lat="42.71018369662675" lon="12.638610367862285"><ele>371.25</ele><time>2026-05-01T15:19:15Z</time></trkpt><trkpt lat="42.71028053131374" lon="12.63872119523967"><ele>366.5</ele><time>2026-05-01T15:19:16Z</time></trkpt><trkpt lat="42.710380468794845" lon="12.638816743387718"><ele>361.75</ele><time>2026-05-01T15:19:17Z</time></trkpt><trkpt lat="42.71047728449674" lon="12.638913598546427"><ele>357.0</ele><time>2026-05-01T15:19:18Z</time></trkpt><trkpt lat="42.710571920602426" lon="12.639008273204645"><ele>357.0</ele><time>2026-05-01T15:19:19Z</time></trkpt><trkpt lat="42.710677643235435" lon="12.639088465587294"><ele>357.0</ele><time>2026-05-01T15:19:20Z</time></trkpt><trkpt lat="42.710762524271495" lon="12.63918574865058"><ele>357.0</ele><time>2026-05-01T15:19:21Z</time></trkpt><trkpt lat="42.710862262511064" lon="12.639256591269236"><ele>357.0</ele><time>2026-05-01T15:19:22Z</time></trkpt><trkpt lat="42.71096992812597" lon="12.639325467693984"><ele>357.75</ele><time>2026-05-01T15:19:23Z</time></trkpt><trkpt lat="42.711093566792066" lon="12.63938609064067"><ele>358.5</ele><time>2026-05-01T15:19:24Z</time></trkpt><trkpt lat="42.711226965277405" lon="12.639434423233766"><ele>359.25</ele><time>2026-05-01T15:19:25Z</time></trkpt><trkpt lat="42.71135822155287" lon="12.639481397844467"><ele>360.0</ele><time>2026-05-01T15:19:26Z</time></trkpt><trkpt lat="42.711477947039455" lon="12.639540843458432"><ele>357.25</ele><time>2026-05-01T15:19:27Z</time></trkpt><trkpt lat="42.7115927207604" lon="12.639635996263586"><ele>354.5</ele><time>2026-05-01T15:19:28Z</time></trkpt><trkpt lat="42.7117118523591" lon="12.639732005342099"><ele>351.75</ele><time>2026-05-01T15:19:29Z</time></trkpt><trkpt lat="42.711830468936746" lon="12.63983501182203"><ele>349.0</ele><time>2026-05-01T15:19:30Z</time></trkpt><trkpt lat="42.71194846926428" lon="12.639935699508747"><ele>348.75</ele><time>2026-05-01T15:19:31Z</time></trkpt><trkpt lat="42.712063768389655" lon="12.640034082298385"><ele>348.5</ele><time>2026-05-01T15:19:32Z</time></trkpt><trkpt lat="42.7121882087779" lon="12.64014026517749"><ele>348.25</ele><time>2026-05-01T15:19:33Z</time></trkpt><trkpt lat="42.712305437195035" lon="12.640240294197866"><ele>348.0</ele><time>2026-05-01T15:19:34Z</time></trkpt><trkpt lat="42.712420337092816" lon="12.640338336336356"><ele>347.25</ele><time>2026-05-01T15:19:35Z</time></trkpt><trkpt lat="42.71254025243903" lon="12.640438180677465"><ele>346.5</ele><time>2026-05-01T15:19:36Z</time></trkpt><trkpt lat="42.71266790175335" lon="12.640542423432967"><ele>345.75</ele><time>2026-05-01T15:19:37Z</time></trkpt><trkpt lat="42.71279493558893" lon="12.640645327268183"><ele>345.0</ele><time>2026-05-01T15:19:38Z</time></trkpt><trkpt lat="42.712928983842154" lon="12.640751317081167"><ele>345.0</ele><time>2026-05-01T15:19:39Z</time></trkpt><trkpt lat="42.713055217633986" lon="12.640849650629253"><ele>345.0</ele><time>2026-05-01T15:19:40Z</time></trkpt><trkpt lat="42.713173937888506" lon="12.640938216220603"><ele>345.0</ele><time>2026-05-01T15:19:41Z</time></trkpt><trkpt lat="42.71329685259192" lon="12.64100435710115"><ele>345.0</ele><time>2026-05-01T15:19:42Z</time></trkpt><trkpt lat="42.71340860509923" lon="12.64109163587908"><ele>345.0</ele><time>2026-05-01T15:19:43Z</time></trkpt><trkpt lat="42.713504297964754" lon="12.64121431901546"><ele>345.0</ele><time>2026-05-01T15:19:44Z</time></trkpt><trkpt lat="42.713638823606544" lon="12.641327885689245"><ele>345.0</ele><time>2026-05-01T15:19:45Z</time></trkpt><trkpt lat="42.7137652515393" lon="12.64145848287954"><ele>345.0</ele><time>2026-05-01T15:19:46Z</time></trkpt><trkpt lat="42.71389891821407" lon="12.641586557976108"><ele>344.75</ele><time>2026-05-01T15:19:47Z</time></trkpt><trkpt lat="42.71403284124203" lon="12.641701732013646"><ele>344.5</ele><time>2026-05-01T15:19:48Z</time></trkpt><trkpt lat="42.71414481488083" lon="12.641822234371233"><ele>344.25</ele><time>2026-05-01T15:19:49Z</time></trkpt><trkpt lat="42.714250733855955" lon="12.6419076491068"><ele>344.0</ele><time>2026-05-01T15:19:50Z</time></trkpt><trkpt lat="42.71435091379073" lon="12.641956134949037"><ele>343.79999999999995</ele><time>2026-05-01T15:19:51Z</time></trkpt><trkpt lat="42.71444072451395" lon="12.64200608790934"><ele>343.59999999999997</ele><time>2026-05-01T15:19:52Z</time></trkpt><trkpt lat="42.71452418089584" lon="12.642054045770077"><ele>343.4</ele><time>2026-05-01T15:19:53Z</time></trkpt><trkpt lat="42.71461267709899" lon="12.642052480870024"><ele>343.2</ele><time>2026-05-01T15:19:54Z</time></trkpt><trkpt lat="42.71470040216522" lon="12.64196466387951"><ele>343.0</ele><time>2026-05-01T15:19:55Z</time></trkpt><trkpt lat="42.71477350530106" lon="12.641869775065837"><ele>343.0</ele><time>2026-05-01T15:19:56Z</time></trkpt><trkpt lat="42.71482244515931" lon="12.641756468523734"><ele>343.0</ele><time>2026-05-01T15:19:57Z</time></trkpt><trkpt lat="42.71486890320192" lon="12.641670267068537"><ele>343.0</ele><time>2026-05-01T15:19:58Z</time></trkpt><trkpt lat="42.71491017280536" lon="12.641602341335078"><ele>343.0</ele><time>2026-05-01T15:19:59Z</time></trkpt><trkpt lat="42.71500353375684" lon="12.64148720339161"><ele>343.0</ele><time>2026-05-01T15:20:00Z</time></trkpt><trkpt lat="42.71507800118685" lon="12.641501733724164"><ele>343.0</ele><time>2026-05-01T15:20:01Z</time></trkpt><trkpt lat="42.715152014557056" lon="12.641518285864596"><ele>343.0</ele><time>2026-05-01T15:20:02Z</time></trkpt><trkpt lat="42.715226117568726" lon="12.641536302730294"><ele>343.0</ele><time>2026-05-01T15:20:03Z</time></trkpt><trkpt lat="42.715312197632684" lon="12.641578520529821"><ele>343.0</ele><time>2026-05-01T15:20:05Z</time></trkpt><trkpt lat="42.71541491936095" lon="12.64134825888593"><ele>343.0</ele><time>2026-05-01T15:20:08Z</time></trkpt><trkpt lat="42.71544969610203" lon="12.641269224907507"><ele>343.0</ele><time>2026-05-01T15:20:09Z</time></trkpt><trkpt lat="42.715511829378045" lon="12.641203529372685"><ele>343.59999999999997</ele><time>2026-05-01T15:20:10Z</time></trkpt><trkpt lat="42.71558473040022" lon="12.641195125670539"><ele>344.2</ele><time>2026-05-01T15:20:11Z</time></trkpt><trkpt lat="42.71565054076279" lon="12.641284601049527"><ele>344.8</ele><time>2026-05-01T15:20:12Z</time></trkpt><trkpt lat="42.71573986881202" lon="12.641320662293001"><ele>345.4</ele><time>2026-05-01T15:20:12.999Z</time></trkpt><trkpt lat="42.71583594156209" lon="12.64135823093488"><ele>346.0</ele><time>2026-05-01T15:20:13.999Z</time></trkpt><trkpt lat="42.71593962460779" lon="12.641387963433822"><ele>346.0</ele><time>2026-05-01T15:20:14.999Z</time></trkpt><trkpt lat="42.716026440773646" lon="12.641378724290576"><ele>346.0</ele><time>2026-05-01T15:20:15.999Z</time></trkpt><trkpt lat="42.71611830056662" lon="12.641369312747104"><ele>346.0</ele><time>2026-05-01T15:20:16.999Z</time></trkpt><trkpt lat="42.7162141441682" lon="12.64133019242694"><ele>346.0</ele><time>2026-05-01T15:20:17.999Z</time></trkpt><trkpt lat="42.71631874605027" lon="12.641290537530733"><ele>346.0</ele><time>2026-05-01T15:20:18.999Z</time></trkpt><trkpt lat="42.71642385135427" lon="12.641235064425558"><ele>347.20000000000005</ele><time>2026-05-01T15:20:19.999Z</time></trkpt><trkpt lat="42.71653402152657" lon="12.64115353999685"><ele>348.40000000000003</ele><time>2026-05-01T15:20:20.999Z</time></trkpt><trkpt lat="42.716641646665735" lon="12.641072506783757"><ele>349.6</ele><time>2026-05-01T15:20:21.999Z</time></trkpt><trkpt lat="42.71672798194503" lon="12.641050936183294"><ele>350.8</ele><time>2026-05-01T15:20:22.999Z</time></trkpt><trkpt lat="42.71679383681867" lon="12.641031393359302"><ele>352.0</ele><time>2026-05-01T15:20:23.999Z</time></trkpt><trkpt lat="42.71687562101745" lon="12.641024620384133"><ele>354.25</ele><time>2026-05-01T15:20:24.999Z</time></trkpt><trkpt lat="42.71698257995006" lon="12.641023157076297"><ele>356.5</ele><time>2026-05-01T15:20:25.999Z</time></trkpt><trkpt lat="42.717121271038266" lon="12.64102876197983"><ele>358.75</ele><time>2026-05-01T15:20:26.999Z</time></trkpt><trkpt lat="42.717285501610604" lon="12.641042849966615"><ele>361.0</ele><time>2026-05-01T15:20:27.999Z</time></trkpt><trkpt lat="42.717462222098675" lon="12.641060313028508"><ele>361.0</ele><time>2026-05-01T15:20:28.999Z</time></trkpt><trkpt lat="42.7176314306717" lon="12.641047656281673"><ele>361.0</ele><time>2026-05-01T15:20:29.999Z</time></trkpt><trkpt lat="42.71780658384026" lon="12.64105864767933"><ele>361.0</ele><time>2026-05-01T15:20:30.999Z</time></trkpt><trkpt lat="42.71799004399259" lon="12.641089117290543"><ele>360.20000000000005</ele><time>2026-05-01T15:20:31.999Z</time></trkpt><trkpt lat="42.71814702672276" lon="12.641083935709908"><ele>359.40000000000003</ele><time>2026-05-01T15:20:32.999Z</time></trkpt><trkpt lat="42.71826472618393" lon="12.641102965000309"><ele>358.6</ele><time>2026-05-01T15:20:33.999Z</time></trkpt><trkpt lat="42.71835025952673" lon="12.641127329017264"><ele>357.8</ele><time>2026-05-01T15:20:34.999Z</time></trkpt><trkpt lat="42.71842733359816" lon="12.641149949883934"><ele>357.0</ele><time>2026-05-01T15:20:35.999Z</time></trkpt><trkpt lat="42.71850494446263" lon="12.641165179812711"><ele>356.6</ele><time>2026-05-01T15:20:36.999Z</time></trkpt><trkpt lat="42.71858027627984" lon="12.641158173484078"><ele>356.20000000000005</ele><time>2026-05-01T15:20:37.999Z</time></trkpt><trkpt lat="42.71865199901244" lon="12.641108033534527"><ele>355.8</ele><time>2026-05-01T15:20:38.999Z</time></trkpt><trkpt lat="42.71871084592291" lon="12.641004840983493"><ele>355.4</ele><time>2026-05-01T15:20:39.999Z</time></trkpt><trkpt lat="42.71876306851666" lon="12.640867748401288"><ele>355.0</ele><time>2026-05-01T15:20:40.999Z</time></trkpt><trkpt lat="42.71881231546275" lon="12.640742880940397"><ele>356.6</ele><time>2026-05-01T15:20:41.999Z</time></trkpt><trkpt lat="42.7188686375139" lon="12.640637210241511"><ele>358.2</ele><time>2026-05-01T15:20:42.999Z</time></trkpt><trkpt lat="42.71893410066253" lon="12.640553910114448"><ele>359.79999999999995</ele><time>2026-05-01T15:20:43.999Z</time></trkpt><trkpt lat="42.71903291929164" lon="12.640500778462986"><ele>361.4</ele><time>2026-05-01T15:20:44.999Z</time></trkpt><trkpt lat="42.719136284080015" lon="12.64047289768346"><ele>363.0</ele><time>2026-05-01T15:20:45.999Z</time></trkpt><trkpt lat="42.71924702594072" lon="12.640442129571053"><ele>363.0</ele><time>2026-05-01T15:20:46.999Z</time></trkpt><trkpt lat="42.71936263259807" lon="12.640425728983017"><ele>363.0</ele><time>2026-05-01T15:20:47.999Z</time></trkpt><trkpt lat="42.71949403438357" lon="12.640433177061821"><ele>363.0</ele><time>2026-05-01T15:20:48.999Z</time></trkpt><trkpt lat="42.719630991396706" lon="12.640492267918326"><ele>363.0</ele><time>2026-05-01T15:20:49.999Z</time></trkpt><trkpt lat="42.71976958854302" lon="12.640547766846428"><ele>364.2</ele><time>2026-05-01T15:20:50.999Z</time></trkpt><trkpt lat="42.71989351779105" lon="12.640571262934206"><ele>365.4</ele><time>2026-05-01T15:20:51.999Z</time></trkpt><trkpt lat="42.7199833771374" lon="12.640608345288689"><ele>366.59999999999997</ele><time>2026-05-01T15:20:52.999Z</time></trkpt><trkpt lat="42.720049161923725" lon="12.640634941786624"><ele>367.79999999999995</ele><time>2026-05-01T15:20:53.999Z</time></trkpt><trkpt lat="42.72010974379047" lon="12.640557445132629"><ele>369.0</ele><time>2026-05-01T15:20:54.999Z</time></trkpt><trkpt lat="42.720176494823704" lon="12.640470007904007"><ele>368.2</ele><time>2026-05-01T15:20:55.999Z</time></trkpt><trkpt lat="42.720243334216" lon="12.640412086990464"><ele>367.4</ele><time>2026-05-01T15:20:56.999Z</time></trkpt><trkpt lat="42.72032695055284" lon="12.640448874362301"><ele>366.6</ele><time>2026-05-01T15:20:57.999Z</time></trkpt><trkpt lat="42.72041801947021" lon="12.640488536331112"><ele>365.8</ele><time>2026-05-01T15:20:58.999Z</time></trkpt><trkpt lat="42.72052616797702" lon="12.640523616595893"><ele>365.0</ele><time>2026-05-01T15:20:59.999Z</time></trkpt><trkpt lat="42.72062351591805" lon="12.640535705385195"><ele>365.0</ele><time>2026-05-01T15:21:00.999Z</time></trkpt><trkpt lat="42.72069574251903" lon="12.64055688158509"><ele>365.0</ele><time>2026-05-01T15:21:01.999Z</time></trkpt><trkpt lat="42.720824417898584" lon="12.640551292036763"><ele>365.0</ele><time>2026-05-01T15:21:03.999Z</time></trkpt><trkpt lat="42.72091238946862" lon="12.640515971491999"><ele>365.0</ele><time>2026-05-01T15:21:04.999Z</time></trkpt><trkpt lat="42.72100117432507" lon="12.640450534844286"><ele>365.0</ele><time>2026-05-01T15:21:05.999Z</time></trkpt><trkpt lat="42.721096624130176" lon="12.640355588786507"><ele>361.5</ele><time>2026-05-01T15:21:06.999Z</time></trkpt><trkpt lat="42.72120130701773" lon="12.640246571527232"><ele>358.0</ele><time>2026-05-01T15:21:07.999Z</time></trkpt><trkpt lat="42.72133221083402" lon="12.640164021015018"><ele>354.5</ele><time>2026-05-01T15:21:08.999Z</time></trkpt><trkpt lat="42.72145297315612" lon="12.64004508846554"><ele>351.0</ele><time>2026-05-01T15:21:09.999Z</time></trkpt><trkpt lat="42.721582303697154" lon="12.639942467227415"><ele>351.0</ele><time>2026-05-01T15:21:10.999Z</time></trkpt><trkpt lat="42.721696909147234" lon="12.639850284716237"><ele>351.0</ele><time>2026-05-01T15:21:11.999Z</time></trkpt><trkpt lat="42.7218054267895" lon="12.63976298460721"><ele>351.0</ele><time>2026-05-01T15:21:12.999Z</time></trkpt><trkpt lat="42.72190093042075" lon="12.63969075013909"><ele>351.0</ele><time>2026-05-01T15:21:13.999Z</time></trkpt><trkpt lat="42.72198380614613" lon="12.63962719251565"><ele>350.8</ele><time>2026-05-01T15:21:15Z</time></trkpt><trkpt lat="42.722051641297455" lon="12.639596115016662"><ele>350.6</ele><time>2026-05-01T15:21:16Z</time></trkpt><trkpt lat="42.722131374736705" lon="12.639615922725737"><ele>350.4</ele><time>2026-05-01T15:21:18Z</time></trkpt><trkpt lat="42.722190038191656" lon="12.63947589373345"><ele>350.2</ele><time>2026-05-01T15:21:22Z</time></trkpt><trkpt lat="42.72216103382484" lon="12.639335348390922"><ele>350.0</ele><time>2026-05-01T15:21:23Z</time></trkpt><trkpt lat="42.7221209822199" lon="12.639186187180908"><ele>350.0</ele><time>2026-05-01T15:21:24Z</time></trkpt><trkpt lat="42.7220683560383" lon="12.6390155148939"><ele>350.0</ele><time>2026-05-01T15:21:25Z</time></trkpt><trkpt lat="42.72200875125327" lon="12.63882878053825"><ele>350.0</ele><time>2026-05-01T15:21:26Z</time></trkpt><trkpt lat="42.72194956138937" lon="12.63862562886657"><ele>350.0</ele><time>2026-05-01T15:21:27Z</time></trkpt><trkpt lat="42.72189083907208" lon="12.638402828948628"><ele>351.0</ele><time>2026-05-01T15:21:28Z</time></trkpt><trkpt lat="42.72183144559491" lon="12.638183277401621"><ele>352.0</ele><time>2026-05-01T15:21:29Z</time></trkpt><trkpt lat="42.721773940938654" lon="12.637975827862736"><ele>353.0</ele><time>2026-05-01T15:21:30Z</time></trkpt><trkpt lat="42.72170895856672" lon="12.637752519917868"><ele>353.33333333333337</ele><time>2026-05-01T15:21:31Z</time></trkpt><trkpt lat="42.72164866530651" lon="12.637535965509525"><ele>353.6666666666667</ele><time>2026-05-01T15:21:32Z</time></trkpt><trkpt lat="42.72158437945402" lon="12.6373150607193"><ele>354.0</ele><time>2026-05-01T15:21:33Z</time></trkpt><trkpt lat="42.72151122767572" lon="12.63708693890536"><ele>354.6666666666667</ele><time>2026-05-01T15:21:34Z</time></trkpt><trkpt lat="42.721424777679" lon="12.636870525847675"><ele>355.33333333333337</ele><time>2026-05-01T15:21:35Z</time></trkpt><trkpt lat="42.72132563360879" lon="12.636670222368405"><ele>356.0</ele><time>2026-05-01T15:21:36Z</time></trkpt><trkpt lat="42.72121773910462" lon="12.636475996902718"><ele>356.0</ele><time>2026-05-01T15:21:37Z</time></trkpt><trkpt lat="42.721107526025904" lon="12.636277240231811"><ele>356.0</ele><time>2026-05-01T15:21:38Z</time></trkpt><trkpt lat="42.72099984737626" lon="12.63607998612625"><ele>356.0</ele><time>2026-05-01T15:21:39Z</time></trkpt><trkpt lat="42.720897865579836" lon="12.63588929815478"><ele>357.33333333333337</ele><time>2026-05-01T15:21:40Z</time></trkpt><trkpt lat="42.720810057814354" lon="12.635706229968582"><ele>358.6666666666667</ele><time>2026-05-01T15:21:41Z</time></trkpt><trkpt lat="42.72073725338852" lon="12.635507811433602"><ele>360.0</ele><time>2026-05-01T15:21:42Z</time></trkpt><trkpt lat="42.720694321586045" lon="12.635270099691718"><ele>360.3333333333333</ele><time>2026-05-01T15:21:43Z</time></trkpt><trkpt lat="42.720627727386905" lon="12.635042960600517"><ele>360.66666666666663</ele><time>2026-05-01T15:21:44Z</time></trkpt><trkpt lat="42.72057654235578" lon="12.634804828976526"><ele>361.0</ele><time>2026-05-01T15:21:45Z</time></trkpt><trkpt lat="42.72052176181638" lon="12.634568503085205"><ele>361.66666666666663</ele><time>2026-05-01T15:21:46Z</time></trkpt><trkpt lat="42.72046321033783" lon="12.63433001969118"><ele>362.3333333333333</ele><time>2026-05-01T15:21:47Z</time></trkpt><trkpt lat="42.72040747387574" lon="12.634098060740463"><ele>363.0</ele><time>2026-05-01T15:21:48Z</time></trkpt><trkpt lat="42.720350636292096" lon="12.633864790021462"><ele>363.3333333333333</ele><time>2026-05-01T15:21:49Z</time></trkpt><trkpt lat="42.720295942439606" lon="12.63363419226856"><ele>363.66666666666663</ele><time>2026-05-01T15:21:50Z</time></trkpt><trkpt lat="42.72025032385227" lon="12.633408975381098"><ele>364.0</ele><time>2026-05-01T15:21:51Z</time></trkpt><trkpt lat="42.720229248962426" lon="12.63318364521243"><ele>364.0</ele><time>2026-05-01T15:21:52Z</time></trkpt><trkpt lat="42.720235718019126" lon="12.632948801363307"><ele>364.0</ele><time>2026-05-01T15:21:53Z</time></trkpt><trkpt lat="42.72028668893323" lon="12.632707829706705"><ele>364.0</ele><time>2026-05-01T15:21:54Z</time></trkpt><trkpt lat="42.72031123049111" lon="12.632452648924083"><ele>365.0</ele><time>2026-05-01T15:21:55Z</time></trkpt><trkpt lat="42.720344616251616" lon="12.632201796589783"><ele>366.0</ele><time>2026-05-01T15:21:56Z</time></trkpt><trkpt lat="42.720360636849584" lon="12.631948585562133"><ele>367.0</ele><time>2026-05-01T15:21:57Z</time></trkpt><trkpt lat="42.7203584262357" lon="12.631693939824544"><ele>368.0</ele><time>2026-05-01T15:21:58Z</time></trkpt><trkpt lat="42.72034426725708" lon="12.63143653968448"><ele>369.0</ele><time>2026-05-01T15:21:59Z</time></trkpt><trkpt lat="42.72032610664724" lon="12.631177222204997"><ele>370.0</ele><time>2026-05-01T15:22:00Z</time></trkpt><trkpt lat="42.72030755917695" lon="12.630895736855837"><ele>370.66666666666663</ele><time>2026-05-01T15:22:01Z</time></trkpt><trkpt lat="42.72029235924327" lon="12.630623306748308"><ele>371.3333333333333</ele><time>2026-05-01T15:22:02Z</time></trkpt><trkpt lat="42.72027789283453" lon="12.630364386055106"><ele>372.0</ele><time>2026-05-01T15:22:03Z</time></trkpt><trkpt lat="42.720262503358356" lon="12.630112002416258"><ele>372.6666666666667</ele><time>2026-05-01T15:22:04Z</time></trkpt><trkpt lat="42.72024556678695" lon="12.629863613011995"><ele>373.33333333333337</ele><time>2026-05-01T15:22:05Z</time></trkpt><trkpt lat="42.72022816136126" lon="12.629629099523353"><ele>374.0</ele><time>2026-05-01T15:22:06Z</time></trkpt><trkpt lat="42.720207356290366" lon="12.629400826064755"><ele>378.33333333333337</ele><time>2026-05-01T15:22:07Z</time></trkpt><trkpt lat="42.72018818107195" lon="12.629185500324015"><ele>382.6666666666667</ele><time>2026-05-01T15:22:08Z</time></trkpt><trkpt lat="42.720168902671695" lon="12.628978806176129"><ele>387.0</ele><time>2026-05-01T15:22:09Z</time></trkpt><trkpt lat="42.720148832813955" lon="12.628782779397135"><ele>386.75</ele><time>2026-05-01T15:22:10Z</time></trkpt><trkpt lat="42.720116670720266" lon="12.62860160196692"><ele>386.5</ele><time>2026-05-01T15:22:11Z</time></trkpt><trkpt lat="42.72006207668682" lon="12.628432577671344"><ele>386.25</ele><time>2026-05-01T15:22:12Z</time></trkpt><trkpt lat="42.719987791625144" lon="12.628259360137381"><ele>386.0</ele><time>2026-05-01T15:22:13Z</time></trkpt><trkpt lat="42.71990660505026" lon="12.628134752970741"><ele>386.0</ele><time>2026-05-01T15:22:14Z</time></trkpt><trkpt lat="42.71982884246409" lon="12.628046962287689"><ele>386.0</ele><time>2026-05-01T15:22:15Z</time></trkpt><trkpt lat="42.719768729918115" lon="12.627979053291345"><ele>386.0</ele><time>2026-05-01T15:22:16Z</time></trkpt><trkpt lat="42.719713785890335" lon="12.627927246053162"><ele>386.0</ele><time>2026-05-01T15:22:17Z</time></trkpt><trkpt lat="42.7195234286084" lon="12.627770269685078"><ele>385.8</ele><time>2026-05-01T15:22:18Z</time></trkpt><trkpt lat="42.71941952599248" lon="12.627692321103275"><ele>385.6</ele><time>2026-05-01T15:22:19Z</time></trkpt><trkpt lat="42.719336853208446" lon="12.627595563384617"><ele>385.4</ele><time>2026-05-01T15:22:20Z</time></trkpt><trkpt lat="42.719262744892625" lon="12.627494288049814"><ele>385.2</ele><time>2026-05-01T15:22:21Z</time></trkpt><trkpt lat="42.719182204681346" lon="12.6273912711531"><ele>385.0</ele><time>2026-05-01T15:22:22Z</time></trkpt><trkpt lat="42.719145016494174" lon="12.627255606917993"><ele>386.2</ele><time>2026-05-01T15:22:23Z</time></trkpt><trkpt lat="42.71910412656184" lon="12.62712608525567"><ele>387.4</ele><time>2026-05-01T15:22:24Z</time></trkpt><trkpt lat="42.719085346131656" lon="12.626997327139682"><ele>388.6</ele><time>2026-05-01T15:22:25Z</time></trkpt><trkpt lat="42.71907297137769" lon="12.626872262456532"><ele>389.8</ele><time>2026-05-01T15:22:26Z</time></trkpt><trkpt lat="42.71907334879322" lon="12.626755925382463"><ele>391.0</ele><time>2026-05-01T15:22:27Z</time></trkpt><trkpt lat="42.71908467846194" lon="12.626619261941958"><ele>391.75</ele><time>2026-05-01T15:22:28Z</time></trkpt><trkpt lat="42.71909803698688" lon="12.626480119092319"><ele>392.5</ele><time>2026-05-01T15:22:29Z</time></trkpt><trkpt lat="42.719135525615414" lon="12.626350867058276"><ele>393.25</ele><time>2026-05-01T15:22:30Z</time></trkpt><trkpt lat="42.71918065888617" lon="12.62620133680788"><ele>394.0</ele><time>2026-05-01T15:22:31Z</time></trkpt><trkpt lat="42.71925343280999" lon="12.626027211113152"><ele>394.0</ele><time>2026-05-01T15:22:32Z</time></trkpt><trkpt lat="42.71936295516423" lon="12.625849890010786"><ele>394.0</ele><time>2026-05-01T15:22:33Z</time></trkpt><trkpt lat="42.719487536506165" lon="12.625674757388548"><ele>394.0</ele><time>2026-05-01T15:22:34Z</time></trkpt><trkpt lat="42.71959917762307" lon="12.625479913523616"><ele>396.33333333333337</ele><time>2026-05-01T15:22:35Z</time></trkpt><trkpt lat="42.719692441291684" lon="12.625252633746298"><ele>398.66666666666663</ele><time>2026-05-01T15:22:36Z</time></trkpt><trkpt lat="42.719779407193556" lon="12.625026326044026"><ele>401.0</ele><time>2026-05-01T15:22:37Z</time></trkpt><trkpt lat="42.71985866923235" lon="12.624817445258508"><ele>401.0</ele><time>2026-05-01T15:22:38Z</time></trkpt><trkpt lat="42.71992103602396" lon="12.624601357170498"><ele>401.0</ele><time>2026-05-01T15:22:39Z</time></trkpt><trkpt lat="42.719954531140054" lon="12.624338357348613"><ele>401.0</ele><time>2026-05-01T15:22:40Z</time></trkpt><trkpt lat="42.71996721661316" lon="12.624069787662926"><ele>403.66666666666663</ele><time>2026-05-01T15:22:41Z</time></trkpt><trkpt lat="42.719966139633144" lon="12.623818927059393"><ele>406.33333333333337</ele><time>2026-05-01T15:22:42Z</time></trkpt><trkpt lat="42.719955898315156" lon="12.623602473278792"><ele>409.0</ele><time>2026-05-01T15:22:43Z</time></trkpt><trkpt lat="42.71992210090525" lon="12.623399269773875"><ele>409.6666666666667</ele><time>2026-05-01T15:22:44Z</time></trkpt><trkpt lat="42.71985366259452" lon="12.623199785598155"><ele>410.33333333333337</ele><time>2026-05-01T15:22:45Z</time></trkpt><trkpt lat="42.71976054742667" lon="12.623018621797165"><ele>411.0</ele><time>2026-05-01T15:22:46Z</time></trkpt><trkpt lat="42.71964902340541" lon="12.622862836760264"><ele>410.25</ele><time>2026-05-01T15:22:47Z</time></trkpt><trkpt lat="42.71953669854625" lon="12.622715411627357"><ele>409.5</ele><time>2026-05-01T15:22:48Z</time></trkpt><trkpt lat="42.719456945514246" lon="12.622566265132997"><ele>408.75</ele><time>2026-05-01T15:22:49Z</time></trkpt><trkpt lat="42.71942679478914" lon="12.622373707325043"><ele>408.0</ele><time>2026-05-01T15:22:50Z</time></trkpt><trkpt lat="42.71941864820311" lon="12.622161493704896"><ele>408.0</ele><time>2026-05-01T15:22:51Z</time></trkpt><trkpt lat="42.719399105247604" lon="12.621935347057574"><ele>408.0</ele><time>2026-05-01T15:22:51.999Z</time></trkpt><trkpt lat="42.71940372357692" lon="12.621680814900467"><ele>408.0</ele><time>2026-05-01T15:22:52.999Z</time></trkpt><trkpt lat="42.719401499493756" lon="12.621439689253405"><ele>412.5</ele><time>2026-05-01T15:22:53.999Z</time></trkpt><trkpt lat="42.71939615604674" lon="12.621225951290581"><ele>417.0</ele><time>2026-05-01T15:22:54.999Z</time></trkpt><trkpt lat="42.71938826354316" lon="12.62103641659854"><ele>421.5</ele><time>2026-05-01T15:22:55.999Z</time></trkpt><trkpt lat="42.719364712632945" lon="12.620867776166486"><ele>426.0</ele><time>2026-05-01T15:22:56.999Z</time></trkpt><trkpt lat="42.71930436548465" lon="12.620713998960559"><ele>426.33333333333337</ele><time>2026-05-01T15:22:57.999Z</time></trkpt><trkpt lat="42.719189080158046" lon="12.620566528392487"><ele>426.6666666666667</ele><time>2026-05-01T15:22:58.999Z</time></trkpt><trkpt lat="42.71904927036176" lon="12.62041523618329"><ele>427.0</ele><time>2026-05-01T15:22:59.999Z</time></trkpt><trkpt lat="42.71890989309276" lon="12.620252134712507"><ele>426.0</ele><time>2026-05-01T15:23:00.999Z</time></trkpt><trkpt lat="42.718764985129425" lon="12.62010542735103"><ele>425.0</ele><time>2026-05-01T15:23:01.999Z</time></trkpt><trkpt lat="42.71859718466839" lon="12.620004175605128"><ele>424.0</ele><time>2026-05-01T15:23:02.999Z</time></trkpt><trkpt lat="42.7184354052372" lon="12.619909104730667"><ele>428.6666666666667</ele><time>2026-05-01T15:23:03.999Z</time></trkpt><trkpt lat="42.718336131714075" lon="12.61973666356673"><ele>433.33333333333337</ele><time>2026-05-01T15:23:04.999Z</time></trkpt><trkpt lat="42.718231381663344" lon="12.61952973975714"><ele>438.0</ele><time>2026-05-01T15:23:05.999Z</time></trkpt><trkpt lat="42.71810615484482" lon="12.619315545733095"><ele>438.0</ele><time>2026-05-01T15:23:06.999Z</time></trkpt><trkpt lat="42.71801439335682" lon="12.619115416436115"><ele>438.0</ele><time>2026-05-01T15:23:07.999Z</time></trkpt><trkpt lat="42.71795103348909" lon="12.61894433490107"><ele>438.0</ele><time>2026-05-01T15:23:08.999Z</time></trkpt><trkpt lat="42.717935163210065" lon="12.618765799033813"><ele>438.0</ele><time>2026-05-01T15:23:09.999Z</time></trkpt><trkpt lat="42.71795750941849" lon="12.61857194805071"><ele>439.5</ele><time>2026-05-01T15:23:10.999Z</time></trkpt><trkpt lat="42.71797163045719" lon="12.618400943377727"><ele>441.0</ele><time>2026-05-01T15:23:11.999Z</time></trkpt><trkpt lat="42.71794073515952" lon="12.618242156057757"><ele>442.5</ele><time>2026-05-01T15:23:12.999Z</time></trkpt><trkpt lat="42.71785491976485" lon="12.618087073231466"><ele>444.0</ele><time>2026-05-01T15:23:13.999Z</time></trkpt><trkpt lat="42.717726692278234" lon="12.617975858982868"><ele>447.0</ele><time>2026-05-01T15:23:14.999Z</time></trkpt><trkpt lat="42.71755749066139" lon="12.617900324355741"><ele>450.0</ele><time>2026-05-01T15:23:15.999Z</time></trkpt><trkpt lat="42.71738160464341" lon="12.61783604684123"><ele>453.0</ele><time>2026-05-01T15:23:16.999Z</time></trkpt><trkpt lat="42.71727267585566" lon="12.617725311733203"><ele>453.0</ele><time>2026-05-01T15:23:17.999Z</time></trkpt><trkpt lat="42.71718007356901" lon="12.617606081251497"><ele>453.0</ele><time>2026-05-01T15:23:18.999Z</time></trkpt><trkpt lat="42.71711258304615" lon="12.617429557002135"><ele>453.0</ele><time>2026-05-01T15:23:19.999Z</time></trkpt><trkpt lat="42.71711624915878" lon="12.617216192617011"><ele>453.0</ele><time>2026-05-01T15:23:21Z</time></trkpt><trkpt lat="42.717117794117634" lon="12.616998058989871"><ele>453.5</ele><time>2026-05-01T15:23:22Z</time></trkpt><trkpt lat="42.717138068588184" lon="12.616795106916793"><ele>454.0</ele><time>2026-05-01T15:23:23Z</time></trkpt><trkpt lat="42.71712817710429" lon="12.616623502774283"><ele>454.5</ele><time>2026-05-01T15:23:24Z</time></trkpt><trkpt lat="42.71709705709319" lon="12.616481547629318"><ele>455.0</ele><time>2026-05-01T15:23:25Z</time></trkpt><trkpt lat="42.71704518892536" lon="12.616329493548726"><ele>455.0</ele><time>2026-05-01T15:23:26Z</time></trkpt><trkpt lat="42.71696892153972" lon="12.616174792591151"><ele>455.0</ele><time>2026-05-01T15:23:27Z</time></trkpt><trkpt lat="42.71686916392329" lon="12.616046132339504"><ele>455.0</ele><time>2026-05-01T15:23:28Z</time></trkpt><trkpt lat="42.71674901775593" lon="12.615934781633774"><ele>455.0</ele><time>2026-05-01T15:23:29Z</time></trkpt><trkpt lat="42.71661866466185" lon="12.615818338819"><ele>456.0</ele><time>2026-05-01T15:23:30Z</time></trkpt><trkpt lat="42.71650663254057" lon="12.61566919008686"><ele>457.0</ele><time>2026-05-01T15:23:31Z</time></trkpt><trkpt lat="42.71639343332369" lon="12.615564368777562"><ele>458.0</ele><time>2026-05-01T15:23:32Z</time></trkpt><trkpt lat="42.71632445232328" lon="12.615423885296972"><ele>459.0</ele><time>2026-05-01T15:23:33Z</time></trkpt><trkpt lat="42.71625640713513" lon="12.615280684469836"><ele>462.0</ele><time>2026-05-01T15:23:34Z</time></trkpt><trkpt lat="42.71625809013651" lon="12.615076899320675"><ele>465.0</ele><time>2026-05-01T15:23:35Z</time></trkpt><trkpt lat="42.716262657865705" lon="12.614855711763262"><ele>468.0</ele><time>2026-05-01T15:23:36Z</time></trkpt><trkpt lat="42.71626064381037" lon="12.614627942092175"><ele>467.66666666666663</ele><time>2026-05-01T15:23:37Z</time></trkpt><trkpt lat="42.71627474822152" lon="12.614410715862897"><ele>467.3333333333333</ele><time>2026-05-01T15:23:38Z</time></trkpt><trkpt lat="42.7162858457177" lon="12.614198853169633"><ele>467.0</ele><time>2026-05-01T15:23:39Z</time></trkpt><trkpt lat="42.71631564117353" lon="12.613986663064313"><ele>467.0</ele><time>2026-05-01T15:23:40Z</time></trkpt><trkpt lat="42.71637159939597" lon="12.613773142653217"><ele>467.0</ele><time>2026-05-01T15:23:41Z</time></trkpt><trkpt lat="42.71644106732331" lon="12.613566585063579"><ele>467.0</ele><time>2026-05-01T15:23:42Z</time></trkpt><trkpt lat="42.71651143026067" lon="12.61335803143927"><ele>467.0</ele><time>2026-05-01T15:23:43Z</time></trkpt><trkpt lat="42.71656036671833" lon="12.613143247827102"><ele>467.0</ele><time>2026-05-01T15:23:44Z</time></trkpt><trkpt lat="42.71658166037349" lon="12.612915990429356"><ele>467.0</ele><time>2026-05-01T15:23:45Z</time></trkpt><trkpt lat="42.7165948840572" lon="12.61269330821234"><ele>467.0</ele><time>2026-05-01T15:23:46Z</time></trkpt><trkpt lat="42.71661572990255" lon="12.612469239984517"><ele>467.0</ele><time>2026-05-01T15:23:47Z</time></trkpt><trkpt lat="42.71663628446948" lon="12.61225835189442"><ele>467.0</ele><time>2026-05-01T15:23:48Z</time></trkpt><trkpt lat="42.71665776366059" lon="12.612066447431944"><ele>467.0</ele><time>2026-05-01T15:23:49Z</time></trkpt><trkpt lat="42.71667561213043" lon="12.611880129446835"><ele>467.0</ele><time>2026-05-01T15:23:50Z</time></trkpt><trkpt lat="42.71667235648862" lon="12.611701335339975"><ele>467.0</ele><time>2026-05-01T15:23:51Z</time></trkpt><trkpt lat="42.716638661281294" lon="12.611530163434061"><ele>467.0</ele><time>2026-05-01T15:23:52Z</time></trkpt><trkpt lat="42.71656370396156" lon="12.611359586536011"><ele>467.0</ele><time>2026-05-01T15:23:53Z</time></trkpt><trkpt lat="42.716451717337094" lon="12.611227246740587"><ele>467.0</ele><time>2026-05-01T15:23:54Z</time></trkpt><trkpt lat="42.71629767250297" lon="12.611129463232627"><ele>467.0</ele><time>2026-05-01T15:23:55Z</time></trkpt><trkpt lat="42.71612843968987" lon="12.611071229242842"><ele>463.66666666666663</ele><time>2026-05-01T15:23:56Z</time></trkpt><trkpt lat="42.71595683081914" lon="12.611028645771619"><ele>460.33333333333337</ele><time>2026-05-01T15:23:57Z</time></trkpt><trkpt lat="42.71579838212506" lon="12.610951285311442"><ele>457.0</ele><time>2026-05-01T15:23:58Z</time></trkpt><trkpt lat="42.715651098013666" lon="12.610886271949495"><ele>457.0</ele><time>2026-05-01T15:23:59Z</time></trkpt><trkpt lat="42.71551239264684" lon="12.610799842937354"><ele>457.0</ele><time>2026-05-01T15:24:00Z</time></trkpt><trkpt lat="42.715384028993725" lon="12.610682472556988"><ele>457.0</ele><time>2026-05-01T15:24:01Z</time></trkpt><trkpt lat="42.71526518409265" lon="12.610532791513393"><ele>456.0</ele><time>2026-05-01T15:24:02Z</time></trkpt><trkpt lat="42.71516592988016" lon="12.610350482712622"><ele>455.0</ele><time>2026-05-01T15:24:03Z</time></trkpt><trkpt lat="42.715069227507065" lon="12.610167677351033"><ele>454.0</ele><time>2026-05-01T15:24:04Z</time></trkpt><trkpt lat="42.714996973461204" lon="12.609953246968194"><ele>454.0</ele><time>2026-05-01T15:24:05Z</time></trkpt><trkpt lat="42.714927539280865" lon="12.609749844886334"><ele>454.0</ele><time>2026-05-01T15:24:06Z</time></trkpt><trkpt lat="42.71485604496027" lon="12.609545335336877"><ele>454.0</ele><time>2026-05-01T15:24:07Z</time></trkpt><trkpt lat="42.71478815487352" lon="12.60935543308658"><ele>456.6666666666667</ele><time>2026-05-01T15:24:08Z</time></trkpt><trkpt lat="42.71472521128123" lon="12.609168355828318"><ele>459.33333333333337</ele><time>2026-05-01T15:24:09Z</time></trkpt><trkpt lat="42.7146576444958" lon="12.60897911240614"><ele>462.0</ele><time>2026-05-01T15:24:10Z</time></trkpt><trkpt lat="42.714587980664945" lon="12.608795446640142"><ele>463.25</ele><time>2026-05-01T15:24:11Z</time></trkpt><trkpt lat="42.71452697865336" lon="12.608629314139339"><ele>464.5</ele><time>2026-05-01T15:24:12Z</time></trkpt><trkpt lat="42.714470273369926" lon="12.608514191404442"><ele>465.75</ele><time>2026-05-01T15:24:13Z</time></trkpt><trkpt lat="42.71439389851022" lon="12.608448961666072"><ele>467.0</ele><time>2026-05-01T15:24:14Z</time></trkpt><trkpt lat="42.71427905243707" lon="12.608389171097775"><ele>467.5</ele><time>2026-05-01T15:24:15Z</time></trkpt><trkpt lat="42.71416353961495" lon="12.608409663209668"><ele>468.0</ele><time>2026-05-01T15:24:16Z</time></trkpt><trkpt lat="42.714065293338656" lon="12.608473948353998"><ele>468.5</ele><time>2026-05-01T15:24:17Z</time></trkpt><trkpt lat="42.713976702828525" lon="12.608584763118676"><ele>469.0</ele><time>2026-05-01T15:24:18Z</time></trkpt><trkpt lat="42.71387592544503" lon="12.60873385237831"><ele>466.0</ele><time>2026-05-01T15:24:19Z</time></trkpt><trkpt lat="42.71377348006331" lon="12.608882726264921"><ele>463.0</ele><time>2026-05-01T15:24:20Z</time></trkpt><trkpt lat="42.713682449311776" lon="12.609015080699649"><ele>460.0</ele><time>2026-05-01T15:24:21Z</time></trkpt><trkpt lat="42.71359702507578" lon="12.6091392834286"><ele>457.0</ele><time>2026-05-01T15:24:22Z</time></trkpt><trkpt lat="42.713505889753385" lon="12.60927333960416"><ele>457.0</ele><time>2026-05-01T15:24:23Z</time></trkpt><trkpt lat="42.7134278549808" lon="12.609422252577318"><ele>457.0</ele><time>2026-05-01T15:24:24Z</time></trkpt><trkpt lat="42.71333490763831" lon="12.60957146176665"><ele>457.0</ele><time>2026-05-01T15:24:25Z</time></trkpt><trkpt lat="42.71325854302977" lon="12.60971720780483"><ele>457.0</ele><time>2026-05-01T15:24:26Z</time></trkpt><trkpt lat="42.713200246679584" lon="12.609875146740917"><ele>456.75</ele><time>2026-05-01T15:24:27Z</time></trkpt><trkpt lat="42.71315855342169" lon="12.610042357538298"><ele>456.5</ele><time>2026-05-01T15:24:28Z</time></trkpt><trkpt lat="42.71311419618853" lon="12.610215949655585"><ele>456.25</ele><time>2026-05-01T15:24:29Z</time></trkpt><trkpt lat="42.71309704828423" lon="12.6103872101879"><ele>456.0</ele><time>2026-05-01T15:24:30Z</time></trkpt><trkpt lat="42.713072457068805" lon="12.610532323340985"><ele>456.0</ele><time>2026-05-01T15:24:31Z</time></trkpt><trkpt lat="42.713028926499085" lon="12.610669101459274"><ele>456.0</ele><time>2026-05-01T15:24:32Z</time></trkpt><trkpt lat="42.712960778934004" lon="12.610784184597224"><ele>456.0</ele><time>2026-05-01T15:24:33Z</time></trkpt><trkpt lat="42.712870571761705" lon="12.610871535884066"><ele>456.0</ele><time>2026-05-01T15:24:34Z</time></trkpt><trkpt lat="42.71277730989854" lon="12.610938934018197"><ele>456.0</ele><time>2026-05-01T15:24:35Z</time></trkpt><trkpt lat="42.71268288519586" lon="12.611005534431456"><ele>460.5</ele><time>2026-05-01T15:24:36Z</time></trkpt><trkpt lat="42.712603120565646" lon="12.611112110407884"><ele>465.0</ele><time>2026-05-01T15:24:37Z</time></trkpt><trkpt lat="42.712518756362215" lon="12.611221487317483"><ele>469.5</ele><time>2026-05-01T15:24:38Z</time></trkpt><trkpt lat="42.71247293439417" lon="12.611389129793656"><ele>474.0</ele><time>2026-05-01T15:24:39Z</time></trkpt><trkpt lat="42.712420457354334" lon="12.611544574776836"><ele>474.0</ele><time>2026-05-01T15:24:40Z</time></trkpt><trkpt lat="42.71237106592471" lon="12.611685951751225"><ele>474.0</ele><time>2026-05-01T15:24:41Z</time></trkpt><trkpt lat="42.71231817916333" lon="12.61182343974874"><ele>474.0</ele><time>2026-05-01T15:24:42Z</time></trkpt><trkpt lat="42.71226219056924" lon="12.611956577164884"><ele>474.0</ele><time>2026-05-01T15:24:43Z</time></trkpt><trkpt lat="42.712196997361815" lon="12.612076893670462"><ele>475.5</ele><time>2026-05-01T15:24:44Z</time></trkpt><trkpt lat="42.712122156344215" lon="12.612179663059463"><ele>477.0</ele><time>2026-05-01T15:24:45Z</time></trkpt><trkpt lat="42.71202758690351" lon="12.612283265669832"><ele>478.5</ele><time>2026-05-01T15:24:46Z</time></trkpt><trkpt lat="42.71192158469612" lon="12.612352374761446"><ele>480.0</ele><time>2026-05-01T15:24:47Z</time></trkpt><trkpt lat="42.711822609410916" lon="12.61242181484483"><ele>480.0</ele><time>2026-05-01T15:24:48Z</time></trkpt><trkpt lat="42.711719049730085" lon="12.612473284315973"><ele>480.0</ele><time>2026-05-01T15:24:49Z</time></trkpt><trkpt lat="42.71162168041283" lon="12.612502912917437"><ele>480.0</ele><time>2026-05-01T15:24:50Z</time></trkpt><trkpt lat="42.71151262659409" lon="12.612506298753285"><ele>480.0</ele><time>2026-05-01T15:24:51Z</time></trkpt><trkpt lat="42.711380956869824" lon="12.612483367712862"><ele>480.0</ele><time>2026-05-01T15:24:52Z</time></trkpt><trkpt lat="42.711249494725045" lon="12.612348552602839"><ele>480.0</ele><time>2026-05-01T15:24:54Z</time></trkpt><trkpt lat="42.71118425352344" lon="12.612252716450815"><ele>480.0</ele><time>2026-05-01T15:24:55Z</time></trkpt><trkpt lat="42.71114556150763" lon="12.612127172033828"><ele>480.0</ele><time>2026-05-01T15:24:56Z</time></trkpt><trkpt lat="42.7111196817393" lon="12.611989049779169"><ele>481.4</ele><time>2026-05-01T15:24:57Z</time></trkpt><trkpt lat="42.71107663915878" lon="12.611871736488697"><ele>482.8</ele><time>2026-05-01T15:24:58Z</time></trkpt><trkpt lat="42.71104365521988" lon="12.611752677270267"><ele>484.20000000000005</ele><time>2026-05-01T15:24:59Z</time></trkpt><trkpt lat="42.710979457260045" lon="12.611660130735018"><ele>485.6</ele><time>2026-05-01T15:25:00Z</time></trkpt><trkpt lat="42.71090176670617" lon="12.61158870280757"><ele>487.0</ele><time>2026-05-01T15:25:01Z</time></trkpt><trkpt lat="42.71081533972358" lon="12.611537385229243"><ele>487.0</ele><time>2026-05-01T15:25:02Z</time></trkpt><trkpt lat="42.71072545240711" lon="12.611487260686694"><ele>487.0</ele><time>2026-05-01T15:25:03Z</time></trkpt><trkpt lat="42.71062258408186" lon="12.611431204325823"><ele>487.0</ele><time>2026-05-01T15:25:04Z</time></trkpt><trkpt lat="42.71050896128978" lon="12.611367520480902"><ele>487.0</ele><time>2026-05-01T15:25:05Z</time></trkpt><trkpt lat="42.710393931234826" lon="12.611305301766"><ele>487.0</ele><time>2026-05-01T15:25:06Z</time></trkpt><trkpt lat="42.71028110639077" lon="12.611238699461058"><ele>487.0</ele><time>2026-05-01T15:25:07Z</time></trkpt><trkpt lat="42.7101654487778" lon="12.61117114768603"><ele>487.0</ele><time>2026-05-01T15:25:08Z</time></trkpt><trkpt lat="42.71004482097899" lon="12.611106149423655"><ele>487.0</ele><time>2026-05-01T15:25:09Z</time></trkpt><trkpt lat="42.709921352992694" lon="12.611058101390393"><ele>488.5</ele><time>2026-05-01T15:25:10Z</time></trkpt><trkpt lat="42.7098012589388" lon="12.611002780031049"><ele>490.0</ele><time>2026-05-01T15:25:11Z</time></trkpt><trkpt lat="42.70968177704149" lon="12.61097075997097"><ele>491.5</ele><time>2026-05-01T15:25:12Z</time></trkpt><trkpt lat="42.709569280010705" lon="12.610949213329357"><ele>493.0</ele><time>2026-05-01T15:25:13Z</time></trkpt><trkpt lat="42.70948094435985" lon="12.610925808254652"><ele>495.4</ele><time>2026-05-01T15:25:14Z</time></trkpt><trkpt lat="42.70939820241113" lon="12.61090428862311"><ele>497.79999999999995</ele><time>2026-05-01T15:25:15Z</time></trkpt><trkpt lat="42.70929890389174" lon="12.610878648714777"><ele>500.2</ele><time>2026-05-01T15:25:16Z</time></trkpt><trkpt lat="42.70918661129519" lon="12.610852423737155"><ele>502.6</ele><time>2026-05-01T15:25:17Z</time></trkpt><trkpt lat="42.70907168613619" lon="12.610826878173727"><ele>505.0</ele><time>2026-05-01T15:25:18Z</time></trkpt><trkpt lat="42.70894885623239" lon="12.610786747692373"><ele>505.0</ele><time>2026-05-01T15:25:18.999Z</time></trkpt><trkpt lat="42.70882267166025" lon="12.61073726871795"><ele>505.0</ele><time>2026-05-01T15:25:19.999Z</time></trkpt><trkpt lat="42.708694866186676" lon="12.6106592960561"><ele>505.0</ele><time>2026-05-01T15:25:20.999Z</time></trkpt><trkpt lat="42.70856129331736" lon="12.610558076474632"><ele>505.0</ele><time>2026-05-01T15:25:21.999Z</time></trkpt><trkpt lat="42.708450776190226" lon="12.610445871591148"><ele>507.25</ele><time>2026-05-01T15:25:22.999Z</time></trkpt><trkpt lat="42.70834836429417" lon="12.610323421499398"><ele>509.5</ele><time>2026-05-01T15:25:23.999Z</time></trkpt><trkpt lat="42.708249235785786" lon="12.610191712296857"><ele>511.75</ele><time>2026-05-01T15:25:24.999Z</time></trkpt><trkpt lat="42.708159232233065" lon="12.610058216283962"><ele>514.0</ele><time>2026-05-01T15:25:25.999Z</time></trkpt><trkpt lat="42.708080539395844" lon="12.609936537091663"><ele>514.0</ele><time>2026-05-01T15:25:27Z</time></trkpt><trkpt lat="42.70800487691919" lon="12.609836195699875"><ele>514.0</ele><time>2026-05-01T15:25:28Z</time></trkpt><trkpt lat="42.70792294255748" lon="12.60975605200282"><ele>514.0</ele><time>2026-05-01T15:25:29Z</time></trkpt><trkpt lat="42.7078651112766" lon="12.609650347426566"><ele>514.0</ele><time>2026-05-01T15:25:30Z</time></trkpt><trkpt lat="42.70775132238825" lon="12.60963077097983"><ele>514.0</ele><time>2026-05-01T15:25:31Z</time></trkpt><trkpt lat="42.70767764157304" lon="12.609572556503602"><ele>515.4</ele><time>2026-05-01T15:25:32Z</time></trkpt><trkpt lat="42.70761113394817" lon="12.609521421856376"><ele>516.8</ele><time>2026-05-01T15:25:33Z</time></trkpt><trkpt lat="42.707522029398774" lon="12.609432819889244"><ele>518.2</ele><time>2026-05-01T15:25:35Z</time></trkpt><trkpt lat="42.7074478380286" lon="12.609407974962728"><ele>519.6</ele><time>2026-05-01T15:25:37Z</time></trkpt><trkpt lat="42.70736190908403" lon="12.609412190444209"><ele>521.0</ele><time>2026-05-01T15:25:39Z</time></trkpt><trkpt lat="42.707242843981206" lon="12.609352220284734"><ele>521.2</ele><time>2026-05-01T15:25:41Z</time></trkpt><trkpt lat="42.70716446702029" lon="12.609316934226758"><ele>521.4000000000001</ele><time>2026-05-01T15:25:42Z</time></trkpt><trkpt lat="42.707082203452664" lon="12.609274355803404"><ele>521.6</ele><time>2026-05-01T15:25:43Z</time></trkpt><trkpt lat="42.70699792239382" lon="12.609231080135816"><ele>521.8000000000001</ele><time>2026-05-01T15:25:44Z</time></trkpt><trkpt lat="42.706911428799856" lon="12.609179485792188"><ele>522.0</ele><time>2026-05-01T15:25:45Z</time></trkpt><trkpt lat="42.706823294371105" lon="12.60912026349712"><ele>520.8000000000001</ele><time>2026-05-01T15:25:46Z</time></trkpt><trkpt lat="42.70674110300444" lon="12.60906300884438"><ele>519.6</ele><time>2026-05-01T15:25:47Z</time></trkpt><trkpt lat="42.706650533272445" lon="12.608994995519733"><ele>518.4000000000001</ele><time>2026-05-01T15:25:48Z</time></trkpt><trkpt lat="42.706553603287475" lon="12.608912326546106"><ele>517.2</ele><time>2026-05-01T15:25:49Z</time></trkpt><trkpt lat="42.706467115849684" lon="12.608824854046176"><ele>516.0</ele><time>2026-05-01T15:25:50Z</time></trkpt><trkpt lat="42.706369399392685" lon="12.608728100833009"><ele>515.5</ele><time>2026-05-01T15:25:51Z</time></trkpt><trkpt lat="42.70627062222808" lon="12.608641819587604"><ele>515.0</ele><time>2026-05-01T15:25:52Z</time></trkpt><trkpt lat="42.70617173795244" lon="12.608553521036958"><ele>514.5</ele><time>2026-05-01T15:25:53Z</time></trkpt><trkpt lat="42.70607885803072" lon="12.608463001161178"><ele>514.0</ele><time>2026-05-01T15:25:54Z</time></trkpt><trkpt lat="42.705998825125135" lon="12.608378910755553"><ele>514.0</ele><time>2026-05-01T15:25:55Z</time></trkpt><trkpt lat="42.7059218878501" lon="12.608316986631676"><ele>514.0</ele><time>2026-05-01T15:25:56Z</time></trkpt><trkpt lat="42.705822277842664" lon="12.608267540726892"><ele>514.0</ele><time>2026-05-01T15:25:57Z</time></trkpt><trkpt lat="42.70570685563946" lon="12.608237973044899"><ele>514.0</ele><time>2026-05-01T15:25:58Z</time></trkpt><trkpt lat="42.70560155966761" lon="12.608215349872747"><ele>514.0</ele><time>2026-05-01T15:25:59Z</time></trkpt><trkpt lat="42.705509090865654" lon="12.608184109876417"><ele>514.0</ele><time>2026-05-01T15:26:00Z</time></trkpt><trkpt lat="42.70540504509769" lon="12.608131337929159"><ele>514.0</ele><time>2026-05-01T15:26:01Z</time></trkpt><trkpt lat="42.70530811699869" lon="12.608062432904548"><ele>514.0</ele><time>2026-05-01T15:26:02Z</time></trkpt><trkpt lat="42.70520810803977" lon="12.607977173591058"><ele>514.0</ele><time>2026-05-01T15:26:03Z</time></trkpt><trkpt lat="42.70512226143982" lon="12.607885022566391"><ele>514.0</ele><time>2026-05-01T15:26:04Z</time></trkpt><trkpt lat="42.70504155888115" lon="12.607792937980511"><ele>515.75</ele><time>2026-05-01T15:26:05Z</time></trkpt><trkpt lat="42.70493165547705" lon="12.607683543349614"><ele>517.5</ele><time>2026-05-01T15:26:06Z</time></trkpt><trkpt lat="42.704799949676115" lon="12.607555343865176"><ele>519.25</ele><time>2026-05-01T15:26:07Z</time></trkpt><trkpt lat="42.70474399996774" lon="12.607489227956279"><ele>521.0</ele><time>2026-05-01T15:26:09Z</time></trkpt><trkpt lat="42.704683122632936" lon="12.607408733249933"><ele>521.0</ele><time>2026-05-01T15:26:10Z</time></trkpt><trkpt lat="42.70462038120781" lon="12.607321765019506"><ele>521.0</ele><time>2026-05-01T15:26:11Z</time></trkpt><trkpt lat="42.70455717678052" lon="12.607243639299154"><ele>521.0</ele><time>2026-05-01T15:26:12Z</time></trkpt><trkpt lat="42.704504127101245" lon="12.607172171860602"><ele>521.0</ele><time>2026-05-01T15:26:13Z</time></trkpt><trkpt lat="42.70440342822782" lon="12.60711269722608"><ele>521.0</ele><time>2026-05-01T15:26:15Z</time></trkpt><trkpt lat="42.704299040937215" lon="12.60711795992982"><ele>520.1666666666666</ele><time>2026-05-01T15:26:17Z</time></trkpt><trkpt lat="42.70418551586878" lon="12.607101266300948"><ele>519.3333333333333</ele><time>2026-05-01T15:26:19Z</time></trkpt><trkpt lat="42.704109628345506" lon="12.60707354336038"><ele>518.5</ele><time>2026-05-01T15:26:21Z</time></trkpt><trkpt lat="42.70404725332706" lon="12.607126678454645"><ele>517.6666666666666</ele><time>2026-05-01T15:26:23Z</time></trkpt><trkpt lat="42.704068662875905" lon="12.607226093650384"><ele>516.8333333333334</ele><time>2026-05-01T15:26:25Z</time></trkpt><trkpt lat="42.704143842897665" lon="12.607227803540573"><ele>516.0</ele><time>2026-05-01T15:26:27Z</time></trkpt><trkpt lat="42.70422069030821" lon="12.607227492151397"><ele>516.0</ele><time>2026-05-01T15:26:32Z</time></trkpt><trkpt lat="42.704262578200556" lon="12.607131222752605"><ele>516.0</ele><time>2026-05-01T15:27:54Z</time></trkpt><trkpt lat="42.70435530092255" lon="12.607114712778943"><ele>516.0</ele><time>2026-05-01T15:27:56Z</time></trkpt><trkpt lat="42.70447338726819" lon="12.607155172560432"><ele>516.0</ele><time>2026-05-01T15:27:58Z</time></trkpt><trkpt lat="42.70457753132766" lon="12.607246531019397"><ele>516.0</ele><time>2026-05-01T15:28:00Z</time></trkpt><trkpt lat="42.70462774619199" lon="12.607319091314652"><ele>516.8333333333334</ele><time>2026-05-01T15:28:01Z</time></trkpt><trkpt lat="42.70467060129727" lon="12.607383240005007"><ele>517.6666666666666</ele><time>2026-05-01T15:28:02Z</time></trkpt><trkpt lat="42.7047179756421" lon="12.60745094541096"><ele>518.5</ele><time>2026-05-01T15:28:03Z</time></trkpt><trkpt lat="42.70476868627037" lon="12.607520575873371"><ele>519.3333333333333</ele><time>2026-05-01T15:28:04Z</time></trkpt><trkpt lat="42.70485431761316" lon="12.607618049921019"><ele>520.1666666666666</ele><time>2026-05-01T15:28:06Z</time></trkpt><trkpt lat="42.70495290334128" lon="12.607716976681616"><ele>521.0</ele><time>2026-05-01T15:28:08Z</time></trkpt><trkpt lat="42.70504694419402" lon="12.607799649497608"><ele>519.8333333333333</ele><time>2026-05-01T15:28:10Z</time></trkpt><trkpt lat="42.70514242723262" lon="12.607895520500021"><ele>518.6666666666666</ele><time>2026-05-01T15:28:12Z</time></trkpt><trkpt lat="42.70520228655203" lon="12.607955760763984"><ele>517.5</ele><time>2026-05-01T15:28:13Z</time></trkpt><trkpt lat="42.70526884633163" lon="12.60801393493691"><ele>516.3333333333334</ele><time>2026-05-01T15:28:14Z</time></trkpt><trkpt lat="42.70533146577495" lon="12.60806713955021"><ele>515.1666666666667</ele><time>2026-05-01T15:28:15Z</time></trkpt><trkpt lat="42.70539318929972" lon="12.60811335785772"><ele>514.0</ele><time>2026-05-01T15:28:16Z</time></trkpt><trkpt lat="42.70545729166305" lon="12.608147295421468"><ele>514.0</ele><time>2026-05-01T15:28:17Z</time></trkpt><trkpt lat="42.70552274425288" lon="12.608175961971781"><ele>514.0</ele><time>2026-05-01T15:28:18Z</time></trkpt><trkpt lat="42.70559561915103" lon="12.60820321611455"><ele>514.0</ele><time>2026-05-01T15:28:19Z</time></trkpt><trkpt lat="42.705682770410355" lon="12.608232722745937"><ele>514.0</ele><time>2026-05-01T15:28:20Z</time></trkpt><trkpt lat="42.705759429309055" lon="12.608255586533643"><ele>514.0</ele><time>2026-05-01T15:28:21Z</time></trkpt><trkpt lat="42.70583812014238" lon="12.6082771821231"><ele>514.0</ele><time>2026-05-01T15:28:22Z</time></trkpt><trkpt lat="42.70595794729891" lon="12.608330092988385"><ele>514.0</ele><time>2026-05-01T15:28:24Z</time></trkpt><trkpt lat="42.706071014424964" lon="12.608405592166863"><ele>514.0</ele><time>2026-05-01T15:28:26Z</time></trkpt><trkpt lat="42.706142099423744" lon="12.608470162007373"><ele>514.0</ele><time>2026-05-01T15:28:27Z</time></trkpt><trkpt lat="42.70622551380696" lon="12.60855043016965"><ele>514.0</ele><time>2026-05-01T15:28:28Z</time></trkpt><trkpt lat="42.70631946846845" lon="12.608642412814762"><ele>514.0</ele><time>2026-05-01T15:28:29Z</time></trkpt><trkpt lat="42.706426244446526" lon="12.608747914276709"><ele>514.5</ele><time>2026-05-01T15:28:30Z</time></trkpt><trkpt lat="42.7065394441862" lon="12.608860172586137"><ele>515.0</ele><time>2026-05-01T15:28:31Z</time></trkpt><trkpt lat="42.7066537515195" lon="12.608965016321907"><ele>515.5</ele><time>2026-05-01T15:28:32Z</time></trkpt><trkpt lat="42.70677025262683" lon="12.609066208135971"><ele>516.0</ele><time>2026-05-01T15:28:33Z</time></trkpt><trkpt lat="42.70687449050436" lon="12.609147955510963"><ele>517.5</ele><time>2026-05-01T15:28:34Z</time></trkpt><trkpt lat="42.706975083271665" lon="12.609212717284763"><ele>519.0</ele><time>2026-05-01T15:28:35Z</time></trkpt><trkpt lat="42.707086877723256" lon="12.609271777816552"><ele>520.5</ele><time>2026-05-01T15:28:36Z</time></trkpt><trkpt lat="42.707198117973476" lon="12.60932770986658"><ele>522.0</ele><time>2026-05-01T15:28:37Z</time></trkpt><trkpt lat="42.70730403970529" lon="12.609376684636121"><ele>522.0</ele><time>2026-05-01T15:28:38Z</time></trkpt><trkpt lat="42.70740498176889" lon="12.609416252918084"><ele>522.0</ele><time>2026-05-01T15:28:39Z</time></trkpt><trkpt lat="42.70748503109363" lon="12.609450560052098"><ele>522.0</ele><time>2026-05-01T15:28:40Z</time></trkpt><trkpt lat="42.70759722399691" lon="12.609523644231096"><ele>522.0</ele><time>2026-05-01T15:28:42Z</time></trkpt><trkpt lat="42.707670663841995" lon="12.609587252369641"><ele>522.0</ele><time>2026-05-01T15:28:43Z</time></trkpt><trkpt lat="42.70777016367219" lon="12.609669101410272"><ele>520.0</ele><time>2026-05-01T15:28:44Z</time></trkpt><trkpt lat="42.70786570216627" lon="12.609743031562154"><ele>518.0</ele><time>2026-05-01T15:28:45Z</time></trkpt><trkpt lat="42.7079584943486" lon="12.609825400689433"><ele>516.0</ele><time>2026-05-01T15:28:46Z</time></trkpt><trkpt lat="42.70805060275199" lon="12.609927426233329"><ele>514.0</ele><time>2026-05-01T15:28:47Z</time></trkpt><trkpt lat="42.70812322920657" lon="12.610057879189679"><ele>514.0</ele><time>2026-05-01T15:28:48Z</time></trkpt><trkpt lat="42.708223032250686" lon="12.610167212572533"><ele>514.0</ele><time>2026-05-01T15:28:49Z</time></trkpt><trkpt lat="42.70829764788653" lon="12.610301343466134"><ele>514.0</ele><time>2026-05-01T15:28:50Z</time></trkpt><trkpt lat="42.708388740651316" lon="12.610415399790384"><ele>514.0</ele><time>2026-05-01T15:28:51Z</time></trkpt><trkpt lat="42.70849738863092" lon="12.610498441441006"><ele>511.75</ele><time>2026-05-01T15:28:52Z</time></trkpt><trkpt lat="42.70860246080121" lon="12.610590719048183"><ele>509.5</ele><time>2026-05-01T15:28:53Z</time></trkpt><trkpt lat="42.70870797808824" lon="12.61068836618144"><ele>507.25</ele><time>2026-05-01T15:28:54Z</time></trkpt><trkpt lat="42.70882574713547" lon="12.610756122397406"><ele>505.0</ele><time>2026-05-01T15:28:55Z</time></trkpt><trkpt lat="42.70894897825255" lon="12.610810048147803"><ele>505.0</ele><time>2026-05-01T15:28:56Z</time></trkpt><trkpt lat="42.70906835846135" lon="12.610849813194942"><ele>505.0</ele><time>2026-05-01T15:28:57Z</time></trkpt><trkpt lat="42.709176477245045" lon="12.610880630709362"><ele>505.0</ele><time>2026-05-01T15:28:58Z</time></trkpt><trkpt lat="42.70928061040708" lon="12.610910356681975"><ele>505.0</ele><time>2026-05-01T15:28:59Z</time></trkpt><trkpt lat="42.70940195704517" lon="12.61094256997155"><ele>502.0</ele><time>2026-05-01T15:29:00Z</time></trkpt><trkpt lat="42.70951710513407" lon="12.610963575080184"><ele>499.0</ele><time>2026-05-01T15:29:01Z</time></trkpt><trkpt lat="42.709636742525426" lon="12.611021507880537"><ele>496.0</ele><time>2026-05-01T15:29:02Z</time></trkpt><trkpt lat="42.709447570653666" lon="12.611013507550961"><ele>493.0</ele><time>2026-05-01T15:29:03Z</time></trkpt><trkpt lat="42.709506196619024" lon="12.611066030871164"><ele>493.4</ele><time>2026-05-01T15:29:08Z</time></trkpt><trkpt lat="42.709498698668895" lon="12.611264053427076"><ele>493.79999999999995</ele><time>2026-05-01T15:32:51.46Z</time></trkpt><trkpt lat="42.709430007188516" lon="12.611225883421472"><ele>494.2</ele><time>2026-05-01T15:50:09Z</time></trkpt><trkpt lat="42.709346691093586" lon="12.611243300798495"><ele>494.6</ele><time>2026-05-01T15:50:12Z</time></trkpt><trkpt lat="42.709257163000785" lon="12.611239113324972"><ele>495.0</ele><time>2026-05-01T15:50:14Z</time></trkpt><trkpt lat="42.709192814905656" lon="12.611199412201707"><ele>497.0</ele><time>2026-05-01T15:50:16Z</time></trkpt><trkpt lat="42.709097290005275" lon="12.611159046678102"><ele>499.0</ele><time>2026-05-01T15:50:18Z</time></trkpt><trkpt lat="42.70897368785772" lon="12.61109712218329"><ele>501.0</ele><time>2026-05-01T15:50:20Z</time></trkpt><trkpt lat="42.708881995919846" lon="12.611056026437097"><ele>503.0</ele><time>2026-05-01T15:50:22Z</time></trkpt><trkpt lat="42.70901923023278" lon="12.611123184976664"><ele>503.0</ele><time>2026-05-01T15:50:23Z</time></trkpt><trkpt lat="42.70902849170352" lon="12.61128095841255"><ele>502.99999999999994</ele><time>2026-05-01T15:51:03.001Z</time></trkpt><trkpt lat="42.70895769210186" lon="12.611289141985138"><ele>502.99999999999994</ele><time>2026-05-01T15:51:13Z</time></trkpt><trkpt lat="42.70890426907795" lon="12.611229835002925"><ele>503.0</ele><time>2026-05-01T15:51:15Z</time></trkpt><trkpt lat="42.70881091510786" lon="12.61117614997726"><ele>503.0</ele><time>2026-05-01T15:51:17Z</time></trkpt><trkpt lat="42.70873037044383" lon="12.611062429436528"><ele>503.0</ele><time>2026-05-01T15:51:20Z</time></trkpt><trkpt lat="42.70904355088783" lon="12.611097765937432"><ele>503.0</ele><time>2026-05-01T15:51:24Z</time></trkpt><trkpt lat="42.70934981453164" lon="12.611231330911325"><ele>503.0</ele><time>2026-05-01T15:51:28Z</time></trkpt><trkpt lat="42.70941825805842" lon="12.611252142502988"><ele>503.00000000000006</ele><time>2026-05-01T15:51:30Z</time></trkpt><trkpt lat="42.70935152696908" lon="12.611252427437341"><ele>503.0</ele><time>2026-05-01T15:51:48.001Z</time></trkpt><trkpt lat="42.70928819098046" lon="12.611221404853355"><ele>503.0</ele><time>2026-05-01T15:51:51.001Z</time></trkpt><trkpt lat="42.709213770464515" lon="12.611187351449443"><ele>503.00000000000006</ele><time>2026-05-01T15:51:55.001Z</time></trkpt><trkpt lat="42.70914977135272" lon="12.611129943137021"><ele>503.0</ele><time>2026-05-01T15:51:56.001Z</time></trkpt><trkpt lat="42.709083259996355" lon="12.611105630263166"><ele>503.0</ele><time>2026-05-01T15:51:58.001Z</time></trkpt><trkpt lat="42.70930625090002" lon="12.61111385923349"><ele>503.0</ele><time>2026-05-01T15:52:54.001Z</time></trkpt><trkpt lat="42.70953965147311" lon="12.611221757655818"><ele>503.0</ele><time>2026-05-01T15:52:55.001Z</time></trkpt><trkpt lat="42.70946060832965" lon="12.611245665890145"><ele>503.0</ele><time>2026-05-01T15:52:58.001Z</time></trkpt><trkpt lat="42.709398594361076" lon="12.61117737487686"><ele>503.0</ele><time>2026-05-01T15:54:24.001Z</time></trkpt><trkpt lat="42.70939770340382" lon="12.611091388214293"><ele>501.0</ele><time>2026-05-01T15:54:26.001Z</time></trkpt><trkpt lat="42.70945282103411" lon="12.611007292766375"><ele>498.99999999999994</ele><time>2026-05-01T15:54:29.001Z</time></trkpt><trkpt lat="42.70951897653427" lon="12.610964333160398"><ele>496.99999999999994</ele><time>2026-05-01T15:54:32.001Z</time></trkpt><trkpt lat="42.70965201163489" lon="12.611001158277473"><ele>495.0</ele><time>2026-05-01T15:54:34.002Z</time></trkpt><trkpt lat="42.70974121868157" lon="12.611034018923608"><ele>493.0</ele><time>2026-05-01T15:54:35.002Z</time></trkpt><trkpt lat="42.70983662371009" lon="12.611064352510642"><ele>493.0</ele><time>2026-05-01T15:54:36.002Z</time></trkpt><trkpt lat="42.70994095412512" lon="12.61110083361787"><ele>493.0</ele><time>2026-05-01T15:54:37.002Z</time></trkpt><trkpt lat="42.71004493600597" lon="12.611147104253853"><ele>493.0</ele><time>2026-05-01T15:54:38.002Z</time></trkpt><trkpt lat="42.71015668109159" lon="12.611199352027704"><ele>493.0</ele><time>2026-05-01T15:54:39.002Z</time></trkpt><trkpt lat="42.71027226651462" lon="12.61125885942813"><ele>491.5</ele><time>2026-05-01T15:54:40.002Z</time></trkpt><trkpt lat="42.710388792380165" lon="12.611327760602714"><ele>490.0</ele><time>2026-05-01T15:54:41.002Z</time></trkpt><trkpt lat="42.710507280978604" lon="12.611399639409875"><ele>488.5</ele><time>2026-05-01T15:54:42.002Z</time></trkpt><trkpt lat="42.7106232773356" lon="12.611465841287098"><ele>487.0</ele><time>2026-05-01T15:54:43.002Z</time></trkpt><trkpt lat="42.71073042251205" lon="12.611531683670611"><ele>487.0</ele><time>2026-05-01T15:54:44.002Z</time></trkpt><trkpt lat="42.710830761118494" lon="12.61159213267594"><ele>487.00000000000006</ele><time>2026-05-01T15:54:45.002Z</time></trkpt><trkpt lat="42.710927277007535" lon="12.611657660491623"><ele>487.00000000000006</ele><time>2026-05-01T15:54:46.002Z</time></trkpt><trkpt lat="42.711010962082504" lon="12.611751995571014"><ele>487.0</ele><time>2026-05-01T15:54:47.002Z</time></trkpt><trkpt lat="42.7110762438689" lon="12.611879831057328"><ele>487.0</ele><time>2026-05-01T15:54:48.002Z</time></trkpt><trkpt lat="42.71112104587569" lon="12.612028293395138"><ele>485.6</ele><time>2026-05-01T15:54:49.002Z</time></trkpt><trkpt lat="42.711148983091405" lon="12.612178541426651"><ele>484.20000000000005</ele><time>2026-05-01T15:54:50.002Z</time></trkpt><trkpt lat="42.71118526456015" lon="12.612310321691094"><ele>482.8</ele><time>2026-05-01T15:54:51.002Z</time></trkpt><trkpt lat="42.71125582025376" lon="12.612429373758498"><ele>481.4</ele><time>2026-05-01T15:54:52.002Z</time></trkpt><trkpt lat="42.71135489595241" lon="12.612507104883788"><ele>480.0</ele><time>2026-05-01T15:54:53.002Z</time></trkpt><trkpt lat="42.71146842821325" lon="12.612557501859948"><ele>480.0</ele><time>2026-05-01T15:54:54.002Z</time></trkpt><trkpt lat="42.711603153428584" lon="12.612561716664695"><ele>480.0</ele><time>2026-05-01T15:54:55.002Z</time></trkpt><trkpt lat="42.71173878154381" lon="12.612526749847405"><ele>480.0</ele><time>2026-05-01T15:54:56.002Z</time></trkpt><trkpt lat="42.711867864312715" lon="12.61246641117251"><ele>480.0</ele><time>2026-05-01T15:54:57.002Z</time></trkpt><trkpt lat="42.71199384600991" lon="12.612360500924199"><ele>478.5</ele><time>2026-05-01T15:54:58.002Z</time></trkpt><trkpt lat="42.712112673978446" lon="12.612239103215666"><ele>477.0</ele><time>2026-05-01T15:54:59.002Z</time></trkpt><trkpt lat="42.71221568897568" lon="12.612094344291815"><ele>475.5</ele><time>2026-05-01T15:55:00.002Z</time></trkpt><trkpt lat="42.71230196463728" lon="12.611932855354613"><ele>474.0</ele><time>2026-05-01T15:55:01.002Z</time></trkpt><trkpt lat="42.712374695961635" lon="12.611756358180363"><ele>474.0</ele><time>2026-05-01T15:55:02.002Z</time></trkpt><trkpt lat="42.71243309950386" lon="12.61157577153582"><ele>474.0</ele><time>2026-05-01T15:55:03.002Z</time></trkpt><trkpt lat="42.71249215042344" lon="12.611394773548568"><ele>474.0</ele><time>2026-05-01T15:55:04.002Z</time></trkpt><trkpt lat="42.712559564174114" lon="12.61122537973691"><ele>474.0</ele><time>2026-05-01T15:55:05.002Z</time></trkpt><trkpt lat="42.71264158723657" lon="12.611086560124917"><ele>469.5</ele><time>2026-05-01T15:55:06.002Z</time></trkpt><trkpt lat="42.71275414400102" lon="12.611001959057333"><ele>465.0</ele><time>2026-05-01T15:55:07.002Z</time></trkpt><trkpt lat="42.712866882777135" lon="12.61090083956723"><ele>460.5</ele><time>2026-05-01T15:55:08.002Z</time></trkpt><trkpt lat="42.71298307284704" lon="12.610820632388368"><ele>456.0</ele><time>2026-05-01T15:55:09.002Z</time></trkpt><trkpt lat="42.71306743504889" lon="12.61070302458766"><ele>456.0</ele><time>2026-05-01T15:55:10.002Z</time></trkpt><trkpt lat="42.71312123041554" lon="12.610527943130927"><ele>456.0</ele><time>2026-05-01T15:55:11.002Z</time></trkpt><trkpt lat="42.71315367408386" lon="12.610320798412657"><ele>456.0</ele><time>2026-05-01T15:55:12.002Z</time></trkpt><trkpt lat="42.713176211813035" lon="12.610111265567031"><ele>456.25</ele><time>2026-05-01T15:55:13.002Z</time></trkpt><trkpt lat="42.713206681734526" lon="12.609923784280582"><ele>456.5</ele><time>2026-05-01T15:55:14.002Z</time></trkpt><trkpt lat="42.71326786922395" lon="12.609747783444691"><ele>456.75</ele><time>2026-05-01T15:55:15.002Z</time></trkpt><trkpt lat="42.713346889316746" lon="12.60958109335449"><ele>457.0</ele><time>2026-05-01T15:55:16.002Z</time></trkpt><trkpt lat="42.71344270798458" lon="12.60941545488769"><ele>457.0</ele><time>2026-05-01T15:55:17.002Z</time></trkpt><trkpt lat="42.71355297183228" lon="12.609245479370559"><ele>457.0</ele><time>2026-05-01T15:55:18.002Z</time></trkpt><trkpt lat="42.71367264340787" lon="12.609079606297053"><ele>457.0</ele><time>2026-05-01T15:55:19.002Z</time></trkpt><trkpt lat="42.713790110380295" lon="12.608922923899714"><ele>456.0</ele><time>2026-05-01T15:55:20.002Z</time></trkpt><trkpt lat="42.71389736317895" lon="12.608762814392112"><ele>455.0</ele><time>2026-05-01T15:55:21.002Z</time></trkpt><trkpt lat="42.71399526364639" lon="12.60861691039486"><ele>454.0</ele><time>2026-05-01T15:55:22.002Z</time></trkpt><trkpt lat="42.71407961478344" lon="12.608492175940677"><ele>453.0</ele><time>2026-05-01T15:55:23.002Z</time></trkpt><trkpt lat="42.71418100454659" lon="12.608418069025767"><ele>455.25</ele><time>2026-05-01T15:55:24.002Z</time></trkpt><trkpt lat="42.71429960864908" lon="12.608438697089987"><ele>457.5</ele><time>2026-05-01T15:55:25.002Z</time></trkpt><trkpt lat="42.71441046311083" lon="12.608496863045765"><ele>459.75</ele><time>2026-05-01T15:55:26.002Z</time></trkpt><trkpt lat="42.71449446321697" lon="12.608627282754767"><ele>462.0</ele><time>2026-05-01T15:55:27.002Z</time></trkpt><trkpt lat="42.71455881883212" lon="12.608810646038108"><ele>462.0</ele><time>2026-05-01T15:55:28.002Z</time></trkpt><trkpt lat="42.71465236304298" lon="12.609027809430115"><ele>462.0</ele><time>2026-05-01T15:55:29.002Z</time></trkpt><trkpt lat="42.714724461344346" lon="12.609246244162525"><ele>462.0</ele><time>2026-05-01T15:55:30.002Z</time></trkpt><trkpt lat="42.71480249855285" lon="12.60947039402176"><ele>459.33333333333337</ele><time>2026-05-01T15:55:31.002Z</time></trkpt><trkpt lat="42.714879231962925" lon="12.609688024625353"><ele>456.6666666666667</ele><time>2026-05-01T15:55:32.002Z</time></trkpt><trkpt lat="42.71494720903159" lon="12.60989813869914"><ele>454.0</ele><time>2026-05-01T15:55:33.001Z</time></trkpt><trkpt lat="42.715018217495874" lon="12.610099356961523"><ele>454.0</ele><time>2026-05-01T15:55:34.001Z</time></trkpt><trkpt lat="42.71509412579195" lon="12.610290917252774"><ele>454.0</ele><time>2026-05-01T15:55:35.001Z</time></trkpt><trkpt lat="42.715184844714386" lon="12.610474282563754"><ele>454.0</ele><time>2026-05-01T15:55:36.001Z</time></trkpt><trkpt lat="42.71529002543936" lon="12.610635474251204"><ele>455.0</ele><time>2026-05-01T15:55:37.001Z</time></trkpt><trkpt lat="42.71540964603144" lon="12.610767390694734"><ele>456.0</ele><time>2026-05-01T15:55:38.001Z</time></trkpt><trkpt lat="42.7155465830098" lon="12.610881124670627"><ele>457.0</ele><time>2026-05-01T15:55:39.001Z</time></trkpt><trkpt lat="42.71569997253719" lon="12.61096355589756"><ele>457.0</ele><time>2026-05-01T15:55:40.001Z</time></trkpt><trkpt lat="42.715860012884214" lon="12.611027564346898"><ele>457.0</ele><time>2026-05-01T15:55:41.001Z</time></trkpt><trkpt lat="42.716018597045355" lon="12.611081214074515"><ele>457.0</ele><time>2026-05-01T15:55:42.001Z</time></trkpt><trkpt lat="42.71617164965899" lon="12.611123917925863"><ele>459.5</ele><time>2026-05-01T15:55:43.001Z</time></trkpt><trkpt lat="42.71631410763509" lon="12.61117359654378"><ele>462.0</ele><time>2026-05-01T15:55:44.001Z</time></trkpt><trkpt lat="42.71644178804212" lon="12.611249287193372"><ele>464.5</ele><time>2026-05-01T15:55:45.001Z</time></trkpt><trkpt lat="42.7165426057901" lon="12.611393292163035"><ele>467.0</ele><time>2026-05-01T15:55:46.001Z</time></trkpt><trkpt lat="42.71661694008395" lon="12.611555661404443"><ele>467.0</ele><time>2026-05-01T15:55:47.001Z</time></trkpt><trkpt lat="42.71663618736903" lon="12.611753712356263"><ele>467.0</ele><time>2026-05-01T15:55:48.001Z</time></trkpt><trkpt lat="42.71665873589817" lon="12.61198867951847"><ele>467.0</ele><time>2026-05-01T15:55:49.001Z</time></trkpt><trkpt lat="42.716600892049954" lon="12.612236733888185"><ele>467.0</ele><time>2026-05-01T15:55:50.001Z</time></trkpt><trkpt lat="42.71658877482102" lon="12.612499260157616"><ele>467.0</ele><time>2026-05-01T15:55:51.001Z</time></trkpt><trkpt lat="42.71655331523653" lon="12.612747678687544"><ele>467.0</ele><time>2026-05-01T15:55:52.001Z</time></trkpt><trkpt lat="42.716523777746815" lon="12.612988558000204"><ele>466.0</ele><time>2026-05-01T15:55:53.001Z</time></trkpt><trkpt lat="42.7164979211493" lon="12.613218403108538"><ele>465.0</ele><time>2026-05-01T15:55:54.001Z</time></trkpt><trkpt lat="42.71646272679134" lon="12.613441169519906"><ele>464.0</ele><time>2026-05-01T15:55:55.001Z</time></trkpt><trkpt lat="42.71640585057984" lon="12.61365332577831"><ele>465.0</ele><time>2026-05-01T15:55:56.001Z</time></trkpt><trkpt lat="42.716333296316726" lon="12.613860110326561"><ele>466.0</ele><time>2026-05-01T15:55:57.001Z</time></trkpt><trkpt lat="42.71627134590027" lon="12.614069355395861"><ele>467.0</ele><time>2026-05-01T15:55:58.001Z</time></trkpt><trkpt lat="42.71624051865648" lon="12.614293471046947"><ele>467.3333333333333</ele><time>2026-05-01T15:55:59.001Z</time></trkpt><trkpt lat="42.71623017173869" lon="12.61452520753314"><ele>467.66666666666663</ele><time>2026-05-01T15:56:00.001Z</time></trkpt><trkpt lat="42.71622753747795" lon="12.614753522257727"><ele>468.0</ele><time>2026-05-01T15:56:01.001Z</time></trkpt><trkpt lat="42.71623208907269" lon="12.61497270644911"><ele>468.0</ele><time>2026-05-01T15:56:02.001Z</time></trkpt><trkpt lat="42.716233155559586" lon="12.615169873372336"><ele>468.0</ele><time>2026-05-01T15:56:03.001Z</time></trkpt><trkpt lat="42.71625039349224" lon="12.61534108429572"><ele>468.0</ele><time>2026-05-01T15:56:04.001Z</time></trkpt><trkpt lat="42.71630692247282" lon="12.61549615480867"><ele>468.0</ele><time>2026-05-01T15:56:05.001Z</time></trkpt><trkpt lat="42.716415959954915" lon="12.615646659926387"><ele>465.0</ele><time>2026-05-01T15:56:06.001Z</time></trkpt><trkpt lat="42.71655417604001" lon="12.61578437915066"><ele>462.0</ele><time>2026-05-01T15:56:07.001Z</time></trkpt><trkpt lat="42.716697218421295" lon="12.615915432292446"><ele>459.0</ele><time>2026-05-01T15:56:08.001Z</time></trkpt><trkpt lat="42.71682166010529" lon="12.616075020575988"><ele>458.0</ele><time>2026-05-01T15:56:09.001Z</time></trkpt><trkpt lat="42.716939315564254" lon="12.61621518628408"><ele>457.0</ele><time>2026-05-01T15:56:10.002Z</time></trkpt><trkpt lat="42.717027658614434" lon="12.616364723762185"><ele>456.0</ele><time>2026-05-01T15:56:11.002Z</time></trkpt><trkpt lat="42.71707726892498" lon="12.616538715935336"><ele>455.0</ele><time>2026-05-01T15:56:12.002Z</time></trkpt><trkpt lat="42.717086028314085" lon="12.616744883120946"><ele>455.0</ele><time>2026-05-01T15:56:13.002Z</time></trkpt><trkpt lat="42.717085136601675" lon="12.616971127786647"><ele>455.0</ele><time>2026-05-01T15:56:14.002Z</time></trkpt><trkpt lat="42.717084061957166" lon="12.61720953588462"><ele>455.0</ele><time>2026-05-01T15:56:15.002Z</time></trkpt><trkpt lat="42.71710185940416" lon="12.61741755517921"><ele>454.5</ele><time>2026-05-01T15:56:16.002Z</time></trkpt><trkpt lat="42.717139335352044" lon="12.617586259359594"><ele>454.0</ele><time>2026-05-01T15:56:17.002Z</time></trkpt><trkpt lat="42.717220893240665" lon="12.617732876762132"><ele>453.5</ele><time>2026-05-01T15:56:18.002Z</time></trkpt><trkpt lat="42.71733609371914" lon="12.61785208752822"><ele>453.0</ele><time>2026-05-01T15:56:19.002Z</time></trkpt><trkpt lat="42.71747497699795" lon="12.617934551028242"><ele>453.0</ele><time>2026-05-01T15:56:20.002Z</time></trkpt><trkpt lat="42.71762093661677" lon="12.617988857388417"><ele>453.0</ele><time>2026-05-01T15:56:21.002Z</time></trkpt><trkpt lat="42.717746645891204" lon="12.618052874890191"><ele>453.0</ele><time>2026-05-01T15:56:22.002Z</time></trkpt><trkpt lat="42.71782882266689" lon="12.61814745095615"><ele>453.0</ele><time>2026-05-01T15:56:23.001Z</time></trkpt><trkpt lat="42.7179027071659" lon="12.618261476896905"><ele>450.75</ele><time>2026-05-01T15:56:24.001Z</time></trkpt><trkpt lat="42.71792856617043" lon="12.618430318582066"><ele>448.5</ele><time>2026-05-01T15:56:25.001Z</time></trkpt><trkpt lat="42.71792430868948" lon="12.618622308809048"><ele>446.25</ele><time>2026-05-01T15:56:26.001Z</time></trkpt><trkpt lat="42.717919840094815" lon="12.618830750784738"><ele>444.0</ele><time>2026-05-01T15:56:27.001Z</time></trkpt><trkpt lat="42.71794555680176" lon="12.619032895629141"><ele>442.66666666666663</ele><time>2026-05-01T15:56:28.001Z</time></trkpt><trkpt lat="42.71801051954093" lon="12.619219253606166"><ele>441.3333333333333</ele><time>2026-05-01T15:56:29.001Z</time></trkpt><trkpt lat="42.718105441140494" lon="12.619395317254158"><ele>440.0</ele><time>2026-05-01T15:56:30.001Z</time></trkpt><trkpt lat="42.71820616666855" lon="12.619562075392158"><ele>440.0</ele><time>2026-05-01T15:56:31.001Z</time></trkpt><trkpt lat="42.71830182096918" lon="12.6197263059289"><ele>440.0</ele><time>2026-05-01T15:56:32.001Z</time></trkpt><trkpt lat="42.71839581974545" lon="12.619877701826386"><ele>440.0</ele><time>2026-05-01T15:56:33.001Z</time></trkpt><trkpt lat="42.71849000951234" lon="12.619994839080553"><ele>440.0</ele><time>2026-05-01T15:56:34.001Z</time></trkpt><trkpt lat="42.718592922729194" lon="12.620077411317173"><ele>437.4</ele><time>2026-05-01T15:56:35.001Z</time></trkpt><trkpt lat="42.71870039893812" lon="12.620126225838764"><ele>434.8</ele><time>2026-05-01T15:56:36.001Z</time></trkpt><trkpt lat="42.718790426301446" lon="12.620169444831516"><ele>432.20000000000005</ele><time>2026-05-01T15:56:37.001Z</time></trkpt><trkpt lat="42.71887181407778" lon="12.620226513594037"><ele>429.6</ele><time>2026-05-01T15:56:38.001Z</time></trkpt><trkpt lat="42.718931157425345" lon="12.62032087888882"><ele>427.0</ele><time>2026-05-01T15:56:39.001Z</time></trkpt><trkpt lat="42.71901168618669" lon="12.620392799830196"><ele>427.00000000000006</ele><time>2026-05-01T15:56:40.001Z</time></trkpt><trkpt lat="42.719074502447604" lon="12.620483936486373"><ele>427.0</ele><time>2026-05-01T15:56:41.001Z</time></trkpt><trkpt lat="42.71913452647289" lon="12.620567898163939"><ele>427.0</ele><time>2026-05-01T15:56:42.001Z</time></trkpt><trkpt lat="42.71919483365997" lon="12.620654916572557"><ele>427.0</ele><time>2026-05-01T15:56:43.001Z</time></trkpt><trkpt lat="42.7192537698735" lon="12.620739021307585"><ele>427.00000000000006</ele><time>2026-05-01T15:56:44.001Z</time></trkpt><trkpt lat="42.7193141336187" lon="12.620823595561315"><ele>427.0</ele><time>2026-05-01T15:56:45.001Z</time></trkpt><trkpt lat="42.71935484163488" lon="12.620907107351004"><ele>427.0</ele><time>2026-05-01T15:56:46.001Z</time></trkpt><trkpt lat="42.71937637026825" lon="12.621001593756123"><ele>427.0</ele><time>2026-05-01T15:56:47.001Z</time></trkpt><trkpt lat="42.719354358509754" lon="12.621138992040555"><ele>427.0</ele><time>2026-05-01T15:56:48.001Z</time></trkpt><trkpt lat="42.71935929934109" lon="12.621315046367828"><ele>427.0</ele><time>2026-05-01T15:56:49.001Z</time></trkpt><trkpt lat="42.71936509557595" lon="12.62152317587816"><ele>426.6666666666667</ele><time>2026-05-01T15:56:50.001Z</time></trkpt><trkpt lat="42.719380105797256" lon="12.621736136700822"><ele>426.33333333333337</ele><time>2026-05-01T15:56:51.001Z</time></trkpt><trkpt lat="42.71937795040505" lon="12.621942952571196"><ele>426.0</ele><time>2026-05-01T15:56:52.001Z</time></trkpt><trkpt lat="42.71938575555319" lon="12.622144635753616"><ele>427.33333333333337</ele><time>2026-05-01T15:56:53.001Z</time></trkpt><trkpt lat="42.71940033213408" lon="12.622347256827096"><ele>428.6666666666667</ele><time>2026-05-01T15:56:54.001Z</time></trkpt><trkpt lat="42.71943534434997" lon="12.622543058395454"><ele>430.0</ele><time>2026-05-01T15:56:55.001Z</time></trkpt><trkpt lat="42.719510092654936" lon="12.622727455091386"><ele>423.6666666666667</ele><time>2026-05-01T15:56:56.001Z</time></trkpt><trkpt lat="42.719619086962396" lon="12.62289718851032"><ele>417.33333333333337</ele><time>2026-05-01T15:56:57.001Z</time></trkpt><trkpt lat="42.7197378372649" lon="12.62304700773821"><ele>411.0</ele><time>2026-05-01T15:56:58.001Z</time></trkpt><trkpt lat="42.71982371444686" lon="12.623218859029794"><ele>411.0</ele><time>2026-05-01T15:56:59.001Z</time></trkpt><trkpt lat="42.71988228439452" lon="12.623394506728637"><ele>411.0</ele><time>2026-05-01T15:57:00.001Z</time></trkpt><trkpt lat="42.71991666446482" lon="12.623587088356672"><ele>411.0</ele><time>2026-05-01T15:57:01.001Z</time></trkpt><trkpt lat="42.719923035731405" lon="12.623803849209581"><ele>411.0</ele><time>2026-05-01T15:57:02.001Z</time></trkpt><trkpt lat="42.71991611428925" lon="12.624045346237248"><ele>410.33333333333337</ele><time>2026-05-01T15:57:03.001Z</time></trkpt><trkpt lat="42.71990751939952" lon="12.624277372917144"><ele>409.6666666666667</ele><time>2026-05-01T15:57:04.001Z</time></trkpt><trkpt lat="42.71990244411042" lon="12.624497396538871"><ele>409.0</ele><time>2026-05-01T15:57:05.001Z</time></trkpt><trkpt lat="42.71984405953275" lon="12.624692740537096"><ele>406.33333333333337</ele><time>2026-05-01T15:57:06.001Z</time></trkpt><trkpt lat="42.71977904944943" lon="12.62489051865764"><ele>403.66666666666663</ele><time>2026-05-01T15:57:07.001Z</time></trkpt><trkpt lat="42.71970056570658" lon="12.625091716084683"><ele>401.0</ele><time>2026-05-01T15:57:08.001Z</time></trkpt><trkpt lat="42.71962033131506" lon="12.625292258300846"><ele>402.0</ele><time>2026-05-01T15:57:09.001Z</time></trkpt><trkpt lat="42.719552559909985" lon="12.62549743800336"><ele>403.0</ele><time>2026-05-01T15:57:10.001Z</time></trkpt><trkpt lat="42.71945427584614" lon="12.625667029663198"><ele>404.0</ele><time>2026-05-01T15:57:11.001Z</time></trkpt><trkpt lat="42.719377823940995" lon="12.625857467445323"><ele>404.0</ele><time>2026-05-01T15:57:12.001Z</time></trkpt><trkpt lat="42.719280794973265" lon="12.626029678340492"><ele>404.0</ele><time>2026-05-01T15:57:13.001Z</time></trkpt><trkpt lat="42.719191899976536" lon="12.626195304491803"><ele>404.0</ele><time>2026-05-01T15:57:14.001Z</time></trkpt><trkpt lat="42.719120067044216" lon="12.626369162974814"><ele>400.66666666666663</ele><time>2026-05-01T15:57:15.001Z</time></trkpt><trkpt lat="42.71907022811375" lon="12.626546862838408"><ele>397.33333333333337</ele><time>2026-05-01T15:57:16.001Z</time></trkpt><trkpt lat="42.71903652113884" lon="12.626750907617483"><ele>394.0</ele><time>2026-05-01T15:57:17.001Z</time></trkpt><trkpt lat="42.719044491428605" lon="12.626977751938133"><ele>393.0</ele><time>2026-05-01T15:57:18.001Z</time></trkpt><trkpt lat="42.71908113231942" lon="12.62720300547601"><ele>392.0</ele><time>2026-05-01T15:57:19.001Z</time></trkpt><trkpt lat="42.71915528977362" lon="12.627415614230946"><ele>391.0</ele><time>2026-05-01T15:57:20.001Z</time></trkpt><trkpt lat="42.719263274584236" lon="12.62759703437283"><ele>389.33333333333337</ele><time>2026-05-01T15:57:21.001Z</time></trkpt><trkpt lat="42.7194194507191" lon="12.627742872922502"><ele>387.66666666666663</ele><time>2026-05-01T15:57:22.002Z</time></trkpt><trkpt lat="42.719558428875075" lon="12.627857423351044"><ele>386.0</ele><time>2026-05-01T15:57:23.002Z</time></trkpt><trkpt lat="42.719702669927074" lon="12.627969562847493"><ele>386.0</ele><time>2026-05-01T15:57:24.002Z</time></trkpt><trkpt lat="42.71983460688599" lon="12.628084943952674"><ele>386.0</ele><time>2026-05-01T15:57:25.002Z</time></trkpt><trkpt lat="42.71992676582156" lon="12.628243304605174"><ele>386.0</ele><time>2026-05-01T15:57:26.002Z</time></trkpt><trkpt lat="42.72001285017062" lon="12.628408555561967"><ele>386.0</ele><time>2026-05-01T15:57:27.002Z</time></trkpt><trkpt lat="42.72008168355119" lon="12.628611740344688"><ele>386.0</ele><time>2026-05-01T15:57:28.002Z</time></trkpt><trkpt lat="42.72012279274213" lon="12.628838728345219"><ele>386.0</ele><time>2026-05-01T15:57:29.002Z</time></trkpt><trkpt lat="42.720153924543084" lon="12.629077807157739"><ele>386.3333333333333</ele><time>2026-05-01T15:57:30.002Z</time></trkpt><trkpt lat="42.720175190801" lon="12.629334072256128"><ele>386.66666666666663</ele><time>2026-05-01T15:57:31.002Z</time></trkpt><trkpt lat="42.72021117780389" lon="12.629601734370805"><ele>387.0</ele><time>2026-05-01T15:57:32.002Z</time></trkpt><trkpt lat="42.72022648480592" lon="12.629860553242512"><ele>382.6666666666667</ele><time>2026-05-01T15:57:33.001Z</time></trkpt><trkpt lat="42.72024492107469" lon="12.630118350612626"><ele>378.33333333333337</ele><time>2026-05-01T15:57:34.001Z</time></trkpt><trkpt lat="42.720262848665804" lon="12.630377181342311"><ele>374.0</ele><time>2026-05-01T15:57:35.001Z</time></trkpt><trkpt lat="42.72027760570183" lon="12.630638248865736"><ele>373.33333333333337</ele><time>2026-05-01T15:57:36.001Z</time></trkpt><trkpt lat="42.720290741338424" lon="12.630895944155158"><ele>372.6666666666667</ele><time>2026-05-01T15:57:37.001Z</time></trkpt><trkpt lat="42.72029957247767" lon="12.631158188068907"><ele>372.0</ele><time>2026-05-01T15:57:38.001Z</time></trkpt><trkpt lat="42.7203110742681" lon="12.631425842941033"><ele>371.3333333333333</ele><time>2026-05-01T15:57:39.001Z</time></trkpt><trkpt lat="42.720324879149715" lon="12.631688953064803"><ele>370.66666666666663</ele><time>2026-05-01T15:57:40.001Z</time></trkpt><trkpt lat="42.720337339069616" lon="12.63195107387517"><ele>370.0</ele><time>2026-05-01T15:57:41.001Z</time></trkpt><trkpt lat="42.720320820809995" lon="12.63222109796596"><ele>370.3333333333333</ele><time>2026-05-01T15:57:42.001Z</time></trkpt><trkpt lat="42.720313557779875" lon="12.63249053553728"><ele>370.6666666666667</ele><time>2026-05-01T15:57:43.001Z</time></trkpt><trkpt lat="42.72026900379525" lon="12.63274757628922"><ele>371.0</ele><time>2026-05-01T15:57:44.001Z</time></trkpt><trkpt lat="42.72022637275007" lon="12.633001599982677"><ele>371.0</ele><time>2026-05-01T15:57:45.001Z</time></trkpt><trkpt lat="42.72021262831019" lon="12.633250491653449"><ele>371.0</ele><time>2026-05-01T15:57:46.001Z</time></trkpt><trkpt lat="42.720239191848705" lon="12.633502366967647"><ele>371.0</ele><time>2026-05-01T15:57:47.001Z</time></trkpt><trkpt lat="42.72029607948867" lon="12.63375404590204"><ele>368.33333333333337</ele><time>2026-05-01T15:57:48.001Z</time></trkpt><trkpt lat="42.72036552591502" lon="12.6340058331334"><ele>365.6666666666667</ele><time>2026-05-01T15:57:49.001Z</time></trkpt><trkpt lat="42.72043081443085" lon="12.634259023109268"><ele>363.0</ele><time>2026-05-01T15:57:50.001Z</time></trkpt><trkpt lat="42.72049207217214" lon="12.634514322609391"><ele>362.3333333333333</ele><time>2026-05-01T15:57:51.001Z</time></trkpt><trkpt lat="42.72055037601198" lon="12.634767821821965"><ele>361.66666666666663</ele><time>2026-05-01T15:57:52.001Z</time></trkpt><trkpt lat="42.72060899626661" lon="12.635014484487947"><ele>361.0</ele><time>2026-05-01T15:57:53.001Z</time></trkpt><trkpt lat="42.720667976944874" lon="12.635260441890633"><ele>360.66666666666663</ele><time>2026-05-01T15:57:54.001Z</time></trkpt><trkpt lat="42.720726068779" lon="12.635500758451187"><ele>360.3333333333333</ele><time>2026-05-01T15:57:55.001Z</time></trkpt><trkpt lat="42.72079996812553" lon="12.635731322457811"><ele>360.0</ele><time>2026-05-01T15:57:56.001Z</time></trkpt><trkpt lat="42.720899246119494" lon="12.635943974580119"><ele>360.3333333333333</ele><time>2026-05-01T15:57:57.001Z</time></trkpt><trkpt lat="42.7210122951087" lon="12.63614936588652"><ele>360.66666666666663</ele><time>2026-05-01T15:57:58.001Z</time></trkpt><trkpt lat="42.72112501069361" lon="12.636358457266034"><ele>361.0</ele><time>2026-05-01T15:57:59.001Z</time></trkpt><trkpt lat="42.721239359318616" lon="12.636573258058734"><ele>359.3333333333333</ele><time>2026-05-01T15:58:00.001Z</time></trkpt><trkpt lat="42.72135028663468" lon="12.636780438307998"><ele>357.6666666666667</ele><time>2026-05-01T15:58:01.001Z</time></trkpt><trkpt lat="42.72145391903444" lon="12.636993185057861"><ele>356.0</ele><time>2026-05-01T15:58:02.001Z</time></trkpt><trkpt lat="42.72153903279641" lon="12.637213571373813"><ele>355.33333333333337</ele><time>2026-05-01T15:58:03.001Z</time></trkpt><trkpt lat="42.72160835359042" lon="12.637449170227152"><ele>354.6666666666667</ele><time>2026-05-01T15:58:04.001Z</time></trkpt><trkpt lat="42.72167063699782" lon="12.637697066044007"><ele>354.0</ele><time>2026-05-01T15:58:05.001Z</time></trkpt><trkpt lat="42.721734528337464" lon="12.63794258841101"><ele>353.6666666666667</ele><time>2026-05-01T15:58:06.001Z</time></trkpt><trkpt lat="42.72180392552984" lon="12.638181117431381"><ele>353.33333333333337</ele><time>2026-05-01T15:58:07.001Z</time></trkpt><trkpt lat="42.72187068471102" lon="12.63841670098376"><ele>353.0</ele><time>2026-05-01T15:58:08.001Z</time></trkpt><trkpt lat="42.721936744489255" lon="12.638648402929205"><ele>352.0</ele><time>2026-05-01T15:58:09.001Z</time></trkpt><trkpt lat="42.722000454341966" lon="12.638873603691954"><ele>351.0</ele><time>2026-05-01T15:58:10.001Z</time></trkpt><trkpt lat="42.72206058101465" lon="12.639088908114925"><ele>350.0</ele><time>2026-05-01T15:58:11.001Z</time></trkpt><trkpt lat="42.722115916648285" lon="12.639307522021364"><ele>349.33333333333337</ele><time>2026-05-01T15:58:12.001Z</time></trkpt><trkpt lat="42.722160140154315" lon="12.639547681875902"><ele>348.6666666666667</ele><time>2026-05-01T15:58:13.001Z</time></trkpt><trkpt lat="42.7221648723206" lon="12.63980257260281"><ele>348.0</ele><time>2026-05-01T15:58:14.001Z</time></trkpt><trkpt lat="42.722174093483005" lon="12.640044311883745"><ele>348.0</ele><time>2026-05-01T15:58:15.001Z</time></trkpt><trkpt lat="42.72220973428751" lon="12.640271401348215"><ele>348.0</ele><time>2026-05-01T15:58:16.001Z</time></trkpt><trkpt lat="42.72225658584243" lon="12.640492865697519"><ele>348.0</ele><time>2026-05-01T15:58:17.001Z</time></trkpt><trkpt lat="42.72232095357329" lon="12.640709508481688"><ele>347.3333333333333</ele><time>2026-05-01T15:58:18.001Z</time></trkpt><trkpt lat="42.72238363728547" lon="12.640906620116477"><ele>346.66666666666663</ele><time>2026-05-01T15:58:19.001Z</time></trkpt><trkpt lat="42.722432350061965" lon="12.6410932418882"><ele>346.0</ele><time>2026-05-01T15:58:20.001Z</time></trkpt><trkpt lat="42.722445403586285" lon="12.641295330871845"><ele>345.3333333333333</ele><time>2026-05-01T15:58:21.001Z</time></trkpt><trkpt lat="42.72244226675008" lon="12.641491874948999"><ele>344.6666666666667</ele><time>2026-05-01T15:58:22.001Z</time></trkpt><trkpt lat="42.72244988240233" lon="12.641699345303977"><ele>344.0</ele><time>2026-05-01T15:58:23.001Z</time></trkpt><trkpt lat="42.72242659850144" lon="12.641905258714482"><ele>343.5</ele><time>2026-05-01T15:58:24.001Z</time></trkpt><trkpt lat="42.72241076856563" lon="12.642101009571737"><ele>343.0</ele><time>2026-05-01T15:58:25.001Z</time></trkpt><trkpt lat="42.72239682442028" lon="12.642290232128097"><ele>342.5</ele><time>2026-05-01T15:58:26.001Z</time></trkpt><trkpt lat="42.72235615361303" lon="12.642465666414624"><ele>342.0</ele><time>2026-05-01T15:58:27.001Z</time></trkpt><trkpt lat="42.722312938614515" lon="12.64264937213891"><ele>341.5</ele><time>2026-05-01T15:58:28.001Z</time></trkpt><trkpt lat="42.7222757096663" lon="12.642839125550099"><ele>341.0</ele><time>2026-05-01T15:58:29.001Z</time></trkpt><trkpt lat="42.72220853626051" lon="12.643011995348994"><ele>340.5</ele><time>2026-05-01T15:58:30.001Z</time></trkpt><trkpt lat="42.722134060385436" lon="12.643178350330944"><ele>340.0</ele><time>2026-05-01T15:58:31.001Z</time></trkpt><trkpt lat="42.722019980735965" lon="12.643318364696754"><ele>340.3333333333333</ele><time>2026-05-01T15:58:32.001Z</time></trkpt><trkpt lat="42.72189450004896" lon="12.643475219575183"><ele>340.6666666666667</ele><time>2026-05-01T15:58:33.001Z</time></trkpt><trkpt lat="42.7217753331095" lon="12.643642397353437"><ele>341.0</ele><time>2026-05-01T15:58:34.001Z</time></trkpt><trkpt lat="42.721655470534394" lon="12.643781298904356"><ele>340.0</ele><time>2026-05-01T15:58:35.001Z</time></trkpt><trkpt lat="42.721548841857214" lon="12.64391866434062"><ele>339.0</ele><time>2026-05-01T15:58:36.001Z</time></trkpt><trkpt lat="42.72143938729694" lon="12.6440565724163"><ele>338.0</ele><time>2026-05-01T15:58:37.001Z</time></trkpt><trkpt lat="42.72132639610205" lon="12.64419864699588"><ele>338.0</ele><time>2026-05-01T15:58:38.001Z</time></trkpt><trkpt lat="42.72121991669069" lon="12.644333883928907"><ele>338.0</ele><time>2026-05-01T15:58:39.001Z</time></trkpt><trkpt lat="42.721114551634216" lon="12.64446765317797"><ele>338.0</ele><time>2026-05-01T15:58:40.001Z</time></trkpt><trkpt lat="42.721007112878105" lon="12.644603681423662"><ele>338.0</ele><time>2026-05-01T15:58:41.001Z</time></trkpt><trkpt lat="42.72089924553368" lon="12.644743484332535"><ele>337.25</ele><time>2026-05-01T15:58:42.001Z</time></trkpt><trkpt lat="42.72080673428487" lon="12.644871470680448"><ele>336.5</ele><time>2026-05-01T15:58:43.001Z</time></trkpt><trkpt lat="42.72071901791902" lon="12.645006195604392"><ele>335.75</ele><time>2026-05-01T15:58:44.001Z</time></trkpt><trkpt lat="42.72065019237235" lon="12.645171965869915"><ele>335.0</ele><time>2026-05-01T15:58:45.001Z</time></trkpt><trkpt lat="42.72060638072431" lon="12.645365531016859"><ele>335.0</ele><time>2026-05-01T15:58:46.001Z</time></trkpt><trkpt lat="42.720594045709156" lon="12.64557750592926"><ele>335.0</ele><time>2026-05-01T15:58:47.001Z</time></trkpt><trkpt lat="42.72059840846087" lon="12.645777441896879"><ele>335.0</ele><time>2026-05-01T15:58:48.001Z</time></trkpt><trkpt lat="42.72059580793411" lon="12.645969614218957"><ele>335.0</ele><time>2026-05-01T15:58:49.001Z</time></trkpt><trkpt lat="42.720586575435746" lon="12.64617175919045"><ele>335.25</ele><time>2026-05-01T15:58:50.001Z</time></trkpt><trkpt lat="42.720566980267336" lon="12.646359640870493"><ele>335.5</ele><time>2026-05-01T15:58:51.001Z</time></trkpt><trkpt lat="42.72057617429752" lon="12.646543520483046"><ele>335.75</ele><time>2026-05-01T15:58:52.001Z</time></trkpt><trkpt lat="42.720565407856995" lon="12.64673823363018"><ele>336.0</ele><time>2026-05-01T15:58:53.001Z</time></trkpt><trkpt lat="42.72055553460855" lon="12.646934738898207"><ele>335.75</ele><time>2026-05-01T15:58:54.001Z</time></trkpt><trkpt lat="42.72054969183957" lon="12.647128295068544"><ele>335.5</ele><time>2026-05-01T15:58:55.001Z</time></trkpt><trkpt lat="42.72054761544132" lon="12.647319850378045"><ele>335.25</ele><time>2026-05-01T15:58:56.001Z</time></trkpt><trkpt lat="42.72054453733726" lon="12.64750103640871"><ele>335.0</ele><time>2026-05-01T15:58:57.001Z</time></trkpt><trkpt lat="42.72054726622676" lon="12.647676769469669"><ele>334.75</ele><time>2026-05-01T15:58:58.001Z</time></trkpt><trkpt lat="42.7205734024394" lon="12.647845638462378"><ele>334.5</ele><time>2026-05-01T15:58:59.001Z</time></trkpt><trkpt lat="42.720625877587345" lon="12.648025416911715"><ele>334.25</ele><time>2026-05-01T15:59:00.001Z</time></trkpt><trkpt lat="42.720693810785654" lon="12.648205332519971"><ele>334.0</ele><time>2026-05-01T15:59:01.001Z</time></trkpt><trkpt lat="42.72076878335359" lon="12.648395700087487"><ele>334.0</ele><time>2026-05-01T15:59:02.001Z</time></trkpt><trkpt lat="42.72085054803954" lon="12.648597603516524"><ele>334.0</ele><time>2026-05-01T15:59:03.001Z</time></trkpt><trkpt lat="42.72093097187958" lon="12.648798853400207"><ele>334.0</ele><time>2026-05-01T15:59:04.001Z</time></trkpt><trkpt lat="42.72100913239875" lon="12.649002062309481"><ele>333.3333333333333</ele><time>2026-05-01T15:59:05.001Z</time></trkpt><trkpt lat="42.721085159431084" lon="12.64921164504938"><ele>332.6666666666667</ele><time>2026-05-01T15:59:06.001Z</time></trkpt><trkpt lat="42.72115528710415" lon="12.64942354443905"><ele>332.0</ele><time>2026-05-01T15:59:07.001Z</time></trkpt><trkpt lat="42.72122923171597" lon="12.649644387384303"><ele>332.0</ele><time>2026-05-01T15:59:08.001Z</time></trkpt><trkpt lat="42.72130187253046" lon="12.649865587996556"><ele>332.0</ele><time>2026-05-01T15:59:09.001Z</time></trkpt><trkpt lat="42.72136840666815" lon="12.650087400687623"><ele>332.0</ele><time>2026-05-01T15:59:10.001Z</time></trkpt><trkpt lat="42.72142333804638" lon="12.650311030702746"><ele>332.6666666666667</ele><time>2026-05-01T15:59:11.001Z</time></trkpt><trkpt lat="42.72147376914098" lon="12.650529010343696"><ele>333.3333333333333</ele><time>2026-05-01T15:59:12.001Z</time></trkpt><trkpt lat="42.72152709224623" lon="12.650750207223561"><ele>334.0</ele><time>2026-05-01T15:59:13.001Z</time></trkpt><trkpt lat="42.72158408472036" lon="12.650966956506991"><ele>335.66666666666663</ele><time>2026-05-01T15:59:14.001Z</time></trkpt><trkpt lat="42.72164738985978" lon="12.651190066225888"><ele>337.3333333333333</ele><time>2026-05-01T15:59:15.001Z</time></trkpt><trkpt lat="42.72171911780085" lon="12.651414402862079"><ele>339.0</ele><time>2026-05-01T15:59:16.001Z</time></trkpt><trkpt lat="42.72179439259274" lon="12.651636995510014"><ele>339.0</ele><time>2026-05-01T15:59:17.001Z</time></trkpt><trkpt lat="42.721869072577235" lon="12.651861651244287"><ele>339.0</ele><time>2026-05-01T15:59:18.001Z</time></trkpt><trkpt lat="42.72194283407213" lon="12.652087210680241"><ele>339.0</ele><time>2026-05-01T15:59:19.001Z</time></trkpt><trkpt lat="42.72202351183437" lon="12.652310029926005"><ele>336.3333333333333</ele><time>2026-05-01T15:59:20.001Z</time></trkpt><trkpt lat="42.72210449812627" lon="12.652532643741079"><ele>333.66666666666663</ele><time>2026-05-01T15:59:21.001Z</time></trkpt><trkpt lat="42.72218779067468" lon="12.65275846850885"><ele>331.0</ele><time>2026-05-01T15:59:22.001Z</time></trkpt><trkpt lat="42.72227068875301" lon="12.653006061953931"><ele>331.0</ele><time>2026-05-01T15:59:23.001Z</time></trkpt><trkpt lat="42.722351817102194" lon="12.653262602082837"><ele>331.0</ele><time>2026-05-01T15:59:24.001Z</time></trkpt><trkpt lat="42.72242567382518" lon="12.653511468738351"><ele>331.0</ele><time>2026-05-01T15:59:25.001Z</time></trkpt><trkpt lat="42.72249086131194" lon="12.653762579542995"><ele>331.3333333333333</ele><time>2026-05-01T15:59:26.001Z</time></trkpt><trkpt lat="42.72254550170019" lon="12.654015730063977"><ele>331.6666666666667</ele><time>2026-05-01T15:59:27.001Z</time></trkpt><trkpt lat="42.722599306419106" lon="12.654271642996326"><ele>332.0</ele><time>2026-05-01T15:59:28.002Z</time></trkpt><trkpt lat="42.722655277617676" lon="12.6545212901795"><ele>332.6666666666667</ele><time>2026-05-01T15:59:29.002Z</time></trkpt><trkpt lat="42.72271787568934" lon="12.654769683460563"><ele>333.3333333333333</ele><time>2026-05-01T15:59:30.002Z</time></trkpt><trkpt lat="42.72278859277159" lon="12.655011052758317"><ele>334.0</ele><time>2026-05-01T15:59:31.002Z</time></trkpt><trkpt lat="42.722869075018096" lon="12.655251365654701"><ele>332.3333333333333</ele><time>2026-05-01T15:59:32.002Z</time></trkpt><trkpt lat="42.722954001317085" lon="12.655499730510153"><ele>330.6666666666667</ele><time>2026-05-01T15:59:33.002Z</time></trkpt><trkpt lat="42.723037686574834" lon="12.655747898438278"><ele>329.0</ele><time>2026-05-01T15:59:34.002Z</time></trkpt><trkpt lat="42.72311738779803" lon="12.655987420432327"><ele>329.0</ele><time>2026-05-01T15:59:35.002Z</time></trkpt><trkpt lat="42.72319408335842" lon="12.656229040949116"><ele>329.0</ele><time>2026-05-01T15:59:36.002Z</time></trkpt><trkpt lat="42.723270756052926" lon="12.656467907087324"><ele>329.0</ele><time>2026-05-01T15:59:37.002Z</time></trkpt><trkpt lat="42.72334843700512" lon="12.656697239517808"><ele>329.0</ele><time>2026-05-01T15:59:38.002Z</time></trkpt><trkpt lat="42.72342598306183" lon="12.65692519255103"><ele>329.0</ele><time>2026-05-01T15:59:39.002Z</time></trkpt><trkpt lat="42.72350179471496" lon="12.657155565174794"><ele>329.0</ele><time>2026-05-01T15:59:40.002Z</time></trkpt><trkpt lat="42.72357633504812" lon="12.657390953047347"><ele>328.33333333333337</ele><time>2026-05-01T15:59:41.002Z</time></trkpt><trkpt lat="42.72365577059521" lon="12.65763318062761"><ele>327.6666666666667</ele><time>2026-05-01T15:59:42.002Z</time></trkpt><trkpt lat="42.72373287480484" lon="12.657873264167687"><ele>327.0</ele><time>2026-05-01T15:59:43.002Z</time></trkpt><trkpt lat="42.723808911781475" lon="12.658112957730452"><ele>327.0</ele><time>2026-05-01T15:59:44.002Z</time></trkpt><trkpt lat="42.723888571173326" lon="12.658350255098833"><ele>327.0</ele><time>2026-05-01T15:59:45.002Z</time></trkpt><trkpt lat="42.72396435646407" lon="12.658570503198403"><ele>327.0</ele><time>2026-05-01T15:59:46.002Z</time></trkpt><trkpt lat="42.724020356995645" lon="12.658749538585466"><ele>327.0</ele><time>2026-05-01T15:59:47.002Z</time></trkpt><trkpt lat="42.72407147855008" lon="12.658906897829723"><ele>327.0</ele><time>2026-05-01T15:59:48.002Z</time></trkpt><trkpt lat="42.72411504115932" lon="12.659053300833195"><ele>327.0</ele><time>2026-05-01T15:59:49.002Z</time></trkpt><trkpt lat="42.72416320920304" lon="12.65919825535582"><ele>327.0</ele><time>2026-05-01T15:59:50.001Z</time></trkpt><trkpt lat="42.724216625239144" lon="12.6593580386792"><ele>327.0</ele><time>2026-05-01T15:59:51.001Z</time></trkpt><trkpt lat="42.72428113716093" lon="12.659550636623205"><ele>327.0</ele><time>2026-05-01T15:59:52.001Z</time></trkpt><trkpt lat="42.72435392166345" lon="12.659756278922192"><ele>327.0</ele><time>2026-05-01T15:59:53.001Z</time></trkpt><trkpt lat="42.72443612464609" lon="12.65996122747695"><ele>326.6666666666667</ele><time>2026-05-01T15:59:54.001Z</time></trkpt><trkpt lat="42.72452551504504" lon="12.660166166699632"><ele>326.33333333333337</ele><time>2026-05-01T15:59:55.001Z</time></trkpt><trkpt lat="42.724614041543624" lon="12.660368818245741"><ele>326.0</ele><time>2026-05-01T15:59:56.001Z</time></trkpt><trkpt lat="42.724702312993024" lon="12.660568432410688"><ele>326.0</ele><time>2026-05-01T15:59:57.001Z</time></trkpt><trkpt lat="42.72479068929679" lon="12.660766007532494"><ele>326.0</ele><time>2026-05-01T15:59:58.001Z</time></trkpt><trkpt lat="42.72487496010579" lon="12.660964392937704"><ele>326.0</ele><time>2026-05-01T15:59:59.001Z</time></trkpt><trkpt lat="42.72495915291424" lon="12.661167984811769"><ele>326.0</ele><time>2026-05-01T16:00:00.001Z</time></trkpt><trkpt lat="42.725046313044345" lon="12.661364978453644"><ele>326.0</ele><time>2026-05-01T16:00:01.001Z</time></trkpt><trkpt lat="42.725131876034816" lon="12.661559551496566"><ele>326.0</ele><time>2026-05-01T16:00:02.001Z</time></trkpt><trkpt lat="42.72521729798032" lon="12.661752850101786"><ele>325.6666666666667</ele><time>2026-05-01T16:00:03.001Z</time></trkpt><trkpt lat="42.72529822300397" lon="12.66194706476809"><ele>325.3333333333333</ele><time>2026-05-01T16:00:04.001Z</time></trkpt><trkpt lat="42.72538379547235" lon="12.662136108233803"><ele>325.0</ele><time>2026-05-01T16:00:05.001Z</time></trkpt><trkpt lat="42.725482810671025" lon="12.662321691055432"><ele>325.0</ele><time>2026-05-01T16:00:06.001Z</time></trkpt><trkpt lat="42.72559641101095" lon="12.662503527964503"><ele>325.0</ele><time>2026-05-01T16:00:07.001Z</time></trkpt><trkpt lat="42.72571893750164" lon="12.662677508296705"><ele>325.0</ele><time>2026-05-01T16:00:08.001Z</time></trkpt><trkpt lat="42.72584908840639" lon="12.662844553145954"><ele>325.3333333333333</ele><time>2026-05-01T16:00:09.001Z</time></trkpt><trkpt lat="42.7259880316235" lon="12.662996314412757"><ele>325.6666666666667</ele><time>2026-05-01T16:00:10.001Z</time></trkpt><trkpt lat="42.72613363553088" lon="12.663141293137791"><ele>326.0</ele><time>2026-05-01T16:00:11.001Z</time></trkpt><trkpt lat="42.72628341895853" lon="12.663280589279367"><ele>326.0</ele><time>2026-05-01T16:00:12.001Z</time></trkpt><trkpt lat="42.726440500631675" lon="12.66340633304348"><ele>326.0</ele><time>2026-05-01T16:00:13.001Z</time></trkpt><trkpt lat="42.72660552836471" lon="12.663521377339219"><ele>326.0</ele><time>2026-05-01T16:00:14.001Z</time></trkpt><trkpt lat="42.726769663575496" lon="12.663634969005921"><ele>325.0</ele><time>2026-05-01T16:00:15.001Z</time></trkpt><trkpt lat="42.72693297905208" lon="12.663748019113921"><ele>324.0</ele><time>2026-05-01T16:00:16.001Z</time></trkpt><trkpt lat="42.72709296490704" lon="12.663862471811965"><ele>323.0</ele><time>2026-05-01T16:00:17.001Z</time></trkpt><trkpt lat="42.72725015033643" lon="12.66397529504913"><ele>323.0</ele><time>2026-05-01T16:00:18.001Z</time></trkpt><trkpt lat="42.7274085128991" lon="12.664094398555598"><ele>323.0</ele><time>2026-05-01T16:00:19.001Z</time></trkpt><trkpt lat="42.72757669248996" lon="12.6642171835124"><ele>323.0</ele><time>2026-05-01T16:00:20.001Z</time></trkpt><trkpt lat="42.72774571726634" lon="12.664335623601865"><ele>323.33333333333337</ele><time>2026-05-01T16:00:21.001Z</time></trkpt><trkpt lat="42.727913301569316" lon="12.66446403000702"><ele>323.6666666666667</ele><time>2026-05-01T16:00:22.001Z</time></trkpt><trkpt lat="42.728076604687956" lon="12.664603761536137"><ele>324.0</ele><time>2026-05-01T16:00:23.001Z</time></trkpt><trkpt lat="42.728233038086564" lon="12.664755016574814"><ele>324.0</ele><time>2026-05-01T16:00:24.001Z</time></trkpt><trkpt lat="42.72838290586379" lon="12.664913070957915"><ele>324.0</ele><time>2026-05-01T16:00:25.001Z</time></trkpt><trkpt lat="42.72852885001623" lon="12.665080589172153"><ele>324.0</ele><time>2026-05-01T16:00:26.001Z</time></trkpt><trkpt lat="42.72866680617949" lon="12.665256965706103"><ele>323.6666666666667</ele><time>2026-05-01T16:00:27.001Z</time></trkpt><trkpt lat="42.728795644243434" lon="12.665434925406002"><ele>323.33333333333337</ele><time>2026-05-01T16:00:28.001Z</time></trkpt><trkpt lat="42.728923107988656" lon="12.665618011194955"><ele>323.0</ele><time>2026-05-01T16:00:29.001Z</time></trkpt><trkpt lat="42.72904442833443" lon="12.665804064638316"><ele>323.0</ele><time>2026-05-01T16:00:30.001Z</time></trkpt><trkpt lat="42.7291615549616" lon="12.66600106441402"><ele>323.0</ele><time>2026-05-01T16:00:31.001Z</time></trkpt><trkpt lat="42.72927364053931" lon="12.66620391821716"><ele>323.0</ele><time>2026-05-01T16:00:32.001Z</time></trkpt><trkpt lat="42.72938126994125" lon="12.666414110743329"><ele>322.33333333333337</ele><time>2026-05-01T16:00:33.001Z</time></trkpt><trkpt lat="42.72948175168649" lon="12.666627495288585"><ele>321.6666666666667</ele><time>2026-05-01T16:00:34.001Z</time></trkpt><trkpt lat="42.72957537721381" lon="12.66684767661692"><ele>321.0</ele><time>2026-05-01T16:00:35.001Z</time></trkpt><trkpt lat="42.72966020680637" lon="12.667067936176224"><ele>320.6666666666667</ele><time>2026-05-01T16:00:36.001Z</time></trkpt><trkpt lat="42.729746053434425" lon="12.667292063175353"><ele>320.33333333333337</ele><time>2026-05-01T16:00:37.001Z</time></trkpt><trkpt lat="42.729827457117835" lon="12.667517537269386"><ele>320.0</ele><time>2026-05-01T16:00:38.001Z</time></trkpt><trkpt lat="42.729903978347934" lon="12.667749847770203"><ele>319.6666666666667</ele><time>2026-05-01T16:00:39.001Z</time></trkpt><trkpt lat="42.72995714032805" lon="12.66799248845081"><ele>319.3333333333333</ele><time>2026-05-01T16:00:40.001Z</time></trkpt><trkpt lat="42.730015474909486" lon="12.66822973814419"><ele>319.0</ele><time>2026-05-01T16:00:41.001Z</time></trkpt><trkpt lat="42.73006383846033" lon="12.668450559238398"><ele>319.3333333333333</ele><time>2026-05-01T16:00:42.001Z</time></trkpt><trkpt lat="42.730114610222095" lon="12.66865056806368"><ele>319.6666666666667</ele><time>2026-05-01T16:00:43.001Z</time></trkpt><trkpt lat="42.73014928420121" lon="12.668854233397614"><ele>320.0</ele><time>2026-05-01T16:00:44.001Z</time></trkpt><trkpt lat="42.73016071344005" lon="12.669064143161302"><ele>320.0</ele><time>2026-05-01T16:00:45.001Z</time></trkpt><trkpt lat="42.73018392209688" lon="12.669275557262685"><ele>320.0</ele><time>2026-05-01T16:00:46.001Z</time></trkpt><trkpt lat="42.730203043114216" lon="12.669492670310698"><ele>320.0</ele><time>2026-05-01T16:00:47.001Z</time></trkpt><trkpt lat="42.73021747308796" lon="12.669707647795727"><ele>319.0</ele><time>2026-05-01T16:00:48.001Z</time></trkpt><trkpt lat="42.7302278062937" lon="12.669931125147883"><ele>318.0</ele><time>2026-05-01T16:00:49.001Z</time></trkpt><trkpt lat="42.730235249553935" lon="12.670152506028652"><ele>317.0</ele><time>2026-05-01T16:00:50.001Z</time></trkpt><trkpt lat="42.73025269920062" lon="12.670368896023302"><ele>317.0</ele><time>2026-05-01T16:00:51.001Z</time></trkpt><trkpt lat="42.73024943398715" lon="12.670581690043115"><ele>317.0</ele><time>2026-05-01T16:00:52.001Z</time></trkpt><trkpt lat="42.7302375239938" lon="12.670789134385963"><ele>317.0</ele><time>2026-05-01T16:00:53.001Z</time></trkpt><trkpt lat="42.730224243288" lon="12.670987670038278"><ele>317.5</ele><time>2026-05-01T16:00:54.001Z</time></trkpt><trkpt lat="42.73021114343042" lon="12.671176363895656"><ele>318.0</ele><time>2026-05-01T16:00:55.001Z</time></trkpt><trkpt lat="42.73020013492096" lon="12.671360927169735"><ele>318.5</ele><time>2026-05-01T16:00:56.001Z</time></trkpt><trkpt lat="42.73017182850778" lon="12.671532147962466"><ele>319.0</ele><time>2026-05-01T16:00:57.001Z</time></trkpt><trkpt lat="42.7301756038648" lon="12.671699388509888"><ele>319.0</ele><time>2026-05-01T16:00:58.001Z</time></trkpt><trkpt lat="42.73016188133998" lon="12.671857176730526"><ele>319.0</ele><time>2026-05-01T16:00:59.001Z</time></trkpt><trkpt lat="42.73015161900625" lon="12.672005482373672"><ele>319.0</ele><time>2026-05-01T16:01:00.001Z</time></trkpt><trkpt lat="42.73013975474673" lon="12.672155566215116"><ele>319.0</ele><time>2026-05-01T16:01:01.001Z</time></trkpt><trkpt lat="42.73012494569816" lon="12.672304042594567"><ele>319.0</ele><time>2026-05-01T16:01:02.001Z</time></trkpt><trkpt lat="42.730113741693756" lon="12.672444450869763"><ele>319.0</ele><time>2026-05-01T16:01:03.001Z</time></trkpt><trkpt lat="42.73010428518454" lon="12.672596723978476"><ele>319.0</ele><time>2026-05-01T16:01:04.001Z</time></trkpt><trkpt lat="42.73009706104345" lon="12.672756191119847"><ele>319.0</ele><time>2026-05-01T16:01:05.001Z</time></trkpt><trkpt lat="42.73008900314535" lon="12.672915179688156"><ele>319.0</ele><time>2026-05-01T16:01:06.001Z</time></trkpt><trkpt lat="42.73006057772051" lon="12.67307536541434"><ele>318.75</ele><time>2026-05-01T16:01:07.001Z</time></trkpt><trkpt lat="42.730065400481664" lon="12.673237944720176"><ele>318.5</ele><time>2026-05-01T16:01:08.001Z</time></trkpt><trkpt lat="42.73005043588555" lon="12.673395145727405"><ele>318.25</ele><time>2026-05-01T16:01:09.001Z</time></trkpt><trkpt lat="42.730039660992475" lon="12.673547795059894"><ele>318.0</ele><time>2026-05-01T16:01:10.001Z</time></trkpt><trkpt lat="42.73003275128212" lon="12.673689750013995"><ele>318.0</ele><time>2026-05-01T16:01:11.001Z</time></trkpt><trkpt lat="42.73002316603518" lon="12.673834223552644"><ele>318.0</ele><time>2026-05-01T16:01:12.001Z</time></trkpt><trkpt lat="42.73001043738931" lon="12.673987375700777"><ele>318.0</ele><time>2026-05-01T16:01:13.001Z</time></trkpt><trkpt lat="42.729998508549265" lon="12.67415317581484"><ele>318.0</ele><time>2026-05-01T16:01:14.001Z</time></trkpt><trkpt lat="42.72998697022995" lon="12.674304865644167"><ele>317.6</ele><time>2026-05-01T16:01:15.001Z</time></trkpt><trkpt lat="42.72997715254824" lon="12.674445050300372"><ele>317.20000000000005</ele><time>2026-05-01T16:01:16.001Z</time></trkpt><trkpt lat="42.72996864261562" lon="12.674592286420213"><ele>316.8</ele><time>2026-05-01T16:01:17.001Z</time></trkpt><trkpt lat="42.72995597238877" lon="12.674745541475932"><ele>316.40000000000003</ele><time>2026-05-01T16:01:18.001Z</time></trkpt><trkpt lat="42.729942669740176" lon="12.674905868897723"><ele>316.0</ele><time>2026-05-01T16:01:19.001Z</time></trkpt><trkpt lat="42.729930653736055" lon="12.675068243679672"><ele>316.0</ele><time>2026-05-01T16:01:20.001Z</time></trkpt><trkpt lat="42.729923263503146" lon="12.675234665434791"><ele>316.0</ele><time>2026-05-01T16:01:21.001Z</time></trkpt><trkpt lat="42.72991809440246" lon="12.675399711523259"><ele>316.0</ele><time>2026-05-01T16:01:22.001Z</time></trkpt><trkpt lat="42.729907400812856" lon="12.675547848416757"><ele>316.0</ele><time>2026-05-01T16:01:23.001Z</time></trkpt><trkpt lat="42.72989494979489" lon="12.675691064681887"><ele>315.5</ele><time>2026-05-01T16:01:24.001Z</time></trkpt><trkpt lat="42.72988007828818" lon="12.675837752659966"><ele>315.0</ele><time>2026-05-01T16:01:25.001Z</time></trkpt><trkpt lat="42.72986688081813" lon="12.67598854479432"><ele>314.5</ele><time>2026-05-01T16:01:26.001Z</time></trkpt><trkpt lat="42.7298581094944" lon="12.676146073824079"><ele>314.0</ele><time>2026-05-01T16:01:27.001Z</time></trkpt><trkpt lat="42.72985185756656" lon="12.676302458937652"><ele>313.59999999999997</ele><time>2026-05-01T16:01:28.001Z</time></trkpt><trkpt lat="42.72984234407377" lon="12.676451635413109"><ele>313.2</ele><time>2026-05-01T16:01:29.001Z</time></trkpt><trkpt lat="42.72983232479693" lon="12.67660406942257"><ele>312.79999999999995</ele><time>2026-05-01T16:01:30.001Z</time></trkpt><trkpt lat="42.729818425960445" lon="12.676755447445695"><ele>312.4</ele><time>2026-05-01T16:01:31.001Z</time></trkpt><trkpt lat="42.72980694993383" lon="12.676899156492679"><ele>312.0</ele><time>2026-05-01T16:01:32.001Z</time></trkpt><trkpt lat="42.729798043222225" lon="12.677037342060975"><ele>311.6</ele><time>2026-05-01T16:01:33.001Z</time></trkpt><trkpt lat="42.729789625092735" lon="12.67717997217218"><ele>311.2</ele><time>2026-05-01T16:01:34.002Z</time></trkpt><trkpt lat="42.72978478408537" lon="12.677330178229687"><ele>310.8</ele><time>2026-05-01T16:01:35.002Z</time></trkpt><trkpt lat="42.729785897396404" lon="12.677485077065638"><ele>310.4</ele><time>2026-05-01T16:01:36.002Z</time></trkpt><trkpt lat="42.729790139050884" lon="12.677639068181431"><ele>310.0</ele><time>2026-05-01T16:01:37.002Z</time></trkpt><trkpt lat="42.7298015741749" lon="12.67778721754854"><ele>310.0</ele><time>2026-05-01T16:01:38.002Z</time></trkpt><trkpt lat="42.72981725701767" lon="12.677935331705623"><ele>310.0</ele><time>2026-05-01T16:01:39.002Z</time></trkpt><trkpt lat="42.72983454900021" lon="12.678080208458338"><ele>310.0</ele><time>2026-05-01T16:01:40.002Z</time></trkpt><trkpt lat="42.7298570382856" lon="12.678224840306559"><ele>310.0</ele><time>2026-05-01T16:01:41.002Z</time></trkpt><trkpt lat="42.729880397735336" lon="12.67835903225338"><ele>310.0</ele><time>2026-05-01T16:01:42.002Z</time></trkpt><trkpt lat="42.72990286439823" lon="12.678484509347923"><ele>310.2</ele><time>2026-05-01T16:01:43.002Z</time></trkpt><trkpt lat="42.72992320732867" lon="12.67861045934272"><ele>310.4</ele><time>2026-05-01T16:01:44.002Z</time></trkpt><trkpt lat="42.729948120379355" lon="12.678739655586153"><ele>310.6</ele><time>2026-05-01T16:01:45.002Z</time></trkpt><trkpt lat="42.72997894138118" lon="12.678867052478706"><ele>310.8</ele><time>2026-05-01T16:01:46.002Z</time></trkpt><trkpt lat="42.730011389239635" lon="12.678986208468705"><ele>311.0</ele><time>2026-05-01T16:01:47.002Z</time></trkpt><trkpt lat="42.73004289738253" lon="12.67910375474475"><ele>311.0</ele><time>2026-05-01T16:01:48.002Z</time></trkpt><trkpt lat="42.7300718025102" lon="12.679222922360633"><ele>311.0</ele><time>2026-05-01T16:01:49.002Z</time></trkpt><trkpt lat="42.73010083189434" lon="12.679346601058658"><ele>311.0</ele><time>2026-05-01T16:01:50.002Z</time></trkpt><trkpt lat="42.73011482102801" lon="12.679477457269316"><ele>311.0</ele><time>2026-05-01T16:01:51.002Z</time></trkpt><trkpt lat="42.73014392411237" lon="12.679602036687845"><ele>311.0</ele><time>2026-05-01T16:01:52.002Z</time></trkpt><trkpt lat="42.73017684028776" lon="12.679725581013663"><ele>311.0</ele><time>2026-05-01T16:01:53.002Z</time></trkpt><trkpt lat="42.73021762323582" lon="12.679870467841887"><ele>311.0</ele><time>2026-05-01T16:01:54.001Z</time></trkpt><trkpt lat="42.73026152341661" lon="12.68001485356145"><ele>311.0</ele><time>2026-05-01T16:01:55.001Z</time></trkpt><trkpt lat="42.73030801896363" lon="12.68015929678109"><ele>311.0</ele><time>2026-05-01T16:01:56.001Z</time></trkpt><trkpt lat="42.73035461059844" lon="12.680298661577922"><ele>310.40000000000003</ele><time>2026-05-01T16:01:57.001Z</time></trkpt><trkpt lat="42.730400573342955" lon="12.680434995599379"><ele>309.8</ele><time>2026-05-01T16:01:58.001Z</time></trkpt><trkpt lat="42.73044104534882" lon="12.680560002796602"><ele>309.20000000000005</ele><time>2026-05-01T16:01:59.001Z</time></trkpt><trkpt lat="42.73048494963975" lon="12.680694773693139"><ele>308.6</ele><time>2026-05-01T16:02:00.001Z</time></trkpt><trkpt lat="42.730528954096435" lon="12.680835097081287"><ele>308.0</ele><time>2026-05-01T16:02:01.001Z</time></trkpt><trkpt lat="42.73057162713937" lon="12.680972403318517"><ele>308.6666666666667</ele><time>2026-05-01T16:02:02.001Z</time></trkpt><trkpt lat="42.730610522636525" lon="12.681099621228505"><ele>309.33333333333337</ele><time>2026-05-01T16:02:03.001Z</time></trkpt><trkpt lat="42.730645964077866" lon="12.68121632203477"><ele>310.0</ele><time>2026-05-01T16:02:04.001Z</time></trkpt><trkpt lat="42.73067624541624" lon="12.681320520397476"><ele>310.6666666666667</ele><time>2026-05-01T16:02:05.001Z</time></trkpt><trkpt lat="42.73070689672739" lon="12.681424263295574"><ele>311.3333333333333</ele><time>2026-05-01T16:02:06.001Z</time></trkpt><trkpt lat="42.730739545146584" lon="12.681534765245441"><ele>312.0</ele><time>2026-05-01T16:02:07.001Z</time></trkpt><trkpt lat="42.73077518191303" lon="12.681661819813034"><ele>312.0</ele><time>2026-05-01T16:02:08.001Z</time></trkpt><trkpt lat="42.730818579085195" lon="12.681815941114095"><ele>312.0</ele><time>2026-05-01T16:02:09.001Z</time></trkpt><trkpt lat="42.730877786834526" lon="12.681967603808985"><ele>312.0</ele><time>2026-05-01T16:02:10.001Z</time></trkpt><trkpt lat="42.73092541914857" lon="12.682117550131274"><ele>312.0</ele><time>2026-05-01T16:02:11.001Z</time></trkpt><trkpt lat="42.730979941779154" lon="12.682271016032658"><ele>312.0</ele><time>2026-05-01T16:02:12.001Z</time></trkpt><trkpt lat="42.73103609365762" lon="12.682419165459756"><ele>312.0</ele><time>2026-05-01T16:02:13.001Z</time></trkpt><trkpt lat="42.731081251624175" lon="12.682576434179342"><ele>312.0</ele><time>2026-05-01T16:02:14.001Z</time></trkpt><trkpt lat="42.73113797653933" lon="12.682718223963517"><ele>312.0</ele><time>2026-05-01T16:02:15.001Z</time></trkpt><trkpt lat="42.731204499508614" lon="12.682838926659752"><ele>312.0</ele><time>2026-05-01T16:02:16.001Z</time></trkpt><trkpt lat="42.73123518712127" lon="12.68297118848438"><ele>312.0</ele><time>2026-05-01T16:02:17.001Z</time></trkpt><trkpt lat="42.73127918306149" lon="12.683105176145723"><ele>312.0</ele><time>2026-05-01T16:02:18.001Z</time></trkpt><trkpt lat="42.73131773116925" lon="12.683236654713781"><ele>312.0</ele><time>2026-05-01T16:02:19.001Z</time></trkpt><trkpt lat="42.73137219935346" lon="12.683373696558505"><ele>312.0</ele><time>2026-05-01T16:02:20.001Z</time></trkpt><trkpt lat="42.731395925715425" lon="12.683540213753723"><ele>312.25</ele><time>2026-05-01T16:02:21.001Z</time></trkpt><trkpt lat="42.731435725805916" lon="12.683705027332458"><ele>312.5</ele><time>2026-05-01T16:02:22.001Z</time></trkpt><trkpt lat="42.73147967771204" lon="12.683889758837177"><ele>312.75</ele><time>2026-05-01T16:02:23.001Z</time></trkpt><trkpt lat="42.73152788093729" lon="12.684092358855146"><ele>313.0</ele><time>2026-05-01T16:02:24.001Z</time></trkpt><trkpt lat="42.731581884456915" lon="12.684312775051758"><ele>312.3333333333333</ele><time>2026-05-01T16:02:25.001Z</time></trkpt><trkpt lat="42.731637452690286" lon="12.684538670394184"><ele>311.6666666666667</ele><time>2026-05-01T16:02:26.001Z</time></trkpt><trkpt lat="42.731696140057956" lon="12.684774362790126"><ele>311.0</ele><time>2026-05-01T16:02:27.001Z</time></trkpt><trkpt lat="42.73177262520604" lon="12.685001866998718"><ele>311.0</ele><time>2026-05-01T16:02:28.001Z</time></trkpt><trkpt lat="42.73182764956893" lon="12.685252077707425"><ele>311.0</ele><time>2026-05-01T16:02:29.001Z</time></trkpt><trkpt lat="42.73189601222989" lon="12.685485893322191"><ele>311.0</ele><time>2026-05-01T16:02:30.001Z</time></trkpt><trkpt lat="42.73196207833816" lon="12.685717036912674"><ele>309.6666666666667</ele><time>2026-05-01T16:02:31.001Z</time></trkpt><trkpt lat="42.73202671484526" lon="12.685937397866565"><ele>308.3333333333333</ele><time>2026-05-01T16:02:32.001Z</time></trkpt><trkpt lat="42.73209031703539" lon="12.68615415164493"><ele>307.0</ele><time>2026-05-01T16:02:33.001Z</time></trkpt><trkpt lat="42.73215713251805" lon="12.686363876225364"><ele>307.0</ele><time>2026-05-01T16:02:34.001Z</time></trkpt><trkpt lat="42.73222816304106" lon="12.686560302736263"><ele>307.0</ele><time>2026-05-01T16:02:35.001Z</time></trkpt><trkpt lat="42.732306509068664" lon="12.686747781027146"><ele>307.0</ele><time>2026-05-01T16:02:36.001Z</time></trkpt><trkpt lat="42.73239855219111" lon="12.68692885619403"><ele>306.0</ele><time>2026-05-01T16:02:37.001Z</time></trkpt><trkpt lat="42.73250102952851" lon="12.6871095485298"><ele>305.0</ele><time>2026-05-01T16:02:38.001Z</time></trkpt><trkpt lat="42.73260836588905" lon="12.68728339916421"><ele>304.0</ele><time>2026-05-01T16:02:39.001Z</time></trkpt><trkpt lat="42.73272323727831" lon="12.687444289187802"><ele>303.0</ele><time>2026-05-01T16:02:40.001Z</time></trkpt><trkpt lat="42.732833998722825" lon="12.687608310122057"><ele>302.0</ele><time>2026-05-01T16:02:41.001Z</time></trkpt><trkpt lat="42.732939896832875" lon="12.687768059202243"><ele>301.0</ele><time>2026-05-01T16:02:42.001Z</time></trkpt><trkpt lat="42.73304625275268" lon="12.687937609151428"><ele>301.0</ele><time>2026-05-01T16:02:43.001Z</time></trkpt><trkpt lat="42.73315192506038" lon="12.688095992397695"><ele>301.0</ele><time>2026-05-01T16:02:44.001Z</time></trkpt><trkpt lat="42.73325748999704" lon="12.68823603446009"><ele>301.0</ele><time>2026-05-01T16:02:45.001Z</time></trkpt><trkpt lat="42.73336659368621" lon="12.688360043054344"><ele>301.0</ele><time>2026-05-01T16:02:46.001Z</time></trkpt><trkpt lat="42.73349096222354" lon="12.688477914921329"><ele>300.0</ele><time>2026-05-01T16:02:47.001Z</time></trkpt><trkpt lat="42.73360625623881" lon="12.688607218840508"><ele>299.0</ele><time>2026-05-01T16:02:48.001Z</time></trkpt><trkpt lat="42.73370506080491" lon="12.688784284660075"><ele>298.0</ele><time>2026-05-01T16:02:49.001Z</time></trkpt><trkpt lat="42.7337814628118" lon="12.688988422855306"><ele>298.0</ele><time>2026-05-01T16:02:50.001Z</time></trkpt><trkpt lat="42.73386653242762" lon="12.689206727379549"><ele>298.0</ele><time>2026-05-01T16:02:51.001Z</time></trkpt><trkpt lat="42.73395146969611" lon="12.689425571656807"><ele>298.0</ele><time>2026-05-01T16:02:52.001Z</time></trkpt><trkpt lat="42.73403564409151" lon="12.689653902127251"><ele>299.5</ele><time>2026-05-01T16:02:53.001Z</time></trkpt><trkpt lat="42.73412311179331" lon="12.689910105476853"><ele>301.0</ele><time>2026-05-01T16:02:54.001Z</time></trkpt><trkpt lat="42.73423026885487" lon="12.6902136596799"><ele>299.0</ele><time>2026-05-01T16:02:55.001Z</time></trkpt><trkpt lat="42.734325876849525" lon="12.690543754638377"><ele>297.0</ele><time>2026-05-01T16:02:56.001Z</time></trkpt><trkpt lat="42.73440790244588" lon="12.690883851126099"><ele>297.3333333333333</ele><time>2026-05-01T16:02:57.001Z</time></trkpt><trkpt lat="42.73448196569623" lon="12.691196615830737"><ele>297.66666666666663</ele><time>2026-05-01T16:02:58.001Z</time></trkpt><trkpt lat="42.73453433766855" lon="12.69146094513551"><ele>298.0</ele><time>2026-05-01T16:02:59.001Z</time></trkpt><trkpt lat="42.73457599102986" lon="12.691725384002844"><ele>296.66666666666663</ele><time>2026-05-01T16:03:00.001Z</time></trkpt><trkpt lat="42.734602809523835" lon="12.692008166624783"><ele>295.3333333333333</ele><time>2026-05-01T16:03:01.001Z</time></trkpt><trkpt lat="42.734611985442484" lon="12.692304313325772"><ele>294.0</ele><time>2026-05-01T16:03:02.001Z</time></trkpt><trkpt lat="42.73462898150399" lon="12.692602657554595"><ele>295.0</ele><time>2026-05-01T16:03:03.001Z</time></trkpt><trkpt lat="42.73464838315923" lon="12.692902300801155"><ele>296.0</ele><time>2026-05-01T16:03:04.001Z</time></trkpt><trkpt lat="42.73466592833902" lon="12.69319416820139"><ele>297.0</ele><time>2026-05-01T16:03:05.001Z</time></trkpt><trkpt lat="42.73468754781158" lon="12.693484235568267"><ele>296.6666666666667</ele><time>2026-05-01T16:03:06.001Z</time></trkpt><trkpt lat="42.734714291473786" lon="12.693770952880675"><ele>296.33333333333337</ele><time>2026-05-01T16:03:07.001Z</time></trkpt><trkpt lat="42.734742407899155" lon="12.694045435495465"><ele>296.0</ele><time>2026-05-01T16:03:08.001Z</time></trkpt><trkpt lat="42.73477122683469" lon="12.694316857239226"><ele>296.0</ele><time>2026-05-01T16:03:09.001Z</time></trkpt><trkpt lat="42.73480119039456" lon="12.694589398375932"><ele>296.0</ele><time>2026-05-01T16:03:10.001Z</time></trkpt><trkpt lat="42.73483354160288" lon="12.694863003035492"><ele>296.0</ele><time>2026-05-01T16:03:11.001Z</time></trkpt><trkpt lat="42.734881314039164" lon="12.695142575721022"><ele>297.33333333333337</ele><time>2026-05-01T16:03:12.001Z</time></trkpt><trkpt lat="42.73494780950073" lon="12.695416140747888"><ele>298.6666666666667</ele><time>2026-05-01T16:03:13.001Z</time></trkpt><trkpt lat="42.735029469707065" lon="12.695686419727739"><ele>300.0</ele><time>2026-05-01T16:03:14.001Z</time></trkpt><trkpt lat="42.735122772089895" lon="12.695959313600799"><ele>298.0</ele><time>2026-05-01T16:03:15.001Z</time></trkpt><trkpt lat="42.735223854232906" lon="12.696227617204347"><ele>296.0</ele><time>2026-05-01T16:03:16.001Z</time></trkpt><trkpt lat="42.73532602154445" lon="12.696494926820382"><ele>294.0</ele><time>2026-05-01T16:03:17.001Z</time></trkpt><trkpt lat="42.735426944756504" lon="12.696770683906381"><ele>294.3333333333333</ele><time>2026-05-01T16:03:18.001Z</time></trkpt><trkpt lat="42.73552831342391" lon="12.697040401918393"><ele>294.66666666666663</ele><time>2026-05-01T16:03:19.001Z</time></trkpt><trkpt lat="42.735630677461494" lon="12.697313277493729"><ele>295.0</ele><time>2026-05-01T16:03:20.001Z</time></trkpt><trkpt lat="42.73573261815487" lon="12.697583379988332"><ele>297.5</ele><time>2026-05-01T16:03:21.001Z</time></trkpt><trkpt lat="42.735834253594696" lon="12.697858065976542"><ele>300.0</ele><time>2026-05-01T16:03:22.001Z</time></trkpt><trkpt lat="42.7359344264254" lon="12.698131797622707"><ele>300.0</ele><time>2026-05-01T16:03:23.001Z</time></trkpt><trkpt lat="42.73603488239419" lon="12.698410596482764"><ele>300.0</ele><time>2026-05-01T16:03:24.001Z</time></trkpt><trkpt lat="42.736133337403814" lon="12.698681228518648"><ele>295.5</ele><time>2026-05-01T16:03:25.001Z</time></trkpt><trkpt lat="42.73623736769284" lon="12.698955425212153"><ele>291.0</ele><time>2026-05-01T16:03:26.001Z</time></trkpt><trkpt lat="42.73634546505279" lon="12.699228120618535"><ele>292.0</ele><time>2026-05-01T16:03:27.001Z</time></trkpt><trkpt lat="42.736460383643845" lon="12.699498427341068"><ele>293.0</ele><time>2026-05-01T16:03:28.001Z</time></trkpt><trkpt lat="42.73658648819504" lon="12.699758308400174"><ele>293.0</ele><time>2026-05-01T16:03:29.001Z</time></trkpt><trkpt lat="42.73671542341652" lon="12.700013764820355"><ele>293.0</ele><time>2026-05-01T16:03:30.001Z</time></trkpt><trkpt lat="42.736844418616585" lon="12.700266442776115"><ele>291.0</ele><time>2026-05-01T16:03:31.001Z</time></trkpt><trkpt lat="42.73697293642103" lon="12.700520703106378"><ele>289.0</ele><time>2026-05-01T16:03:32.001Z</time></trkpt><trkpt lat="42.73710037765985" lon="12.70077606478114"><ele>289.0</ele><time>2026-05-01T16:03:33.001Z</time></trkpt><trkpt lat="42.737224827808156" lon="12.701029775730003"><ele>289.0</ele><time>2026-05-01T16:03:34.001Z</time></trkpt><trkpt lat="42.73734746334626" lon="12.70128517032472"><ele>289.0</ele><time>2026-05-01T16:03:35.001Z</time></trkpt><trkpt lat="42.7374694858298" lon="12.701537104532175"><ele>289.66666666666663</ele><time>2026-05-01T16:03:36.001Z</time></trkpt><trkpt lat="42.73758740210673" lon="12.701790997818762"><ele>290.3333333333333</ele><time>2026-05-01T16:03:37.001Z</time></trkpt><trkpt lat="42.73770588736205" lon="12.702045931047376"><ele>291.0</ele><time>2026-05-01T16:03:38.001Z</time></trkpt><trkpt lat="42.73781424416462" lon="12.702278750272336"><ele>291.0</ele><time>2026-05-01T16:03:39.001Z</time></trkpt><trkpt lat="42.737910399065605" lon="12.702479013670951"><ele>291.0</ele><time>2026-05-01T16:03:40.002Z</time></trkpt><trkpt lat="42.73800302962318" lon="12.70266603611461"><ele>291.0</ele><time>2026-05-01T16:03:41.002Z</time></trkpt><trkpt lat="42.738093772957896" lon="12.702849428100286"><ele>291.6666666666667</ele><time>2026-05-01T16:03:42.002Z</time></trkpt><trkpt lat="42.738185104562106" lon="12.703046373209997"><ele>292.33333333333337</ele><time>2026-05-01T16:03:43.002Z</time></trkpt><trkpt lat="42.738279826694054" lon="12.703257249031976"><ele>293.0</ele><time>2026-05-01T16:03:44.002Z</time></trkpt><trkpt lat="42.738386128239284" lon="12.703486797270132"><ele>293.33333333333337</ele><time>2026-05-01T16:03:45.002Z</time></trkpt><trkpt lat="42.73850170495348" lon="12.703721713485193"><ele>293.6666666666667</ele><time>2026-05-01T16:03:46.002Z</time></trkpt><trkpt lat="42.73862106701577" lon="12.703977581742048"><ele>294.0</ele><time>2026-05-01T16:03:47.002Z</time></trkpt><trkpt lat="42.738747178783676" lon="12.70424012947597"><ele>295.0</ele><time>2026-05-01T16:03:48.002Z</time></trkpt><trkpt lat="42.738880169597195" lon="12.704511667313469"><ele>296.0</ele><time>2026-05-01T16:03:49.002Z</time></trkpt><trkpt lat="42.73901468446709" lon="12.7047853684163"><ele>296.0</ele><time>2026-05-01T16:03:50.002Z</time></trkpt><trkpt lat="42.73914428598869" lon="12.705063687666431"><ele>296.0</ele><time>2026-05-01T16:03:51.002Z</time></trkpt><trkpt lat="42.7392762650452" lon="12.705343822973564"><ele>295.0</ele><time>2026-05-01T16:03:52.002Z</time></trkpt><trkpt lat="42.739413314139235" lon="12.705627005605663"><ele>294.0</ele><time>2026-05-01T16:03:53.001Z</time></trkpt><trkpt lat="42.7395506975244" lon="12.705908958411982"><ele>295.5</ele><time>2026-05-01T16:03:54.001Z</time></trkpt><trkpt lat="42.739681382861484" lon="12.706183957556737"><ele>297.0</ele><time>2026-05-01T16:03:55.001Z</time></trkpt><trkpt lat="42.739797304395715" lon="12.706428446541958"><ele>297.0</ele><time>2026-05-01T16:03:56.001Z</time></trkpt><trkpt lat="42.73990820813006" lon="12.706662576330464"><ele>297.0</ele><time>2026-05-01T16:03:57.001Z</time></trkpt><trkpt lat="42.740027793039374" lon="12.706898016920096"><ele>297.0</ele><time>2026-05-01T16:03:58.001Z</time></trkpt><trkpt lat="42.74014731822941" lon="12.70713124855759"><ele>297.3333333333333</ele><time>2026-05-01T16:03:59.001Z</time></trkpt><trkpt lat="42.7402602661867" lon="12.70735960479855"><ele>297.66666666666663</ele><time>2026-05-01T16:04:00.001Z</time></trkpt><trkpt lat="42.74036037604839" lon="12.707577235736467"><ele>298.0</ele><time>2026-05-01T16:04:01.001Z</time></trkpt><trkpt lat="42.74046723005908" lon="12.70780943895026"><ele>297.3333333333333</ele><time>2026-05-01T16:04:02.001Z</time></trkpt><trkpt lat="42.74057935934076" lon="12.708047538483058"><ele>296.6666666666667</ele><time>2026-05-01T16:04:03.001Z</time></trkpt><trkpt lat="42.740698467458344" lon="12.708282893780424"><ele>296.0</ele><time>2026-05-01T16:04:04.001Z</time></trkpt><trkpt lat="42.74081352173867" lon="12.708520204195366"><ele>296.0</ele><time>2026-05-01T16:04:05.001Z</time></trkpt><trkpt lat="42.74092961520589" lon="12.708759408329"><ele>296.0</ele><time>2026-05-01T16:04:06.001Z</time></trkpt><trkpt lat="42.7410451586949" lon="12.708996634998151"><ele>296.0</ele><time>2026-05-01T16:04:07.001Z</time></trkpt><trkpt lat="42.741164221115625" lon="12.70923909452308"><ele>295.33333333333337</ele><time>2026-05-01T16:04:08.001Z</time></trkpt><trkpt lat="42.74128208791584" lon="12.709479508133274"><ele>294.6666666666667</ele><time>2026-05-01T16:04:09.001Z</time></trkpt><trkpt lat="42.74139854456411" lon="12.709732955843572"><ele>294.0</ele><time>2026-05-01T16:04:10.001Z</time></trkpt><trkpt lat="42.74151630057716" lon="12.709982966119739"><ele>294.0</ele><time>2026-05-01T16:04:11.001Z</time></trkpt><trkpt lat="42.74163210199402" lon="12.710225666639747"><ele>294.0</ele><time>2026-05-01T16:04:12.001Z</time></trkpt><trkpt lat="42.74174642857657" lon="12.710464734089605"><ele>294.0</ele><time>2026-05-01T16:04:13.001Z</time></trkpt><trkpt lat="42.741859069804086" lon="12.710704768389034"><ele>293.0</ele><time>2026-05-01T16:04:14.001Z</time></trkpt><trkpt lat="42.74197634373955" lon="12.71093882614526"><ele>292.0</ele><time>2026-05-01T16:04:15.001Z</time></trkpt><trkpt lat="42.742090538129226" lon="12.71117498451706"><ele>291.0</ele><time>2026-05-01T16:04:16.001Z</time></trkpt><trkpt lat="42.742203700047156" lon="12.71140863570286"><ele>291.0</ele><time>2026-05-01T16:04:17.001Z</time></trkpt><trkpt lat="42.74231622769681" lon="12.71164032314034"><ele>291.0</ele><time>2026-05-01T16:04:18.001Z</time></trkpt><trkpt lat="42.74242668948152" lon="12.71186725054126"><ele>291.0</ele><time>2026-05-01T16:04:19.001Z</time></trkpt><trkpt lat="42.742529102811254" lon="12.712082343899963"><ele>291.0</ele><time>2026-05-01T16:04:20.001Z</time></trkpt><trkpt lat="42.742629363376984" lon="12.712285173833116"><ele>291.0</ele><time>2026-05-01T16:04:21.001Z</time></trkpt><trkpt lat="42.742726177537875" lon="12.71248469847494"><ele>291.0</ele><time>2026-05-01T16:04:22.001Z</time></trkpt><trkpt lat="42.74282499382689" lon="12.712695493648058"><ele>290.3333333333333</ele><time>2026-05-01T16:04:23.001Z</time></trkpt><trkpt lat="42.742932229377054" lon="12.712923634320745"><ele>289.66666666666663</ele><time>2026-05-01T16:04:24.001Z</time></trkpt><trkpt lat="42.743054006743236" lon="12.713163936878827"><ele>289.0</ele><time>2026-05-01T16:04:25.001Z</time></trkpt><trkpt lat="42.74318369112931" lon="12.713391245253845"><ele>288.66666666666663</ele><time>2026-05-01T16:04:26.001Z</time></trkpt><trkpt lat="42.74331600522916" lon="12.713592976077447"><ele>288.3333333333333</ele><time>2026-05-01T16:04:27.001Z</time></trkpt><trkpt lat="42.743464515594454" lon="12.713781001314622"><ele>288.0</ele><time>2026-05-01T16:04:28.001Z</time></trkpt><trkpt lat="42.74361850943006" lon="12.713967767024117"><ele>288.0</ele><time>2026-05-01T16:04:29.001Z</time></trkpt><trkpt lat="42.74376212704135" lon="12.714141991527288"><ele>288.0</ele><time>2026-05-01T16:04:30.001Z</time></trkpt><trkpt lat="42.743895948132" lon="12.714304963811124"><ele>288.0</ele><time>2026-05-01T16:04:31.001Z</time></trkpt><trkpt lat="42.74401777336888" lon="12.714460269206844"><ele>288.5</ele><time>2026-05-01T16:04:32.001Z</time></trkpt><trkpt lat="42.744129531640624" lon="12.714605698303627"><ele>289.0</ele><time>2026-05-01T16:04:33.001Z</time></trkpt><trkpt lat="42.74422918395362" lon="12.714727687260723"><ele>289.5</ele><time>2026-05-01T16:04:34.001Z</time></trkpt><trkpt lat="42.74430999662172" lon="12.714822794103657"><ele>290.0</ele><time>2026-05-01T16:04:35.001Z</time></trkpt><trkpt lat="42.74437751294664" lon="12.71490934635193"><ele>289.6666666666667</ele><time>2026-05-01T16:04:36.001Z</time></trkpt><trkpt lat="42.74442991304051" lon="12.715001332472722"><ele>289.33333333333337</ele><time>2026-05-01T16:04:37.001Z</time></trkpt><trkpt lat="42.74446162951407" lon="12.71511694178674"><ele>289.0</ele><time>2026-05-01T16:04:38.001Z</time></trkpt><trkpt lat="42.744486310027156" lon="12.71524241593422"><ele>288.6666666666667</ele><time>2026-05-01T16:04:39.001Z</time></trkpt><trkpt lat="42.74451738940825" lon="12.715338820035747"><ele>288.3333333333333</ele><time>2026-05-01T16:04:40.001Z</time></trkpt><trkpt lat="42.744562139023316" lon="12.715405039037963"><ele>288.0</ele><time>2026-05-01T16:04:41.001Z</time></trkpt><trkpt lat="42.74463053136224" lon="12.715454599789913"><ele>288.0</ele><time>2026-05-01T16:04:42.001Z</time></trkpt><trkpt lat="42.74472307325857" lon="12.715485771141369"><ele>288.0</ele><time>2026-05-01T16:04:43.001Z</time></trkpt><trkpt lat="42.74482642401283" lon="12.715518642304952"><ele>288.0</ele><time>2026-05-01T16:04:44.001Z</time></trkpt><trkpt lat="42.74493932809138" lon="12.71558850321278"><ele>288.0</ele><time>2026-05-01T16:04:45.001Z</time></trkpt><trkpt lat="42.745039803372556" lon="12.715699718746857"><ele>288.0</ele><time>2026-05-01T16:04:46.001Z</time></trkpt><trkpt lat="42.74513044584611" lon="12.715838791968059"><ele>288.0</ele><time>2026-05-01T16:04:47.001Z</time></trkpt><trkpt lat="42.74523063843356" lon="12.715983979878624"><ele>288.0</ele><time>2026-05-01T16:04:48.001Z</time></trkpt><trkpt lat="42.74533965465111" lon="12.716116464864532"><ele>288.0</ele><time>2026-05-01T16:04:49.001Z</time></trkpt><trkpt lat="42.74545348014245" lon="12.716243246465648"><ele>287.25</ele><time>2026-05-01T16:04:50.001Z</time></trkpt><trkpt lat="42.74555974936541" lon="12.716371470422905"><ele>286.5</ele><time>2026-05-01T16:04:51.001Z</time></trkpt><trkpt lat="42.745661645362105" lon="12.716502954597543"><ele>285.75</ele><time>2026-05-01T16:04:52.001Z</time></trkpt><trkpt lat="42.745761961569336" lon="12.716630165028729"><ele>285.0</ele><time>2026-05-01T16:04:53.001Z</time></trkpt><trkpt lat="42.7458649245678" lon="12.71675552487011"><ele>285.0</ele><time>2026-05-01T16:04:54.001Z</time></trkpt><trkpt lat="42.74596591185314" lon="12.716880986693852"><ele>285.0</ele><time>2026-05-01T16:04:55.001Z</time></trkpt><trkpt lat="42.74606820008264" lon="12.71701228070521"><ele>285.0</ele><time>2026-05-01T16:04:56.001Z</time></trkpt><trkpt lat="42.746170122041526" lon="12.71714620023371"><ele>285.0</ele><time>2026-05-01T16:04:57.001Z</time></trkpt><trkpt lat="42.74627348577362" lon="12.717283215251028"><ele>285.0</ele><time>2026-05-01T16:04:58.001Z</time></trkpt><trkpt lat="42.74637760088516" lon="12.717415054034706"><ele>285.0</ele><time>2026-05-01T16:04:59.001Z</time></trkpt><trkpt lat="42.7465950050278" lon="12.717680392550081"><ele>285.0</ele><time>2026-05-01T16:05:01.001Z</time></trkpt><trkpt lat="42.746701248466465" lon="12.717813171945247"><ele>285.0</ele><time>2026-05-01T16:05:02.001Z</time></trkpt><trkpt lat="42.74680696562435" lon="12.71794945540927"><ele>285.0</ele><time>2026-05-01T16:05:03.001Z</time></trkpt><trkpt lat="42.746912768511855" lon="12.718083669343844"><ele>285.0</ele><time>2026-05-01T16:05:04.001Z</time></trkpt><trkpt lat="42.74701960277879" lon="12.718213481873262"><ele>285.0</ele><time>2026-05-01T16:05:05.001Z</time></trkpt><trkpt lat="42.74712284087998" lon="12.718348386665573"><ele>285.0</ele><time>2026-05-01T16:05:06.001Z</time></trkpt><trkpt lat="42.747220334480666" lon="12.71847762848826"><ele>285.0</ele><time>2026-05-01T16:05:07.001Z</time></trkpt><trkpt lat="42.74733882046695" lon="12.718604767194082"><ele>285.0</ele><time>2026-05-01T16:05:08.001Z</time></trkpt><trkpt lat="42.74744335830101" lon="12.718738209446874"><ele>285.0</ele><time>2026-05-01T16:05:09Z</time></trkpt><trkpt lat="42.74754236434112" lon="12.718878956328725"><ele>285.0</ele><time>2026-05-01T16:05:10Z</time></trkpt><trkpt lat="42.747639888676936" lon="12.719020364172232"><ele>285.0</ele><time>2026-05-01T16:05:11Z</time></trkpt><trkpt lat="42.74772533864234" lon="12.719172441681389"><ele>285.0</ele><time>2026-05-01T16:05:12Z</time></trkpt><trkpt lat="42.747818760997" lon="12.719315886346074"><ele>285.0</ele><time>2026-05-01T16:05:13Z</time></trkpt><trkpt lat="42.747915686230684" lon="12.719465026695453"><ele>285.5</ele><time>2026-05-01T16:05:14Z</time></trkpt><trkpt lat="42.748006269228846" lon="12.719624032927017"><ele>286.0</ele><time>2026-05-01T16:05:15Z</time></trkpt><trkpt lat="42.74809788853013" lon="12.719787381645828"><ele>286.5</ele><time>2026-05-01T16:05:16Z</time></trkpt><trkpt lat="42.74818239134598" lon="12.719952580228533"><ele>287.0</ele><time>2026-05-01T16:05:17Z</time></trkpt><trkpt lat="42.74826219023671" lon="12.720127565177735"><ele>288.25</ele><time>2026-05-01T16:05:18Z</time></trkpt><trkpt lat="42.74833604285677" lon="12.72030366191528"><ele>289.5</ele><time>2026-05-01T16:05:19Z</time></trkpt><trkpt lat="42.74840889231343" lon="12.720481366670525"><ele>290.75</ele><time>2026-05-01T16:05:20Z</time></trkpt><trkpt lat="42.74847488561677" lon="12.720663202446099"><ele>292.0</ele><time>2026-05-01T16:05:21Z</time></trkpt><trkpt lat="42.74853753472661" lon="12.720856982524605"><ele>290.3333333333333</ele><time>2026-05-01T16:05:22Z</time></trkpt><trkpt lat="42.74859492756504" lon="12.721053702754194"><ele>288.6666666666667</ele><time>2026-05-01T16:05:23Z</time></trkpt><trkpt lat="42.74864980381355" lon="12.721251892535753"><ele>287.0</ele><time>2026-05-01T16:05:24Z</time></trkpt><trkpt lat="42.74869380256687" lon="12.721462277496451"><ele>287.0</ele><time>2026-05-01T16:05:25Z</time></trkpt><trkpt lat="42.748738481587196" lon="12.721672201827207"><ele>287.0</ele><time>2026-05-01T16:05:26Z</time></trkpt><trkpt lat="42.74877569199166" lon="12.721886292640825"><ele>287.0</ele><time>2026-05-01T16:05:27Z</time></trkpt><trkpt lat="42.74881122908557" lon="12.722098604967242"><ele>289.33333333333337</ele><time>2026-05-01T16:05:28Z</time></trkpt><trkpt lat="42.748843963568056" lon="12.722306737579242"><ele>291.6666666666667</ele><time>2026-05-01T16:05:29Z</time></trkpt><trkpt lat="42.74885724904054" lon="12.722503156289786"><ele>294.0</ele><time>2026-05-01T16:05:30Z</time></trkpt><trkpt lat="42.7488657606341" lon="12.72270794541406"><ele>295.0</ele><time>2026-05-01T16:05:31Z</time></trkpt><trkpt lat="42.74887114589694" lon="12.72291484654619"><ele>296.0</ele><time>2026-05-01T16:05:32Z</time></trkpt><trkpt lat="42.74887907693145" lon="12.723118214000968"><ele>297.0</ele><time>2026-05-01T16:05:33Z</time></trkpt><trkpt lat="42.74888341588309" lon="12.723325108312798"><ele>297.0</ele><time>2026-05-01T16:05:34Z</time></trkpt><trkpt lat="42.748878433395724" lon="12.723535237663361"><ele>297.0</ele><time>2026-05-01T16:05:35Z</time></trkpt><trkpt lat="42.74888136405404" lon="12.7237645508315"><ele>297.0</ele><time>2026-05-01T16:05:36Z</time></trkpt><trkpt lat="42.74886570742139" lon="12.723994112899096"><ele>297.0</ele><time>2026-05-01T16:05:37Z</time></trkpt><trkpt lat="42.74885171068785" lon="12.724223278719645"><ele>297.0</ele><time>2026-05-01T16:05:38Z</time></trkpt><trkpt lat="42.74884127371747" lon="12.724445513571672"><ele>297.0</ele><time>2026-05-01T16:05:39Z</time></trkpt><trkpt lat="42.74882945793373" lon="12.724678926325963"><ele>297.0</ele><time>2026-05-01T16:05:40Z</time></trkpt><trkpt lat="42.74881718051803" lon="12.724919620260938"><ele>297.0</ele><time>2026-05-01T16:05:41Z</time></trkpt><trkpt lat="42.7488040284103" lon="12.725157777804666"><ele>297.0</ele><time>2026-05-01T16:05:42Z</time></trkpt><trkpt lat="42.74879486005922" lon="12.725397384203802"><ele>296.0</ele><time>2026-05-01T16:05:43Z</time></trkpt><trkpt lat="42.74878388734101" lon="12.725637957069345"><ele>295.0</ele><time>2026-05-01T16:05:44Z</time></trkpt><trkpt lat="42.74876973285227" lon="12.725899538770541"><ele>294.0</ele><time>2026-05-01T16:05:45Z</time></trkpt><trkpt lat="42.74875988329881" lon="12.726158417766177"><ele>294.0</ele><time>2026-05-01T16:05:46.001Z</time></trkpt><trkpt lat="42.74874910838041" lon="12.726390109405198"><ele>294.0</ele><time>2026-05-01T16:05:47.001Z</time></trkpt><trkpt lat="42.74873420373557" lon="12.726613534764688"><ele>294.0</ele><time>2026-05-01T16:05:48.001Z</time></trkpt><trkpt lat="42.74872412879569" lon="12.726846992534885"><ele>294.6666666666667</ele><time>2026-05-01T16:05:49.001Z</time></trkpt><trkpt lat="42.74871465649883" lon="12.727072927168644"><ele>295.33333333333337</ele><time>2026-05-01T16:05:50.001Z</time></trkpt><trkpt lat="42.74870979225705" lon="12.727282750043143"><ele>296.0</ele><time>2026-05-01T16:05:51.001Z</time></trkpt><trkpt lat="42.74870214987844" lon="12.727475345850067"><ele>296.0</ele><time>2026-05-01T16:05:52.001Z</time></trkpt><trkpt lat="42.748693728282" lon="12.727640930234022"><ele>296.0</ele><time>2026-05-01T16:05:53.001Z</time></trkpt><trkpt lat="42.74868378518986" lon="12.727776944687108"><ele>296.0</ele><time>2026-05-01T16:05:54.001Z</time></trkpt><trkpt lat="42.74867756226218" lon="12.727885179558823"><ele>296.0</ele><time>2026-05-01T16:05:55.001Z</time></trkpt><trkpt lat="42.74872764245314" lon="12.727998007557842"><ele>296.0</ele><time>2026-05-01T16:05:57.001Z</time></trkpt><trkpt lat="42.74881371288171" lon="12.727951617997569"><ele>296.0</ele><time>2026-05-01T16:05:59.001Z</time></trkpt><trkpt lat="42.74882202345042" lon="12.727791132179124"><ele>296.0</ele><time>2026-05-01T16:06:01.001Z</time></trkpt><trkpt lat="42.74881801990696" lon="12.727659792971352"><ele>296.0</ele><time>2026-05-01T16:06:03.001Z</time></trkpt><trkpt lat="42.74879758538185" lon="12.727521908065306"><ele>296.0</ele><time>2026-05-01T16:10:47.999Z</time></trkpt><trkpt lat="42.74871619257916" lon="12.727550526230619"><ele>296.0</ele><time>2026-05-01T16:11:31.999Z</time></trkpt><trkpt lat="42.74869472368385" lon="12.727663121375164"><ele>296.0</ele><time>2026-05-01T16:11:32.999Z</time></trkpt><trkpt lat="42.748686075903606" lon="12.727790011465453"><ele>296.0</ele><time>2026-05-01T16:11:33.999Z</time></trkpt><trkpt lat="42.748684024965044" lon="12.727937652650626"><ele>296.0</ele><time>2026-05-01T16:11:34.999Z</time></trkpt><trkpt lat="42.748678658369" lon="12.728088762476798"><ele>296.0</ele><time>2026-05-01T16:11:35.999Z</time></trkpt><trkpt lat="42.74867562816899" lon="12.728244271213061"><ele>296.0</ele><time>2026-05-01T16:11:36.999Z</time></trkpt><trkpt lat="42.74867301543335" lon="12.728377850430704"><ele>296.0</ele><time>2026-05-01T16:11:37.999Z</time></trkpt><trkpt lat="42.7486624873185" lon="12.728526671080449"><ele>296.0</ele><time>2026-05-01T16:11:38.999Z</time></trkpt><trkpt lat="42.748648645699504" lon="12.728674849137006"><ele>296.0</ele><time>2026-05-01T16:11:39.999Z</time></trkpt><trkpt lat="42.7486421905707" lon="12.728805962645875"><ele>296.0</ele><time>2026-05-01T16:11:40.999Z</time></trkpt><trkpt lat="42.748637577344155" lon="12.728951542747424"><ele>296.0</ele><time>2026-05-01T16:11:41.999Z</time></trkpt><trkpt lat="42.748630634393905" lon="12.729098815542406"><ele>296.2</ele><time>2026-05-01T16:11:42.999Z</time></trkpt><trkpt lat="42.74862300078987" lon="12.729238229886581"><ele>296.40000000000003</ele><time>2026-05-01T16:11:43.999Z</time></trkpt><trkpt lat="42.74861717992" lon="12.729360553876313"><ele>296.6</ele><time>2026-05-01T16:11:44.999Z</time></trkpt><trkpt lat="42.74861139235485" lon="12.729480736557498"><ele>296.8</ele><time>2026-05-01T16:11:45.999Z</time></trkpt><trkpt lat="42.74859455789795" lon="12.72961836590837"><ele>297.0</ele><time>2026-05-01T16:11:46.999Z</time></trkpt><trkpt lat="42.74856097823243" lon="12.729771619826428"><ele>297.75</ele><time>2026-05-01T16:11:47.999Z</time></trkpt><trkpt lat="42.74848101625022" lon="12.729937418406626"><ele>298.5</ele><time>2026-05-01T16:11:48.999Z</time></trkpt><trkpt lat="42.74840339959752" lon="12.730108238394367"><ele>299.25</ele><time>2026-05-01T16:11:49.999Z</time></trkpt><trkpt lat="42.74832798719332" lon="12.73028445467892"><ele>300.0</ele><time>2026-05-01T16:11:50.999Z</time></trkpt><trkpt lat="42.74823302271087" lon="12.730454415299281"><ele>300.3333333333333</ele><time>2026-05-01T16:11:51.999Z</time></trkpt><trkpt lat="42.748129666219675" lon="12.730616108670985"><ele>300.66666666666663</ele><time>2026-05-01T16:11:52.999Z</time></trkpt><trkpt lat="42.74800786833504" lon="12.73077730170899"><ele>301.0</ele><time>2026-05-01T16:11:53.999Z</time></trkpt><trkpt lat="42.74786249462914" lon="12.730909252219845"><ele>301.0</ele><time>2026-05-01T16:11:54.999Z</time></trkpt><trkpt lat="42.747735767180494" lon="12.731049244592596"><ele>301.0</ele><time>2026-05-01T16:11:55.999Z</time></trkpt><trkpt lat="42.74760338339451" lon="12.731154543733126"><ele>301.0</ele><time>2026-05-01T16:11:56.999Z</time></trkpt><trkpt lat="42.747455812823354" lon="12.73131458361144"><ele>302.0</ele><time>2026-05-01T16:11:57.999Z</time></trkpt><trkpt lat="42.74730978965233" lon="12.73146564441492"><ele>303.0</ele><time>2026-05-01T16:11:58.999Z</time></trkpt><trkpt lat="42.74715356396192" lon="12.731629718049078"><ele>304.0</ele><time>2026-05-01T16:11:59.999Z</time></trkpt><trkpt lat="42.74699289196023" lon="12.73179418297626"><ele>304.0</ele><time>2026-05-01T16:12:00.999Z</time></trkpt><trkpt lat="42.7468395369533" lon="12.731956042482357"><ele>304.0</ele><time>2026-05-01T16:12:01.999Z</time></trkpt><trkpt lat="42.7466926341385" lon="12.732114752685229"><ele>304.0</ele><time>2026-05-01T16:12:02.999Z</time></trkpt><trkpt lat="42.74654844066422" lon="12.732263257773036"><ele>304.0</ele><time>2026-05-01T16:12:03.999Z</time></trkpt><trkpt lat="42.746405207069465" lon="12.73241177807429"><ele>304.0</ele><time>2026-05-01T16:12:04.999Z</time></trkpt><trkpt lat="42.74626375583929" lon="12.732563680315868"><ele>304.0</ele><time>2026-05-01T16:12:05.999Z</time></trkpt><trkpt lat="42.74613066438777" lon="12.732713878460288"><ele>304.75</ele><time>2026-05-01T16:12:06.999Z</time></trkpt><trkpt lat="42.746008095332776" lon="12.732841480367213"><ele>305.5</ele><time>2026-05-01T16:12:07.999Z</time></trkpt><trkpt lat="42.74589472448066" lon="12.73295496361526"><ele>306.25</ele><time>2026-05-01T16:12:08.999Z</time></trkpt><trkpt lat="42.74579329791251" lon="12.733054719038654"><ele>307.0</ele><time>2026-05-01T16:12:09.999Z</time></trkpt><trkpt lat="42.74570401320432" lon="12.733139989941453"><ele>307.0</ele><time>2026-05-01T16:12:10.999Z</time></trkpt><trkpt lat="42.74562305194346" lon="12.733219098188124"><ele>307.0</ele><time>2026-05-01T16:12:11.999Z</time></trkpt><trkpt lat="42.74554984566833" lon="12.733289526607646"><ele>307.0</ele><time>2026-05-01T16:12:12.999Z</time></trkpt><trkpt lat="42.74548069725186" lon="12.733344083608289"><ele>307.0</ele><time>2026-05-01T16:12:13.999Z</time></trkpt><trkpt lat="42.745404703579126" lon="12.733392921924642"><ele>307.0</ele><time>2026-05-01T16:12:15.999Z</time></trkpt><trkpt lat="42.74531753665485" lon="12.733444308771505"><ele>307.0</ele><time>2026-05-01T16:12:17.999Z</time></trkpt><trkpt lat="42.74522405369997" lon="12.733582364950639"><ele>307.16666666666663</ele><time>2026-05-01T16:12:19.999Z</time></trkpt><trkpt lat="42.74516439704058" lon="12.733663721644136"><ele>307.3333333333333</ele><time>2026-05-01T16:12:20.999Z</time></trkpt><trkpt lat="42.745087799513726" lon="12.733735170461669"><ele>307.5</ele><time>2026-05-01T16:12:21.999Z</time></trkpt><trkpt lat="42.745009024564894" lon="12.733794807701463"><ele>307.6666666666667</ele><time>2026-05-01T16:12:22.999Z</time></trkpt><trkpt lat="42.74494017803613" lon="12.733850126028473"><ele>307.83333333333337</ele><time>2026-05-01T16:12:23.999Z</time></trkpt><trkpt lat="42.74486863704652" lon="12.733911638767692"><ele>308.0</ele><time>2026-05-01T16:12:24.999Z</time></trkpt><trkpt lat="42.74479678005626" lon="12.733980585173985"><ele>308.0</ele><time>2026-05-01T16:12:25.999Z</time></trkpt><trkpt lat="42.744727919781184" lon="12.734043512447672"><ele>308.0</ele><time>2026-05-01T16:12:26.999Z</time></trkpt><trkpt lat="42.74465728834273" lon="12.73410025684428"><ele>308.0</ele><time>2026-05-01T16:12:27.999Z</time></trkpt><trkpt lat="42.7445837826111" lon="12.734149095355283"><ele>308.0</ele><time>2026-05-01T16:12:28.999Z</time></trkpt><trkpt lat="42.74451237110398" lon="12.73418776726401"><ele>308.0</ele><time>2026-05-01T16:12:29.999Z</time></trkpt><trkpt lat="42.74443847276321" lon="12.73423075567185"><ele>308.0</ele><time>2026-05-01T16:12:30.999Z</time></trkpt><trkpt lat="42.74436878899031" lon="12.734273982714901"><ele>308.1666666666667</ele><time>2026-05-01T16:12:31.999Z</time></trkpt><trkpt lat="42.744303221163534" lon="12.734306558229667"><ele>308.33333333333337</ele><time>2026-05-01T16:12:32.999Z</time></trkpt><trkpt lat="42.74422630616912" lon="12.73434463294733"><ele>308.5</ele><time>2026-05-01T16:12:33.999Z</time></trkpt><trkpt lat="42.744158767663926" lon="12.734382608345797"><ele>308.6666666666667</ele><time>2026-05-01T16:12:34.999Z</time></trkpt><trkpt lat="42.74408489581595" lon="12.734427835846393"><ele>308.8333333333333</ele><time>2026-05-01T16:12:35.999Z</time></trkpt><trkpt lat="42.744005164222706" lon="12.734486882773435"><ele>309.0</ele><time>2026-05-01T16:12:36.999Z</time></trkpt><trkpt lat="42.74392809595762" lon="12.734541847308808"><ele>309.0</ele><time>2026-05-01T16:12:37.999Z</time></trkpt><trkpt lat="42.74385617315421" lon="12.734590556046628"><ele>309.0</ele><time>2026-05-01T16:12:38.999Z</time></trkpt><trkpt lat="42.743784359783334" lon="12.734631494478167"><ele>309.0</ele><time>2026-05-01T16:12:39.999Z</time></trkpt><trkpt lat="42.7437100900698" lon="12.734662735800978"><ele>309.0</ele><time>2026-05-01T16:12:40.999Z</time></trkpt><trkpt lat="42.743626072172525" lon="12.734691066191395"><ele>309.0</ele><time>2026-05-01T16:12:41.999Z</time></trkpt><trkpt lat="42.743539708394174" lon="12.734711936666747"><ele>309.0</ele><time>2026-05-01T16:12:42.999Z</time></trkpt><trkpt lat="42.74344835464208" lon="12.734734939282843"><ele>309.1666666666667</ele><time>2026-05-01T16:12:43.999Z</time></trkpt><trkpt lat="42.74335639103823" lon="12.734768614786468"><ele>309.3333333333333</ele><time>2026-05-01T16:12:44.999Z</time></trkpt><trkpt lat="42.74326111194448" lon="12.73482003125376"><ele>309.5</ele><time>2026-05-01T16:12:45.999Z</time></trkpt><trkpt lat="42.743184405102774" lon="12.734880210657732"><ele>309.66666666666663</ele><time>2026-05-01T16:12:46.999Z</time></trkpt><trkpt lat="42.74311440679224" lon="12.734935646797645"><ele>309.8333333333333</ele><time>2026-05-01T16:12:47.999Z</time></trkpt><trkpt lat="42.74305227512217" lon="12.734977715381069"><ele>310.0</ele><time>2026-05-01T16:12:48.999Z</time></trkpt><trkpt lat="42.742990279325085" lon="12.735020740062646"><ele>310.0</ele><time>2026-05-01T16:12:49.999Z</time></trkpt><trkpt lat="42.7429152292836" lon="12.73506834122282"><ele>310.0</ele><time>2026-05-01T16:12:50.999Z</time></trkpt><trkpt lat="42.74283811775826" lon="12.735120565911974"><ele>310.0</ele><time>2026-05-01T16:12:51.999Z</time></trkpt><trkpt lat="42.742764102156" lon="12.735175810139804"><ele>310.0</ele><time>2026-05-01T16:12:52.999Z</time></trkpt><trkpt lat="42.74268718752466" lon="12.735203494421102"><ele>310.0</ele><time>2026-05-01T16:12:53.999Z</time></trkpt><trkpt lat="42.74262396809736" lon="12.73524584663453"><ele>310.0</ele><time>2026-05-01T16:12:54.999Z</time></trkpt><trkpt lat="42.74254934870072" lon="12.735295835999567"><ele>310.3333333333333</ele><time>2026-05-01T16:12:55.999Z</time></trkpt><trkpt lat="42.74247616106544" lon="12.735347685809176"><ele>310.66666666666663</ele><time>2026-05-01T16:12:56.999Z</time></trkpt><trkpt lat="42.742404392788856" lon="12.735399111952818"><ele>311.0</ele><time>2026-05-01T16:12:57.999Z</time></trkpt><trkpt lat="42.74233516412281" lon="12.735451805899938"><ele>311.3333333333333</ele><time>2026-05-01T16:12:58.999Z</time></trkpt><trkpt lat="42.742269456007605" lon="12.735505207204861"><ele>311.6666666666667</ele><time>2026-05-01T16:12:59.999Z</time></trkpt><trkpt lat="42.742211875069856" lon="12.735552529493658"><ele>312.0</ele><time>2026-05-01T16:13:00.999Z</time></trkpt><trkpt lat="42.74215508691833" lon="12.735604522955267"><ele>312.0</ele><time>2026-05-01T16:13:01.999Z</time></trkpt><trkpt lat="42.74209977059642" lon="12.73565738758654"><ele>312.0</ele><time>2026-05-01T16:13:02.999Z</time></trkpt><trkpt lat="42.74204164276782" lon="12.735718480693443"><ele>312.0</ele><time>2026-05-01T16:13:03.999Z</time></trkpt><trkpt lat="42.74199318117276" lon="12.735777367467762"><ele>312.0</ele><time>2026-05-01T16:13:04.999Z</time></trkpt><trkpt lat="42.74194438330471" lon="12.735837674359216"><ele>312.0</ele><time>2026-05-01T16:13:05.999Z</time></trkpt><trkpt lat="42.741905155881135" lon="12.735916875750231"><ele>312.0</ele><time>2026-05-01T16:13:06.999Z</time></trkpt><trkpt lat="42.741850432602355" lon="12.735974017162093"><ele>312.0</ele><time>2026-05-01T16:13:07.999Z</time></trkpt><trkpt lat="42.741797208291125" lon="12.736027040157323"><ele>313.0</ele><time>2026-05-01T16:13:08.999Z</time></trkpt><trkpt lat="42.74170535411231" lon="12.736091238431776"><ele>314.0</ele><time>2026-05-01T16:13:10.999Z</time></trkpt><trkpt lat="42.741604598249026" lon="12.736120106353582"><ele>315.0</ele><time>2026-05-01T16:13:12.999Z</time></trkpt><trkpt lat="42.74148385678616" lon="12.736124972137059"><ele>316.0</ele><time>2026-05-01T16:13:18.999Z</time></trkpt><trkpt lat="42.741355740380236" lon="12.73613393305666"><ele>316.0</ele><time>2026-05-01T16:13:20.999Z</time></trkpt><trkpt lat="42.741233034954966" lon="12.736157241622498"><ele>316.0</ele><time>2026-05-01T16:13:22.999Z</time></trkpt><trkpt lat="42.741149414563175" lon="12.736166731068348"><ele>316.0</ele><time>2026-05-01T16:13:24.999Z</time></trkpt><trkpt lat="42.74107977514909" lon="12.736175161991776"><ele>316.0</ele><time>2026-05-01T16:13:26.999Z</time></trkpt><trkpt lat="42.74098782265486" lon="12.736178989873212"><ele>316.0</ele><time>2026-05-01T16:13:29.999Z</time></trkpt><trkpt lat="42.74090170838046" lon="12.736203728887302"><ele>316.8</ele><time>2026-05-01T16:13:31.999Z</time></trkpt><trkpt lat="42.74077624837042" lon="12.736215661055333"><ele>317.6</ele><time>2026-05-01T16:13:33.999Z</time></trkpt><trkpt lat="42.74067355032777" lon="12.73630080822788"><ele>318.4</ele><time>2026-05-01T16:13:35.999Z</time></trkpt><trkpt lat="42.7406445620893" lon="12.736387987275224"><ele>319.2</ele><time>2026-05-01T16:13:36.999Z</time></trkpt><trkpt lat="42.74060906264719" lon="12.736498068816598"><ele>320.0</ele><time>2026-05-01T16:13:37.999Z</time></trkpt><trkpt lat="42.740559870830445" lon="12.736610616493133"><ele>320.0</ele><time>2026-05-01T16:13:38.999Z</time></trkpt><trkpt lat="42.740499745677376" lon="12.736725199356346"><ele>320.0</ele><time>2026-05-01T16:13:39.999Z</time></trkpt><trkpt lat="42.74045019765214" lon="12.736849027809898"><ele>320.0</ele><time>2026-05-01T16:13:40.999Z</time></trkpt><trkpt lat="42.740400635776574" lon="12.736977025498827"><ele>320.0</ele><time>2026-05-01T16:13:41.999Z</time></trkpt><trkpt lat="42.7403598374815" lon="12.737082599869561"><ele>320.0</ele><time>2026-05-01T16:13:42.999Z</time></trkpt><trkpt lat="42.74032155443072" lon="12.737167935753774"><ele>320.5</ele><time>2026-05-01T16:13:43.999Z</time></trkpt><trkpt lat="42.74029000289522" lon="12.73724460920552"><ele>321.0</ele><time>2026-05-01T16:13:44.999Z</time></trkpt><trkpt lat="42.74024976337372" lon="12.737365044274105"><ele>321.5</ele><time>2026-05-01T16:13:46.999Z</time></trkpt><trkpt lat="42.740271275286034" lon="12.737459032722269"><ele>322.0</ele><time>2026-05-01T16:13:48.999Z</time></trkpt><trkpt lat="42.74029979821401" lon="12.737556051744134"><ele>322.5</ele><time>2026-05-01T16:13:51.999Z</time></trkpt><trkpt lat="42.740303303725966" lon="12.737664641983786"><ele>323.0</ele><time>2026-05-01T16:13:54.999Z</time></trkpt><trkpt lat="42.740289534906815" lon="12.737765285262304"><ele>323.1666666666667</ele><time>2026-05-01T16:13:56.999Z</time></trkpt><trkpt lat="42.7403415561617" lon="12.73786784342421"><ele>323.33333333333337</ele><time>2026-05-01T16:13:57.999Z</time></trkpt><trkpt lat="42.74042781560821" lon="12.737878098723948"><ele>323.5</ele><time>2026-05-01T16:13:58.999Z</time></trkpt><trkpt lat="42.74052662266054" lon="12.737888709125372"><ele>323.6666666666667</ele><time>2026-05-01T16:14:00.999Z</time></trkpt><trkpt lat="42.740581504844315" lon="12.737937502973194"><ele>323.8333333333333</ele><time>2026-05-01T16:14:01.999Z</time></trkpt><trkpt lat="42.74063299911512" lon="12.73799268282219"><ele>324.0</ele><time>2026-05-01T16:14:02.999Z</time></trkpt><trkpt lat="42.74071314422443" lon="12.73808310694035"><ele>324.0</ele><time>2026-05-01T16:14:04.999Z</time></trkpt><trkpt lat="42.74081144267378" lon="12.738161445223609"><ele>324.0</ele><time>2026-05-01T16:14:06.999Z</time></trkpt><trkpt lat="42.74087242806734" lon="12.73821178413043"><ele>324.0</ele><time>2026-05-01T16:14:07.999Z</time></trkpt><trkpt lat="42.74092254374133" lon="12.738282902885626"><ele>324.0</ele><time>2026-05-01T16:14:08.999Z</time></trkpt><trkpt lat="42.74098185801423" lon="12.738320241798174"><ele>324.0</ele><time>2026-05-01T16:14:09.999Z</time></trkpt><trkpt lat="42.74104538182714" lon="12.738388900690506"><ele>324.0</ele><time>2026-05-01T16:14:11.999Z</time></trkpt><trkpt lat="42.741105943233165" lon="12.73847385336492"><ele>323.6</ele><time>2026-05-01T16:14:14Z</time></trkpt><trkpt lat="42.74115270376296" lon="12.738540650961486"><ele>323.2</ele><time>2026-05-01T16:14:15Z</time></trkpt><trkpt lat="42.74118711421069" lon="12.738613977062924"><ele>322.8</ele><time>2026-05-01T16:14:16Z</time></trkpt><trkpt lat="42.74123368344588" lon="12.738724550911485"><ele>322.40000000000003</ele><time>2026-05-01T16:14:17Z</time></trkpt><trkpt lat="42.74129793803572" lon="12.738878503583056"><ele>322.0</ele><time>2026-05-01T16:14:18Z</time></trkpt><trkpt lat="42.741365778752815" lon="12.73905205289135"><ele>323.25</ele><time>2026-05-01T16:14:19Z</time></trkpt><trkpt lat="42.741438877845745" lon="12.739225266883475"><ele>324.5</ele><time>2026-05-01T16:14:20Z</time></trkpt><trkpt lat="42.741514050666034" lon="12.739392417738525"><ele>325.75</ele><time>2026-05-01T16:14:21Z</time></trkpt><trkpt lat="42.74158746825074" lon="12.739547778795272"><ele>327.0</ele><time>2026-05-01T16:14:22Z</time></trkpt><trkpt lat="42.74166320050443" lon="12.739713460725973"><ele>327.6666666666667</ele><time>2026-05-01T16:14:23Z</time></trkpt><trkpt lat="42.741741674705096" lon="12.739900179143438"><ele>328.33333333333337</ele><time>2026-05-01T16:14:24Z</time></trkpt><trkpt lat="42.74181575382182" lon="12.740086125869539"><ele>329.0</ele><time>2026-05-01T16:14:25Z</time></trkpt><trkpt lat="42.741895217641485" lon="12.74026787141378"><ele>330.5</ele><time>2026-05-01T16:14:26Z</time></trkpt><trkpt lat="42.74197495969864" lon="12.74044889633596"><ele>332.0</ele><time>2026-05-01T16:14:27Z</time></trkpt><trkpt lat="42.7420460200877" lon="12.740621982853147"><ele>333.5</ele><time>2026-05-01T16:14:28Z</time></trkpt><trkpt lat="42.742106201511525" lon="12.740780211151167"><ele>335.0</ele><time>2026-05-01T16:14:29Z</time></trkpt><trkpt lat="42.74216317161826" lon="12.740924775507722"><ele>335.0</ele><time>2026-05-01T16:14:30Z</time></trkpt><trkpt lat="42.74222127178338" lon="12.74104777751309"><ele>335.0</ele><time>2026-05-01T16:14:31Z</time></trkpt><trkpt lat="42.74227546094242" lon="12.741146011881213"><ele>335.0</ele><time>2026-05-01T16:14:32Z</time></trkpt><trkpt lat="42.74235030745007" lon="12.741235373158176"><ele>335.0</ele><time>2026-05-01T16:14:33Z</time></trkpt><trkpt lat="42.74243640102176" lon="12.741297591603118"><ele>335.0</ele><time>2026-05-01T16:14:34Z</time></trkpt><trkpt lat="42.7425393973598" lon="12.741340337690813"><ele>335.0</ele><time>2026-05-01T16:14:35Z</time></trkpt><trkpt lat="42.74265535721945" lon="12.74139286575302"><ele>335.0</ele><time>2026-05-01T16:14:36Z</time></trkpt><trkpt lat="42.74278717118957" lon="12.741450780842209"><ele>335.0</ele><time>2026-05-01T16:14:36.999Z</time></trkpt><trkpt lat="42.74291848255101" lon="12.741501807907714"><ele>335.0</ele><time>2026-05-01T16:14:37.999Z</time></trkpt><trkpt lat="42.74304073398399" lon="12.741557466239126"><ele>334.25</ele><time>2026-05-01T16:14:38.999Z</time></trkpt><trkpt lat="42.743156164246805" lon="12.741614775130005"><ele>333.5</ele><time>2026-05-01T16:14:39.999Z</time></trkpt><trkpt lat="42.74327308348049" lon="12.741668947629343"><ele>332.75</ele><time>2026-05-01T16:14:40.999Z</time></trkpt><trkpt lat="42.74339206841448" lon="12.741721350024338"><ele>332.0</ele><time>2026-05-01T16:14:41.999Z</time></trkpt><trkpt lat="42.74350026072199" lon="12.741771859188129"><ele>331.33333333333337</ele><time>2026-05-01T16:14:42.999Z</time></trkpt><trkpt lat="42.743593820616084" lon="12.741804909693121"><ele>330.6666666666667</ele><time>2026-05-01T16:14:43.999Z</time></trkpt><trkpt lat="42.74366800279946" lon="12.741805311636904"><ele>330.0</ele><time>2026-05-01T16:14:44.999Z</time></trkpt><trkpt lat="42.743733913693056" lon="12.741763410313371"><ele>329.3333333333333</ele><time>2026-05-01T16:14:45.999Z</time></trkpt><trkpt lat="42.74377903782674" lon="12.74166147855864"><ele>328.66666666666663</ele><time>2026-05-01T16:14:46.999Z</time></trkpt><trkpt lat="42.74385154632745" lon="12.741560695348467"><ele>328.0</ele><time>2026-05-01T16:14:47.999Z</time></trkpt><trkpt lat="42.74392147819163" lon="12.74145140438273"><ele>328.0</ele><time>2026-05-01T16:14:48.999Z</time></trkpt><trkpt lat="42.74395826224975" lon="12.741342059591208"><ele>328.0</ele><time>2026-05-01T16:14:49.999Z</time></trkpt><trkpt lat="42.744077409694526" lon="12.741366516368087"><ele>328.0</ele><time>2026-05-01T16:14:50.999Z</time></trkpt><trkpt lat="42.74415587027061" lon="12.741369369027622"><ele>328.0</ele><time>2026-05-01T16:14:51.999Z</time></trkpt><trkpt lat="42.74425068631784" lon="12.741385662346119"><ele>328.0</ele><time>2026-05-01T16:14:52.999Z</time></trkpt><trkpt lat="42.74435344947392" lon="12.741447569925082"><ele>327.25</ele><time>2026-05-01T16:14:53.999Z</time></trkpt><trkpt lat="42.744446070274876" lon="12.741565190832533"><ele>326.5</ele><time>2026-05-01T16:14:54.999Z</time></trkpt><trkpt lat="42.744554566887686" lon="12.74166267121472"><ele>325.75</ele><time>2026-05-01T16:14:55.999Z</time></trkpt><trkpt lat="42.744667671127985" lon="12.741747788742222"><ele>325.0</ele><time>2026-05-01T16:14:56.999Z</time></trkpt><trkpt lat="42.744781047669974" lon="12.741847154548264"><ele>325.5</ele><time>2026-05-01T16:14:57.999Z</time></trkpt><trkpt lat="42.74488857633603" lon="12.74193693516317"><ele>326.0</ele><time>2026-05-01T16:14:58.999Z</time></trkpt><trkpt lat="42.74499035681904" lon="12.742021986753155"><ele>326.5</ele><time>2026-05-01T16:14:59.999Z</time></trkpt><trkpt lat="42.74508932771791" lon="12.74210298569323"><ele>327.0</ele><time>2026-05-01T16:15:00.999Z</time></trkpt><trkpt lat="42.74520423040899" lon="12.742183777589233"><ele>325.5</ele><time>2026-05-01T16:15:01.999Z</time></trkpt><trkpt lat="42.745317871857615" lon="12.742271380783361"><ele>324.0</ele><time>2026-05-01T16:15:02.999Z</time></trkpt><trkpt lat="42.74542033913102" lon="12.742366420259815"><ele>322.5</ele><time>2026-05-01T16:15:03.999Z</time></trkpt><trkpt lat="42.74551770334317" lon="12.742455484398977"><ele>321.0</ele><time>2026-05-01T16:15:04.999Z</time></trkpt><trkpt lat="42.74560721847506" lon="12.742538493365622"><ele>321.0</ele><time>2026-05-01T16:15:05.999Z</time></trkpt><trkpt lat="42.74567849301731" lon="12.742619226647363"><ele>321.0</ele><time>2026-05-01T16:15:06.999Z</time></trkpt><trkpt lat="42.74572425274815" lon="12.742713932471432"><ele>321.0</ele><time>2026-05-01T16:15:07.999Z</time></trkpt><trkpt lat="42.74574064364885" lon="12.742809910607514"><ele>321.0</ele><time>2026-05-01T16:15:08.999Z</time></trkpt><trkpt lat="42.74573192625891" lon="12.742897443296936"><ele>321.0</ele><time>2026-05-01T16:15:10.999Z</time></trkpt><trkpt lat="42.74574050743338" lon="12.743003459536746"><ele>321.0</ele><time>2026-05-01T16:15:14.999Z</time></trkpt><trkpt lat="42.74568424530743" lon="12.743154696533104"><ele>321.4</ele><time>2026-05-01T16:15:16.999Z</time></trkpt><trkpt lat="42.74562838152092" lon="12.743238476552293"><ele>321.8</ele><time>2026-05-01T16:15:17.999Z</time></trkpt><trkpt lat="42.745559217364885" lon="12.743332163721949"><ele>322.2</ele><time>2026-05-01T16:15:18.999Z</time></trkpt><trkpt lat="42.74548643041229" lon="12.74346114026692"><ele>322.59999999999997</ele><time>2026-05-01T16:15:19.999Z</time></trkpt><trkpt lat="42.74542283373446" lon="12.743593392557447"><ele>323.0</ele><time>2026-05-01T16:15:20.999Z</time></trkpt><trkpt lat="42.74535948475032" lon="12.743728762788496"><ele>323.25</ele><time>2026-05-01T16:15:21.999Z</time></trkpt><trkpt lat="42.74530085175207" lon="12.743877388922769"><ele>323.5</ele><time>2026-05-01T16:15:22.999Z</time></trkpt><trkpt lat="42.745248229901016" lon="12.744047648225573"><ele>323.75</ele><time>2026-05-01T16:15:23.999Z</time></trkpt><trkpt lat="42.74519869657812" lon="12.744185604861753"><ele>324.0</ele><time>2026-05-01T16:15:24.999Z</time></trkpt><trkpt lat="42.745149022056474" lon="12.744295807953883"><ele>325.5</ele><time>2026-05-01T16:15:25.999Z</time></trkpt><trkpt lat="42.74509751412993" lon="12.744373244404523"><ele>327.0</ele><time>2026-05-01T16:15:26.999Z</time></trkpt><trkpt lat="42.745037486162055" lon="12.744414118063371"><ele>328.5</ele><time>2026-05-01T16:15:27.999Z</time></trkpt><trkpt lat="42.74493495160175" lon="12.744500716247277"><ele>330.0</ele><time>2026-05-01T16:15:29.999Z</time></trkpt><trkpt lat="42.74504403509026" lon="12.744796418784901"><ele>330.5</ele><time>2026-05-01T16:15:31.999Z</time></trkpt><trkpt lat="42.745095564834244" lon="12.744919293763106"><ele>331.0</ele><time>2026-05-01T16:15:32.999Z</time></trkpt><trkpt lat="42.74516653809335" lon="12.74503106176608"><ele>331.5</ele><time>2026-05-01T16:15:33.999Z</time></trkpt><trkpt lat="42.74526329233974" lon="12.745123973361544"><ele>332.0</ele><time>2026-05-01T16:15:34.999Z</time></trkpt><trkpt lat="42.745363221101876" lon="12.74522297113731"><ele>330.25</ele><time>2026-05-01T16:15:35.999Z</time></trkpt><trkpt lat="42.74548751786324" lon="12.74531621485197"><ele>328.5</ele><time>2026-05-01T16:15:36.999Z</time></trkpt><trkpt lat="42.74561695736744" lon="12.745400121520433"><ele>326.75</ele><time>2026-05-01T16:15:37.999Z</time></trkpt><trkpt lat="42.745741046099845" lon="12.74546392564424"><ele>325.0</ele><time>2026-05-01T16:15:38.999Z</time></trkpt><trkpt lat="42.74586744038715" lon="12.745488340598937"><ele>325.0</ele><time>2026-05-01T16:15:39.999Z</time></trkpt><trkpt lat="42.74599973897024" lon="12.745449200852388"><ele>325.0</ele><time>2026-05-01T16:15:40.999Z</time></trkpt><trkpt lat="42.74612638314471" lon="12.745344396991705"><ele>325.0</ele><time>2026-05-01T16:15:41.999Z</time></trkpt><trkpt lat="42.74624310165632" lon="12.745216393013727"><ele>325.0</ele><time>2026-05-01T16:15:42.999Z</time></trkpt><trkpt lat="42.74635444836909" lon="12.745111224869467"><ele>323.5</ele><time>2026-05-01T16:15:43.999Z</time></trkpt><trkpt lat="42.746475278356165" lon="12.745040823010383"><ele>322.0</ele><time>2026-05-01T16:15:44.999Z</time></trkpt><trkpt lat="42.74659337489182" lon="12.745007744316872"><ele>320.5</ele><time>2026-05-01T16:15:45.999Z</time></trkpt><trkpt lat="42.74670851089372" lon="12.745016082602543"><ele>319.0</ele><time>2026-05-01T16:15:46.999Z</time></trkpt><trkpt lat="42.746828064558805" lon="12.745069690182278"><ele>317.66666666666663</ele><time>2026-05-01T16:15:47.999Z</time></trkpt><trkpt lat="42.7469617511335" lon="12.745115038295145"><ele>316.3333333333333</ele><time>2026-05-01T16:15:48.999Z</time></trkpt><trkpt lat="42.74708674995693" lon="12.745274726144766"><ele>315.0</ele><time>2026-05-01T16:15:49.999Z</time></trkpt><trkpt lat="42.74721625629608" lon="12.745394308608345"><ele>315.0</ele><time>2026-05-01T16:15:50.999Z</time></trkpt><trkpt lat="42.74734389135207" lon="12.745511917152719"><ele>315.0</ele><time>2026-05-01T16:15:51.999Z</time></trkpt><trkpt lat="42.747488477330855" lon="12.745638184546069"><ele>315.0</ele><time>2026-05-01T16:15:52.999Z</time></trkpt><trkpt lat="42.74763844076335" lon="12.74577846961498"><ele>313.6666666666667</ele><time>2026-05-01T16:15:53.999Z</time></trkpt><trkpt lat="42.74778922662733" lon="12.745933111277612"><ele>312.33333333333337</ele><time>2026-05-01T16:15:54.999Z</time></trkpt><trkpt lat="42.747940077966696" lon="12.746092798886021"><ele>311.0</ele><time>2026-05-01T16:15:55.999Z</time></trkpt><trkpt lat="42.7480890877762" lon="12.746242449474941"><ele>311.0</ele><time>2026-05-01T16:15:56.999Z</time></trkpt><trkpt lat="42.74823848823167" lon="12.746387644763558"><ele>311.0</ele><time>2026-05-01T16:15:57.999Z</time></trkpt><trkpt lat="42.74838451154885" lon="12.746536284071235"><ele>311.0</ele><time>2026-05-01T16:15:58.999Z</time></trkpt><trkpt lat="42.74852905749159" lon="12.746694161731494"><ele>310.6666666666667</ele><time>2026-05-01T16:15:59.999Z</time></trkpt><trkpt lat="42.748677025661806" lon="12.74685364433888"><ele>310.3333333333333</ele><time>2026-05-01T16:16:00.999Z</time></trkpt><trkpt lat="42.74882701210498" lon="12.747008866463892"><ele>310.0</ele><time>2026-05-01T16:16:01.999Z</time></trkpt><trkpt lat="42.74898067979755" lon="12.747166423707991"><ele>310.0</ele><time>2026-05-01T16:16:02.999Z</time></trkpt><trkpt lat="42.74913447096071" lon="12.747328504912325"><ele>310.0</ele><time>2026-05-01T16:16:03.999Z</time></trkpt><trkpt lat="42.74928078474327" lon="12.747485618082603"><ele>310.0</ele><time>2026-05-01T16:16:04.999Z</time></trkpt><trkpt lat="42.74941380371331" lon="12.747629400923318"><ele>308.75</ele><time>2026-05-01T16:16:05.999Z</time></trkpt><trkpt lat="42.74953673047653" lon="12.747757814118254"><ele>307.5</ele><time>2026-05-01T16:16:06.999Z</time></trkpt><trkpt lat="42.74964929866417" lon="12.747876244434558"><ele>306.25</ele><time>2026-05-01T16:16:07.999Z</time></trkpt><trkpt lat="42.74975252513092" lon="12.747987138808467"><ele>305.0</ele><time>2026-05-01T16:16:08.999Z</time></trkpt><trkpt lat="42.749856956309245" lon="12.748104861045155"><ele>305.0</ele><time>2026-05-01T16:16:09.999Z</time></trkpt><trkpt lat="42.74997829756151" lon="12.748242107671674"><ele>305.0</ele><time>2026-05-01T16:16:10.999Z</time></trkpt><trkpt lat="42.750113678762716" lon="12.748385819997592"><ele>305.0</ele><time>2026-05-01T16:16:11.999Z</time></trkpt><trkpt lat="42.75026091239515" lon="12.748536352226406"><ele>303.0</ele><time>2026-05-01T16:16:12.999Z</time></trkpt><trkpt lat="42.75041380808683" lon="12.748696263815978"><ele>301.0</ele><time>2026-05-01T16:16:13.999Z</time></trkpt><trkpt lat="42.75057283871246" lon="12.748858291904956"><ele>299.0</ele><time>2026-05-01T16:16:14.999Z</time></trkpt><trkpt lat="42.75073476721559" lon="12.749027295452564"><ele>299.0</ele><time>2026-05-01T16:16:16Z</time></trkpt><trkpt lat="42.75089977980491" lon="12.74919461467831"><ele>299.0</ele><time>2026-05-01T16:16:17Z</time></trkpt><trkpt lat="42.75107028327263" lon="12.749366318322501"><ele>299.0</ele><time>2026-05-01T16:16:18Z</time></trkpt><trkpt lat="42.751240482152596" lon="12.749538486793018"><ele>298.33333333333337</ele><time>2026-05-01T16:16:19Z</time></trkpt><trkpt lat="42.75141166184924" lon="12.749714784816934"><ele>297.6666666666667</ele><time>2026-05-01T16:16:20Z</time></trkpt><trkpt lat="42.75158153205787" lon="12.74989329912571"><ele>297.0</ele><time>2026-05-01T16:16:21Z</time></trkpt><trkpt lat="42.75174962656996" lon="12.750074818583593"><ele>296.3333333333333</ele><time>2026-05-01T16:16:22Z</time></trkpt><trkpt lat="42.75192091112183" lon="12.75025836263988"><ele>295.66666666666663</ele><time>2026-05-01T16:16:23Z</time></trkpt><trkpt lat="42.75209658379282" lon="12.750443503442325"><ele>295.0</ele><time>2026-05-01T16:16:24Z</time></trkpt><trkpt lat="42.75227020000735" lon="12.750624594686316"><ele>295.0</ele><time>2026-05-01T16:16:25Z</time></trkpt><trkpt lat="42.752445643151326" lon="12.750810472496724"><ele>295.0</ele><time>2026-05-01T16:16:26Z</time></trkpt><trkpt lat="42.75261898961416" lon="12.75099276566764"><ele>295.0</ele><time>2026-05-01T16:16:27Z</time></trkpt><trkpt lat="42.752798583877045" lon="12.75118429883466"><ele>295.5</ele><time>2026-05-01T16:16:28Z</time></trkpt><trkpt lat="42.752986260705185" lon="12.751382602152143"><ele>296.0</ele><time>2026-05-01T16:16:29Z</time></trkpt><trkpt lat="42.75317459607488" lon="12.751581187481813"><ele>296.0</ele><time>2026-05-01T16:16:30Z</time></trkpt><trkpt lat="42.75336262373025" lon="12.751783349797977"><ele>296.0</ele><time>2026-05-01T16:16:31Z</time></trkpt><trkpt lat="42.75354721021276" lon="12.751980105202474"><ele>295.0</ele><time>2026-05-01T16:16:32Z</time></trkpt><trkpt lat="42.753732975429514" lon="12.752172731382094"><ele>294.0</ele><time>2026-05-01T16:16:33Z</time></trkpt><trkpt lat="42.75391339698274" lon="12.75235660167773"><ele>294.0</ele><time>2026-05-01T16:16:34Z</time></trkpt><trkpt lat="42.754092960136596" lon="12.752533763111543"><ele>294.0</ele><time>2026-05-01T16:16:35Z</time></trkpt><trkpt lat="42.75427557285087" lon="12.752717708133508"><ele>294.0</ele><time>2026-05-01T16:16:36Z</time></trkpt><trkpt lat="42.75445065958246" lon="12.752895854064823"><ele>293.6666666666667</ele><time>2026-05-01T16:16:37Z</time></trkpt><trkpt lat="42.75462939323751" lon="12.753067534173114"><ele>293.33333333333337</ele><time>2026-05-01T16:16:38Z</time></trkpt><trkpt lat="42.75481270579076" lon="12.753235512507406"><ele>293.0</ele><time>2026-05-01T16:16:39Z</time></trkpt><trkpt lat="42.754995896678125" lon="12.753397569588284"><ele>293.6666666666667</ele><time>2026-05-01T16:16:40Z</time></trkpt><trkpt lat="42.75518060356199" lon="12.753557996546567"><ele>294.3333333333333</ele><time>2026-05-01T16:16:41Z</time></trkpt><trkpt lat="42.75536598856104" lon="12.753717097506845"><ele>295.0</ele><time>2026-05-01T16:16:42Z</time></trkpt><trkpt lat="42.75555019333989" lon="12.75387029713478"><ele>295.0</ele><time>2026-05-01T16:16:43Z</time></trkpt><trkpt lat="42.755736724668054" lon="12.754022663871472"><ele>295.0</ele><time>2026-05-01T16:16:44Z</time></trkpt><trkpt lat="42.7559221980121" lon="12.754169368271418"><ele>295.0</ele><time>2026-05-01T16:16:45Z</time></trkpt><trkpt lat="42.75610608809051" lon="12.75430923506553"><ele>293.66666666666663</ele><time>2026-05-01T16:16:46Z</time></trkpt><trkpt lat="42.756293797021826" lon="12.754449434933996"><ele>292.3333333333333</ele><time>2026-05-01T16:16:47Z</time></trkpt><trkpt lat="42.75647242610107" lon="12.754588352882596"><ele>291.0</ele><time>2026-05-01T16:16:48Z</time></trkpt><trkpt lat="42.75665095204157" lon="12.754727509618071"><ele>291.0</ele><time>2026-05-01T16:16:49Z</time></trkpt><trkpt lat="42.75682916138871" lon="12.754871190371038"><ele>291.0</ele><time>2026-05-01T16:16:50Z</time></trkpt><trkpt lat="42.757004618001325" lon="12.755012095372422"><ele>291.0</ele><time>2026-05-01T16:16:51Z</time></trkpt><trkpt lat="42.75717874193393" lon="12.755150622699016"><ele>290.6666666666667</ele><time>2026-05-01T16:16:52Z</time></trkpt><trkpt lat="42.75735274841927" lon="12.755281290301593"><ele>290.33333333333337</ele><time>2026-05-01T16:16:53Z</time></trkpt><trkpt lat="42.757527910459046" lon="12.755415608989573"><ele>290.0</ele><time>2026-05-01T16:16:54Z</time></trkpt><trkpt lat="42.75769978622199" lon="12.755550131628283"><ele>288.6666666666667</ele><time>2026-05-01T16:16:55Z</time></trkpt><trkpt lat="42.75785971244661" lon="12.755677314766354"><ele>287.3333333333333</ele><time>2026-05-01T16:16:56Z</time></trkpt><trkpt lat="42.758013205571096" lon="12.75579658920809"><ele>286.0</ele><time>2026-05-01T16:16:57Z</time></trkpt><trkpt lat="42.758167437507566" lon="12.755918013176409"><ele>286.3333333333333</ele><time>2026-05-01T16:16:58Z</time></trkpt><trkpt lat="42.7583186839353" lon="12.756038952868574"><ele>286.6666666666667</ele><time>2026-05-01T16:16:59Z</time></trkpt><trkpt lat="42.758468287946805" lon="12.75616180159156"><ele>287.0</ele><time>2026-05-01T16:17:00Z</time></trkpt><trkpt lat="42.75861708050879" lon="12.756284471971394"><ele>287.0</ele><time>2026-05-01T16:17:01Z</time></trkpt><trkpt lat="42.75876282717414" lon="12.756400227385887"><ele>287.0</ele><time>2026-05-01T16:17:02Z</time></trkpt><trkpt lat="42.758909407329874" lon="12.756516344967103"><ele>287.0</ele><time>2026-05-01T16:17:03Z</time></trkpt><trkpt lat="42.75905890723281" lon="12.756633300457256"><ele>287.0</ele><time>2026-05-01T16:17:04Z</time></trkpt><trkpt lat="42.75920968387427" lon="12.756749057645553"><ele>287.0</ele><time>2026-05-01T16:17:05Z</time></trkpt><trkpt lat="42.759363680674355" lon="12.756874358375828"><ele>287.0</ele><time>2026-05-01T16:17:06Z</time></trkpt><trkpt lat="42.75951613755852" lon="12.757002366068226"><ele>287.6666666666667</ele><time>2026-05-01T16:17:07Z</time></trkpt><trkpt lat="42.7596677403746" lon="12.757130549677017"><ele>288.3333333333333</ele><time>2026-05-01T16:17:08Z</time></trkpt><trkpt lat="42.759818963132425" lon="12.757256619728265"><ele>289.0</ele><time>2026-05-01T16:17:09Z</time></trkpt><trkpt lat="42.759969987252504" lon="12.757380280265325"><ele>289.0</ele><time>2026-05-01T16:17:10Z</time></trkpt><trkpt lat="42.76011744594205" lon="12.757505069301628"><ele>289.0</ele><time>2026-05-01T16:17:11Z</time></trkpt><trkpt lat="42.760268996741885" lon="12.757642838523466"><ele>289.0</ele><time>2026-05-01T16:17:12Z</time></trkpt><trkpt lat="42.760413761090746" lon="12.757785205355407"><ele>289.0</ele><time>2026-05-01T16:17:13Z</time></trkpt><trkpt lat="42.76055887417074" lon="12.757935718256727"><ele>289.0</ele><time>2026-05-01T16:17:13.999Z</time></trkpt><trkpt lat="42.76069932143225" lon="12.75808729060304"><ele>289.0</ele><time>2026-05-01T16:17:14.999Z</time></trkpt><trkpt lat="42.760835677743984" lon="12.75824470250045"><ele>289.0</ele><time>2026-05-01T16:17:15.999Z</time></trkpt><trkpt lat="42.76096713514961" lon="12.758404660236874"><ele>289.0</ele><time>2026-05-01T16:17:16.999Z</time></trkpt><trkpt lat="42.7610950009639" lon="12.758562509759932"><ele>289.0</ele><time>2026-05-01T16:17:17.999Z</time></trkpt><trkpt lat="42.76121614415955" lon="12.758721035119715"><ele>287.0</ele><time>2026-05-01T16:17:18.999Z</time></trkpt><trkpt lat="42.761336678482515" lon="12.758887061137868"><ele>285.0</ele><time>2026-05-01T16:17:19.999Z</time></trkpt><trkpt lat="42.761452834719144" lon="12.75905896443943"><ele>283.0</ele><time>2026-05-01T16:17:20.999Z</time></trkpt><trkpt lat="42.76156573117976" lon="12.75923137945127"><ele>282.0</ele><time>2026-05-01T16:17:21.999Z</time></trkpt><trkpt lat="42.76167954342568" lon="12.759408036382045"><ele>281.0</ele><time>2026-05-01T16:17:22.999Z</time></trkpt><trkpt lat="42.76179143833129" lon="12.759576867181398"><ele>280.0</ele><time>2026-05-01T16:17:23.999Z</time></trkpt><trkpt lat="42.76190465462374" lon="12.75974215604919"><ele>280.0</ele><time>2026-05-01T16:17:24.999Z</time></trkpt><trkpt lat="42.76201485523174" lon="12.75990687126374"><ele>280.0</ele><time>2026-05-01T16:17:25.999Z</time></trkpt><trkpt lat="42.762122691504146" lon="12.760065975258911"><ele>280.0</ele><time>2026-05-01T16:17:26.999Z</time></trkpt><trkpt lat="42.76223506982246" lon="12.760233868054046"><ele>280.3333333333333</ele><time>2026-05-01T16:17:27.999Z</time></trkpt><trkpt lat="42.7623448697281" lon="12.760402175630333"><ele>280.6666666666667</ele><time>2026-05-01T16:17:28.999Z</time></trkpt><trkpt lat="42.762452015006396" lon="12.760572525690836"><ele>281.0</ele><time>2026-05-01T16:17:29.999Z</time></trkpt><trkpt lat="42.762557113631644" lon="12.760749372028757"><ele>281.0</ele><time>2026-05-01T16:17:30.999Z</time></trkpt><trkpt lat="42.76266575143115" lon="12.760935459338212"><ele>281.0</ele><time>2026-05-01T16:17:31.999Z</time></trkpt><trkpt lat="42.76277446054181" lon="12.761133989012432"><ele>281.0</ele><time>2026-05-01T16:17:32.999Z</time></trkpt><trkpt lat="42.76288259680219" lon="12.76133388711938"><ele>281.0</ele><time>2026-05-01T16:17:33.999Z</time></trkpt><trkpt lat="42.76298717691131" lon="12.761532658084601"><ele>281.0</ele><time>2026-05-01T16:17:34.999Z</time></trkpt><trkpt lat="42.76308292704758" lon="12.761739381375632"><ele>281.0</ele><time>2026-05-01T16:17:35.999Z</time></trkpt><trkpt lat="42.76317391810041" lon="12.761960641445937"><ele>281.0</ele><time>2026-05-01T16:17:36.999Z</time></trkpt><trkpt lat="42.763258348740614" lon="12.762191607068507"><ele>281.0</ele><time>2026-05-01T16:17:37.999Z</time></trkpt><trkpt lat="42.76334139658215" lon="12.762438077655673"><ele>281.0</ele><time>2026-05-01T16:17:38.999Z</time></trkpt><trkpt lat="42.763410146779336" lon="12.76268712495267"><ele>280.33333333333337</ele><time>2026-05-01T16:17:39.999Z</time></trkpt><trkpt lat="42.763474318027995" lon="12.762941377193165"><ele>279.6666666666667</ele><time>2026-05-01T16:17:40.999Z</time></trkpt><trkpt lat="42.76353210473532" lon="12.763197024091467"><ele>279.0</ele><time>2026-05-01T16:17:41.999Z</time></trkpt><trkpt lat="42.763586347039684" lon="12.763454498332408"><ele>278.6666666666667</ele><time>2026-05-01T16:17:42.999Z</time></trkpt><trkpt lat="42.763641408170685" lon="12.763711682477512"><ele>278.33333333333337</ele><time>2026-05-01T16:17:43.999Z</time></trkpt><trkpt lat="42.76369619096475" lon="12.763970041474463"><ele>278.0</ele><time>2026-05-01T16:17:44.999Z</time></trkpt><trkpt lat="42.76374616661952" lon="12.764229654297118"><ele>278.6666666666667</ele><time>2026-05-01T16:17:45.999Z</time></trkpt><trkpt lat="42.76379863117175" lon="12.764491455414843"><ele>279.3333333333333</ele><time>2026-05-01T16:17:46.999Z</time></trkpt><trkpt lat="42.76385881576796" lon="12.76475384762123"><ele>280.0</ele><time>2026-05-01T16:17:47.999Z</time></trkpt><trkpt lat="42.763925653576884" lon="12.76502002332221"><ele>281.0</ele><time>2026-05-01T16:17:48.999Z</time></trkpt><trkpt lat="42.76399569768639" lon="12.765287866179282"><ele>282.0</ele><time>2026-05-01T16:17:49.999Z</time></trkpt><trkpt lat="42.76407422437263" lon="12.76555725677772"><ele>283.0</ele><time>2026-05-01T16:17:50.999Z</time></trkpt><trkpt lat="42.76416086873414" lon="12.765822166218031"><ele>284.0</ele><time>2026-05-01T16:17:51.999Z</time></trkpt><trkpt lat="42.76425464584706" lon="12.766077235534674"><ele>285.0</ele><time>2026-05-01T16:17:52.999Z</time></trkpt><trkpt lat="42.76436008765034" lon="12.766326683388266"><ele>286.0</ele><time>2026-05-01T16:17:53.999Z</time></trkpt><trkpt lat="42.76447462650318" lon="12.766571047819053"><ele>284.3333333333333</ele><time>2026-05-01T16:17:54.999Z</time></trkpt><trkpt lat="42.764599395266615" lon="12.766810543691363"><ele>282.6666666666667</ele><time>2026-05-01T16:17:55.999Z</time></trkpt><trkpt lat="42.7647349743421" lon="12.767038305239648"><ele>281.0</ele><time>2026-05-01T16:17:56.999Z</time></trkpt><trkpt lat="42.764884183464915" lon="12.767260459207474"><ele>281.0</ele><time>2026-05-01T16:17:57.999Z</time></trkpt><trkpt lat="42.765041120396035" lon="12.76747080563542"><ele>281.0</ele><time>2026-05-01T16:17:58.999Z</time></trkpt><trkpt lat="42.765207693009685" lon="12.767673904155696"><ele>281.0</ele><time>2026-05-01T16:17:59.999Z</time></trkpt><trkpt lat="42.76537665460618" lon="12.767865706222373"><ele>281.0</ele><time>2026-05-01T16:18:00.999Z</time></trkpt><trkpt lat="42.765552017247956" lon="12.768052471807875"><ele>281.0</ele><time>2026-05-01T16:18:01.999Z</time></trkpt><trkpt lat="42.765731984274524" lon="12.768223439913331"><ele>281.0</ele><time>2026-05-01T16:18:02.999Z</time></trkpt><trkpt lat="42.76591987120156" lon="12.768375540005358"><ele>281.0</ele><time>2026-05-01T16:18:03.999Z</time></trkpt><trkpt lat="42.7661172150517" lon="12.768517122033733"><ele>281.0</ele><time>2026-05-01T16:18:04.999Z</time></trkpt><trkpt lat="42.766323228586835" lon="12.768649290025568"><ele>281.0</ele><time>2026-05-01T16:18:05.999Z</time></trkpt><trkpt lat="42.76654472492995" lon="12.768776633472863"><ele>281.0</ele><time>2026-05-01T16:18:06.999Z</time></trkpt><trkpt lat="42.76677874270656" lon="12.768886940647986"><ele>280.0</ele><time>2026-05-01T16:18:07.999Z</time></trkpt><trkpt lat="42.76701911300943" lon="12.768979109299872"><ele>279.0</ele><time>2026-05-01T16:18:08.999Z</time></trkpt><trkpt lat="42.767259869968605" lon="12.769069782167271"><ele>279.0</ele><time>2026-05-01T16:18:09.999Z</time></trkpt><trkpt lat="42.76749515061342" lon="12.769160693181865"><ele>279.0</ele><time>2026-05-01T16:18:10.999Z</time></trkpt><trkpt lat="42.767727605278075" lon="12.769251126989813"><ele>279.0</ele><time>2026-05-01T16:18:11.999Z</time></trkpt><trkpt lat="42.767959364605645" lon="12.769343775551931"><ele>279.0</ele><time>2026-05-01T16:18:12.999Z</time></trkpt><trkpt lat="42.76819701296451" lon="12.769433459077877"><ele>279.0</ele><time>2026-05-01T16:18:13.999Z</time></trkpt><trkpt lat="42.76843541707027" lon="12.769521926597116"><ele>279.0</ele><time>2026-05-01T16:18:14.999Z</time></trkpt><trkpt lat="42.76867112569083" lon="12.769606460652163"><ele>278.0</ele><time>2026-05-01T16:18:15.999Z</time></trkpt><trkpt lat="42.7689079584877" lon="12.769693292265451"><ele>277.0</ele><time>2026-05-01T16:18:16.999Z</time></trkpt><trkpt lat="42.769144491107326" lon="12.769777996840146"><ele>274.5</ele><time>2026-05-01T16:18:17.999Z</time></trkpt><trkpt lat="42.76938217622078" lon="12.769859586145289"><ele>272.0</ele><time>2026-05-01T16:18:18.999Z</time></trkpt><trkpt lat="42.76962286982492" lon="12.769939005135104"><ele>272.0</ele><time>2026-05-01T16:18:19.999Z</time></trkpt><trkpt lat="42.769864290464604" lon="12.770012039109632"><ele>272.0</ele><time>2026-05-01T16:18:20.999Z</time></trkpt><trkpt lat="42.770102290224735" lon="12.770083892915876"><ele>272.5</ele><time>2026-05-01T16:18:22Z</time></trkpt><trkpt lat="42.770341287139765" lon="12.77015811067476"><ele>273.0</ele><time>2026-05-01T16:18:23Z</time></trkpt><trkpt lat="42.77057866659923" lon="12.77023203521842"><ele>273.5</ele><time>2026-05-01T16:18:24Z</time></trkpt><trkpt lat="42.77081190013978" lon="12.770301697230845"><ele>274.0</ele><time>2026-05-01T16:18:25Z</time></trkpt><trkpt lat="42.7710255382739" lon="12.770365854869969"><ele>274.0</ele><time>2026-05-01T16:18:26Z</time></trkpt><trkpt lat="42.77124287961419" lon="12.770424019709122"><ele>274.0</ele><time>2026-05-01T16:18:27Z</time></trkpt><trkpt lat="42.77146974492234" lon="12.770486232242252"><ele>274.0</ele><time>2026-05-01T16:18:28Z</time></trkpt><trkpt lat="42.77168791006731" lon="12.770544421871781"><ele>274.0</ele><time>2026-05-01T16:18:29Z</time></trkpt><trkpt lat="42.77190119161363" lon="12.77059946474314"><ele>274.0</ele><time>2026-05-01T16:18:30Z</time></trkpt><trkpt lat="42.77211632864559" lon="12.770653406061438"><ele>274.66666666666663</ele><time>2026-05-01T16:18:31Z</time></trkpt><trkpt lat="42.772329820027224" lon="12.77070139103768"><ele>275.3333333333333</ele><time>2026-05-01T16:18:32Z</time></trkpt><trkpt lat="42.77253277608911" lon="12.770747376649975"><ele>276.0</ele><time>2026-05-01T16:18:33Z</time></trkpt><trkpt lat="42.77272999417932" lon="12.770789818968016"><ele>276.6666666666667</ele><time>2026-05-01T16:18:34Z</time></trkpt><trkpt lat="42.7729335167755" lon="12.770837274181872"><ele>277.33333333333337</ele><time>2026-05-01T16:18:35Z</time></trkpt><trkpt lat="42.7731401673371" lon="12.770883313624651"><ele>278.0</ele><time>2026-05-01T16:18:36Z</time></trkpt><trkpt lat="42.773343129708515" lon="12.770922512826171"><ele>278.0</ele><time>2026-05-01T16:18:37Z</time></trkpt><trkpt lat="42.77354772576823" lon="12.770951858707521"><ele>278.0</ele><time>2026-05-01T16:18:38Z</time></trkpt><trkpt lat="42.773753508055115" lon="12.770976987870084"><ele>278.0</ele><time>2026-05-01T16:18:39Z</time></trkpt><trkpt lat="42.773966167376" lon="12.77099803470218"><ele>278.0</ele><time>2026-05-01T16:18:40Z</time></trkpt><trkpt lat="42.77419360441301" lon="12.77100661077225"><ele>278.0</ele><time>2026-05-01T16:18:41Z</time></trkpt><trkpt lat="42.7744307074482" lon="12.770998776182429"><ele>280.0</ele><time>2026-05-01T16:18:42Z</time></trkpt><trkpt lat="42.77466771583431" lon="12.770980530579653"><ele>282.0</ele><time>2026-05-01T16:18:43Z</time></trkpt><trkpt lat="42.77490136127417" lon="12.770949985532315"><ele>282.0</ele><time>2026-05-01T16:18:44Z</time></trkpt><trkpt lat="42.77513018592022" lon="12.770914158758615"><ele>282.0</ele><time>2026-05-01T16:18:45Z</time></trkpt><trkpt lat="42.77535221869857" lon="12.77088320425541"><ele>282.0</ele><time>2026-05-01T16:18:46Z</time></trkpt><trkpt lat="42.77558044908253" lon="12.770850693019115"><ele>282.0</ele><time>2026-05-01T16:18:47Z</time></trkpt><trkpt lat="42.775804140554385" lon="12.770819314048818"><ele>281.5</ele><time>2026-05-01T16:18:48Z</time></trkpt><trkpt lat="42.77603685442067" lon="12.770785280254637"><ele>281.0</ele><time>2026-05-01T16:18:49Z</time></trkpt><trkpt lat="42.77633442537802" lon="12.77066095998605"><ele>281.0</ele><time>2026-05-01T16:18:50Z</time></trkpt><trkpt lat="42.776575344025" lon="12.770457777477109"><ele>281.0</ele><time>2026-05-01T16:18:51Z</time></trkpt><trkpt lat="42.77682509774598" lon="12.770299017975471"><ele>279.5</ele><time>2026-05-01T16:18:52Z</time></trkpt><trkpt lat="42.77705584169225" lon="12.770129912890493"><ele>278.0</ele><time>2026-05-01T16:18:53Z</time></trkpt><trkpt lat="42.777272747296344" lon="12.769967558620902"><ele>278.0</ele><time>2026-05-01T16:18:54Z</time></trkpt><trkpt lat="42.77748479874448" lon="12.769803846475824"><ele>278.0</ele><time>2026-05-01T16:18:55Z</time></trkpt><trkpt lat="42.77769253726167" lon="12.769626640932442"><ele>278.0</ele><time>2026-05-01T16:18:56Z</time></trkpt><trkpt lat="42.77790413955662" lon="12.769441146928232"><ele>278.0</ele><time>2026-05-01T16:18:57Z</time></trkpt><trkpt lat="42.77811847920899" lon="12.769243873923026"><ele>277.5</ele><time>2026-05-01T16:18:58Z</time></trkpt><trkpt lat="42.77833230888247" lon="12.769041047581654"><ele>277.0</ele><time>2026-05-01T16:18:59Z</time></trkpt><trkpt lat="42.77854148217565" lon="12.768830855145842"><ele>277.0</ele><time>2026-05-01T16:19:00Z</time></trkpt><trkpt lat="42.77875491820901" lon="12.768627932858172"><ele>277.0</ele><time>2026-05-01T16:19:01Z</time></trkpt><trkpt lat="42.77896802207691" lon="12.768430949250202"><ele>276.5</ele><time>2026-05-01T16:19:02Z</time></trkpt><trkpt lat="42.77918673728914" lon="12.76824823053538"><ele>276.0</ele><time>2026-05-01T16:19:03Z</time></trkpt><trkpt lat="42.77940611653565" lon="12.768079085096698"><ele>276.0</ele><time>2026-05-01T16:19:04Z</time></trkpt><trkpt lat="42.779630816881294" lon="12.767917772642894"><ele>276.0</ele><time>2026-05-01T16:19:05Z</time></trkpt><trkpt lat="42.77986409868798" lon="12.767766524911421"><ele>274.5</ele><time>2026-05-01T16:19:06Z</time></trkpt><trkpt lat="42.780103389821626" lon="12.767628041131042"><ele>273.0</ele><time>2026-05-01T16:19:07Z</time></trkpt><trkpt lat="42.780347141876206" lon="12.767501683793078"><ele>273.0</ele><time>2026-05-01T16:19:08Z</time></trkpt><trkpt lat="42.780597325075576" lon="12.767386505111038"><ele>273.0</ele><time>2026-05-01T16:19:09Z</time></trkpt><trkpt lat="42.78085154681814" lon="12.767287982409178"><ele>273.5</ele><time>2026-05-01T16:19:10Z</time></trkpt><trkpt lat="42.781107786671114" lon="12.76720486439701"><ele>274.0</ele><time>2026-05-01T16:19:11Z</time></trkpt><trkpt lat="42.781365161350536" lon="12.767133158241675"><ele>274.0</ele><time>2026-05-01T16:19:12Z</time></trkpt><trkpt lat="42.78163254929074" lon="12.767071977112794"><ele>274.0</ele><time>2026-05-01T16:19:13Z</time></trkpt><trkpt lat="42.78190787876001" lon="12.767027180695164"><ele>275.0</ele><time>2026-05-01T16:19:14Z</time></trkpt><trkpt lat="42.78219109016104" lon="12.766992669192028"><ele>276.0</ele><time>2026-05-01T16:19:15Z</time></trkpt><trkpt lat="42.78247398732575" lon="12.766964168013763"><ele>277.0</ele><time>2026-05-01T16:19:16Z</time></trkpt><trkpt lat="42.78275649710248" lon="12.766942585920487"><ele>278.0</ele><time>2026-05-01T16:19:17Z</time></trkpt><trkpt lat="42.78303732820341" lon="12.76692212605033"><ele>278.0</ele><time>2026-05-01T16:19:18Z</time></trkpt><trkpt lat="42.78332160326423" lon="12.76690405526968"><ele>278.0</ele><time>2026-05-01T16:19:19Z</time></trkpt><trkpt lat="42.783603383875295" lon="12.766889183205986"><ele>278.5</ele><time>2026-05-01T16:19:20Z</time></trkpt><trkpt lat="42.783885994148385" lon="12.766872263390061"><ele>279.0</ele><time>2026-05-01T16:19:21Z</time></trkpt><trkpt lat="42.784165056788225" lon="12.766849328568693"><ele>277.0</ele><time>2026-05-01T16:19:22Z</time></trkpt><trkpt lat="42.78444711745477" lon="12.766825725502084"><ele>275.0</ele><time>2026-05-01T16:19:23Z</time></trkpt><trkpt lat="42.78472803842575" lon="12.766799366453032"><ele>275.0</ele><time>2026-05-01T16:19:24Z</time></trkpt><trkpt lat="42.78500492786292" lon="12.766770201061892"><ele>275.0</ele><time>2026-05-01T16:19:25Z</time></trkpt><trkpt lat="42.78528308772535" lon="12.766738574882403"><ele>277.5</ele><time>2026-05-01T16:19:26Z</time></trkpt><trkpt lat="42.78555905047038" lon="12.766704688911393"><ele>280.0</ele><time>2026-05-01T16:19:27Z</time></trkpt><trkpt lat="42.785834565521945" lon="12.766667529759134"><ele>280.0</ele><time>2026-05-01T16:19:28Z</time></trkpt><trkpt lat="42.786106728478636" lon="12.766629942467368"><ele>280.0</ele><time>2026-05-01T16:19:29Z</time></trkpt><trkpt lat="42.786381926888744" lon="12.766586895626268"><ele>280.0</ele><time>2026-05-01T16:19:30Z</time></trkpt><trkpt lat="42.786662843576785" lon="12.766536067657551"><ele>280.0</ele><time>2026-05-01T16:19:31Z</time></trkpt><trkpt lat="42.78694719559631" lon="12.76647703242602"><ele>282.0</ele><time>2026-05-01T16:19:32Z</time></trkpt><trkpt lat="42.78723157940302" lon="12.766412656447626"><ele>284.0</ele><time>2026-05-01T16:19:33Z</time></trkpt><trkpt lat="42.78751305705909" lon="12.766342481711215"><ele>284.5</ele><time>2026-05-01T16:19:34Z</time></trkpt><trkpt lat="42.787789426465466" lon="12.766269966842536"><ele>285.0</ele><time>2026-05-01T16:19:35Z</time></trkpt><trkpt lat="42.78806733253069" lon="12.76619705141583"><ele>285.0</ele><time>2026-05-01T16:19:36Z</time></trkpt><trkpt lat="42.78833908503202" lon="12.766120971841131"><ele>285.0</ele><time>2026-05-01T16:19:37Z</time></trkpt><trkpt lat="42.78860797167227" lon="12.766041087414738"><ele>285.0</ele><time>2026-05-01T16:19:38Z</time></trkpt><trkpt lat="42.78887807983057" lon="12.76595042038061"><ele>285.0</ele><time>2026-05-01T16:19:39Z</time></trkpt><trkpt lat="42.78914220080236" lon="12.765856999296588"><ele>286.5</ele><time>2026-05-01T16:19:40Z</time></trkpt><trkpt lat="42.78940407381545" lon="12.765762839278475"><ele>288.0</ele><time>2026-05-01T16:19:41Z</time></trkpt><trkpt lat="42.78966521496878" lon="12.765663904105347"><ele>288.0</ele><time>2026-05-01T16:19:42Z</time></trkpt><trkpt lat="42.78992539422958" lon="12.765563827706014"><ele>288.0</ele><time>2026-05-01T16:19:43Z</time></trkpt><trkpt lat="42.79018740004985" lon="12.765466150583162"><ele>288.5</ele><time>2026-05-01T16:19:44Z</time></trkpt><trkpt lat="42.790444526427244" lon="12.765370393420982"><ele>289.0</ele><time>2026-05-01T16:19:45Z</time></trkpt><trkpt lat="42.79070224150831" lon="12.765270547276117"><ele>289.5</ele><time>2026-05-01T16:19:46Z</time></trkpt><trkpt lat="42.79096044203397" lon="12.765170817385814"><ele>290.0</ele><time>2026-05-01T16:19:47Z</time></trkpt><trkpt lat="42.79121345237809" lon="12.765069171323697"><ele>290.0</ele><time>2026-05-01T16:19:48Z</time></trkpt><trkpt lat="42.79146626766494" lon="12.764970874634631"><ele>290.0</ele><time>2026-05-01T16:19:49Z</time></trkpt><trkpt lat="42.791722547196365" lon="12.764873834355177"><ele>289.5</ele><time>2026-05-01T16:19:50Z</time></trkpt><trkpt lat="42.79197868164575" lon="12.764773178279178"><ele>289.0</ele><time>2026-05-01T16:19:51Z</time></trkpt><trkpt lat="42.792237473704915" lon="12.764676661074985"><ele>289.0</ele><time>2026-05-01T16:19:52Z</time></trkpt><trkpt lat="42.79249825787902" lon="12.764580116988064"><ele>289.0</ele><time>2026-05-01T16:19:53Z</time></trkpt><trkpt lat="42.792759973980964" lon="12.764489313560352"><ele>288.5</ele><time>2026-05-01T16:19:53.999Z</time></trkpt><trkpt lat="42.79302253906482" lon="12.764392519974523"><ele>288.0</ele><time>2026-05-01T16:19:54.999Z</time></trkpt><trkpt lat="42.79328295356204" lon="12.764292509068811"><ele>286.0</ele><time>2026-05-01T16:19:55.999Z</time></trkpt><trkpt lat="42.79354114661599" lon="12.764187919653834"><ele>284.0</ele><time>2026-05-01T16:19:56.999Z</time></trkpt><trkpt lat="42.79379503204741" lon="12.764084790785764"><ele>284.0</ele><time>2026-05-01T16:19:57.999Z</time></trkpt><trkpt lat="42.794049286060805" lon="12.763985866089868"><ele>284.0</ele><time>2026-05-01T16:19:58.999Z</time></trkpt><trkpt lat="42.79429917336063" lon="12.763881827270476"><ele>283.5</ele><time>2026-05-01T16:19:59.999Z</time></trkpt><trkpt lat="42.79454424043638" lon="12.763777149022964"><ele>283.0</ele><time>2026-05-01T16:20:00.999Z</time></trkpt><trkpt lat="42.79479091385379" lon="12.763673570534502"><ele>283.0</ele><time>2026-05-01T16:20:01.999Z</time></trkpt><trkpt lat="42.795033580920325" lon="12.7635732856674"><ele>283.0</ele><time>2026-05-01T16:20:02.999Z</time></trkpt><trkpt lat="42.79528011205588" lon="12.763477336851103"><ele>281.5</ele><time>2026-05-01T16:20:03.999Z</time></trkpt><trkpt lat="42.79552833991965" lon="12.763373888300974"><ele>280.0</ele><time>2026-05-01T16:20:04.999Z</time></trkpt><trkpt lat="42.795778267569" lon="12.763269727980731"><ele>281.5</ele><time>2026-05-01T16:20:05.999Z</time></trkpt><trkpt lat="42.796032202512045" lon="12.76316610091643"><ele>283.0</ele><time>2026-05-01T16:20:06.999Z</time></trkpt><trkpt lat="42.79629004204433" lon="12.763058187616945"><ele>283.0</ele><time>2026-05-01T16:20:07.999Z</time></trkpt><trkpt lat="42.796550521808584" lon="12.762945694903236"><ele>283.0</ele><time>2026-05-01T16:20:08.999Z</time></trkpt><trkpt lat="42.79681171895086" lon="12.76283519574089"><ele>283.0</ele><time>2026-05-01T16:20:09.999Z</time></trkpt><trkpt lat="42.79707374171534" lon="12.762726743034493"><ele>283.0</ele><time>2026-05-01T16:20:10.999Z</time></trkpt><trkpt lat="42.7973369452591" lon="12.762616301688386"><ele>282.0</ele><time>2026-05-01T16:20:11.999Z</time></trkpt><trkpt lat="42.79760473996369" lon="12.762513899119245"><ele>281.0</ele><time>2026-05-01T16:20:12.999Z</time></trkpt><trkpt lat="42.79787306689711" lon="12.762404234867939"><ele>279.0</ele><time>2026-05-01T16:20:13.999Z</time></trkpt><trkpt lat="42.798140077293574" lon="12.762295946677494"><ele>277.0</ele><time>2026-05-01T16:20:14.999Z</time></trkpt><trkpt lat="42.79840688489443" lon="12.762186598707945"><ele>275.0</ele><time>2026-05-01T16:20:15.999Z</time></trkpt><trkpt lat="42.7986759112971" lon="12.762078918087298"><ele>273.0</ele><time>2026-05-01T16:20:16.999Z</time></trkpt><trkpt lat="42.79894308137474" lon="12.761975451141172"><ele>273.0</ele><time>2026-05-01T16:20:17.999Z</time></trkpt><trkpt lat="42.79921091889383" lon="12.761875569213936"><ele>273.0</ele><time>2026-05-01T16:20:18.999Z</time></trkpt><trkpt lat="42.79947881347073" lon="12.761781473777294"><ele>271.5</ele><time>2026-05-01T16:20:19.999Z</time></trkpt><trkpt lat="42.79974936690457" lon="12.761691082068637"><ele>270.0</ele><time>2026-05-01T16:20:20.999Z</time></trkpt><trkpt lat="42.80001664904711" lon="12.761601094320136"><ele>271.0</ele><time>2026-05-01T16:20:21.999Z</time></trkpt><trkpt lat="42.80028632330762" lon="12.761514337895287"><ele>272.0</ele><time>2026-05-01T16:20:22.999Z</time></trkpt><trkpt lat="42.80055659031165" lon="12.761427630342927"><ele>272.0</ele><time>2026-05-01T16:20:23.999Z</time></trkpt><trkpt lat="42.80082433118086" lon="12.761339460727292"><ele>272.0</ele><time>2026-05-01T16:20:24.999Z</time></trkpt><trkpt lat="42.80108808041524" lon="12.76124726444233"><ele>271.5</ele><time>2026-05-01T16:20:25.999Z</time></trkpt><trkpt lat="42.801357530651885" lon="12.761160183585398"><ele>271.0</ele><time>2026-05-01T16:20:26.999Z</time></trkpt><trkpt lat="42.801625875609446" lon="12.761069261748725"><ele>269.5</ele><time>2026-05-01T16:20:28Z</time></trkpt><trkpt lat="42.80189523175168" lon="12.760980718616864"><ele>268.0</ele><time>2026-05-01T16:20:29Z</time></trkpt><trkpt lat="42.80216173437429" lon="12.760891370956827"><ele>268.0</ele><time>2026-05-01T16:20:30Z</time></trkpt><trkpt lat="42.802429978728206" lon="12.760811297241155"><ele>268.0</ele><time>2026-05-01T16:20:31Z</time></trkpt><trkpt lat="42.80269591599984" lon="12.760745809110297"><ele>267.0</ele><time>2026-05-01T16:20:32Z</time></trkpt><trkpt lat="42.80296177140755" lon="12.76069444632953"><ele>266.0</ele><time>2026-05-01T16:20:33Z</time></trkpt><trkpt lat="42.80322260869205" lon="12.760648741434983"><ele>266.0</ele><time>2026-05-01T16:20:34Z</time></trkpt><trkpt lat="42.80348117349041" lon="12.760600282473256"><ele>266.0</ele><time>2026-05-01T16:20:35Z</time></trkpt><trkpt lat="42.80374286154278" lon="12.760557696618521"><ele>265.0</ele><time>2026-05-01T16:20:36Z</time></trkpt><trkpt lat="42.80399938074516" lon="12.760517406589056"><ele>264.0</ele><time>2026-05-01T16:20:37Z</time></trkpt><trkpt lat="42.80425336291856" lon="12.760477719261226"><ele>262.5</ele><time>2026-05-01T16:20:38Z</time></trkpt><trkpt lat="42.80451118770729" lon="12.760441842045257"><ele>261.0</ele><time>2026-05-01T16:20:39Z</time></trkpt><trkpt lat="42.80476573435452" lon="12.760399619408407"><ele>261.0</ele><time>2026-05-01T16:20:40Z</time></trkpt><trkpt lat="42.80502097058406" lon="12.76035145054212"><ele>261.0</ele><time>2026-05-01T16:20:41Z</time></trkpt><trkpt lat="42.80528476118674" lon="12.760289968201365"><ele>259.5</ele><time>2026-05-01T16:20:42Z</time></trkpt><trkpt lat="42.80555597845787" lon="12.760218768927814"><ele>258.0</ele><time>2026-05-01T16:20:43Z</time></trkpt><trkpt lat="42.80582190134411" lon="12.760141765783805"><ele>256.5</ele><time>2026-05-01T16:20:44Z</time></trkpt><trkpt lat="42.80608937510072" lon="12.760055579181223"><ele>255.0</ele><time>2026-05-01T16:20:45Z</time></trkpt><trkpt lat="42.80635428080165" lon="12.759960759959784"><ele>255.0</ele><time>2026-05-01T16:20:46Z</time></trkpt><trkpt lat="42.806616611856384" lon="12.759860338695857"><ele>255.0</ele><time>2026-05-01T16:20:47Z</time></trkpt><trkpt lat="42.80687663359375" lon="12.759749899311641"><ele>253.5</ele><time>2026-05-01T16:20:48Z</time></trkpt><trkpt lat="42.8071386065562" lon="12.759635185365648"><ele>252.0</ele><time>2026-05-01T16:20:49Z</time></trkpt><trkpt lat="42.80739810616122" lon="12.759516644837865"><ele>252.0</ele><time>2026-05-01T16:20:50Z</time></trkpt><trkpt lat="42.80765652055535" lon="12.759394872420676"><ele>252.0</ele><time>2026-05-01T16:20:51Z</time></trkpt><trkpt lat="42.807917552714486" lon="12.759274649588601"><ele>250.0</ele><time>2026-05-01T16:20:52Z</time></trkpt><trkpt lat="42.80817534096015" lon="12.759155980628611"><ele>248.0</ele><time>2026-05-01T16:20:53Z</time></trkpt><trkpt lat="42.808432175972584" lon="12.759039923169578"><ele>247.5</ele><time>2026-05-01T16:20:54Z</time></trkpt><trkpt lat="42.80868986438257" lon="12.75892868911599"><ele>247.0</ele><time>2026-05-01T16:20:55Z</time></trkpt><trkpt lat="42.80894327982805" lon="12.758821032026335"><ele>247.0</ele><time>2026-05-01T16:20:56Z</time></trkpt><trkpt lat="42.80920233895163" lon="12.758714673288557"><ele>247.0</ele><time>2026-05-01T16:20:57Z</time></trkpt><trkpt lat="42.809459952179076" lon="12.758609219453394"><ele>245.0</ele><time>2026-05-01T16:20:58Z</time></trkpt><trkpt lat="42.8097203421072" lon="12.758508649291715"><ele>243.0</ele><time>2026-05-01T16:20:59Z</time></trkpt><trkpt lat="42.80997988253174" lon="12.758411286416218"><ele>241.5</ele><time>2026-05-01T16:21:00Z</time></trkpt><trkpt lat="42.81023976240183" lon="12.758319057567448"><ele>240.0</ele><time>2026-05-01T16:21:01Z</time></trkpt><trkpt lat="42.810501195064795" lon="12.75823465720448"><ele>240.0</ele><time>2026-05-01T16:21:02Z</time></trkpt><trkpt lat="42.81077028850341" lon="12.758152175144668"><ele>240.0</ele><time>2026-05-01T16:21:03Z</time></trkpt><trkpt lat="42.81104565762858" lon="12.758071158015039"><ele>238.5</ele><time>2026-05-01T16:21:04Z</time></trkpt><trkpt lat="42.81132256954145" lon="12.757996615533134"><ele>237.0</ele><time>2026-05-01T16:21:05Z</time></trkpt><trkpt lat="42.81159330133248" lon="12.7579343635936"><ele>236.0</ele><time>2026-05-01T16:21:06Z</time></trkpt><trkpt lat="42.811867208886035" lon="12.757875858406068"><ele>235.0</ele><time>2026-05-01T16:21:07Z</time></trkpt><trkpt lat="42.81214019276834" lon="12.757830249093885"><ele>235.0</ele><time>2026-05-01T16:21:08Z</time></trkpt><trkpt lat="42.81241458708661" lon="12.757791019721829"><ele>235.0</ele><time>2026-05-01T16:21:09Z</time></trkpt><trkpt lat="42.81268770016281" lon="12.757751085169465"><ele>233.0</ele><time>2026-05-01T16:21:10Z</time></trkpt><trkpt lat="42.81295563800225" lon="12.757715919361464"><ele>231.0</ele><time>2026-05-01T16:21:11Z</time></trkpt><trkpt lat="42.81322253278231" lon="12.757683729752706"><ele>231.0</ele><time>2026-05-01T16:21:12Z</time></trkpt><trkpt lat="42.81348829874958" lon="12.757655502898512"><ele>231.0</ele><time>2026-05-01T16:21:13Z</time></trkpt><trkpt lat="42.81375434579857" lon="12.757633798343388"><ele>231.0</ele><time>2026-05-01T16:21:14Z</time></trkpt><trkpt lat="42.81402262888805" lon="12.757617070873565"><ele>231.0</ele><time>2026-05-01T16:21:15Z</time></trkpt><trkpt lat="42.81429191481911" lon="12.757603606877199"><ele>231.0</ele><time>2026-05-01T16:21:16Z</time></trkpt><trkpt lat="42.814558643479316" lon="12.757597487250575"><ele>231.0</ele><time>2026-05-01T16:21:17Z</time></trkpt><trkpt lat="42.81482582429733" lon="12.757593393516283"><ele>231.0</ele><time>2026-05-01T16:21:18Z</time></trkpt><trkpt lat="42.81509561270677" lon="12.7575919182943"><ele>231.0</ele><time>2026-05-01T16:21:19Z</time></trkpt><trkpt lat="42.81536475149113" lon="12.757590004136388"><ele>231.0</ele><time>2026-05-01T16:21:20Z</time></trkpt><trkpt lat="42.815637951615834" lon="12.757591682296837"><ele>231.0</ele><time>2026-05-01T16:21:21Z</time></trkpt><trkpt lat="42.815901699839195" lon="12.757588888009858"><ele>230.0</ele><time>2026-05-01T16:21:22Z</time></trkpt><trkpt lat="42.81616776884045" lon="12.757589438810244"><ele>229.0</ele><time>2026-05-01T16:21:23Z</time></trkpt><trkpt lat="42.816433042953996" lon="12.757591918840665"><ele>229.0</ele><time>2026-05-01T16:21:24Z</time></trkpt><trkpt lat="42.81669509811733" lon="12.75759945964583"><ele>229.0</ele><time>2026-05-01T16:21:25Z</time></trkpt><trkpt lat="42.816959312002346" lon="12.757605623464379"><ele>228.5</ele><time>2026-05-01T16:21:26Z</time></trkpt><trkpt lat="42.81722467512937" lon="12.75761691460581"><ele>228.0</ele><time>2026-05-01T16:21:27Z</time></trkpt><trkpt lat="42.817492174007185" lon="12.757640082010504"><ele>228.0</ele><time>2026-05-01T16:21:28Z</time></trkpt><trkpt lat="42.81776268642797" lon="12.757666641763082"><ele>228.0</ele><time>2026-05-01T16:21:29Z</time></trkpt><trkpt lat="42.818035585165184" lon="12.757693903843707"><ele>227.0</ele><time>2026-05-01T16:21:30Z</time></trkpt><trkpt lat="42.81831163650134" lon="12.757724037145877"><ele>226.0</ele><time>2026-05-01T16:21:31Z</time></trkpt><trkpt lat="42.81858861681866" lon="12.757754896984837"><ele>226.0</ele><time>2026-05-01T16:21:32Z</time></trkpt><trkpt lat="42.81886775627075" lon="12.757790023714549"><ele>226.0</ele><time>2026-05-01T16:21:33Z</time></trkpt><trkpt lat="42.81914898018711" lon="12.757833405975617"><ele>226.0</ele><time>2026-05-01T16:21:34Z</time></trkpt><trkpt lat="42.81942726622592" lon="12.757883158584743"><ele>226.0</ele><time>2026-05-01T16:21:35Z</time></trkpt><trkpt lat="42.819703821912064" lon="12.75794252897488"><ele>226.0</ele><time>2026-05-01T16:21:36Z</time></trkpt><trkpt lat="42.81998231836381" lon="12.758011738252899"><ele>226.0</ele><time>2026-05-01T16:21:37Z</time></trkpt><trkpt lat="42.820256965946186" lon="12.758091856125192"><ele>226.0</ele><time>2026-05-01T16:21:38Z</time></trkpt><trkpt lat="42.82052627693615" lon="12.758181780877425"><ele>226.0</ele><time>2026-05-01T16:21:39Z</time></trkpt><trkpt lat="42.82079342985752" lon="12.75827944054003"><ele>225.5</ele><time>2026-05-01T16:21:40Z</time></trkpt><trkpt lat="42.821055748479466" lon="12.758386935742653"><ele>225.0</ele><time>2026-05-01T16:21:41Z</time></trkpt><trkpt lat="42.82131270261364" lon="12.75850184411079"><ele>225.0</ele><time>2026-05-01T16:21:42Z</time></trkpt><trkpt lat="42.82157317571931" lon="12.758625135652306"><ele>225.0</ele><time>2026-05-01T16:21:43Z</time></trkpt><trkpt lat="42.821829542530374" lon="12.758748119229953"><ele>224.5</ele><time>2026-05-01T16:21:44Z</time></trkpt><trkpt lat="42.82208448564112" lon="12.75887910963293"><ele>224.0</ele><time>2026-05-01T16:21:45Z</time></trkpt><trkpt lat="42.822336794290365" lon="12.759014585358996"><ele>224.0</ele><time>2026-05-01T16:21:46Z</time></trkpt><trkpt lat="42.822590060591104" lon="12.759154127577732"><ele>224.0</ele><time>2026-05-01T16:21:47Z</time></trkpt><trkpt lat="42.82284667206332" lon="12.759294121283572"><ele>223.5</ele><time>2026-05-01T16:21:48Z</time></trkpt><trkpt lat="42.82310574124641" lon="12.759429875812414"><ele>223.0</ele><time>2026-05-01T16:21:49Z</time></trkpt><trkpt lat="42.82336616034827" lon="12.759557074040226"><ele>222.0</ele><time>2026-05-01T16:21:50Z</time></trkpt><trkpt lat="42.823629846137145" lon="12.759680280281707"><ele>221.0</ele><time>2026-05-01T16:21:51Z</time></trkpt><trkpt lat="42.82390227746792" lon="12.759797135786346"><ele>221.0</ele><time>2026-05-01T16:21:52Z</time></trkpt><trkpt lat="42.82417398040567" lon="12.759905894200969"><ele>221.0</ele><time>2026-05-01T16:21:53Z</time></trkpt><trkpt lat="42.824451992917595" lon="12.760008240111565"><ele>222.0</ele><time>2026-05-01T16:21:54Z</time></trkpt><trkpt lat="42.82472303256391" lon="12.760101391503762"><ele>223.0</ele><time>2026-05-01T16:21:55Z</time></trkpt><trkpt lat="42.82499427590776" lon="12.760180149423874"><ele>223.0</ele><time>2026-05-01T16:21:56Z</time></trkpt><trkpt lat="42.82526776973614" lon="12.760238409809467"><ele>223.0</ele><time>2026-05-01T16:21:57Z</time></trkpt><trkpt lat="42.8255444450576" lon="12.760283794584604"><ele>223.0</ele><time>2026-05-01T16:21:58Z</time></trkpt><trkpt lat="42.8258162954155" lon="12.760329196965955"><ele>223.0</ele><time>2026-05-01T16:21:59Z</time></trkpt><trkpt lat="42.82608700365576" lon="12.760376628923497"><ele>224.0</ele><time>2026-05-01T16:22:00Z</time></trkpt><trkpt lat="42.82635955027198" lon="12.760429248975552"><ele>225.0</ele><time>2026-05-01T16:22:01Z</time></trkpt><trkpt lat="42.82663124569207" lon="12.760481590112697"><ele>224.5</ele><time>2026-05-01T16:22:02Z</time></trkpt><trkpt lat="42.826901570145175" lon="12.760523429493933"><ele>224.0</ele><time>2026-05-01T16:22:03Z</time></trkpt><trkpt lat="42.827176596031485" lon="12.760512217062203"><ele>224.0</ele><time>2026-05-01T16:22:04Z</time></trkpt><trkpt lat="42.82745440394052" lon="12.760507456498557"><ele>224.0</ele><time>2026-05-01T16:22:05Z</time></trkpt><trkpt lat="42.827701835874066" lon="12.76053926539539"><ele>223.0</ele><time>2026-05-01T16:22:06Z</time></trkpt><trkpt lat="42.82798029688746" lon="12.760544377412812"><ele>222.0</ele><time>2026-05-01T16:22:07Z</time></trkpt><trkpt lat="42.828243344208225" lon="12.760543560593145"><ele>222.0</ele><time>2026-05-01T16:22:08Z</time></trkpt><trkpt lat="42.8285026075623" lon="12.76052650795873"><ele>222.0</ele><time>2026-05-01T16:22:09Z</time></trkpt><trkpt lat="42.82877007669251" lon="12.760496549272338"><ele>222.0</ele><time>2026-05-01T16:22:10Z</time></trkpt><trkpt lat="42.82903746525495" lon="12.76045570909847"><ele>222.0</ele><time>2026-05-01T16:22:11Z</time></trkpt><trkpt lat="42.82930875265062" lon="12.760403693258134"><ele>221.5</ele><time>2026-05-01T16:22:12Z</time></trkpt><trkpt lat="42.829580476413405" lon="12.760343259294995"><ele>221.0</ele><time>2026-05-01T16:22:13Z</time></trkpt><trkpt lat="42.82985026707477" lon="12.76027101003064"><ele>221.0</ele><time>2026-05-01T16:22:14Z</time></trkpt><trkpt lat="42.83012111793905" lon="12.760190733275188"><ele>221.0</ele><time>2026-05-01T16:22:15Z</time></trkpt><trkpt lat="42.83038828247856" lon="12.760100179753799"><ele>221.0</ele><time>2026-05-01T16:22:16Z</time></trkpt><trkpt lat="42.83065634024156" lon="12.759997850825318"><ele>221.0</ele><time>2026-05-01T16:22:17Z</time></trkpt><trkpt lat="42.83092102444625" lon="12.759881705456698"><ele>221.0</ele><time>2026-05-01T16:22:18Z</time></trkpt><trkpt lat="42.83118524610669" lon="12.759755386108983"><ele>221.0</ele><time>2026-05-01T16:22:19Z</time></trkpt><trkpt lat="42.8314468235046" lon="12.759617459889082"><ele>221.0</ele><time>2026-05-01T16:22:20Z</time></trkpt><trkpt lat="42.831705310311435" lon="12.759463752468532"><ele>221.0</ele><time>2026-05-01T16:22:21Z</time></trkpt><trkpt lat="42.83195658203007" lon="12.759299352516162"><ele>220.0</ele><time>2026-05-01T16:22:22Z</time></trkpt><trkpt lat="42.832209617336865" lon="12.759133789932005"><ele>219.0</ele><time>2026-05-01T16:22:23Z</time></trkpt><trkpt lat="42.832465355097945" lon="12.758967278082006"><ele>220.0</ele><time>2026-05-01T16:22:24Z</time></trkpt><trkpt lat="42.8327207603689" lon="12.758801004169543"><ele>221.0</ele><time>2026-05-01T16:22:24.999Z</time></trkpt><trkpt lat="42.832971961614234" lon="12.758629895596307"><ele>221.0</ele><time>2026-05-01T16:22:25.999Z</time></trkpt><trkpt lat="42.83322271503596" lon="12.758457299305336"><ele>221.0</ele><time>2026-05-01T16:22:26.999Z</time></trkpt><trkpt lat="42.83347670150954" lon="12.758284200409769"><ele>221.0</ele><time>2026-05-01T16:22:27.999Z</time></trkpt><trkpt lat="42.833729291717724" lon="12.75810816905616"><ele>221.0</ele><time>2026-05-01T16:22:28.999Z</time></trkpt><trkpt lat="42.833979207219095" lon="12.757930693792208"><ele>221.0</ele><time>2026-05-01T16:22:29.999Z</time></trkpt><trkpt lat="42.83423369175167" lon="12.7577544472015"><ele>221.0</ele><time>2026-05-01T16:22:30.999Z</time></trkpt><trkpt lat="42.8344858347473" lon="12.757578634422929"><ele>220.5</ele><time>2026-05-01T16:22:31.999Z</time></trkpt><trkpt lat="42.83474211680154" lon="12.757401665715973"><ele>220.0</ele><time>2026-05-01T16:22:32.999Z</time></trkpt><trkpt lat="42.83499408587668" lon="12.757224266737555"><ele>220.0</ele><time>2026-05-01T16:22:34Z</time></trkpt><trkpt lat="42.835247614206295" lon="12.757043063350654"><ele>220.0</ele><time>2026-05-01T16:22:35Z</time></trkpt><trkpt lat="42.83549787376632" lon="12.75686110765878"><ele>219.5</ele><time>2026-05-01T16:22:36Z</time></trkpt><trkpt lat="42.83574719877245" lon="12.756682503053147"><ele>219.0</ele><time>2026-05-01T16:22:37Z</time></trkpt><trkpt lat="42.835997540992395" lon="12.756511229869213"><ele>219.0</ele><time>2026-05-01T16:22:38Z</time></trkpt><trkpt lat="42.8362512859794" lon="12.756343269148239"><ele>219.0</ele><time>2026-05-01T16:22:39Z</time></trkpt><trkpt lat="42.8365116703561" lon="12.75616741749546"><ele>219.0</ele><time>2026-05-01T16:22:40Z</time></trkpt><trkpt lat="42.83677824136359" lon="12.755979951363713"><ele>219.0</ele><time>2026-05-01T16:22:41Z</time></trkpt><trkpt lat="42.83704698780531" lon="12.755794835877628"><ele>219.0</ele><time>2026-05-01T16:22:42Z</time></trkpt><trkpt lat="42.83732046401336" lon="12.75561288227454"><ele>219.0</ele><time>2026-05-01T16:22:43Z</time></trkpt><trkpt lat="42.83759890004297" lon="12.75543087738466"><ele>218.5</ele><time>2026-05-01T16:22:44Z</time></trkpt><trkpt lat="42.83788200650218" lon="12.75525665567525"><ele>218.0</ele><time>2026-05-01T16:22:45Z</time></trkpt><trkpt lat="42.83817231040168" lon="12.755086608147987"><ele>217.5</ele><time>2026-05-01T16:22:46Z</time></trkpt><trkpt lat="42.83846753028491" lon="12.754926082499303"><ele>217.0</ele><time>2026-05-01T16:22:47Z</time></trkpt><trkpt lat="42.838756810236376" lon="12.754771930343871"><ele>218.0</ele><time>2026-05-01T16:22:48Z</time></trkpt><trkpt lat="42.83900034351639" lon="12.75462881596034"><ele>219.0</ele><time>2026-05-01T16:22:49Z</time></trkpt><trkpt lat="42.83922515991014" lon="12.754482592288417"><ele>219.0</ele><time>2026-05-01T16:22:50Z</time></trkpt><trkpt lat="42.83967698578866" lon="12.75434173141486"><ele>219.0</ele><time>2026-05-01T16:22:51Z</time></trkpt><trkpt lat="42.83997580324792" lon="12.754206714418327"><ele>219.0</ele><time>2026-05-01T16:22:52Z</time></trkpt><trkpt lat="42.840276626553404" lon="12.754076439968948"><ele>218.5</ele><time>2026-05-01T16:22:53Z</time></trkpt><trkpt lat="42.84056775708891" lon="12.753953710022577"><ele>218.0</ele><time>2026-05-01T16:22:54Z</time></trkpt><trkpt lat="42.840852282016634" lon="12.753836063489553"><ele>217.5</ele><time>2026-05-01T16:22:55Z</time></trkpt><trkpt lat="42.84113438846273" lon="12.753713771016033"><ele>217.0</ele><time>2026-05-01T16:22:56Z</time></trkpt><trkpt lat="42.841396800168134" lon="12.753601502404347"><ele>217.0</ele><time>2026-05-01T16:22:57Z</time></trkpt><trkpt lat="42.841654734539134" lon="12.75349381036982"><ele>217.0</ele><time>2026-05-01T16:22:58Z</time></trkpt><trkpt lat="42.8419063377015" lon="12.753380190272345"><ele>217.0</ele><time>2026-05-01T16:22:59Z</time></trkpt><trkpt lat="42.842158769520466" lon="12.753247534857717"><ele>217.0</ele><time>2026-05-01T16:23:00Z</time></trkpt><trkpt lat="42.842410215595905" lon="12.753114633041495"><ele>217.0</ele><time>2026-05-01T16:23:01Z</time></trkpt><trkpt lat="42.84266162991661" lon="12.752973751776578"><ele>217.0</ele><time>2026-05-01T16:23:02Z</time></trkpt><trkpt lat="42.8429111926962" lon="12.752816036328941"><ele>216.5</ele><time>2026-05-01T16:23:03Z</time></trkpt><trkpt lat="42.843160322489226" lon="12.752649148729269"><ele>216.0</ele><time>2026-05-01T16:23:04Z</time></trkpt><trkpt lat="42.8434081625573" lon="12.752472225450981"><ele>216.5</ele><time>2026-05-01T16:23:05Z</time></trkpt><trkpt lat="42.84365188493645" lon="12.752286789002635"><ele>217.0</ele><time>2026-05-01T16:23:06Z</time></trkpt><trkpt lat="42.84388987619304" lon="12.752094195146974"><ele>217.0</ele><time>2026-05-01T16:23:07Z</time></trkpt><trkpt lat="42.84412889100705" lon="12.751896040217586"><ele>217.0</ele><time>2026-05-01T16:23:08Z</time></trkpt><trkpt lat="42.84436445613988" lon="12.751691546323094"><ele>217.0</ele><time>2026-05-01T16:23:09Z</time></trkpt><trkpt lat="42.844600568526225" lon="12.75148468311194"><ele>217.0</ele><time>2026-05-01T16:23:10Z</time></trkpt><trkpt lat="42.84483584771752" lon="12.751275583330576"><ele>217.0</ele><time>2026-05-01T16:23:11Z</time></trkpt><trkpt lat="42.84506890990974" lon="12.751065422946224"><ele>217.0</ele><time>2026-05-01T16:23:12Z</time></trkpt><trkpt lat="42.845287120185965" lon="12.750844472720525"><ele>216.5</ele><time>2026-05-01T16:23:13Z</time></trkpt><trkpt lat="42.8455047637" lon="12.750627330474362"><ele>216.0</ele><time>2026-05-01T16:23:14Z</time></trkpt><trkpt lat="42.84572735589425" lon="12.750412311697456"><ele>215.5</ele><time>2026-05-01T16:23:15Z</time></trkpt><trkpt lat="42.84594720187099" lon="12.750201570455452"><ele>215.0</ele><time>2026-05-01T16:23:16Z</time></trkpt><trkpt lat="42.846168838807536" lon="12.749997819684506"><ele>215.0</ele><time>2026-05-01T16:23:17Z</time></trkpt><trkpt lat="42.84638695725931" lon="12.74979626944208"><ele>215.0</ele><time>2026-05-01T16:23:18Z</time></trkpt><trkpt lat="42.84660265412033" lon="12.749590409827034"><ele>215.5</ele><time>2026-05-01T16:23:19Z</time></trkpt><trkpt lat="42.84681674649928" lon="12.749379264329898"><ele>216.0</ele><time>2026-05-01T16:23:20Z</time></trkpt><trkpt lat="42.84702520580075" lon="12.74917756293795"><ele>216.0</ele><time>2026-05-01T16:23:21Z</time></trkpt><trkpt lat="42.84723849573139" lon="12.748980988833601"><ele>216.0</ele><time>2026-05-01T16:23:22Z</time></trkpt><trkpt lat="42.84744961228915" lon="12.748778904563489"><ele>216.0</ele><time>2026-05-01T16:23:23Z</time></trkpt><trkpt lat="42.84765689595219" lon="12.748580243578647"><ele>216.0</ele><time>2026-05-01T16:23:24Z</time></trkpt><trkpt lat="42.84786680700247" lon="12.748385600531547"><ele>216.0</ele><time>2026-05-01T16:23:25Z</time></trkpt><trkpt lat="42.848079492121904" lon="12.748195788487065"><ele>216.0</ele><time>2026-05-01T16:23:26Z</time></trkpt><trkpt lat="42.848291850699326" lon="12.748020746318163"><ele>216.5</ele><time>2026-05-01T16:23:27Z</time></trkpt><trkpt lat="42.84850301289851" lon="12.747850758925292"><ele>217.0</ele><time>2026-05-01T16:23:28Z</time></trkpt><trkpt lat="42.84872130650739" lon="12.747683642414788"><ele>216.0</ele><time>2026-05-01T16:23:29Z</time></trkpt><trkpt lat="42.84894690601241" lon="12.747527720713688"><ele>215.0</ele><time>2026-05-01T16:23:30Z</time></trkpt><trkpt lat="42.84917483972644" lon="12.747384823963204"><ele>215.5</ele><time>2026-05-01T16:23:31Z</time></trkpt><trkpt lat="42.84939316129092" lon="12.747241914075408"><ele>216.0</ele><time>2026-05-01T16:23:32Z</time></trkpt><trkpt lat="42.84961754668151" lon="12.747091324742945"><ele>216.0</ele><time>2026-05-01T16:23:33Z</time></trkpt><trkpt lat="42.849841632343505" lon="12.746937727277887"><ele>216.0</ele><time>2026-05-01T16:23:34Z</time></trkpt><trkpt lat="42.85006821441773" lon="12.746788155795588"><ele>216.5</ele><time>2026-05-01T16:23:35Z</time></trkpt><trkpt lat="42.850290835516056" lon="12.746625835477147"><ele>217.0</ele><time>2026-05-01T16:23:36Z</time></trkpt><trkpt lat="42.85051053804001" lon="12.746455362874494"><ele>217.0</ele><time>2026-05-01T16:23:37Z</time></trkpt><trkpt lat="42.85072748219429" lon="12.7462732420756"><ele>217.0</ele><time>2026-05-01T16:23:38Z</time></trkpt><trkpt lat="42.85094091912053" lon="12.746080661304678"><ele>216.5</ele><time>2026-05-01T16:23:39Z</time></trkpt><trkpt lat="42.8511500160476" lon="12.745876459740833"><ele>216.0</ele><time>2026-05-01T16:23:40Z</time></trkpt><trkpt lat="42.8513595109418" lon="12.745666898464908"><ele>216.0</ele><time>2026-05-01T16:23:41Z</time></trkpt><trkpt lat="42.85156308680063" lon="12.745450438912926"><ele>216.0</ele><time>2026-05-01T16:23:42Z</time></trkpt><trkpt lat="42.851767733954105" lon="12.745234136372309"><ele>216.0</ele><time>2026-05-01T16:23:43Z</time></trkpt><trkpt lat="42.85197068020877" lon="12.745011818663667"><ele>216.0</ele><time>2026-05-01T16:23:44Z</time></trkpt><trkpt lat="42.852173618894426" lon="12.74478710444318"><ele>216.0</ele><time>2026-05-01T16:23:45Z</time></trkpt><trkpt lat="42.85237346577392" lon="12.74456770221415"><ele>216.0</ele><time>2026-05-01T16:23:46Z</time></trkpt><trkpt lat="42.852574737350345" lon="12.744352463967306"><ele>217.0</ele><time>2026-05-01T16:23:47Z</time></trkpt><trkpt lat="42.85277157640597" lon="12.744137404118813"><ele>218.0</ele><time>2026-05-01T16:23:48Z</time></trkpt><trkpt lat="42.85296560266586" lon="12.743924759023395"><ele>218.0</ele><time>2026-05-01T16:23:49Z</time></trkpt><trkpt lat="42.85315951672555" lon="12.74370952727155"><ele>218.0</ele><time>2026-05-01T16:23:50Z</time></trkpt><trkpt lat="42.85335454563436" lon="12.743492588738468"><ele>217.5</ele><time>2026-05-01T16:23:51Z</time></trkpt><trkpt lat="42.85355476311147" lon="12.74327339648635"><ele>217.0</ele><time>2026-05-01T16:23:52Z</time></trkpt><trkpt lat="42.85375214614052" lon="12.743059808404269"><ele>217.0</ele><time>2026-05-01T16:23:53Z</time></trkpt><trkpt lat="42.85395240811923" lon="12.742849626304643"><ele>217.0</ele><time>2026-05-01T16:23:54Z</time></trkpt><trkpt lat="42.85415502115575" lon="12.742641211184354"><ele>217.0</ele><time>2026-05-01T16:23:55Z</time></trkpt><trkpt lat="42.85436409062448" lon="12.742433205571116"><ele>217.0</ele><time>2026-05-01T16:23:56Z</time></trkpt><trkpt lat="42.85457463334872" lon="12.74222826107613"><ele>217.0</ele><time>2026-05-01T16:23:57Z</time></trkpt><trkpt lat="42.854789705460504" lon="12.742025116011597"><ele>217.0</ele><time>2026-05-01T16:23:58Z</time></trkpt><trkpt lat="42.85500313179408" lon="12.741822266204224"><ele>217.5</ele><time>2026-05-01T16:23:59Z</time></trkpt><trkpt lat="42.85522173340237" lon="12.741622421411124"><ele>218.0</ele><time>2026-05-01T16:24:00Z</time></trkpt><trkpt lat="42.85543979770747" lon="12.741427494392624"><ele>218.0</ele><time>2026-05-01T16:24:01Z</time></trkpt><trkpt lat="42.855659511235906" lon="12.741233028687331"><ele>218.0</ele><time>2026-05-01T16:24:02Z</time></trkpt><trkpt lat="42.85588287629884" lon="12.741042443180012"><ele>216.5</ele><time>2026-05-01T16:24:03Z</time></trkpt><trkpt lat="42.85610883905822" lon="12.740852187197877"><ele>215.0</ele><time>2026-05-01T16:24:04Z</time></trkpt><trkpt lat="42.85634426035215" lon="12.740657042946193"><ele>215.0</ele><time>2026-05-01T16:24:05Z</time></trkpt><trkpt lat="42.85658255164791" lon="12.740463949085118"><ele>215.0</ele><time>2026-05-01T16:24:06Z</time></trkpt><trkpt lat="42.85682428574005" lon="12.740272910362776"><ele>215.5</ele><time>2026-05-01T16:24:07Z</time></trkpt><trkpt lat="42.85707114292312" lon="12.74008568196919"><ele>216.0</ele><time>2026-05-01T16:24:08Z</time></trkpt><trkpt lat="42.85732099082119" lon="12.739903965227812"><ele>216.0</ele><time>2026-05-01T16:24:09Z</time></trkpt><trkpt lat="42.85757512229128" lon="12.73971940625977"><ele>216.0</ele><time>2026-05-01T16:24:10Z</time></trkpt><trkpt lat="42.85782329297139" lon="12.739542000665576"><ele>216.0</ele><time>2026-05-01T16:24:11Z</time></trkpt><trkpt lat="42.85807293862334" lon="12.739363470276686"><ele>216.0</ele><time>2026-05-01T16:24:12Z</time></trkpt><trkpt lat="42.858321149847406" lon="12.739192739476655"><ele>216.0</ele><time>2026-05-01T16:24:13Z</time></trkpt><trkpt lat="42.858571925568334" lon="12.739027520928719"><ele>216.0</ele><time>2026-05-01T16:24:14Z</time></trkpt><trkpt lat="42.85882286780139" lon="12.738868801009428"><ele>216.0</ele><time>2026-05-01T16:24:15Z</time></trkpt><trkpt lat="42.859072149983284" lon="12.738709140585526"><ele>216.0</ele><time>2026-05-01T16:24:16Z</time></trkpt><trkpt lat="42.85931997906852" lon="12.738552172781588"><ele>215.5</ele><time>2026-05-01T16:24:17Z</time></trkpt><trkpt lat="42.85956586096572" lon="12.738392193038768"><ele>215.0</ele><time>2026-05-01T16:24:18Z</time></trkpt><trkpt lat="42.859810340537635" lon="12.738229927685348"><ele>215.0</ele><time>2026-05-01T16:24:19Z</time></trkpt><trkpt lat="42.86005080138765" lon="12.738064403154684"><ele>215.0</ele><time>2026-05-01T16:24:20Z</time></trkpt><trkpt lat="42.86029156954268" lon="12.73790776360233"><ele>215.0</ele><time>2026-05-01T16:24:21Z</time></trkpt><trkpt lat="42.860533391683184" lon="12.737749750556713"><ele>215.0</ele><time>2026-05-01T16:24:22Z</time></trkpt><trkpt lat="42.860774068505044" lon="12.737596864000128"><ele>215.0</ele><time>2026-05-01T16:24:23Z</time></trkpt><trkpt lat="42.86101282864899" lon="12.73744365289259"><ele>215.0</ele><time>2026-05-01T16:24:24Z</time></trkpt><trkpt lat="42.86124820707497" lon="12.737290656270652"><ele>215.0</ele><time>2026-05-01T16:24:25Z</time></trkpt><trkpt lat="42.861482882614766" lon="12.737132402210307"><ele>215.0</ele><time>2026-05-01T16:24:26Z</time></trkpt><trkpt lat="42.86171473177853" lon="12.736970083737177"><ele>215.5</ele><time>2026-05-01T16:24:27Z</time></trkpt><trkpt lat="42.861943469740204" lon="12.73680264326973"><ele>216.0</ele><time>2026-05-01T16:24:28Z</time></trkpt><trkpt lat="42.86216893181178" lon="12.736633385821293"><ele>216.0</ele><time>2026-05-01T16:24:29Z</time></trkpt><trkpt lat="42.86239256942047" lon="12.736461251958584"><ele>216.0</ele><time>2026-05-01T16:24:30Z</time></trkpt><trkpt lat="42.862613363569935" lon="12.736280984851874"><ele>215.5</ele><time>2026-05-01T16:24:31Z</time></trkpt><trkpt lat="42.862831576441366" lon="12.73609348033739"><ele>215.0</ele><time>2026-05-01T16:24:32Z</time></trkpt><trkpt lat="42.86304782625355" lon="12.735896107943292"><ele>215.0</ele><time>2026-05-01T16:24:33Z</time></trkpt><trkpt lat="42.863256811239886" lon="12.735691930386578"><ele>215.0</ele><time>2026-05-01T16:24:34Z</time></trkpt><trkpt lat="42.863463584762656" lon="12.735479673666402"><ele>215.0</ele><time>2026-05-01T16:24:35Z</time></trkpt><trkpt lat="42.863666489345064" lon="12.735258226484314"><ele>215.0</ele><time>2026-05-01T16:24:36Z</time></trkpt><trkpt lat="42.863865055195184" lon="12.735036888017927"><ele>214.0</ele><time>2026-05-01T16:24:37Z</time></trkpt><trkpt lat="42.86406143667845" lon="12.734814676576073"><ele>213.0</ele><time>2026-05-01T16:24:38Z</time></trkpt><trkpt lat="42.864254572045475" lon="12.734589293142458"><ele>213.0</ele><time>2026-05-01T16:24:39Z</time></trkpt><trkpt lat="42.86444364767015" lon="12.734356418748451"><ele>213.0</ele><time>2026-05-01T16:24:40.001Z</time></trkpt><trkpt lat="42.86462702503266" lon="12.734121418555482"><ele>213.0</ele><time>2026-05-01T16:24:41.001Z</time></trkpt><trkpt lat="42.86481507515371" lon="12.733885960497242"><ele>213.0</ele><time>2026-05-01T16:24:42.001Z</time></trkpt><trkpt lat="42.865008116088006" lon="12.733653177475045"><ele>213.5</ele><time>2026-05-01T16:24:43.001Z</time></trkpt><trkpt lat="42.86520595225384" lon="12.733416869662232"><ele>214.0</ele><time>2026-05-01T16:24:44.001Z</time></trkpt><trkpt lat="42.8654048770406" lon="12.733178307641237"><ele>214.0</ele><time>2026-05-01T16:24:45.001Z</time></trkpt><trkpt lat="42.8656088101505" lon="12.732939821683914"><ele>214.0</ele><time>2026-05-01T16:24:46.001Z</time></trkpt><trkpt lat="42.86581924511734" lon="12.732708357285622"><ele>213.0</ele><time>2026-05-01T16:24:47.001Z</time></trkpt><trkpt lat="42.86603696051807" lon="12.732488040214372"><ele>212.0</ele><time>2026-05-01T16:24:48.001Z</time></trkpt><trkpt lat="42.8662607245146" lon="12.732281672280598"><ele>212.0</ele><time>2026-05-01T16:24:49.001Z</time></trkpt><trkpt lat="42.86648929804563" lon="12.732081212004573"><ele>212.0</ele><time>2026-05-01T16:24:50.001Z</time></trkpt><trkpt lat="42.86672720362755" lon="12.731879380659892"><ele>212.0</ele><time>2026-05-01T16:24:51.001Z</time></trkpt><trkpt lat="42.86696987251341" lon="12.731686481628019"><ele>212.0</ele><time>2026-05-01T16:24:52.001Z</time></trkpt><trkpt lat="42.86721342400823" lon="12.731491820412824"><ele>212.0</ele><time>2026-05-01T16:24:53.001Z</time></trkpt><trkpt lat="42.86745625077318" lon="12.731298323023106"><ele>212.0</ele><time>2026-05-01T16:24:54.001Z</time></trkpt><trkpt lat="42.86769427239591" lon="12.731109635837722"><ele>212.5</ele><time>2026-05-01T16:24:55.001Z</time></trkpt><trkpt lat="42.86793281437018" lon="12.730917286976082"><ele>213.0</ele><time>2026-05-01T16:24:56.001Z</time></trkpt><trkpt lat="42.868168557813746" lon="12.730728554960647"><ele>213.0</ele><time>2026-05-01T16:24:57.001Z</time></trkpt><trkpt lat="42.86840258214347" lon="12.730539820053604"><ele>213.0</ele><time>2026-05-01T16:24:58Z</time></trkpt><trkpt lat="42.868628896293494" lon="12.730357530689483"><ele>212.5</ele><time>2026-05-01T16:24:59Z</time></trkpt><trkpt lat="42.86886291052012" lon="12.73018318991211"><ele>212.0</ele><time>2026-05-01T16:25:00Z</time></trkpt><trkpt lat="42.86909892864516" lon="12.73002202922803"><ele>211.0</ele><time>2026-05-01T16:25:00.999Z</time></trkpt><trkpt lat="42.86933834421367" lon="12.729873375165175"><ele>210.0</ele><time>2026-05-01T16:25:01.999Z</time></trkpt><trkpt lat="42.86957924606827" lon="12.729734409133565"><ele>210.0</ele><time>2026-05-01T16:25:02.999Z</time></trkpt><trkpt lat="42.86982597705338" lon="12.72961565499262"><ele>210.0</ele><time>2026-05-01T16:25:03.999Z</time></trkpt><trkpt lat="42.87007575447876" lon="12.729517095405754"><ele>210.0</ele><time>2026-05-01T16:25:04.999Z</time></trkpt><trkpt lat="42.870326091233316" lon="12.729430278567442"><ele>210.0</ele><time>2026-05-01T16:25:05.999Z</time></trkpt><trkpt lat="42.87058133060627" lon="12.729351540454658"><ele>210.5</ele><time>2026-05-01T16:25:06.999Z</time></trkpt><trkpt lat="42.87084022529146" lon="12.72928778965482"><ele>211.0</ele><time>2026-05-01T16:25:07.999Z</time></trkpt><trkpt lat="42.87109736210667" lon="12.729237445233482"><ele>211.0</ele><time>2026-05-01T16:25:08.999Z</time></trkpt><trkpt lat="42.87135397556026" lon="12.729197242273363"><ele>211.0</ele><time>2026-05-01T16:25:09.999Z</time></trkpt><trkpt lat="42.87161083738376" lon="12.729184407301508"><ele>211.5</ele><time>2026-05-01T16:25:10.999Z</time></trkpt><trkpt lat="42.871866081448545" lon="12.729184459725552"><ele>212.0</ele><time>2026-05-01T16:25:11.999Z</time></trkpt><trkpt lat="42.87212110307188" lon="12.729192576198724"><ele>212.0</ele><time>2026-05-01T16:25:12.999Z</time></trkpt><trkpt lat="42.87237424562447" lon="12.729218345861627"><ele>212.0</ele><time>2026-05-01T16:25:13.999Z</time></trkpt><trkpt lat="42.8726301001491" lon="12.729256272450838"><ele>212.0</ele><time>2026-05-01T16:25:14.999Z</time></trkpt><trkpt lat="42.87288041188547" lon="12.72930933247883"><ele>212.0</ele><time>2026-05-01T16:25:15.999Z</time></trkpt><trkpt lat="42.87312542767013" lon="12.729370572394613"><ele>212.0</ele><time>2026-05-01T16:25:16.999Z</time></trkpt><trkpt lat="42.87336792945334" lon="12.729450389402134"><ele>212.0</ele><time>2026-05-01T16:25:17.999Z</time></trkpt><trkpt lat="42.873608178642066" lon="12.729538182830973"><ele>212.0</ele><time>2026-05-01T16:25:18.999Z</time></trkpt><trkpt lat="42.873842094565134" lon="12.72963325768171"><ele>212.0</ele><time>2026-05-01T16:25:19.999Z</time></trkpt><trkpt lat="42.87406911229576" lon="12.72973690958864"><ele>211.0</ele><time>2026-05-01T16:25:20.999Z</time></trkpt><trkpt lat="42.87429457828955" lon="12.729843575385093"><ele>210.0</ele><time>2026-05-01T16:25:21.999Z</time></trkpt><trkpt lat="42.87451608040979" lon="12.729946370732572"><ele>210.0</ele><time>2026-05-01T16:25:22.999Z</time></trkpt><trkpt lat="42.87473409709282" lon="12.730044064457115"><ele>210.0</ele><time>2026-05-01T16:25:23.999Z</time></trkpt><trkpt lat="42.87494578045015" lon="12.730131725664203"><ele>209.66666666666669</ele><time>2026-05-01T16:25:24.999Z</time></trkpt><trkpt lat="42.875157528176516" lon="12.73021684619663"><ele>209.33333333333334</ele><time>2026-05-01T16:25:25.999Z</time></trkpt><trkpt lat="42.875366535851285" lon="12.730299576009813"><ele>209.0</ele><time>2026-05-01T16:25:26.999Z</time></trkpt><trkpt lat="42.87557792183922" lon="12.730375075138772"><ele>209.0</ele><time>2026-05-01T16:25:27.999Z</time></trkpt><trkpt lat="42.87579242442135" lon="12.730441755322836"><ele>209.0</ele><time>2026-05-01T16:25:28.999Z</time></trkpt><trkpt lat="42.87601107878812" lon="12.730497497660394"><ele>209.0</ele><time>2026-05-01T16:25:29.999Z</time></trkpt><trkpt lat="42.876233607885396" lon="12.730541217704754"><ele>208.66666666666669</ele><time>2026-05-01T16:25:30.999Z</time></trkpt><trkpt lat="42.876455124708706" lon="12.730580603700233"><ele>208.33333333333331</ele><time>2026-05-01T16:25:31.999Z</time></trkpt><trkpt lat="42.87667947291739" lon="12.730602490824056"><ele>208.0</ele><time>2026-05-01T16:25:32.999Z</time></trkpt><trkpt lat="42.876905360313266" lon="12.730610781339234"><ele>208.0</ele><time>2026-05-01T16:25:33.999Z</time></trkpt><trkpt lat="42.87712810333703" lon="12.730611184444575"><ele>208.0</ele><time>2026-05-01T16:25:34.999Z</time></trkpt><trkpt lat="42.877344519157226" lon="12.730608017253964"><ele>208.0</ele><time>2026-05-01T16:25:35.999Z</time></trkpt><trkpt lat="42.877552232171794" lon="12.73059018152322"><ele>208.0</ele><time>2026-05-01T16:25:36.999Z</time></trkpt><trkpt lat="42.87775568737965" lon="12.73056433703079"><ele>208.0</ele><time>2026-05-01T16:25:37.999Z</time></trkpt><trkpt lat="42.87795798545078" lon="12.730530663779762"><ele>208.0</ele><time>2026-05-01T16:25:38.999Z</time></trkpt><trkpt lat="42.87816151007727" lon="12.730488642678015"><ele>208.0</ele><time>2026-05-01T16:25:39.999Z</time></trkpt><trkpt lat="42.87836610159891" lon="12.73043694227795"><ele>208.0</ele><time>2026-05-01T16:25:40.999Z</time></trkpt><trkpt lat="42.878575471208954" lon="12.730375160405917"><ele>208.0</ele><time>2026-05-01T16:25:41.999Z</time></trkpt><trkpt lat="42.878787905481964" lon="12.730294170773131"><ele>208.0</ele><time>2026-05-01T16:25:42.999Z</time></trkpt><trkpt lat="42.87900139160813" lon="12.730190488697781"><ele>208.0</ele><time>2026-05-01T16:25:43.999Z</time></trkpt><trkpt lat="42.87922176756999" lon="12.730072417189977"><ele>208.0</ele><time>2026-05-01T16:25:44.999Z</time></trkpt><trkpt lat="42.87944754239732" lon="12.729946324290939"><ele>208.0</ele><time>2026-05-01T16:25:45.999Z</time></trkpt><trkpt lat="42.87967731642783" lon="12.729812317222706"><ele>208.0</ele><time>2026-05-01T16:25:46.999Z</time></trkpt><trkpt lat="42.8799036836095" lon="12.729683424007492"><ele>208.0</ele><time>2026-05-01T16:25:47.999Z</time></trkpt><trkpt lat="42.88013408494281" lon="12.72954886584614"><ele>208.5</ele><time>2026-05-01T16:25:48.999Z</time></trkpt><trkpt lat="42.88036202440921" lon="12.729418901577228"><ele>209.0</ele><time>2026-05-01T16:25:49.999Z</time></trkpt><trkpt lat="42.88059675441327" lon="12.729287330200233"><ele>209.0</ele><time>2026-05-01T16:25:50.999Z</time></trkpt><trkpt lat="42.880836758317706" lon="12.729149699010602"><ele>209.0</ele><time>2026-05-01T16:25:51.999Z</time></trkpt><trkpt lat="42.881073238274325" lon="12.729011099686515"><ele>209.0</ele><time>2026-05-01T16:25:52.999Z</time></trkpt><trkpt lat="42.88131397852002" lon="12.72887558626291"><ele>209.0</ele><time>2026-05-01T16:25:53.999Z</time></trkpt><trkpt lat="42.88155837246709" lon="12.728739563231066"><ele>209.5</ele><time>2026-05-01T16:25:54.999Z</time></trkpt><trkpt lat="42.88180172805468" lon="12.728594882659792"><ele>210.0</ele><time>2026-05-01T16:25:55.999Z</time></trkpt><trkpt lat="42.88204666104999" lon="12.728449542017108"><ele>210.0</ele><time>2026-05-01T16:25:56.999Z</time></trkpt><trkpt lat="42.88228969035278" lon="12.728304294005161"><ele>210.0</ele><time>2026-05-01T16:25:57.999Z</time></trkpt><trkpt lat="42.882529689422675" lon="12.728162110166496"><ele>209.0</ele><time>2026-05-01T16:25:58.999Z</time></trkpt><trkpt lat="42.88277115670847" lon="12.728019709350475"><ele>208.0</ele><time>2026-05-01T16:25:59.999Z</time></trkpt><trkpt lat="42.88300886423199" lon="12.727874239344636"><ele>208.0</ele><time>2026-05-01T16:26:00.999Z</time></trkpt><trkpt lat="42.883244123600306" lon="12.727728930594127"><ele>208.0</ele><time>2026-05-01T16:26:01.999Z</time></trkpt><trkpt lat="42.883478286109465" lon="12.727577292983085"><ele>208.5</ele><time>2026-05-01T16:26:02.999Z</time></trkpt><trkpt lat="42.88370891721156" lon="12.727428005587072"><ele>209.0</ele><time>2026-05-01T16:26:03.999Z</time></trkpt><trkpt lat="42.883942952200336" lon="12.727277223018783"><ele>209.0</ele><time>2026-05-01T16:26:04.999Z</time></trkpt><trkpt lat="42.884178498522715" lon="12.727133478242417"><ele>209.0</ele><time>2026-05-01T16:26:05.999Z</time></trkpt><trkpt lat="42.88441550946267" lon="12.726994484183589"><ele>208.0</ele><time>2026-05-01T16:26:06.999Z</time></trkpt><trkpt lat="42.884653918930404" lon="12.726858005693927"><ele>207.0</ele><time>2026-05-01T16:26:07.999Z</time></trkpt><trkpt lat="42.88489357959695" lon="12.726726218369661"><ele>207.0</ele><time>2026-05-01T16:26:08.999Z</time></trkpt><trkpt lat="42.885132056515744" lon="12.726598244965537"><ele>207.0</ele><time>2026-05-01T16:26:09.999Z</time></trkpt><trkpt lat="42.88536829179345" lon="12.726466560295217"><ele>207.0</ele><time>2026-05-01T16:26:10.999Z</time></trkpt><trkpt lat="42.88560258190873" lon="12.726326336983659"><ele>207.0</ele><time>2026-05-01T16:26:11.999Z</time></trkpt><trkpt lat="42.88583574382962" lon="12.726183830211118"><ele>207.0</ele><time>2026-05-01T16:26:12.999Z</time></trkpt><trkpt lat="42.886067064358414" lon="12.726042269570687"><ele>207.0</ele><time>2026-05-01T16:26:13.999Z</time></trkpt><trkpt lat="42.886303984715795" lon="12.725899200169943"><ele>207.0</ele><time>2026-05-01T16:26:14.999Z</time></trkpt><trkpt lat="42.88654525772357" lon="12.725758992563575"><ele>207.0</ele><time>2026-05-01T16:26:15.999Z</time></trkpt><trkpt lat="42.886788965595485" lon="12.725617708144178"><ele>208.0</ele><time>2026-05-01T16:26:16.999Z</time></trkpt><trkpt lat="42.887028905204566" lon="12.72547440448659"><ele>209.0</ele><time>2026-05-01T16:26:17.999Z</time></trkpt><trkpt lat="42.88727201674951" lon="12.725329972880106"><ele>209.0</ele><time>2026-05-01T16:26:18.999Z</time></trkpt><trkpt lat="42.88750985766098" lon="12.725187404503826"><ele>209.0</ele><time>2026-05-01T16:26:19.999Z</time></trkpt><trkpt lat="42.887754283390215" lon="12.725044919436463"><ele>208.0</ele><time>2026-05-01T16:26:20.999Z</time></trkpt><trkpt lat="42.887990952920276" lon="12.724901527088857"><ele>207.0</ele><time>2026-05-01T16:26:21.999Z</time></trkpt><trkpt lat="42.88822809986461" lon="12.724758879958987"><ele>207.0</ele><time>2026-05-01T16:26:22.999Z</time></trkpt><trkpt lat="42.888463974736865" lon="12.724618495001387"><ele>207.0</ele><time>2026-05-01T16:26:23.999Z</time></trkpt><trkpt lat="42.88869741533604" lon="12.72448049433499"><ele>206.5</ele><time>2026-05-01T16:26:24.999Z</time></trkpt><trkpt lat="42.88892853379568" lon="12.724344619533145"><ele>206.0</ele><time>2026-05-01T16:26:25.999Z</time></trkpt><trkpt lat="42.88915939665297" lon="12.724207229179244"><ele>206.5</ele><time>2026-05-01T16:26:26.999Z</time></trkpt><trkpt lat="42.88938458810777" lon="12.724070222597039"><ele>207.0</ele><time>2026-05-01T16:26:27.999Z</time></trkpt><trkpt lat="42.8896130633124" lon="12.723935507612271"><ele>207.0</ele><time>2026-05-01T16:26:28.999Z</time></trkpt><trkpt lat="42.889842455492065" lon="12.723805150100484"><ele>207.0</ele><time>2026-05-01T16:26:29.999Z</time></trkpt><trkpt lat="42.890070325155165" lon="12.723678331256568"><ele>205.5</ele><time>2026-05-01T16:26:30.999Z</time></trkpt><trkpt lat="42.89029749400945" lon="12.723556410959487"><ele>204.0</ele><time>2026-05-01T16:26:31.999Z</time></trkpt><trkpt lat="42.89052495822628" lon="12.72343529879552"><ele>204.0</ele><time>2026-05-01T16:26:32.999Z</time></trkpt><trkpt lat="42.89075545823221" lon="12.723318348790903"><ele>204.0</ele><time>2026-05-01T16:26:33.999Z</time></trkpt><trkpt lat="42.89098443398481" lon="12.723199626288345"><ele>205.0</ele><time>2026-05-01T16:26:34.999Z</time></trkpt><trkpt lat="42.891215009748215" lon="12.723085482361448"><ele>206.0</ele><time>2026-05-01T16:26:35.999Z</time></trkpt><trkpt lat="42.891450335169026" lon="12.722971018511364"><ele>206.0</ele><time>2026-05-01T16:26:36.999Z</time></trkpt><trkpt lat="42.89169124207966" lon="12.722854561443754"><ele>206.0</ele><time>2026-05-01T16:26:37.999Z</time></trkpt><trkpt lat="42.89193670759157" lon="12.722741830693007"><ele>205.5</ele><time>2026-05-01T16:26:38.999Z</time></trkpt><trkpt lat="42.89218622435345" lon="12.722629016204793"><ele>205.0</ele><time>2026-05-01T16:26:39.999Z</time></trkpt><trkpt lat="42.89243240525559" lon="12.72252501892737"><ele>207.0</ele><time>2026-05-01T16:26:40.999Z</time></trkpt><trkpt lat="42.89268130176406" lon="12.722420648040158"><ele>209.0</ele><time>2026-05-01T16:26:41.999Z</time></trkpt><trkpt lat="42.892931948814386" lon="12.722316608650335"><ele>209.0</ele><time>2026-05-01T16:26:42.999Z</time></trkpt><trkpt lat="42.89318168009461" lon="12.72221799729624"><ele>209.0</ele><time>2026-05-01T16:26:43.999Z</time></trkpt><trkpt lat="42.89342835294135" lon="12.722125349165086"><ele>208.0</ele><time>2026-05-01T16:26:44.999Z</time></trkpt><trkpt lat="42.89368047114513" lon="12.722035046251792"><ele>207.0</ele><time>2026-05-01T16:26:46Z</time></trkpt><trkpt lat="42.8939323367536" lon="12.721947331395535"><ele>207.0</ele><time>2026-05-01T16:26:47Z</time></trkpt><trkpt lat="42.894181529851075" lon="12.721862440583811"><ele>207.0</ele><time>2026-05-01T16:26:48Z</time></trkpt><trkpt lat="42.89442677503199" lon="12.721781303749255"><ele>207.0</ele><time>2026-05-01T16:26:49Z</time></trkpt><trkpt lat="42.89467503018061" lon="12.721700934793652"><ele>207.0</ele><time>2026-05-01T16:26:50Z</time></trkpt><trkpt lat="42.89492179188705" lon="12.721621989920898"><ele>207.0</ele><time>2026-05-01T16:26:51Z</time></trkpt><trkpt lat="42.89516985193966" lon="12.721551158286548"><ele>207.0</ele><time>2026-05-01T16:26:52Z</time></trkpt><trkpt lat="42.895418068238264" lon="12.72148103459318"><ele>207.0</ele><time>2026-05-01T16:26:53Z</time></trkpt><trkpt lat="42.89566331514826" lon="12.721417334909262"><ele>207.0</ele><time>2026-05-01T16:26:54Z</time></trkpt><trkpt lat="42.89590867151473" lon="12.721358018049786"><ele>206.5</ele><time>2026-05-01T16:26:55Z</time></trkpt><trkpt lat="42.8961531458852" lon="12.72130095299332"><ele>206.0</ele><time>2026-05-01T16:26:56Z</time></trkpt><trkpt lat="42.896398085225684" lon="12.721244474651646"><ele>206.0</ele><time>2026-05-01T16:26:57Z</time></trkpt><trkpt lat="42.89664698606235" lon="12.721192913389405"><ele>206.0</ele><time>2026-05-01T16:26:58Z</time></trkpt><trkpt lat="42.89689259938471" lon="12.721144042155698"><ele>206.5</ele><time>2026-05-01T16:26:59Z</time></trkpt><trkpt lat="42.89713974121254" lon="12.721103078820255"><ele>207.0</ele><time>2026-05-01T16:27:00Z</time></trkpt><trkpt lat="42.89738198737567" lon="12.721063317080828"><ele>205.0</ele><time>2026-05-01T16:27:01Z</time></trkpt><trkpt lat="42.89762904285371" lon="12.721024043218216"><ele>203.0</ele><time>2026-05-01T16:27:02Z</time></trkpt><trkpt lat="42.89787337566119" lon="12.720986296685574"><ele>203.0</ele><time>2026-05-01T16:27:03Z</time></trkpt><trkpt lat="42.89811712134452" lon="12.72095315880788"><ele>203.0</ele><time>2026-05-01T16:27:04Z</time></trkpt><trkpt lat="42.89836019023276" lon="12.720921103667424"><ele>204.5</ele><time>2026-05-01T16:27:05Z</time></trkpt><trkpt lat="42.898603223181055" lon="12.720888730020594"><ele>206.0</ele><time>2026-05-01T16:27:06Z</time></trkpt><trkpt lat="42.89884565217482" lon="12.72086227910823"><ele>206.0</ele><time>2026-05-01T16:27:07Z</time></trkpt><trkpt lat="42.89908601238938" lon="12.720838968252021"><ele>206.0</ele><time>2026-05-01T16:27:08Z</time></trkpt><trkpt lat="42.89932470589504" lon="12.720814131348781"><ele>206.5</ele><time>2026-05-01T16:27:09Z</time></trkpt><trkpt lat="42.89956903216593" lon="12.720794654212849"><ele>207.0</ele><time>2026-05-01T16:27:10Z</time></trkpt><trkpt lat="42.89981523400817" lon="12.72078106635866"><ele>207.0</ele><time>2026-05-01T16:27:11Z</time></trkpt><trkpt lat="42.900075775223556" lon="12.720768600007949"><ele>207.0</ele><time>2026-05-01T16:27:12Z</time></trkpt><trkpt lat="42.900338562775154" lon="12.720754899843651"><ele>207.0</ele><time>2026-05-01T16:27:13Z</time></trkpt><trkpt lat="42.900604583276056" lon="12.720750189538197"><ele>207.0</ele><time>2026-05-01T16:27:14Z</time></trkpt><trkpt lat="42.90087113821877" lon="12.720747142501388"><ele>207.5</ele><time>2026-05-01T16:27:15Z</time></trkpt><trkpt lat="42.90114274244915" lon="12.720749553840031"><ele>208.0</ele><time>2026-05-01T16:27:16Z</time></trkpt><trkpt lat="42.90141816610505" lon="12.720758225160722"><ele>208.0</ele><time>2026-05-01T16:27:17Z</time></trkpt><trkpt lat="42.90169374837516" lon="12.720768428135337"><ele>208.0</ele><time>2026-05-01T16:27:18Z</time></trkpt><trkpt lat="42.90197133792234" lon="12.720777596947983"><ele>207.5</ele><time>2026-05-01T16:27:19Z</time></trkpt><trkpt lat="42.90224706279523" lon="12.720789550002644"><ele>207.0</ele><time>2026-05-01T16:27:20Z</time></trkpt><trkpt lat="42.90252072760384" lon="12.720805163407519"><ele>206.5</ele><time>2026-05-01T16:27:21Z</time></trkpt><trkpt lat="42.90279148220802" lon="12.720830091517383"><ele>206.0</ele><time>2026-05-01T16:27:22Z</time></trkpt><trkpt lat="42.90306080784525" lon="12.720863273567163"><ele>206.0</ele><time>2026-05-01T16:27:23Z</time></trkpt><trkpt lat="42.90332923488134" lon="12.72091007334056"><ele>206.0</ele><time>2026-05-01T16:27:24Z</time></trkpt><trkpt lat="42.90359237868447" lon="12.720966899885719"><ele>206.5</ele><time>2026-05-01T16:27:25Z</time></trkpt><trkpt lat="42.903851719867056" lon="12.721035233037638"><ele>207.0</ele><time>2026-05-01T16:27:26Z</time></trkpt><trkpt lat="42.904103107434885" lon="12.721115408869503"><ele>207.5</ele><time>2026-05-01T16:27:27Z</time></trkpt><trkpt lat="42.904351110961954" lon="12.721191579905419"><ele>208.0</ele><time>2026-05-01T16:27:28Z</time></trkpt><trkpt lat="42.904597114963124" lon="12.721283302731301"><ele>208.0</ele><time>2026-05-01T16:27:29Z</time></trkpt><trkpt lat="42.90484230232658" lon="12.721383640979859"><ele>208.0</ele><time>2026-05-01T16:27:30Z</time></trkpt><trkpt lat="42.90508719209759" lon="12.721491813583086"><ele>208.0</ele><time>2026-05-01T16:27:30.999Z</time></trkpt><trkpt lat="42.90532736374675" lon="12.721612828158916"><ele>208.0</ele><time>2026-05-01T16:27:31.999Z</time></trkpt><trkpt lat="42.90556652727594" lon="12.721745205843224"><ele>208.0</ele><time>2026-05-01T16:27:32.999Z</time></trkpt><trkpt lat="42.905797014389854" lon="12.721886754034339"><ele>208.0</ele><time>2026-05-01T16:27:33.999Z</time></trkpt><trkpt lat="42.90602671670458" lon="12.722032732051783"><ele>207.5</ele><time>2026-05-01T16:27:34.999Z</time></trkpt><trkpt lat="42.90625212439025" lon="12.722191740570373"><ele>207.0</ele><time>2026-05-01T16:27:35.999Z</time></trkpt><trkpt lat="42.9064688532529" lon="12.722354790297201"><ele>207.0</ele><time>2026-05-01T16:27:36.999Z</time></trkpt><trkpt lat="42.90668441051496" lon="12.72252797667572"><ele>207.0</ele><time>2026-05-01T16:27:37.999Z</time></trkpt><trkpt lat="42.90689533167677" lon="12.722708743719474"><ele>207.0</ele><time>2026-05-01T16:27:38.999Z</time></trkpt><trkpt lat="42.90710362686985" lon="12.7228951562934"><ele>207.0</ele><time>2026-05-01T16:27:39.999Z</time></trkpt><trkpt lat="42.90731188951492" lon="12.723088423862324"><ele>207.0</ele><time>2026-05-01T16:27:40.999Z</time></trkpt><trkpt lat="42.90751683960974" lon="12.723285975332725"><ele>207.0</ele><time>2026-05-01T16:27:41.999Z</time></trkpt><trkpt lat="42.90772367702861" lon="12.723485356267464"><ele>208.5</ele><time>2026-05-01T16:27:42.999Z</time></trkpt><trkpt lat="42.90793187325523" lon="12.723682040986361"><ele>210.0</ele><time>2026-05-01T16:27:43.999Z</time></trkpt><trkpt lat="42.90813767150477" lon="12.723880407807298"><ele>210.0</ele><time>2026-05-01T16:27:44.999Z</time></trkpt><trkpt lat="42.90833660332888" lon="12.724077368162948"><ele>210.0</ele><time>2026-05-01T16:27:45.999Z</time></trkpt><trkpt lat="42.90853750936025" lon="12.724275663239984"><ele>211.5</ele><time>2026-05-01T16:27:46.999Z</time></trkpt><trkpt lat="42.9087388728031" lon="12.724468811257905"><ele>213.0</ele><time>2026-05-01T16:27:47.999Z</time></trkpt><trkpt lat="42.90893749659101" lon="12.7246581686225"><ele>213.0</ele><time>2026-05-01T16:27:48.999Z</time></trkpt><trkpt lat="42.90913527061055" lon="12.724848759790724"><ele>213.0</ele><time>2026-05-01T16:27:49.999Z</time></trkpt><trkpt lat="42.9093300543725" lon="12.725034926266742"><ele>213.0</ele><time>2026-05-01T16:27:50.999Z</time></trkpt><trkpt lat="42.90952518783513" lon="12.725224641284667"><ele>213.0</ele><time>2026-05-01T16:27:51.999Z</time></trkpt><trkpt lat="42.90971747601075" lon="12.725407272295788"><ele>213.0</ele><time>2026-05-01T16:27:52.999Z</time></trkpt><trkpt lat="42.909911631082416" lon="12.72558347651091"><ele>213.0</ele><time>2026-05-01T16:27:53.999Z</time></trkpt><trkpt lat="42.91010543722417" lon="12.725758316169827"><ele>213.0</ele><time>2026-05-01T16:27:54.999Z</time></trkpt><trkpt lat="42.91030097752483" lon="12.725934517940345"><ele>213.0</ele><time>2026-05-01T16:27:55.999Z</time></trkpt><trkpt lat="42.91049671774977" lon="12.72611700031865"><ele>214.0</ele><time>2026-05-01T16:27:56.999Z</time></trkpt><trkpt lat="42.9106972652518" lon="12.726304195335176"><ele>215.0</ele><time>2026-05-01T16:27:57.999Z</time></trkpt><trkpt lat="42.9108960950206" lon="12.726495026572719"><ele>213.5</ele><time>2026-05-01T16:27:58.999Z</time></trkpt><trkpt lat="42.91109698979285" lon="12.726692885540485"><ele>212.0</ele><time>2026-05-01T16:27:59.999Z</time></trkpt><trkpt lat="42.91130157430965" lon="12.72689337142408"><ele>214.0</ele><time>2026-05-01T16:28:00.999Z</time></trkpt><trkpt lat="42.91150702344542" lon="12.727093081312455"><ele>216.0</ele><time>2026-05-01T16:28:01.999Z</time></trkpt><trkpt lat="42.911714321038595" lon="12.72728392314189"><ele>216.5</ele><time>2026-05-01T16:28:02.999Z</time></trkpt><trkpt lat="42.911923755650534" lon="12.72746407096418"><ele>217.0</ele><time>2026-05-01T16:28:03.999Z</time></trkpt><trkpt lat="42.912136680805496" lon="12.72763408874444"><ele>219.0</ele><time>2026-05-01T16:28:04.999Z</time></trkpt><trkpt lat="42.912353696962526" lon="12.727788125384121"><ele>221.0</ele><time>2026-05-01T16:28:05.999Z</time></trkpt><trkpt lat="42.91257056581209" lon="12.727928712770547"><ele>222.0</ele><time>2026-05-01T16:28:06.999Z</time></trkpt><trkpt lat="42.91279256323149" lon="12.728052813722586"><ele>223.0</ele><time>2026-05-01T16:28:07.999Z</time></trkpt><trkpt lat="42.91301835343852" lon="12.728168700806929"><ele>223.0</ele><time>2026-05-01T16:28:08.999Z</time></trkpt><trkpt lat="42.913245786852215" lon="12.728274964767218"><ele>223.0</ele><time>2026-05-01T16:28:09.999Z</time></trkpt><trkpt lat="42.913476218237896" lon="12.728372647182239"><ele>222.0</ele><time>2026-05-01T16:28:10.999Z</time></trkpt><trkpt lat="42.91371364853597" lon="12.728451801496687"><ele>221.0</ele><time>2026-05-01T16:28:11.999Z</time></trkpt><trkpt lat="42.91395752533523" lon="12.728519562650508"><ele>222.5</ele><time>2026-05-01T16:28:12.999Z</time></trkpt><trkpt lat="42.91420474836877" lon="12.728573462000305"><ele>224.0</ele><time>2026-05-01T16:28:13.999Z</time></trkpt><trkpt lat="42.91445532619257" lon="12.728608815842971"><ele>224.0</ele><time>2026-05-01T16:28:14.999Z</time></trkpt><trkpt lat="42.914707867785886" lon="12.728627287885462"><ele>224.0</ele><time>2026-05-01T16:28:15.999Z</time></trkpt><trkpt lat="42.91496581777192" lon="12.728629035654423"><ele>224.5</ele><time>2026-05-01T16:28:16.999Z</time></trkpt><trkpt lat="42.91522196287993" lon="12.728619786566963"><ele>225.0</ele><time>2026-05-01T16:28:17.999Z</time></trkpt><trkpt lat="42.91548186872974" lon="12.728594767202107"><ele>224.0</ele><time>2026-05-01T16:28:18.999Z</time></trkpt><trkpt lat="42.91574162108315" lon="12.728554706566788"><ele>223.0</ele><time>2026-05-01T16:28:19.999Z</time></trkpt><trkpt lat="42.91599801042377" lon="12.728505775683484"><ele>223.0</ele><time>2026-05-01T16:28:20.999Z</time></trkpt><trkpt lat="42.916256107455894" lon="12.728448089406244"><ele>223.0</ele><time>2026-05-01T16:28:21.999Z</time></trkpt><trkpt lat="42.91651234515043" lon="12.728392364813866"><ele>222.5</ele><time>2026-05-01T16:28:22.999Z</time></trkpt><trkpt lat="42.91677038244884" lon="12.728342970793744"><ele>222.0</ele><time>2026-05-01T16:28:23.999Z</time></trkpt><trkpt lat="42.9170239270056" lon="12.72829705648503"><ele>222.0</ele><time>2026-05-01T16:28:24.999Z</time></trkpt><trkpt lat="42.917280243473144" lon="12.728249095922164"><ele>222.0</ele><time>2026-05-01T16:28:25.999Z</time></trkpt><trkpt lat="42.917535243909896" lon="12.728199775657673"><ele>223.0</ele><time>2026-05-01T16:28:26.999Z</time></trkpt><trkpt lat="42.917787969410924" lon="12.728147342945327"><ele>224.0</ele><time>2026-05-01T16:28:27.999Z</time></trkpt><trkpt lat="42.918039745030825" lon="12.72809516870212"><ele>224.0</ele><time>2026-05-01T16:28:28.999Z</time></trkpt><trkpt lat="42.91829552383104" lon="12.72804150246648"><ele>224.0</ele><time>2026-05-01T16:28:29.999Z</time></trkpt><trkpt lat="42.91855267261768" lon="12.727988678594778"><ele>223.0</ele><time>2026-05-01T16:28:30.999Z</time></trkpt><trkpt lat="42.91880853003817" lon="12.72793484483097"><ele>222.0</ele><time>2026-05-01T16:28:31.999Z</time></trkpt><trkpt lat="42.919065631978995" lon="12.727882507470477"><ele>223.0</ele><time>2026-05-01T16:28:32.999Z</time></trkpt><trkpt lat="42.91932438827182" lon="12.727835010236214"><ele>224.0</ele><time>2026-05-01T16:28:33.999Z</time></trkpt><trkpt lat="42.91958161636746" lon="12.727785767502656"><ele>224.0</ele><time>2026-05-01T16:28:34.999Z</time></trkpt><trkpt lat="42.919837979211806" lon="12.727736469600371"><ele>224.0</ele><time>2026-05-01T16:28:35.999Z</time></trkpt><trkpt lat="42.92009592810264" lon="12.727686424214959"><ele>224.0</ele><time>2026-05-01T16:28:36.999Z</time></trkpt><trkpt lat="42.92035479579671" lon="12.72763873482591"><ele>224.0</ele><time>2026-05-01T16:28:37.999Z</time></trkpt><trkpt lat="42.920612968146756" lon="12.72759873124042"><ele>224.0</ele><time>2026-05-01T16:28:38.999Z</time></trkpt><trkpt lat="42.92087435001598" lon="12.727568335580251"><ele>224.0</ele><time>2026-05-01T16:28:39.999Z</time></trkpt><trkpt lat="42.92113254068736" lon="12.7275518271967"><ele>224.0</ele><time>2026-05-01T16:28:40.999Z</time></trkpt><trkpt lat="42.92139163246336" lon="12.727548233209745"><ele>224.0</ele><time>2026-05-01T16:28:41.999Z</time></trkpt><trkpt lat="42.92162176738694" lon="12.727566557907734"><ele>225.0</ele><time>2026-05-01T16:28:42.999Z</time></trkpt><trkpt lat="42.921902629295985" lon="12.727567751219643"><ele>226.0</ele><time>2026-05-01T16:28:43.999Z</time></trkpt><trkpt lat="42.92215869796242" lon="12.727586517459047"><ele>226.0</ele><time>2026-05-01T16:28:44.999Z</time></trkpt><trkpt lat="42.922413580024646" lon="12.727613105670196"><ele>226.0</ele><time>2026-05-01T16:28:45.999Z</time></trkpt><trkpt lat="42.92266893908842" lon="12.727643888986986"><ele>226.5</ele><time>2026-05-01T16:28:46.999Z</time></trkpt><trkpt lat="42.922917589996956" lon="12.727674347917128"><ele>227.0</ele><time>2026-05-01T16:28:47.999Z</time></trkpt><trkpt lat="42.92317045829996" lon="12.727704270826921"><ele>228.0</ele><time>2026-05-01T16:28:48.999Z</time></trkpt><trkpt lat="42.92342034298639" lon="12.727736958720858"><ele>229.0</ele><time>2026-05-01T16:28:49.999Z</time></trkpt><trkpt lat="42.92367414840753" lon="12.727775741729449"><ele>229.0</ele><time>2026-05-01T16:28:50.999Z</time></trkpt><trkpt lat="42.923924313187705" lon="12.727821124792712"><ele>229.0</ele><time>2026-05-01T16:28:52Z</time></trkpt><trkpt lat="42.92417796847072" lon="12.727867867341304"><ele>229.5</ele><time>2026-05-01T16:28:53Z</time></trkpt><trkpt lat="42.924430538597555" lon="12.727913126806184"><ele>230.0</ele><time>2026-05-01T16:28:54Z</time></trkpt><trkpt lat="42.92467796995074" lon="12.727954723328065"><ele>230.0</ele><time>2026-05-01T16:28:55Z</time></trkpt><trkpt lat="42.92492439770174" lon="12.727994182946116"><ele>230.0</ele><time>2026-05-01T16:28:56Z</time></trkpt><trkpt lat="42.92516656939797" lon="12.728030264806584"><ele>230.0</ele><time>2026-05-01T16:28:57Z</time></trkpt><trkpt lat="42.925396569217824" lon="12.728067509025449"><ele>230.0</ele><time>2026-05-01T16:28:58Z</time></trkpt><trkpt lat="42.925625722570175" lon="12.728106635888718"><ele>230.0</ele><time>2026-05-01T16:28:59Z</time></trkpt><trkpt lat="42.92585497292253" lon="12.728147117000944"><ele>230.0</ele><time>2026-05-01T16:29:00Z</time></trkpt><trkpt lat="42.92608482421295" lon="12.728186535717347"><ele>231.0</ele><time>2026-05-01T16:29:01Z</time></trkpt><trkpt lat="42.9263142506596" lon="12.728224245596543"><ele>232.0</ele><time>2026-05-01T16:29:02Z</time></trkpt><trkpt lat="42.92654408890522" lon="12.728260479777589"><ele>232.0</ele><time>2026-05-01T16:29:03Z</time></trkpt><trkpt lat="42.92677564706238" lon="12.72829947238818"><ele>232.0</ele><time>2026-05-01T16:29:04Z</time></trkpt><trkpt lat="42.927009160451924" lon="12.728341571013386"><ele>232.0</ele><time>2026-05-01T16:29:05Z</time></trkpt><trkpt lat="42.927244557026654" lon="12.72838203089693"><ele>232.0</ele><time>2026-05-01T16:29:06Z</time></trkpt><trkpt lat="42.9274827517718" lon="12.728420819412511"><ele>232.5</ele><time>2026-05-01T16:29:07Z</time></trkpt><trkpt lat="42.92772044609662" lon="12.728460005385482"><ele>233.0</ele><time>2026-05-01T16:29:08Z</time></trkpt><trkpt lat="42.92795910175816" lon="12.72849951192306"><ele>233.0</ele><time>2026-05-01T16:29:09Z</time></trkpt><trkpt lat="42.92819514966545" lon="12.728534549891048"><ele>233.0</ele><time>2026-05-01T16:29:10Z</time></trkpt><trkpt lat="42.928431352520086" lon="12.728565946728475"><ele>236.0</ele><time>2026-05-01T16:29:11Z</time></trkpt><trkpt lat="42.928670225545844" lon="12.728579719224502"><ele>239.0</ele><time>2026-05-01T16:29:12Z</time></trkpt><trkpt lat="42.928908343463775" lon="12.72858700365285"><ele>239.0</ele><time>2026-05-01T16:29:13Z</time></trkpt><trkpt lat="42.9291521119699" lon="12.728582671142146"><ele>239.0</ele><time>2026-05-01T16:29:14Z</time></trkpt><trkpt lat="42.9294006311076" lon="12.728564700264913"><ele>238.0</ele><time>2026-05-01T16:29:15Z</time></trkpt><trkpt lat="42.92965132504742" lon="12.728532529688316"><ele>237.0</ele><time>2026-05-01T16:29:16Z</time></trkpt><trkpt lat="42.92989781374838" lon="12.728482894245406"><ele>238.5</ele><time>2026-05-01T16:29:17Z</time></trkpt><trkpt lat="42.930143942588145" lon="12.728424693519077"><ele>240.0</ele><time>2026-05-01T16:29:18Z</time></trkpt><trkpt lat="42.93038501854394" lon="12.728354981350027"><ele>240.0</ele><time>2026-05-01T16:29:19Z</time></trkpt><trkpt lat="42.93063041650514" lon="12.728271800272418"><ele>240.0</ele><time>2026-05-01T16:29:20Z</time></trkpt><trkpt lat="42.93086998494389" lon="12.72817870590822"><ele>241.0</ele><time>2026-05-01T16:29:21Z</time></trkpt><trkpt lat="42.93110540565379" lon="12.728067387265321"><ele>242.0</ele><time>2026-05-01T16:29:22Z</time></trkpt><trkpt lat="42.93134135921541" lon="12.727944322046653"><ele>242.0</ele><time>2026-05-01T16:29:23Z</time></trkpt><trkpt lat="42.93158642529543" lon="12.727806011475021"><ele>242.0</ele><time>2026-05-01T16:29:24Z</time></trkpt><trkpt lat="42.93183511591307" lon="12.727651213787597"><ele>241.5</ele><time>2026-05-01T16:29:25Z</time></trkpt><trkpt lat="42.932076272820225" lon="12.727482554525096"><ele>241.0</ele><time>2026-05-01T16:29:26Z</time></trkpt><trkpt lat="42.932319286653154" lon="12.727289847190422"><ele>240.5</ele><time>2026-05-01T16:29:27Z</time></trkpt><trkpt lat="42.93257512098136" lon="12.727081919612598"><ele>240.0</ele><time>2026-05-01T16:29:28Z</time></trkpt><trkpt lat="42.932843083827436" lon="12.72685856985712"><ele>240.0</ele><time>2026-05-01T16:29:29Z</time></trkpt><trkpt lat="42.93312782888579" lon="12.726634516005204"><ele>240.0</ele><time>2026-05-01T16:29:30Z</time></trkpt><trkpt lat="42.93342419163447" lon="12.726411245646718"><ele>243.0</ele><time>2026-05-01T16:29:31Z</time></trkpt><trkpt lat="42.93372439596593" lon="12.726179843532039"><ele>246.0</ele><time>2026-05-01T16:29:32Z</time></trkpt><trkpt lat="42.93402121339684" lon="12.725935905829735"><ele>254.0</ele><time>2026-05-01T16:29:33Z</time></trkpt><trkpt lat="42.93432281903514" lon="12.725686845463011"><ele>262.0</ele><time>2026-05-01T16:29:34Z</time></trkpt><trkpt lat="42.93462134073272" lon="12.725436539675831"><ele>260.0</ele><time>2026-05-01T16:29:35Z</time></trkpt><trkpt lat="42.93489599148535" lon="12.72520588226843"><ele>258.0</ele><time>2026-05-01T16:29:36Z</time></trkpt><trkpt lat="42.93515829754939" lon="12.724987848820653"><ele>258.0</ele><time>2026-05-01T16:29:37Z</time></trkpt><trkpt lat="42.93541259301986" lon="12.724779154537826"><ele>258.0</ele><time>2026-05-01T16:29:38Z</time></trkpt><trkpt lat="42.935667406759926" lon="12.724570930082283"><ele>255.5</ele><time>2026-05-01T16:29:39Z</time></trkpt><trkpt lat="42.935918474312516" lon="12.72436393604927"><ele>253.0</ele><time>2026-05-01T16:29:40Z</time></trkpt><trkpt lat="42.93615348599584" lon="12.72417098448918"><ele>253.0</ele><time>2026-05-01T16:29:41Z</time></trkpt><trkpt lat="42.93637644491673" lon="12.723978367831855"><ele>253.0</ele><time>2026-05-01T16:29:42Z</time></trkpt><trkpt lat="42.93660663523958" lon="12.723778437566535"><ele>252.0</ele><time>2026-05-01T16:29:43Z</time></trkpt><trkpt lat="42.936842052906165" lon="12.723599677378973"><ele>251.0</ele><time>2026-05-01T16:29:44Z</time></trkpt><trkpt lat="42.93708896198365" lon="12.723432301226856"><ele>251.0</ele><time>2026-05-01T16:29:45Z</time></trkpt><trkpt lat="42.937346200426305" lon="12.723278798600843"><ele>251.0</ele><time>2026-05-01T16:29:46Z</time></trkpt><trkpt lat="42.93760861303126" lon="12.723143001240292"><ele>249.5</ele><time>2026-05-01T16:29:47Z</time></trkpt><trkpt lat="42.93787617480009" lon="12.723031345850192"><ele>248.0</ele><time>2026-05-01T16:29:48Z</time></trkpt><trkpt lat="42.93814927039964" lon="12.722933950615563"><ele>249.5</ele><time>2026-05-01T16:29:49Z</time></trkpt><trkpt lat="42.938419522765145" lon="12.722845063253251"><ele>251.0</ele><time>2026-05-01T16:29:50Z</time></trkpt><trkpt lat="42.93868786770401" lon="12.722769972989992"><ele>250.5</ele><time>2026-05-01T16:29:51Z</time></trkpt><trkpt lat="42.938956488618665" lon="12.722702289120809"><ele>250.0</ele><time>2026-05-01T16:29:52Z</time></trkpt><trkpt lat="42.93922637521258" lon="12.72264971256849"><ele>250.0</ele><time>2026-05-01T16:29:53Z</time></trkpt><trkpt lat="42.93949388106947" lon="12.722609831343217"><ele>250.0</ele><time>2026-05-01T16:29:54Z</time></trkpt><trkpt lat="42.939763397870344" lon="12.722585628171418"><ele>250.0</ele><time>2026-05-01T16:29:55Z</time></trkpt><trkpt lat="42.940035626968054" lon="12.722577109897443"><ele>250.0</ele><time>2026-05-01T16:29:56Z</time></trkpt><trkpt lat="42.94031062138101" lon="12.722579183510707"><ele>251.0</ele><time>2026-05-01T16:29:57Z</time></trkpt><trkpt lat="42.940585573040245" lon="12.722592793036483"><ele>252.0</ele><time>2026-05-01T16:29:58Z</time></trkpt><trkpt lat="42.940857875294896" lon="12.722602329567325"><ele>254.0</ele><time>2026-05-01T16:29:59Z</time></trkpt><trkpt lat="42.94113134636025" lon="12.722608970775227"><ele>256.0</ele><time>2026-05-01T16:30:00Z</time></trkpt><trkpt lat="42.94140746325152" lon="12.722611847146089"><ele>256.0</ele><time>2026-05-01T16:30:00.999Z</time></trkpt><trkpt lat="42.9416846793409" lon="12.722619479474968"><ele>256.0</ele><time>2026-05-01T16:30:01.999Z</time></trkpt><trkpt lat="42.9419627684415" lon="12.722624873171378"><ele>255.5</ele><time>2026-05-01T16:30:02.999Z</time></trkpt><trkpt lat="42.942238084171606" lon="12.722629084772251"><ele>255.0</ele><time>2026-05-01T16:30:03.999Z</time></trkpt><trkpt lat="42.942513979954285" lon="12.722635316544213"><ele>256.0</ele><time>2026-05-01T16:30:04.999Z</time></trkpt><trkpt lat="42.9427946702359" lon="12.722637253585328"><ele>257.0</ele><time>2026-05-01T16:30:05.999Z</time></trkpt><trkpt lat="42.943077267713996" lon="12.722635859674819"><ele>257.0</ele><time>2026-05-01T16:30:06.999Z</time></trkpt><trkpt lat="42.94336083668871" lon="12.722630920393758"><ele>257.0</ele><time>2026-05-01T16:30:07.999Z</time></trkpt><trkpt lat="42.943645008349826" lon="12.722620346098525"><ele>258.0</ele><time>2026-05-01T16:30:08.999Z</time></trkpt><trkpt lat="42.943926729135235" lon="12.722607285787909"><ele>259.0</ele><time>2026-05-01T16:30:09.999Z</time></trkpt><trkpt lat="42.94420919189104" lon="12.722592331285833"><ele>259.5</ele><time>2026-05-01T16:30:10.999Z</time></trkpt><trkpt lat="42.94448566978732" lon="12.722575525300917"><ele>260.0</ele><time>2026-05-01T16:30:11.999Z</time></trkpt><trkpt lat="42.94476116030264" lon="12.722561287929757"><ele>260.0</ele><time>2026-05-01T16:30:12.999Z</time></trkpt><trkpt lat="42.94503471646936" lon="12.722542093790278"><ele>260.0</ele><time>2026-05-01T16:30:13.999Z</time></trkpt><trkpt lat="42.945309128452436" lon="12.722522963996548"><ele>259.5</ele><time>2026-05-01T16:30:14.999Z</time></trkpt><trkpt lat="42.945581826353695" lon="12.722504406931344"><ele>259.0</ele><time>2026-05-01T16:30:15.999Z</time></trkpt><trkpt lat="42.94585627358481" lon="12.72248214388867"><ele>261.5</ele><time>2026-05-01T16:30:16.999Z</time></trkpt><trkpt lat="42.946130230337474" lon="12.722460253527462"><ele>264.0</ele><time>2026-05-01T16:30:17.999Z</time></trkpt><trkpt lat="42.94640377285913" lon="12.722439828433883"><ele>264.0</ele><time>2026-05-01T16:30:18.999Z</time></trkpt><trkpt lat="42.946674778862906" lon="12.722419491057186"><ele>264.0</ele><time>2026-05-01T16:30:19.999Z</time></trkpt><trkpt lat="42.94694363370685" lon="12.72240233333"><ele>265.0</ele><time>2026-05-01T16:30:20.999Z</time></trkpt><trkpt lat="42.94721122640006" lon="12.722382897936358"><ele>266.0</ele><time>2026-05-01T16:30:21.999Z</time></trkpt><trkpt lat="42.94747645035487" lon="12.72236719924806"><ele>266.5</ele><time>2026-05-01T16:30:22.999Z</time></trkpt><trkpt lat="42.9477382293534" lon="12.7223511651286"><ele>267.0</ele><time>2026-05-01T16:30:23.999Z</time></trkpt><trkpt lat="42.94799792218772" lon="12.722334365368663"><ele>267.0</ele><time>2026-05-01T16:30:24.999Z</time></trkpt><trkpt lat="42.94825990217226" lon="12.722318834975718"><ele>267.0</ele><time>2026-05-01T16:30:25.999Z</time></trkpt><trkpt lat="42.94852415260136" lon="12.72230979100953"><ele>267.5</ele><time>2026-05-01T16:30:26.999Z</time></trkpt><trkpt lat="42.948788085686054" lon="12.722307034159767"><ele>268.0</ele><time>2026-05-01T16:30:27.999Z</time></trkpt><trkpt lat="42.94905413845897" lon="12.722310590927446"><ele>268.5</ele><time>2026-05-01T16:30:28.999Z</time></trkpt><trkpt lat="42.94932291912079" lon="12.722311318679996"><ele>269.0</ele><time>2026-05-01T16:30:29.999Z</time></trkpt><trkpt lat="42.949589071542526" lon="12.722310162507824"><ele>269.0</ele><time>2026-05-01T16:30:30.999Z</time></trkpt><trkpt lat="42.94985567447622" lon="12.722318877750553"><ele>269.0</ele><time>2026-05-01T16:30:31.999Z</time></trkpt><trkpt lat="42.95012142304659" lon="12.722340662407804"><ele>269.5</ele><time>2026-05-01T16:30:32.999Z</time></trkpt><trkpt lat="42.950380824389036" lon="12.72235416851584"><ele>270.0</ele><time>2026-05-01T16:30:33.999Z</time></trkpt><trkpt lat="42.95063919477633" lon="12.722367723511145"><ele>274.0</ele><time>2026-05-01T16:30:34.999Z</time></trkpt><trkpt lat="42.95089638073581" lon="12.72238539231583"><ele>278.0</ele><time>2026-05-01T16:30:35.999Z</time></trkpt><trkpt lat="42.951150853401984" lon="12.722401245035613"><ele>278.0</ele><time>2026-05-01T16:30:36.999Z</time></trkpt><trkpt lat="42.95140482500806" lon="12.722416194615464"><ele>278.0</ele><time>2026-05-01T16:30:37.999Z</time></trkpt><trkpt lat="42.95165672619677" lon="12.722429529746877"><ele>276.5</ele><time>2026-05-01T16:30:38.999Z</time></trkpt><trkpt lat="42.95190920934694" lon="12.722442451313581"><ele>275.0</ele><time>2026-05-01T16:30:39.999Z</time></trkpt><trkpt lat="42.9521639598545" lon="12.722457932412608"><ele>275.0</ele><time>2026-05-01T16:30:40.999Z</time></trkpt><trkpt lat="42.95242050870319" lon="12.722470673622018"><ele>275.0</ele><time>2026-05-01T16:30:41.999Z</time></trkpt><trkpt lat="42.95267562558915" lon="12.722476869641824"><ele>274.5</ele><time>2026-05-01T16:30:42.999Z</time></trkpt><trkpt lat="42.952938834806126" lon="12.722482283790022"><ele>274.0</ele><time>2026-05-01T16:30:43.999Z</time></trkpt><trkpt lat="42.95320282168185" lon="12.72247946631499"><ele>274.5</ele><time>2026-05-01T16:30:44.999Z</time></trkpt><trkpt lat="42.95347416013255" lon="12.722470677934627"><ele>275.0</ele><time>2026-05-01T16:30:45.999Z</time></trkpt><trkpt lat="42.95375092162916" lon="12.722461231334561"><ele>275.0</ele><time>2026-05-01T16:30:46.999Z</time></trkpt><trkpt lat="42.95403497288461" lon="12.722437811421234"><ele>275.0</ele><time>2026-05-01T16:30:47.999Z</time></trkpt><trkpt lat="42.954339684624884" lon="12.722418214409778"><ele>275.0</ele><time>2026-05-01T16:30:48.999Z</time></trkpt><trkpt lat="42.954640033843454" lon="12.722392573036846"><ele>275.0</ele><time>2026-05-01T16:30:49.999Z</time></trkpt><trkpt lat="42.954940468470554" lon="12.722360621266931"><ele>274.0</ele><time>2026-05-01T16:30:50.999Z</time></trkpt><trkpt lat="42.95524485245142" lon="12.722324675760127"><ele>273.0</ele><time>2026-05-01T16:30:51.999Z</time></trkpt><trkpt lat="42.955546878989104" lon="12.722285406327725"><ele>273.0</ele><time>2026-05-01T16:30:52.999Z</time></trkpt><trkpt lat="42.95584684200105" lon="12.722239842966703"><ele>273.0</ele><time>2026-05-01T16:30:53.999Z</time></trkpt><trkpt lat="42.956145020073556" lon="12.722188050577637"><ele>272.0</ele><time>2026-05-01T16:30:54.999Z</time></trkpt><trkpt lat="42.95643961623945" lon="12.722131197003588"><ele>271.0</ele><time>2026-05-01T16:30:55.999Z</time></trkpt><trkpt lat="42.95673577740168" lon="12.722074408132348"><ele>270.5</ele><time>2026-05-01T16:30:56.999Z</time></trkpt><trkpt lat="42.95702460849298" lon="12.722018359907812"><ele>270.0</ele><time>2026-05-01T16:30:58Z</time></trkpt><trkpt lat="42.95730646188137" lon="12.721965936648612"><ele>270.0</ele><time>2026-05-01T16:30:59Z</time></trkpt><trkpt lat="42.95758330594335" lon="12.721921586881686"><ele>270.0</ele><time>2026-05-01T16:31:00Z</time></trkpt><trkpt lat="42.957860578279266" lon="12.72187501604424"><ele>268.5</ele><time>2026-05-01T16:31:01Z</time></trkpt><trkpt lat="42.95813829857232" lon="12.721827007921142"><ele>267.0</ele><time>2026-05-01T16:31:02Z</time></trkpt><trkpt lat="42.95841696751795" lon="12.721770319897267"><ele>266.0</ele><time>2026-05-01T16:31:03Z</time></trkpt><trkpt lat="42.958694315926" lon="12.721708676388827"><ele>265.0</ele><time>2026-05-01T16:31:04Z</time></trkpt><trkpt lat="42.958977823255445" lon="12.721654929201936"><ele>264.5</ele><time>2026-05-01T16:31:05Z</time></trkpt><trkpt lat="42.95925856548074" lon="12.721601754310683"><ele>264.0</ele><time>2026-05-01T16:31:06Z</time></trkpt><trkpt lat="42.95954177833469" lon="12.72154374422816"><ele>264.0</ele><time>2026-05-01T16:31:07Z</time></trkpt><trkpt lat="42.95982583286799" lon="12.721485682364328"><ele>264.0</ele><time>2026-05-01T16:31:08Z</time></trkpt><trkpt lat="42.960108920590464" lon="12.721431153426185"><ele>261.5</ele><time>2026-05-01T16:31:09Z</time></trkpt><trkpt lat="42.96039002788899" lon="12.721380543582704"><ele>259.0</ele><time>2026-05-01T16:31:10Z</time></trkpt><trkpt lat="42.96066971667255" lon="12.721332725779673"><ele>255.5</ele><time>2026-05-01T16:31:11Z</time></trkpt><trkpt lat="42.960951556710555" lon="12.721279635164235"><ele>252.0</ele><time>2026-05-01T16:31:12Z</time></trkpt><trkpt lat="42.96123576820929" lon="12.721217572064774"><ele>252.0</ele><time>2026-05-01T16:31:13Z</time></trkpt><trkpt lat="42.9615240983389" lon="12.721153702117334"><ele>252.0</ele><time>2026-05-01T16:31:14Z</time></trkpt><trkpt lat="42.96181641638346" lon="12.72107545208353"><ele>250.0</ele><time>2026-05-01T16:31:15Z</time></trkpt><trkpt lat="42.96210570021508" lon="12.720989189937404"><ele>248.0</ele><time>2026-05-01T16:31:16Z</time></trkpt><trkpt lat="42.96239105750023" lon="12.72089259378806"><ele>248.0</ele><time>2026-05-01T16:31:17Z</time></trkpt><trkpt lat="42.96267500315793" lon="12.720789101049004"><ele>248.0</ele><time>2026-05-01T16:31:18Z</time></trkpt><trkpt lat="42.96295748849801" lon="12.720676608686396"><ele>248.0</ele><time>2026-05-01T16:31:19Z</time></trkpt><trkpt lat="42.96323600392943" lon="12.72055579373898"><ele>248.0</ele><time>2026-05-01T16:31:20Z</time></trkpt><trkpt lat="42.963515450938004" lon="12.720428139269828"><ele>248.0</ele><time>2026-05-01T16:31:21Z</time></trkpt><trkpt lat="42.963790131265945" lon="12.72029844970993"><ele>248.0</ele><time>2026-05-01T16:31:22Z</time></trkpt><trkpt lat="42.964064678510674" lon="12.720166169563132"><ele>247.5</ele><time>2026-05-01T16:31:23Z</time></trkpt><trkpt lat="42.96433863284381" lon="12.720034034929224"><ele>247.0</ele><time>2026-05-01T16:31:24Z</time></trkpt><trkpt lat="42.96460966486079" lon="12.71990499164913"><ele>247.0</ele><time>2026-05-01T16:31:25Z</time></trkpt><trkpt lat="42.96487881529766" lon="12.719775542243116"><ele>247.0</ele><time>2026-05-01T16:31:26Z</time></trkpt><trkpt lat="42.96514702712493" lon="12.719651200905826"><ele>246.0</ele><time>2026-05-01T16:31:27Z</time></trkpt><trkpt lat="42.965416142324734" lon="12.71952320342693"><ele>245.0</ele><time>2026-05-01T16:31:28Z</time></trkpt><trkpt lat="42.965679001346174" lon="12.71939733116504"><ele>246.0</ele><time>2026-05-01T16:31:29Z</time></trkpt><trkpt lat="42.965936680803196" lon="12.71927305829539"><ele>247.0</ele><time>2026-05-01T16:31:30Z</time></trkpt><trkpt lat="42.966192220110955" lon="12.719149756204972"><ele>247.0</ele><time>2026-05-01T16:31:31Z</time></trkpt><trkpt lat="42.966445239851126" lon="12.719026269046175"><ele>247.0</ele><time>2026-05-01T16:31:32Z</time></trkpt><trkpt lat="42.966694207978456" lon="12.718904306806692"><ele>246.0</ele><time>2026-05-01T16:31:33Z</time></trkpt><trkpt lat="42.96693871980324" lon="12.718784490445211"><ele>245.0</ele><time>2026-05-01T16:31:34Z</time></trkpt><trkpt lat="42.96717876104557" lon="12.718671785117111"><ele>244.5</ele><time>2026-05-01T16:31:35Z</time></trkpt><trkpt lat="42.96741055334753" lon="12.718560748511315"><ele>244.0</ele><time>2026-05-01T16:31:36Z</time></trkpt><trkpt lat="42.967635597271126" lon="12.718453138874786"><ele>244.0</ele><time>2026-05-01T16:31:37Z</time></trkpt><trkpt lat="42.96785559688071" lon="12.718344267405607"><ele>244.0</ele><time>2026-05-01T16:31:38Z</time></trkpt><trkpt lat="42.96807444934281" lon="12.718239736171752"><ele>244.0</ele><time>2026-05-01T16:31:39Z</time></trkpt><trkpt lat="42.968292627814115" lon="12.718138146627817"><ele>244.0</ele><time>2026-05-01T16:31:40Z</time></trkpt><trkpt lat="42.968504255053155" lon="12.718036427295905"><ele>243.66666666666666</ele><time>2026-05-01T16:31:41Z</time></trkpt><trkpt lat="42.96871556818522" lon="12.717936734369706"><ele>243.33333333333331</ele><time>2026-05-01T16:31:42Z</time></trkpt><trkpt lat="42.96892589799326" lon="12.717838160437829"><ele>243.0</ele><time>2026-05-01T16:31:43Z</time></trkpt><trkpt lat="42.969127383876135" lon="12.717742279673145"><ele>244.0</ele><time>2026-05-01T16:31:44Z</time></trkpt><trkpt lat="42.96933032031116" lon="12.717642289124154"><ele>245.0</ele><time>2026-05-01T16:31:45Z</time></trkpt><trkpt lat="42.9695224567398" lon="12.717549528377413"><ele>246.0</ele><time>2026-05-01T16:31:46Z</time></trkpt><trkpt lat="42.96971678975395" lon="12.71745929096964"><ele>246.0</ele><time>2026-05-01T16:31:47Z</time></trkpt><trkpt lat="42.9699139214796" lon="12.717371316431176"><ele>246.0</ele><time>2026-05-01T16:31:48Z</time></trkpt><trkpt lat="42.97012079859142" lon="12.717277909390845"><ele>246.0</ele><time>2026-05-01T16:31:49Z</time></trkpt><trkpt lat="42.97033378019942" lon="12.71718743941358"><ele>245.0</ele><time>2026-05-01T16:31:50Z</time></trkpt><trkpt lat="42.97054978581873" lon="12.71710335401081"><ele>244.0</ele><time>2026-05-01T16:31:51Z</time></trkpt><trkpt lat="42.97076708848208" lon="12.717010987469422"><ele>244.0</ele><time>2026-05-01T16:31:52Z</time></trkpt><trkpt lat="42.970976254072454" lon="12.71690654863718"><ele>244.0</ele><time>2026-05-01T16:31:53Z</time></trkpt><trkpt lat="42.971177279764305" lon="12.716802059361877"><ele>244.0</ele><time>2026-05-01T16:31:54Z</time></trkpt><trkpt lat="42.971362999282896" lon="12.716710208197494"><ele>244.0</ele><time>2026-05-01T16:31:55Z</time></trkpt><trkpt lat="42.97153637154496" lon="12.716628692591842"><ele>244.0</ele><time>2026-05-01T16:31:56Z</time></trkpt><trkpt lat="42.971690346085374" lon="12.716558919892835"><ele>244.0</ele><time>2026-05-01T16:31:57Z</time></trkpt><trkpt lat="42.97182596380597" lon="12.716497882937942"><ele>244.0</ele><time>2026-05-01T16:31:58Z</time></trkpt><trkpt lat="42.97194968020588" lon="12.716462741272725"><ele>244.0</ele><time>2026-05-01T16:31:59Z</time></trkpt><trkpt lat="42.97207728887149" lon="12.71646403968376"><ele>244.0</ele><time>2026-05-01T16:32:00Z</time></trkpt><trkpt lat="42.972211797167176" lon="12.716491858376465"><ele>244.0</ele><time>2026-05-01T16:32:01Z</time></trkpt><trkpt lat="42.97235628210917" lon="12.716560094225239"><ele>244.0</ele><time>2026-05-01T16:32:02Z</time></trkpt><trkpt lat="42.97249204715693" lon="12.716664492519794"><ele>244.0</ele><time>2026-05-01T16:32:03Z</time></trkpt><trkpt lat="42.972624094571216" lon="12.716786714255647"><ele>244.0</ele><time>2026-05-01T16:32:04Z</time></trkpt><trkpt lat="42.97274863299826" lon="12.716929004438901"><ele>244.25</ele><time>2026-05-01T16:32:05Z</time></trkpt><trkpt lat="42.9728613794835" lon="12.717053425954358"><ele>244.5</ele><time>2026-05-01T16:32:06Z</time></trkpt><trkpt lat="42.97297097475725" lon="12.717165877579836"><ele>244.75</ele><time>2026-05-01T16:32:07Z</time></trkpt><trkpt lat="42.973086456668256" lon="12.717263285782462"><ele>245.0</ele><time>2026-05-01T16:32:08Z</time></trkpt><trkpt lat="42.97321794263861" lon="12.71732143689541"><ele>245.75</ele><time>2026-05-01T16:32:09Z</time></trkpt><trkpt lat="42.97336162026767" lon="12.717330495429277"><ele>246.5</ele><time>2026-05-01T16:32:10Z</time></trkpt><trkpt lat="42.97350459786034" lon="12.71729455897908"><ele>247.25</ele><time>2026-05-01T16:32:11Z</time></trkpt><trkpt lat="42.97363727802735" lon="12.717214995822005"><ele>248.0</ele><time>2026-05-01T16:32:12Z</time></trkpt><trkpt lat="42.973753885649344" lon="12.717089487615027"><ele>248.0</ele><time>2026-05-01T16:32:13Z</time></trkpt><trkpt lat="42.97384768692777" lon="12.71692258220291"><ele>248.0</ele><time>2026-05-01T16:32:14Z</time></trkpt><trkpt lat="42.97391766376631" lon="12.716726201473545"><ele>248.0</ele><time>2026-05-01T16:32:15Z</time></trkpt><trkpt lat="42.97395534585909" lon="12.716505045025906"><ele>248.0</ele><time>2026-05-01T16:32:16Z</time></trkpt><trkpt lat="42.973963720708376" lon="12.716250423894971"><ele>248.0</ele><time>2026-05-01T16:32:17Z</time></trkpt><trkpt lat="42.97395445984285" lon="12.715999827437674"><ele>248.0</ele><time>2026-05-01T16:32:17.999Z</time></trkpt><trkpt lat="42.97394345739047" lon="12.715761417594422"><ele>247.66666666666669</ele><time>2026-05-01T16:32:18.999Z</time></trkpt><trkpt lat="42.973941439011995" lon="12.715532026500124"><ele>247.33333333333331</ele><time>2026-05-01T16:32:19.999Z</time></trkpt><trkpt lat="42.97395201477245" lon="12.715293371583556"><ele>247.0</ele><time>2026-05-01T16:32:20.999Z</time></trkpt><trkpt lat="42.97395517748539" lon="12.71506976591376"><ele>246.75</ele><time>2026-05-01T16:32:21.999Z</time></trkpt><trkpt lat="42.973932544034845" lon="12.714858475801446"><ele>246.5</ele><time>2026-05-01T16:32:22.999Z</time></trkpt><trkpt lat="42.97390984690357" lon="12.714654556161332"><ele>246.25</ele><time>2026-05-01T16:32:23.999Z</time></trkpt><trkpt lat="42.97388860248709" lon="12.71447236489007"><ele>246.0</ele><time>2026-05-01T16:32:24.999Z</time></trkpt><trkpt lat="42.973865798400524" lon="12.714275135485858"><ele>245.66666666666669</ele><time>2026-05-01T16:32:25.999Z</time></trkpt><trkpt lat="42.97383053338404" lon="12.7140595646598"><ele>245.33333333333334</ele><time>2026-05-01T16:32:26.999Z</time></trkpt><trkpt lat="42.973791701264496" lon="12.713839301618668"><ele>245.0</ele><time>2026-05-01T16:32:27.999Z</time></trkpt><trkpt lat="42.97375493703585" lon="12.713611470716137"><ele>245.66666666666669</ele><time>2026-05-01T16:32:28.999Z</time></trkpt><trkpt lat="42.973718451566796" lon="12.713378126476865"><ele>246.33333333333331</ele><time>2026-05-01T16:32:29.999Z</time></trkpt><trkpt lat="42.97368565219033" lon="12.713135556466366"><ele>247.0</ele><time>2026-05-01T16:32:30.999Z</time></trkpt><trkpt lat="42.973649493983146" lon="12.712881070111495"><ele>247.0</ele><time>2026-05-01T16:32:31.999Z</time></trkpt><trkpt lat="42.97360635813325" lon="12.712610655570908"><ele>247.0</ele><time>2026-05-01T16:32:32.999Z</time></trkpt><trkpt lat="42.97356214608054" lon="12.712344003842055"><ele>247.0</ele><time>2026-05-01T16:32:33.999Z</time></trkpt><trkpt lat="42.973517582359904" lon="12.712063976800197"><ele>248.0</ele><time>2026-05-01T16:32:34.999Z</time></trkpt><trkpt lat="42.97346991676045" lon="12.711757080899684"><ele>249.0</ele><time>2026-05-01T16:32:35.999Z</time></trkpt><trkpt lat="42.973410046334536" lon="12.711415487096192"><ele>246.5</ele><time>2026-05-01T16:32:36.999Z</time></trkpt><trkpt lat="42.97335175397824" lon="12.711060269781335"><ele>244.0</ele><time>2026-05-01T16:32:37.999Z</time></trkpt><trkpt lat="42.973297133046536" lon="12.710702721515524"><ele>244.0</ele><time>2026-05-01T16:32:38.999Z</time></trkpt><trkpt lat="42.973241201358384" lon="12.7103353050116"><ele>244.0</ele><time>2026-05-01T16:32:39.999Z</time></trkpt><trkpt lat="42.97318140007812" lon="12.709959504112396"><ele>245.5</ele><time>2026-05-01T16:32:40.999Z</time></trkpt><trkpt lat="42.9731206298839" lon="12.709590902507141"><ele>247.0</ele><time>2026-05-01T16:32:41.999Z</time></trkpt><trkpt lat="42.97306060878412" lon="12.709222520941927"><ele>247.0</ele><time>2026-05-01T16:32:42.999Z</time></trkpt><trkpt lat="42.97299511334621" lon="12.708860679948913"><ele>247.0</ele><time>2026-05-01T16:32:43.999Z</time></trkpt><trkpt lat="42.972917843921415" lon="12.708504499228134"><ele>245.5</ele><time>2026-05-01T16:32:44.999Z</time></trkpt><trkpt lat="42.97282725469718" lon="12.708151767481684"><ele>244.0</ele><time>2026-05-01T16:32:45.999Z</time></trkpt><trkpt lat="42.97273234586809" lon="12.707801359168332"><ele>243.5</ele><time>2026-05-01T16:32:46.999Z</time></trkpt><trkpt lat="42.97262493070558" lon="12.70745594211619"><ele>243.0</ele><time>2026-05-01T16:32:47.999Z</time></trkpt><trkpt lat="42.972505008597246" lon="12.707121370710752"><ele>242.0</ele><time>2026-05-01T16:32:48.999Z</time></trkpt><trkpt lat="42.97237682572526" lon="12.706786093721073"><ele>241.0</ele><time>2026-05-01T16:32:49.999Z</time></trkpt><trkpt lat="42.97223984523745" lon="12.706459438117157"><ele>241.0</ele><time>2026-05-01T16:32:50.999Z</time></trkpt><trkpt lat="42.97210213292691" lon="12.706137871633779"><ele>241.0</ele><time>2026-05-01T16:32:51.999Z</time></trkpt><trkpt lat="42.971963466325356" lon="12.705816069434132"><ele>243.5</ele><time>2026-05-01T16:32:52.999Z</time></trkpt><trkpt lat="42.971827960188776" lon="12.705498172039686"><ele>246.0</ele><time>2026-05-01T16:32:53.999Z</time></trkpt><trkpt lat="42.97169027543369" lon="12.705181799502535"><ele>246.0</ele><time>2026-05-01T16:32:54.999Z</time></trkpt><trkpt lat="42.97155312952031" lon="12.704865781724465"><ele>246.0</ele><time>2026-05-01T16:32:55.999Z</time></trkpt><trkpt lat="42.971414647759396" lon="12.704547920705807"><ele>246.5</ele><time>2026-05-01T16:32:56.999Z</time></trkpt><trkpt lat="42.97127851522217" lon="12.704235159303327"><ele>247.0</ele><time>2026-05-01T16:32:57.999Z</time></trkpt><trkpt lat="42.97113936023125" lon="12.7039202932356"><ele>247.0</ele><time>2026-05-01T16:32:58.999Z</time></trkpt><trkpt lat="42.971003624874996" lon="12.703608120346685"><ele>247.0</ele><time>2026-05-01T16:32:59.999Z</time></trkpt><trkpt lat="42.97087198960409" lon="12.703300566270185"><ele>245.0</ele><time>2026-05-01T16:33:00.999Z</time></trkpt><trkpt lat="42.970741070853414" lon="12.70299799182597"><ele>243.0</ele><time>2026-05-01T16:33:01.999Z</time></trkpt><trkpt lat="42.970618027086054" lon="12.702709618504443"><ele>241.5</ele><time>2026-05-01T16:33:02.999Z</time></trkpt><trkpt lat="42.97050812623413" lon="12.70243458849319"><ele>240.0</ele><time>2026-05-01T16:33:04Z</time></trkpt><trkpt lat="42.97041676268015" lon="12.702159793114532"><ele>238.5</ele><time>2026-05-01T16:33:05Z</time></trkpt><trkpt lat="42.97034332183682" lon="12.701865816957339"><ele>237.0</ele><time>2026-05-01T16:33:06Z</time></trkpt><trkpt lat="42.97028591229442" lon="12.701551239791934"><ele>237.0</ele><time>2026-05-01T16:33:07Z</time></trkpt><trkpt lat="42.970243210576854" lon="12.701218992317841"><ele>237.0</ele><time>2026-05-01T16:33:08Z</time></trkpt><trkpt lat="42.97021910047421" lon="12.700883113866158"><ele>237.0</ele><time>2026-05-01T16:33:09Z</time></trkpt><trkpt lat="42.970216515653746" lon="12.700537985858148"><ele>237.0</ele><time>2026-05-01T16:33:10Z</time></trkpt><trkpt lat="42.97019284464131" lon="12.700206529453652"><ele>237.0</ele><time>2026-05-01T16:33:11Z</time></trkpt><trkpt lat="42.97027500148261" lon="12.699850971725546"><ele>237.0</ele><time>2026-05-01T16:33:12Z</time></trkpt><trkpt lat="42.970334585884714" lon="12.69950905308096"><ele>237.5</ele><time>2026-05-01T16:33:13Z</time></trkpt><trkpt lat="42.97041144152783" lon="12.699175637841376"><ele>238.0</ele><time>2026-05-01T16:33:14Z</time></trkpt><trkpt lat="42.970502458607385" lon="12.698848123573503"><ele>237.0</ele><time>2026-05-01T16:33:15Z</time></trkpt><trkpt lat="42.97061255828754" lon="12.698536528031267"><ele>236.0</ele><time>2026-05-01T16:33:16Z</time></trkpt><trkpt lat="42.970732275143725" lon="12.698229523475424"><ele>236.0</ele><time>2026-05-01T16:33:17Z</time></trkpt><trkpt lat="42.97084844250563" lon="12.697924751099807"><ele>236.0</ele><time>2026-05-01T16:33:18Z</time></trkpt><trkpt lat="42.97096126658741" lon="12.69762072920614"><ele>236.0</ele><time>2026-05-01T16:33:19Z</time></trkpt><trkpt lat="42.97106948593655" lon="12.697314073564653"><ele>236.0</ele><time>2026-05-01T16:33:20Z</time></trkpt><trkpt lat="42.97117363769618" lon="12.697006376874782"><ele>236.5</ele><time>2026-05-01T16:33:21Z</time></trkpt><trkpt lat="42.971278406309764" lon="12.696701926968805"><ele>237.0</ele><time>2026-05-01T16:33:22Z</time></trkpt><trkpt lat="42.971385703855205" lon="12.696399006530838"><ele>237.0</ele><time>2026-05-01T16:33:23Z</time></trkpt><trkpt lat="42.97149305985459" lon="12.696102876041346"><ele>237.0</ele><time>2026-05-01T16:33:24Z</time></trkpt><trkpt lat="42.9716002125726" lon="12.695808286392731"><ele>235.0</ele><time>2026-05-01T16:33:25Z</time></trkpt><trkpt lat="42.97170601443414" lon="12.69551892915278"><ele>233.0</ele><time>2026-05-01T16:33:26Z</time></trkpt><trkpt lat="42.97181041940859" lon="12.695229146561106"><ele>233.0</ele><time>2026-05-01T16:33:27Z</time></trkpt><trkpt lat="42.97191480280618" lon="12.694927427433699"><ele>233.0</ele><time>2026-05-01T16:33:28Z</time></trkpt><trkpt lat="42.97202516950435" lon="12.694613577327004"><ele>233.5</ele><time>2026-05-01T16:33:29Z</time></trkpt><trkpt lat="42.97213943543735" lon="12.694291816228198"><ele>234.0</ele><time>2026-05-01T16:33:30Z</time></trkpt><trkpt lat="42.97226066126963" lon="12.693955841946455"><ele>234.0</ele><time>2026-05-01T16:33:31Z</time></trkpt><trkpt lat="42.97237820165397" lon="12.69362429478821"><ele>234.0</ele><time>2026-05-01T16:33:32Z</time></trkpt><trkpt lat="42.97249693604502" lon="12.693286928885865"><ele>234.0</ele><time>2026-05-01T16:33:33Z</time></trkpt><trkpt lat="42.97261517889666" lon="12.692953818099323"><ele>234.0</ele><time>2026-05-01T16:33:34Z</time></trkpt><trkpt lat="42.97273241458004" lon="12.69263149502067"><ele>234.0</ele><time>2026-05-01T16:33:35Z</time></trkpt><trkpt lat="42.97285538150082" lon="12.692318302000665"><ele>234.0</ele><time>2026-05-01T16:33:36Z</time></trkpt><trkpt lat="42.97298752772851" lon="12.692011561902065"><ele>234.0</ele><time>2026-05-01T16:33:37Z</time></trkpt><trkpt lat="42.973126904163585" lon="12.69171265580028"><ele>234.0</ele><time>2026-05-01T16:33:38Z</time></trkpt><trkpt lat="42.973268611960435" lon="12.691414983658465"><ele>235.5</ele><time>2026-05-01T16:33:39Z</time></trkpt><trkpt lat="42.973407996346246" lon="12.691116559631485"><ele>237.0</ele><time>2026-05-01T16:33:40Z</time></trkpt><trkpt lat="42.973546665127714" lon="12.690816170418247"><ele>237.5</ele><time>2026-05-01T16:33:41Z</time></trkpt><trkpt lat="42.9736853659524" lon="12.690523622641496"><ele>238.0</ele><time>2026-05-01T16:33:42Z</time></trkpt><trkpt lat="42.973822502793624" lon="12.690229387672135"><ele>236.5</ele><time>2026-05-01T16:33:43Z</time></trkpt><trkpt lat="42.97395751102926" lon="12.689939223375177"><ele>235.0</ele><time>2026-05-01T16:33:44Z</time></trkpt><trkpt lat="42.97409137847077" lon="12.68964747814848"><ele>233.5</ele><time>2026-05-01T16:33:45Z</time></trkpt><trkpt lat="42.974222686854205" lon="12.689358783124732"><ele>232.0</ele><time>2026-05-01T16:33:46Z</time></trkpt><trkpt lat="42.97435323750786" lon="12.689064827241332"><ele>232.0</ele><time>2026-05-01T16:33:47Z</time></trkpt><trkpt lat="42.97448784305262" lon="12.688769938008814"><ele>232.0</ele><time>2026-05-01T16:33:48Z</time></trkpt><trkpt lat="42.97462259413095" lon="12.688477839293506"><ele>231.0</ele><time>2026-05-01T16:33:49Z</time></trkpt><trkpt lat="42.97475736530936" lon="12.688184048832298"><ele>230.0</ele><time>2026-05-01T16:33:50Z</time></trkpt><trkpt lat="42.974896942316576" lon="12.687895386068604"><ele>229.0</ele><time>2026-05-01T16:33:51Z</time></trkpt><trkpt lat="42.975034631828464" lon="12.68760755084922"><ele>228.0</ele><time>2026-05-01T16:33:52Z</time></trkpt><trkpt lat="42.97516548629133" lon="12.687323569467557"><ele>228.0</ele><time>2026-05-01T16:33:53Z</time></trkpt><trkpt lat="42.97529340001469" lon="12.687021624534191"><ele>228.0</ele><time>2026-05-01T16:33:54Z</time></trkpt><trkpt lat="42.975423399245756" lon="12.686713777052086"><ele>227.0</ele><time>2026-05-01T16:33:55Z</time></trkpt><trkpt lat="42.9755568437821" lon="12.686409856600934"><ele>226.0</ele><time>2026-05-01T16:33:56Z</time></trkpt><trkpt lat="42.97569869755084" lon="12.686101437486169"><ele>226.0</ele><time>2026-05-01T16:33:57Z</time></trkpt><trkpt lat="42.97584197730441" lon="12.685795722784086"><ele>226.0</ele><time>2026-05-01T16:33:58Z</time></trkpt><trkpt lat="42.97598730923413" lon="12.685489509624698"><ele>227.0</ele><time>2026-05-01T16:33:59Z</time></trkpt><trkpt lat="42.97613217824353" lon="12.685184099324324"><ele>228.0</ele><time>2026-05-01T16:34:00Z</time></trkpt><trkpt lat="42.976272951395046" lon="12.684882521746713"><ele>228.0</ele><time>2026-05-01T16:34:01Z</time></trkpt><trkpt lat="42.9764171594863" lon="12.68457757978904"><ele>228.0</ele><time>2026-05-01T16:34:02Z</time></trkpt><trkpt lat="42.9765653150713" lon="12.684272102568446"><ele>227.0</ele><time>2026-05-01T16:34:03Z</time></trkpt><trkpt lat="42.97671015372171" lon="12.683971636621791"><ele>226.0</ele><time>2026-05-01T16:34:04Z</time></trkpt><trkpt lat="42.97685372196446" lon="12.683666154125936"><ele>226.5</ele><time>2026-05-01T16:34:05Z</time></trkpt><trkpt lat="42.97699467403056" lon="12.68335541080779"><ele>227.0</ele><time>2026-05-01T16:34:06Z</time></trkpt><trkpt lat="42.977133800982635" lon="12.683046186435915"><ele>226.0</ele><time>2026-05-01T16:34:07Z</time></trkpt><trkpt lat="42.9772738081548" lon="12.682732543323215"><ele>225.0</ele><time>2026-05-01T16:34:08Z</time></trkpt><trkpt lat="42.9774176062494" lon="12.682422027057319"><ele>225.0</ele><time>2026-05-01T16:34:09Z</time></trkpt><trkpt lat="42.97757171456816" lon="12.682104954283805"><ele>225.0</ele><time>2026-05-01T16:34:10Z</time></trkpt><trkpt lat="42.977742201209864" lon="12.681781094498069"><ele>224.5</ele><time>2026-05-01T16:34:11Z</time></trkpt><trkpt lat="42.977908881428434" lon="12.681453386191778"><ele>224.0</ele><time>2026-05-01T16:34:12Z</time></trkpt><trkpt lat="42.97806679653612" lon="12.681116880472393"><ele>223.5</ele><time>2026-05-01T16:34:13Z</time></trkpt><trkpt lat="42.97822401266949" lon="12.680787056714504"><ele>223.0</ele><time>2026-05-01T16:34:14Z</time></trkpt><trkpt lat="42.978376892337074" lon="12.68046262028729"><ele>224.0</ele><time>2026-05-01T16:34:15Z</time></trkpt><trkpt lat="42.97852064281006" lon="12.680138034759182"><ele>225.0</ele><time>2026-05-01T16:34:16Z</time></trkpt><trkpt lat="42.978665771428844" lon="12.67981407461852"><ele>225.0</ele><time>2026-05-01T16:34:17Z</time></trkpt><trkpt lat="42.97881278875993" lon="12.679495773063353"><ele>225.0</ele><time>2026-05-01T16:34:18Z</time></trkpt><trkpt lat="42.97895914025946" lon="12.679181262389543"><ele>224.0</ele><time>2026-05-01T16:34:19Z</time></trkpt><trkpt lat="42.979105632148034" lon="12.678869569340204"><ele>223.0</ele><time>2026-05-01T16:34:20Z</time></trkpt><trkpt lat="42.97925093076832" lon="12.678559711355724"><ele>223.0</ele><time>2026-05-01T16:34:21Z</time></trkpt><trkpt lat="42.97939879931373" lon="12.678255916456733"><ele>223.0</ele><time>2026-05-01T16:34:22Z</time></trkpt><trkpt lat="42.97955462837262" lon="12.677962570159462"><ele>222.0</ele><time>2026-05-01T16:34:23Z</time></trkpt><trkpt lat="42.979713668088415" lon="12.67768070622503"><ele>221.0</ele><time>2026-05-01T16:34:24Z</time></trkpt><trkpt lat="42.979879333948354" lon="12.677410778339329"><ele>222.0</ele><time>2026-05-01T16:34:25Z</time></trkpt><trkpt lat="42.9800523811584" lon="12.677147770343002"><ele>223.0</ele><time>2026-05-01T16:34:26Z</time></trkpt><trkpt lat="42.98022720485586" lon="12.676890421534148"><ele>223.0</ele><time>2026-05-01T16:34:27Z</time></trkpt><trkpt lat="42.98040288886896" lon="12.676634044361606"><ele>223.0</ele><time>2026-05-01T16:34:28Z</time></trkpt><trkpt lat="42.98058157851807" lon="12.676384128674739"><ele>223.0</ele><time>2026-05-01T16:34:29Z</time></trkpt><trkpt lat="42.98075855713996" lon="12.676141042804998"><ele>223.0</ele><time>2026-05-01T16:34:30Z</time></trkpt><trkpt lat="42.980947699710406" lon="12.675895774129918"><ele>222.5</ele><time>2026-05-01T16:34:31Z</time></trkpt><trkpt lat="42.98113508047442" lon="12.675647812268712"><ele>222.0</ele><time>2026-05-01T16:34:32Z</time></trkpt><trkpt lat="42.98132223509809" lon="12.67540143547539"><ele>221.5</ele><time>2026-05-01T16:34:33Z</time></trkpt><trkpt lat="42.98151127704212" lon="12.675148413073586"><ele>221.0</ele><time>2026-05-01T16:34:34Z</time></trkpt><trkpt lat="42.98169641347376" lon="12.67489577802297"><ele>221.0</ele><time>2026-05-01T16:34:35Z</time></trkpt><trkpt lat="42.98188403239115" lon="12.674641496830953"><ele>221.0</ele><time>2026-05-01T16:34:36Z</time></trkpt><trkpt lat="42.982074772262244" lon="12.674390927342218"><ele>221.0</ele><time>2026-05-01T16:34:37Z</time></trkpt><trkpt lat="42.98225843492798" lon="12.67414764287746"><ele>221.0</ele><time>2026-05-01T16:34:38Z</time></trkpt><trkpt lat="42.98243120762987" lon="12.673920197196392"><ele>222.5</ele><time>2026-05-01T16:34:38.999Z</time></trkpt><trkpt lat="42.98260235272189" lon="12.673696772378772"><ele>224.0</ele><time>2026-05-01T16:34:39.999Z</time></trkpt><trkpt lat="42.98277236057764" lon="12.67346787355392"><ele>224.5</ele><time>2026-05-01T16:34:40.999Z</time></trkpt><trkpt lat="42.98294125191331" lon="12.673236301083124"><ele>225.0</ele><time>2026-05-01T16:34:41.999Z</time></trkpt><trkpt lat="42.98310845792144" lon="12.6730108817058"><ele>225.0</ele><time>2026-05-01T16:34:42.999Z</time></trkpt><trkpt lat="42.98326670500375" lon="12.67279759823043"><ele>225.0</ele><time>2026-05-01T16:34:43.999Z</time></trkpt><trkpt lat="42.98342969636785" lon="12.67255326455898"><ele>224.5</ele><time>2026-05-01T16:34:44.999Z</time></trkpt><trkpt lat="42.98360704584474" lon="12.67229341483574"><ele>224.0</ele><time>2026-05-01T16:34:45.999Z</time></trkpt><trkpt lat="42.98380203070951" lon="12.672030680448248"><ele>223.5</ele><time>2026-05-01T16:34:46.999Z</time></trkpt><trkpt lat="42.983997571895536" lon="12.671774275291739"><ele>223.0</ele><time>2026-05-01T16:34:47.999Z</time></trkpt><trkpt lat="42.98419319747518" lon="12.671520179611285"><ele>223.0</ele><time>2026-05-01T16:34:48.999Z</time></trkpt><trkpt lat="42.98438993106219" lon="12.671261733129539"><ele>223.0</ele><time>2026-05-01T16:34:49.999Z</time></trkpt><trkpt lat="42.98458673926614" lon="12.671000116791921"><ele>222.5</ele><time>2026-05-01T16:34:50.999Z</time></trkpt><trkpt lat="42.98477725189914" lon="12.670739535542747"><ele>222.0</ele><time>2026-05-01T16:34:51.999Z</time></trkpt><trkpt lat="42.98496824302392" lon="12.670479198327614"><ele>223.5</ele><time>2026-05-01T16:34:52.999Z</time></trkpt><trkpt lat="42.98516110282693" lon="12.670222673158966"><ele>225.0</ele><time>2026-05-01T16:34:53.999Z</time></trkpt><trkpt lat="42.98535423467693" lon="12.66996877217297"><ele>225.0</ele><time>2026-05-01T16:34:54.999Z</time></trkpt><trkpt lat="42.9855465655194" lon="12.669715193348978"><ele>225.0</ele><time>2026-05-01T16:34:55.999Z</time></trkpt><trkpt lat="42.98573346408956" lon="12.669462452846352"><ele>224.5</ele><time>2026-05-01T16:34:56.999Z</time></trkpt><trkpt lat="42.985919225261206" lon="12.669209322089939"><ele>224.0</ele><time>2026-05-01T16:34:57.999Z</time></trkpt><trkpt lat="42.986104579935436" lon="12.668959540891459"><ele>224.0</ele><time>2026-05-01T16:34:58.999Z</time></trkpt><trkpt lat="42.98628812844249" lon="12.668716491113077"><ele>224.0</ele><time>2026-05-01T16:34:59.999Z</time></trkpt><trkpt lat="42.986473576298906" lon="12.668475562011949"><ele>224.5</ele><time>2026-05-01T16:35:00.999Z</time></trkpt><trkpt lat="42.986657277837644" lon="12.668248831000609"><ele>225.0</ele><time>2026-05-01T16:35:01.999Z</time></trkpt><trkpt lat="42.98683594664845" lon="12.668027033671647"><ele>223.0</ele><time>2026-05-01T16:35:02.999Z</time></trkpt><trkpt lat="42.987011137310525" lon="12.667806534335197"><ele>221.0</ele><time>2026-05-01T16:35:03.999Z</time></trkpt><trkpt lat="42.98718649940308" lon="12.667599726198375"><ele>221.0</ele><time>2026-05-01T16:35:04.999Z</time></trkpt><trkpt lat="42.9873700763714" lon="12.66740111573799"><ele>221.0</ele><time>2026-05-01T16:35:05.999Z</time></trkpt><trkpt lat="42.987565880610525" lon="12.667217036386216"><ele>220.0</ele><time>2026-05-01T16:35:06.999Z</time></trkpt><trkpt lat="42.98776902641479" lon="12.667049100218962"><ele>219.0</ele><time>2026-05-01T16:35:07.999Z</time></trkpt><trkpt lat="42.98798150366421" lon="12.66688949012687"><ele>218.0</ele><time>2026-05-01T16:35:08.999Z</time></trkpt><trkpt lat="42.98820287574141" lon="12.66674524628243"><ele>217.0</ele><time>2026-05-01T16:35:10Z</time></trkpt><trkpt lat="42.98843326085793" lon="12.666604563522741"><ele>216.0</ele><time>2026-05-01T16:35:11Z</time></trkpt><trkpt lat="42.98866747515573" lon="12.666458277117368"><ele>215.0</ele><time>2026-05-01T16:35:12Z</time></trkpt><trkpt lat="42.98890509453299" lon="12.666308306282243"><ele>215.0</ele><time>2026-05-01T16:35:13Z</time></trkpt><trkpt lat="42.989143471835135" lon="12.66615836161963"><ele>215.0</ele><time>2026-05-01T16:35:14Z</time></trkpt><trkpt lat="42.98938304262321" lon="12.66600937360339"><ele>215.0</ele><time>2026-05-01T16:35:15Z</time></trkpt><trkpt lat="42.98961977182832" lon="12.66586360822965"><ele>215.0</ele><time>2026-05-01T16:35:16Z</time></trkpt><trkpt lat="42.98986481715683" lon="12.665720353570151"><ele>215.0</ele><time>2026-05-01T16:35:17Z</time></trkpt><trkpt lat="42.9901103311408" lon="12.665580543128126"><ele>215.0</ele><time>2026-05-01T16:35:18Z</time></trkpt><trkpt lat="42.99035569938357" lon="12.665441939972947"><ele>215.0</ele><time>2026-05-01T16:35:19Z</time></trkpt><trkpt lat="42.99060133724512" lon="12.665303226649788"><ele>215.0</ele><time>2026-05-01T16:35:20Z</time></trkpt><trkpt lat="42.99084629038536" lon="12.665161666878287"><ele>214.0</ele><time>2026-05-01T16:35:21Z</time></trkpt><trkpt lat="42.991092231523034" lon="12.665021329885722"><ele>213.0</ele><time>2026-05-01T16:35:22Z</time></trkpt><trkpt lat="42.99133934814668" lon="12.664883583716854"><ele>213.0</ele><time>2026-05-01T16:35:23Z</time></trkpt><trkpt lat="42.991595452837295" lon="12.664742343057448"><ele>213.0</ele><time>2026-05-01T16:35:24Z</time></trkpt><trkpt lat="42.991858120074546" lon="12.664597900703866"><ele>212.0</ele><time>2026-05-01T16:35:25Z</time></trkpt><trkpt lat="42.99212018117779" lon="12.664456486924308"><ele>211.0</ele><time>2026-05-01T16:35:26Z</time></trkpt><trkpt lat="42.99238265782906" lon="12.664311860687254"><ele>210.5</ele><time>2026-05-01T16:35:27Z</time></trkpt><trkpt lat="42.99264393470242" lon="12.664168593476166"><ele>210.0</ele><time>2026-05-01T16:35:28Z</time></trkpt><trkpt lat="42.99289844458007" lon="12.664021841897233"><ele>210.0</ele><time>2026-05-01T16:35:29Z</time></trkpt><trkpt lat="42.99315043934854" lon="12.66387457876875"><ele>210.0</ele><time>2026-05-01T16:35:30Z</time></trkpt><trkpt lat="42.99339682769517" lon="12.663730448547957"><ele>209.5</ele><time>2026-05-01T16:35:31Z</time></trkpt><trkpt lat="42.99364318508434" lon="12.663582437372867"><ele>209.0</ele><time>2026-05-01T16:35:32Z</time></trkpt><trkpt lat="42.993888395015446" lon="12.663438953314701"><ele>209.0</ele><time>2026-05-01T16:35:33Z</time></trkpt><trkpt lat="42.99413509256632" lon="12.663295077735897"><ele>209.0</ele><time>2026-05-01T16:35:34Z</time></trkpt><trkpt lat="42.99437876606304" lon="12.663154079442513"><ele>209.0</ele><time>2026-05-01T16:35:35Z</time></trkpt><trkpt lat="42.99462197186227" lon="12.66301512111234"><ele>209.0</ele><time>2026-05-01T16:35:36Z</time></trkpt><trkpt lat="42.99486601402166" lon="12.66288092202697"><ele>209.0</ele><time>2026-05-01T16:35:37Z</time></trkpt><trkpt lat="42.995106740523106" lon="12.662749883577812"><ele>209.0</ele><time>2026-05-01T16:35:38Z</time></trkpt><trkpt lat="42.995347434920234" lon="12.66262713857936"><ele>209.0</ele><time>2026-05-01T16:35:39Z</time></trkpt><trkpt lat="42.995589868653056" lon="12.662502639571528"><ele>209.0</ele><time>2026-05-01T16:35:40Z</time></trkpt><trkpt lat="42.99583920916461" lon="12.662391513049942"><ele>208.5</ele><time>2026-05-01T16:35:41Z</time></trkpt><trkpt lat="42.996093210725064" lon="12.662287467720466"><ele>208.0</ele><time>2026-05-01T16:35:42Z</time></trkpt><trkpt lat="42.99634838555035" lon="12.66219708003818"><ele>208.0</ele><time>2026-05-01T16:35:43Z</time></trkpt><trkpt lat="42.996612691092686" lon="12.66211994623958"><ele>208.0</ele><time>2026-05-01T16:35:44Z</time></trkpt><trkpt lat="42.99687526705167" lon="12.66205270618365"><ele>209.0</ele><time>2026-05-01T16:35:45Z</time></trkpt><trkpt lat="42.99714454138626" lon="12.661998799623625"><ele>210.0</ele><time>2026-05-01T16:35:46Z</time></trkpt><trkpt lat="42.99741660413695" lon="12.661948436506153"><ele>210.0</ele><time>2026-05-01T16:35:47Z</time></trkpt><trkpt lat="42.997687326331686" lon="12.66189192577827"><ele>210.0</ele><time>2026-05-01T16:35:48Z</time></trkpt><trkpt lat="42.99795302573275" lon="12.661828275063266"><ele>210.0</ele><time>2026-05-01T16:35:49Z</time></trkpt><trkpt lat="42.99822173940756" lon="12.661760535474208"><ele>210.0</ele><time>2026-05-01T16:35:50Z</time></trkpt><trkpt lat="42.99848909337449" lon="12.661694877302196"><ele>209.5</ele><time>2026-05-01T16:35:51Z</time></trkpt><trkpt lat="42.99875676343507" lon="12.66162625306243"><ele>209.0</ele><time>2026-05-01T16:35:52Z</time></trkpt><trkpt lat="42.99901682763362" lon="12.661566270049684"><ele>209.0</ele><time>2026-05-01T16:35:53Z</time></trkpt><trkpt lat="42.99927447321101" lon="12.661506674263313"><ele>209.0</ele><time>2026-05-01T16:35:54Z</time></trkpt><trkpt lat="42.99952947091155" lon="12.661447526884915"><ele>209.0</ele><time>2026-05-01T16:35:55Z</time></trkpt><trkpt lat="42.99977747046005" lon="12.661390512129303"><ele>209.0</ele><time>2026-05-01T16:35:56Z</time></trkpt><trkpt lat="43.000028994597585" lon="12.661335218553987"><ele>209.0</ele><time>2026-05-01T16:35:57Z</time></trkpt><trkpt lat="43.000280744254646" lon="12.661276036959114"><ele>209.0</ele><time>2026-05-01T16:35:58Z</time></trkpt><trkpt lat="43.000533803022684" lon="12.661221248009186"><ele>209.0</ele><time>2026-05-01T16:35:59Z</time></trkpt><trkpt lat="43.000789911768095" lon="12.661164189881523"><ele>209.0</ele><time>2026-05-01T16:36:00Z</time></trkpt><trkpt lat="43.00105361734266" lon="12.661100115939268"><ele>208.5</ele><time>2026-05-01T16:36:01Z</time></trkpt><trkpt lat="43.00131808735704" lon="12.661034304517921"><ele>208.0</ele><time>2026-05-01T16:36:02Z</time></trkpt><trkpt lat="43.00158322157721" lon="12.660967998158059"><ele>206.5</ele><time>2026-05-01T16:36:03Z</time></trkpt><trkpt lat="43.00185207530663" lon="12.660901420548841"><ele>205.0</ele><time>2026-05-01T16:36:04Z</time></trkpt><trkpt lat="43.00212052741825" lon="12.660837984051259"><ele>205.0</ele><time>2026-05-01T16:36:05Z</time></trkpt><trkpt lat="43.00239573493914" lon="12.660777803755789"><ele>205.0</ele><time>2026-05-01T16:36:06Z</time></trkpt><trkpt lat="43.00266879698705" lon="12.660718544098012"><ele>205.0</ele><time>2026-05-01T16:36:07Z</time></trkpt><trkpt lat="43.0029418918651" lon="12.660654411537221"><ele>205.0</ele><time>2026-05-01T16:36:08Z</time></trkpt><trkpt lat="43.00321522492361" lon="12.66057858120076"><ele>206.5</ele><time>2026-05-01T16:36:09Z</time></trkpt><trkpt lat="43.00349012234171" lon="12.660484299282256"><ele>208.0</ele><time>2026-05-01T16:36:10Z</time></trkpt><trkpt lat="43.00376425737676" lon="12.660375355943142"><ele>206.0</ele><time>2026-05-01T16:36:11Z</time></trkpt><trkpt lat="43.00403910321174" lon="12.66025631020932"><ele>204.0</ele><time>2026-05-01T16:36:12Z</time></trkpt><trkpt lat="43.00430835897481" lon="12.660129330212953"><ele>204.0</ele><time>2026-05-01T16:36:13Z</time></trkpt><trkpt lat="43.00457794241893" lon="12.659986186745643"><ele>204.0</ele><time>2026-05-01T16:36:14Z</time></trkpt><trkpt lat="43.00484636019426" lon="12.659833747188166"><ele>207.0</ele><time>2026-05-01T16:36:15Z</time></trkpt><trkpt lat="43.005111078783735" lon="12.659676979539952"><ele>210.0</ele><time>2026-05-01T16:36:16Z</time></trkpt><trkpt lat="43.00537009412466" lon="12.659512942491641"><ele>209.0</ele><time>2026-05-01T16:36:17Z</time></trkpt><trkpt lat="43.005624082753776" lon="12.659328531712461"><ele>208.0</ele><time>2026-05-01T16:36:18Z</time></trkpt><trkpt lat="43.00587990129719" lon="12.659116004597008"><ele>208.0</ele><time>2026-05-01T16:36:19Z</time></trkpt><trkpt lat="43.006147987362965" lon="12.65888624078232"><ele>208.0</ele><time>2026-05-01T16:36:20Z</time></trkpt><trkpt lat="43.00641821741782" lon="12.658652711502175"><ele>207.5</ele><time>2026-05-01T16:36:21Z</time></trkpt><trkpt lat="43.00669319018049" lon="12.65843253983705"><ele>207.0</ele><time>2026-05-01T16:36:22Z</time></trkpt><trkpt lat="43.00697483982139" lon="12.658204423066977"><ele>207.0</ele><time>2026-05-01T16:36:23Z</time></trkpt><trkpt lat="43.00725453070878" lon="12.657961560162285"><ele>207.0</ele><time>2026-05-01T16:36:24Z</time></trkpt><trkpt lat="43.007526137958685" lon="12.65771993765235"><ele>205.0</ele><time>2026-05-01T16:36:25Z</time></trkpt><trkpt lat="43.0077915415437" lon="12.657477484018296"><ele>203.0</ele><time>2026-05-01T16:36:26Z</time></trkpt><trkpt lat="43.00805049669708" lon="12.657244663375174"><ele>203.0</ele><time>2026-05-01T16:36:27Z</time></trkpt><trkpt lat="43.00831564120209" lon="12.657003698029962"><ele>203.0</ele><time>2026-05-01T16:36:28Z</time></trkpt><trkpt lat="43.00857321867577" lon="12.65677483894994"><ele>203.0</ele><time>2026-05-01T16:36:29Z</time></trkpt><trkpt lat="43.008824954294106" lon="12.656548845554232"><ele>203.0</ele><time>2026-05-01T16:36:30Z</time></trkpt><trkpt lat="43.00907466833054" lon="12.656324424845602"><ele>202.5</ele><time>2026-05-01T16:36:31Z</time></trkpt><trkpt lat="43.00931984599889" lon="12.656109360613131"><ele>202.0</ele><time>2026-05-01T16:36:32Z</time></trkpt><trkpt lat="43.00956388843098" lon="12.655892448261353"><ele>202.0</ele><time>2026-05-01T16:36:33Z</time></trkpt><trkpt lat="43.00980558855097" lon="12.655683145476589"><ele>202.0</ele><time>2026-05-01T16:36:34Z</time></trkpt><trkpt lat="43.01004255426082" lon="12.655473717505304"><ele>201.5</ele><time>2026-05-01T16:36:35Z</time></trkpt><trkpt lat="43.01027798657986" lon="12.655268183457808"><ele>201.0</ele><time>2026-05-01T16:36:36Z</time></trkpt><trkpt lat="43.01050667863382" lon="12.655064555260305"><ele>201.0</ele><time>2026-05-01T16:36:37Z</time></trkpt><trkpt lat="43.010732142373634" lon="12.654861443543034"><ele>201.0</ele><time>2026-05-01T16:36:38Z</time></trkpt><trkpt lat="43.01095779539949" lon="12.654657577869877"><ele>201.0</ele><time>2026-05-01T16:36:39Z</time></trkpt><trkpt lat="43.01118174301438" lon="12.654454326775102"><ele>201.0</ele><time>2026-05-01T16:36:40Z</time></trkpt><trkpt lat="43.01140569925559" lon="12.65425272097652"><ele>201.0</ele><time>2026-05-01T16:36:41Z</time></trkpt><trkpt lat="43.01162863319248" lon="12.654049861120223"><ele>201.0</ele><time>2026-05-01T16:36:42Z</time></trkpt><trkpt lat="43.011854438156774" lon="12.653850874702115"><ele>201.5</ele><time>2026-05-01T16:36:43Z</time></trkpt><trkpt lat="43.0120758012198" lon="12.653655280995668"><ele>202.0</ele><time>2026-05-01T16:36:44Z</time></trkpt><trkpt lat="43.0122975192375" lon="12.653455641080676"><ele>201.5</ele><time>2026-05-01T16:36:45Z</time></trkpt><trkpt lat="43.01251335315065" lon="12.653257503434748"><ele>201.0</ele><time>2026-05-01T16:36:46Z</time></trkpt><trkpt lat="43.01272785238744" lon="12.653064106471053"><ele>201.0</ele><time>2026-05-01T16:36:47Z</time></trkpt><trkpt lat="43.012944163958636" lon="12.652862495005978"><ele>201.0</ele><time>2026-05-01T16:36:48Z</time></trkpt><trkpt lat="43.01315740647261" lon="12.652661142538602"><ele>201.0</ele><time>2026-05-01T16:36:49Z</time></trkpt><trkpt lat="43.013365392868174" lon="12.652454358715252"><ele>201.0</ele><time>2026-05-01T16:36:50Z</time></trkpt><trkpt lat="43.01357076246787" lon="12.652233701384954"><ele>201.0</ele><time>2026-05-01T16:36:51Z</time></trkpt><trkpt lat="43.01377227970904" lon="12.652005252963304"><ele>201.0</ele><time>2026-05-01T16:36:52Z</time></trkpt><trkpt lat="43.01397599509022" lon="12.651768835368514"><ele>202.0</ele><time>2026-05-01T16:36:53Z</time></trkpt><trkpt lat="43.01417661675445" lon="12.651537942939992"><ele>203.0</ele><time>2026-05-01T16:36:54Z</time></trkpt><trkpt lat="43.01438061132347" lon="12.651296006595812"><ele>202.5</ele><time>2026-05-01T16:36:55Z</time></trkpt><trkpt lat="43.014579871834606" lon="12.65104873919812"><ele>202.0</ele><time>2026-05-01T16:36:56Z</time></trkpt><trkpt lat="43.014776749041644" lon="12.650790374546798"><ele>202.0</ele><time>2026-05-01T16:36:57Z</time></trkpt><trkpt lat="43.01496789086769" lon="12.650519729322092"><ele>202.0</ele><time>2026-05-01T16:36:57.999Z</time></trkpt><trkpt lat="43.01515859806826" lon="12.650246720250182"><ele>203.0</ele><time>2026-05-01T16:36:58.999Z</time></trkpt><trkpt lat="43.015351416309414" lon="12.649974781695027"><ele>204.0</ele><time>2026-05-01T16:36:59.999Z</time></trkpt><trkpt lat="43.01554809899556" lon="12.64970301862845"><ele>203.5</ele><time>2026-05-01T16:37:00.999Z</time></trkpt><trkpt lat="43.015741323164136" lon="12.649432523757287"><ele>203.0</ele><time>2026-05-01T16:37:01.999Z</time></trkpt><trkpt lat="43.015933412961154" lon="12.649162487641041"><ele>205.0</ele><time>2026-05-01T16:37:02.999Z</time></trkpt><trkpt lat="43.016126241785436" lon="12.648890782934185"><ele>207.0</ele><time>2026-05-01T16:37:03.999Z</time></trkpt><trkpt lat="43.01631673943022" lon="12.648623850919941"><ele>207.0</ele><time>2026-05-01T16:37:04.999Z</time></trkpt><trkpt lat="43.016509409354434" lon="12.648356439648719"><ele>207.0</ele><time>2026-05-01T16:37:05.999Z</time></trkpt><trkpt lat="43.01670386182325" lon="12.648094289898237"><ele>207.0</ele><time>2026-05-01T16:37:06.999Z</time></trkpt><trkpt lat="43.01690275370065" lon="12.647827103305906"><ele>207.0</ele><time>2026-05-01T16:37:07.999Z</time></trkpt><trkpt lat="43.01709877214435" lon="12.64756515203975"><ele>207.0</ele><time>2026-05-01T16:37:08.999Z</time></trkpt><trkpt lat="43.01729320101672" lon="12.647299108226193"><ele>207.0</ele><time>2026-05-01T16:37:09.999Z</time></trkpt><trkpt lat="43.017481347174815" lon="12.647033583817498"><ele>208.0</ele><time>2026-05-01T16:37:10.999Z</time></trkpt><trkpt lat="43.01766786508936" lon="12.646769341999388"><ele>209.0</ele><time>2026-05-01T16:37:11.999Z</time></trkpt><trkpt lat="43.01785603224971" lon="12.646504545753013"><ele>209.0</ele><time>2026-05-01T16:37:12.999Z</time></trkpt><trkpt lat="43.018050371488336" lon="12.646242253799038"><ele>209.0</ele><time>2026-05-01T16:37:13.999Z</time></trkpt><trkpt lat="43.0182501506078" lon="12.645979896589612"><ele>209.5</ele><time>2026-05-01T16:37:14.999Z</time></trkpt><trkpt lat="43.018458946530686" lon="12.645701166763095"><ele>210.0</ele><time>2026-05-01T16:37:16Z</time></trkpt><trkpt lat="43.018668553217665" lon="12.64541041205971"><ele>209.5</ele><time>2026-05-01T16:37:17Z</time></trkpt><trkpt lat="43.01888311829625" lon="12.645113662795683"><ele>209.0</ele><time>2026-05-01T16:37:18Z</time></trkpt><trkpt lat="43.019098776260385" lon="12.644815940084708"><ele>209.0</ele><time>2026-05-01T16:37:19Z</time></trkpt><trkpt lat="43.01931194548473" lon="12.644517757419695"><ele>209.0</ele><time>2026-05-01T16:37:20Z</time></trkpt><trkpt lat="43.01952561721643" lon="12.64422448685006"><ele>209.0</ele><time>2026-05-01T16:37:21Z</time></trkpt><trkpt lat="43.01973111566898" lon="12.643933653784691"><ele>209.0</ele><time>2026-05-01T16:37:22Z</time></trkpt><trkpt lat="43.01993410881974" lon="12.643632317724155"><ele>210.0</ele><time>2026-05-01T16:37:23Z</time></trkpt><trkpt lat="43.02014285360918" lon="12.643330640642453"><ele>211.0</ele><time>2026-05-01T16:37:24Z</time></trkpt><trkpt lat="43.02036090615681" lon="12.643035696315348"><ele>210.5</ele><time>2026-05-01T16:37:25Z</time></trkpt><trkpt lat="43.020581658538184" lon="12.642750540050313"><ele>210.0</ele><time>2026-05-01T16:37:26Z</time></trkpt><trkpt lat="43.02078403748162" lon="12.642491807111282"><ele>210.0</ele><time>2026-05-01T16:37:27Z</time></trkpt><trkpt lat="43.020966770631674" lon="12.642267074019605"><ele>210.0</ele><time>2026-05-01T16:37:28Z</time></trkpt><trkpt lat="43.021144865762594" lon="12.642054634834219"><ele>209.5</ele><time>2026-05-01T16:37:29Z</time></trkpt><trkpt lat="43.021323324549755" lon="12.641835603303848"><ele>209.0</ele><time>2026-05-01T16:37:30Z</time></trkpt><trkpt lat="43.02151253564872" lon="12.641627714847305"><ele>208.0</ele><time>2026-05-01T16:37:31Z</time></trkpt><trkpt lat="43.021708069536544" lon="12.641428416524645"><ele>207.0</ele><time>2026-05-01T16:37:32Z</time></trkpt><trkpt lat="43.02190281130651" lon="12.641226029087882"><ele>205.5</ele><time>2026-05-01T16:37:33Z</time></trkpt><trkpt lat="43.02209908836425" lon="12.641034994856687"><ele>204.0</ele><time>2026-05-01T16:37:34Z</time></trkpt><trkpt lat="43.022298858202525" lon="12.640848764048801"><ele>204.5</ele><time>2026-05-01T16:37:35Z</time></trkpt><trkpt lat="43.02250360366957" lon="12.640664345141646"><ele>205.0</ele><time>2026-05-01T16:37:36Z</time></trkpt><trkpt lat="43.022708100784826" lon="12.640481368810427"><ele>204.0</ele><time>2026-05-01T16:37:37Z</time></trkpt><trkpt lat="43.022914924566436" lon="12.640288311902143"><ele>203.0</ele><time>2026-05-01T16:37:38Z</time></trkpt><trkpt lat="43.02312030950451" lon="12.640090322403701"><ele>202.5</ele><time>2026-05-01T16:37:39Z</time></trkpt><trkpt lat="43.02332858066573" lon="12.6398942914551"><ele>202.0</ele><time>2026-05-01T16:37:40Z</time></trkpt><trkpt lat="43.02353555527053" lon="12.639695476994019"><ele>202.0</ele><time>2026-05-01T16:37:41Z</time></trkpt><trkpt lat="43.023744773683276" lon="12.639505844097712"><ele>202.0</ele><time>2026-05-01T16:37:42Z</time></trkpt><trkpt lat="43.02395708399726" lon="12.639316743764494"><ele>202.0</ele><time>2026-05-01T16:37:43Z</time></trkpt><trkpt lat="43.02417085669358" lon="12.639127211889214"><ele>202.0</ele><time>2026-05-01T16:37:44Z</time></trkpt><trkpt lat="43.02438352374121" lon="12.638934494331439"><ele>202.0</ele><time>2026-05-01T16:37:45Z</time></trkpt><trkpt lat="43.0245933108885" lon="12.63873872294818"><ele>202.0</ele><time>2026-05-01T16:37:46Z</time></trkpt><trkpt lat="43.024809948213694" lon="12.638535782437739"><ele>201.0</ele><time>2026-05-01T16:37:47Z</time></trkpt><trkpt lat="43.02502130581413" lon="12.638336175543964"><ele>200.0</ele><time>2026-05-01T16:37:48Z</time></trkpt><trkpt lat="43.025236397740784" lon="12.638138463655435"><ele>200.0</ele><time>2026-05-01T16:37:49Z</time></trkpt><trkpt lat="43.0254525811787" lon="12.637939818971294"><ele>200.0</ele><time>2026-05-01T16:37:50Z</time></trkpt><trkpt lat="43.02566958799939" lon="12.637735172056347"><ele>198.5</ele><time>2026-05-01T16:37:51Z</time></trkpt><trkpt lat="43.02589156268104" lon="12.63752624177978"><ele>197.0</ele><time>2026-05-01T16:37:52Z</time></trkpt><trkpt lat="43.02611510082675" lon="12.637320739380666"><ele>197.0</ele><time>2026-05-01T16:37:53Z</time></trkpt><trkpt lat="43.026337531319754" lon="12.637113359333283"><ele>197.0</ele><time>2026-05-01T16:37:54Z</time></trkpt><trkpt lat="43.026560583219364" lon="12.636903874666185"><ele>198.5</ele><time>2026-05-01T16:37:55Z</time></trkpt><trkpt lat="43.02678359971002" lon="12.636698150220367"><ele>200.0</ele><time>2026-05-01T16:37:56Z</time></trkpt><trkpt lat="43.027009439797936" lon="12.636496292286418"><ele>200.0</ele><time>2026-05-01T16:37:57Z</time></trkpt><trkpt lat="43.027233861910624" lon="12.636299593865859"><ele>200.0</ele><time>2026-05-01T16:37:58Z</time></trkpt><trkpt lat="43.02745680362363" lon="12.636094230723716"><ele>199.5</ele><time>2026-05-01T16:37:59Z</time></trkpt><trkpt lat="43.02768659911576" lon="12.63587536192941"><ele>199.0</ele><time>2026-05-01T16:38:00Z</time></trkpt><trkpt lat="43.027912585878816" lon="12.635647335593271"><ele>199.0</ele><time>2026-05-01T16:38:01Z</time></trkpt><trkpt lat="43.02814114368002" lon="12.635416886081218"><ele>199.0</ele><time>2026-05-01T16:38:02Z</time></trkpt><trkpt lat="43.028370906968306" lon="12.63519643052803"><ele>200.0</ele><time>2026-05-01T16:38:03Z</time></trkpt><trkpt lat="43.02860513627336" lon="12.634977729850371"><ele>201.0</ele><time>2026-05-01T16:38:04Z</time></trkpt><trkpt lat="43.028838895153044" lon="12.634766120102453"><ele>201.0</ele><time>2026-05-01T16:38:05Z</time></trkpt><trkpt lat="43.02907131146147" lon="12.634556281275984"><ele>201.0</ele><time>2026-05-01T16:38:06Z</time></trkpt><trkpt lat="43.02929948026689" lon="12.63434820034823"><ele>202.0</ele><time>2026-05-01T16:38:07Z</time></trkpt><trkpt lat="43.02952662354263" lon="12.634138171661611"><ele>203.0</ele><time>2026-05-01T16:38:08Z</time></trkpt><trkpt lat="43.02975167997681" lon="12.633928140734943"><ele>203.0</ele><time>2026-05-01T16:38:09Z</time></trkpt><trkpt lat="43.029975569303716" lon="12.63372243987112"><ele>203.0</ele><time>2026-05-01T16:38:10Z</time></trkpt><trkpt lat="43.030199333804006" lon="12.633519496674372"><ele>203.0</ele><time>2026-05-01T16:38:11Z</time></trkpt><trkpt lat="43.030420258265416" lon="12.633319539137883"><ele>203.0</ele><time>2026-05-01T16:38:12Z</time></trkpt><trkpt lat="43.03064543740198" lon="12.633124753971604"><ele>203.5</ele><time>2026-05-01T16:38:13Z</time></trkpt><trkpt lat="43.03087112676275" lon="12.632926508304871"><ele>204.0</ele><time>2026-05-01T16:38:14Z</time></trkpt><trkpt lat="43.03109352515534" lon="12.632731126363673"><ele>204.0</ele><time>2026-05-01T16:38:15Z</time></trkpt><trkpt lat="43.03131569229166" lon="12.632534673155348"><ele>204.0</ele><time>2026-05-01T16:38:16Z</time></trkpt><trkpt lat="43.03153197448847" lon="12.632333798102028"><ele>203.5</ele><time>2026-05-01T16:38:17Z</time></trkpt><trkpt lat="43.03174978216339" lon="12.632134634173918"><ele>203.0</ele><time>2026-05-01T16:38:18Z</time></trkpt><trkpt lat="43.031963588233964" lon="12.63193595947269"><ele>203.0</ele><time>2026-05-01T16:38:19Z</time></trkpt><trkpt lat="43.0321764798404" lon="12.631739732733267"><ele>203.0</ele><time>2026-05-01T16:38:20Z</time></trkpt><trkpt lat="43.032390485831726" lon="12.631542776934554"><ele>205.0</ele><time>2026-05-01T16:38:21Z</time></trkpt><trkpt lat="43.03260418333366" lon="12.631349087161974"><ele>207.0</ele><time>2026-05-01T16:38:22Z</time></trkpt><trkpt lat="43.0328144180718" lon="12.631157228794459"><ele>205.5</ele><time>2026-05-01T16:38:23Z</time></trkpt><trkpt lat="43.033026045060794" lon="12.63096273848647"><ele>204.0</ele><time>2026-05-01T16:38:24Z</time></trkpt><trkpt lat="43.03324239113605" lon="12.630764034231904"><ele>206.5</ele><time>2026-05-01T16:38:25Z</time></trkpt><trkpt lat="43.0334559018556" lon="12.630566893641078"><ele>209.0</ele><time>2026-05-01T16:38:26Z</time></trkpt><trkpt lat="43.03366960963635" lon="12.630368281495192"><ele>207.5</ele><time>2026-05-01T16:38:27Z</time></trkpt><trkpt lat="43.033884578370284" lon="12.630169977703746"><ele>206.0</ele><time>2026-05-01T16:38:28Z</time></trkpt><trkpt lat="43.03409646026128" lon="12.629970515037357"><ele>209.0</ele><time>2026-05-01T16:38:29Z</time></trkpt><trkpt lat="43.03430695968429" lon="12.629771537270704"><ele>212.0</ele><time>2026-05-01T16:38:30Z</time></trkpt><trkpt lat="43.034515348095475" lon="12.629568899022942"><ele>210.0</ele><time>2026-05-01T16:38:31Z</time></trkpt><trkpt lat="43.034715155096144" lon="12.629352932790066"><ele>208.0</ele><time>2026-05-01T16:38:32Z</time></trkpt><trkpt lat="43.034908040624096" lon="12.629122292340904"><ele>208.0</ele><time>2026-05-01T16:38:33Z</time></trkpt><trkpt lat="43.035092384003626" lon="12.628876105274818"><ele>208.0</ele><time>2026-05-01T16:38:34Z</time></trkpt><trkpt lat="43.035269344987015" lon="12.628615047796496"><ele>208.0</ele><time>2026-05-01T16:38:35Z</time></trkpt><trkpt lat="43.035437541555396" lon="12.628345282221007"><ele>208.0</ele><time>2026-05-01T16:38:36Z</time></trkpt><trkpt lat="43.03559222868659" lon="12.628060536847396"><ele>208.0</ele><time>2026-05-01T16:38:37Z</time></trkpt><trkpt lat="43.03573257305543" lon="12.62778092127194"><ele>208.0</ele><time>2026-05-01T16:38:38Z</time></trkpt><trkpt lat="43.03586435708404" lon="12.627496621944937"><ele>209.0</ele><time>2026-05-01T16:38:39Z</time></trkpt><trkpt lat="43.03599537430974" lon="12.627205577903888"><ele>210.0</ele><time>2026-05-01T16:38:40Z</time></trkpt><trkpt lat="43.03612760700404" lon="12.626919005748897"><ele>210.0</ele><time>2026-05-01T16:38:41Z</time></trkpt><trkpt lat="43.03625703219766" lon="12.626643656004505"><ele>210.0</ele><time>2026-05-01T16:38:42Z</time></trkpt><trkpt lat="43.03638313695727" lon="12.626372657964119"><ele>211.0</ele><time>2026-05-01T16:38:43Z</time></trkpt><trkpt lat="43.0365100798894" lon="12.626076957119723"><ele>212.0</ele><time>2026-05-01T16:38:44Z</time></trkpt><trkpt lat="43.03664555250482" lon="12.625760861543002"><ele>212.0</ele><time>2026-05-01T16:38:45Z</time></trkpt><trkpt lat="43.036797911375636" lon="12.625436342583171"><ele>212.0</ele><time>2026-05-01T16:38:46Z</time></trkpt><trkpt lat="43.036959817784506" lon="12.625120202523458"><ele>210.0</ele><time>2026-05-01T16:38:47Z</time></trkpt><trkpt lat="43.03712480780717" lon="12.624814529949758"><ele>208.0</ele><time>2026-05-01T16:38:48Z</time></trkpt><trkpt lat="43.03727879073393" lon="12.624507518523954"><ele>207.5</ele><time>2026-05-01T16:38:49Z</time></trkpt><trkpt lat="43.0374259777387" lon="12.624193041086015"><ele>207.0</ele><time>2026-05-01T16:38:50Z</time></trkpt><trkpt lat="43.037569106123435" lon="12.623889911880491"><ele>208.0</ele><time>2026-05-01T16:38:51Z</time></trkpt><trkpt lat="43.03770749733559" lon="12.623596190988447"><ele>209.0</ele><time>2026-05-01T16:38:52Z</time></trkpt><trkpt lat="43.03784426155297" lon="12.62330567836183"><ele>209.0</ele><time>2026-05-01T16:38:53Z</time></trkpt><trkpt lat="43.037977006159075" lon="12.623023440982603"><ele>209.0</ele><time>2026-05-01T16:38:54Z</time></trkpt><trkpt lat="43.03810811562028" lon="12.622746490049137"><ele>209.5</ele><time>2026-05-01T16:38:55Z</time></trkpt><trkpt lat="43.038236041811295" lon="12.622472523364944"><ele>210.0</ele><time>2026-05-01T16:38:56Z</time></trkpt><trkpt lat="43.03836150538259" lon="12.62220790804718"><ele>209.0</ele><time>2026-05-01T16:38:57Z</time></trkpt><trkpt lat="43.038478033889895" lon="12.621961741771598"><ele>208.0</ele><time>2026-05-01T16:38:58Z</time></trkpt><trkpt lat="43.03859582696077" lon="12.621725553366675"><ele>207.0</ele><time>2026-05-01T16:38:59Z</time></trkpt><trkpt lat="43.0387102103683" lon="12.62150514986117"><ele>207.0</ele><time>2026-05-01T16:39:00Z</time></trkpt><trkpt lat="43.038821283579054" lon="12.621294511425985"><ele>207.0</ele><time>2026-05-01T16:39:01Z</time></trkpt><trkpt lat="43.038923005323575" lon="12.621094965462559"><ele>207.0</ele><time>2026-05-01T16:39:02Z</time></trkpt><trkpt lat="43.03901249155307" lon="12.620912225031187"><ele>206.75</ele><time>2026-05-01T16:39:03Z</time></trkpt><trkpt lat="43.039093057687495" lon="12.620738852562006"><ele>206.5</ele><time>2026-05-01T16:39:04Z</time></trkpt><trkpt lat="43.03916985134025" lon="12.620579151809624"><ele>206.25</ele><time>2026-05-01T16:39:05Z</time></trkpt><trkpt lat="43.03924566084878" lon="12.62045334868089"><ele>206.0</ele><time>2026-05-01T16:39:06Z</time></trkpt><trkpt lat="43.03931922437746" lon="12.620319356470576"><ele>206.25</ele><time>2026-05-01T16:39:07Z</time></trkpt><trkpt lat="43.03938195192959" lon="12.620190298056771"><ele>206.5</ele><time>2026-05-01T16:39:08Z</time></trkpt><trkpt lat="43.03952977275541" lon="12.620158992146637"><ele>206.75</ele><time>2026-05-01T16:39:09Z</time></trkpt><trkpt lat="43.039653362978164" lon="12.620111617921843"><ele>207.0</ele><time>2026-05-01T16:39:10Z</time></trkpt><trkpt lat="43.039791259813974" lon="12.620092691939087"><ele>207.0</ele><time>2026-05-01T16:39:11Z</time></trkpt><trkpt lat="43.03992634294336" lon="12.620106699175064"><ele>207.0</ele><time>2026-05-01T16:39:12Z</time></trkpt><trkpt lat="43.04005432368781" lon="12.620143721889024"><ele>207.0</ele><time>2026-05-01T16:39:13Z</time></trkpt><trkpt lat="43.04016972258489" lon="12.62015173422503"><ele>207.0</ele><time>2026-05-01T16:39:14Z</time></trkpt><trkpt lat="43.04026133633102" lon="12.62011566807503"><ele>207.75</ele><time>2026-05-01T16:39:15Z</time></trkpt><trkpt lat="43.04039476736425" lon="12.620008843940875"><ele>208.5</ele><time>2026-05-01T16:39:16Z</time></trkpt><trkpt lat="43.04047409394943" lon="12.619871236361702"><ele>209.25</ele><time>2026-05-01T16:39:17Z</time></trkpt><trkpt lat="43.04051737885932" lon="12.619732521944314"><ele>210.0</ele><time>2026-05-01T16:39:18Z</time></trkpt><trkpt lat="43.040568730863534" lon="12.619624101817369"><ele>210.0</ele><time>2026-05-01T16:39:19Z</time></trkpt><trkpt lat="43.04061170317573" lon="12.619529030714148"><ele>210.0</ele><time>2026-05-01T16:39:20Z</time></trkpt><trkpt lat="43.04075902873116" lon="12.619564564699575"><ele>210.0</ele><time>2026-05-01T16:39:21Z</time></trkpt><trkpt lat="43.040839828461294" lon="12.619542876883088"><ele>210.0</ele><time>2026-05-01T16:39:22.001Z</time></trkpt><trkpt lat="43.04092801609713" lon="12.619583432624959"><ele>210.0</ele><time>2026-05-01T16:39:23.001Z</time></trkpt><trkpt lat="43.041019394156464" lon="12.619636059546979"><ele>210.5</ele><time>2026-05-01T16:39:24.001Z</time></trkpt><trkpt lat="43.041130734277154" lon="12.619715798408068"><ele>211.0</ele><time>2026-05-01T16:39:25.001Z</time></trkpt><trkpt lat="43.041225039401155" lon="12.619803244562714"><ele>211.5</ele><time>2026-05-01T16:39:26Z</time></trkpt><trkpt lat="43.041330755817995" lon="12.619879182316927"><ele>212.0</ele><time>2026-05-01T16:39:27Z</time></trkpt><trkpt lat="43.04144544661747" lon="12.619961566502035"><ele>212.0</ele><time>2026-05-01T16:39:28Z</time></trkpt><trkpt lat="43.04157135900995" lon="12.620039617953733"><ele>212.0</ele><time>2026-05-01T16:39:29Z</time></trkpt><trkpt lat="43.04168119683436" lon="12.620131637641746"><ele>212.0</ele><time>2026-05-01T16:39:30Z</time></trkpt><trkpt lat="43.041776949207424" lon="12.620211565679545"><ele>212.0</ele><time>2026-05-01T16:39:31Z</time></trkpt><trkpt lat="43.041845023180464" lon="12.620292696755952"><ele>212.2</ele><time>2026-05-01T16:39:32Z</time></trkpt><trkpt lat="43.04189441485091" lon="12.620356423083601"><ele>212.39999999999998</ele><time>2026-05-01T16:39:33Z</time></trkpt><trkpt lat="43.04195457974075" lon="12.62038759863544"><ele>212.60000000000002</ele><time>2026-05-01T16:39:36Z</time></trkpt><trkpt lat="43.04208010215441" lon="12.62029499678812"><ele>212.8</ele><time>2026-05-01T16:39:38Z</time></trkpt><trkpt lat="43.04213919362356" lon="12.62019808240569"><ele>213.0</ele><time>2026-05-01T16:39:39Z</time></trkpt><trkpt lat="43.04221932617364" lon="12.620109807868687"><ele>213.0</ele><time>2026-05-01T16:39:40Z</time></trkpt><trkpt lat="43.04230012772666" lon="12.620004804757517"><ele>213.0</ele><time>2026-05-01T16:39:40.999Z</time></trkpt><trkpt lat="43.042380383582206" lon="12.619900829301338"><ele>213.0</ele><time>2026-05-01T16:39:41.999Z</time></trkpt><trkpt lat="43.04245876710149" lon="12.619799517177965"><ele>213.0</ele><time>2026-05-01T16:39:42.999Z</time></trkpt><trkpt lat="43.04251952459116" lon="12.619702023672813"><ele>213.0</ele><time>2026-05-01T16:39:43.999Z</time></trkpt><trkpt lat="43.042594138770575" lon="12.619640992681497"><ele>213.5</ele><time>2026-05-01T16:39:44.999Z</time></trkpt><trkpt lat="43.04266700339954" lon="12.619558936526374"><ele>214.0</ele><time>2026-05-01T16:39:45.999Z</time></trkpt><trkpt lat="43.04272966324735" lon="12.61943869912122"><ele>214.5</ele><time>2026-05-01T16:39:46.999Z</time></trkpt><trkpt lat="43.042822572249236" lon="12.619298261473617"><ele>215.0</ele><time>2026-05-01T16:39:47.999Z</time></trkpt><trkpt lat="43.04292845509162" lon="12.619166000178549"><ele>215.0</ele><time>2026-05-01T16:39:48.999Z</time></trkpt><trkpt lat="43.04303044850721" lon="12.619041064653704"><ele>215.0</ele><time>2026-05-01T16:39:49.999Z</time></trkpt><trkpt lat="43.043123654865546" lon="12.618919648319249"><ele>215.0</ele><time>2026-05-01T16:39:50.999Z</time></trkpt><trkpt lat="43.04320370573099" lon="12.618809671172462"><ele>215.0</ele><time>2026-05-01T16:39:51.999Z</time></trkpt><trkpt lat="43.043282695481835" lon="12.618703348862224"><ele>215.0</ele><time>2026-05-01T16:39:52.999Z</time></trkpt><trkpt lat="43.04336344535382" lon="12.61859634638382"><ele>215.0</ele><time>2026-05-01T16:39:53.999Z</time></trkpt><trkpt lat="43.04345037029392" lon="12.618481521903956"><ele>215.0</ele><time>2026-05-01T16:39:54.999Z</time></trkpt><trkpt lat="43.04354678000331" lon="12.618369434345462"><ele>215.0</ele><time>2026-05-01T16:39:55.999Z</time></trkpt><trkpt lat="43.043640193888066" lon="12.618240770032026"><ele>215.0</ele><time>2026-05-01T16:39:56.999Z</time></trkpt><trkpt lat="43.043727901272376" lon="12.61813190413862"><ele>215.0</ele><time>2026-05-01T16:39:57.999Z</time></trkpt><trkpt lat="43.043803212482196" lon="12.6180318700928"><ele>215.0</ele><time>2026-05-01T16:39:58.999Z</time></trkpt><trkpt lat="43.043877150582226" lon="12.617930855534803"><ele>215.0</ele><time>2026-05-01T16:39:59.999Z</time></trkpt><trkpt lat="43.04394156557831" lon="12.617851656726568"><ele>215.0</ele><time>2026-05-01T16:40:00.999Z</time></trkpt><trkpt lat="43.04399283296875" lon="12.617761606406287"><ele>214.8</ele><time>2026-05-01T16:40:01.999Z</time></trkpt><trkpt lat="43.04404312159135" lon="12.617662428346172"><ele>214.6</ele><time>2026-05-01T16:40:02.999Z</time></trkpt><trkpt lat="43.04409648048169" lon="12.617558450905321"><ele>214.39999999999998</ele><time>2026-05-01T16:40:03.999Z</time></trkpt><trkpt lat="43.04416741832667" lon="12.617431849130183"><ele>214.2</ele><time>2026-05-01T16:40:04.999Z</time></trkpt><trkpt lat="43.04417288698345" lon="12.617228447355142"><ele>214.0</ele><time>2026-05-01T16:40:05.999Z</time></trkpt><trkpt lat="43.0442300042454" lon="12.617016050176858"><ele>213.66666666666666</ele><time>2026-05-01T16:40:06.999Z</time></trkpt><trkpt lat="43.044274808678274" lon="12.616782767711177"><ele>213.33333333333331</ele><time>2026-05-01T16:40:07.999Z</time></trkpt><trkpt lat="43.04433302749173" lon="12.616562625060306"><ele>213.0</ele><time>2026-05-01T16:40:08.999Z</time></trkpt><trkpt lat="43.044391422148635" lon="12.616331389775292"><ele>212.66666666666669</ele><time>2026-05-01T16:40:09.999Z</time></trkpt><trkpt lat="43.04444977905472" lon="12.616101669155926"><ele>212.33333333333334</ele><time>2026-05-01T16:40:10.999Z</time></trkpt><trkpt lat="43.04450713234341" lon="12.615871242575672"><ele>212.0</ele><time>2026-05-01T16:40:11.999Z</time></trkpt><trkpt lat="43.04455712238472" lon="12.615639651722162"><ele>212.0</ele><time>2026-05-01T16:40:12.999Z</time></trkpt><trkpt lat="43.04461265848623" lon="12.615410775551668"><ele>212.0</ele><time>2026-05-01T16:40:13.999Z</time></trkpt><trkpt lat="43.044674559556334" lon="12.615194850493605"><ele>212.0</ele><time>2026-05-01T16:40:14.999Z</time></trkpt><trkpt lat="43.04472602471933" lon="12.614976156370634"><ele>211.33333333333334</ele><time>2026-05-01T16:40:15.999Z</time></trkpt><trkpt lat="43.04477987060273" lon="12.614755349814398"><ele>210.66666666666669</ele><time>2026-05-01T16:40:16.999Z</time></trkpt><trkpt lat="43.04483239550409" lon="12.614539573811744"><ele>210.0</ele><time>2026-05-01T16:40:17.999Z</time></trkpt><trkpt lat="43.044886069072966" lon="12.614328667124385"><ele>209.66666666666669</ele><time>2026-05-01T16:40:18.999Z</time></trkpt><trkpt lat="43.044942418035575" lon="12.614120027361748"><ele>209.33333333333334</ele><time>2026-05-01T16:40:19.999Z</time></trkpt><trkpt lat="43.04499449916665" lon="12.613917980613811"><ele>209.0</ele><time>2026-05-01T16:40:20.999Z</time></trkpt><trkpt lat="43.04504030851317" lon="12.613729179700039"><ele>209.0</ele><time>2026-05-01T16:40:21.999Z</time></trkpt><trkpt lat="43.045084234717734" lon="12.613550595353244"><ele>209.0</ele><time>2026-05-01T16:40:22.999Z</time></trkpt><trkpt lat="43.04512669623132" lon="12.613385589288788"><ele>209.0</ele><time>2026-05-01T16:40:23.999Z</time></trkpt><trkpt lat="43.04517047512595" lon="12.613221270449195"><ele>209.0</ele><time>2026-05-01T16:40:24.999Z</time></trkpt><trkpt lat="43.04521322905456" lon="12.613048396559329"><ele>209.0</ele><time>2026-05-01T16:40:25.999Z</time></trkpt><trkpt lat="43.045236499777545" lon="12.612873845254592"><ele>209.0</ele><time>2026-05-01T16:40:26.999Z</time></trkpt><trkpt lat="43.04525544356867" lon="12.612702287921847"><ele>209.0</ele><time>2026-05-01T16:40:27.999Z</time></trkpt><trkpt lat="43.045253983689015" lon="12.6125475160081"><ele>209.0</ele><time>2026-05-01T16:40:28.999Z</time></trkpt><trkpt lat="43.04524888007091" lon="12.612412486810998"><ele>209.2</ele><time>2026-05-01T16:40:29.999Z</time></trkpt><trkpt lat="43.045241217648254" lon="12.612288241876044"><ele>209.39999999999998</ele><time>2026-05-01T16:40:30.999Z</time></trkpt><trkpt lat="43.0452532962898" lon="12.6121691798818"><ele>209.6</ele><time>2026-05-01T16:40:31.999Z</time></trkpt><trkpt lat="43.04531904521868" lon="12.612043517456936"><ele>209.8</ele><time>2026-05-01T16:40:32.999Z</time></trkpt><trkpt lat="43.04540969976326" lon="12.611909157778125"><ele>210.0</ele><time>2026-05-01T16:40:33.999Z</time></trkpt><trkpt lat="43.04549980489711" lon="12.611747521515142"><ele>210.33333333333331</ele><time>2026-05-01T16:40:34.999Z</time></trkpt><trkpt lat="43.04557236623508" lon="12.611589564182855"><ele>210.66666666666666</ele><time>2026-05-01T16:40:35.999Z</time></trkpt><trkpt lat="43.04563049310303" lon="12.611405553782971"><ele>211.0</ele><time>2026-05-01T16:40:36.999Z</time></trkpt><trkpt lat="43.04567799934768" lon="12.611185804585654"><ele>210.66666666666666</ele><time>2026-05-01T16:40:37.999Z</time></trkpt><trkpt lat="43.04572641919696" lon="12.6109569580459"><ele>210.33333333333331</ele><time>2026-05-01T16:40:38.999Z</time></trkpt><trkpt lat="43.04578023533265" lon="12.61073341775181"><ele>210.0</ele><time>2026-05-01T16:40:39.999Z</time></trkpt><trkpt lat="43.04583416896332" lon="12.610515867193966"><ele>211.0</ele><time>2026-05-01T16:40:40.999Z</time></trkpt><trkpt lat="43.04588248935475" lon="12.610303994760919"><ele>212.0</ele><time>2026-05-01T16:40:41.999Z</time></trkpt><trkpt lat="43.04593221373747" lon="12.610089806763412"><ele>213.0</ele><time>2026-05-01T16:40:42.999Z</time></trkpt><trkpt lat="43.04598205578682" lon="12.60987657344138"><ele>213.0</ele><time>2026-05-01T16:40:43.999Z</time></trkpt><trkpt lat="43.0460394316259" lon="12.609657033035605"><ele>213.0</ele><time>2026-05-01T16:40:44.999Z</time></trkpt><trkpt lat="43.04609355837317" lon="12.609427427204592"><ele>213.0</ele><time>2026-05-01T16:40:45.999Z</time></trkpt><trkpt lat="43.04615067190189" lon="12.609198152993438"><ele>213.0</ele><time>2026-05-01T16:40:46.999Z</time></trkpt><trkpt lat="43.04620850739637" lon="12.608962750650571"><ele>213.0</ele><time>2026-05-01T16:40:47.999Z</time></trkpt><trkpt lat="43.04626695866089" lon="12.608728479262782"><ele>213.0</ele><time>2026-05-01T16:40:48.999Z</time></trkpt><trkpt lat="43.04632439257626" lon="12.60849251726137"><ele>213.0</ele><time>2026-05-01T16:40:49.999Z</time></trkpt><trkpt lat="43.04637963106941" lon="12.608261770369554"><ele>213.0</ele><time>2026-05-01T16:40:50.999Z</time></trkpt><trkpt lat="43.046437683237095" lon="12.608029870487206"><ele>213.0</ele><time>2026-05-01T16:40:51.999Z</time></trkpt><trkpt lat="43.046491361604176" lon="12.607801925694615"><ele>213.0</ele><time>2026-05-01T16:40:52.999Z</time></trkpt><trkpt lat="43.04654738469272" lon="12.607567527884415"><ele>213.0</ele><time>2026-05-01T16:40:53.999Z</time></trkpt><trkpt lat="43.046603495929816" lon="12.60732698459259"><ele>213.0</ele><time>2026-05-01T16:40:54.999Z</time></trkpt><trkpt lat="43.04666130067422" lon="12.607090280784625"><ele>213.66666666666669</ele><time>2026-05-01T16:40:55.999Z</time></trkpt><trkpt lat="43.04672256918483" lon="12.60685604337538"><ele>214.33333333333334</ele><time>2026-05-01T16:40:56.999Z</time></trkpt><trkpt lat="43.046780319371315" lon="12.606623036712339"><ele>215.0</ele><time>2026-05-01T16:40:57.999Z</time></trkpt><trkpt lat="43.04683728300661" lon="12.606390408191034"><ele>214.66666666666669</ele><time>2026-05-01T16:40:58.999Z</time></trkpt><trkpt lat="43.04689534709692" lon="12.606159839960544"><ele>214.33333333333331</ele><time>2026-05-01T16:40:59.999Z</time></trkpt><trkpt lat="43.04695315328126" lon="12.605935324879713"><ele>214.0</ele><time>2026-05-01T16:41:00.999Z</time></trkpt><trkpt lat="43.04700899240492" lon="12.60569967141491"><ele>214.0</ele><time>2026-05-01T16:41:01.999Z</time></trkpt><trkpt lat="43.04707168795682" lon="12.605450299200202"><ele>214.0</ele><time>2026-05-01T16:41:02.999Z</time></trkpt><trkpt lat="43.047133166910086" lon="12.605202206470459"><ele>214.0</ele><time>2026-05-01T16:41:03.999Z</time></trkpt><trkpt lat="43.047195016844704" lon="12.60496136877195"><ele>214.0</ele><time>2026-05-01T16:41:04.999Z</time></trkpt><trkpt lat="43.04725595808458" lon="12.604713892982257"><ele>214.0</ele><time>2026-05-01T16:41:05.999Z</time></trkpt><trkpt lat="43.04731494182834" lon="12.604468295984237"><ele>214.0</ele><time>2026-05-01T16:41:06.999Z</time></trkpt><trkpt lat="43.04737607007256" lon="12.604226017626296"><ele>214.0</ele><time>2026-05-01T16:41:07.999Z</time></trkpt><trkpt lat="43.047435475591186" lon="12.603990588647108"><ele>214.0</ele><time>2026-05-01T16:41:08.999Z</time></trkpt><trkpt lat="43.04749520118179" lon="12.603752926883022"><ele>214.0</ele><time>2026-05-01T16:41:09.999Z</time></trkpt><trkpt lat="43.04755668630621" lon="12.60351856655738"><ele>213.33333333333331</ele><time>2026-05-01T16:41:10.999Z</time></trkpt><trkpt lat="43.04762113614557" lon="12.60328376364805"><ele>212.66666666666669</ele><time>2026-05-01T16:41:11.999Z</time></trkpt><trkpt lat="43.04769646790343" lon="12.60304285743619"><ele>212.0</ele><time>2026-05-01T16:41:12.999Z</time></trkpt><trkpt lat="43.047795282323406" lon="12.602817692985012"><ele>211.66666666666669</ele><time>2026-05-01T16:41:13.999Z</time></trkpt><trkpt lat="43.04787104114086" lon="12.602579127922152"><ele>211.33333333333331</ele><time>2026-05-01T16:41:14.999Z</time></trkpt><trkpt lat="43.047958526648934" lon="12.60235010486051"><ele>211.0</ele><time>2026-05-01T16:41:15.999Z</time></trkpt><trkpt lat="43.04804183309505" lon="12.602108357094153"><ele>211.66666666666666</ele><time>2026-05-01T16:41:16.999Z</time></trkpt><trkpt lat="43.048130115404014" lon="12.6018428129982"><ele>212.33333333333331</ele><time>2026-05-01T16:41:17.999Z</time></trkpt><trkpt lat="43.04821254289966" lon="12.601584209900773"><ele>213.0</ele><time>2026-05-01T16:41:18.999Z</time></trkpt><trkpt lat="43.04828590684038" lon="12.601325484635598"><ele>214.33333333333331</ele><time>2026-05-01T16:41:19.999Z</time></trkpt><trkpt lat="43.0483723465552" lon="12.601087222343581"><ele>215.66666666666666</ele><time>2026-05-01T16:41:20.999Z</time></trkpt><trkpt lat="43.04843159028565" lon="12.600837987583992"><ele>217.0</ele><time>2026-05-01T16:41:21.999Z</time></trkpt><trkpt lat="43.048505194952966" lon="12.60059778083618"><ele>217.0</ele><time>2026-05-01T16:41:22.999Z</time></trkpt><trkpt lat="43.048576978892136" lon="12.600363441639646"><ele>217.0</ele><time>2026-05-01T16:41:23.999Z</time></trkpt><trkpt lat="43.0486469855531" lon="12.600125710112374"><ele>217.0</ele><time>2026-05-01T16:41:24.999Z</time></trkpt><trkpt lat="43.04870838646341" lon="12.599898080094789"><ele>217.0</ele><time>2026-05-01T16:41:25.999Z</time></trkpt><trkpt lat="43.0487680160167" lon="12.599670922751985"><ele>217.0</ele><time>2026-05-01T16:41:26.999Z</time></trkpt><trkpt lat="43.048828948070515" lon="12.599448312723528"><ele>217.0</ele><time>2026-05-01T16:41:28Z</time></trkpt><trkpt lat="43.048887413694466" lon="12.5992301591089"><ele>217.0</ele><time>2026-05-01T16:41:29Z</time></trkpt><trkpt lat="43.04894567262256" lon="12.599010511643797"><ele>217.0</ele><time>2026-05-01T16:41:30Z</time></trkpt><trkpt lat="43.04900366452797" lon="12.59879291625704"><ele>217.0</ele><time>2026-05-01T16:41:31Z</time></trkpt><trkpt lat="43.04905935945778" lon="12.598580085255039"><ele>216.66666666666666</ele><time>2026-05-01T16:41:32Z</time></trkpt><trkpt lat="43.04911256968972" lon="12.598366552165357"><ele>216.33333333333331</ele><time>2026-05-01T16:41:33Z</time></trkpt><trkpt lat="43.0491643642913" lon="12.598164938375652"><ele>216.0</ele><time>2026-05-01T16:41:34Z</time></trkpt><trkpt lat="43.049216694099" lon="12.597966995290808"><ele>216.25</ele><time>2026-05-01T16:41:35Z</time></trkpt><trkpt lat="43.049268309260775" lon="12.597772778132345"><ele>216.5</ele><time>2026-05-01T16:41:36Z</time></trkpt><trkpt lat="43.04931237621763" lon="12.59758595370856"><ele>216.75</ele><time>2026-05-01T16:41:37Z</time></trkpt><trkpt lat="43.049357371473874" lon="12.597400817492629"><ele>217.0</ele><time>2026-05-01T16:41:38Z</time></trkpt><trkpt lat="43.04940242390306" lon="12.597220800058924"><ele>217.0</ele><time>2026-05-01T16:41:39Z</time></trkpt><trkpt lat="43.049451045293594" lon="12.597044747589088"><ele>217.0</ele><time>2026-05-01T16:41:40Z</time></trkpt><trkpt lat="43.049491119109184" lon="12.59687351656165"><ele>217.0</ele><time>2026-05-01T16:41:41Z</time></trkpt><trkpt lat="43.049533355771146" lon="12.596711758779643"><ele>217.0</ele><time>2026-05-01T16:41:42Z</time></trkpt><trkpt lat="43.04957250121704" lon="12.596553716413755"><ele>217.2</ele><time>2026-05-01T16:41:43Z</time></trkpt><trkpt lat="43.04959544348736" lon="12.596406285753591"><ele>217.39999999999998</ele><time>2026-05-01T16:41:44Z</time></trkpt><trkpt lat="43.049605576401746" lon="12.596267072427654"><ele>217.60000000000002</ele><time>2026-05-01T16:41:45Z</time></trkpt><trkpt lat="43.049610312925054" lon="12.596133676795873"><ele>217.8</ele><time>2026-05-01T16:41:46Z</time></trkpt><trkpt lat="43.049612292441076" lon="12.596009763604515"><ele>218.0</ele><time>2026-05-01T16:41:47Z</time></trkpt><trkpt lat="43.049612257317015" lon="12.59589243573408"><ele>217.60000000000002</ele><time>2026-05-01T16:41:48Z</time></trkpt><trkpt lat="43.049629908121375" lon="12.595778406276592"><ele>217.20000000000002</ele><time>2026-05-01T16:41:49Z</time></trkpt><trkpt lat="43.049679406224264" lon="12.595680948719291"><ele>216.8</ele><time>2026-05-01T16:41:50Z</time></trkpt><trkpt lat="43.0497635046937" lon="12.595596600158741"><ele>216.4</ele><time>2026-05-01T16:41:51Z</time></trkpt><trkpt lat="43.04986176742054" lon="12.595515189142514"><ele>216.0</ele><time>2026-05-01T16:41:52Z</time></trkpt><trkpt lat="43.049966982802744" lon="12.595407441047"><ele>216.25</ele><time>2026-05-01T16:41:53Z</time></trkpt><trkpt lat="43.05007604006773" lon="12.595288614524407"><ele>216.5</ele><time>2026-05-01T16:41:54Z</time></trkpt><trkpt lat="43.05018193997398" lon="12.595174311996132"><ele>216.75</ele><time>2026-05-01T16:41:55Z</time></trkpt><trkpt lat="43.05028834382037" lon="12.595060851826268"><ele>217.0</ele><time>2026-05-01T16:41:56Z</time></trkpt><trkpt lat="43.050389191727" lon="12.594954684304152"><ele>217.0</ele><time>2026-05-01T16:41:57Z</time></trkpt><trkpt lat="43.05048662651874" lon="12.594852424694036"><ele>217.0</ele><time>2026-05-01T16:41:58Z</time></trkpt><trkpt lat="43.05057932075179" lon="12.594748700244162"><ele>217.0</ele><time>2026-05-01T16:41:59Z</time></trkpt><trkpt lat="43.05068608972887" lon="12.594651991266002"><ele>217.0</ele><time>2026-05-01T16:42:00Z</time></trkpt><trkpt lat="43.05080502911907" lon="12.594520839645192"><ele>216.66666666666666</ele><time>2026-05-01T16:42:01Z</time></trkpt><trkpt lat="43.05094578654009" lon="12.59436562975999"><ele>216.33333333333331</ele><time>2026-05-01T16:42:02Z</time></trkpt><trkpt lat="43.05110857033597" lon="12.594186131895555"><ele>216.0</ele><time>2026-05-01T16:42:02.999Z</time></trkpt><trkpt lat="43.05128342809291" lon="12.59398442491461"><ele>216.0</ele><time>2026-05-01T16:42:03.999Z</time></trkpt><trkpt lat="43.051473428112246" lon="12.59376995846057"><ele>216.0</ele><time>2026-05-01T16:42:04.999Z</time></trkpt><trkpt lat="43.051675305140286" lon="12.593535984445902"><ele>216.0</ele><time>2026-05-01T16:42:05.999Z</time></trkpt><trkpt lat="43.05185447773793" lon="12.59334136056495"><ele>216.0</ele><time>2026-05-01T16:42:06.999Z</time></trkpt><trkpt lat="43.05202266565314" lon="12.59315380613051"><ele>216.0</ele><time>2026-05-01T16:42:07.999Z</time></trkpt><trkpt lat="43.052195334578755" lon="12.592964700212049"><ele>216.33333333333331</ele><time>2026-05-01T16:42:08.999Z</time></trkpt><trkpt lat="43.05236758607276" lon="12.59277919979237"><ele>216.66666666666666</ele><time>2026-05-01T16:42:09.999Z</time></trkpt><trkpt lat="43.05253684421838" lon="12.592593717158879"><ele>217.0</ele><time>2026-05-01T16:42:10.999Z</time></trkpt><trkpt lat="43.0527016318768" lon="12.592410782538568"><ele>217.0</ele><time>2026-05-01T16:42:11.999Z</time></trkpt><trkpt lat="43.0528599201258" lon="12.592229727582486"><ele>217.0</ele><time>2026-05-01T16:42:12.999Z</time></trkpt><trkpt lat="43.053015255859535" lon="12.592064153680537"><ele>217.0</ele><time>2026-05-01T16:42:13.999Z</time></trkpt><trkpt lat="43.05316769996747" lon="12.591897130443794"><ele>217.0</ele><time>2026-05-01T16:42:14.999Z</time></trkpt><trkpt lat="43.05331654327373" lon="12.591733728376767"><ele>217.0</ele><time>2026-05-01T16:42:15.999Z</time></trkpt><trkpt lat="43.05345838925546" lon="12.591574184500386"><ele>217.0</ele><time>2026-05-01T16:42:16.999Z</time></trkpt><trkpt lat="43.053599706173195" lon="12.591418823258257"><ele>217.0</ele><time>2026-05-01T16:42:17.999Z</time></trkpt><trkpt lat="43.053736698934664" lon="12.59126773575014"><ele>217.0</ele><time>2026-05-01T16:42:18.999Z</time></trkpt><trkpt lat="43.05387188989365" lon="12.591117069029828"><ele>217.0</ele><time>2026-05-01T16:42:19.999Z</time></trkpt><trkpt lat="43.05400663725632" lon="12.59096624121167"><ele>217.0</ele><time>2026-05-01T16:42:20.999Z</time></trkpt><trkpt lat="43.054141457193474" lon="12.590819829791041"><ele>217.0</ele><time>2026-05-01T16:42:21.999Z</time></trkpt><trkpt lat="43.05427528057107" lon="12.59067549576609"><ele>217.0</ele><time>2026-05-01T16:42:22.999Z</time></trkpt><trkpt lat="43.054411664753594" lon="12.59052284836244"><ele>217.0</ele><time>2026-05-01T16:42:23.999Z</time></trkpt><trkpt lat="43.054555156043946" lon="12.590371577223658"><ele>217.0</ele><time>2026-05-01T16:42:24.999Z</time></trkpt><trkpt lat="43.05470250749706" lon="12.59021623107882"><ele>217.0</ele><time>2026-05-01T16:42:25.999Z</time></trkpt><trkpt lat="43.05484613495013" lon="12.590064472407729"><ele>218.0</ele><time>2026-05-01T16:42:26.999Z</time></trkpt><trkpt lat="43.05498235076569" lon="12.58992302960754"><ele>219.0</ele><time>2026-05-01T16:42:27.999Z</time></trkpt><trkpt lat="43.05511565393005" lon="12.589784043877358"><ele>220.0</ele><time>2026-05-01T16:42:28.999Z</time></trkpt><trkpt lat="43.05524905397698" lon="12.58964575871498"><ele>220.0</ele><time>2026-05-01T16:42:29.999Z</time></trkpt><trkpt lat="43.05538572227412" lon="12.589529406125376"><ele>220.0</ele><time>2026-05-01T16:42:30.999Z</time></trkpt><trkpt lat="43.0555268117823" lon="12.589418260230174"><ele>220.0</ele><time>2026-05-01T16:42:31.999Z</time></trkpt><trkpt lat="43.05566427353166" lon="12.589301941629756"><ele>220.33333333333331</ele><time>2026-05-01T16:42:32.999Z</time></trkpt><trkpt lat="43.05579537072481" lon="12.589168139983547"><ele>220.66666666666669</ele><time>2026-05-01T16:42:33.999Z</time></trkpt><trkpt lat="43.05591993666367" lon="12.589028021013997"><ele>221.0</ele><time>2026-05-01T16:42:34.999Z</time></trkpt><trkpt lat="43.05604485892737" lon="12.588883957486066"><ele>221.0</ele><time>2026-05-01T16:42:35.999Z</time></trkpt><trkpt lat="43.05616625687268" lon="12.588741298002866"><ele>221.0</ele><time>2026-05-01T16:42:36.999Z</time></trkpt><trkpt lat="43.05627887876805" lon="12.588608691258083"><ele>221.0</ele><time>2026-05-01T16:42:37.999Z</time></trkpt><trkpt lat="43.05639373030796" lon="12.588483352620404"><ele>220.75</ele><time>2026-05-01T16:42:38.999Z</time></trkpt><trkpt lat="43.05649501252463" lon="12.58837297914691"><ele>220.5</ele><time>2026-05-01T16:42:39.999Z</time></trkpt><trkpt lat="43.05659109183646" lon="12.588265961400042"><ele>220.25</ele><time>2026-05-01T16:42:40.999Z</time></trkpt><trkpt lat="43.05668066959594" lon="12.58815856977326"><ele>220.0</ele><time>2026-05-01T16:42:41.999Z</time></trkpt><trkpt lat="43.05677565207163" lon="12.58805156585955"><ele>220.0</ele><time>2026-05-01T16:42:42.999Z</time></trkpt><trkpt lat="43.05687395510725" lon="12.587941656164288"><ele>220.0</ele><time>2026-05-01T16:42:43.999Z</time></trkpt><trkpt lat="43.056963866901064" lon="12.587836181749875"><ele>220.0</ele><time>2026-05-01T16:42:44.999Z</time></trkpt><trkpt lat="43.05705154950237" lon="12.587736614587127"><ele>220.0</ele><time>2026-05-01T16:42:45.999Z</time></trkpt><trkpt lat="43.057145693123665" lon="12.587633823485852"><ele>220.0</ele><time>2026-05-01T16:42:46.999Z</time></trkpt><trkpt lat="43.057230673762426" lon="12.587549719359233"><ele>220.0</ele><time>2026-05-01T16:42:47.999Z</time></trkpt><trkpt lat="43.057310604555056" lon="12.587469647639384"><ele>220.0</ele><time>2026-05-01T16:42:48.999Z</time></trkpt><trkpt lat="43.057375489067816" lon="12.587388722959945"><ele>220.0</ele><time>2026-05-01T16:42:49.999Z</time></trkpt><trkpt lat="43.05743993206374" lon="12.587303788256792"><ele>220.0</ele><time>2026-05-01T16:42:50.999Z</time></trkpt><trkpt lat="43.057522287517635" lon="12.587199687783402"><ele>220.0</ele><time>2026-05-01T16:42:51.999Z</time></trkpt><trkpt lat="43.05762795105261" lon="12.587099861138181"><ele>220.0</ele><time>2026-05-01T16:42:52.999Z</time></trkpt><trkpt lat="43.05773549093694" lon="12.586977675078382"><ele>220.0</ele><time>2026-05-01T16:42:53.999Z</time></trkpt><trkpt lat="43.05783689124287" lon="12.586861460620733"><ele>220.0</ele><time>2026-05-01T16:42:54.999Z</time></trkpt><trkpt lat="43.05794004248927" lon="12.586740972419461"><ele>220.0</ele><time>2026-05-01T16:42:55.999Z</time></trkpt><trkpt lat="43.05803995141676" lon="12.586629892939989"><ele>220.0</ele><time>2026-05-01T16:42:56.999Z</time></trkpt><trkpt lat="43.05813824324714" lon="12.586520934453624"><ele>220.0</ele><time>2026-05-01T16:42:57.999Z</time></trkpt><trkpt lat="43.05824365877361" lon="12.586408760303744"><ele>220.0</ele><time>2026-05-01T16:42:58.999Z</time></trkpt><trkpt lat="43.05834567644504" lon="12.586301056804567"><ele>220.0</ele><time>2026-05-01T16:42:59.999Z</time></trkpt><trkpt lat="43.058447729599806" lon="12.5861907571155"><ele>220.0</ele><time>2026-05-01T16:43:00.999Z</time></trkpt><trkpt lat="43.05854576952079" lon="12.586089405094015"><ele>220.0</ele><time>2026-05-01T16:43:01.999Z</time></trkpt><trkpt lat="43.058644295433304" lon="12.585990144655733"><ele>220.0</ele><time>2026-05-01T16:43:02.999Z</time></trkpt><trkpt lat="43.05873480732273" lon="12.585896764381964"><ele>219.99999999999997</ele><time>2026-05-01T16:43:03.999Z</time></trkpt><trkpt lat="43.058814511693" lon="12.585816013222379"><ele>220.0</ele><time>2026-05-01T16:43:04.999Z</time></trkpt><trkpt lat="43.05890714003792" lon="12.585783078590735"><ele>220.0</ele><time>2026-05-01T16:43:05.999Z</time></trkpt><trkpt lat="43.05898399964276" lon="12.585739346202372"><ele>220.0</ele><time>2026-05-01T16:43:06.999Z</time></trkpt><trkpt lat="43.05904860601377" lon="12.585703536640585"><ele>219.99999999999997</ele><time>2026-05-01T16:43:07.999Z</time></trkpt><trkpt lat="43.059115612223216" lon="12.585688857376185"><ele>220.0</ele><time>2026-05-01T16:43:08.999Z</time></trkpt><trkpt lat="43.05918215141932" lon="12.585655333893763"><ele>220.2</ele><time>2026-05-01T16:43:09.999Z</time></trkpt><trkpt lat="43.05924985886604" lon="12.585600672287143"><ele>220.4</ele><time>2026-05-01T16:43:10.999Z</time></trkpt><trkpt lat="43.05931664315739" lon="12.58552074309812"><ele>220.60000000000002</ele><time>2026-05-01T16:43:11.999Z</time></trkpt><trkpt lat="43.059383611458706" lon="12.585413396022814"><ele>220.8</ele><time>2026-05-01T16:43:12.999Z</time></trkpt><trkpt lat="43.05945852663147" lon="12.585297456614027"><ele>221.0</ele><time>2026-05-01T16:43:13.999Z</time></trkpt><trkpt lat="43.05954536388693" lon="12.585181964505601"><ele>221.0</ele><time>2026-05-01T16:43:14.999Z</time></trkpt><trkpt lat="43.05964160590069" lon="12.58507435128403"><ele>221.0</ele><time>2026-05-01T16:43:15.999Z</time></trkpt><trkpt lat="43.05973426160084" lon="12.584965066721578"><ele>221.0</ele><time>2026-05-01T16:43:16.999Z</time></trkpt><trkpt lat="43.059824184449226" lon="12.584850071829845"><ele>221.0</ele><time>2026-05-01T16:43:17.999Z</time></trkpt><trkpt lat="43.0599094603359" lon="12.584745124033095"><ele>221.25</ele><time>2026-05-01T16:43:18.999Z</time></trkpt><trkpt lat="43.05999716987056" lon="12.584639838706806"><ele>221.5</ele><time>2026-05-01T16:43:19.999Z</time></trkpt><trkpt lat="43.06008443812084" lon="12.584534591872313"><ele>221.75</ele><time>2026-05-01T16:43:20.999Z</time></trkpt><trkpt lat="43.06016779774838" lon="12.58442798993058"><ele>222.0</ele><time>2026-05-01T16:43:21.999Z</time></trkpt><trkpt lat="43.06025097597999" lon="12.584319631123954"><ele>221.6</ele><time>2026-05-01T16:43:22.999Z</time></trkpt><trkpt lat="43.06034072627229" lon="12.58423665343496"><ele>221.2</ele><time>2026-05-01T16:43:23.999Z</time></trkpt><trkpt lat="43.06040682175067" lon="12.58412855551118"><ele>220.8</ele><time>2026-05-01T16:43:24.999Z</time></trkpt><trkpt lat="43.06048036701745" lon="12.584052081291873"><ele>220.4</ele><time>2026-05-01T16:43:25.999Z</time></trkpt><trkpt lat="43.060552618861095" lon="12.584009009178663"><ele>220.0</ele><time>2026-05-01T16:43:26.999Z</time></trkpt><trkpt lat="43.0606262222108" lon="12.584005543635131"><ele>219.99999999999997</ele><time>2026-05-01T16:43:27.999Z</time></trkpt><trkpt lat="43.06068981778255" lon="12.584045132522359"><ele>220.0</ele><time>2026-05-01T16:43:28.999Z</time></trkpt><trkpt lat="43.06074735223792" lon="12.584113012467114"><ele>220.0</ele><time>2026-05-01T16:43:29.999Z</time></trkpt><trkpt lat="43.060799776951356" lon="12.58421931167445"><ele>220.0</ele><time>2026-05-01T16:43:30.999Z</time></trkpt><trkpt lat="43.060851988304144" lon="12.584328945934782"><ele>219.99999999999997</ele><time>2026-05-01T16:43:31.999Z</time></trkpt><trkpt lat="43.06089825265617" lon="12.58442732137372"><ele>220.0</ele><time>2026-05-01T16:43:32.999Z</time></trkpt><trkpt lat="43.06093952405483" lon="12.584518030271822"><ele>220.33333333333331</ele><time>2026-05-01T16:43:34Z</time></trkpt><trkpt lat="43.06100066913338" lon="12.584618855417412"><ele>220.66666666666666</ele><time>2026-05-01T16:43:36Z</time></trkpt><trkpt lat="43.0610662976568" lon="12.584655553211245"><ele>221.0</ele><time>2026-05-01T16:43:40Z</time></trkpt><trkpt lat="43.06112948315452" lon="12.584583850170029"><ele>221.33333333333331</ele><time>2026-05-01T16:43:41Z</time></trkpt><trkpt lat="43.06116498531199" lon="12.584507782571837"><ele>221.66666666666666</ele><time>2026-05-01T16:43:42Z</time></trkpt><trkpt lat="43.06124730593374" lon="12.584471895259892"><ele>222.0</ele><time>2026-05-01T16:43:43Z</time></trkpt><trkpt lat="43.061323131461755" lon="12.584405725028402"><ele>222.0</ele><time>2026-05-01T16:43:44Z</time></trkpt><trkpt lat="43.061393257699244" lon="12.584334579929184"><ele>222.0</ele><time>2026-05-01T16:43:45Z</time></trkpt><trkpt lat="43.06145452771808" lon="12.584275183977995"><ele>222.0</ele><time>2026-05-01T16:43:46Z</time></trkpt><trkpt lat="43.06151048957799" lon="12.5842215964726"><ele>222.0</ele><time>2026-05-01T16:43:47Z</time></trkpt><trkpt lat="43.06160768229829" lon="12.58414815977095"><ele>222.0</ele><time>2026-05-01T16:43:49Z</time></trkpt><trkpt lat="43.06151853909833" lon="12.583967061495933"><ele>222.0</ele><time>2026-05-01T16:43:54Z</time></trkpt><trkpt lat="43.06156520068026" lon="12.584037653249343"><ele>222.0</ele><time>2026-05-01T16:45:36.999Z</time></trkpt><trkpt lat="43.06157928997583" lon="12.584122750292082"><ele>222.0</ele><time>2026-05-01T16:45:45Z</time></trkpt><trkpt lat="43.061535382682116" lon="12.584203220771682"><ele>222.0</ele><time>2026-05-01T16:45:49Z</time></trkpt><trkpt lat="43.061528748736166" lon="12.584301044578847"><ele>222.0</ele><time>2026-05-01T16:45:58Z</time></trkpt><trkpt lat="43.061388274814995" lon="12.583947317568024"><ele>222.0</ele><time>2026-05-01T16:46:26.811Z</time></trkpt><trkpt lat="43.06140756522576" lon="12.584073824340352"><ele>222.0</ele><time>2026-05-01T16:51:36.01Z</time></trkpt><trkpt lat="43.061458156769646" lon="12.583987370835171"><ele>222.0</ele><time>2026-05-01T16:52:17Z</time></trkpt><trkpt lat="43.06139742719065" lon="12.583952693856537"><ele>222.0</ele><time>2026-05-01T17:12:41.999Z</time></trkpt></trkseg></trk></gpx>